<?xml version='1.0' encoding='UTF-8'?><gpx version="1.1" creator="JPX - https://github.com/jenetics/jpx" xmlns="http://www.topografix.com/GPX/1/1"><trk><trkseg><trkpt lat="42.07666622358965" lon="13.53927349393271"><ele>727.4</ele><time>2026-04-23T11:41:28Z</time></trkpt><trkpt lat="42.076579487828944" lon="13.539223984973642"><ele>726.8</ele><time>2026-04-23T11:41:30Z</time></trkpt><trkpt lat="42.07649341612568" lon="13.539208617406238"><ele>726.2</ele><time>2026-04-23T11:41:34Z</time></trkpt><trkpt lat="42.076380927799484" lon="13.539161795777572"><ele>725.6</ele><time>2026-04-23T11:41:36Z</time></trkpt><trkpt lat="42.07629233134882" lon="13.539157808480219"><ele>725.0</ele><time>2026-04-23T11:41:37Z</time></trkpt><trkpt lat="42.07619027925677" lon="13.53917511312444"><ele>725.0</ele><time>2026-04-23T11:41:38Z</time></trkpt><trkpt lat="42.076083624061944" lon="13.539193802981059"><ele>725.0</ele><time>2026-04-23T11:41:39Z</time></trkpt><trkpt lat="42.07597323318412" lon="13.539210331694852"><ele>725.0</ele><time>2026-04-23T11:41:40Z</time></trkpt><trkpt lat="42.07586360662056" lon="13.539225293719804"><ele>725.0</ele><time>2026-04-23T11:41:41Z</time></trkpt><trkpt lat="42.07575285251595" lon="13.539238861727673"><ele>725.0</ele><time>2026-04-23T11:41:42Z</time></trkpt><trkpt lat="42.0756416744038" lon="13.5392515396713"><ele>724.4</ele><time>2026-04-23T11:41:43Z</time></trkpt><trkpt lat="42.075528952478614" lon="13.539269881035693"><ele>723.8</ele><time>2026-04-23T11:41:44Z</time></trkpt><trkpt lat="42.075419142532716" lon="13.539274074391228"><ele>723.2</ele><time>2026-04-23T11:41:45Z</time></trkpt><trkpt lat="42.075307529296644" lon="13.539297047302437"><ele>722.6</ele><time>2026-04-23T11:41:46Z</time></trkpt><trkpt lat="42.07519931759772" lon="13.539310633658136"><ele>722.0</ele><time>2026-04-23T11:41:47Z</time></trkpt><trkpt lat="42.07509007377787" lon="13.53932564588891"><ele>722.0</ele><time>2026-04-23T11:41:48Z</time></trkpt><trkpt lat="42.0749921713203" lon="13.539348658829454"><ele>722.0</ele><time>2026-04-23T11:41:49Z</time></trkpt><trkpt lat="42.07489585748791" lon="13.53934000227186"><ele>722.0</ele><time>2026-04-23T11:41:50Z</time></trkpt><trkpt lat="42.074797606937835" lon="13.539350559498027"><ele>722.0</ele><time>2026-04-23T11:41:51Z</time></trkpt><trkpt lat="42.07470001971405" lon="13.539383710826755"><ele>722.0</ele><time>2026-04-23T11:41:52Z</time></trkpt><trkpt lat="42.07460274493588" lon="13.539379974888071"><ele>721.4000000000001</ele><time>2026-04-23T11:41:53Z</time></trkpt><trkpt lat="42.07450052515467" lon="13.539389272433311"><ele>720.8000000000001</ele><time>2026-04-23T11:41:54Z</time></trkpt><trkpt lat="42.074401931564154" lon="13.539405401058282"><ele>720.2</ele><time>2026-04-23T11:41:55Z</time></trkpt><trkpt lat="42.07430215103893" lon="13.539418108962465"><ele>719.6</ele><time>2026-04-23T11:41:56Z</time></trkpt><trkpt lat="42.07420107572533" lon="13.53942822163898"><ele>719.0</ele><time>2026-04-23T11:41:57Z</time></trkpt><trkpt lat="42.07409988169222" lon="13.539423088618157"><ele>718.6</ele><time>2026-04-23T11:41:58Z</time></trkpt><trkpt lat="42.07400280071064" lon="13.539391773799537"><ele>718.2</ele><time>2026-04-23T11:41:59Z</time></trkpt><trkpt lat="42.073918641403694" lon="13.539325730599401"><ele>717.8000000000001</ele><time>2026-04-23T11:42:00Z</time></trkpt><trkpt lat="42.07384648514528" lon="13.539236667616493"><ele>717.4000000000001</ele><time>2026-04-23T11:42:01Z</time></trkpt><trkpt lat="42.07378766903035" lon="13.539127514558444"><ele>717.0</ele><time>2026-04-23T11:42:02Z</time></trkpt><trkpt lat="42.07374319955149" lon="13.53900743299387"><ele>717.0</ele><time>2026-04-23T11:42:03Z</time></trkpt><trkpt lat="42.073706386824504" lon="13.538898521118181"><ele>717.0</ele><time>2026-04-23T11:42:04Z</time></trkpt><trkpt lat="42.07367560515084" lon="13.538797545923929"><ele>717.0</ele><time>2026-04-23T11:42:05Z</time></trkpt><trkpt lat="42.07366285360875" lon="13.53870337757865"><ele>717.0</ele><time>2026-04-23T11:42:06Z</time></trkpt><trkpt lat="42.07362114528071" lon="13.538583774945245"><ele>717.0</ele><time>2026-04-23T11:42:08Z</time></trkpt><trkpt lat="42.07350670947168" lon="13.538594994965507"><ele>717.0</ele><time>2026-04-23T11:42:10Z</time></trkpt><trkpt lat="42.07344728210745" lon="13.538660451503402"><ele>717.0</ele><time>2026-04-23T11:42:11Z</time></trkpt><trkpt lat="42.07337769148427" lon="13.538710158376325"><ele>717.0</ele><time>2026-04-23T11:42:12Z</time></trkpt><trkpt lat="42.073285170835874" lon="13.538756645470729"><ele>717.0</ele><time>2026-04-23T11:42:13Z</time></trkpt><trkpt lat="42.0731784586861" lon="13.53880006145366"><ele>717.0</ele><time>2026-04-23T11:42:14Z</time></trkpt><trkpt lat="42.07306249468055" lon="13.538844397402105"><ele>716.4000000000001</ele><time>2026-04-23T11:42:15Z</time></trkpt><trkpt lat="42.07295813119856" lon="13.538884229803639"><ele>715.8000000000001</ele><time>2026-04-23T11:42:16Z</time></trkpt><trkpt lat="42.072862049457484" lon="13.53891221691609"><ele>715.2</ele><time>2026-04-23T11:42:17Z</time></trkpt><trkpt lat="42.07277189959504" lon="13.538918531216604"><ele>714.6</ele><time>2026-04-23T11:42:18Z</time></trkpt><trkpt lat="42.07269098300755" lon="13.538891034251584"><ele>714.0</ele><time>2026-04-23T11:42:19Z</time></trkpt><trkpt lat="42.07261272745891" lon="13.53882855230396"><ele>714.0</ele><time>2026-04-23T11:42:20Z</time></trkpt><trkpt lat="42.07253713647971" lon="13.538738876390665"><ele>714.0</ele><time>2026-04-23T11:42:21Z</time></trkpt><trkpt lat="42.07245414258063" lon="13.538631582839965"><ele>714.0</ele><time>2026-04-23T11:42:22Z</time></trkpt><trkpt lat="42.0723595827864" lon="13.538526344842365"><ele>714.0</ele><time>2026-04-23T11:42:23Z</time></trkpt><trkpt lat="42.072251565409296" lon="13.538424947089577"><ele>713.5</ele><time>2026-04-23T11:42:24Z</time></trkpt><trkpt lat="42.07213387235224" lon="13.5383289440057"><ele>713.0</ele><time>2026-04-23T11:42:25Z</time></trkpt><trkpt lat="42.07200953615881" lon="13.538232647216539"><ele>712.5</ele><time>2026-04-23T11:42:26Z</time></trkpt><trkpt lat="42.07187428025887" lon="13.538138740410714"><ele>712.0</ele><time>2026-04-23T11:42:27Z</time></trkpt><trkpt lat="42.071736313020715" lon="13.538043993133375"><ele>711.25</ele><time>2026-04-23T11:42:28Z</time></trkpt><trkpt lat="42.07160237495155" lon="13.537932414663505"><ele>710.5</ele><time>2026-04-23T11:42:28.999Z</time></trkpt><trkpt lat="42.07147985231265" lon="13.537852544479598"><ele>709.75</ele><time>2026-04-23T11:42:29.999Z</time></trkpt><trkpt lat="42.07134964715237" lon="13.53776174211274"><ele>709.0</ele><time>2026-04-23T11:42:30.999Z</time></trkpt><trkpt lat="42.07122283759888" lon="13.537670559692788"><ele>709.0</ele><time>2026-04-23T11:42:31.999Z</time></trkpt><trkpt lat="42.0710969429129" lon="13.5375798196247"><ele>709.0</ele><time>2026-04-23T11:42:32.999Z</time></trkpt><trkpt lat="42.07097228724851" lon="13.537487857184988"><ele>709.0</ele><time>2026-04-23T11:42:33.999Z</time></trkpt><trkpt lat="42.070852727007036" lon="13.537388394126172"><ele>709.0</ele><time>2026-04-23T11:42:34.999Z</time></trkpt><trkpt lat="42.07073969291057" lon="13.537262315971558"><ele>708.0</ele><time>2026-04-23T11:42:35.999Z</time></trkpt><trkpt lat="42.07060908257097" lon="13.53716976200911"><ele>707.0</ele><time>2026-04-23T11:42:36.999Z</time></trkpt><trkpt lat="42.0704843915079" lon="13.537054969185983"><ele>706.0</ele><time>2026-04-23T11:42:37.999Z</time></trkpt><trkpt lat="42.07035958453495" lon="13.536930313308739"><ele>706.0</ele><time>2026-04-23T11:42:38.999Z</time></trkpt><trkpt lat="42.07023549141796" lon="13.536816465187705"><ele>706.0</ele><time>2026-04-23T11:42:39.999Z</time></trkpt><trkpt lat="42.07011226161044" lon="13.536698268219068"><ele>706.0</ele><time>2026-04-23T11:42:40.999Z</time></trkpt><trkpt lat="42.06999560303471" lon="13.536574788323003"><ele>705.5</ele><time>2026-04-23T11:42:41.999Z</time></trkpt><trkpt lat="42.06988074243633" lon="13.53644681934454"><ele>705.0</ele><time>2026-04-23T11:42:42.999Z</time></trkpt><trkpt lat="42.069763878082746" lon="13.536319122831566"><ele>704.5</ele><time>2026-04-23T11:42:43.999Z</time></trkpt><trkpt lat="42.06965409725301" lon="13.53619080935958"><ele>704.0</ele><time>2026-04-23T11:42:44.999Z</time></trkpt><trkpt lat="42.06953906065711" lon="13.536076758824382"><ele>704.0</ele><time>2026-04-23T11:42:45.999Z</time></trkpt><trkpt lat="42.069425407802726" lon="13.535970836856155"><ele>704.0</ele><time>2026-04-23T11:42:46.999Z</time></trkpt><trkpt lat="42.06931579212632" lon="13.5358632914728"><ele>704.0</ele><time>2026-04-23T11:42:47.999Z</time></trkpt><trkpt lat="42.069210998671245" lon="13.535750398821682"><ele>704.0</ele><time>2026-04-23T11:42:48.999Z</time></trkpt><trkpt lat="42.06912320934128" lon="13.535616028394701"><ele>703.75</ele><time>2026-04-23T11:42:49.999Z</time></trkpt><trkpt lat="42.06903706969413" lon="13.535486913184013"><ele>703.5</ele><time>2026-04-23T11:42:50.999Z</time></trkpt><trkpt lat="42.06894436077909" lon="13.535369040989442"><ele>703.25</ele><time>2026-04-23T11:42:51.999Z</time></trkpt><trkpt lat="42.06886893522613" lon="13.535229713172061"><ele>703.0</ele><time>2026-04-23T11:42:52.999Z</time></trkpt><trkpt lat="42.06880137836918" lon="13.535093127333976"><ele>702.4</ele><time>2026-04-23T11:42:53.999Z</time></trkpt><trkpt lat="42.06875039571634" lon="13.534971263006645"><ele>701.8</ele><time>2026-04-23T11:42:54.999Z</time></trkpt><trkpt lat="42.06870631049072" lon="13.534860040980902"><ele>701.2</ele><time>2026-04-23T11:42:55.999Z</time></trkpt><trkpt lat="42.06865970331851" lon="13.534755064879096"><ele>700.6</ele><time>2026-04-23T11:42:56.999Z</time></trkpt><trkpt lat="42.06860273306675" lon="13.534659296846153"><ele>700.0</ele><time>2026-04-23T11:42:57.999Z</time></trkpt><trkpt lat="42.0685251097261" lon="13.534567527198636"><ele>699.0</ele><time>2026-04-23T11:42:58.999Z</time></trkpt><trkpt lat="42.06842588208021" lon="13.53449880132064"><ele>698.0</ele><time>2026-04-23T11:42:59.999Z</time></trkpt><trkpt lat="42.06830358203108" lon="13.534462180196005"><ele>697.0</ele><time>2026-04-23T11:43:00.999Z</time></trkpt><trkpt lat="42.06817131088223" lon="13.534440093586204"><ele>696.0</ele><time>2026-04-23T11:43:01.999Z</time></trkpt><trkpt lat="42.06803593183984" lon="13.534425858435545"><ele>695.75</ele><time>2026-04-23T11:43:02.999Z</time></trkpt><trkpt lat="42.06789509639718" lon="13.534409265492723"><ele>695.5</ele><time>2026-04-23T11:43:04Z</time></trkpt><trkpt lat="42.06775051402311" lon="13.53438870690305"><ele>695.25</ele><time>2026-04-23T11:43:05Z</time></trkpt><trkpt lat="42.06760106300582" lon="13.534363998172518"><ele>695.0</ele><time>2026-04-23T11:43:06Z</time></trkpt><trkpt lat="42.06744624122177" lon="13.53434021557543"><ele>694.6666666666666</ele><time>2026-04-23T11:43:07Z</time></trkpt><trkpt lat="42.06728732729815" lon="13.534322501707022"><ele>694.3333333333334</ele><time>2026-04-23T11:43:08Z</time></trkpt><trkpt lat="42.067125276716" lon="13.534303151401286"><ele>694.0</ele><time>2026-04-23T11:43:09Z</time></trkpt><trkpt lat="42.06696320032689" lon="13.534276363878147"><ele>694.0</ele><time>2026-04-23T11:43:10Z</time></trkpt><trkpt lat="42.06679421952133" lon="13.534254148242114"><ele>694.0</ele><time>2026-04-23T11:43:11Z</time></trkpt><trkpt lat="42.06662272107143" lon="13.534230746786838"><ele>694.0</ele><time>2026-04-23T11:43:12Z</time></trkpt><trkpt lat="42.066456167644056" lon="13.53420752799897"><ele>693.6666666666667</ele><time>2026-04-23T11:43:13Z</time></trkpt><trkpt lat="42.06628821038939" lon="13.534180612895414"><ele>693.3333333333334</ele><time>2026-04-23T11:43:14Z</time></trkpt><trkpt lat="42.06611174990502" lon="13.534136197689763"><ele>693.0</ele><time>2026-04-23T11:43:15Z</time></trkpt><trkpt lat="42.06593902606637" lon="13.534095836843358"><ele>692.6666666666666</ele><time>2026-04-23T11:43:16Z</time></trkpt><trkpt lat="42.06576059686363" lon="13.534039945456552"><ele>692.3333333333333</ele><time>2026-04-23T11:43:17Z</time></trkpt><trkpt lat="42.06558949132182" lon="13.533970424725968"><ele>692.0</ele><time>2026-04-23T11:43:18Z</time></trkpt><trkpt lat="42.065416224450715" lon="13.533901119790533"><ele>692.0</ele><time>2026-04-23T11:43:19Z</time></trkpt><trkpt lat="42.065249765233524" lon="13.533835697256308"><ele>692.0</ele><time>2026-04-23T11:43:20Z</time></trkpt><trkpt lat="42.06509283252062" lon="13.533786079474256"><ele>692.0</ele><time>2026-04-23T11:43:21Z</time></trkpt><trkpt lat="42.06494133919676" lon="13.533744670004621"><ele>690.6666666666666</ele><time>2026-04-23T11:43:22Z</time></trkpt><trkpt lat="42.06479105054325" lon="13.533699072904161"><ele>689.3333333333334</ele><time>2026-04-23T11:43:23Z</time></trkpt><trkpt lat="42.06464131737208" lon="13.53366834550906"><ele>688.0</ele><time>2026-04-23T11:43:24Z</time></trkpt><trkpt lat="42.06447053747134" lon="13.53366220702197"><ele>688.0</ele><time>2026-04-23T11:43:25Z</time></trkpt><trkpt lat="42.064297527529135" lon="13.533649504751468"><ele>688.0</ele><time>2026-04-23T11:43:26Z</time></trkpt><trkpt lat="42.0641218978425" lon="13.533639894151857"><ele>688.0</ele><time>2026-04-23T11:43:27Z</time></trkpt><trkpt lat="42.063947146203304" lon="13.533635802742547"><ele>688.3333333333334</ele><time>2026-04-23T11:43:28Z</time></trkpt><trkpt lat="42.063770075751776" lon="13.533628046513392"><ele>688.6666666666666</ele><time>2026-04-23T11:43:29Z</time></trkpt><trkpt lat="42.06359514646508" lon="13.533612229671924"><ele>689.0</ele><time>2026-04-23T11:43:30Z</time></trkpt><trkpt lat="42.06342066272661" lon="13.533586539210447"><ele>688.3333333333333</ele><time>2026-04-23T11:43:31Z</time></trkpt><trkpt lat="42.0632437709779" lon="13.533559445507723"><ele>687.6666666666666</ele><time>2026-04-23T11:43:32Z</time></trkpt><trkpt lat="42.06306964965225" lon="13.533528806268391"><ele>687.0</ele><time>2026-04-23T11:43:33Z</time></trkpt><trkpt lat="42.06290018718922" lon="13.533491151867501"><ele>687.0</ele><time>2026-04-23T11:43:34Z</time></trkpt><trkpt lat="42.06273427213264" lon="13.533451274954144"><ele>687.0</ele><time>2026-04-23T11:43:35Z</time></trkpt><trkpt lat="42.06256890908004" lon="13.533407925760462"><ele>687.0</ele><time>2026-04-23T11:43:36Z</time></trkpt><trkpt lat="42.06240556152449" lon="13.533365049847658"><ele>686.6666666666666</ele><time>2026-04-23T11:43:37Z</time></trkpt><trkpt lat="42.06224102580189" lon="13.533329597970265"><ele>686.3333333333333</ele><time>2026-04-23T11:43:38Z</time></trkpt><trkpt lat="42.06207766643094" lon="13.533293301039334"><ele>686.0</ele><time>2026-04-23T11:43:39Z</time></trkpt><trkpt lat="42.061916089343384" lon="13.533255076137863"><ele>686.0</ele><time>2026-04-23T11:43:40Z</time></trkpt><trkpt lat="42.06176249549737" lon="13.53318515265127"><ele>686.0</ele><time>2026-04-23T11:43:41Z</time></trkpt><trkpt lat="42.061608270265474" lon="13.533134193750143"><ele>686.0</ele><time>2026-04-23T11:43:42Z</time></trkpt><trkpt lat="42.061461148275136" lon="13.533085581900163"><ele>685.75</ele><time>2026-04-23T11:43:43Z</time></trkpt><trkpt lat="42.06133158626093" lon="13.533042912487717"><ele>685.5</ele><time>2026-04-23T11:43:44Z</time></trkpt><trkpt lat="42.06120991254183" lon="13.533002998190376"><ele>685.25</ele><time>2026-04-23T11:43:45Z</time></trkpt><trkpt lat="42.06109961841628" lon="13.53296681693223"><ele>685.0</ele><time>2026-04-23T11:43:46Z</time></trkpt><trkpt lat="42.06099407593112" lon="13.532932325269412"><ele>685.0</ele><time>2026-04-23T11:43:47Z</time></trkpt><trkpt lat="42.06090416523897" lon="13.532903809567419"><ele>685.0</ele><time>2026-04-23T11:43:48Z</time></trkpt><trkpt lat="42.060823030975165" lon="13.532879946555125"><ele>685.0</ele><time>2026-04-23T11:43:49Z</time></trkpt><trkpt lat="42.060716253537635" lon="13.532846183653808"><ele>685.0</ele><time>2026-04-23T11:43:51Z</time></trkpt><trkpt lat="42.06062082243057" lon="13.53306780402828"><ele>685.0</ele><time>2026-04-23T11:43:53Z</time></trkpt><trkpt lat="42.060639445959104" lon="13.533181499482469"><ele>685.0</ele><time>2026-04-23T11:43:54Z</time></trkpt><trkpt lat="42.06069629690019" lon="13.533293712839779"><ele>685.0</ele><time>2026-04-23T11:43:55Z</time></trkpt><trkpt lat="42.06069181738719" lon="13.533459063225836"><ele>685.0</ele><time>2026-04-23T11:43:56Z</time></trkpt><trkpt lat="42.06072480144052" lon="13.533592898958815"><ele>685.0</ele><time>2026-04-23T11:43:57Z</time></trkpt><trkpt lat="42.06079431657362" lon="13.533692862019413"><ele>685.5</ele><time>2026-04-23T11:43:58Z</time></trkpt><trkpt lat="42.06090486084495" lon="13.533724670623114"><ele>686.0</ele><time>2026-04-23T11:43:59Z</time></trkpt><trkpt lat="42.0610178396665" lon="13.533765421671164"><ele>686.5</ele><time>2026-04-23T11:44:00Z</time></trkpt><trkpt lat="42.06113695309807" lon="13.53376482295795"><ele>687.0</ele><time>2026-04-23T11:44:01Z</time></trkpt><trkpt lat="42.061255346616036" lon="13.533776677515526"><ele>687.0</ele><time>2026-04-23T11:44:02Z</time></trkpt><trkpt lat="42.06136348268116" lon="13.533798457278644"><ele>687.0</ele><time>2026-04-23T11:44:03Z</time></trkpt><trkpt lat="42.06145363346376" lon="13.533823076917502"><ele>687.0</ele><time>2026-04-23T11:44:04Z</time></trkpt><trkpt lat="42.06153776170466" lon="13.533863201311602"><ele>687.0</ele><time>2026-04-23T11:44:05Z</time></trkpt><trkpt lat="42.06160450868755" lon="13.533943431210794"><ele>687.0</ele><time>2026-04-23T11:44:06Z</time></trkpt><trkpt lat="42.061650347613714" lon="13.534062556582121"><ele>687.25</ele><time>2026-04-23T11:44:07Z</time></trkpt><trkpt lat="42.06166629688112" lon="13.534199365587497"><ele>687.5</ele><time>2026-04-23T11:44:08Z</time></trkpt><trkpt lat="42.06166209267856" lon="13.53433902440116"><ele>687.75</ele><time>2026-04-23T11:44:09Z</time></trkpt><trkpt lat="42.06168822001658" lon="13.53447798391811"><ele>688.0</ele><time>2026-04-23T11:44:10Z</time></trkpt><trkpt lat="42.061594896693585" lon="13.534646087518693"><ele>688.0</ele><time>2026-04-23T11:44:11Z</time></trkpt><trkpt lat="42.06156585583233" lon="13.534821081879821"><ele>688.0</ele><time>2026-04-23T11:44:12Z</time></trkpt><trkpt lat="42.06153858090956" lon="13.535010701727055"><ele>688.0</ele><time>2026-04-23T11:44:13Z</time></trkpt><trkpt lat="42.06151140184453" lon="13.535212518763043"><ele>688.0</ele><time>2026-04-23T11:44:14Z</time></trkpt><trkpt lat="42.06148129861966" lon="13.535424849762766"><ele>688.0</ele><time>2026-04-23T11:44:15Z</time></trkpt><trkpt lat="42.06145008326546" lon="13.535637765129405"><ele>688.0</ele><time>2026-04-23T11:44:16Z</time></trkpt><trkpt lat="42.061417550703325" lon="13.535858147078333"><ele>688.0</ele><time>2026-04-23T11:44:17Z</time></trkpt><trkpt lat="42.061383233109616" lon="13.536085489526258"><ele>688.6666666666667</ele><time>2026-04-23T11:44:18Z</time></trkpt><trkpt lat="42.061345464444116" lon="13.536318871434954"><ele>689.3333333333334</ele><time>2026-04-23T11:44:19Z</time></trkpt><trkpt lat="42.06130705936256" lon="13.536555687471903"><ele>690.0</ele><time>2026-04-23T11:44:20Z</time></trkpt><trkpt lat="42.0612672092749" lon="13.536801498813785"><ele>690.0</ele><time>2026-04-23T11:44:21Z</time></trkpt><trkpt lat="42.061227754176784" lon="13.53704583099335"><ele>690.0</ele><time>2026-04-23T11:44:22Z</time></trkpt><trkpt lat="42.061186507869664" lon="13.53729335692398"><ele>690.0</ele><time>2026-04-23T11:44:23Z</time></trkpt><trkpt lat="42.06114710749975" lon="13.537546408782342"><ele>691.0</ele><time>2026-04-23T11:44:24Z</time></trkpt><trkpt lat="42.06110633385659" lon="13.537802754668327"><ele>692.0</ele><time>2026-04-23T11:44:25Z</time></trkpt><trkpt lat="42.061065042291204" lon="13.538045139103605"><ele>693.0</ele><time>2026-04-23T11:44:25.999Z</time></trkpt><trkpt lat="42.06102363518143" lon="13.538264428300156"><ele>693.25</ele><time>2026-04-23T11:44:26.999Z</time></trkpt><trkpt lat="42.060988880626645" lon="13.538467007072184"><ele>693.5</ele><time>2026-04-23T11:44:27.999Z</time></trkpt><trkpt lat="42.06095770157004" lon="13.53865505934274"><ele>693.75</ele><time>2026-04-23T11:44:28.999Z</time></trkpt><trkpt lat="42.06092923533046" lon="13.53882871431724"><ele>694.0</ele><time>2026-04-23T11:44:29.999Z</time></trkpt><trkpt lat="42.060903821313836" lon="13.538989520514257"><ele>694.1666666666667</ele><time>2026-04-23T11:44:30.999Z</time></trkpt><trkpt lat="42.060879075715036" lon="13.539131986120857"><ele>694.3333333333334</ele><time>2026-04-23T11:44:31.999Z</time></trkpt><trkpt lat="42.06085182264991" lon="13.539258558996696"><ele>694.5</ele><time>2026-04-23T11:44:32.999Z</time></trkpt><trkpt lat="42.060823906859596" lon="13.539369456098393"><ele>694.6666666666666</ele><time>2026-04-23T11:44:33.999Z</time></trkpt><trkpt lat="42.06078546944495" lon="13.539465634877319"><ele>694.8333333333333</ele><time>2026-04-23T11:44:34.999Z</time></trkpt><trkpt lat="42.06075721597881" lon="13.539556445827554"><ele>695.0</ele><time>2026-04-23T11:44:35.999Z</time></trkpt><trkpt lat="42.060582972079494" lon="13.539600228553457"><ele>694.5</ele><time>2026-04-23T11:44:37.999Z</time></trkpt><trkpt lat="42.06051326877829" lon="13.539615904294553"><ele>694.0</ele><time>2026-04-23T11:44:38.999Z</time></trkpt><trkpt lat="42.06049146831876" lon="13.539867630071308"><ele>693.5</ele><time>2026-04-23T11:44:39.999Z</time></trkpt><trkpt lat="42.06046735544925" lon="13.540010665008342"><ele>693.0</ele><time>2026-04-23T11:44:40.999Z</time></trkpt><trkpt lat="42.060449627378794" lon="13.540163571157876"><ele>693.0</ele><time>2026-04-23T11:44:41.999Z</time></trkpt><trkpt lat="42.06042908367897" lon="13.540322214638051"><ele>693.0</ele><time>2026-04-23T11:44:42.999Z</time></trkpt><trkpt lat="42.060401367226156" lon="13.540487664057094"><ele>693.0</ele><time>2026-04-23T11:44:43.999Z</time></trkpt><trkpt lat="42.06036865010778" lon="13.540660155727297"><ele>693.0</ele><time>2026-04-23T11:44:44.999Z</time></trkpt><trkpt lat="42.060336591204766" lon="13.54083932217115"><ele>693.25</ele><time>2026-04-23T11:44:45.999Z</time></trkpt><trkpt lat="42.0603099200674" lon="13.541020409519598"><ele>693.5</ele><time>2026-04-23T11:44:46.999Z</time></trkpt><trkpt lat="42.06028369926185" lon="13.54120246184259"><ele>693.75</ele><time>2026-04-23T11:44:47.999Z</time></trkpt><trkpt lat="42.060256511978594" lon="13.541388273881447"><ele>694.0</ele><time>2026-04-23T11:44:48.999Z</time></trkpt><trkpt lat="42.060226619061524" lon="13.54156908095447"><ele>694.5</ele><time>2026-04-23T11:44:49.999Z</time></trkpt><trkpt lat="42.060197184032575" lon="13.541751113618455"><ele>695.0</ele><time>2026-04-23T11:44:50.999Z</time></trkpt><trkpt lat="42.06016738339426" lon="13.541932604389116"><ele>695.5</ele><time>2026-04-23T11:44:51.999Z</time></trkpt><trkpt lat="42.06013829614513" lon="13.542113467567892"><ele>696.0</ele><time>2026-04-23T11:44:52.999Z</time></trkpt><trkpt lat="42.060111580102216" lon="13.54228575981801"><ele>696.0</ele><time>2026-04-23T11:44:53.999Z</time></trkpt><trkpt lat="42.060086001837306" lon="13.54243844922723"><ele>696.0</ele><time>2026-04-23T11:44:54.999Z</time></trkpt><trkpt lat="42.06006274834139" lon="13.542586373575343"><ele>696.0</ele><time>2026-04-23T11:44:55.999Z</time></trkpt><trkpt lat="42.060037190435736" lon="13.542735403128994"><ele>696.0</ele><time>2026-04-23T11:44:56.999Z</time></trkpt><trkpt lat="42.060012582839825" lon="13.542874518496317"><ele>696.0</ele><time>2026-04-23T11:44:57.999Z</time></trkpt><trkpt lat="42.05999088514259" lon="13.542998314467312"><ele>696.1666666666666</ele><time>2026-04-23T11:44:58.999Z</time></trkpt><trkpt lat="42.059968269409936" lon="13.543111494972237"><ele>696.3333333333334</ele><time>2026-04-23T11:44:59.999Z</time></trkpt><trkpt lat="42.05993164555369" lon="13.543200985205505"><ele>696.5</ele><time>2026-04-23T11:45:00.999Z</time></trkpt><trkpt lat="42.059916940548796" lon="13.543314899371365"><ele>696.6666666666667</ele><time>2026-04-23T11:45:02.999Z</time></trkpt><trkpt lat="42.05990238708904" lon="13.543403345389915"><ele>696.8333333333334</ele><time>2026-04-23T11:45:04.999Z</time></trkpt><trkpt lat="42.05980394847119" lon="13.543395741446039"><ele>697.0</ele><time>2026-04-23T11:45:05.999Z</time></trkpt><trkpt lat="42.059893497223975" lon="13.543457371571105"><ele>696.5</ele><time>2026-04-23T11:48:43Z</time></trkpt><trkpt lat="42.05977256886661" lon="13.543437692910958"><ele>696.0</ele><time>2026-04-23T11:51:00Z</time></trkpt><trkpt lat="42.059890995530445" lon="13.543472574717631"><ele>695.5</ele><time>2026-04-23T11:51:04Z</time></trkpt><trkpt lat="42.05977241400873" lon="13.543437437800392"><ele>695.0</ele><time>2026-04-23T11:51:39.001Z</time></trkpt><trkpt lat="42.0597402107628" lon="13.543568487224064"><ele>695.0</ele><time>2026-04-23T11:54:38Z</time></trkpt><trkpt lat="42.05974413945229" lon="13.543708523056988"><ele>695.0</ele><time>2026-04-23T11:54:40Z</time></trkpt><trkpt lat="42.059798807378534" lon="13.543810982526796"><ele>695.0</ele><time>2026-04-23T11:54:42Z</time></trkpt><trkpt lat="42.05981201771383" lon="13.543995422135444"><ele>695.0</ele><time>2026-04-23T11:54:44Z</time></trkpt><trkpt lat="42.05978165687767" lon="13.544100995783676"><ele>695.0</ele><time>2026-04-23T11:54:45Z</time></trkpt><trkpt lat="42.05977117230987" lon="13.544199648277944"><ele>695.0</ele><time>2026-04-23T11:54:46Z</time></trkpt><trkpt lat="42.05976257943453" lon="13.544326041135621"><ele>695.0</ele><time>2026-04-23T11:54:48Z</time></trkpt><trkpt lat="42.059882134597714" lon="13.544409918996744"><ele>695.0</ele><time>2026-04-23T11:54:49Z</time></trkpt><trkpt lat="42.05996047509832" lon="13.544420395314816"><ele>695.0</ele><time>2026-04-23T11:54:51Z</time></trkpt><trkpt lat="42.059988411154144" lon="13.54465713795724"><ele>695.0</ele><time>2026-04-23T11:54:54Z</time></trkpt><trkpt lat="42.05995634260961" lon="13.54478945624743"><ele>695.0</ele><time>2026-04-23T11:54:55Z</time></trkpt><trkpt lat="42.059928874129845" lon="13.54494390558415"><ele>695.0</ele><time>2026-04-23T11:54:56Z</time></trkpt><trkpt lat="42.05990140161572" lon="13.545119471992948"><ele>695.0</ele><time>2026-04-23T11:54:57Z</time></trkpt><trkpt lat="42.059877058902885" lon="13.545285913603658"><ele>695.25</ele><time>2026-04-23T11:54:58Z</time></trkpt><trkpt lat="42.059848449269104" lon="13.545458811920502"><ele>695.5</ele><time>2026-04-23T11:54:59Z</time></trkpt><trkpt lat="42.05981735248662" lon="13.545637049960163"><ele>695.75</ele><time>2026-04-23T11:55:00Z</time></trkpt><trkpt lat="42.059787903825736" lon="13.54581891783391"><ele>696.0</ele><time>2026-04-23T11:55:01Z</time></trkpt><trkpt lat="42.059758353548325" lon="13.546005404765468"><ele>696.0</ele><time>2026-04-23T11:55:02Z</time></trkpt><trkpt lat="42.05972683240552" lon="13.546200158032152"><ele>696.0</ele><time>2026-04-23T11:55:03Z</time></trkpt><trkpt lat="42.059694094702195" lon="13.546407442878838"><ele>696.0</ele><time>2026-04-23T11:55:04Z</time></trkpt><trkpt lat="42.05965898107004" lon="13.546623836008367"><ele>696.0</ele><time>2026-04-23T11:55:05Z</time></trkpt><trkpt lat="42.05962235102329" lon="13.546851135285733"><ele>696.0</ele><time>2026-04-23T11:55:06Z</time></trkpt><trkpt lat="42.059581944808684" lon="13.547083690989746"><ele>696.0</ele><time>2026-04-23T11:55:07Z</time></trkpt><trkpt lat="42.05954434398379" lon="13.547327327560641"><ele>696.0</ele><time>2026-04-23T11:55:08Z</time></trkpt><trkpt lat="42.05950705612916" lon="13.54757847268921"><ele>696.0</ele><time>2026-04-23T11:55:09Z</time></trkpt><trkpt lat="42.05946696370396" lon="13.547833516794661"><ele>696.0</ele><time>2026-04-23T11:55:10Z</time></trkpt><trkpt lat="42.05942453697234" lon="13.548092273283073"><ele>695.6666666666666</ele><time>2026-04-23T11:55:11Z</time></trkpt><trkpt lat="42.0593815212487" lon="13.548355321658391"><ele>695.3333333333333</ele><time>2026-04-23T11:55:12Z</time></trkpt><trkpt lat="42.05933910475547" lon="13.548621135765876"><ele>695.0</ele><time>2026-04-23T11:55:13Z</time></trkpt><trkpt lat="42.059297175244176" lon="13.548892876951063"><ele>695.6666666666666</ele><time>2026-04-23T11:55:14Z</time></trkpt><trkpt lat="42.05925278191224" lon="13.549166411407828"><ele>696.3333333333334</ele><time>2026-04-23T11:55:15Z</time></trkpt><trkpt lat="42.05920595775643" lon="13.54943853149731"><ele>697.0</ele><time>2026-04-23T11:55:16Z</time></trkpt><trkpt lat="42.05916066767467" lon="13.549710812068485"><ele>697.0</ele><time>2026-04-23T11:55:17Z</time></trkpt><trkpt lat="42.05911550275868" lon="13.549983067045082"><ele>697.0</ele><time>2026-04-23T11:55:18Z</time></trkpt><trkpt lat="42.059071129246114" lon="13.55025641504305"><ele>697.0</ele><time>2026-04-23T11:55:19Z</time></trkpt><trkpt lat="42.05902574701266" lon="13.550527915845437"><ele>696.3333333333334</ele><time>2026-04-23T11:55:20Z</time></trkpt><trkpt lat="42.05898049742734" lon="13.550797645997589"><ele>695.6666666666666</ele><time>2026-04-23T11:55:21Z</time></trkpt><trkpt lat="42.05893764750276" lon="13.551069749406496"><ele>695.0</ele><time>2026-04-23T11:55:22Z</time></trkpt><trkpt lat="42.058892138862774" lon="13.551339720057834"><ele>694.3333333333333</ele><time>2026-04-23T11:55:23Z</time></trkpt><trkpt lat="42.058848903097385" lon="13.551611441927513"><ele>693.6666666666666</ele><time>2026-04-23T11:55:24Z</time></trkpt><trkpt lat="42.058804788381316" lon="13.551881833059038"><ele>693.0</ele><time>2026-04-23T11:55:25Z</time></trkpt><trkpt lat="42.05875972638399" lon="13.552148044203511"><ele>693.0</ele><time>2026-04-23T11:55:26Z</time></trkpt><trkpt lat="42.05871769333528" lon="13.552412927458432"><ele>693.0</ele><time>2026-04-23T11:55:27Z</time></trkpt><trkpt lat="42.058672974618744" lon="13.552675843298367"><ele>693.0</ele><time>2026-04-23T11:55:28Z</time></trkpt><trkpt lat="42.05863262184217" lon="13.5529439901858"><ele>693.6666666666666</ele><time>2026-04-23T11:55:29Z</time></trkpt><trkpt lat="42.0585902214716" lon="13.553209689254714"><ele>694.3333333333333</ele><time>2026-04-23T11:55:30Z</time></trkpt><trkpt lat="42.05854431082822" lon="13.553473055730812"><ele>695.0</ele><time>2026-04-23T11:55:31Z</time></trkpt><trkpt lat="42.05850401651003" lon="13.55374111554336"><ele>696.3333333333333</ele><time>2026-04-23T11:55:32Z</time></trkpt><trkpt lat="42.05847301851598" lon="13.554015518851532"><ele>697.6666666666666</ele><time>2026-04-23T11:55:33Z</time></trkpt><trkpt lat="42.05841686120913" lon="13.55425465482846"><ele>699.0</ele><time>2026-04-23T11:55:34Z</time></trkpt><trkpt lat="42.05839329247084" lon="13.554520871054507"><ele>698.6666666666666</ele><time>2026-04-23T11:55:35Z</time></trkpt><trkpt lat="42.05835510637274" lon="13.554776341768617"><ele>698.3333333333333</ele><time>2026-04-23T11:55:36Z</time></trkpt><trkpt lat="42.05832238309907" lon="13.55503361584046"><ele>698.0</ele><time>2026-04-23T11:55:37.001Z</time></trkpt><trkpt lat="42.05829190917488" lon="13.5552875736409"><ele>697.3333333333333</ele><time>2026-04-23T11:55:38.001Z</time></trkpt><trkpt lat="42.05826184913576" lon="13.555543164173482"><ele>696.6666666666666</ele><time>2026-04-23T11:55:39.001Z</time></trkpt><trkpt lat="42.0582339856411" lon="13.555797604127134"><ele>696.0</ele><time>2026-04-23T11:55:40.001Z</time></trkpt><trkpt lat="42.058208422205354" lon="13.556049615520225"><ele>696.0</ele><time>2026-04-23T11:55:41.001Z</time></trkpt><trkpt lat="42.05818617900832" lon="13.556300190514268"><ele>696.0</ele><time>2026-04-23T11:55:42.001Z</time></trkpt><trkpt lat="42.058166761821255" lon="13.556550543062093"><ele>696.0</ele><time>2026-04-23T11:55:43.001Z</time></trkpt><trkpt lat="42.05815087796167" lon="13.55679706033882"><ele>695.6666666666666</ele><time>2026-04-23T11:55:44.001Z</time></trkpt><trkpt lat="42.05813881946229" lon="13.557043921314968"><ele>695.3333333333333</ele><time>2026-04-23T11:55:45.001Z</time></trkpt><trkpt lat="42.058126037638715" lon="13.557279415258588"><ele>695.0</ele><time>2026-04-23T11:55:46.001Z</time></trkpt><trkpt lat="42.05811481914983" lon="13.557492881693793"><ele>695.0</ele><time>2026-04-23T11:55:47.001Z</time></trkpt><trkpt lat="42.058102478088145" lon="13.55770462899485"><ele>695.0</ele><time>2026-04-23T11:55:48.001Z</time></trkpt><trkpt lat="42.05809309410653" lon="13.557893208364812"><ele>695.0</ele><time>2026-04-23T11:55:49.001Z</time></trkpt><trkpt lat="42.058091073449056" lon="13.558078367834696"><ele>695.0</ele><time>2026-04-23T11:55:50.001Z</time></trkpt><trkpt lat="42.05810058065993" lon="13.558267437839126"><ele>694.75</ele><time>2026-04-23T11:55:51.001Z</time></trkpt><trkpt lat="42.05812431039797" lon="13.558446676080589"><ele>694.5</ele><time>2026-04-23T11:55:52.001Z</time></trkpt><trkpt lat="42.05813540255825" lon="13.558605861504649"><ele>694.25</ele><time>2026-04-23T11:55:53.001Z</time></trkpt><trkpt lat="42.058126719632185" lon="13.558758452025506"><ele>694.0</ele><time>2026-04-23T11:55:54.001Z</time></trkpt><trkpt lat="42.05811349264878" lon="13.55890865493519"><ele>693.75</ele><time>2026-04-23T11:55:55.001Z</time></trkpt><trkpt lat="42.05803356290027" lon="13.559045560282133"><ele>693.5</ele><time>2026-04-23T11:55:56.001Z</time></trkpt><trkpt lat="42.058005337185406" lon="13.559174282017166"><ele>693.25</ele><time>2026-04-23T11:55:57.001Z</time></trkpt><trkpt lat="42.05800729449176" lon="13.559320814243513"><ele>693.0</ele><time>2026-04-23T11:55:58Z</time></trkpt><trkpt lat="42.058042100972095" lon="13.55947161132757"><ele>693.0</ele><time>2026-04-23T11:55:59Z</time></trkpt><trkpt lat="42.05807639697942" lon="13.559627783808294"><ele>693.0</ele><time>2026-04-23T11:56:00Z</time></trkpt><trkpt lat="42.05807221950165" lon="13.55978634849942"><ele>693.0</ele><time>2026-04-23T11:56:01Z</time></trkpt><trkpt lat="42.05803509125635" lon="13.559939529073368"><ele>693.0</ele><time>2026-04-23T11:56:02Z</time></trkpt><trkpt lat="42.057995537096495" lon="13.560089670412427"><ele>693.0</ele><time>2026-04-23T11:56:03Z</time></trkpt><trkpt lat="42.05796600041984" lon="13.560235146604114"><ele>693.0</ele><time>2026-04-23T11:56:04Z</time></trkpt><trkpt lat="42.05794458986995" lon="13.560399314710496"><ele>693.0</ele><time>2026-04-23T11:56:05Z</time></trkpt><trkpt lat="42.05792906118525" lon="13.560574655031187"><ele>693.0</ele><time>2026-04-23T11:56:06Z</time></trkpt><trkpt lat="42.0579161861623" lon="13.560758542454346"><ele>693.0</ele><time>2026-04-23T11:56:07Z</time></trkpt><trkpt lat="42.057912200440384" lon="13.560950726969956"><ele>693.0</ele><time>2026-04-23T11:56:08Z</time></trkpt><trkpt lat="42.05791265400858" lon="13.561147219555348"><ele>693.0</ele><time>2026-04-23T11:56:09Z</time></trkpt><trkpt lat="42.05788352286228" lon="13.561334001498729"><ele>693.0</ele><time>2026-04-23T11:56:10Z</time></trkpt><trkpt lat="42.05787240152674" lon="13.561548006137722"><ele>693.0</ele><time>2026-04-23T11:56:11Z</time></trkpt><trkpt lat="42.057862225870196" lon="13.561785990157599"><ele>693.0</ele><time>2026-04-23T11:56:12Z</time></trkpt><trkpt lat="42.05786048650096" lon="13.562071066924096"><ele>693.0</ele><time>2026-04-23T11:56:13Z</time></trkpt><trkpt lat="42.05784954658203" lon="13.56238915728737"><ele>693.0</ele><time>2026-04-23T11:56:14Z</time></trkpt><trkpt lat="42.05782261723421" lon="13.56271864313311"><ele>693.0</ele><time>2026-04-23T11:56:15Z</time></trkpt><trkpt lat="42.05779187206643" lon="13.563082010990593"><ele>692.5</ele><time>2026-04-23T11:56:16Z</time></trkpt><trkpt lat="42.057768967583655" lon="13.563436733087567"><ele>692.0</ele><time>2026-04-23T11:56:17Z</time></trkpt><trkpt lat="42.0577497088306" lon="13.563755319885011"><ele>692.0</ele><time>2026-04-23T11:56:18Z</time></trkpt><trkpt lat="42.05772736322153" lon="13.564051531095293"><ele>692.0</ele><time>2026-04-23T11:56:19Z</time></trkpt><trkpt lat="42.05767272516529" lon="13.564306016215857"><ele>692.0</ele><time>2026-04-23T11:56:20Z</time></trkpt><trkpt lat="42.057644680020694" lon="13.564529623160377"><ele>691.3333333333333</ele><time>2026-04-23T11:56:21Z</time></trkpt><trkpt lat="42.057633455672104" lon="13.564725532704456"><ele>690.6666666666666</ele><time>2026-04-23T11:56:22Z</time></trkpt><trkpt lat="42.05762415416285" lon="13.564903198569466"><ele>690.0</ele><time>2026-04-23T11:56:23Z</time></trkpt><trkpt lat="42.05765393947927" lon="13.565293321730856"><ele>689.6666666666666</ele><time>2026-04-23T11:56:24Z</time></trkpt><trkpt lat="42.05763819947099" lon="13.565509279440299"><ele>689.3333333333333</ele><time>2026-04-23T11:56:25Z</time></trkpt><trkpt lat="42.05762578144463" lon="13.565720354143894"><ele>689.0</ele><time>2026-04-23T11:56:26Z</time></trkpt><trkpt lat="42.05761392403633" lon="13.565927962326354"><ele>689.0</ele><time>2026-04-23T11:56:27Z</time></trkpt><trkpt lat="42.057603524098134" lon="13.566139001957525"><ele>689.0</ele><time>2026-04-23T11:56:28Z</time></trkpt><trkpt lat="42.05759491710743" lon="13.566327355748244"><ele>689.0</ele><time>2026-04-23T11:56:29Z</time></trkpt><trkpt lat="42.057588325752874" lon="13.566519439233398"><ele>689.0</ele><time>2026-04-23T11:56:30Z</time></trkpt><trkpt lat="42.0575888265283" lon="13.566721193357933"><ele>689.0</ele><time>2026-04-23T11:56:31Z</time></trkpt><trkpt lat="42.05759368046359" lon="13.56691829715057"><ele>689.0</ele><time>2026-04-23T11:56:32Z</time></trkpt><trkpt lat="42.057587390968436" lon="13.567119126842142"><ele>689.0</ele><time>2026-04-23T11:56:33Z</time></trkpt><trkpt lat="42.05757296799482" lon="13.56733005637457"><ele>689.0</ele><time>2026-04-23T11:56:34Z</time></trkpt><trkpt lat="42.0575461399503" lon="13.567546191276831"><ele>689.0</ele><time>2026-04-23T11:56:35Z</time></trkpt><trkpt lat="42.057519021945176" lon="13.56777604504133"><ele>689.0</ele><time>2026-04-23T11:56:36Z</time></trkpt><trkpt lat="42.0575013505286" lon="13.56803916419197"><ele>688.6666666666666</ele><time>2026-04-23T11:56:37Z</time></trkpt><trkpt lat="42.05749222897847" lon="13.56831778870387"><ele>688.3333333333334</ele><time>2026-04-23T11:56:38Z</time></trkpt><trkpt lat="42.057475909906586" lon="13.568605590416412"><ele>688.0</ele><time>2026-04-23T11:56:39Z</time></trkpt><trkpt lat="42.05745903945201" lon="13.568888971925805"><ele>687.6666666666667</ele><time>2026-04-23T11:56:40Z</time></trkpt><trkpt lat="42.05744397825009" lon="13.569144911936215"><ele>687.3333333333334</ele><time>2026-04-23T11:56:41Z</time></trkpt><trkpt lat="42.057428664827135" lon="13.569384261747077"><ele>687.0</ele><time>2026-04-23T11:56:42Z</time></trkpt><trkpt lat="42.05741268773994" lon="13.569621516604416"><ele>686.3333333333334</ele><time>2026-04-23T11:56:43Z</time></trkpt><trkpt lat="42.05739802578199" lon="13.569856900170262"><ele>685.6666666666667</ele><time>2026-04-23T11:56:44Z</time></trkpt><trkpt lat="42.05738207296217" lon="13.570094532630671"><ele>685.0</ele><time>2026-04-23T11:56:45Z</time></trkpt><trkpt lat="42.05736639778231" lon="13.570331905693282"><ele>684.6666666666667</ele><time>2026-04-23T11:56:46Z</time></trkpt><trkpt lat="42.05735249002191" lon="13.570578011355389"><ele>684.3333333333334</ele><time>2026-04-23T11:56:47Z</time></trkpt><trkpt lat="42.05734100562655" lon="13.570825468500137"><ele>684.0</ele><time>2026-04-23T11:56:48Z</time></trkpt><trkpt lat="42.057327665734384" lon="13.571074359455462"><ele>683.3333333333334</ele><time>2026-04-23T11:56:49Z</time></trkpt><trkpt lat="42.057315562897145" lon="13.57131980789304"><ele>682.6666666666667</ele><time>2026-04-23T11:56:50Z</time></trkpt><trkpt lat="42.05730259328393" lon="13.571562896285489"><ele>682.0</ele><time>2026-04-23T11:56:51Z</time></trkpt><trkpt lat="42.057288591048454" lon="13.57180290642708"><ele>682.3333333333334</ele><time>2026-04-23T11:56:52Z</time></trkpt><trkpt lat="42.05727437341973" lon="13.57204629812862"><ele>682.6666666666666</ele><time>2026-04-23T11:56:53Z</time></trkpt><trkpt lat="42.057260547765495" lon="13.5722904820676"><ele>683.0</ele><time>2026-04-23T11:56:54Z</time></trkpt><trkpt lat="42.05724677325429" lon="13.572531877360529"><ele>683.0</ele><time>2026-04-23T11:56:55Z</time></trkpt><trkpt lat="42.05723130158302" lon="13.572780803763843"><ele>683.0</ele><time>2026-04-23T11:56:56Z</time></trkpt><trkpt lat="42.057216284818075" lon="13.573050518080162"><ele>683.0</ele><time>2026-04-23T11:56:57Z</time></trkpt><trkpt lat="42.05720163651671" lon="13.573340273463483"><ele>685.0</ele><time>2026-04-23T11:56:58Z</time></trkpt><trkpt lat="42.05719100388971" lon="13.573666840935102"><ele>687.0</ele><time>2026-04-23T11:56:59Z</time></trkpt><trkpt lat="42.057177267132815" lon="13.574024038147208"><ele>687.0</ele><time>2026-04-23T11:57:00Z</time></trkpt><trkpt lat="42.05714041503946" lon="13.574394610030499"><ele>687.0</ele><time>2026-04-23T11:57:01Z</time></trkpt><trkpt lat="42.0571356762723" lon="13.574765056194845"><ele>687.0</ele><time>2026-04-23T11:57:02Z</time></trkpt><trkpt lat="42.05710631858376" lon="13.575085538296689"><ele>687.0</ele><time>2026-04-23T11:57:03Z</time></trkpt><trkpt lat="42.05708343247218" lon="13.575380757219968"><ele>687.0</ele><time>2026-04-23T11:57:04Z</time></trkpt><trkpt lat="42.057064589511036" lon="13.575660630544622"><ele>687.0</ele><time>2026-04-23T11:57:05Z</time></trkpt><trkpt lat="42.05704862773879" lon="13.575943460251448"><ele>687.0</ele><time>2026-04-23T11:57:06Z</time></trkpt><trkpt lat="42.05703297803465" lon="13.576227978280093"><ele>687.0</ele><time>2026-04-23T11:57:07Z</time></trkpt><trkpt lat="42.05701502035742" lon="13.576506873616724"><ele>687.0</ele><time>2026-04-23T11:57:08Z</time></trkpt><trkpt lat="42.056997186067576" lon="13.576781487255849"><ele>687.0</ele><time>2026-04-23T11:57:09Z</time></trkpt><trkpt lat="42.05698144064681" lon="13.577044300583706"><ele>687.0</ele><time>2026-04-23T11:57:10Z</time></trkpt><trkpt lat="42.05696515711709" lon="13.577294479055807"><ele>687.0</ele><time>2026-04-23T11:57:11Z</time></trkpt><trkpt lat="42.05695077433999" lon="13.57753358523582"><ele>687.0</ele><time>2026-04-23T11:57:12Z</time></trkpt><trkpt lat="42.05693857837563" lon="13.577774720440377"><ele>687.0</ele><time>2026-04-23T11:57:13Z</time></trkpt><trkpt lat="42.05692666234123" lon="13.578013929351147"><ele>687.0</ele><time>2026-04-23T11:57:14Z</time></trkpt><trkpt lat="42.05691306848026" lon="13.578245574235876"><ele>687.0</ele><time>2026-04-23T11:57:15Z</time></trkpt><trkpt lat="42.056898630403516" lon="13.578463199591916"><ele>687.0</ele><time>2026-04-23T11:57:16Z</time></trkpt><trkpt lat="42.056884424069516" lon="13.57867194677199"><ele>687.0</ele><time>2026-04-23T11:57:17Z</time></trkpt><trkpt lat="42.05686816567016" lon="13.578885157713469"><ele>687.0</ele><time>2026-04-23T11:57:18Z</time></trkpt><trkpt lat="42.05685135313784" lon="13.579097267171637"><ele>687.6666666666666</ele><time>2026-04-23T11:57:19Z</time></trkpt><trkpt lat="42.056830576723065" lon="13.579311321625795"><ele>688.3333333333333</ele><time>2026-04-23T11:57:20Z</time></trkpt><trkpt lat="42.056799101086014" lon="13.579521838973152"><ele>689.0</ele><time>2026-04-23T11:57:21Z</time></trkpt><trkpt lat="42.0567562608671" lon="13.579720899987764"><ele>689.0</ele><time>2026-04-23T11:57:22Z</time></trkpt><trkpt lat="42.05669416990967" lon="13.579913221901478"><ele>689.0</ele><time>2026-04-23T11:57:23Z</time></trkpt><trkpt lat="42.056619434157795" lon="13.580085092047264"><ele>689.0</ele><time>2026-04-23T11:57:23.999Z</time></trkpt><trkpt lat="42.05654488696525" lon="13.580236453523035"><ele>689.0</ele><time>2026-04-23T11:57:24.999Z</time></trkpt><trkpt lat="42.05647989614803" lon="13.580355841593768"><ele>689.0</ele><time>2026-04-23T11:57:25.999Z</time></trkpt><trkpt lat="42.05642190614042" lon="13.580462488734884"><ele>689.0</ele><time>2026-04-23T11:57:26.999Z</time></trkpt><trkpt lat="42.056370843704244" lon="13.580559524180053"><ele>689.0</ele><time>2026-04-23T11:57:27.999Z</time></trkpt><trkpt lat="42.05632855713599" lon="13.580647310376795"><ele>689.0</ele><time>2026-04-23T11:57:28.999Z</time></trkpt><trkpt lat="42.05627427805384" lon="13.580743380917157"><ele>689.0</ele><time>2026-04-23T11:57:30.999Z</time></trkpt><trkpt lat="42.0561955324176" lon="13.580825394533347"><ele>689.0</ele><time>2026-04-23T11:57:32.999Z</time></trkpt><trkpt lat="42.05613578110479" lon="13.580866427695467"><ele>689.0</ele><time>2026-04-23T11:57:33.999Z</time></trkpt><trkpt lat="42.056057564504115" lon="13.580904039397886"><ele>689.0</ele><time>2026-04-23T11:57:34.999Z</time></trkpt><trkpt lat="42.05598281110226" lon="13.580933329335728"><ele>689.0</ele><time>2026-04-23T11:57:35.999Z</time></trkpt><trkpt lat="42.0559178884822" lon="13.580986453392232"><ele>689.0</ele><time>2026-04-23T11:57:36.999Z</time></trkpt><trkpt lat="42.05586692612599" lon="13.58107335372032"><ele>689.0</ele><time>2026-04-23T11:57:37.999Z</time></trkpt><trkpt lat="42.05584649808633" lon="13.581195848621068"><ele>689.6</ele><time>2026-04-23T11:57:38.999Z</time></trkpt><trkpt lat="42.055842933788696" lon="13.581312233535915"><ele>690.2</ele><time>2026-04-23T11:57:39.999Z</time></trkpt><trkpt lat="42.05587571526801" lon="13.581418037292577"><ele>690.8000000000001</ele><time>2026-04-23T11:57:40.999Z</time></trkpt><trkpt lat="42.05594103498055" lon="13.58152752934656"><ele>691.4000000000001</ele><time>2026-04-23T11:57:41.999Z</time></trkpt><trkpt lat="42.05602172849943" lon="13.581612563015025"><ele>692.0</ele><time>2026-04-23T11:57:43.001Z</time></trkpt><trkpt lat="42.056029331886855" lon="13.581828013803753"><ele>693.0</ele><time>2026-04-23T11:57:44.001Z</time></trkpt><trkpt lat="42.0560305612672" lon="13.582032552347634"><ele>694.0</ele><time>2026-04-23T11:57:45.001Z</time></trkpt><trkpt lat="42.056019315170055" lon="13.582267735070324"><ele>695.0</ele><time>2026-04-23T11:57:46.001Z</time></trkpt><trkpt lat="42.05602812813492" lon="13.582538840931647"><ele>695.0</ele><time>2026-04-23T11:57:47.001Z</time></trkpt><trkpt lat="42.056081001144946" lon="13.582832961036248"><ele>695.0</ele><time>2026-04-23T11:57:48.001Z</time></trkpt><trkpt lat="42.05617488964674" lon="13.583131249025651"><ele>695.5</ele><time>2026-04-23T11:57:49.001Z</time></trkpt><trkpt lat="42.05629117290153" lon="13.583455530643178"><ele>696.0</ele><time>2026-04-23T11:57:50.001Z</time></trkpt><trkpt lat="42.05638438977582" lon="13.58372748589409"><ele>696.6666666666666</ele><time>2026-04-23T11:57:51.001Z</time></trkpt><trkpt lat="42.05644681239885" lon="13.58397772924657"><ele>697.3333333333333</ele><time>2026-04-23T11:57:52.001Z</time></trkpt><trkpt lat="42.056497796240976" lon="13.58420308814564"><ele>698.0</ele><time>2026-04-23T11:57:53.001Z</time></trkpt><trkpt lat="42.05652577864984" lon="13.584438971096409"><ele>699.3333333333333</ele><time>2026-04-23T11:57:54.001Z</time></trkpt><trkpt lat="42.05652266193669" lon="13.58466732554094"><ele>700.6666666666666</ele><time>2026-04-23T11:57:55.001Z</time></trkpt><trkpt lat="42.056526214986306" lon="13.584882904924912"><ele>702.0</ele><time>2026-04-23T11:57:56.001Z</time></trkpt><trkpt lat="42.0564981881078" lon="13.585113619852534"><ele>702.0</ele><time>2026-04-23T11:57:57.001Z</time></trkpt><trkpt lat="42.05647714882854" lon="13.58534373318647"><ele>702.0</ele><time>2026-04-23T11:57:58.001Z</time></trkpt><trkpt lat="42.05646464780064" lon="13.585579582339575"><ele>702.0</ele><time>2026-04-23T11:57:59.001Z</time></trkpt><trkpt lat="42.056452649713876" lon="13.585824440301206"><ele>703.0</ele><time>2026-04-23T11:58:00Z</time></trkpt><trkpt lat="42.05644718144861" lon="13.586110522535261"><ele>704.0</ele><time>2026-04-23T11:58:01Z</time></trkpt><trkpt lat="42.05642157900974" lon="13.5864374087407"><ele>705.5</ele><time>2026-04-23T11:58:02Z</time></trkpt><trkpt lat="42.05641369044987" lon="13.586786122570063"><ele>707.0</ele><time>2026-04-23T11:58:03Z</time></trkpt><trkpt lat="42.05638767448463" lon="13.587155541041742"><ele>708.5</ele><time>2026-04-23T11:58:04Z</time></trkpt><trkpt lat="42.05636964858143" lon="13.587562021072351"><ele>710.0</ele><time>2026-04-23T11:58:05Z</time></trkpt><trkpt lat="42.05634843781681" lon="13.587978187885977"><ele>711.0</ele><time>2026-04-23T11:58:06Z</time></trkpt><trkpt lat="42.05632400962859" lon="13.588351770145543"><ele>712.0</ele><time>2026-04-23T11:58:07Z</time></trkpt><trkpt lat="42.056293602722285" lon="13.58868901287779"><ele>712.6666666666667</ele><time>2026-04-23T11:58:08Z</time></trkpt><trkpt lat="42.05626520388399" lon="13.58898656518337"><ele>713.3333333333334</ele><time>2026-04-23T11:58:09Z</time></trkpt><trkpt lat="42.0562376498751" lon="13.58924840609562"><ele>714.0</ele><time>2026-04-23T11:58:10Z</time></trkpt><trkpt lat="42.056232178244564" lon="13.589484728617355"><ele>714.0</ele><time>2026-04-23T11:58:11Z</time></trkpt><trkpt lat="42.056225992706885" lon="13.589707709285689"><ele>714.0</ele><time>2026-04-23T11:58:12Z</time></trkpt><trkpt lat="42.056218986421634" lon="13.589913132932931"><ele>714.0</ele><time>2026-04-23T11:58:13Z</time></trkpt><trkpt lat="42.05620660906979" lon="13.590108888792276"><ele>714.0</ele><time>2026-04-23T11:58:14Z</time></trkpt><trkpt lat="42.056192809645594" lon="13.59030044355793"><ele>714.0</ele><time>2026-04-23T11:58:15Z</time></trkpt><trkpt lat="42.056182701076224" lon="13.590493264780466"><ele>714.0</ele><time>2026-04-23T11:58:16Z</time></trkpt><trkpt lat="42.056172769636675" lon="13.590683024041516"><ele>714.0</ele><time>2026-04-23T11:58:17Z</time></trkpt><trkpt lat="42.05616267738847" lon="13.590875329728625"><ele>714.6666666666666</ele><time>2026-04-23T11:58:18Z</time></trkpt><trkpt lat="42.05614961395113" lon="13.591074181154147"><ele>715.3333333333333</ele><time>2026-04-23T11:58:19Z</time></trkpt><trkpt lat="42.05613700013927" lon="13.59128281729012"><ele>716.0</ele><time>2026-04-23T11:58:20Z</time></trkpt><trkpt lat="42.05612449182591" lon="13.591500229552263"><ele>716.0</ele><time>2026-04-23T11:58:21Z</time></trkpt><trkpt lat="42.05611132220432" lon="13.591723205975114"><ele>716.0</ele><time>2026-04-23T11:58:22Z</time></trkpt><trkpt lat="42.05609576625724" lon="13.591940950712013"><ele>716.0</ele><time>2026-04-23T11:58:23Z</time></trkpt><trkpt lat="42.05608144086583" lon="13.592164204186359"><ele>716.6666666666666</ele><time>2026-04-23T11:58:24Z</time></trkpt><trkpt lat="42.056068810734516" lon="13.592394085971863"><ele>717.3333333333334</ele><time>2026-04-23T11:58:25Z</time></trkpt><trkpt lat="42.056057493458944" lon="13.592615048289307"><ele>718.0</ele><time>2026-04-23T11:58:26Z</time></trkpt><trkpt lat="42.05605007629223" lon="13.592834331519986"><ele>718.3333333333334</ele><time>2026-04-23T11:58:27Z</time></trkpt><trkpt lat="42.05605096091319" lon="13.593070179073669"><ele>718.6666666666666</ele><time>2026-04-23T11:58:28Z</time></trkpt><trkpt lat="42.056069672367045" lon="13.593353707060723"><ele>719.0</ele><time>2026-04-23T11:58:29Z</time></trkpt><trkpt lat="42.056075351169284" lon="13.593694264237552"><ele>719.5</ele><time>2026-04-23T11:58:30Z</time></trkpt><trkpt lat="42.05611804369237" lon="13.594048619085902"><ele>720.0</ele><time>2026-04-23T11:58:31Z</time></trkpt><trkpt lat="42.056151117052124" lon="13.594439047434877"><ele>720.0</ele><time>2026-04-23T11:58:32Z</time></trkpt><trkpt lat="42.05618008067755" lon="13.594844483652285"><ele>720.0</ele><time>2026-04-23T11:58:33Z</time></trkpt><trkpt lat="42.056210501808465" lon="13.59526488011571"><ele>720.5</ele><time>2026-04-23T11:58:34Z</time></trkpt><trkpt lat="42.05625386285976" lon="13.595683463746685"><ele>721.0</ele><time>2026-04-23T11:58:35Z</time></trkpt><trkpt lat="42.056302731297514" lon="13.596058687206503"><ele>720.5</ele><time>2026-04-23T11:58:36Z</time></trkpt><trkpt lat="42.05634071484292" lon="13.596406588585708"><ele>720.0</ele><time>2026-04-23T11:58:37Z</time></trkpt><trkpt lat="42.056376721396255" lon="13.596755439339779"><ele>720.5</ele><time>2026-04-23T11:58:38Z</time></trkpt><trkpt lat="42.0564117025561" lon="13.597102967482932"><ele>721.0</ele><time>2026-04-23T11:58:39Z</time></trkpt><trkpt lat="42.05645212382811" lon="13.597444258841596"><ele>721.0</ele><time>2026-04-23T11:58:40Z</time></trkpt><trkpt lat="42.056503353047034" lon="13.597816926451678"><ele>721.0</ele><time>2026-04-23T11:58:41Z</time></trkpt><trkpt lat="42.05656710328538" lon="13.598220726037015"><ele>722.0</ele><time>2026-04-23T11:58:42Z</time></trkpt><trkpt lat="42.05655635239041" lon="13.59847260957024"><ele>723.0</ele><time>2026-04-23T11:58:43Z</time></trkpt><trkpt lat="42.05659827643092" lon="13.598823803451175"><ele>724.0</ele><time>2026-04-23T11:58:44Z</time></trkpt><trkpt lat="42.05663554942374" lon="13.59917870068535"><ele>725.0</ele><time>2026-04-23T11:58:45Z</time></trkpt><trkpt lat="42.05667011809054" lon="13.599531217412132"><ele>727.0</ele><time>2026-04-23T11:58:46Z</time></trkpt><trkpt lat="42.05670502706399" lon="13.599881113326079"><ele>729.0</ele><time>2026-04-23T11:58:47Z</time></trkpt><trkpt lat="42.05674164582302" lon="13.600231570854833"><ele>729.5</ele><time>2026-04-23T11:58:48Z</time></trkpt><trkpt lat="42.05677946148089" lon="13.600573683856988"><ele>730.0</ele><time>2026-04-23T11:58:49Z</time></trkpt><trkpt lat="42.05681495964968" lon="13.600903874791994"><ele>731.0</ele><time>2026-04-23T11:58:50Z</time></trkpt><trkpt lat="42.05685090085766" lon="13.601231011742652"><ele>732.0</ele><time>2026-04-23T11:58:51Z</time></trkpt><trkpt lat="42.0568829891652" lon="13.601548583231297"><ele>732.0</ele><time>2026-04-23T11:58:52Z</time></trkpt><trkpt lat="42.05691652437314" lon="13.601838720299783"><ele>732.0</ele><time>2026-04-23T11:58:53Z</time></trkpt><trkpt lat="42.05694494238795" lon="13.602106172593299"><ele>732.0</ele><time>2026-04-23T11:58:54Z</time></trkpt><trkpt lat="42.05697497248961" lon="13.602351224690755"><ele>732.6666666666666</ele><time>2026-04-23T11:58:55Z</time></trkpt><trkpt lat="42.05699125570054" lon="13.602581351238586"><ele>733.3333333333333</ele><time>2026-04-23T11:58:56Z</time></trkpt><trkpt lat="42.0569931457221" lon="13.602795919918464"><ele>734.0</ele><time>2026-04-23T11:58:57Z</time></trkpt><trkpt lat="42.05696774020317" lon="13.602994602112917"><ele>735.6666666666666</ele><time>2026-04-23T11:58:58Z</time></trkpt><trkpt lat="42.05690626017764" lon="13.603174356837545"><ele>737.3333333333334</ele><time>2026-04-23T11:58:59Z</time></trkpt><trkpt lat="42.05680652115757" lon="13.603345365595427"><ele>739.0</ele><time>2026-04-23T11:59:00Z</time></trkpt><trkpt lat="42.05668507306653" lon="13.603518946741767"><ele>738.3333333333334</ele><time>2026-04-23T11:59:01Z</time></trkpt><trkpt lat="42.056566196537794" lon="13.603713523579916"><ele>737.6666666666666</ele><time>2026-04-23T11:59:02Z</time></trkpt><trkpt lat="42.0564603538181" lon="13.603906084134197"><ele>737.0</ele><time>2026-04-23T11:59:03Z</time></trkpt><trkpt lat="42.0563523379516" lon="13.604110069959287"><ele>737.0</ele><time>2026-04-23T11:59:04Z</time></trkpt><trkpt lat="42.056230878833105" lon="13.60430389603165"><ele>737.0</ele><time>2026-04-23T11:59:05Z</time></trkpt><trkpt lat="42.056108440586726" lon="13.60450038154471"><ele>737.0</ele><time>2026-04-23T11:59:06Z</time></trkpt><trkpt lat="42.05599253524382" lon="13.604705458340739"><ele>736.3333333333333</ele><time>2026-04-23T11:59:07Z</time></trkpt><trkpt lat="42.05587792922225" lon="13.604920812644682"><ele>735.6666666666666</ele><time>2026-04-23T11:59:08Z</time></trkpt><trkpt lat="42.055762042433166" lon="13.605138658351713"><ele>735.0</ele><time>2026-04-23T11:59:09Z</time></trkpt><trkpt lat="42.05564488147961" lon="13.605354871829237"><ele>736.6666666666666</ele><time>2026-04-23T11:59:10Z</time></trkpt><trkpt lat="42.055536424619056" lon="13.60554925439674"><ele>738.3333333333333</ele><time>2026-04-23T11:59:11Z</time></trkpt><trkpt lat="42.05543593945128" lon="13.605724903734842"><ele>740.0</ele><time>2026-04-23T11:59:12Z</time></trkpt><trkpt lat="42.055349408494436" lon="13.605895769672864"><ele>740.0</ele><time>2026-04-23T11:59:13Z</time></trkpt><trkpt lat="42.055264057642205" lon="13.606087253775176"><ele>740.0</ele><time>2026-04-23T11:59:14Z</time></trkpt><trkpt lat="42.05521092848285" lon="13.606267467881615"><ele>740.0</ele><time>2026-04-23T11:59:15Z</time></trkpt><trkpt lat="42.05516862047826" lon="13.606448725172523"><ele>740.25</ele><time>2026-04-23T11:59:16Z</time></trkpt><trkpt lat="42.055150871158325" lon="13.60661777032452"><ele>740.5</ele><time>2026-04-23T11:59:17Z</time></trkpt><trkpt lat="42.05517067631984" lon="13.606786367489939"><ele>740.75</ele><time>2026-04-23T11:59:18Z</time></trkpt><trkpt lat="42.05523425483338" lon="13.606947712847564"><ele>741.0</ele><time>2026-04-23T11:59:19Z</time></trkpt><trkpt lat="42.05534814242028" lon="13.607090120487685"><ele>741.0</ele><time>2026-04-23T11:59:20Z</time></trkpt><trkpt lat="42.05549420919656" lon="13.607209186825278"><ele>741.0</ele><time>2026-04-23T11:59:20.999Z</time></trkpt><trkpt lat="42.0556472839058" lon="13.607335576456245"><ele>741.0</ele><time>2026-04-23T11:59:21.999Z</time></trkpt><trkpt lat="42.05580187526659" lon="13.607482471868536"><ele>741.6666666666666</ele><time>2026-04-23T11:59:22.999Z</time></trkpt><trkpt lat="42.055955736255626" lon="13.60765119801385"><ele>742.3333333333333</ele><time>2026-04-23T11:59:23.999Z</time></trkpt><trkpt lat="42.05611242595014" lon="13.607832222899276"><ele>743.0</ele><time>2026-04-23T11:59:24.999Z</time></trkpt><trkpt lat="42.0562717635942" lon="13.608022299867196"><ele>743.0</ele><time>2026-04-23T11:59:25.999Z</time></trkpt><trkpt lat="42.05643376408113" lon="13.608219948504546"><ele>743.0</ele><time>2026-04-23T11:59:26.999Z</time></trkpt><trkpt lat="42.056601111424825" lon="13.608413881180677"><ele>743.0</ele><time>2026-04-23T11:59:27.999Z</time></trkpt><trkpt lat="42.05677185307295" lon="13.608615644944356"><ele>742.0</ele><time>2026-04-23T11:59:28.999Z</time></trkpt><trkpt lat="42.056942906874625" lon="13.608817457811677"><ele>741.0</ele><time>2026-04-23T11:59:29.999Z</time></trkpt><trkpt lat="42.05711383032145" lon="13.609025125815537"><ele>741.0</ele><time>2026-04-23T11:59:30.999Z</time></trkpt><trkpt lat="42.05728691916698" lon="13.609231968306995"><ele>741.0</ele><time>2026-04-23T11:59:31.999Z</time></trkpt><trkpt lat="42.05745973020038" lon="13.609438012518742"><ele>744.5</ele><time>2026-04-23T11:59:32.999Z</time></trkpt><trkpt lat="42.05763412635465" lon="13.609643728297709"><ele>748.0</ele><time>2026-04-23T11:59:33.999Z</time></trkpt><trkpt lat="42.05780441457313" lon="13.609847304541765"><ele>748.0</ele><time>2026-04-23T11:59:34.999Z</time></trkpt><trkpt lat="42.05797498335974" lon="13.610052512137981"><ele>748.0</ele><time>2026-04-23T11:59:35.999Z</time></trkpt><trkpt lat="42.058139653107695" lon="13.61025402647822"><ele>749.0</ele><time>2026-04-23T11:59:36.999Z</time></trkpt><trkpt lat="42.05830658826291" lon="13.61045100584795"><ele>750.0</ele><time>2026-04-23T11:59:37.999Z</time></trkpt><trkpt lat="42.05845709635513" lon="13.610651209614092"><ele>751.0</ele><time>2026-04-23T11:59:38.999Z</time></trkpt><trkpt lat="42.05859378204245" lon="13.610850660297016"><ele>751.0</ele><time>2026-04-23T11:59:39.999Z</time></trkpt><trkpt lat="42.058725277243774" lon="13.611050008544424"><ele>751.0</ele><time>2026-04-23T11:59:40.999Z</time></trkpt><trkpt lat="42.058850477384645" lon="13.611247863902237"><ele>751.0</ele><time>2026-04-23T11:59:41.999Z</time></trkpt><trkpt lat="42.058975794216245" lon="13.611445967821698"><ele>750.6666666666667</ele><time>2026-04-23T11:59:42.999Z</time></trkpt><trkpt lat="42.05909586039805" lon="13.611652304632049"><ele>750.3333333333334</ele><time>2026-04-23T11:59:43.999Z</time></trkpt><trkpt lat="42.0591966635041" lon="13.611838460636157"><ele>750.0</ele><time>2026-04-23T11:59:44.999Z</time></trkpt><trkpt lat="42.05928138656749" lon="13.612039060006428"><ele>752.0</ele><time>2026-04-23T11:59:45.999Z</time></trkpt><trkpt lat="42.05934472841618" lon="13.612243093884832"><ele>754.0</ele><time>2026-04-23T11:59:46.999Z</time></trkpt><trkpt lat="42.05940132594914" lon="13.612449462552053"><ele>756.0</ele><time>2026-04-23T11:59:48Z</time></trkpt><trkpt lat="42.059453505194824" lon="13.612648794422213"><ele>757.0</ele><time>2026-04-23T11:59:49Z</time></trkpt><trkpt lat="42.05949516681578" lon="13.612829348816943"><ele>758.0</ele><time>2026-04-23T11:59:50Z</time></trkpt><trkpt lat="42.059526110280835" lon="13.612982674727851"><ele>759.0</ele><time>2026-04-23T11:59:51Z</time></trkpt><trkpt lat="42.05952556671736" lon="13.613123540342839"><ele>760.0</ele><time>2026-04-23T11:59:52Z</time></trkpt><trkpt lat="42.0594982386852" lon="13.613252125092574"><ele>760.0</ele><time>2026-04-23T11:59:53Z</time></trkpt><trkpt lat="42.059435313578426" lon="13.613348234091385"><ele>760.0</ele><time>2026-04-23T11:59:54Z</time></trkpt><trkpt lat="42.059349133506636" lon="13.613419199939795"><ele>760.0</ele><time>2026-04-23T11:59:55Z</time></trkpt><trkpt lat="42.059240471856306" lon="13.613424961383377"><ele>760.0</ele><time>2026-04-23T11:59:56Z</time></trkpt><trkpt lat="42.059125583350685" lon="13.613366250134534"><ele>760.0</ele><time>2026-04-23T11:59:57Z</time></trkpt><trkpt lat="42.059013864484086" lon="13.613272046720265"><ele>761.6666666666667</ele><time>2026-04-23T11:59:58Z</time></trkpt><trkpt lat="42.0588912504752" lon="13.613149880566487"><ele>763.3333333333334</ele><time>2026-04-23T11:59:59Z</time></trkpt><trkpt lat="42.058752243271464" lon="13.61300964816537"><ele>765.0</ele><time>2026-04-23T12:00:00Z</time></trkpt><trkpt lat="42.05859577026637" lon="13.612869697072824"><ele>765.0</ele><time>2026-04-23T12:00:01Z</time></trkpt><trkpt lat="42.058437855518434" lon="13.612704345206126"><ele>765.0</ele><time>2026-04-23T12:00:02Z</time></trkpt><trkpt lat="42.05828322205147" lon="13.612559361475522"><ele>765.0</ele><time>2026-04-23T12:00:03Z</time></trkpt><trkpt lat="42.058131402824" lon="13.612454518052678"><ele>765.0</ele><time>2026-04-23T12:00:04Z</time></trkpt><trkpt lat="42.057957791310066" lon="13.612393925624323"><ele>765.0</ele><time>2026-04-23T12:00:05Z</time></trkpt><trkpt lat="42.057750435545" lon="13.612376702133647"><ele>765.0</ele><time>2026-04-23T12:00:06Z</time></trkpt><trkpt lat="42.05753351724505" lon="13.612378902094818"><ele>765.0</ele><time>2026-04-23T12:00:07Z</time></trkpt><trkpt lat="42.05730996304042" lon="13.61240087792306"><ele>765.0</ele><time>2026-04-23T12:00:08Z</time></trkpt><trkpt lat="42.05707938084995" lon="13.61243749511371"><ele>765.0</ele><time>2026-04-23T12:00:09Z</time></trkpt><trkpt lat="42.05684595049855" lon="13.612488918328822"><ele>765.0</ele><time>2026-04-23T12:00:10Z</time></trkpt><trkpt lat="42.05661324908245" lon="13.612559088182195"><ele>764.0</ele><time>2026-04-23T12:00:11Z</time></trkpt><trkpt lat="42.05637535780085" lon="13.612602527250605"><ele>763.0</ele><time>2026-04-23T12:00:12Z</time></trkpt><trkpt lat="42.05615662381106" lon="13.612669818858679"><ele>763.0</ele><time>2026-04-23T12:00:13Z</time></trkpt><trkpt lat="42.055951954362726" lon="13.612698245152854"><ele>763.0</ele><time>2026-04-23T12:00:14Z</time></trkpt><trkpt lat="42.05578200200664" lon="13.612699430811448"><ele>763.0</ele><time>2026-04-23T12:00:15Z</time></trkpt><trkpt lat="42.05562338415661" lon="13.612681136337049"><ele>763.4</ele><time>2026-04-23T12:00:16Z</time></trkpt><trkpt lat="42.05549008800545" lon="13.612660744019506"><ele>763.8</ele><time>2026-04-23T12:00:17Z</time></trkpt><trkpt lat="42.05537776717511" lon="13.612655176572042"><ele>764.2</ele><time>2026-04-23T12:00:18Z</time></trkpt><trkpt lat="42.05528702131924" lon="13.612687099112977"><ele>764.6</ele><time>2026-04-23T12:00:19Z</time></trkpt><trkpt lat="42.05520964341635" lon="13.612775555931963"><ele>765.0</ele><time>2026-04-23T12:00:20Z</time></trkpt><trkpt lat="42.055152214323755" lon="13.612912592319407"><ele>765.75</ele><time>2026-04-23T12:00:21Z</time></trkpt><trkpt lat="42.05514526891439" lon="13.613082642396769"><ele>766.5</ele><time>2026-04-23T12:00:22Z</time></trkpt><trkpt lat="42.055187380226165" lon="13.613261688145995"><ele>767.25</ele><time>2026-04-23T12:00:23Z</time></trkpt><trkpt lat="42.055262218547625" lon="13.613444357004543"><ele>768.0</ele><time>2026-04-23T12:00:24Z</time></trkpt><trkpt lat="42.05533225326977" lon="13.613636536403673"><ele>768.0</ele><time>2026-04-23T12:00:25Z</time></trkpt><trkpt lat="42.055379340328074" lon="13.613850977940608"><ele>768.0</ele><time>2026-04-23T12:00:26Z</time></trkpt><trkpt lat="42.05540497224777" lon="13.614077926277625"><ele>768.0</ele><time>2026-04-23T12:00:27Z</time></trkpt><trkpt lat="42.055410231055745" lon="13.614310537181712"><ele>769.6666666666667</ele><time>2026-04-23T12:00:28Z</time></trkpt><trkpt lat="42.055379728761615" lon="13.614542297256525"><ele>771.3333333333334</ele><time>2026-04-23T12:00:29Z</time></trkpt><trkpt lat="42.05532255283581" lon="13.614769452263557"><ele>773.0</ele><time>2026-04-23T12:00:30Z</time></trkpt><trkpt lat="42.055244461792945" lon="13.614983590954639"><ele>773.0</ele><time>2026-04-23T12:00:31Z</time></trkpt><trkpt lat="42.05512968708821" lon="13.615179072895138"><ele>773.0</ele><time>2026-04-23T12:00:32Z</time></trkpt><trkpt lat="42.05500704468122" lon="13.615325473141274"><ele>773.0</ele><time>2026-04-23T12:00:33Z</time></trkpt><trkpt lat="42.054882751994036" lon="13.61544274194387"><ele>772.5</ele><time>2026-04-23T12:00:34Z</time></trkpt><trkpt lat="42.0547726613849" lon="13.615544658742486"><ele>772.0</ele><time>2026-04-23T12:00:35Z</time></trkpt><trkpt lat="42.054692563419174" lon="13.615658262169877"><ele>771.5</ele><time>2026-04-23T12:00:36Z</time></trkpt><trkpt lat="42.05464891194504" lon="13.615810700149883"><ele>771.0</ele><time>2026-04-23T12:00:37Z</time></trkpt><trkpt lat="42.05464494207513" lon="13.616003382789412"><ele>772.6666666666667</ele><time>2026-04-23T12:00:38Z</time></trkpt><trkpt lat="42.054679293919804" lon="13.616199402677909"><ele>774.3333333333334</ele><time>2026-04-23T12:00:39Z</time></trkpt><trkpt lat="42.054734222480114" lon="13.616400995909201"><ele>776.0</ele><time>2026-04-23T12:00:40Z</time></trkpt><trkpt lat="42.05478505216908" lon="13.616614804414738"><ele>776.0</ele><time>2026-04-23T12:00:41Z</time></trkpt><trkpt lat="42.054836565948186" lon="13.616831758558959"><ele>776.0</ele><time>2026-04-23T12:00:42Z</time></trkpt><trkpt lat="42.0548914753705" lon="13.617058431838883"><ele>776.0</ele><time>2026-04-23T12:00:43Z</time></trkpt><trkpt lat="42.0549414576607" lon="13.617291417015842"><ele>779.0</ele><time>2026-04-23T12:00:44Z</time></trkpt><trkpt lat="42.054992382889694" lon="13.617524012187305"><ele>782.0</ele><time>2026-04-23T12:00:45Z</time></trkpt><trkpt lat="42.05504508069041" lon="13.617763951630176"><ele>785.0</ele><time>2026-04-23T12:00:46Z</time></trkpt><trkpt lat="42.05509940013112" lon="13.618000559696114"><ele>785.5</ele><time>2026-04-23T12:00:47Z</time></trkpt><trkpt lat="42.05515078163537" lon="13.618212462291785"><ele>786.0</ele><time>2026-04-23T12:00:48Z</time></trkpt><trkpt lat="42.05519287909673" lon="13.618395660931712"><ele>786.5</ele><time>2026-04-23T12:00:49Z</time></trkpt><trkpt lat="42.055222622026974" lon="13.618558573125334"><ele>787.0</ele><time>2026-04-23T12:00:50Z</time></trkpt><trkpt lat="42.055237118482786" lon="13.618713080017326"><ele>788.0</ele><time>2026-04-23T12:00:51Z</time></trkpt><trkpt lat="42.05522764906062" lon="13.618849713982254"><ele>789.0</ele><time>2026-04-23T12:00:52Z</time></trkpt><trkpt lat="42.05518709595693" lon="13.618972099732714"><ele>790.0</ele><time>2026-04-23T12:00:53Z</time></trkpt><trkpt lat="42.05511354164752" lon="13.619075825965824"><ele>791.0</ele><time>2026-04-23T12:00:54Z</time></trkpt><trkpt lat="42.05501235474218" lon="13.619156960903673"><ele>792.0</ele><time>2026-04-23T12:00:55Z</time></trkpt><trkpt lat="42.05490461378577" lon="13.619239566428007"><ele>790.5</ele><time>2026-04-23T12:00:56Z</time></trkpt><trkpt lat="42.054802369180685" lon="13.619330262945368"><ele>789.0</ele><time>2026-04-23T12:00:57Z</time></trkpt><trkpt lat="42.05471146259265" lon="13.61943554505447"><ele>787.5</ele><time>2026-04-23T12:00:58Z</time></trkpt><trkpt lat="42.05464515533045" lon="13.619558367005753"><ele>786.0</ele><time>2026-04-23T12:00:59Z</time></trkpt><trkpt lat="42.05459701695261" lon="13.619703080572284"><ele>786.0</ele><time>2026-04-23T12:01:00Z</time></trkpt><trkpt lat="42.05457502482879" lon="13.619867332858101"><ele>786.0</ele><time>2026-04-23T12:01:01Z</time></trkpt><trkpt lat="42.05456772170622" lon="13.620039102268997"><ele>786.0</ele><time>2026-04-23T12:01:02Z</time></trkpt><trkpt lat="42.054567312802696" lon="13.620215023378304"><ele>786.0</ele><time>2026-04-23T12:01:03Z</time></trkpt><trkpt lat="42.054568597762994" lon="13.62039601102804"><ele>787.25</ele><time>2026-04-23T12:01:04Z</time></trkpt><trkpt lat="42.054568806527676" lon="13.620581910924983"><ele>788.5</ele><time>2026-04-23T12:01:05Z</time></trkpt><trkpt lat="42.0545629677939" lon="13.620770457305731"><ele>789.75</ele><time>2026-04-23T12:01:06Z</time></trkpt><trkpt lat="42.054555915470175" lon="13.620963886357366"><ele>791.0</ele><time>2026-04-23T12:01:07Z</time></trkpt><trkpt lat="42.05454636406313" lon="13.621156176633825"><ele>791.75</ele><time>2026-04-23T12:01:08Z</time></trkpt><trkpt lat="42.05453662255088" lon="13.621345577010635"><ele>792.5</ele><time>2026-04-23T12:01:09Z</time></trkpt><trkpt lat="42.05452810619078" lon="13.621511244767216"><ele>793.25</ele><time>2026-04-23T12:01:10Z</time></trkpt><trkpt lat="42.05451691437097" lon="13.621677831901431"><ele>794.0</ele><time>2026-04-23T12:01:11Z</time></trkpt><trkpt lat="42.0544968295855" lon="13.621838083644864"><ele>795.25</ele><time>2026-04-23T12:01:12Z</time></trkpt><trkpt lat="42.054474948397356" lon="13.621996980851808"><ele>796.5</ele><time>2026-04-23T12:01:13Z</time></trkpt><trkpt lat="42.05444954958371" lon="13.622155978411056"><ele>797.75</ele><time>2026-04-23T12:01:13.999Z</time></trkpt><trkpt lat="42.05442240767994" lon="13.622317272220116"><ele>799.0</ele><time>2026-04-23T12:01:14.999Z</time></trkpt><trkpt lat="42.054383476701986" lon="13.6224737894935"><ele>799.0</ele><time>2026-04-23T12:01:15.999Z</time></trkpt><trkpt lat="42.05433283060479" lon="13.622623270212403"><ele>799.0</ele><time>2026-04-23T12:01:16.999Z</time></trkpt><trkpt lat="42.05427183313818" lon="13.622765655130278"><ele>799.0</ele><time>2026-04-23T12:01:17.999Z</time></trkpt><trkpt lat="42.05420284063456" lon="13.622898088443444"><ele>799.0</ele><time>2026-04-23T12:01:18.999Z</time></trkpt><trkpt lat="42.05412616295636" lon="13.623026561883313"><ele>797.25</ele><time>2026-04-23T12:01:19.999Z</time></trkpt><trkpt lat="42.05405215088946" lon="13.623156311594894"><ele>795.5</ele><time>2026-04-23T12:01:20.999Z</time></trkpt><trkpt lat="42.053982251099" lon="13.623286674489972"><ele>793.75</ele><time>2026-04-23T12:01:21.999Z</time></trkpt><trkpt lat="42.05391528215224" lon="13.623419007919491"><ele>792.0</ele><time>2026-04-23T12:01:22.999Z</time></trkpt><trkpt lat="42.053853158920326" lon="13.623558959406287"><ele>793.4000000000001</ele><time>2026-04-23T12:01:23.999Z</time></trkpt><trkpt lat="42.05379819079065" lon="13.623700708484826"><ele>794.8000000000001</ele><time>2026-04-23T12:01:24.999Z</time></trkpt><trkpt lat="42.05375149301925" lon="13.623837413838734"><ele>796.2</ele><time>2026-04-23T12:01:25.999Z</time></trkpt><trkpt lat="42.0537317651957" lon="13.623974802762394"><ele>797.6</ele><time>2026-04-23T12:01:26.999Z</time></trkpt><trkpt lat="42.05374622387719" lon="13.624115462387433"><ele>799.0</ele><time>2026-04-23T12:01:27.999Z</time></trkpt><trkpt lat="42.05380272594107" lon="13.62424886726062"><ele>799.0</ele><time>2026-04-23T12:01:28.999Z</time></trkpt><trkpt lat="42.0538869516606" lon="13.624361325102123"><ele>799.0</ele><time>2026-04-23T12:01:29.999Z</time></trkpt><trkpt lat="42.053973481704894" lon="13.624466564295279"><ele>799.0</ele><time>2026-04-23T12:01:30.999Z</time></trkpt><trkpt lat="42.054070142239475" lon="13.624540499350005"><ele>799.0</ele><time>2026-04-23T12:01:31.999Z</time></trkpt><trkpt lat="42.0541863511765" lon="13.624578612285069"><ele>800.75</ele><time>2026-04-23T12:01:32.999Z</time></trkpt><trkpt lat="42.05431066649632" lon="13.624564408104618"><ele>802.5</ele><time>2026-04-23T12:01:33.999Z</time></trkpt><trkpt lat="42.05443307074957" lon="13.624504107901434"><ele>804.25</ele><time>2026-04-23T12:01:34.999Z</time></trkpt><trkpt lat="42.05455718742325" lon="13.624436498859563"><ele>806.0</ele><time>2026-04-23T12:01:35.999Z</time></trkpt><trkpt lat="42.05468265721568" lon="13.624369639967004"><ele>806.75</ele><time>2026-04-23T12:01:36.999Z</time></trkpt><trkpt lat="42.054812077662866" lon="13.624307652669989"><ele>807.5</ele><time>2026-04-23T12:01:37.999Z</time></trkpt><trkpt lat="42.054933273040014" lon="13.62426064997702"><ele>808.25</ele><time>2026-04-23T12:01:38.999Z</time></trkpt><trkpt lat="42.05505157127699" lon="13.624215267381848"><ele>809.0</ele><time>2026-04-23T12:01:39.999Z</time></trkpt><trkpt lat="42.0551729060133" lon="13.624173294043585"><ele>809.5</ele><time>2026-04-23T12:01:40.999Z</time></trkpt><trkpt lat="42.0552954898501" lon="13.624135835093085"><ele>810.0</ele><time>2026-04-23T12:01:41.999Z</time></trkpt><trkpt lat="42.055411714525526" lon="13.624103248340788"><ele>810.5</ele><time>2026-04-23T12:01:42.999Z</time></trkpt><trkpt lat="42.05552367149794" lon="13.624080488132753"><ele>811.0</ele><time>2026-04-23T12:01:43.999Z</time></trkpt><trkpt lat="42.05563250154401" lon="13.624076215307783"><ele>811.0</ele><time>2026-04-23T12:01:44.999Z</time></trkpt><trkpt lat="42.0557334356449" lon="13.624090628077866"><ele>811.0</ele><time>2026-04-23T12:01:45.999Z</time></trkpt><trkpt lat="42.05583353583214" lon="13.624101209288982"><ele>811.0</ele><time>2026-04-23T12:01:46.999Z</time></trkpt><trkpt lat="42.05593037066638" lon="13.624113822464967"><ele>811.0</ele><time>2026-04-23T12:01:47.999Z</time></trkpt><trkpt lat="42.05602574836277" lon="13.624134132358924"><ele>811.0</ele><time>2026-04-23T12:01:48.999Z</time></trkpt><trkpt lat="42.05611876970818" lon="13.624154115715495"><ele>811.4</ele><time>2026-04-23T12:01:49.999Z</time></trkpt><trkpt lat="42.05620997903972" lon="13.624176721196788"><ele>811.8</ele><time>2026-04-23T12:01:50.999Z</time></trkpt><trkpt lat="42.056312460530705" lon="13.624210073430035"><ele>812.1999999999999</ele><time>2026-04-23T12:01:51.999Z</time></trkpt><trkpt lat="42.056419617009574" lon="13.62424834389059"><ele>812.5999999999999</ele><time>2026-04-23T12:01:52.999Z</time></trkpt><trkpt lat="42.056528260120466" lon="13.624288292549434"><ele>813.0</ele><time>2026-04-23T12:01:54Z</time></trkpt><trkpt lat="42.05663974681735" lon="13.62432645399367"><ele>814.0</ele><time>2026-04-23T12:01:55Z</time></trkpt><trkpt lat="42.056752805170106" lon="13.624371222867252"><ele>815.0</ele><time>2026-04-23T12:01:56Z</time></trkpt><trkpt lat="42.056867591943075" lon="13.624420360993902"><ele>816.0</ele><time>2026-04-23T12:01:57Z</time></trkpt><trkpt lat="42.05697962623146" lon="13.62447540670832"><ele>817.0</ele><time>2026-04-23T12:01:58Z</time></trkpt><trkpt lat="42.05709039454104" lon="13.624526910437597"><ele>817.0</ele><time>2026-04-23T12:01:59Z</time></trkpt><trkpt lat="42.05720437320574" lon="13.624571112158456"><ele>817.0</ele><time>2026-04-23T12:02:00Z</time></trkpt><trkpt lat="42.057315297588254" lon="13.62461502450955"><ele>817.0</ele><time>2026-04-23T12:02:01Z</time></trkpt><trkpt lat="42.057421478775844" lon="13.62466333427715"><ele>817.0</ele><time>2026-04-23T12:02:02Z</time></trkpt><trkpt lat="42.05752286895908" lon="13.624710559508031"><ele>818.4000000000001</ele><time>2026-04-23T12:02:03Z</time></trkpt><trkpt lat="42.057619163625816" lon="13.62476435140013"><ele>819.8000000000001</ele><time>2026-04-23T12:02:04Z</time></trkpt><trkpt lat="42.05770905506908" lon="13.624830658977585"><ele>821.2</ele><time>2026-04-23T12:02:05Z</time></trkpt><trkpt lat="42.05779002979443" lon="13.624910304533547"><ele>822.6</ele><time>2026-04-23T12:02:06Z</time></trkpt><trkpt lat="42.057867094732615" lon="13.625001231841779"><ele>824.0</ele><time>2026-04-23T12:02:07Z</time></trkpt><trkpt lat="42.05794433986544" lon="13.62510143536477"><ele>824.0</ele><time>2026-04-23T12:02:08Z</time></trkpt><trkpt lat="42.05802437339677" lon="13.62520666151638"><ele>824.0</ele><time>2026-04-23T12:02:09Z</time></trkpt><trkpt lat="42.05810513826676" lon="13.625316731780929"><ele>824.0</ele><time>2026-04-23T12:02:10Z</time></trkpt><trkpt lat="42.05819430512988" lon="13.625419611566057"><ele>824.0</ele><time>2026-04-23T12:02:11Z</time></trkpt><trkpt lat="42.05829160011851" lon="13.625510823785696"><ele>825.5</ele><time>2026-04-23T12:02:12Z</time></trkpt><trkpt lat="42.05840308128143" lon="13.625587815323327"><ele>827.0</ele><time>2026-04-23T12:02:13Z</time></trkpt><trkpt lat="42.05852959756275" lon="13.625656126195778"><ele>828.5</ele><time>2026-04-23T12:02:14Z</time></trkpt><trkpt lat="42.05866009858314" lon="13.625719261677279"><ele>830.0</ele><time>2026-04-23T12:02:15Z</time></trkpt><trkpt lat="42.058793491529556" lon="13.625782676148003"><ele>830.0</ele><time>2026-04-23T12:02:16Z</time></trkpt><trkpt lat="42.058925225728586" lon="13.625871842326287"><ele>830.0</ele><time>2026-04-23T12:02:17Z</time></trkpt><trkpt lat="42.05906491860937" lon="13.625941630307704"><ele>830.0</ele><time>2026-04-23T12:02:18Z</time></trkpt><trkpt lat="42.05921087758345" lon="13.625990859266153"><ele>830.0</ele><time>2026-04-23T12:02:19Z</time></trkpt><trkpt lat="42.05935500262624" lon="13.626067658958275"><ele>831.0</ele><time>2026-04-23T12:02:20Z</time></trkpt><trkpt lat="42.059500332239104" lon="13.626143069529414"><ele>832.0</ele><time>2026-04-23T12:02:21Z</time></trkpt><trkpt lat="42.05964377881957" lon="13.626221058519992"><ele>833.0</ele><time>2026-04-23T12:02:22Z</time></trkpt><trkpt lat="42.059790344681836" lon="13.626292014959342"><ele>833.0</ele><time>2026-04-23T12:02:23Z</time></trkpt><trkpt lat="42.05994049260387" lon="13.626361833775215"><ele>833.0</ele><time>2026-04-23T12:02:24Z</time></trkpt><trkpt lat="42.060085746197565" lon="13.626431588523767"><ele>833.0</ele><time>2026-04-23T12:02:25Z</time></trkpt><trkpt lat="42.060224771541314" lon="13.626499668037727"><ele>833.25</ele><time>2026-04-23T12:02:26Z</time></trkpt><trkpt lat="42.060364653794466" lon="13.626565310810593"><ele>833.5</ele><time>2026-04-23T12:02:27Z</time></trkpt><trkpt lat="42.0605040778228" lon="13.626630412116896"><ele>833.75</ele><time>2026-04-23T12:02:28Z</time></trkpt><trkpt lat="42.0606403327226" lon="13.62669259060827"><ele>834.0</ele><time>2026-04-23T12:02:29Z</time></trkpt><trkpt lat="42.06076940127515" lon="13.626776118795298"><ele>835.0</ele><time>2026-04-23T12:02:30Z</time></trkpt><trkpt lat="42.06090169217239" lon="13.626842220336808"><ele>836.0</ele><time>2026-04-23T12:02:31Z</time></trkpt><trkpt lat="42.06103331890981" lon="13.626907491149394"><ele>837.0</ele><time>2026-04-23T12:02:32Z</time></trkpt><trkpt lat="42.061165765009655" lon="13.626972284912137"><ele>838.0</ele><time>2026-04-23T12:02:33Z</time></trkpt><trkpt lat="42.061299711905164" lon="13.627038055240016"><ele>838.25</ele><time>2026-04-23T12:02:34Z</time></trkpt><trkpt lat="42.06143574659256" lon="13.627081740649604"><ele>838.5</ele><time>2026-04-23T12:02:35Z</time></trkpt><trkpt lat="42.061566555712744" lon="13.627153669255677"><ele>838.75</ele><time>2026-04-23T12:02:36Z</time></trkpt><trkpt lat="42.06170101914923" lon="13.627220719248239"><ele>839.0</ele><time>2026-04-23T12:02:37Z</time></trkpt><trkpt lat="42.06183689536932" lon="13.627287652062861"><ele>839.6666666666667</ele><time>2026-04-23T12:02:38Z</time></trkpt><trkpt lat="42.06197618773645" lon="13.62735476375585"><ele>840.3333333333333</ele><time>2026-04-23T12:02:39Z</time></trkpt><trkpt lat="42.06211752116258" lon="13.627421430089138"><ele>841.0</ele><time>2026-04-23T12:02:40Z</time></trkpt><trkpt lat="42.06226353069417" lon="13.627489049613242"><ele>841.0</ele><time>2026-04-23T12:02:41Z</time></trkpt><trkpt lat="42.06241195301695" lon="13.627561194731355"><ele>841.0</ele><time>2026-04-23T12:02:42Z</time></trkpt><trkpt lat="42.062562343155825" lon="13.627635010303404"><ele>841.0</ele><time>2026-04-23T12:02:43Z</time></trkpt><trkpt lat="42.06271562361646" lon="13.627710052180538"><ele>841.3333333333333</ele><time>2026-04-23T12:02:44Z</time></trkpt><trkpt lat="42.06287259627716" lon="13.627786882225728"><ele>841.6666666666667</ele><time>2026-04-23T12:02:45Z</time></trkpt><trkpt lat="42.06303031616025" lon="13.62786449663221"><ele>842.0</ele><time>2026-04-23T12:02:46Z</time></trkpt><trkpt lat="42.063190040300924" lon="13.627940381556261"><ele>842.6666666666667</ele><time>2026-04-23T12:02:47Z</time></trkpt><trkpt lat="42.0633496523261" lon="13.628017453081508"><ele>843.3333333333333</ele><time>2026-04-23T12:02:48Z</time></trkpt><trkpt lat="42.063505471650174" lon="13.628097300678926"><ele>844.0</ele><time>2026-04-23T12:02:49Z</time></trkpt><trkpt lat="42.063652795825455" lon="13.628170806373351"><ele>844.0</ele><time>2026-04-23T12:02:50Z</time></trkpt><trkpt lat="42.06379490531123" lon="13.628242554475753"><ele>844.0</ele><time>2026-04-23T12:02:51Z</time></trkpt><trkpt lat="42.063930065680026" lon="13.628310626420506"><ele>844.0</ele><time>2026-04-23T12:02:52Z</time></trkpt><trkpt lat="42.06406282757575" lon="13.628375563774364"><ele>844.0</ele><time>2026-04-23T12:02:53Z</time></trkpt><trkpt lat="42.06418866323829" lon="13.6284378577775"><ele>844.2</ele><time>2026-04-23T12:02:54Z</time></trkpt><trkpt lat="42.06429994013309" lon="13.628500624472117"><ele>844.4000000000001</ele><time>2026-04-23T12:02:55Z</time></trkpt><trkpt lat="42.0643983928331" lon="13.628572976947458"><ele>844.6</ele><time>2026-04-23T12:02:56Z</time></trkpt><trkpt lat="42.06447736516763" lon="13.628658914565966"><ele>844.8</ele><time>2026-04-23T12:02:57Z</time></trkpt><trkpt lat="42.06451720455473" lon="13.628742051856374"><ele>845.0</ele><time>2026-04-23T12:02:58Z</time></trkpt><trkpt lat="42.06456540734235" lon="13.628827479700472"><ele>845.0</ele><time>2026-04-23T12:03:00Z</time></trkpt><trkpt lat="42.06462817681267" lon="13.628920797986233"><ele>845.0</ele><time>2026-04-23T12:05:22.999Z</time></trkpt><trkpt lat="42.06465290447974" lon="13.629022797137567"><ele>845.0</ele><time>2026-04-23T12:05:23.999Z</time></trkpt><trkpt lat="42.064704376215346" lon="13.629120091174045"><ele>845.0</ele><time>2026-04-23T12:05:24.999Z</time></trkpt><trkpt lat="42.064757401222515" lon="13.62923070443842"><ele>845.0</ele><time>2026-04-23T12:05:25.999Z</time></trkpt><trkpt lat="42.06482151560026" lon="13.629355417264314"><ele>845.75</ele><time>2026-04-23T12:05:26.999Z</time></trkpt><trkpt lat="42.06489514052062" lon="13.629490569157877"><ele>846.5</ele><time>2026-04-23T12:05:27.999Z</time></trkpt><trkpt lat="42.06497936835157" lon="13.629650667511257"><ele>847.25</ele><time>2026-04-23T12:05:28.999Z</time></trkpt><trkpt lat="42.065070694918624" lon="13.629831139862166"><ele>848.0</ele><time>2026-04-23T12:05:29.999Z</time></trkpt><trkpt lat="42.065168383773944" lon="13.630020932257056"><ele>848.0</ele><time>2026-04-23T12:05:30.999Z</time></trkpt><trkpt lat="42.065269526527615" lon="13.630215168551956"><ele>848.0</ele><time>2026-04-23T12:05:31.999Z</time></trkpt><trkpt lat="42.065378910840664" lon="13.630431450326505"><ele>848.0</ele><time>2026-04-23T12:05:32.999Z</time></trkpt><trkpt lat="42.06549361149899" lon="13.630658022576725"><ele>848.3333333333334</ele><time>2026-04-23T12:05:33.999Z</time></trkpt><trkpt lat="42.0655992810808" lon="13.630886934369812"><ele>848.6666666666667</ele><time>2026-04-23T12:05:34.999Z</time></trkpt><trkpt lat="42.06572696951727" lon="13.631100212504048"><ele>849.0</ele><time>2026-04-23T12:05:35.999Z</time></trkpt><trkpt lat="42.06582380214819" lon="13.631279321345719"><ele>851.5</ele><time>2026-04-23T12:05:36.999Z</time></trkpt><trkpt lat="42.065909474601604" lon="13.63144408399579"><ele>854.0</ele><time>2026-04-23T12:05:37.999Z</time></trkpt><trkpt lat="42.065986497307776" lon="13.631588936125254"><ele>856.5</ele><time>2026-04-23T12:05:38.999Z</time></trkpt><trkpt lat="42.06606399473864" lon="13.631713218246873"><ele>859.0</ele><time>2026-04-23T12:05:39.999Z</time></trkpt><trkpt lat="42.066174660302146" lon="13.631795518947603"><ele>859.0</ele><time>2026-04-23T12:05:40.999Z</time></trkpt><trkpt lat="42.066310660912166" lon="13.631816456544767"><ele>859.0</ele><time>2026-04-23T12:05:41.999Z</time></trkpt><trkpt lat="42.06645664293827" lon="13.631785090663486"><ele>859.0</ele><time>2026-04-23T12:05:42.999Z</time></trkpt><trkpt lat="42.06660164189791" lon="13.631720959376192"><ele>859.0</ele><time>2026-04-23T12:05:43.999Z</time></trkpt><trkpt lat="42.0667554266216" lon="13.631650820612624"><ele>860.6666666666666</ele><time>2026-04-23T12:05:44.999Z</time></trkpt><trkpt lat="42.06690767822047" lon="13.631592241871296"><ele>862.3333333333333</ele><time>2026-04-23T12:05:45.999Z</time></trkpt><trkpt lat="42.067067335795294" lon="13.63153963180461"><ele>864.0</ele><time>2026-04-23T12:05:46.999Z</time></trkpt><trkpt lat="42.067224819409475" lon="13.631494744669475"><ele>864.0</ele><time>2026-04-23T12:05:47.999Z</time></trkpt><trkpt lat="42.06737755323936" lon="13.631451209617289"><ele>864.0</ele><time>2026-04-23T12:05:48.999Z</time></trkpt><trkpt lat="42.0675156569309" lon="13.631408361384734"><ele>864.0</ele><time>2026-04-23T12:05:49.999Z</time></trkpt><trkpt lat="42.067643171628546" lon="13.631361393671249"><ele>864.0</ele><time>2026-04-23T12:05:50.999Z</time></trkpt><trkpt lat="42.06776922870188" lon="13.631339237808882"><ele>865.25</ele><time>2026-04-23T12:05:51.999Z</time></trkpt><trkpt lat="42.06787472750615" lon="13.631268242518692"><ele>866.5</ele><time>2026-04-23T12:05:52.999Z</time></trkpt><trkpt lat="42.06797582425202" lon="13.631206100681426"><ele>867.75</ele><time>2026-04-23T12:05:53.999Z</time></trkpt><trkpt lat="42.068085322372795" lon="13.631129325494593"><ele>869.0</ele><time>2026-04-23T12:05:54.999Z</time></trkpt><trkpt lat="42.06819374069833" lon="13.631050602623903"><ele>868.5</ele><time>2026-04-23T12:05:55.999Z</time></trkpt><trkpt lat="42.06829583943232" lon="13.630974376533484"><ele>868.0</ele><time>2026-04-23T12:05:56.999Z</time></trkpt><trkpt lat="42.068409398176655" lon="13.630938290031274"><ele>867.5</ele><time>2026-04-23T12:05:57.999Z</time></trkpt><trkpt lat="42.068522553250745" lon="13.630921431241939"><ele>867.0</ele><time>2026-04-23T12:05:58.999Z</time></trkpt><trkpt lat="42.06863725280233" lon="13.630934252830855"><ele>867.0</ele><time>2026-04-23T12:05:59.999Z</time></trkpt><trkpt lat="42.06874947628184" lon="13.630984167473187"><ele>867.0</ele><time>2026-04-23T12:06:00.999Z</time></trkpt><trkpt lat="42.06885261707619" lon="13.631061186816833"><ele>867.0</ele><time>2026-04-23T12:06:01.999Z</time></trkpt><trkpt lat="42.06894976524989" lon="13.631153944393283"><ele>867.0</ele><time>2026-04-23T12:06:02.999Z</time></trkpt><trkpt lat="42.069029210809354" lon="13.631273345269914"><ele>868.0</ele><time>2026-04-23T12:06:03.999Z</time></trkpt><trkpt lat="42.06907020923182" lon="13.631427573565452"><ele>869.0</ele><time>2026-04-23T12:06:04.999Z</time></trkpt><trkpt lat="42.069112393574116" lon="13.63158251012823"><ele>870.0</ele><time>2026-04-23T12:06:06Z</time></trkpt><trkpt lat="42.06915119440908" lon="13.6317358719943"><ele>871.0</ele><time>2026-04-23T12:06:07Z</time></trkpt><trkpt lat="42.06919976198406" lon="13.6318841280986"><ele>872.75</ele><time>2026-04-23T12:06:08Z</time></trkpt><trkpt lat="42.069236737073574" lon="13.632038128769702"><ele>874.5</ele><time>2026-04-23T12:06:09Z</time></trkpt><trkpt lat="42.069274552483506" lon="13.632192557205357"><ele>876.25</ele><time>2026-04-23T12:06:10Z</time></trkpt><trkpt lat="42.06931169824366" lon="13.632348446670742"><ele>878.0</ele><time>2026-04-23T12:06:11Z</time></trkpt><trkpt lat="42.06935333042675" lon="13.6325042480838"><ele>878.0</ele><time>2026-04-23T12:06:12Z</time></trkpt><trkpt lat="42.069391816109516" lon="13.632654567054317"><ele>878.0</ele><time>2026-04-23T12:06:13Z</time></trkpt><trkpt lat="42.069430475477894" lon="13.63280050047114"><ele>878.0</ele><time>2026-04-23T12:06:14Z</time></trkpt><trkpt lat="42.069469870038716" lon="13.632948119025578"><ele>878.0</ele><time>2026-04-23T12:06:15Z</time></trkpt><trkpt lat="42.069502872879944" lon="13.633098605625799"><ele>879.5</ele><time>2026-04-23T12:06:16Z</time></trkpt><trkpt lat="42.06953750461567" lon="13.633252666400066"><ele>881.0</ele><time>2026-04-23T12:06:17Z</time></trkpt><trkpt lat="42.06956841174547" lon="13.633409919298536"><ele>882.5</ele><time>2026-04-23T12:06:18Z</time></trkpt><trkpt lat="42.069591536433414" lon="13.633568050580864"><ele>884.0</ele><time>2026-04-23T12:06:19Z</time></trkpt><trkpt lat="42.06960916765296" lon="13.63372709576941"><ele>885.0</ele><time>2026-04-23T12:06:20Z</time></trkpt><trkpt lat="42.069627457841506" lon="13.633885444677809"><ele>886.0</ele><time>2026-04-23T12:06:21Z</time></trkpt><trkpt lat="42.06964599093801" lon="13.63404355244478"><ele>887.0</ele><time>2026-04-23T12:06:22Z</time></trkpt><trkpt lat="42.069657240525316" lon="13.634204874393003"><ele>888.0</ele><time>2026-04-23T12:06:23Z</time></trkpt><trkpt lat="42.06964085162355" lon="13.634364532273906"><ele>889.0</ele><time>2026-04-23T12:06:24Z</time></trkpt><trkpt lat="42.06956602443888" lon="13.634496073497994"><ele>890.0</ele><time>2026-04-23T12:06:25Z</time></trkpt><trkpt lat="42.069484237390014" lon="13.634617409011376"><ele>891.0</ele><time>2026-04-23T12:06:26Z</time></trkpt><trkpt lat="42.069400594866174" lon="13.634735076199826"><ele>892.0</ele><time>2026-04-23T12:06:27Z</time></trkpt><trkpt lat="42.06931490286463" lon="13.634851378525845"><ele>892.0</ele><time>2026-04-23T12:06:28Z</time></trkpt><trkpt lat="42.069232199682844" lon="13.634971713758677"><ele>892.0</ele><time>2026-04-23T12:06:29Z</time></trkpt><trkpt lat="42.06915680066775" lon="13.635093210172979"><ele>892.0</ele><time>2026-04-23T12:06:30Z</time></trkpt><trkpt lat="42.069094504443164" lon="13.635237934246186"><ele>892.0</ele><time>2026-04-23T12:06:31Z</time></trkpt><trkpt lat="42.06903558055154" lon="13.635403121746531"><ele>892.75</ele><time>2026-04-23T12:06:32Z</time></trkpt><trkpt lat="42.06897462158278" lon="13.635583375998973"><ele>893.5</ele><time>2026-04-23T12:06:33Z</time></trkpt><trkpt lat="42.068912355677384" lon="13.635763874296329"><ele>894.25</ele><time>2026-04-23T12:06:34Z</time></trkpt><trkpt lat="42.068847081462394" lon="13.63595018237699"><ele>895.0</ele><time>2026-04-23T12:06:35Z</time></trkpt><trkpt lat="42.06877988397107" lon="13.636137238629642"><ele>895.0</ele><time>2026-04-23T12:06:36Z</time></trkpt><trkpt lat="42.06870956890107" lon="13.636327899464437"><ele>895.0</ele><time>2026-04-23T12:06:37Z</time></trkpt><trkpt lat="42.068631933651126" lon="13.636526941275251"><ele>895.0</ele><time>2026-04-23T12:06:38Z</time></trkpt><trkpt lat="42.068550380964304" lon="13.636748302784655"><ele>897.6666666666666</ele><time>2026-04-23T12:06:39Z</time></trkpt><trkpt lat="42.06846336183982" lon="13.636987617383804"><ele>900.3333333333333</ele><time>2026-04-23T12:06:40Z</time></trkpt><trkpt lat="42.06837112024474" lon="13.637238742288428"><ele>903.0</ele><time>2026-04-23T12:06:41Z</time></trkpt><trkpt lat="42.0682852087685" lon="13.637498685547362"><ele>901.0</ele><time>2026-04-23T12:06:42Z</time></trkpt><trkpt lat="42.06821631771805" lon="13.637765776615023"><ele>899.0</ele><time>2026-04-23T12:06:43Z</time></trkpt><trkpt lat="42.068162993129434" lon="13.63804962490478"><ele>897.0</ele><time>2026-04-23T12:06:44Z</time></trkpt><trkpt lat="42.06812102431652" lon="13.638339164648217"><ele>897.0</ele><time>2026-04-23T12:06:45Z</time></trkpt><trkpt lat="42.06807457805008" lon="13.638613126278331"><ele>897.0</ele><time>2026-04-23T12:06:46Z</time></trkpt><trkpt lat="42.0680346362928" lon="13.638854401480952"><ele>897.0</ele><time>2026-04-23T12:06:47Z</time></trkpt><trkpt lat="42.06799371262135" lon="13.639077955500587"><ele>899.6666666666667</ele><time>2026-04-23T12:06:48Z</time></trkpt><trkpt lat="42.06794239999792" lon="13.639309480612654"><ele>902.3333333333334</ele><time>2026-04-23T12:06:49Z</time></trkpt><trkpt lat="42.06787204882527" lon="13.63954298382953"><ele>905.0</ele><time>2026-04-23T12:06:50Z</time></trkpt><trkpt lat="42.06778008721183" lon="13.63976487356874"><ele>908.0</ele><time>2026-04-23T12:06:51Z</time></trkpt><trkpt lat="42.067678898710334" lon="13.639983775561072"><ele>911.0</ele><time>2026-04-23T12:06:52Z</time></trkpt><trkpt lat="42.06757721743837" lon="13.640200076965446"><ele>914.0</ele><time>2026-04-23T12:06:53Z</time></trkpt><trkpt lat="42.06746423961035" lon="13.640406175298505"><ele>914.0</ele><time>2026-04-23T12:06:54Z</time></trkpt><trkpt lat="42.06734370026931" lon="13.640593335022665"><ele>914.0</ele><time>2026-04-23T12:06:55Z</time></trkpt><trkpt lat="42.06720809472528" lon="13.640777119344813"><ele>914.0</ele><time>2026-04-23T12:06:56Z</time></trkpt><trkpt lat="42.06707294943561" lon="13.640965207565868"><ele>917.0</ele><time>2026-04-23T12:06:57Z</time></trkpt><trkpt lat="42.06693073775132" lon="13.641169356384593"><ele>920.0</ele><time>2026-04-23T12:06:58Z</time></trkpt><trkpt lat="42.066787925613255" lon="13.641386614153632"><ele>923.0</ele><time>2026-04-23T12:06:59Z</time></trkpt><trkpt lat="42.06664381798016" lon="13.641611223071445"><ele>923.6666666666667</ele><time>2026-04-23T12:07:00Z</time></trkpt><trkpt lat="42.06649288090154" lon="13.641832746482415"><ele>924.3333333333333</ele><time>2026-04-23T12:07:01Z</time></trkpt><trkpt lat="42.066339698894154" lon="13.642050102086136"><ele>925.0</ele><time>2026-04-23T12:07:02Z</time></trkpt><trkpt lat="42.066185107991956" lon="13.642274401363998"><ele>925.0</ele><time>2026-04-23T12:07:03Z</time></trkpt><trkpt lat="42.0660313362787" lon="13.642497939077218"><ele>925.0</ele><time>2026-04-23T12:07:04Z</time></trkpt><trkpt lat="42.06588646818121" lon="13.642720149154696"><ele>925.0</ele><time>2026-04-23T12:07:05Z</time></trkpt><trkpt lat="42.06575555525788" lon="13.642938044058905"><ele>926.0</ele><time>2026-04-23T12:07:06Z</time></trkpt><trkpt lat="42.065650153863764" lon="13.643147910827679"><ele>927.0</ele><time>2026-04-23T12:07:07Z</time></trkpt><trkpt lat="42.06556561775981" lon="13.643349644390561"><ele>928.0</ele><time>2026-04-23T12:07:08Z</time></trkpt><trkpt lat="42.06548374468857" lon="13.64353127638929"><ele>930.3333333333333</ele><time>2026-04-23T12:07:09Z</time></trkpt><trkpt lat="42.06538249788898" lon="13.643677455242177"><ele>932.6666666666667</ele><time>2026-04-23T12:07:10Z</time></trkpt><trkpt lat="42.06525483051555" lon="13.643785401752506"><ele>935.0</ele><time>2026-04-23T12:07:11Z</time></trkpt><trkpt lat="42.065111896626526" lon="13.643861844781465"><ele>935.0</ele><time>2026-04-23T12:07:12Z</time></trkpt><trkpt lat="42.06499307114699" lon="13.643951673377094"><ele>935.0</ele><time>2026-04-23T12:07:13Z</time></trkpt><trkpt lat="42.064905314229904" lon="13.644073175547222"><ele>935.0</ele><time>2026-04-23T12:07:14Z</time></trkpt><trkpt lat="42.064849813681064" lon="13.644242650819717"><ele>935.0</ele><time>2026-04-23T12:07:15Z</time></trkpt><trkpt lat="42.0648287879789" lon="13.644451060856744"><ele>934.3333333333334</ele><time>2026-04-23T12:07:16Z</time></trkpt><trkpt lat="42.06483889122738" lon="13.644677701073366"><ele>933.6666666666667</ele><time>2026-04-23T12:07:17Z</time></trkpt><trkpt lat="42.06486336956744" lon="13.644915264180916"><ele>933.0</ele><time>2026-04-23T12:07:17.999Z</time></trkpt><trkpt lat="42.06488497769253" lon="13.645157538688945"><ele>934.25</ele><time>2026-04-23T12:07:18.999Z</time></trkpt><trkpt lat="42.06489838642857" lon="13.645370340631755"><ele>935.5</ele><time>2026-04-23T12:07:19.999Z</time></trkpt><trkpt lat="42.06488774924638" lon="13.645556138953287"><ele>936.75</ele><time>2026-04-23T12:07:20.999Z</time></trkpt><trkpt lat="42.064835236222834" lon="13.645720048781408"><ele>938.0</ele><time>2026-04-23T12:07:21.999Z</time></trkpt><trkpt lat="42.06473925105591" lon="13.645859661404861"><ele>938.0</ele><time>2026-04-23T12:07:22.999Z</time></trkpt><trkpt lat="42.06459681341923" lon="13.645939356383055"><ele>938.0</ele><time>2026-04-23T12:07:23.999Z</time></trkpt><trkpt lat="42.06445604762742" lon="13.646040181414355"><ele>938.0</ele><time>2026-04-23T12:07:24.999Z</time></trkpt><trkpt lat="42.06430593453642" lon="13.646133074580437"><ele>937.6666666666667</ele><time>2026-04-23T12:07:25.999Z</time></trkpt><trkpt lat="42.06416731926996" lon="13.646266423753932"><ele>937.3333333333333</ele><time>2026-04-23T12:07:26.999Z</time></trkpt><trkpt lat="42.064039714364014" lon="13.646428476868243"><ele>937.0</ele><time>2026-04-23T12:07:27.999Z</time></trkpt><trkpt lat="42.0639129501717" lon="13.646594878820181"><ele>937.0</ele><time>2026-04-23T12:07:28.999Z</time></trkpt><trkpt lat="42.06378910150657" lon="13.646750127094657"><ele>937.0</ele><time>2026-04-23T12:07:29.999Z</time></trkpt><trkpt lat="42.063676231475924" lon="13.646887674237334"><ele>937.0</ele><time>2026-04-23T12:07:30.999Z</time></trkpt><trkpt lat="42.063576737875955" lon="13.647022114563956"><ele>939.25</ele><time>2026-04-23T12:07:31.999Z</time></trkpt><trkpt lat="42.06350705863531" lon="13.647181951158199"><ele>941.5</ele><time>2026-04-23T12:07:32.999Z</time></trkpt><trkpt lat="42.06346318942655" lon="13.647366487800388"><ele>943.75</ele><time>2026-04-23T12:07:33.999Z</time></trkpt><trkpt lat="42.063466943711575" lon="13.647573144389401"><ele>946.0</ele><time>2026-04-23T12:07:34.999Z</time></trkpt><trkpt lat="42.063497787278884" lon="13.647777528073261"><ele>948.0</ele><time>2026-04-23T12:07:35.999Z</time></trkpt><trkpt lat="42.06353486286994" lon="13.647969157256703"><ele>950.0</ele><time>2026-04-23T12:07:36.999Z</time></trkpt><trkpt lat="42.063543192355624" lon="13.648132289639594"><ele>952.0</ele><time>2026-04-23T12:07:37.999Z</time></trkpt><trkpt lat="42.06352226929694" lon="13.64828383605148"><ele>954.0</ele><time>2026-04-23T12:07:38.999Z</time></trkpt><trkpt lat="42.06346785647741" lon="13.648417550790391"><ele>954.0</ele><time>2026-04-23T12:07:39.999Z</time></trkpt><trkpt lat="42.06338182087591" lon="13.648517048087122"><ele>954.0</ele><time>2026-04-23T12:07:40.999Z</time></trkpt><trkpt lat="42.06327572101099" lon="13.648586045219654"><ele>954.0</ele><time>2026-04-23T12:07:41.999Z</time></trkpt><trkpt lat="42.06315633742158" lon="13.648565841630292"><ele>954.0</ele><time>2026-04-23T12:07:42.999Z</time></trkpt><trkpt lat="42.06303795547666" lon="13.648532165536057"><ele>953.75</ele><time>2026-04-23T12:07:43.999Z</time></trkpt><trkpt lat="42.06292240200842" lon="13.648541477582729"><ele>953.5</ele><time>2026-04-23T12:07:44.999Z</time></trkpt><trkpt lat="42.06280802194219" lon="13.648611665022065"><ele>953.25</ele><time>2026-04-23T12:07:45.999Z</time></trkpt><trkpt lat="42.06269966377634" lon="13.648738373336935"><ele>953.0</ele><time>2026-04-23T12:07:46.999Z</time></trkpt><trkpt lat="42.06260697179847" lon="13.648890144328279"><ele>956.0</ele><time>2026-04-23T12:07:47.999Z</time></trkpt><trkpt lat="42.06253691244376" lon="13.649068405818332"><ele>959.0</ele><time>2026-04-23T12:07:48.999Z</time></trkpt><trkpt lat="42.06249935342752" lon="13.649276208061886"><ele>962.0</ele><time>2026-04-23T12:07:49.999Z</time></trkpt><trkpt lat="42.062493051356675" lon="13.649503208651133"><ele>961.3333333333334</ele><time>2026-04-23T12:07:50.999Z</time></trkpt><trkpt lat="42.062496301925705" lon="13.649723058097921"><ele>960.6666666666667</ele><time>2026-04-23T12:07:51.999Z</time></trkpt><trkpt lat="42.062476119295965" lon="13.649914734478847"><ele>960.0</ele><time>2026-04-23T12:07:52.999Z</time></trkpt><trkpt lat="42.06240071932634" lon="13.650086092775657"><ele>960.0</ele><time>2026-04-23T12:07:53.999Z</time></trkpt><trkpt lat="42.06228066660728" lon="13.650224284684638"><ele>960.0</ele><time>2026-04-23T12:07:54.999Z</time></trkpt><trkpt lat="42.06214669790701" lon="13.65036853561988"><ele>960.0</ele><time>2026-04-23T12:07:55.999Z</time></trkpt><trkpt lat="42.06203229234549" lon="13.650498087891044"><ele>961.25</ele><time>2026-04-23T12:07:56.999Z</time></trkpt><trkpt lat="42.06193518389185" lon="13.650626635030815"><ele>962.5</ele><time>2026-04-23T12:07:57.999Z</time></trkpt><trkpt lat="42.06187152745263" lon="13.650774437160742"><ele>963.75</ele><time>2026-04-23T12:07:58.999Z</time></trkpt><trkpt lat="42.06184577000256" lon="13.650947099507167"><ele>965.0</ele><time>2026-04-23T12:07:59.999Z</time></trkpt><trkpt lat="42.06186178901368" lon="13.651129255343907"><ele>966.6666666666667</ele><time>2026-04-23T12:08:00.999Z</time></trkpt><trkpt lat="42.06193213968762" lon="13.65131513298956"><ele>968.3333333333333</ele><time>2026-04-23T12:08:01.999Z</time></trkpt><trkpt lat="42.06202833594371" lon="13.651504231370343"><ele>970.0</ele><time>2026-04-23T12:08:02.999Z</time></trkpt><trkpt lat="42.06212669056388" lon="13.651708869098783"><ele>970.0</ele><time>2026-04-23T12:08:03.999Z</time></trkpt><trkpt lat="42.06222230382807" lon="13.651937657505101"><ele>970.0</ele><time>2026-04-23T12:08:04.999Z</time></trkpt><trkpt lat="42.06232040266637" lon="13.652175539502453"><ele>970.0</ele><time>2026-04-23T12:08:05.999Z</time></trkpt><trkpt lat="42.062419183643684" lon="13.652418922931819"><ele>972.3333333333333</ele><time>2026-04-23T12:08:06.999Z</time></trkpt><trkpt lat="42.06249370225378" lon="13.652671454133905"><ele>974.6666666666667</ele><time>2026-04-23T12:08:07.999Z</time></trkpt><trkpt lat="42.06254309318214" lon="13.652940393066114"><ele>977.0</ele><time>2026-04-23T12:08:08.999Z</time></trkpt><trkpt lat="42.06258858258512" lon="13.653220393077964"><ele>979.0</ele><time>2026-04-23T12:08:09.999Z</time></trkpt><trkpt lat="42.0626463905819" lon="13.653509504523823"><ele>981.0</ele><time>2026-04-23T12:08:11Z</time></trkpt><trkpt lat="42.06270410604125" lon="13.65380627475634"><ele>984.0</ele><time>2026-04-23T12:08:12Z</time></trkpt><trkpt lat="42.06276523380662" lon="13.654107165735413"><ele>987.0</ele><time>2026-04-23T12:08:13Z</time></trkpt><trkpt lat="42.06281944488389" lon="13.654403091207985"><ele>988.0</ele><time>2026-04-23T12:08:14Z</time></trkpt><trkpt lat="42.06287507957038" lon="13.654697499602689"><ele>989.0</ele><time>2026-04-23T12:08:15Z</time></trkpt><trkpt lat="42.062930488830304" lon="13.654978906643402"><ele>990.0</ele><time>2026-04-23T12:08:16Z</time></trkpt><trkpt lat="42.062983232896975" lon="13.655262444526386"><ele>990.6666666666667</ele><time>2026-04-23T12:08:17Z</time></trkpt><trkpt lat="42.063028955685866" lon="13.655537577080201"><ele>991.3333333333334</ele><time>2026-04-23T12:08:18Z</time></trkpt><trkpt lat="42.06306584392661" lon="13.655825520640253"><ele>992.0</ele><time>2026-04-23T12:08:19Z</time></trkpt><trkpt lat="42.06308544269558" lon="13.65611548279842"><ele>994.5</ele><time>2026-04-23T12:08:20Z</time></trkpt><trkpt lat="42.0631052849518" lon="13.656410963888108"><ele>997.0</ele><time>2026-04-23T12:08:21Z</time></trkpt><trkpt lat="42.06314790343572" lon="13.65671474977871"><ele>998.5</ele><time>2026-04-23T12:08:22Z</time></trkpt><trkpt lat="42.06320295245421" lon="13.657014449840322"><ele>1000.0</ele><time>2026-04-23T12:08:23Z</time></trkpt><trkpt lat="42.06326903104555" lon="13.65732049321016"><ele>1001.0</ele><time>2026-04-23T12:08:24Z</time></trkpt><trkpt lat="42.06333616938341" lon="13.657636892465376"><ele>1002.0</ele><time>2026-04-23T12:08:25Z</time></trkpt><trkpt lat="42.063397158303864" lon="13.657958309457182"><ele>1003.5</ele><time>2026-04-23T12:08:26Z</time></trkpt><trkpt lat="42.06345695814933" lon="13.658272746612646"><ele>1005.0</ele><time>2026-04-23T12:08:27Z</time></trkpt><trkpt lat="42.06351324449929" lon="13.658575591140464"><ele>1005.0</ele><time>2026-04-23T12:08:28Z</time></trkpt><trkpt lat="42.06356569760333" lon="13.65886052623579"><ele>1005.0</ele><time>2026-04-23T12:08:29Z</time></trkpt><trkpt lat="42.063611522587586" lon="13.659134512224892"><ele>1005.0</ele><time>2026-04-23T12:08:30Z</time></trkpt><trkpt lat="42.06365190188539" lon="13.659404939220794"><ele>1005.6666666666667</ele><time>2026-04-23T12:08:31Z</time></trkpt><trkpt lat="42.06368179974703" lon="13.659664554748131"><ele>1006.3333333333334</ele><time>2026-04-23T12:08:32Z</time></trkpt><trkpt lat="42.06371387642315" lon="13.659913046702242"><ele>1007.0</ele><time>2026-04-23T12:08:33Z</time></trkpt><trkpt lat="42.06375682618656" lon="13.660156451257874"><ele>1007.6666666666667</ele><time>2026-04-23T12:08:34Z</time></trkpt><trkpt lat="42.06383254602877" lon="13.660392021402503"><ele>1008.3333333333333</ele><time>2026-04-23T12:08:35Z</time></trkpt><trkpt lat="42.06392314178289" lon="13.660622133657519"><ele>1009.0</ele><time>2026-04-23T12:08:36Z</time></trkpt><trkpt lat="42.06401038988362" lon="13.660845552197092"><ele>1009.0</ele><time>2026-04-23T12:08:37Z</time></trkpt><trkpt lat="42.064086759292685" lon="13.661053626778076"><ele>1009.0</ele><time>2026-04-23T12:08:38Z</time></trkpt><trkpt lat="42.06415234764875" lon="13.661249207013809"><ele>1009.0</ele><time>2026-04-23T12:08:39Z</time></trkpt><trkpt lat="42.064215108990396" lon="13.661436126439442"><ele>1012.0</ele><time>2026-04-23T12:08:40Z</time></trkpt><trkpt lat="42.06423096329353" lon="13.661641992560766"><ele>1015.0</ele><time>2026-04-23T12:08:41Z</time></trkpt><trkpt lat="42.06422089024887" lon="13.661843461039854"><ele>1018.0</ele><time>2026-04-23T12:08:42Z</time></trkpt><trkpt lat="42.06414823135996" lon="13.662036577876076"><ele>1018.3333333333333</ele><time>2026-04-23T12:08:43Z</time></trkpt><trkpt lat="42.064055210217205" lon="13.662222525941248"><ele>1018.6666666666667</ele><time>2026-04-23T12:08:44Z</time></trkpt><trkpt lat="42.063930345248195" lon="13.66238542463577"><ele>1019.0</ele><time>2026-04-23T12:08:45Z</time></trkpt><trkpt lat="42.06377329657521" lon="13.662526151114013"><ele>1019.0</ele><time>2026-04-23T12:08:46Z</time></trkpt><trkpt lat="42.063609104534095" lon="13.66267524030667"><ele>1019.0</ele><time>2026-04-23T12:08:47Z</time></trkpt><trkpt lat="42.06345161549243" lon="13.662820506730407"><ele>1019.0</ele><time>2026-04-23T12:08:48Z</time></trkpt><trkpt lat="42.06329321328311" lon="13.662958821688331"><ele>1019.0</ele><time>2026-04-23T12:08:49Z</time></trkpt><trkpt lat="42.06315631900432" lon="13.663087333933278"><ele>1019.0</ele><time>2026-04-23T12:08:50Z</time></trkpt><trkpt lat="42.06303232544615" lon="13.663207519338853"><ele>1019.0</ele><time>2026-04-23T12:08:51Z</time></trkpt><trkpt lat="42.06291655313061" lon="13.663346241694892"><ele>1019.0</ele><time>2026-04-23T12:08:52Z</time></trkpt><trkpt lat="42.062818762473874" lon="13.663518207441438"><ele>1019.0</ele><time>2026-04-23T12:08:53Z</time></trkpt><trkpt lat="42.06273406186911" lon="13.66373109238433"><ele>1019.0</ele><time>2026-04-23T12:08:54Z</time></trkpt><trkpt lat="42.06264056604352" lon="13.66396248898666"><ele>1019.6666666666667</ele><time>2026-04-23T12:08:55Z</time></trkpt><trkpt lat="42.06254257453902" lon="13.664184322782976"><ele>1020.3333333333333</ele><time>2026-04-23T12:08:56Z</time></trkpt><trkpt lat="42.06244780430431" lon="13.664385196895282"><ele>1021.0</ele><time>2026-04-23T12:08:57Z</time></trkpt><trkpt lat="42.06236278066073" lon="13.664559907094258"><ele>1021.0</ele><time>2026-04-23T12:08:58Z</time></trkpt><trkpt lat="42.06228990060732" lon="13.664717154515063"><ele>1021.0</ele><time>2026-04-23T12:08:59Z</time></trkpt><trkpt lat="42.062239928443056" lon="13.66487395151708"><ele>1021.0</ele><time>2026-04-23T12:09:00Z</time></trkpt><trkpt lat="42.062232095603655" lon="13.665038968403552"><ele>1021.0</ele><time>2026-04-23T12:09:01Z</time></trkpt><trkpt lat="42.06228549373563" lon="13.665214702898467"><ele>1023.0</ele><time>2026-04-23T12:09:02Z</time></trkpt><trkpt lat="42.062378038511724" lon="13.665383270151596"><ele>1025.0</ele><time>2026-04-23T12:09:03Z</time></trkpt><trkpt lat="42.06250390205595" lon="13.665536316161104"><ele>1027.0</ele><time>2026-04-23T12:09:04Z</time></trkpt><trkpt lat="42.0626384315328" lon="13.665707930235335"><ele>1027.3333333333333</ele><time>2026-04-23T12:09:05Z</time></trkpt><trkpt lat="42.062765884077024" lon="13.665907900896109"><ele>1027.6666666666667</ele><time>2026-04-23T12:09:06Z</time></trkpt><trkpt lat="42.06287896004277" lon="13.666114738008842"><ele>1028.0</ele><time>2026-04-23T12:09:07Z</time></trkpt><trkpt lat="42.06296022089048" lon="13.666325005560907"><ele>1028.0</ele><time>2026-04-23T12:09:08Z</time></trkpt><trkpt lat="42.06298092570552" lon="13.666544947303132"><ele>1028.0</ele><time>2026-04-23T12:09:09Z</time></trkpt><trkpt lat="42.06302506078253" lon="13.666746581130873"><ele>1028.0</ele><time>2026-04-23T12:09:10Z</time></trkpt><trkpt lat="42.06303401436801" lon="13.666948537589315"><ele>1029.0</ele><time>2026-04-23T12:09:11Z</time></trkpt><trkpt lat="42.06304928489979" lon="13.667145988752521"><ele>1030.0</ele><time>2026-04-23T12:09:12Z</time></trkpt><trkpt lat="42.06307054079202" lon="13.667328628762956"><ele>1031.0</ele><time>2026-04-23T12:09:13Z</time></trkpt><trkpt lat="42.063089702023774" lon="13.667507657030564"><ele>1032.0</ele><time>2026-04-23T12:09:14Z</time></trkpt><trkpt lat="42.06305830113373" lon="13.667681702606677"><ele>1034.25</ele><time>2026-04-23T12:09:15Z</time></trkpt><trkpt lat="42.06298481665968" lon="13.667837937498664"><ele>1036.5</ele><time>2026-04-23T12:09:16Z</time></trkpt><trkpt lat="42.06290103322596" lon="13.667991105792762"><ele>1038.75</ele><time>2026-04-23T12:09:16.999Z</time></trkpt><trkpt lat="42.062823261386306" lon="13.668147704090352"><ele>1041.0</ele><time>2026-04-23T12:09:17.999Z</time></trkpt><trkpt lat="42.06273424842867" lon="13.668299470844298"><ele>1041.0</ele><time>2026-04-23T12:09:18.999Z</time></trkpt><trkpt lat="42.06265448179985" lon="13.66845561912785"><ele>1041.0</ele><time>2026-04-23T12:09:19.999Z</time></trkpt><trkpt lat="42.06257729109109" lon="13.668609233501323"><ele>1041.0</ele><time>2026-04-23T12:09:20.999Z</time></trkpt><trkpt lat="42.062487896266575" lon="13.668744760471593"><ele>1041.0</ele><time>2026-04-23T12:09:21.999Z</time></trkpt><trkpt lat="42.062383872509855" lon="13.668854795548569"><ele>1040.5</ele><time>2026-04-23T12:09:22.999Z</time></trkpt><trkpt lat="42.06227786936603" lon="13.668970020291733"><ele>1040.0</ele><time>2026-04-23T12:09:23.999Z</time></trkpt><trkpt lat="42.06218607504723" lon="13.669101785200946"><ele>1039.5</ele><time>2026-04-23T12:09:24.999Z</time></trkpt><trkpt lat="42.062103934540154" lon="13.669241499943722"><ele>1039.0</ele><time>2026-04-23T12:09:25.999Z</time></trkpt><trkpt lat="42.06203107257735" lon="13.669401007395225"><ele>1043.3333333333333</ele><time>2026-04-23T12:09:26.999Z</time></trkpt><trkpt lat="42.06194528171347" lon="13.669581251817696"><ele>1047.6666666666667</ele><time>2026-04-23T12:09:27.999Z</time></trkpt><trkpt lat="42.06184772553215" lon="13.669773818005881"><ele>1052.0</ele><time>2026-04-23T12:09:28.999Z</time></trkpt><trkpt lat="42.061741557710164" lon="13.669975043207634"><ele>1052.0</ele><time>2026-04-23T12:09:29.999Z</time></trkpt><trkpt lat="42.06162429164095" lon="13.670177891690122"><ele>1052.0</ele><time>2026-04-23T12:09:30.999Z</time></trkpt><trkpt lat="42.06149807690887" lon="13.670370824475132"><ele>1052.0</ele><time>2026-04-23T12:09:31.999Z</time></trkpt><trkpt lat="42.06137775322118" lon="13.670559564411016"><ele>1052.0</ele><time>2026-04-23T12:09:32.999Z</time></trkpt><trkpt lat="42.06127944082413" lon="13.670768525560533"><ele>1052.0</ele><time>2026-04-23T12:09:33.999Z</time></trkpt><trkpt lat="42.06121505803616" lon="13.671037345206175"><ele>1052.0</ele><time>2026-04-23T12:09:34.999Z</time></trkpt><trkpt lat="42.061154672206264" lon="13.671315306349152"><ele>1052.6666666666667</ele><time>2026-04-23T12:09:35.999Z</time></trkpt><trkpt lat="42.06108064299008" lon="13.671591589983995"><ele>1053.3333333333333</ele><time>2026-04-23T12:09:36.999Z</time></trkpt><trkpt lat="42.06098371635924" lon="13.671857206799789"><ele>1054.0</ele><time>2026-04-23T12:09:37.999Z</time></trkpt><trkpt lat="42.060876887990034" lon="13.67211765353205"><ele>1058.5</ele><time>2026-04-23T12:09:38.999Z</time></trkpt><trkpt lat="42.06077022772356" lon="13.672388721827419"><ele>1063.0</ele><time>2026-04-23T12:09:39.999Z</time></trkpt><trkpt lat="42.060651255191104" lon="13.672658346238295"><ele>1061.5</ele><time>2026-04-23T12:09:40.999Z</time></trkpt><trkpt lat="42.06050817971011" lon="13.67292695708838"><ele>1060.0</ele><time>2026-04-23T12:09:41.999Z</time></trkpt><trkpt lat="42.06035249723913" lon="13.67319873918949"><ele>1060.0</ele><time>2026-04-23T12:09:42.999Z</time></trkpt><trkpt lat="42.06020323571191" lon="13.673477115534602"><ele>1060.0</ele><time>2026-04-23T12:09:43.999Z</time></trkpt><trkpt lat="42.06006081546784" lon="13.673750801282802"><ele>1068.0</ele><time>2026-04-23T12:09:44.999Z</time></trkpt><trkpt lat="42.05992013620852" lon="13.674008725328175"><ele>1076.0</ele><time>2026-04-23T12:09:45.999Z</time></trkpt><trkpt lat="42.05978172792707" lon="13.674251070220043"><ele>1073.0</ele><time>2026-04-23T12:09:46.999Z</time></trkpt><trkpt lat="42.059650577825686" lon="13.674498183258855"><ele>1070.0</ele><time>2026-04-23T12:09:47.999Z</time></trkpt><trkpt lat="42.05953005745946" lon="13.674758833894982"><ele>1070.0</ele><time>2026-04-23T12:09:48.999Z</time></trkpt><trkpt lat="42.05941580080287" lon="13.675035610687816"><ele>1070.0</ele><time>2026-04-23T12:09:49.999Z</time></trkpt><trkpt lat="42.059309561148666" lon="13.675328247084513"><ele>1072.5</ele><time>2026-04-23T12:09:50.999Z</time></trkpt><trkpt lat="42.05920535341345" lon="13.675624484168068"><ele>1075.0</ele><time>2026-04-23T12:09:51.999Z</time></trkpt><trkpt lat="42.05909697363019" lon="13.675916739434877"><ele>1074.5</ele><time>2026-04-23T12:09:52.999Z</time></trkpt><trkpt lat="42.05899135733366" lon="13.676203583845457"><ele>1074.0</ele><time>2026-04-23T12:09:53.999Z</time></trkpt><trkpt lat="42.05889296791405" lon="13.676468624301426"><ele>1074.0</ele><time>2026-04-23T12:09:54.999Z</time></trkpt><trkpt lat="42.058805480475584" lon="13.676705994518464"><ele>1074.0</ele><time>2026-04-23T12:09:55.999Z</time></trkpt><trkpt lat="42.05871811260315" lon="13.676915444598487"><ele>1074.0</ele><time>2026-04-23T12:09:56.999Z</time></trkpt><trkpt lat="42.05861739473125" lon="13.677100925909306"><ele>1074.75</ele><time>2026-04-23T12:09:57.999Z</time></trkpt><trkpt lat="42.05850705349776" lon="13.677246029304621"><ele>1075.5</ele><time>2026-04-23T12:09:58.999Z</time></trkpt><trkpt lat="42.0583933334346" lon="13.677377322505782"><ele>1076.25</ele><time>2026-04-23T12:09:59.999Z</time></trkpt><trkpt lat="42.058290647654395" lon="13.677510417408708"><ele>1077.0</ele><time>2026-04-23T12:10:00.999Z</time></trkpt><trkpt lat="42.058220287503886" lon="13.677654072587112"><ele>1076.0</ele><time>2026-04-23T12:10:01.999Z</time></trkpt><trkpt lat="42.05817240777491" lon="13.67780844693905"><ele>1075.0</ele><time>2026-04-23T12:10:02.999Z</time></trkpt><trkpt lat="42.05815552532365" lon="13.677989169371585"><ele>1074.0</ele><time>2026-04-23T12:10:03.999Z</time></trkpt><trkpt lat="42.05816712053383" lon="13.67817983054104"><ele>1073.0</ele><time>2026-04-23T12:10:04.999Z</time></trkpt><trkpt lat="42.058215176967494" lon="13.678377293199324"><ele>1073.0</ele><time>2026-04-23T12:10:05.999Z</time></trkpt><trkpt lat="42.0582734148114" lon="13.678577106961242"><ele>1073.0</ele><time>2026-04-23T12:10:06.999Z</time></trkpt><trkpt lat="42.05833541745328" lon="13.678764440973012"><ele>1073.0</ele><time>2026-04-23T12:10:07.999Z</time></trkpt><trkpt lat="42.05840065854146" lon="13.678933194124001"><ele>1072.3333333333335</ele><time>2026-04-23T12:10:08.999Z</time></trkpt><trkpt lat="42.05849392025203" lon="13.679076460408158"><ele>1071.6666666666667</ele><time>2026-04-23T12:10:09.999Z</time></trkpt><trkpt lat="42.05862815675701" lon="13.679203601008911"><ele>1071.0</ele><time>2026-04-23T12:10:10.999Z</time></trkpt><trkpt lat="42.058778001946166" lon="13.679309591942443"><ele>1071.0</ele><time>2026-04-23T12:10:11.999Z</time></trkpt><trkpt lat="42.05893631807411" lon="13.679414646289864"><ele>1071.0</ele><time>2026-04-23T12:10:12.999Z</time></trkpt><trkpt lat="42.05908914817381" lon="13.679532235205382"><ele>1071.0</ele><time>2026-04-23T12:10:13.999Z</time></trkpt><trkpt lat="42.059240279031606" lon="13.679678630782524"><ele>1069.6666666666667</ele><time>2026-04-23T12:10:14.999Z</time></trkpt><trkpt lat="42.05938581288818" lon="13.679839048766937"><ele>1068.3333333333335</ele><time>2026-04-23T12:10:15.999Z</time></trkpt><trkpt lat="42.059531135537036" lon="13.68000265604535"><ele>1067.0</ele><time>2026-04-23T12:10:17Z</time></trkpt><trkpt lat="42.05967921687113" lon="13.680170886822294"><ele>1067.0</ele><time>2026-04-23T12:10:18Z</time></trkpt><trkpt lat="42.059829123552724" lon="13.680339984332578"><ele>1067.0</ele><time>2026-04-23T12:10:19Z</time></trkpt><trkpt lat="42.05998202996035" lon="13.68050980041758"><ele>1067.0</ele><time>2026-04-23T12:10:20Z</time></trkpt><trkpt lat="42.06014216177088" lon="13.680686957382726"><ele>1066.0</ele><time>2026-04-23T12:10:21Z</time></trkpt><trkpt lat="42.06031967607366" lon="13.680875522383552"><ele>1065.0</ele><time>2026-04-23T12:10:22Z</time></trkpt><trkpt lat="42.060516822750216" lon="13.681064748456476"><ele>1064.5</ele><time>2026-04-23T12:10:23Z</time></trkpt><trkpt lat="42.06072079402214" lon="13.681254385504834"><ele>1064.0</ele><time>2026-04-23T12:10:24Z</time></trkpt><trkpt lat="42.06092685087119" lon="13.681446391982258"><ele>1062.5</ele><time>2026-04-23T12:10:25Z</time></trkpt><trkpt lat="42.061136211939726" lon="13.681642880097039"><ele>1061.0</ele><time>2026-04-23T12:10:26Z</time></trkpt><trkpt lat="42.06134708031432" lon="13.68184004631577"><ele>1061.5</ele><time>2026-04-23T12:10:27Z</time></trkpt><trkpt lat="42.06155467767207" lon="13.682045293275374"><ele>1062.0</ele><time>2026-04-23T12:10:28Z</time></trkpt><trkpt lat="42.061766350854484" lon="13.682247159605707"><ele>1060.5</ele><time>2026-04-23T12:10:29Z</time></trkpt><trkpt lat="42.06197554471234" lon="13.682447511331192"><ele>1059.0</ele><time>2026-04-23T12:10:30Z</time></trkpt><trkpt lat="42.062180813643515" lon="13.682643135670023"><ele>1059.0</ele><time>2026-04-23T12:10:31Z</time></trkpt><trkpt lat="42.062380797198784" lon="13.682835859154997"><ele>1059.0</ele><time>2026-04-23T12:10:32Z</time></trkpt><trkpt lat="42.06257630099922" lon="13.683023047290796"><ele>1059.0</ele><time>2026-04-23T12:10:33Z</time></trkpt><trkpt lat="42.06275666997245" lon="13.683195895457628"><ele>1059.0</ele><time>2026-04-23T12:10:34Z</time></trkpt><trkpt lat="42.06292761489253" lon="13.68335744962636"><ele>1059.0</ele><time>2026-04-23T12:10:35Z</time></trkpt><trkpt lat="42.06308483205749" lon="13.683504370743185"><ele>1059.0</ele><time>2026-04-23T12:10:36Z</time></trkpt><trkpt lat="42.063233865544746" lon="13.683645243978367"><ele>1059.0</ele><time>2026-04-23T12:10:37Z</time></trkpt><trkpt lat="42.06336979841868" lon="13.683779497532274"><ele>1059.0</ele><time>2026-04-23T12:10:38Z</time></trkpt><trkpt lat="42.06349850664756" lon="13.683919948222995"><ele>1059.3333333333333</ele><time>2026-04-23T12:10:39Z</time></trkpt><trkpt lat="42.063612461855584" lon="13.684082676852334"><ele>1059.6666666666665</ele><time>2026-04-23T12:10:40Z</time></trkpt><trkpt lat="42.06371172540306" lon="13.684267601023581"><ele>1060.0</ele><time>2026-04-23T12:10:41Z</time></trkpt><trkpt lat="42.063795667866145" lon="13.684485671724664"><ele>1060.0</ele><time>2026-04-23T12:10:42Z</time></trkpt><trkpt lat="42.063874036913894" lon="13.684715834348014"><ele>1060.0</ele><time>2026-04-23T12:10:43Z</time></trkpt><trkpt lat="42.06395408581073" lon="13.684949005428846"><ele>1060.0</ele><time>2026-04-23T12:10:44Z</time></trkpt><trkpt lat="42.06403997981634" lon="13.685172031056831"><ele>1063.3333333333333</ele><time>2026-04-23T12:10:45Z</time></trkpt><trkpt lat="42.06411483332379" lon="13.685377940366106"><ele>1066.6666666666667</ele><time>2026-04-23T12:10:46Z</time></trkpt><trkpt lat="42.06416600571451" lon="13.68558564924578"><ele>1070.0</ele><time>2026-04-23T12:10:47Z</time></trkpt><trkpt lat="42.06418257203758" lon="13.685796872295182"><ele>1070.0</ele><time>2026-04-23T12:10:48Z</time></trkpt><trkpt lat="42.064161885610154" lon="13.686010837157182"><ele>1070.0</ele><time>2026-04-23T12:10:49Z</time></trkpt><trkpt lat="42.06410941034864" lon="13.686222721952472"><ele>1070.0</ele><time>2026-04-23T12:10:50Z</time></trkpt><trkpt lat="42.06403245195115" lon="13.68644516157188"><ele>1069.0</ele><time>2026-04-23T12:10:51Z</time></trkpt><trkpt lat="42.06395495616724" lon="13.686677379272455"><ele>1068.0</ele><time>2026-04-23T12:10:52Z</time></trkpt><trkpt lat="42.06389259295315" lon="13.686923419013564"><ele>1067.0</ele><time>2026-04-23T12:10:53Z</time></trkpt><trkpt lat="42.063841452567765" lon="13.687162575097013"><ele>1067.0</ele><time>2026-04-23T12:10:54Z</time></trkpt><trkpt lat="42.06381018437969" lon="13.687397200266489"><ele>1067.0</ele><time>2026-04-23T12:10:55Z</time></trkpt><trkpt lat="42.06380900351562" lon="13.687645908916158"><ele>1067.0</ele><time>2026-04-23T12:10:56Z</time></trkpt><trkpt lat="42.06383192899837" lon="13.687901106306564"><ele>1067.6666666666667</ele><time>2026-04-23T12:10:57Z</time></trkpt><trkpt lat="42.06387766981769" lon="13.688150193292426"><ele>1068.3333333333333</ele><time>2026-04-23T12:10:58Z</time></trkpt><trkpt lat="42.06391817843026" lon="13.688381985760643"><ele>1069.0</ele><time>2026-04-23T12:10:59Z</time></trkpt><trkpt lat="42.0639318186334" lon="13.688600458916246"><ele>1071.0</ele><time>2026-04-23T12:11:00Z</time></trkpt><trkpt lat="42.063906475723975" lon="13.688806062635274"><ele>1073.0</ele><time>2026-04-23T12:11:01Z</time></trkpt><trkpt lat="42.0638246756701" lon="13.688978936596108"><ele>1075.0</ele><time>2026-04-23T12:11:02Z</time></trkpt><trkpt lat="42.063753066638206" lon="13.689176334641113"><ele>1075.0</ele><time>2026-04-23T12:11:03Z</time></trkpt><trkpt lat="42.063650837208996" lon="13.689376793575274"><ele>1075.0</ele><time>2026-04-23T12:11:04Z</time></trkpt><trkpt lat="42.063552101232794" lon="13.689597460840968"><ele>1075.0</ele><time>2026-04-23T12:11:05Z</time></trkpt><trkpt lat="42.06344684478121" lon="13.689831716636178"><ele>1075.6666666666665</ele><time>2026-04-23T12:11:06Z</time></trkpt><trkpt lat="42.06333838892362" lon="13.690075627345909"><ele>1076.3333333333333</ele><time>2026-04-23T12:11:07Z</time></trkpt><trkpt lat="42.06322861167399" lon="13.690334798259789"><ele>1077.0</ele><time>2026-04-23T12:11:08Z</time></trkpt><trkpt lat="42.06311688319062" lon="13.690599266695704"><ele>1077.0</ele><time>2026-04-23T12:11:09Z</time></trkpt><trkpt lat="42.063002306663215" lon="13.690863966119357"><ele>1077.0</ele><time>2026-04-23T12:11:10Z</time></trkpt><trkpt lat="42.06288709067448" lon="13.691118789419516"><ele>1077.0</ele><time>2026-04-23T12:11:11Z</time></trkpt><trkpt lat="42.062771341518655" lon="13.69135059260043"><ele>1079.3333333333333</ele><time>2026-04-23T12:11:12Z</time></trkpt><trkpt lat="42.06264951357843" lon="13.691557873859171"><ele>1081.6666666666665</ele><time>2026-04-23T12:11:13Z</time></trkpt><trkpt lat="42.06252835406255" lon="13.69174462478881"><ele>1084.0</ele><time>2026-04-23T12:11:14Z</time></trkpt><trkpt lat="42.06241104525483" lon="13.691920388269455"><ele>1087.6666666666665</ele><time>2026-04-23T12:11:14.999Z</time></trkpt><trkpt lat="42.06230442172584" lon="13.692108203272799"><ele>1091.3333333333333</ele><time>2026-04-23T12:11:15.999Z</time></trkpt><trkpt lat="42.06220283084251" lon="13.692288860241925"><ele>1095.0</ele><time>2026-04-23T12:11:16.999Z</time></trkpt><trkpt lat="42.06210502896928" lon="13.692458825602532"><ele>1095.0</ele><time>2026-04-23T12:11:17.999Z</time></trkpt><trkpt lat="42.06201388974288" lon="13.692607581471762"><ele>1095.0</ele><time>2026-04-23T12:11:18.999Z</time></trkpt><trkpt lat="42.06193210440072" lon="13.692736530419515"><ele>1095.0</ele><time>2026-04-23T12:11:19.999Z</time></trkpt><trkpt lat="42.061868621754996" lon="13.692859784834946"><ele>1095.0</ele><time>2026-04-23T12:11:20.999Z</time></trkpt><trkpt lat="42.06183249558091" lon="13.692994007270705"><ele>1095.0</ele><time>2026-04-23T12:11:21.999Z</time></trkpt><trkpt lat="42.061834371945096" lon="13.693145045730994"><ele>1095.0</ele><time>2026-04-23T12:11:22.999Z</time></trkpt><trkpt lat="42.061875758143735" lon="13.693299998871678"><ele>1095.0</ele><time>2026-04-23T12:11:23.999Z</time></trkpt><trkpt lat="42.06205201168689" lon="13.693613694100458"><ele>1091.3333333333333</ele><time>2026-04-23T12:11:25.999Z</time></trkpt><trkpt lat="42.06213378542421" lon="13.69379242629859"><ele>1087.6666666666665</ele><time>2026-04-23T12:11:26.999Z</time></trkpt><trkpt lat="42.0622008471533" lon="13.69399326536539"><ele>1084.0</ele><time>2026-04-23T12:11:27.999Z</time></trkpt><trkpt lat="42.06224567818729" lon="13.694213974325171"><ele>1081.6666666666665</ele><time>2026-04-23T12:11:28.999Z</time></trkpt><trkpt lat="42.06226291874561" lon="13.694451599942836"><ele>1079.3333333333333</ele><time>2026-04-23T12:11:29.999Z</time></trkpt><trkpt lat="42.06226950908229" lon="13.694705421559526"><ele>1077.0</ele><time>2026-04-23T12:11:30.999Z</time></trkpt><trkpt lat="42.062274910333095" lon="13.694979610592652"><ele>1076.3333333333333</ele><time>2026-04-23T12:11:31.999Z</time></trkpt><trkpt lat="42.06228723305797" lon="13.695263565471716"><ele>1075.6666666666665</ele><time>2026-04-23T12:11:32.999Z</time></trkpt><trkpt lat="42.06230520287819" lon="13.695555526575033"><ele>1075.0</ele><time>2026-04-23T12:11:33.999Z</time></trkpt><trkpt lat="42.06232651754021" lon="13.6958535223202"><ele>1076.5</ele><time>2026-04-23T12:11:34.999Z</time></trkpt><trkpt lat="42.062351130553886" lon="13.69615693767179"><ele>1078.0</ele><time>2026-04-23T12:11:35.999Z</time></trkpt><trkpt lat="42.062373755534125" lon="13.696465961917674"><ele>1078.0</ele><time>2026-04-23T12:11:36.999Z</time></trkpt><trkpt lat="42.06239533891523" lon="13.696778750511696"><ele>1078.0</ele><time>2026-04-23T12:11:37.999Z</time></trkpt><trkpt lat="42.06241596351475" lon="13.697094345454893"><ele>1077.5</ele><time>2026-04-23T12:11:38.999Z</time></trkpt><trkpt lat="42.06243563186727" lon="13.697413240251949"><ele>1077.0</ele><time>2026-04-23T12:11:39.999Z</time></trkpt><trkpt lat="42.062458377306925" lon="13.697734548393653"><ele>1090.5</ele><time>2026-04-23T12:11:40.999Z</time></trkpt><trkpt lat="42.062470932902684" lon="13.698051724621996"><ele>1104.0</ele><time>2026-04-23T12:11:41.999Z</time></trkpt><trkpt lat="42.0624642830812" lon="13.698357011635794"><ele>1095.6666666666667</ele><time>2026-04-23T12:11:42.999Z</time></trkpt><trkpt lat="42.06244027615073" lon="13.698643622642805"><ele>1087.3333333333335</ele><time>2026-04-23T12:11:43.999Z</time></trkpt><trkpt lat="42.06241521526473" lon="13.698917965620588"><ele>1079.0</ele><time>2026-04-23T12:11:44.999Z</time></trkpt><trkpt lat="42.06241898217821" lon="13.699211029584658"><ele>1078.0</ele><time>2026-04-23T12:11:45.999Z</time></trkpt><trkpt lat="42.06243921474925" lon="13.699508457749074"><ele>1077.0</ele><time>2026-04-23T12:11:46.999Z</time></trkpt><trkpt lat="42.06245168945204" lon="13.699804642150218"><ele>1076.0</ele><time>2026-04-23T12:11:47.999Z</time></trkpt><trkpt lat="42.062458796532034" lon="13.700100691389721"><ele>1087.0</ele><time>2026-04-23T12:11:48.999Z</time></trkpt><trkpt lat="42.06246212278103" lon="13.700397091028957"><ele>1098.0</ele><time>2026-04-23T12:11:49.999Z</time></trkpt><trkpt lat="42.06245647285767" lon="13.700685987879064"><ele>1109.0</ele><time>2026-04-23T12:11:50.999Z</time></trkpt><trkpt lat="42.06245142273018" lon="13.70096772791681"><ele>1108.3333333333335</ele><time>2026-04-23T12:11:51.999Z</time></trkpt><trkpt lat="42.06244923694073" lon="13.701239791513812"><ele>1107.6666666666667</ele><time>2026-04-23T12:11:52.999Z</time></trkpt><trkpt lat="42.062446611524436" lon="13.701498990506488"><ele>1107.0</ele><time>2026-04-23T12:11:53.999Z</time></trkpt><trkpt lat="42.06244491516509" lon="13.70173620300331"><ele>1105.6666666666667</ele><time>2026-04-23T12:11:54.999Z</time></trkpt><trkpt lat="42.06244255120768" lon="13.701957414576167"><ele>1104.3333333333335</ele><time>2026-04-23T12:11:55.999Z</time></trkpt><trkpt lat="42.06244192176128" lon="13.702164741361292"><ele>1103.0</ele><time>2026-04-23T12:11:56.999Z</time></trkpt><trkpt lat="42.0624537134513" lon="13.70236204936994"><ele>1103.0</ele><time>2026-04-23T12:11:57.999Z</time></trkpt><trkpt lat="42.0624920882495" lon="13.70255951897352"><ele>1103.0</ele><time>2026-04-23T12:11:58.999Z</time></trkpt><trkpt lat="42.062559442507805" lon="13.702749128074082"><ele>1103.0</ele><time>2026-04-23T12:11:59.999Z</time></trkpt><trkpt lat="42.06266425044014" lon="13.702927452778612"><ele>1099.6666666666667</ele><time>2026-04-23T12:12:00.999Z</time></trkpt><trkpt lat="42.06277925989889" lon="13.703101841527987"><ele>1096.3333333333333</ele><time>2026-04-23T12:12:01.999Z</time></trkpt><trkpt lat="42.06288235167468" lon="13.703297687895406"><ele>1093.0</ele><time>2026-04-23T12:12:02.999Z</time></trkpt><trkpt lat="42.06296771779077" lon="13.703513855263054"><ele>1090.0</ele><time>2026-04-23T12:12:03.999Z</time></trkpt><trkpt lat="42.063027066534275" lon="13.703737599688827"><ele>1087.0</ele><time>2026-04-23T12:12:04.999Z</time></trkpt><trkpt lat="42.06306500691303" lon="13.703976443923986"><ele>1084.0</ele><time>2026-04-23T12:12:05.999Z</time></trkpt><trkpt lat="42.06309967004476" lon="13.704200232351091"><ele>1084.0</ele><time>2026-04-23T12:12:06.999Z</time></trkpt><trkpt lat="42.06313613853918" lon="13.704394929779081"><ele>1084.0</ele><time>2026-04-23T12:12:07.999Z</time></trkpt><trkpt lat="42.06318388378324" lon="13.704570230511214"><ele>1084.0</ele><time>2026-04-23T12:12:08.999Z</time></trkpt><trkpt lat="42.063240887949895" lon="13.704746378269682"><ele>1084.0</ele><time>2026-04-23T12:12:09.999Z</time></trkpt><trkpt lat="42.06328586900977" lon="13.704943023050287"><ele>1091.0</ele><time>2026-04-23T12:12:10.999Z</time></trkpt><trkpt lat="42.06338058543468" lon="13.705103235628371"><ele>1098.0</ele><time>2026-04-23T12:12:11.999Z</time></trkpt><trkpt lat="42.06347666777914" lon="13.705264204495744"><ele>1105.0</ele><time>2026-04-23T12:12:12.999Z</time></trkpt><trkpt lat="42.063567195712274" lon="13.705431663332972"><ele>1106.75</ele><time>2026-04-23T12:12:13.999Z</time></trkpt><trkpt lat="42.06365640522363" lon="13.705589842013518"><ele>1108.5</ele><time>2026-04-23T12:12:14.999Z</time></trkpt><trkpt lat="42.06374927778097" lon="13.705730566619843"><ele>1110.25</ele><time>2026-04-23T12:12:15.999Z</time></trkpt><trkpt lat="42.0638393888666" lon="13.705855670594204"><ele>1112.0</ele><time>2026-04-23T12:12:16.999Z</time></trkpt><trkpt lat="42.063924499705145" lon="13.705962135705715"><ele>1112.0</ele><time>2026-04-23T12:12:17.999Z</time></trkpt><trkpt lat="42.06400006136545" lon="13.706055847722515"><ele>1112.0</ele><time>2026-04-23T12:12:18.999Z</time></trkpt><trkpt lat="42.06408228083089" lon="13.706125819708427"><ele>1112.0</ele><time>2026-04-23T12:12:19.999Z</time></trkpt><trkpt lat="42.06419628098074" lon="13.706167875734646"><ele>1112.0</ele><time>2026-04-23T12:12:20.999Z</time></trkpt><trkpt lat="42.06433418305243" lon="13.70617659893567"><ele>1113.3333333333335</ele><time>2026-04-23T12:12:21.999Z</time></trkpt><trkpt lat="42.06447553604431" lon="13.706173365606771"><ele>1114.6666666666667</ele><time>2026-04-23T12:12:23Z</time></trkpt><trkpt lat="42.064627423715834" lon="13.706166102214786"><ele>1116.0</ele><time>2026-04-23T12:12:24Z</time></trkpt><trkpt lat="42.0647881653852" lon="13.706171917107035"><ele>1108.6666666666667</ele><time>2026-04-23T12:12:25Z</time></trkpt><trkpt lat="42.0649515735921" lon="13.70619161841756"><ele>1101.3333333333335</ele><time>2026-04-23T12:12:26Z</time></trkpt><trkpt lat="42.065111869425735" lon="13.706213405330976"><ele>1094.0</ele><time>2026-04-23T12:12:27Z</time></trkpt><trkpt lat="42.065268317878115" lon="13.706241270317463"><ele>1094.0</ele><time>2026-04-23T12:12:28Z</time></trkpt><trkpt lat="42.06541852335336" lon="13.706267361928528"><ele>1094.0</ele><time>2026-04-23T12:12:29Z</time></trkpt><trkpt lat="42.0655636513864" lon="13.70628464508187"><ele>1094.0</ele><time>2026-04-23T12:12:30Z</time></trkpt><trkpt lat="42.06570185150018" lon="13.706291489991875"><ele>1094.0</ele><time>2026-04-23T12:12:31Z</time></trkpt><trkpt lat="42.06583194862871" lon="13.706282492742726"><ele>1091.25</ele><time>2026-04-23T12:12:32Z</time></trkpt><trkpt lat="42.065945787313325" lon="13.706266555791188"><ele>1088.5</ele><time>2026-04-23T12:12:33Z</time></trkpt><trkpt lat="42.06606278973949" lon="13.706229256643905"><ele>1085.75</ele><time>2026-04-23T12:12:34Z</time></trkpt><trkpt lat="42.066174495984214" lon="13.706188238763712"><ele>1083.0</ele><time>2026-04-23T12:12:35Z</time></trkpt><trkpt lat="42.066287102450886" lon="13.706151896917355"><ele>1083.0</ele><time>2026-04-23T12:12:36Z</time></trkpt><trkpt lat="42.06641218119625" lon="13.70612406642971"><ele>1083.0</ele><time>2026-04-23T12:12:37Z</time></trkpt><trkpt lat="42.06654066717779" lon="13.706111319850429"><ele>1083.0</ele><time>2026-04-23T12:12:38Z</time></trkpt><trkpt lat="42.066673283638245" lon="13.706113489704261"><ele>1083.0</ele><time>2026-04-23T12:12:39Z</time></trkpt><trkpt lat="42.06682673065192" lon="13.706136290553784"><ele>1080.25</ele><time>2026-04-23T12:12:40Z</time></trkpt><trkpt lat="42.066953587943495" lon="13.706119473423247"><ele>1077.5</ele><time>2026-04-23T12:12:41Z</time></trkpt><trkpt lat="42.06708838177895" lon="13.706123657074212"><ele>1074.75</ele><time>2026-04-23T12:12:42Z</time></trkpt><trkpt lat="42.06723236947188" lon="13.706132833180577"><ele>1072.0</ele><time>2026-04-23T12:12:43Z</time></trkpt><trkpt lat="42.067377643812954" lon="13.706122838628307"><ele>1070.25</ele><time>2026-04-23T12:12:44Z</time></trkpt><trkpt lat="42.067518783855554" lon="13.706087866555935"><ele>1068.5</ele><time>2026-04-23T12:12:45Z</time></trkpt><trkpt lat="42.06763602319525" lon="13.706028513144364"><ele>1066.75</ele><time>2026-04-23T12:12:46Z</time></trkpt><trkpt lat="42.06774912255624" lon="13.70595279838424"><ele>1065.0</ele><time>2026-04-23T12:12:47Z</time></trkpt><trkpt lat="42.06791943001995" lon="13.706002922109459"><ele>1071.0</ele><time>2026-04-23T12:12:48Z</time></trkpt><trkpt lat="42.06804367327291" lon="13.705971219369161"><ele>1077.0</ele><time>2026-04-23T12:12:49Z</time></trkpt><trkpt lat="42.068192471077914" lon="13.705942543533785"><ele>1083.0</ele><time>2026-04-23T12:12:50Z</time></trkpt><trkpt lat="42.06834116570592" lon="13.705914395583694"><ele>1089.0</ele><time>2026-04-23T12:12:51Z</time></trkpt><trkpt lat="42.06850334831727" lon="13.705871344062103"><ele>1089.0</ele><time>2026-04-23T12:12:52Z</time></trkpt><trkpt lat="42.0686758193924" lon="13.705819222985669"><ele>1089.0</ele><time>2026-04-23T12:12:53Z</time></trkpt><trkpt lat="42.068851844203415" lon="13.705749925508078"><ele>1089.0</ele><time>2026-04-23T12:12:54Z</time></trkpt><trkpt lat="42.06902003484944" lon="13.705659977243489"><ele>1083.0</ele><time>2026-04-23T12:12:55Z</time></trkpt><trkpt lat="42.06917160307001" lon="13.705559163376101"><ele>1077.0</ele><time>2026-04-23T12:12:56Z</time></trkpt><trkpt lat="42.069312363683615" lon="13.70545151228186"><ele>1071.0</ele><time>2026-04-23T12:12:57Z</time></trkpt><trkpt lat="42.06944511039207" lon="13.705331838750823"><ele>1079.0</ele><time>2026-04-23T12:12:58Z</time></trkpt><trkpt lat="42.06956782154249" lon="13.705215181120508"><ele>1087.0</ele><time>2026-04-23T12:12:59Z</time></trkpt><trkpt lat="42.06967244599414" lon="13.705089542554358"><ele>1095.0</ele><time>2026-04-23T12:13:00Z</time></trkpt><trkpt lat="42.06977156816741" lon="13.704961049351711"><ele>1103.0</ele><time>2026-04-23T12:13:01Z</time></trkpt><trkpt lat="42.06986616225106" lon="13.704841354652773"><ele>1094.5</ele><time>2026-04-23T12:13:02Z</time></trkpt><trkpt lat="42.06995769278286" lon="13.70472823715867"><ele>1086.0</ele><time>2026-04-23T12:13:03Z</time></trkpt><trkpt lat="42.07004786838936" lon="13.704619811381447"><ele>1077.5</ele><time>2026-04-23T12:13:04Z</time></trkpt><trkpt lat="42.07012952598481" lon="13.704524170376013"><ele>1069.0</ele><time>2026-04-23T12:13:05Z</time></trkpt><trkpt lat="42.07021117246327" lon="13.704451827205222"><ele>1069.0</ele><time>2026-04-23T12:13:06Z</time></trkpt><trkpt lat="42.070313942251325" lon="13.70441738763479"><ele>1069.0</ele><time>2026-04-23T12:13:07Z</time></trkpt><trkpt lat="42.0704149257636" lon="13.704390131783379"><ele>1069.0</ele><time>2026-04-23T12:13:08Z</time></trkpt><trkpt lat="42.07051342643402" lon="13.704381715025656"><ele>1069.0</ele><time>2026-04-23T12:13:09Z</time></trkpt><trkpt lat="42.07061351296869" lon="13.704387160387073"><ele>1069.0</ele><time>2026-04-23T12:13:10Z</time></trkpt><trkpt lat="42.070712989134286" lon="13.70437662471711"><ele>1069.8333333333333</ele><time>2026-04-23T12:13:11Z</time></trkpt><trkpt lat="42.07079629927457" lon="13.704394696139888"><ele>1070.6666666666665</ele><time>2026-04-23T12:13:12Z</time></trkpt><trkpt lat="42.07086116524128" lon="13.70442165415989"><ele>1071.5</ele><time>2026-04-23T12:13:13Z</time></trkpt><trkpt lat="42.07091899931625" lon="13.704461579196602"><ele>1072.3333333333333</ele><time>2026-04-23T12:13:14Z</time></trkpt><trkpt lat="42.070999358395404" lon="13.704481193806133"><ele>1073.1666666666667</ele><time>2026-04-23T12:13:16Z</time></trkpt><trkpt lat="42.07109422574284" lon="13.704474846645688"><ele>1074.0</ele><time>2026-04-23T12:24:56.999Z</time></trkpt><trkpt lat="42.071158970478365" lon="13.70444155586297"><ele>1074.0</ele><time>2026-04-23T12:24:57.999Z</time></trkpt><trkpt lat="42.071247153853236" lon="13.704436765780914"><ele>1074.0</ele><time>2026-04-23T12:24:59Z</time></trkpt><trkpt lat="42.07135168117948" lon="13.704434624867451"><ele>1074.0</ele><time>2026-04-23T12:25:00Z</time></trkpt><trkpt lat="42.071465349525205" lon="13.704426280383345"><ele>1074.0</ele><time>2026-04-23T12:25:01Z</time></trkpt><trkpt lat="42.07158593037753" lon="13.704391038254506"><ele>1074.0</ele><time>2026-04-23T12:25:02Z</time></trkpt><trkpt lat="42.071708009916634" lon="13.704311229102725"><ele>1071.5</ele><time>2026-04-23T12:25:03Z</time></trkpt><trkpt lat="42.071823564719075" lon="13.704200967395883"><ele>1069.0</ele><time>2026-04-23T12:25:04Z</time></trkpt><trkpt lat="42.07193736567613" lon="13.704073922567272"><ele>1066.5</ele><time>2026-04-23T12:25:05Z</time></trkpt><trkpt lat="42.072049457520194" lon="13.703947092010912"><ele>1064.0</ele><time>2026-04-23T12:25:06Z</time></trkpt><trkpt lat="42.07214624057571" lon="13.703825915690627"><ele>1064.0</ele><time>2026-04-23T12:25:07Z</time></trkpt><trkpt lat="42.072235118968436" lon="13.70370469426081"><ele>1064.0</ele><time>2026-04-23T12:25:08Z</time></trkpt><trkpt lat="42.07231782525005" lon="13.703595453563677"><ele>1064.0</ele><time>2026-04-23T12:25:09Z</time></trkpt><trkpt lat="42.072396779179364" lon="13.7035149001856"><ele>1064.0</ele><time>2026-04-23T12:25:10Z</time></trkpt><trkpt lat="42.0724689121242" lon="13.703455977008218"><ele>1064.0</ele><time>2026-04-23T12:25:11Z</time></trkpt><trkpt lat="42.0725168591293" lon="13.70336661441816"><ele>1064.4</ele><time>2026-04-23T12:25:12Z</time></trkpt><trkpt lat="42.07263621969281" lon="13.70338222958887"><ele>1064.8000000000002</ele><time>2026-04-23T12:25:14Z</time></trkpt><trkpt lat="42.072681153930425" lon="13.703458373461679"><ele>1065.1999999999998</ele><time>2026-04-23T12:25:15Z</time></trkpt><trkpt lat="42.07269461429412" lon="13.703580614966627"><ele>1065.6</ele><time>2026-04-23T12:25:16Z</time></trkpt><trkpt lat="42.07262315495548" lon="13.703690776636797"><ele>1066.0</ele><time>2026-04-23T12:25:17Z</time></trkpt><trkpt lat="42.07254643791847" lon="13.70382866086689"><ele>1065.3333333333333</ele><time>2026-04-23T12:25:18Z</time></trkpt><trkpt lat="42.072454388398185" lon="13.704001207190952"><ele>1064.6666666666667</ele><time>2026-04-23T12:25:19Z</time></trkpt><trkpt lat="42.072346200729555" lon="13.704202567342305"><ele>1064.0</ele><time>2026-04-23T12:25:20Z</time></trkpt><trkpt lat="42.072217147343956" lon="13.704393590492467"><ele>1055.0</ele><time>2026-04-23T12:25:21Z</time></trkpt><trkpt lat="42.07203792967089" lon="13.704570813236709"><ele>1046.0</ele><time>2026-04-23T12:25:22Z</time></trkpt><trkpt lat="42.07182983306588" lon="13.704768240257701"><ele>1046.0</ele><time>2026-04-23T12:25:23Z</time></trkpt><trkpt lat="42.07161437549836" lon="13.7049729186669"><ele>1046.0</ele><time>2026-04-23T12:25:24Z</time></trkpt><trkpt lat="42.07146307724886" lon="13.705141435162961"><ele>1044.3333333333335</ele><time>2026-04-23T12:25:25Z</time></trkpt><trkpt lat="42.07132557555643" lon="13.705274689238589"><ele>1042.6666666666667</ele><time>2026-04-23T12:25:26Z</time></trkpt><trkpt lat="42.07122738120985" lon="13.705410656461082"><ele>1041.0</ele><time>2026-04-23T12:25:27Z</time></trkpt><trkpt lat="42.071140510774576" lon="13.705564548357204"><ele>1041.0</ele><time>2026-04-23T12:25:28Z</time></trkpt><trkpt lat="42.07106283374852" lon="13.705707304569415"><ele>1041.0</ele><time>2026-04-23T12:25:29Z</time></trkpt><trkpt lat="42.07096469449773" lon="13.705826774301933"><ele>1041.0</ele><time>2026-04-23T12:25:30Z</time></trkpt><trkpt lat="42.07082828614616" lon="13.7058570463049"><ele>1041.0</ele><time>2026-04-23T12:25:31Z</time></trkpt><trkpt lat="42.07067702246892" lon="13.705833410502517"><ele>1042.5</ele><time>2026-04-23T12:25:32Z</time></trkpt><trkpt lat="42.07049668086396" lon="13.705825886977903"><ele>1044.0</ele><time>2026-04-23T12:25:33Z</time></trkpt><trkpt lat="42.07034994490933" lon="13.705822722044317"><ele>1045.5</ele><time>2026-04-23T12:25:34Z</time></trkpt><trkpt lat="42.07023378970986" lon="13.705841632209053"><ele>1047.0</ele><time>2026-04-23T12:25:35Z</time></trkpt><trkpt lat="42.07014070228533" lon="13.705864051973332"><ele>1047.0</ele><time>2026-04-23T12:25:36Z</time></trkpt><trkpt lat="42.07004903422006" lon="13.70594327105019"><ele>1047.0</ele><time>2026-04-23T12:25:37Z</time></trkpt><trkpt lat="42.07003354260599" lon="13.706066128912573"><ele>1047.0</ele><time>2026-04-23T12:25:38Z</time></trkpt><trkpt lat="42.0700616851561" lon="13.706202963383777"><ele>1047.0</ele><time>2026-04-23T12:25:39Z</time></trkpt><trkpt lat="42.070137507389184" lon="13.706338323743724"><ele>1047.0</ele><time>2026-04-23T12:25:40Z</time></trkpt><trkpt lat="42.070257093895755" lon="13.706404968763952"><ele>1040.6666666666667</ele><time>2026-04-23T12:25:41Z</time></trkpt><trkpt lat="42.07040112843253" lon="13.706415250742902"><ele>1034.3333333333335</ele><time>2026-04-23T12:25:42Z</time></trkpt><trkpt lat="42.07056926096619" lon="13.70639140225355"><ele>1028.0</ele><time>2026-04-23T12:25:43Z</time></trkpt><trkpt lat="42.070733766452264" lon="13.706380751579328"><ele>1026.3333333333335</ele><time>2026-04-23T12:25:44Z</time></trkpt><trkpt lat="42.07089672901203" lon="13.706352666943204"><ele>1024.6666666666667</ele><time>2026-04-23T12:25:45Z</time></trkpt><trkpt lat="42.071059818654945" lon="13.70628446441679"><ele>1023.0</ele><time>2026-04-23T12:25:46Z</time></trkpt><trkpt lat="42.07120422797255" lon="13.70618112146859"><ele>1029.0</ele><time>2026-04-23T12:25:47Z</time></trkpt><trkpt lat="42.07134656775918" lon="13.706017092154049"><ele>1035.0</ele><time>2026-04-23T12:25:48Z</time></trkpt><trkpt lat="42.07145841113047" lon="13.705798730628743"><ele>1041.0</ele><time>2026-04-23T12:25:49Z</time></trkpt><trkpt lat="42.07155413989153" lon="13.705580107969203"><ele>1035.6666666666667</ele><time>2026-04-23T12:25:50Z</time></trkpt><trkpt lat="42.07169602185692" lon="13.705453360868823"><ele>1030.3333333333335</ele><time>2026-04-23T12:25:51Z</time></trkpt><trkpt lat="42.07184286576973" lon="13.705394569821191"><ele>1025.0</ele><time>2026-04-23T12:25:52Z</time></trkpt><trkpt lat="42.072023753745555" lon="13.70536674359729"><ele>1025.0</ele><time>2026-04-23T12:25:53Z</time></trkpt><trkpt lat="42.072232801587084" lon="13.705348304938843"><ele>1025.0</ele><time>2026-04-23T12:25:53.999Z</time></trkpt><trkpt lat="42.07244506599732" lon="13.70531149310495"><ele>1025.0</ele><time>2026-04-23T12:25:54.999Z</time></trkpt><trkpt lat="42.07264263648324" lon="13.70529968838937"><ele>1028.0</ele><time>2026-04-23T12:25:55.999Z</time></trkpt><trkpt lat="42.07282336438203" lon="13.705277370358933"><ele>1031.0</ele><time>2026-04-23T12:25:56.999Z</time></trkpt><trkpt lat="42.07299696950733" lon="13.705281131525666"><ele>1034.0</ele><time>2026-04-23T12:25:57.999Z</time></trkpt><trkpt lat="42.0731459244621" lon="13.70524231624484"><ele>1033.0</ele><time>2026-04-23T12:25:58.999Z</time></trkpt><trkpt lat="42.07327433826104" lon="13.705232170543386"><ele>1032.0</ele><time>2026-04-23T12:25:59.999Z</time></trkpt><trkpt lat="42.073392043356876" lon="13.705213498665664"><ele>1031.0</ele><time>2026-04-23T12:26:00.999Z</time></trkpt><trkpt lat="42.073499752259515" lon="13.705229950114864"><ele>1030.0</ele><time>2026-04-23T12:26:01.999Z</time></trkpt><trkpt lat="42.07359684132173" lon="13.705268321787598"><ele>1024.6666666666665</ele><time>2026-04-23T12:26:02.999Z</time></trkpt><trkpt lat="42.07368231471766" lon="13.705393834895723"><ele>1019.3333333333333</ele><time>2026-04-23T12:26:03.999Z</time></trkpt><trkpt lat="42.07379302715926" lon="13.705556820461467"><ele>1014.0</ele><time>2026-04-23T12:26:04.999Z</time></trkpt><trkpt lat="42.07393784801724" lon="13.705728322712153"><ele>1014.0</ele><time>2026-04-23T12:26:05.999Z</time></trkpt><trkpt lat="42.07407470426338" lon="13.705939663409648"><ele>1014.0</ele><time>2026-04-23T12:26:06.999Z</time></trkpt><trkpt lat="42.07422115794955" lon="13.706150228502107"><ele>1014.0</ele><time>2026-04-23T12:26:07.999Z</time></trkpt><trkpt lat="42.074354070581194" lon="13.706343135957312"><ele>1010.3333333333333</ele><time>2026-04-23T12:26:08.999Z</time></trkpt><trkpt lat="42.07448738963606" lon="13.70652099974613"><ele>1006.6666666666666</ele><time>2026-04-23T12:26:09.999Z</time></trkpt><trkpt lat="42.07459735216643" lon="13.706664370817025"><ele>1003.0</ele><time>2026-04-23T12:26:10.999Z</time></trkpt><trkpt lat="42.07469414133822" lon="13.70680094084994"><ele>1000.6666666666666</ele><time>2026-04-23T12:26:11.999Z</time></trkpt><trkpt lat="42.07484625301507" lon="13.706948619408962"><ele>998.3333333333333</ele><time>2026-04-23T12:26:12.999Z</time></trkpt><trkpt lat="42.075006669850694" lon="13.707115406270223"><ele>996.0</ele><time>2026-04-23T12:26:13.999Z</time></trkpt><trkpt lat="42.075167053309066" lon="13.707248714286056"><ele>996.0</ele><time>2026-04-23T12:26:14.999Z</time></trkpt><trkpt lat="42.075324706950774" lon="13.707379928189797"><ele>996.0</ele><time>2026-04-23T12:26:15.999Z</time></trkpt><trkpt lat="42.0754687208084" lon="13.707501392533683"><ele>996.0</ele><time>2026-04-23T12:26:16.999Z</time></trkpt><trkpt lat="42.075642553789706" lon="13.707603762718062"><ele>1002.5</ele><time>2026-04-23T12:26:17.999Z</time></trkpt><trkpt lat="42.07586103844565" lon="13.707671659537647"><ele>1009.0</ele><time>2026-04-23T12:26:18.999Z</time></trkpt><trkpt lat="42.07611095914754" lon="13.707735578424874"><ele>994.5</ele><time>2026-04-23T12:26:19.999Z</time></trkpt><trkpt lat="42.0763824013276" lon="13.707807466053554"><ele>980.0</ele><time>2026-04-23T12:26:20.999Z</time></trkpt><trkpt lat="42.07662528756592" lon="13.707879415757594"><ele>980.0</ele><time>2026-04-23T12:26:21.999Z</time></trkpt><trkpt lat="42.07683451490692" lon="13.707947732563637"><ele>980.0</ele><time>2026-04-23T12:26:22.999Z</time></trkpt><trkpt lat="42.07700894297979" lon="13.708002621982523"><ele>980.0</ele><time>2026-04-23T12:26:23.999Z</time></trkpt><trkpt lat="42.07714542091414" lon="13.708040193905626"><ele>980.0</ele><time>2026-04-23T12:26:24.999Z</time></trkpt><trkpt lat="42.07725106484986" lon="13.708052187476323"><ele>980.0</ele><time>2026-04-23T12:26:25.999Z</time></trkpt><trkpt lat="42.077353116247444" lon="13.708031188585489"><ele>980.0</ele><time>2026-04-23T12:26:26.999Z</time></trkpt><trkpt lat="42.077450404434096" lon="13.707951883481151"><ele>980.0</ele><time>2026-04-23T12:26:27.999Z</time></trkpt><trkpt lat="42.07754130878541" lon="13.707802751114183"><ele>987.0</ele><time>2026-04-23T12:26:28.999Z</time></trkpt><trkpt lat="42.07762749096383" lon="13.707624402967976"><ele>994.0</ele><time>2026-04-23T12:26:29.999Z</time></trkpt><trkpt lat="42.0777263926299" lon="13.707446760868256"><ele>1001.0</ele><time>2026-04-23T12:26:30.999Z</time></trkpt><trkpt lat="42.077826822327005" lon="13.707266671052377"><ele>1001.0</ele><time>2026-04-23T12:26:31.999Z</time></trkpt><trkpt lat="42.077916750413415" lon="13.707106248763884"><ele>1001.0</ele><time>2026-04-23T12:26:32.999Z</time></trkpt><trkpt lat="42.07799488836316" lon="13.706976325067615"><ele>1001.0</ele><time>2026-04-23T12:26:33.999Z</time></trkpt><trkpt lat="42.07806610645366" lon="13.706857006973873"><ele>1001.0</ele><time>2026-04-23T12:26:34.999Z</time></trkpt><trkpt lat="42.07813932214818" lon="13.706794186293491"><ele>1002.1999999999999</ele><time>2026-04-23T12:26:35.999Z</time></trkpt><trkpt lat="42.07826503716227" lon="13.706791211790689"><ele>1003.3999999999999</ele><time>2026-04-23T12:26:37.999Z</time></trkpt><trkpt lat="42.07833393354752" lon="13.706872051116141"><ele>1004.6</ele><time>2026-04-23T12:26:38.999Z</time></trkpt><trkpt lat="42.0783661351432" lon="13.706989925117117"><ele>1005.8</ele><time>2026-04-23T12:26:39.999Z</time></trkpt><trkpt lat="42.078379143369744" lon="13.707121951512931"><ele>1007.0</ele><time>2026-04-23T12:26:40.999Z</time></trkpt><trkpt lat="42.07842046994372" lon="13.70729565850039"><ele>1001.0</ele><time>2026-04-23T12:26:41.999Z</time></trkpt><trkpt lat="42.07844209305746" lon="13.707505103903404"><ele>995.0</ele><time>2026-04-23T12:26:42.999Z</time></trkpt><trkpt lat="42.07848511663704" lon="13.70775466225041"><ele>989.0</ele><time>2026-04-23T12:26:43.999Z</time></trkpt><trkpt lat="42.078543084814164" lon="13.708022738643335"><ele>984.3333333333334</ele><time>2026-04-23T12:26:44.999Z</time></trkpt><trkpt lat="42.07859715534547" lon="13.708283422345264"><ele>979.6666666666667</ele><time>2026-04-23T12:26:45.999Z</time></trkpt><trkpt lat="42.07865937742692" lon="13.70853596096651"><ele>975.0</ele><time>2026-04-23T12:26:46.999Z</time></trkpt><trkpt lat="42.07872515891183" lon="13.708743305099082"><ele>969.3333333333333</ele><time>2026-04-23T12:26:47.999Z</time></trkpt><trkpt lat="42.078799804557164" lon="13.708957497802992"><ele>963.6666666666666</ele><time>2026-04-23T12:26:48.999Z</time></trkpt><trkpt lat="42.078873421938184" lon="13.709128202016561"><ele>958.0</ele><time>2026-04-23T12:26:49.999Z</time></trkpt><trkpt lat="42.078948354696955" lon="13.709290733965537"><ele>959.0</ele><time>2026-04-23T12:26:50.999Z</time></trkpt><trkpt lat="42.07903391974049" lon="13.70941481281923"><ele>960.0</ele><time>2026-04-23T12:26:51.999Z</time></trkpt><trkpt lat="42.079136446462265" lon="13.709501999863747"><ele>961.0</ele><time>2026-04-23T12:26:52.999Z</time></trkpt><trkpt lat="42.079265603182165" lon="13.709560503213735"><ele>962.0</ele><time>2026-04-23T12:26:53.999Z</time></trkpt><trkpt lat="42.07940141896859" lon="13.709565358334387"><ele>962.0</ele><time>2026-04-23T12:26:54.999Z</time></trkpt><trkpt lat="42.079559572990426" lon="13.709512679085524"><ele>962.0</ele><time>2026-04-23T12:26:55.999Z</time></trkpt><trkpt lat="42.07973455228015" lon="13.709403140983506"><ele>962.0</ele><time>2026-04-23T12:26:56.999Z</time></trkpt><trkpt lat="42.079924456570126" lon="13.709272905723731"><ele>969.5</ele><time>2026-04-23T12:26:57.999Z</time></trkpt><trkpt lat="42.08013851396958" lon="13.70914416798996"><ele>977.0</ele><time>2026-04-23T12:26:58.999Z</time></trkpt><trkpt lat="42.08037761919689" lon="13.709026273930796"><ele>977.0</ele><time>2026-04-23T12:26:59.999Z</time></trkpt><trkpt lat="42.08061192450451" lon="13.708887710673137"><ele>977.0</ele><time>2026-04-23T12:27:00.999Z</time></trkpt><trkpt lat="42.08083330022995" lon="13.708756162013213"><ele>981.3333333333334</ele><time>2026-04-23T12:27:01.999Z</time></trkpt><trkpt lat="42.081059857997126" lon="13.708619931646798"><ele>985.6666666666667</ele><time>2026-04-23T12:27:02.999Z</time></trkpt><trkpt lat="42.081219337621164" lon="13.708498458597928"><ele>990.0</ele><time>2026-04-23T12:27:03.999Z</time></trkpt><trkpt lat="42.0813739424369" lon="13.708401312340742"><ele>990.0</ele><time>2026-04-23T12:27:05Z</time></trkpt><trkpt lat="42.081528774566124" lon="13.708282654274106"><ele>990.0</ele><time>2026-04-23T12:27:06Z</time></trkpt><trkpt lat="42.08167764627276" lon="13.708099751586456"><ele>990.0</ele><time>2026-04-23T12:27:07Z</time></trkpt><trkpt lat="42.08182342649207" lon="13.707889981818214"><ele>988.0</ele><time>2026-04-23T12:27:08Z</time></trkpt><trkpt lat="42.08197492796681" lon="13.707665145765269"><ele>986.0</ele><time>2026-04-23T12:27:09Z</time></trkpt><trkpt lat="42.08212398462473" lon="13.7074361364133"><ele>986.0</ele><time>2026-04-23T12:27:10Z</time></trkpt><trkpt lat="42.08225722120086" lon="13.707226046015393"><ele>986.0</ele><time>2026-04-23T12:27:11Z</time></trkpt><trkpt lat="42.08237651206165" lon="13.707023930609143"><ele>986.0</ele><time>2026-04-23T12:27:12Z</time></trkpt><trkpt lat="42.08248331461438" lon="13.70685016673411"><ele>981.75</ele><time>2026-04-23T12:27:13Z</time></trkpt><trkpt lat="42.082566019717945" lon="13.706689178130624"><ele>977.5</ele><time>2026-04-23T12:27:14Z</time></trkpt><trkpt lat="42.082636821259456" lon="13.706554369924914"><ele>973.25</ele><time>2026-04-23T12:27:15Z</time></trkpt><trkpt lat="42.08270845246589" lon="13.706449638486548"><ele>969.0</ele><time>2026-04-23T12:27:16Z</time></trkpt><trkpt lat="42.082774084508046" lon="13.706368153799867"><ele>969.0</ele><time>2026-04-23T12:27:17Z</time></trkpt><trkpt lat="42.08284022768703" lon="13.706326884729721"><ele>969.0</ele><time>2026-04-23T12:27:18Z</time></trkpt><trkpt lat="42.08290356377503" lon="13.706329001746761"><ele>969.0</ele><time>2026-04-23T12:27:19Z</time></trkpt><trkpt lat="42.08296551244231" lon="13.706403266999198"><ele>969.0</ele><time>2026-04-23T12:27:20Z</time></trkpt><trkpt lat="42.08299575169878" lon="13.70653581883386"><ele>969.0</ele><time>2026-04-23T12:27:21Z</time></trkpt><trkpt lat="42.08297932404043" lon="13.706693574976157"><ele>969.0</ele><time>2026-04-23T12:27:22Z</time></trkpt><trkpt lat="42.082916528616224" lon="13.706894608206145"><ele>962.6666666666667</ele><time>2026-04-23T12:27:23Z</time></trkpt><trkpt lat="42.082851087101425" lon="13.707123408979811"><ele>956.3333333333334</ele><time>2026-04-23T12:27:24Z</time></trkpt><trkpt lat="42.08279452674839" lon="13.707388608720334"><ele>950.0</ele><time>2026-04-23T12:27:25Z</time></trkpt><trkpt lat="42.082727879401276" lon="13.707690197656314"><ele>946.0</ele><time>2026-04-23T12:27:26Z</time></trkpt><trkpt lat="42.082642303021274" lon="13.708007695924373"><ele>942.0</ele><time>2026-04-23T12:27:27Z</time></trkpt><trkpt lat="42.082546832512335" lon="13.708330338891525"><ele>942.0</ele><time>2026-04-23T12:27:28Z</time></trkpt><trkpt lat="42.08245765769898" lon="13.708649854372329"><ele>942.0</ele><time>2026-04-23T12:27:29Z</time></trkpt><trkpt lat="42.08238110883836" lon="13.708940424236749"><ele>938.3333333333333</ele><time>2026-04-23T12:27:30Z</time></trkpt><trkpt lat="42.082314603221526" lon="13.709171236723105"><ele>934.6666666666666</ele><time>2026-04-23T12:27:31Z</time></trkpt><trkpt lat="42.082245629682994" lon="13.70939819690779"><ele>931.0</ele><time>2026-04-23T12:27:32Z</time></trkpt><trkpt lat="42.08216276599648" lon="13.709604079914833"><ele>928.3333333333333</ele><time>2026-04-23T12:27:33Z</time></trkpt><trkpt lat="42.08206700963775" lon="13.70979202112869"><ele>925.6666666666667</ele><time>2026-04-23T12:27:34Z</time></trkpt><trkpt lat="42.08197225222818" lon="13.709954507913668"><ele>923.0</ele><time>2026-04-23T12:27:35Z</time></trkpt><trkpt lat="42.08189687336131" lon="13.710105040496465"><ele>922.5</ele><time>2026-04-23T12:27:36Z</time></trkpt><trkpt lat="42.08184293580216" lon="13.710257271892816"><ele>922.0</ele><time>2026-04-23T12:27:37Z</time></trkpt><trkpt lat="42.08182307503858" lon="13.710429841819039"><ele>921.5</ele><time>2026-04-23T12:27:38Z</time></trkpt><trkpt lat="42.08183817229283" lon="13.710631286607514"><ele>921.0</ele><time>2026-04-23T12:27:39Z</time></trkpt><trkpt lat="42.08186497000157" lon="13.710827992819535"><ele>921.0</ele><time>2026-04-23T12:27:40Z</time></trkpt><trkpt lat="42.081856339460685" lon="13.711008264023606"><ele>921.0</ele><time>2026-04-23T12:27:41Z</time></trkpt><trkpt lat="42.08176940412636" lon="13.711153878677187"><ele>921.0</ele><time>2026-04-23T12:27:42Z</time></trkpt><trkpt lat="42.08168445154539" lon="13.711331912272612"><ele>921.0</ele><time>2026-04-23T12:27:43Z</time></trkpt><trkpt lat="42.081603126993954" lon="13.711508748856776"><ele>919.5999999999999</ele><time>2026-04-23T12:27:44Z</time></trkpt><trkpt lat="42.0815369613987" lon="13.71165551828586"><ele>918.1999999999999</ele><time>2026-04-23T12:27:45Z</time></trkpt><trkpt lat="42.081501762315966" lon="13.711787057922955"><ele>916.8000000000001</ele><time>2026-04-23T12:27:46Z</time></trkpt><trkpt lat="42.081509685221874" lon="13.711915061222133"><ele>915.4000000000001</ele><time>2026-04-23T12:27:47Z</time></trkpt><trkpt lat="42.08157404685043" lon="13.712027563496504"><ele>914.0</ele><time>2026-04-23T12:27:48Z</time></trkpt><trkpt lat="42.081676516639696" lon="13.712100428739205"><ele>914.0</ele><time>2026-04-23T12:27:49Z</time></trkpt><trkpt lat="42.08181151360973" lon="13.712091669145334"><ele>914.0</ele><time>2026-04-23T12:27:50Z</time></trkpt><trkpt lat="42.081957560191334" lon="13.712020240719145"><ele>914.0</ele><time>2026-04-23T12:27:51Z</time></trkpt><trkpt lat="42.08212404243363" lon="13.711972793670956"><ele>914.0</ele><time>2026-04-23T12:27:52Z</time></trkpt><trkpt lat="42.08232052043258" lon="13.711981110354943"><ele>914.0</ele><time>2026-04-23T12:27:53Z</time></trkpt><trkpt lat="42.08252227576817" lon="13.712032539950325"><ele>914.0</ele><time>2026-04-23T12:27:54Z</time></trkpt><trkpt lat="42.082698898203574" lon="13.712094311056829"><ele>915.5</ele><time>2026-04-23T12:27:55Z</time></trkpt><trkpt lat="42.08285207023676" lon="13.71216469180091"><ele>917.0</ele><time>2026-04-23T12:27:55.999Z</time></trkpt><trkpt lat="42.08297428405127" lon="13.712240129075473"><ele>918.5</ele><time>2026-04-23T12:27:56.999Z</time></trkpt><trkpt lat="42.083064521900106" lon="13.712320849615333"><ele>920.0</ele><time>2026-04-23T12:27:57.999Z</time></trkpt><trkpt lat="42.08312697918602" lon="13.712420794779545"><ele>920.0</ele><time>2026-04-23T12:27:58.999Z</time></trkpt><trkpt lat="42.0831684539553" lon="13.712574978998786"><ele>920.0</ele><time>2026-04-23T12:27:59.999Z</time></trkpt><trkpt lat="42.083134211032174" lon="13.712769760173533"><ele>920.0</ele><time>2026-04-23T12:28:00.999Z</time></trkpt><trkpt lat="42.083084626968066" lon="13.712994115762411"><ele>920.0</ele><time>2026-04-23T12:28:01.999Z</time></trkpt><trkpt lat="42.08302883704139" lon="13.713228821750345"><ele>918.25</ele><time>2026-04-23T12:28:02.999Z</time></trkpt><trkpt lat="42.08296389267251" lon="13.71341767048145"><ele>916.5</ele><time>2026-04-23T12:28:03.999Z</time></trkpt><trkpt lat="42.082924372130464" lon="13.71358772527171"><ele>914.75</ele><time>2026-04-23T12:28:04.999Z</time></trkpt><trkpt lat="42.08290780636365" lon="13.713742409503896"><ele>913.0</ele><time>2026-04-23T12:28:05.999Z</time></trkpt><trkpt lat="42.08292428045984" lon="13.713882418749405"><ele>910.5</ele><time>2026-04-23T12:28:06.999Z</time></trkpt><trkpt lat="42.08298048864839" lon="13.713996613432032"><ele>908.0</ele><time>2026-04-23T12:28:07.999Z</time></trkpt><trkpt lat="42.08308368201183" lon="13.714062413962354"><ele>905.5</ele><time>2026-04-23T12:28:08.999Z</time></trkpt><trkpt lat="42.08321522422647" lon="13.714058150991228"><ele>903.0</ele><time>2026-04-23T12:28:09.999Z</time></trkpt><trkpt lat="42.08336792849535" lon="13.713992086227181"><ele>903.0</ele><time>2026-04-23T12:28:10.999Z</time></trkpt><trkpt lat="42.08354455758683" lon="13.713905895943043"><ele>903.0</ele><time>2026-04-23T12:28:11.999Z</time></trkpt><trkpt lat="42.08373351231045" lon="13.713823229000925"><ele>903.0</ele><time>2026-04-23T12:28:12.999Z</time></trkpt><trkpt lat="42.083906386696526" lon="13.713757187918423"><ele>903.0</ele><time>2026-04-23T12:28:13.999Z</time></trkpt><trkpt lat="42.08405569373695" lon="13.71370012321351"><ele>903.0</ele><time>2026-04-23T12:28:14.999Z</time></trkpt><trkpt lat="42.08417819523067" lon="13.71365484527279"><ele>903.0</ele><time>2026-04-23T12:28:15.999Z</time></trkpt><trkpt lat="42.084291180630956" lon="13.713634672692846"><ele>903.0</ele><time>2026-04-23T12:28:16.999Z</time></trkpt><trkpt lat="42.08439757627949" lon="13.71365222882235"><ele>902.5</ele><time>2026-04-23T12:28:17.999Z</time></trkpt><trkpt lat="42.084492748203566" lon="13.713727532977538"><ele>902.0</ele><time>2026-04-23T12:28:18.999Z</time></trkpt><trkpt lat="42.08456446245467" lon="13.713861922685664"><ele>901.5</ele><time>2026-04-23T12:28:19.999Z</time></trkpt><trkpt lat="42.084580834451565" lon="13.714030398208406"><ele>901.0</ele><time>2026-04-23T12:28:20.999Z</time></trkpt><trkpt lat="42.08460188205555" lon="13.71421462376705"><ele>901.0</ele><time>2026-04-23T12:28:21.999Z</time></trkpt><trkpt lat="42.08461170918411" lon="13.714378199112838"><ele>901.0</ele><time>2026-04-23T12:28:22.999Z</time></trkpt><trkpt lat="42.08466246420952" lon="13.714484752530765"><ele>901.0</ele><time>2026-04-23T12:28:23.999Z</time></trkpt><trkpt lat="42.08475144230327" lon="13.714554571635444"><ele>901.0</ele><time>2026-04-23T12:28:24.999Z</time></trkpt><trkpt lat="42.08488763074453" lon="13.714570210507278"><ele>897.3333333333333</ele><time>2026-04-23T12:28:25.999Z</time></trkpt><trkpt lat="42.08505588852797" lon="13.714551286533133"><ele>893.6666666666667</ele><time>2026-04-23T12:28:26.999Z</time></trkpt><trkpt lat="42.08523079173354" lon="13.714545074052236"><ele>890.0</ele><time>2026-04-23T12:28:27.999Z</time></trkpt><trkpt lat="42.08540012291249" lon="13.714553929673869"><ele>890.0</ele><time>2026-04-23T12:28:28.999Z</time></trkpt><trkpt lat="42.08554677546965" lon="13.714554698697425"><ele>890.0</ele><time>2026-04-23T12:28:29.999Z</time></trkpt><trkpt lat="42.085660673789654" lon="13.714555918339437"><ele>890.0</ele><time>2026-04-23T12:28:30.999Z</time></trkpt><trkpt lat="42.08577075548481" lon="13.714585177435824"><ele>890.0</ele><time>2026-04-23T12:28:31.999Z</time></trkpt><trkpt lat="42.085864422085606" lon="13.714676428758677"><ele>891.25</ele><time>2026-04-23T12:28:32.999Z</time></trkpt><trkpt lat="42.08592508045717" lon="13.714832795675628"><ele>892.5</ele><time>2026-04-23T12:28:33.999Z</time></trkpt><trkpt lat="42.08597285189155" lon="13.715005581303268"><ele>893.75</ele><time>2026-04-23T12:28:34.999Z</time></trkpt><trkpt lat="42.0860312911302" lon="13.715138858130153"><ele>895.0</ele><time>2026-04-23T12:28:35.999Z</time></trkpt><trkpt lat="42.086170696814825" lon="13.71524097065678"><ele>895.3333333333333</ele><time>2026-04-23T12:28:36.999Z</time></trkpt><trkpt lat="42.08634069984838" lon="13.715302801640691"><ele>895.6666666666667</ele><time>2026-04-23T12:28:37.999Z</time></trkpt><trkpt lat="42.08651821458421" lon="13.71536299032241"><ele>896.0</ele><time>2026-04-23T12:28:38.999Z</time></trkpt><trkpt lat="42.086694908881555" lon="13.715460555987933"><ele>896.0</ele><time>2026-04-23T12:28:39.999Z</time></trkpt><trkpt lat="42.08686560843699" lon="13.715613417914422"><ele>896.0</ele><time>2026-04-23T12:28:40.999Z</time></trkpt><trkpt lat="42.08703626729425" lon="13.71578663208028"><ele>896.0</ele><time>2026-04-23T12:28:41.999Z</time></trkpt><trkpt lat="42.087197717338405" lon="13.715957703735478"><ele>896.0</ele><time>2026-04-23T12:28:42.999Z</time></trkpt><trkpt lat="42.08734706214094" lon="13.71609007378704"><ele>896.0</ele><time>2026-04-23T12:28:43.999Z</time></trkpt><trkpt lat="42.08747487460141" lon="13.716212969725232"><ele>896.0</ele><time>2026-04-23T12:28:44.999Z</time></trkpt><trkpt lat="42.08759358480978" lon="13.716340221776964"><ele>896.0</ele><time>2026-04-23T12:28:45.999Z</time></trkpt><trkpt lat="42.08769768216982" lon="13.716510263250843"><ele>896.0</ele><time>2026-04-23T12:28:46.999Z</time></trkpt><trkpt lat="42.087810104586765" lon="13.716717572224361"><ele>896.0</ele><time>2026-04-23T12:28:47.999Z</time></trkpt><trkpt lat="42.0879162297869" lon="13.716939577646297"><ele>897.0</ele><time>2026-04-23T12:28:48.999Z</time></trkpt><trkpt lat="42.088035808098056" lon="13.717159944027127"><ele>898.0</ele><time>2026-04-23T12:28:49.999Z</time></trkpt><trkpt lat="42.08815684002653" lon="13.717376081920193"><ele>899.0</ele><time>2026-04-23T12:28:50.999Z</time></trkpt><trkpt lat="42.088276818321056" lon="13.71757143819109"><ele>896.6666666666667</ele><time>2026-04-23T12:28:51.999Z</time></trkpt><trkpt lat="42.0884098618968" lon="13.717738170738814"><ele>894.3333333333333</ele><time>2026-04-23T12:28:52.999Z</time></trkpt><trkpt lat="42.088572000292274" lon="13.717873541726087"><ele>892.0</ele><time>2026-04-23T12:28:53.999Z</time></trkpt><trkpt lat="42.08875795090081" lon="13.717983354906677"><ele>892.0</ele><time>2026-04-23T12:28:54.999Z</time></trkpt><trkpt lat="42.08894795849728" lon="13.718061579701736"><ele>892.0</ele><time>2026-04-23T12:28:55.999Z</time></trkpt><trkpt lat="42.08912929762731" lon="13.718125256650284"><ele>892.0</ele><time>2026-04-23T12:28:56.999Z</time></trkpt><trkpt lat="42.089300835261156" lon="13.718186779253852"><ele>888.0</ele><time>2026-04-23T12:28:57.999Z</time></trkpt><trkpt lat="42.08946109953362" lon="13.718258099038875"><ele>884.0</ele><time>2026-04-23T12:28:58.999Z</time></trkpt><trkpt lat="42.08961548697044" lon="13.718349050301807"><ele>880.0</ele><time>2026-04-23T12:28:59.999Z</time></trkpt><trkpt lat="42.089753731270065" lon="13.718469072938635"><ele>880.3333333333333</ele><time>2026-04-23T12:29:00.999Z</time></trkpt><trkpt lat="42.089883153852384" lon="13.7186256638584"><ele>880.6666666666667</ele><time>2026-04-23T12:29:01.999Z</time></trkpt><trkpt lat="42.09000541361537" lon="13.718813705597682"><ele>881.0</ele><time>2026-04-23T12:29:02.999Z</time></trkpt><trkpt lat="42.09010574759766" lon="13.718999650463777"><ele>881.0</ele><time>2026-04-23T12:29:03.999Z</time></trkpt><trkpt lat="42.09020013010964" lon="13.719171541609583"><ele>881.0</ele><time>2026-04-23T12:29:04.999Z</time></trkpt><trkpt lat="42.090292831959665" lon="13.719333574480848"><ele>881.0</ele><time>2026-04-23T12:29:05.999Z</time></trkpt><trkpt lat="42.090376131120536" lon="13.719487244030468"><ele>882.25</ele><time>2026-04-23T12:29:06.999Z</time></trkpt><trkpt lat="42.090434051998216" lon="13.719635490997295"><ele>883.5</ele><time>2026-04-23T12:29:07.999Z</time></trkpt><trkpt lat="42.0904693758277" lon="13.719816638394066"><ele>884.75</ele><time>2026-04-23T12:29:08.999Z</time></trkpt><trkpt lat="42.09047601840349" lon="13.72002196241855"><ele>886.0</ele><time>2026-04-23T12:29:09.999Z</time></trkpt><trkpt lat="42.09047451001447" lon="13.720206944395384"><ele>886.0</ele><time>2026-04-23T12:29:11Z</time></trkpt><trkpt lat="42.09049591248252" lon="13.720364445257763"><ele>886.0</ele><time>2026-04-23T12:29:12Z</time></trkpt><trkpt lat="42.09056315449555" lon="13.720496825589686"><ele>886.0</ele><time>2026-04-23T12:29:13Z</time></trkpt><trkpt lat="42.090669626974105" lon="13.720576988571366"><ele>886.0</ele><time>2026-04-23T12:29:14Z</time></trkpt><trkpt lat="42.09081895341612" lon="13.72064425633374"><ele>879.3333333333333</ele><time>2026-04-23T12:29:15Z</time></trkpt><trkpt lat="42.09099629625165" lon="13.720700962960292"><ele>872.6666666666667</ele><time>2026-04-23T12:29:16Z</time></trkpt><trkpt lat="42.0911899721562" lon="13.720762218356041"><ele>866.0</ele><time>2026-04-23T12:29:17Z</time></trkpt><trkpt lat="42.09139531316401" lon="13.720826090305987"><ele>863.3333333333334</ele><time>2026-04-23T12:29:18Z</time></trkpt><trkpt lat="42.09163020451589" lon="13.720858665393257"><ele>860.6666666666667</ele><time>2026-04-23T12:29:19Z</time></trkpt><trkpt lat="42.09176148930021" lon="13.720871308131416"><ele>858.0</ele><time>2026-04-23T12:29:20Z</time></trkpt><trkpt lat="42.0919715121378" lon="13.720831874967926"><ele>858.0</ele><time>2026-04-23T12:29:21Z</time></trkpt><trkpt lat="42.092152454954565" lon="13.720808849686906"><ele>858.0</ele><time>2026-04-23T12:29:22Z</time></trkpt><trkpt lat="42.09229724814888" lon="13.720783385153023"><ele>858.0</ele><time>2026-04-23T12:29:23Z</time></trkpt><trkpt lat="42.09241358984376" lon="13.72079146394528"><ele>858.0</ele><time>2026-04-23T12:29:24Z</time></trkpt><trkpt lat="42.09251363413696" lon="13.720852422405052"><ele>858.25</ele><time>2026-04-23T12:29:25Z</time></trkpt><trkpt lat="42.092598422756524" lon="13.720941848456338"><ele>858.5</ele><time>2026-04-23T12:29:26Z</time></trkpt><trkpt lat="42.09266940672002" lon="13.721074255490507"><ele>858.75</ele><time>2026-04-23T12:29:27Z</time></trkpt><trkpt lat="42.09270941617666" lon="13.721251749045399"><ele>859.0</ele><time>2026-04-23T12:29:28Z</time></trkpt><trkpt lat="42.09274936603312" lon="13.721473952962496"><ele>859.0</ele><time>2026-04-23T12:29:29Z</time></trkpt><trkpt lat="42.09281175675983" lon="13.721711969655473"><ele>859.0</ele><time>2026-04-23T12:29:30Z</time></trkpt><trkpt lat="42.092868117215126" lon="13.721936829969774"><ele>859.0</ele><time>2026-04-23T12:29:31Z</time></trkpt><trkpt lat="42.09295365816254" lon="13.722144140158047"><ele>859.25</ele><time>2026-04-23T12:29:32Z</time></trkpt><trkpt lat="42.09305365309151" lon="13.722322433339045"><ele>859.5</ele><time>2026-04-23T12:29:33Z</time></trkpt><trkpt lat="42.09312915327317" lon="13.722469579343954"><ele>859.75</ele><time>2026-04-23T12:29:34Z</time></trkpt><trkpt lat="42.093136907536895" lon="13.72260996722225"><ele>860.0</ele><time>2026-04-23T12:29:35Z</time></trkpt><trkpt lat="42.09311068084033" lon="13.722748844566256"><ele>860.0</ele><time>2026-04-23T12:29:36Z</time></trkpt><trkpt lat="42.0930587375761" lon="13.722927346111078"><ele>860.0</ele><time>2026-04-23T12:29:37Z</time></trkpt><trkpt lat="42.093006882218035" lon="13.723109796598324"><ele>860.0</ele><time>2026-04-23T12:29:38Z</time></trkpt><trkpt lat="42.09297694844344" lon="13.723253966356202"><ele>860.0</ele><time>2026-04-23T12:29:39Z</time></trkpt><trkpt lat="42.09295551535968" lon="13.723381558982684"><ele>860.0</ele><time>2026-04-23T12:29:40Z</time></trkpt><trkpt lat="42.092972803282365" lon="13.723491450943722"><ele>860.0</ele><time>2026-04-23T12:29:41Z</time></trkpt><trkpt lat="42.09303513602239" lon="13.723560089081369"><ele>860.0</ele><time>2026-04-23T12:29:42Z</time></trkpt><trkpt lat="42.09317657964287" lon="13.723572527125784"><ele>860.0</ele><time>2026-04-23T12:29:43Z</time></trkpt><trkpt lat="42.09329731298592" lon="13.723576228916555"><ele>860.0</ele><time>2026-04-23T12:29:44Z</time></trkpt><trkpt lat="42.093387066713795" lon="13.723609782126104"><ele>856.5</ele><time>2026-04-23T12:29:45Z</time></trkpt><trkpt lat="42.0934637888649" lon="13.723708323795956"><ele>853.0</ele><time>2026-04-23T12:29:46Z</time></trkpt><trkpt lat="42.09350096891155" lon="13.723894737673326"><ele>849.5</ele><time>2026-04-23T12:29:47Z</time></trkpt><trkpt lat="42.093580837227265" lon="13.724089057367609"><ele>846.0</ele><time>2026-04-23T12:29:48Z</time></trkpt><trkpt lat="42.09367076488704" lon="13.724287788579465"><ele>847.0</ele><time>2026-04-23T12:29:49Z</time></trkpt><trkpt lat="42.09379873569398" lon="13.72448611241447"><ele>848.0</ele><time>2026-04-23T12:29:50Z</time></trkpt><trkpt lat="42.09389855055015" lon="13.724711815378948"><ele>849.0</ele><time>2026-04-23T12:29:51Z</time></trkpt><trkpt lat="42.09396146766872" lon="13.724934673186246"><ele>849.0</ele><time>2026-04-23T12:29:52Z</time></trkpt><trkpt lat="42.094000992566855" lon="13.725113082727086"><ele>849.0</ele><time>2026-04-23T12:29:53Z</time></trkpt><trkpt lat="42.094028571499976" lon="13.72524686131364"><ele>849.0</ele><time>2026-04-23T12:29:54Z</time></trkpt><trkpt lat="42.09403509860888" lon="13.725350720861208"><ele>849.0</ele><time>2026-04-23T12:29:55Z</time></trkpt><trkpt lat="42.094002957092385" lon="13.725451130512264"><ele>849.0</ele><time>2026-04-23T12:29:56Z</time></trkpt><trkpt lat="42.093924123067836" lon="13.725550818609776"><ele>846.3333333333333</ele><time>2026-04-23T12:29:57Z</time></trkpt><trkpt lat="42.093803311475945" lon="13.725642995133555"><ele>843.6666666666666</ele><time>2026-04-23T12:29:58Z</time></trkpt><trkpt lat="42.09366637827433" lon="13.725752432009488"><ele>841.0</ele><time>2026-04-23T12:29:59Z</time></trkpt><trkpt lat="42.09354305543174" lon="13.725893280931484"><ele>836.3333333333333</ele><time>2026-04-23T12:30:00Z</time></trkpt><trkpt lat="42.09345450697226" lon="13.726065976005744"><ele>831.6666666666667</ele><time>2026-04-23T12:30:01Z</time></trkpt><trkpt lat="42.09339661242195" lon="13.72627556141132"><ele>827.0</ele><time>2026-04-23T12:30:02Z</time></trkpt><trkpt lat="42.09335984713636" lon="13.726536183458638"><ele>827.0</ele><time>2026-04-23T12:30:03Z</time></trkpt><trkpt lat="42.093314517179245" lon="13.726819815466632"><ele>827.0</ele><time>2026-04-23T12:30:04Z</time></trkpt><trkpt lat="42.09323093680494" lon="13.727101299213777"><ele>827.0</ele><time>2026-04-23T12:30:05Z</time></trkpt><trkpt lat="42.09313460980004" lon="13.727345182977789"><ele>827.0</ele><time>2026-04-23T12:30:06Z</time></trkpt><trkpt lat="42.093057849697196" lon="13.727555356047917"><ele>827.0</ele><time>2026-04-23T12:30:07Z</time></trkpt><trkpt lat="42.093000419338196" lon="13.727740811162011"><ele>827.0</ele><time>2026-04-23T12:30:08Z</time></trkpt><trkpt lat="42.09295471975383" lon="13.727894725095904"><ele>827.0</ele><time>2026-04-23T12:30:09Z</time></trkpt><trkpt lat="42.09292367473414" lon="13.728027484570394"><ele>827.0</ele><time>2026-04-23T12:30:10Z</time></trkpt><trkpt lat="42.09292756823486" lon="13.728167385773924"><ele>827.0</ele><time>2026-04-23T12:30:11Z</time></trkpt><trkpt lat="42.09297614641545" lon="13.72830086002151"><ele>827.0</ele><time>2026-04-23T12:30:11.999Z</time></trkpt><trkpt lat="42.093061952076084" lon="13.728394578920758"><ele>827.0</ele><time>2026-04-23T12:30:12.999Z</time></trkpt><trkpt lat="42.09317152547639" lon="13.728450388564474"><ele>827.0</ele><time>2026-04-23T12:30:13.999Z</time></trkpt><trkpt lat="42.09330939527556" lon="13.728431525405323"><ele>823.6666666666667</ele><time>2026-04-23T12:30:14.999Z</time></trkpt><trkpt lat="42.093458975553766" lon="13.728361561198094"><ele>820.3333333333333</ele><time>2026-04-23T12:30:15.999Z</time></trkpt><trkpt lat="42.0936228929098" lon="13.728242482331126"><ele>817.0</ele><time>2026-04-23T12:30:16.999Z</time></trkpt><trkpt lat="42.093776169890035" lon="13.728149844917752"><ele>817.0</ele><time>2026-04-23T12:30:17.999Z</time></trkpt><trkpt lat="42.09391756987632" lon="13.728133989100424"><ele>817.0</ele><time>2026-04-23T12:30:18.999Z</time></trkpt><trkpt lat="42.09406537229947" lon="13.728139730845292"><ele>817.0</ele><time>2026-04-23T12:30:19.999Z</time></trkpt><trkpt lat="42.09424628938368" lon="13.728162151245776"><ele>815.6666666666666</ele><time>2026-04-23T12:30:20.999Z</time></trkpt><trkpt lat="42.094416927237056" lon="13.72822377825501"><ele>814.3333333333333</ele><time>2026-04-23T12:30:21.999Z</time></trkpt><trkpt lat="42.09459382124859" lon="13.728277435372899"><ele>813.0</ele><time>2026-04-23T12:30:22.999Z</time></trkpt><trkpt lat="42.09477072413345" lon="13.728323558822776"><ele>810.3333333333333</ele><time>2026-04-23T12:30:23.999Z</time></trkpt><trkpt lat="42.09493274094055" lon="13.728375440316816"><ele>807.6666666666666</ele><time>2026-04-23T12:30:24.999Z</time></trkpt><trkpt lat="42.09509396429945" lon="13.728396084377652"><ele>805.0</ele><time>2026-04-23T12:30:25.999Z</time></trkpt><trkpt lat="42.095260989180744" lon="13.728359979263718"><ele>805.0</ele><time>2026-04-23T12:30:26.999Z</time></trkpt><trkpt lat="42.095421438180765" lon="13.728289000106436"><ele>805.0</ele><time>2026-04-23T12:30:27.999Z</time></trkpt><trkpt lat="42.095548998463684" lon="13.728224961458674"><ele>805.0</ele><time>2026-04-23T12:30:28.999Z</time></trkpt><trkpt lat="42.095660602174654" lon="13.728153742563531"><ele>805.0</ele><time>2026-04-23T12:30:29.999Z</time></trkpt><trkpt lat="42.095765092585566" lon="13.728022406155606"><ele>802.6666666666666</ele><time>2026-04-23T12:30:30.999Z</time></trkpt><trkpt lat="42.095847199397625" lon="13.727841005947816"><ele>800.3333333333333</ele><time>2026-04-23T12:30:31.999Z</time></trkpt><trkpt lat="42.09590500135949" lon="13.727652807188402"><ele>798.0</ele><time>2026-04-23T12:30:32.999Z</time></trkpt><trkpt lat="42.0959377214236" lon="13.727438381664525"><ele>798.0</ele><time>2026-04-23T12:30:33.999Z</time></trkpt><trkpt lat="42.09595319729737" lon="13.727226899879073"><ele>798.0</ele><time>2026-04-23T12:30:34.999Z</time></trkpt><trkpt lat="42.095940234496645" lon="13.727029021644917"><ele>798.0</ele><time>2026-04-23T12:30:35.999Z</time></trkpt><trkpt lat="42.09590342218498" lon="13.726824380549019"><ele>797.3333333333333</ele><time>2026-04-23T12:30:36.999Z</time></trkpt><trkpt lat="42.09583797687277" lon="13.726610172865099"><ele>796.6666666666666</ele><time>2026-04-23T12:30:37.999Z</time></trkpt><trkpt lat="42.09576871219209" lon="13.726386419680471"><ele>796.0</ele><time>2026-04-23T12:30:38.999Z</time></trkpt><trkpt lat="42.09569880722935" lon="13.726159592307448"><ele>794.3333333333333</ele><time>2026-04-23T12:30:39.999Z</time></trkpt><trkpt lat="42.095632758980166" lon="13.72594082569986"><ele>792.6666666666667</ele><time>2026-04-23T12:30:40.999Z</time></trkpt><trkpt lat="42.09557112057141" lon="13.725732361370527"><ele>791.0</ele><time>2026-04-23T12:30:41.999Z</time></trkpt><trkpt lat="42.09551588995181" lon="13.725534090117076"><ele>791.0</ele><time>2026-04-23T12:30:42.999Z</time></trkpt><trkpt lat="42.09546508701954" lon="13.725351903315694"><ele>791.0</ele><time>2026-04-23T12:30:43.999Z</time></trkpt><trkpt lat="42.09542527952934" lon="13.725198959600455"><ele>791.0</ele><time>2026-04-23T12:30:44.999Z</time></trkpt><trkpt lat="42.095402471247354" lon="13.725050951690802"><ele>791.0</ele><time>2026-04-23T12:30:45.999Z</time></trkpt><trkpt lat="42.09541542047591" lon="13.724886458826232"><ele>792.0</ele><time>2026-04-23T12:30:46.999Z</time></trkpt><trkpt lat="42.09548471702718" lon="13.724715138332796"><ele>793.0</ele><time>2026-04-23T12:30:47.999Z</time></trkpt><trkpt lat="42.09557380686161" lon="13.724524738492175"><ele>794.0</ele><time>2026-04-23T12:30:48.999Z</time></trkpt><trkpt lat="42.09567611071329" lon="13.72431679293246"><ele>792.0</ele><time>2026-04-23T12:30:49.999Z</time></trkpt><trkpt lat="42.09580559193254" lon="13.724110872871545"><ele>790.0</ele><time>2026-04-23T12:30:50.999Z</time></trkpt><trkpt lat="42.09592714152747" lon="13.723904285320588"><ele>788.0</ele><time>2026-04-23T12:30:51.999Z</time></trkpt><trkpt lat="42.09603508332762" lon="13.723712906051752"><ele>785.6666666666667</ele><time>2026-04-23T12:30:52.999Z</time></trkpt><trkpt lat="42.09613361870218" lon="13.72353950165529"><ele>783.3333333333333</ele><time>2026-04-23T12:30:53.999Z</time></trkpt><trkpt lat="42.096229942407184" lon="13.72339618455261"><ele>781.0</ele><time>2026-04-23T12:30:54.999Z</time></trkpt><trkpt lat="42.09633878541411" lon="13.723269022963123"><ele>781.0</ele><time>2026-04-23T12:30:55.999Z</time></trkpt><trkpt lat="42.09648338267769" lon="13.723140469570197"><ele>781.0</ele><time>2026-04-23T12:30:56.999Z</time></trkpt><trkpt lat="42.09665380539868" lon="13.723016679106419"><ele>781.0</ele><time>2026-04-23T12:30:57.999Z</time></trkpt><trkpt lat="42.096835003921036" lon="13.722878761580933"><ele>777.0</ele><time>2026-04-23T12:30:58.999Z</time></trkpt><trkpt lat="42.097020714398035" lon="13.722725285674354"><ele>773.0</ele><time>2026-04-23T12:30:59.999Z</time></trkpt><trkpt lat="42.09719336519865" lon="13.722581103151063"><ele>769.0</ele><time>2026-04-23T12:31:00.999Z</time></trkpt><trkpt lat="42.097354960164594" lon="13.722451159864365"><ele>769.5</ele><time>2026-04-23T12:31:01.999Z</time></trkpt><trkpt lat="42.097504604204374" lon="13.722331176784245"><ele>770.0</ele><time>2026-04-23T12:31:02.999Z</time></trkpt><trkpt lat="42.09762843004521" lon="13.722231642409803"><ele>770.5</ele><time>2026-04-23T12:31:03.999Z</time></trkpt><trkpt lat="42.09772883720776" lon="13.722156873684662"><ele>771.0</ele><time>2026-04-23T12:31:04.999Z</time></trkpt><trkpt lat="42.09783516818472" lon="13.722105072847608"><ele>771.0</ele><time>2026-04-23T12:31:05.999Z</time></trkpt><trkpt lat="42.09795440643062" lon="13.722120118820733"><ele>771.0</ele><time>2026-04-23T12:31:06.999Z</time></trkpt><trkpt lat="42.09808782679948" lon="13.722155570259373"><ele>771.0</ele><time>2026-04-23T12:31:07.999Z</time></trkpt><trkpt lat="42.09821763331739" lon="13.7222874619783"><ele>771.0</ele><time>2026-04-23T12:31:08.999Z</time></trkpt><trkpt lat="42.09836988722304" lon="13.72242869180595"><ele>771.3333333333333</ele><time>2026-04-23T12:31:09.999Z</time></trkpt><trkpt lat="42.098509021373765" lon="13.722591861694161"><ele>771.6666666666666</ele><time>2026-04-23T12:31:10.999Z</time></trkpt><trkpt lat="42.09863867089193" lon="13.722717714696667"><ele>772.0</ele><time>2026-04-23T12:31:11.999Z</time></trkpt><trkpt lat="42.09873383007044" lon="13.722824112690713"><ele>772.0</ele><time>2026-04-23T12:31:12.999Z</time></trkpt><trkpt lat="42.09881513058636" lon="13.722960905578168"><ele>772.0</ele><time>2026-04-23T12:31:13.999Z</time></trkpt><trkpt lat="42.0988558896597" lon="13.72316234129623"><ele>772.0</ele><time>2026-04-23T12:31:14.999Z</time></trkpt><trkpt lat="42.09891995756694" lon="13.723359399115656"><ele>772.0</ele><time>2026-04-23T12:31:15.999Z</time></trkpt><trkpt lat="42.09893284186335" lon="13.723507309738467"><ele>770.75</ele><time>2026-04-23T12:31:17Z</time></trkpt><trkpt lat="42.098927973347045" lon="13.723657174567306"><ele>769.5</ele><time>2026-04-23T12:31:18Z</time></trkpt><trkpt lat="42.098878511150495" lon="13.723840045670933"><ele>768.25</ele><time>2026-04-23T12:31:19Z</time></trkpt><trkpt lat="42.09881980982231" lon="13.724033821015686"><ele>767.0</ele><time>2026-04-23T12:31:20Z</time></trkpt><trkpt lat="42.09875095184024" lon="13.724202681870729"><ele>767.0</ele><time>2026-04-23T12:31:21Z</time></trkpt><trkpt lat="42.09867723144977" lon="13.724341657319853"><ele>767.0</ele><time>2026-04-23T12:31:22Z</time></trkpt><trkpt lat="42.09855208277119" lon="13.724435840545741"><ele>767.0</ele><time>2026-04-23T12:31:23Z</time></trkpt><trkpt lat="42.098433474221885" lon="13.724556509055502"><ele>767.0</ele><time>2026-04-23T12:31:24Z</time></trkpt><trkpt lat="42.098317339107645" lon="13.724658039234598"><ele>768.6666666666666</ele><time>2026-04-23T12:31:25Z</time></trkpt><trkpt lat="42.09821722943785" lon="13.72481948700911"><ele>770.3333333333333</ele><time>2026-04-23T12:31:26Z</time></trkpt><trkpt lat="42.0981411608819" lon="13.725052472593216"><ele>772.0</ele><time>2026-04-23T12:31:27Z</time></trkpt><trkpt lat="42.098084048133764" lon="13.725280676908735"><ele>772.0</ele><time>2026-04-23T12:31:28Z</time></trkpt><trkpt lat="42.0980507980591" lon="13.725489204221939"><ele>772.0</ele><time>2026-04-23T12:31:29Z</time></trkpt><trkpt lat="42.09805426166173" lon="13.72570331992635"><ele>772.0</ele><time>2026-04-23T12:31:30Z</time></trkpt><trkpt lat="42.0980857180789" lon="13.725907434821595"><ele>770.25</ele><time>2026-04-23T12:31:31Z</time></trkpt><trkpt lat="42.09810328237282" lon="13.72608418165053"><ele>768.5</ele><time>2026-04-23T12:31:32Z</time></trkpt><trkpt lat="42.0980437601446" lon="13.726236515152857"><ele>766.75</ele><time>2026-04-23T12:31:33Z</time></trkpt><trkpt lat="42.09794514915896" lon="13.726387995652187"><ele>765.0</ele><time>2026-04-23T12:31:34Z</time></trkpt><trkpt lat="42.09786468158619" lon="13.726575217840738"><ele>765.0</ele><time>2026-04-23T12:31:35Z</time></trkpt><trkpt lat="42.09779520230304" lon="13.726790987088277"><ele>765.0</ele><time>2026-04-23T12:31:36Z</time></trkpt><trkpt lat="42.09774553039487" lon="13.727041200887799"><ele>765.0</ele><time>2026-04-23T12:31:37Z</time></trkpt><trkpt lat="42.09768066852076" lon="13.727298138295984"><ele>767.3333333333333</ele><time>2026-04-23T12:31:38Z</time></trkpt><trkpt lat="42.097597986531454" lon="13.727554347858579"><ele>769.6666666666666</ele><time>2026-04-23T12:31:39Z</time></trkpt><trkpt lat="42.09748036406729" lon="13.727776101336854"><ele>772.0</ele><time>2026-04-23T12:31:40Z</time></trkpt><trkpt lat="42.09736734982766" lon="13.7280146347563"><ele>772.0</ele><time>2026-04-23T12:31:41Z</time></trkpt><trkpt lat="42.09722608247471" lon="13.728236967573448"><ele>772.0</ele><time>2026-04-23T12:31:42Z</time></trkpt><trkpt lat="42.097097949269276" lon="13.728483968917509"><ele>772.0</ele><time>2026-04-23T12:31:43Z</time></trkpt><trkpt lat="42.096995662418266" lon="13.728737733580905"><ele>763.6666666666666</ele><time>2026-04-23T12:31:44Z</time></trkpt><trkpt lat="42.096901930368524" lon="13.728983549820034"><ele>755.3333333333333</ele><time>2026-04-23T12:31:45Z</time></trkpt><trkpt lat="42.0968217468875" lon="13.729199243383952"><ele>747.0</ele><time>2026-04-23T12:31:46Z</time></trkpt><trkpt lat="42.096738711075574" lon="13.729399804983348"><ele>752.3333333333334</ele><time>2026-04-23T12:31:47Z</time></trkpt><trkpt lat="42.096620739896665" lon="13.729596093907945"><ele>757.6666666666667</ele><time>2026-04-23T12:31:48Z</time></trkpt><trkpt lat="42.09647431728882" lon="13.729780103303982"><ele>763.0</ele><time>2026-04-23T12:31:49Z</time></trkpt><trkpt lat="42.09632979604309" lon="13.729956348471028"><ele>763.0</ele><time>2026-04-23T12:31:50Z</time></trkpt><trkpt lat="42.09621231032171" lon="13.730172685058452"><ele>763.0</ele><time>2026-04-23T12:31:51Z</time></trkpt><trkpt lat="42.096097554815266" lon="13.730392181008982"><ele>763.0</ele><time>2026-04-23T12:31:52Z</time></trkpt><trkpt lat="42.09598760032436" lon="13.730635202430541"><ele>763.3333333333334</ele><time>2026-04-23T12:31:53Z</time></trkpt><trkpt lat="42.095883270964336" lon="13.730887771409527"><ele>763.6666666666666</ele><time>2026-04-23T12:31:54Z</time></trkpt><trkpt lat="42.09579197922325" lon="13.731163018327663"><ele>764.0</ele><time>2026-04-23T12:31:55Z</time></trkpt><trkpt lat="42.09570166843181" lon="13.731435475068938"><ele>764.0</ele><time>2026-04-23T12:31:56Z</time></trkpt><trkpt lat="42.095605343023344" lon="13.731714002434536"><ele>764.0</ele><time>2026-04-23T12:31:57Z</time></trkpt><trkpt lat="42.095500299435756" lon="13.73196565860728"><ele>764.0</ele><time>2026-04-23T12:31:58Z</time></trkpt><trkpt lat="42.095406567499616" lon="13.73219158293051"><ele>755.0</ele><time>2026-04-23T12:31:59Z</time></trkpt><trkpt lat="42.09531419819246" lon="13.732384670574792"><ele>746.0</ele><time>2026-04-23T12:32:00Z</time></trkpt><trkpt lat="42.095229967682066" lon="13.732564045983857"><ele>737.0</ele><time>2026-04-23T12:32:01Z</time></trkpt><trkpt lat="42.09514045666956" lon="13.732739346244763"><ele>740.75</ele><time>2026-04-23T12:32:02Z</time></trkpt><trkpt lat="42.095039408278915" lon="13.732891930751935"><ele>744.5</ele><time>2026-04-23T12:32:03Z</time></trkpt><trkpt lat="42.09492341263551" lon="13.732999560009924"><ele>748.25</ele><time>2026-04-23T12:32:04Z</time></trkpt><trkpt lat="42.094819292010605" lon="13.73308808963606"><ele>752.0</ele><time>2026-04-23T12:32:05Z</time></trkpt><trkpt lat="42.09473730335003" lon="13.733192603972784"><ele>752.0</ele><time>2026-04-23T12:32:06Z</time></trkpt><trkpt lat="42.09468259642589" lon="13.73331790532363"><ele>752.0</ele><time>2026-04-23T12:32:07Z</time></trkpt><trkpt lat="42.09467837379127" lon="13.733460500735536"><ele>752.0</ele><time>2026-04-23T12:32:08Z</time></trkpt><trkpt lat="42.094717696443304" lon="13.733616445451958"><ele>752.0</ele><time>2026-04-23T12:32:09Z</time></trkpt><trkpt lat="42.094786316609316" lon="13.733779687860828"><ele>751.0</ele><time>2026-04-23T12:32:10Z</time></trkpt><trkpt lat="42.094817206136526" lon="13.733956409790743"><ele>750.0</ele><time>2026-04-23T12:32:11Z</time></trkpt><trkpt lat="42.09480947505967" lon="13.734131947049127"><ele>749.0</ele><time>2026-04-23T12:32:12Z</time></trkpt><trkpt lat="42.09475277397483" lon="13.734263073469059"><ele>748.0</ele><time>2026-04-23T12:32:13Z</time></trkpt><trkpt lat="42.09467958568562" lon="13.734456922607599"><ele>743.3333333333334</ele><time>2026-04-23T12:32:14Z</time></trkpt><trkpt lat="42.09459259472388" lon="13.734692771391204"><ele>738.6666666666666</ele><time>2026-04-23T12:32:15Z</time></trkpt><trkpt lat="42.09449812479222" lon="13.734953063322125"><ele>734.0</ele><time>2026-04-23T12:32:16Z</time></trkpt><trkpt lat="42.094392521947604" lon="13.735259107306712"><ele>724.5</ele><time>2026-04-23T12:32:17Z</time></trkpt><trkpt lat="42.09428642845393" lon="13.735579896784344"><ele>715.0</ele><time>2026-04-23T12:32:18Z</time></trkpt><trkpt lat="42.094178792496706" lon="13.735930513975266"><ele>726.5</ele><time>2026-04-23T12:32:19Z</time></trkpt><trkpt lat="42.094080847824394" lon="13.736254115381161"><ele>738.0</ele><time>2026-04-23T12:32:19.999Z</time></trkpt><trkpt lat="42.09398897896963" lon="13.736559245985715"><ele>738.0</ele><time>2026-04-23T12:32:20.999Z</time></trkpt><trkpt lat="42.09390488796067" lon="13.736846667503695"><ele>738.0</ele><time>2026-04-23T12:32:21.999Z</time></trkpt><trkpt lat="42.09383770787332" lon="13.7371306545955"><ele>730.6666666666666</ele><time>2026-04-23T12:32:22.999Z</time></trkpt><trkpt lat="42.09375578067619" lon="13.737390277522296"><ele>723.3333333333333</ele><time>2026-04-23T12:32:23.999Z</time></trkpt><trkpt lat="42.093669817893364" lon="13.737638369550327"><ele>716.0</ele><time>2026-04-23T12:32:24.999Z</time></trkpt><trkpt lat="42.09358257148714" lon="13.7378742128339"><ele>708.6666666666666</ele><time>2026-04-23T12:32:25.999Z</time></trkpt><trkpt lat="42.09348930410916" lon="13.73809024536898"><ele>701.3333333333334</ele><time>2026-04-23T12:32:26.999Z</time></trkpt><trkpt lat="42.093411025727676" lon="13.738263939790615"><ele>694.0</ele><time>2026-04-23T12:32:27.999Z</time></trkpt><trkpt lat="42.093328753117305" lon="13.73840742854593"><ele>693.0</ele><time>2026-04-23T12:32:28.999Z</time></trkpt><trkpt lat="42.09320712265027" lon="13.738491789397088"><ele>692.0</ele><time>2026-04-23T12:32:29.999Z</time></trkpt><trkpt lat="42.09307157090739" lon="13.738580601767945"><ele>691.0</ele><time>2026-04-23T12:32:30.999Z</time></trkpt><trkpt lat="42.09291419567278" lon="13.73867902087051"><ele>691.0</ele><time>2026-04-23T12:32:31.999Z</time></trkpt><trkpt lat="42.0927475144205" lon="13.738813343530122"><ele>691.0</ele><time>2026-04-23T12:32:32.999Z</time></trkpt><trkpt lat="42.09256333106686" lon="13.73896045365739"><ele>691.0</ele><time>2026-04-23T12:32:33.999Z</time></trkpt><trkpt lat="42.09237018038005" lon="13.739161100544136"><ele>692.6666666666667</ele><time>2026-04-23T12:32:34.999Z</time></trkpt><trkpt lat="42.09219583003787" lon="13.739346260041113"><ele>694.3333333333334</ele><time>2026-04-23T12:32:35.999Z</time></trkpt><trkpt lat="42.09202883525757" lon="13.739512793821612"><ele>696.0</ele><time>2026-04-23T12:32:36.999Z</time></trkpt><trkpt lat="42.091868043216685" lon="13.739665625708112"><ele>693.3333333333334</ele><time>2026-04-23T12:32:37.999Z</time></trkpt><trkpt lat="42.091699167457904" lon="13.739808649549369"><ele>690.6666666666667</ele><time>2026-04-23T12:32:38.999Z</time></trkpt><trkpt lat="42.09151115186955" lon="13.739932098274696"><ele>688.0</ele><time>2026-04-23T12:32:39.999Z</time></trkpt><trkpt lat="42.091311470797685" lon="13.740041750648246"><ele>688.0</ele><time>2026-04-23T12:32:40.999Z</time></trkpt><trkpt lat="42.0911257483516" lon="13.740153024756715"><ele>688.0</ele><time>2026-04-23T12:32:41.999Z</time></trkpt><trkpt lat="42.090951907561355" lon="13.740259760144353"><ele>688.0</ele><time>2026-04-23T12:32:42.999Z</time></trkpt><trkpt lat="42.090794880620194" lon="13.740349137003568"><ele>686.5999999999999</ele><time>2026-04-23T12:32:43.999Z</time></trkpt><trkpt lat="42.090660735492165" lon="13.7404366035628"><ele>685.1999999999999</ele><time>2026-04-23T12:32:44.999Z</time></trkpt><trkpt lat="42.09056384093294" lon="13.740503371304076"><ele>683.8</ele><time>2026-04-23T12:32:45.999Z</time></trkpt><trkpt lat="42.09049063235877" lon="13.740569332274047"><ele>682.4</ele><time>2026-04-23T12:32:46.999Z</time></trkpt><trkpt lat="42.09045304728138" lon="13.740659122481965"><ele>681.0</ele><time>2026-04-23T12:32:47.999Z</time></trkpt><trkpt lat="42.0904663568648" lon="13.740768024223428"><ele>681.0</ele><time>2026-04-23T12:32:48.999Z</time></trkpt><trkpt lat="42.090530673176545" lon="13.740869529118298"><ele>681.0</ele><time>2026-04-23T12:32:49.999Z</time></trkpt><trkpt lat="42.09063650961466" lon="13.74092276543808"><ele>681.0</ele><time>2026-04-23T12:32:50.999Z</time></trkpt><trkpt lat="42.09077591014916" lon="13.740921622324874"><ele>681.0</ele><time>2026-04-23T12:32:51.999Z</time></trkpt><trkpt lat="42.090941427930375" lon="13.740891092555831"><ele>679.0</ele><time>2026-04-23T12:32:52.999Z</time></trkpt><trkpt lat="42.091128132625066" lon="13.7408736226998"><ele>677.0</ele><time>2026-04-23T12:32:53.999Z</time></trkpt><trkpt lat="42.09133801061119" lon="13.740874714520299"><ele>675.0</ele><time>2026-04-23T12:32:54.999Z</time></trkpt><trkpt lat="42.091546326296736" lon="13.740875478670121"><ele>673.0</ele><time>2026-04-23T12:32:55.999Z</time></trkpt><trkpt lat="42.09176277184821" lon="13.74086579369972"><ele>671.0</ele><time>2026-04-23T12:32:56.999Z</time></trkpt><trkpt lat="42.0919647014904" lon="13.740867322614232"><ele>669.0</ele><time>2026-04-23T12:32:57.999Z</time></trkpt><trkpt lat="42.09214386224532" lon="13.740878775025857"><ele>669.0</ele><time>2026-04-23T12:32:58.999Z</time></trkpt><trkpt lat="42.09230352677045" lon="13.740885206948748"><ele>669.0</ele><time>2026-04-23T12:32:59.999Z</time></trkpt><trkpt lat="42.092455155977326" lon="13.74086555482047"><ele>669.0</ele><time>2026-04-23T12:33:00.999Z</time></trkpt><trkpt lat="42.09259469800437" lon="13.740812718623532"><ele>667.0</ele><time>2026-04-23T12:33:01.999Z</time></trkpt><trkpt lat="42.09273637075457" lon="13.740699480676449"><ele>665.0</ele><time>2026-04-23T12:33:02.999Z</time></trkpt><trkpt lat="42.09287509293511" lon="13.740549932444921"><ele>663.0</ele><time>2026-04-23T12:33:03.999Z</time></trkpt><trkpt lat="42.093021092749915" lon="13.740440107287911"><ele>663.0</ele><time>2026-04-23T12:33:04.999Z</time></trkpt><trkpt lat="42.09317299476893" lon="13.74036547631107"><ele>663.0</ele><time>2026-04-23T12:33:05.999Z</time></trkpt><trkpt lat="42.09334656102247" lon="13.740361430897257"><ele>663.0</ele><time>2026-04-23T12:33:06.999Z</time></trkpt><trkpt lat="42.09351361361686" lon="13.74033541907675"><ele>664.0</ele><time>2026-04-23T12:33:07.999Z</time></trkpt><trkpt lat="42.093657393742625" lon="13.74031818713186"><ele>665.0</ele><time>2026-04-23T12:33:08.999Z</time></trkpt><trkpt lat="42.09379600965455" lon="13.740246704245125"><ele>666.0</ele><time>2026-04-23T12:33:09.999Z</time></trkpt><trkpt lat="42.09392542072374" lon="13.74011622595023"><ele>666.0</ele><time>2026-04-23T12:33:10.999Z</time></trkpt><trkpt lat="42.094057850784566" lon="13.739925350972095"><ele>666.0</ele><time>2026-04-23T12:33:11.999Z</time></trkpt><trkpt lat="42.09417718181821" lon="13.739721700325159"><ele>666.0</ele><time>2026-04-23T12:33:12.999Z</time></trkpt><trkpt lat="42.094290136972646" lon="13.739558795459587"><ele>665.0</ele><time>2026-04-23T12:33:13.999Z</time></trkpt><trkpt lat="42.09439866104162" lon="13.739368195282216"><ele>664.0</ele><time>2026-04-23T12:33:14.999Z</time></trkpt><trkpt lat="42.09448152027941" lon="13.739119724482617"><ele>663.0</ele><time>2026-04-23T12:33:15.999Z</time></trkpt><trkpt lat="42.094554494891796" lon="13.738836045590562"><ele>665.6666666666666</ele><time>2026-04-23T12:33:16.999Z</time></trkpt><trkpt lat="42.09463282027199" lon="13.738549729762877"><ele>668.3333333333333</ele><time>2026-04-23T12:33:17.999Z</time></trkpt><trkpt lat="42.09472208121169" lon="13.738293993715063"><ele>671.0</ele><time>2026-04-23T12:33:18.999Z</time></trkpt><trkpt lat="42.09482173961003" lon="13.738056834808425"><ele>665.6666666666666</ele><time>2026-04-23T12:33:19.999Z</time></trkpt><trkpt lat="42.09492674614075" lon="13.737830942091355"><ele>660.3333333333334</ele><time>2026-04-23T12:33:20.999Z</time></trkpt><trkpt lat="42.09503465563915" lon="13.73760905027879"><ele>655.0</ele><time>2026-04-23T12:33:21.999Z</time></trkpt><trkpt lat="42.095150866189286" lon="13.737390304234173"><ele>655.0</ele><time>2026-04-23T12:33:23Z</time></trkpt><trkpt lat="42.09528384310642" lon="13.737172209872664"><ele>655.0</ele><time>2026-04-23T12:33:24Z</time></trkpt><trkpt lat="42.095434040833204" lon="13.736956095065885"><ele>655.0</ele><time>2026-04-23T12:33:25Z</time></trkpt><trkpt lat="42.09559890435415" lon="13.736749610177483"><ele>650.0</ele><time>2026-04-23T12:33:26Z</time></trkpt><trkpt lat="42.095759147057294" lon="13.736558273059048"><ele>645.0</ele><time>2026-04-23T12:33:27Z</time></trkpt><trkpt lat="42.09590941856899" lon="13.736368235684598"><ele>640.0</ele><time>2026-04-23T12:33:28Z</time></trkpt><trkpt lat="42.096050342802506" lon="13.736150205540117"><ele>643.6666666666667</ele><time>2026-04-23T12:33:29Z</time></trkpt><trkpt lat="42.09617233931167" lon="13.735930934656544"><ele>647.3333333333334</ele><time>2026-04-23T12:33:30Z</time></trkpt><trkpt lat="42.09628626487202" lon="13.735729718303817"><ele>651.0</ele><time>2026-04-23T12:33:31Z</time></trkpt><trkpt lat="42.096395693310726" lon="13.735559158127518"><ele>651.0</ele><time>2026-04-23T12:33:32Z</time></trkpt><trkpt lat="42.09651537764532" lon="13.735405137451568"><ele>651.0</ele><time>2026-04-23T12:33:33Z</time></trkpt><trkpt lat="42.09664961139039" lon="13.735265818688244"><ele>651.0</ele><time>2026-04-23T12:33:34Z</time></trkpt><trkpt lat="42.096801975264455" lon="13.735170671434165"><ele>646.6666666666666</ele><time>2026-04-23T12:33:35Z</time></trkpt><trkpt lat="42.09693880451049" lon="13.735055200761748"><ele>642.3333333333333</ele><time>2026-04-23T12:33:36Z</time></trkpt><trkpt lat="42.09707683025027" lon="13.734962913180299"><ele>638.0</ele><time>2026-04-23T12:33:37Z</time></trkpt><trkpt lat="42.0972028066266" lon="13.734840843606293"><ele>638.0</ele><time>2026-04-23T12:33:38Z</time></trkpt><trkpt lat="42.09731653766077" lon="13.734673309204243"><ele>638.0</ele><time>2026-04-23T12:33:39Z</time></trkpt><trkpt lat="42.09741745987787" lon="13.734461374671753"><ele>638.0</ele><time>2026-04-23T12:33:40Z</time></trkpt><trkpt lat="42.09750644095214" lon="13.73422767526439"><ele>635.6666666666666</ele><time>2026-04-23T12:33:41Z</time></trkpt><trkpt lat="42.09758585748836" lon="13.734016552744572"><ele>633.3333333333334</ele><time>2026-04-23T12:33:42Z</time></trkpt><trkpt lat="42.09765801455935" lon="13.733832260965507"><ele>631.0</ele><time>2026-04-23T12:33:43Z</time></trkpt><trkpt lat="42.09773354680215" lon="13.73367923559056"><ele>634.3333333333334</ele><time>2026-04-23T12:33:44Z</time></trkpt><trkpt lat="42.097830637829276" lon="13.733554797570775"><ele>637.6666666666666</ele><time>2026-04-23T12:33:45Z</time></trkpt><trkpt lat="42.097965485748624" lon="13.733450915598695"><ele>641.0</ele><time>2026-04-23T12:33:46Z</time></trkpt><trkpt lat="42.09814103582664" lon="13.733393614223735"><ele>636.3333333333333</ele><time>2026-04-23T12:33:47Z</time></trkpt><trkpt lat="42.09831374045205" lon="13.73329249133587"><ele>631.6666666666666</ele><time>2026-04-23T12:33:48Z</time></trkpt><trkpt lat="42.09847194948668" lon="13.733219572410409"><ele>627.0</ele><time>2026-04-23T12:33:49Z</time></trkpt><trkpt lat="42.098619014621775" lon="13.733164422908182"><ele>627.0</ele><time>2026-04-23T12:33:50Z</time></trkpt><trkpt lat="42.09876408077053" lon="13.733197664700517"><ele>627.0</ele><time>2026-04-23T12:33:51Z</time></trkpt><trkpt lat="42.098905924881365" lon="13.733220240813983"><ele>627.0</ele><time>2026-04-23T12:33:52Z</time></trkpt><trkpt lat="42.09905144171078" lon="13.733254534562997"><ele>627.0</ele><time>2026-04-23T12:33:53Z</time></trkpt><trkpt lat="42.099187276748076" lon="13.73324613722887"><ele>624.0</ele><time>2026-04-23T12:33:54Z</time></trkpt><trkpt lat="42.099316648959736" lon="13.733161353406883"><ele>621.0</ele><time>2026-04-23T12:33:55Z</time></trkpt><trkpt lat="42.099434816238016" lon="13.733027626845008"><ele>618.0</ele><time>2026-04-23T12:33:56Z</time></trkpt><trkpt lat="42.09954021111614" lon="13.73285292233212"><ele>621.6666666666666</ele><time>2026-04-23T12:33:57Z</time></trkpt><trkpt lat="42.099618475391004" lon="13.732673005951565"><ele>625.3333333333333</ele><time>2026-04-23T12:33:58Z</time></trkpt><trkpt lat="42.09969997834098" lon="13.732442740828043"><ele>629.0</ele><time>2026-04-23T12:33:59Z</time></trkpt><trkpt lat="42.09974682854841" lon="13.732233880798113"><ele>629.0</ele><time>2026-04-23T12:34:00Z</time></trkpt><trkpt lat="42.0997773762526" lon="13.732059224937432"><ele>629.0</ele><time>2026-04-23T12:34:01Z</time></trkpt><trkpt lat="42.099827145948964" lon="13.731912497506439"><ele>629.0</ele><time>2026-04-23T12:34:02Z</time></trkpt><trkpt lat="42.09990106288501" lon="13.731794852865153"><ele>629.0</ele><time>2026-04-23T12:34:03Z</time></trkpt><trkpt lat="42.09999593455068" lon="13.731693745118106"><ele>625.6666666666666</ele><time>2026-04-23T12:34:04Z</time></trkpt><trkpt lat="42.10014318493551" lon="13.73167911174655"><ele>622.3333333333334</ele><time>2026-04-23T12:34:05Z</time></trkpt><trkpt lat="42.10030995253973" lon="13.73164856235148"><ele>619.0</ele><time>2026-04-23T12:34:06Z</time></trkpt><trkpt lat="42.10050251236176" lon="13.731648850560397"><ele>619.0</ele><time>2026-04-23T12:34:07Z</time></trkpt><trkpt lat="42.10069932742611" lon="13.731592791020203"><ele>619.0</ele><time>2026-04-23T12:34:08Z</time></trkpt><trkpt lat="42.10090650101162" lon="13.73148823667092"><ele>619.0</ele><time>2026-04-23T12:34:09Z</time></trkpt><trkpt lat="42.10111174361673" lon="13.731377060739048"><ele>615.6666666666667</ele><time>2026-04-23T12:34:10Z</time></trkpt><trkpt lat="42.101285361778515" lon="13.731268245327207"><ele>612.3333333333334</ele><time>2026-04-23T12:34:11Z</time></trkpt><trkpt lat="42.10143989695328" lon="13.731162046485"><ele>609.0</ele><time>2026-04-23T12:34:12Z</time></trkpt><trkpt lat="42.10157571353786" lon="13.73104870356011"><ele>609.0</ele><time>2026-04-23T12:34:13Z</time></trkpt><trkpt lat="42.1016889342321" lon="13.730909206492466"><ele>609.0</ele><time>2026-04-23T12:34:14Z</time></trkpt><trkpt lat="42.101786734003326" lon="13.730740198318815"><ele>609.0</ele><time>2026-04-23T12:34:15Z</time></trkpt><trkpt lat="42.101869641232376" lon="13.73056318871932"><ele>609.0</ele><time>2026-04-23T12:34:16Z</time></trkpt><trkpt lat="42.10196703221031" lon="13.730418116612283"><ele>609.0</ele><time>2026-04-23T12:34:17Z</time></trkpt><trkpt lat="42.102105628153296" lon="13.730354749322268"><ele>609.0</ele><time>2026-04-23T12:34:18Z</time></trkpt><trkpt lat="42.10226260034432" lon="13.73024805698066"><ele>608.3333333333334</ele><time>2026-04-23T12:34:19Z</time></trkpt><trkpt lat="42.10242642454469" lon="13.73015803781518"><ele>607.6666666666667</ele><time>2026-04-23T12:34:20Z</time></trkpt><trkpt lat="42.102578274778594" lon="13.73003738941873"><ele>607.0</ele><time>2026-04-23T12:34:20.999Z</time></trkpt><trkpt lat="42.102694639029025" lon="13.729897289461343"><ele>607.0</ele><time>2026-04-23T12:34:21.999Z</time></trkpt><trkpt lat="42.10281205595128" lon="13.729736733407401"><ele>607.0</ele><time>2026-04-23T12:34:22.999Z</time></trkpt><trkpt lat="42.10295788438931" lon="13.729604512498945"><ele>607.0</ele><time>2026-04-23T12:34:23.999Z</time></trkpt><trkpt lat="42.103145594766254" lon="13.729546890076305"><ele>609.0</ele><time>2026-04-23T12:34:24.999Z</time></trkpt><trkpt lat="42.10331737344068" lon="13.729418622437917"><ele>611.0</ele><time>2026-04-23T12:34:25.999Z</time></trkpt><trkpt lat="42.10349039083067" lon="13.729275442218132"><ele>613.0</ele><time>2026-04-23T12:34:26.999Z</time></trkpt><trkpt lat="42.103659963182935" lon="13.729113474771058"><ele>613.0</ele><time>2026-04-23T12:34:27.999Z</time></trkpt><trkpt lat="42.10382319466311" lon="13.728972060910545"><ele>613.0</ele><time>2026-04-23T12:34:28.999Z</time></trkpt><trkpt lat="42.10397842884405" lon="13.728855924252459"><ele>613.0</ele><time>2026-04-23T12:34:29.999Z</time></trkpt><trkpt lat="42.10412379013321" lon="13.728743279321524"><ele>605.3333333333334</ele><time>2026-04-23T12:34:30.999Z</time></trkpt><trkpt lat="42.10426515636589" lon="13.728650392743793"><ele>597.6666666666666</ele><time>2026-04-23T12:34:31.999Z</time></trkpt><trkpt lat="42.10441096831447" lon="13.728596823746809"><ele>590.0</ele><time>2026-04-23T12:34:32.999Z</time></trkpt><trkpt lat="42.104567403427886" lon="13.728573304866206"><ele>590.0</ele><time>2026-04-23T12:34:33.999Z</time></trkpt><trkpt lat="42.10473540972478" lon="13.728603318681328"><ele>590.0</ele><time>2026-04-23T12:34:34.999Z</time></trkpt><trkpt lat="42.10488841092235" lon="13.728677225488353"><ele>590.0</ele><time>2026-04-23T12:34:35.999Z</time></trkpt><trkpt lat="42.1050209493582" lon="13.728748232124493"><ele>588.3333333333333</ele><time>2026-04-23T12:34:36.999Z</time></trkpt><trkpt lat="42.10515213737035" lon="13.728832717125616"><ele>586.6666666666666</ele><time>2026-04-23T12:34:37.999Z</time></trkpt><trkpt lat="42.10526861951312" lon="13.728962669512567"><ele>585.0</ele><time>2026-04-23T12:34:38.999Z</time></trkpt><trkpt lat="42.10539040236857" lon="13.729151097959932"><ele>585.0</ele><time>2026-04-23T12:34:39.999Z</time></trkpt><trkpt lat="42.10551124786114" lon="13.729351355297641"><ele>585.0</ele><time>2026-04-23T12:34:40.999Z</time></trkpt><trkpt lat="42.10566535956181" lon="13.729547746961941"><ele>585.0</ele><time>2026-04-23T12:34:41.999Z</time></trkpt><trkpt lat="42.105833549047155" lon="13.729769350065581"><ele>583.0</ele><time>2026-04-23T12:34:42.999Z</time></trkpt><trkpt lat="42.106006562044016" lon="13.730001552867805"><ele>581.0</ele><time>2026-04-23T12:34:43.999Z</time></trkpt><trkpt lat="42.10617437007464" lon="13.730231761658413"><ele>580.0</ele><time>2026-04-23T12:34:44.999Z</time></trkpt><trkpt lat="42.10632546554403" lon="13.730433622739053"><ele>579.0</ele><time>2026-04-23T12:34:45.999Z</time></trkpt><trkpt lat="42.10647384981806" lon="13.73063173480077"><ele>578.0</ele><time>2026-04-23T12:34:46.999Z</time></trkpt><trkpt lat="42.10661652476868" lon="13.730839261281151"><ele>578.0</ele><time>2026-04-23T12:34:47.999Z</time></trkpt><trkpt lat="42.106765456679405" lon="13.731056222707863"><ele>578.0</ele><time>2026-04-23T12:34:48.999Z</time></trkpt><trkpt lat="42.10689160212984" lon="13.731295799849033"><ele>578.0</ele><time>2026-04-23T12:34:49.999Z</time></trkpt><trkpt lat="42.10701393579032" lon="13.731518278029094"><ele>575.3333333333333</ele><time>2026-04-23T12:34:50.999Z</time></trkpt><trkpt lat="42.10711737540213" lon="13.731714748870916"><ele>572.6666666666666</ele><time>2026-04-23T12:34:51.999Z</time></trkpt><trkpt lat="42.10720909889574" lon="13.73188935595046"><ele>570.0</ele><time>2026-04-23T12:34:52.999Z</time></trkpt><trkpt lat="42.10729575340976" lon="13.7320751866214"><ele>568.0</ele><time>2026-04-23T12:34:53.999Z</time></trkpt><trkpt lat="42.10734359320845" lon="13.732284388678437"><ele>566.0</ele><time>2026-04-23T12:34:54.999Z</time></trkpt><trkpt lat="42.107358595555" lon="13.732529384715084"><ele>564.0</ele><time>2026-04-23T12:34:55.999Z</time></trkpt><trkpt lat="42.10734251937942" lon="13.732773702530011"><ele>562.3333333333334</ele><time>2026-04-23T12:34:56.999Z</time></trkpt><trkpt lat="42.107309775234796" lon="13.733008956806312"><ele>560.6666666666667</ele><time>2026-04-23T12:34:57.999Z</time></trkpt><trkpt lat="42.107319639420844" lon="13.733227856235446"><ele>559.0</ele><time>2026-04-23T12:34:58.999Z</time></trkpt><trkpt lat="42.10737886341376" lon="13.733432942216865"><ele>560.6666666666667</ele><time>2026-04-23T12:34:59.999Z</time></trkpt><trkpt lat="42.10745581234497" lon="13.733684454130373"><ele>562.3333333333334</ele><time>2026-04-23T12:35:00.999Z</time></trkpt><trkpt lat="42.107567249588534" lon="13.733943745423352"><ele>564.0</ele><time>2026-04-23T12:35:01.999Z</time></trkpt><trkpt lat="42.107668266140514" lon="13.734179917095068"><ele>562.3333333333334</ele><time>2026-04-23T12:35:02.999Z</time></trkpt><trkpt lat="42.10774906479039" lon="13.734407998400272"><ele>560.6666666666667</ele><time>2026-04-23T12:35:03.999Z</time></trkpt><trkpt lat="42.107821006326944" lon="13.734627108038772"><ele>559.0</ele><time>2026-04-23T12:35:04.999Z</time></trkpt><trkpt lat="42.10789263961308" lon="13.734818815225053"><ele>559.0</ele><time>2026-04-23T12:35:05.999Z</time></trkpt><trkpt lat="42.10797802561903" lon="13.734980223334386"><ele>559.0</ele><time>2026-04-23T12:35:06.999Z</time></trkpt><trkpt lat="42.10810038032459" lon="13.735107557634624"><ele>559.0</ele><time>2026-04-23T12:35:07.999Z</time></trkpt><trkpt lat="42.108225877763374" lon="13.735242673270287"><ele>557.0</ele><time>2026-04-23T12:35:08.999Z</time></trkpt><trkpt lat="42.10840705191927" lon="13.73532011449943"><ele>555.0</ele><time>2026-04-23T12:35:09.999Z</time></trkpt><trkpt lat="42.10857548596227" lon="13.735386459991004"><ele>553.0</ele><time>2026-04-23T12:35:10.999Z</time></trkpt><trkpt lat="42.10871608794458" lon="13.73546525119222"><ele>553.0</ele><time>2026-04-23T12:35:11.999Z</time></trkpt><trkpt lat="42.10883524776411" lon="13.73556363614835"><ele>553.0</ele><time>2026-04-23T12:35:12.999Z</time></trkpt><trkpt lat="42.10892734447819" lon="13.735709420661555"><ele>553.0</ele><time>2026-04-23T12:35:13.999Z</time></trkpt><trkpt lat="42.10899145546442" lon="13.735879523544883"><ele>553.0</ele><time>2026-04-23T12:35:14.999Z</time></trkpt><trkpt lat="42.10905311976323" lon="13.736070329507614"><ele>553.0</ele><time>2026-04-23T12:35:15.999Z</time></trkpt><trkpt lat="42.109126807517015" lon="13.736266150852055"><ele>553.0</ele><time>2026-04-23T12:35:16.999Z</time></trkpt><trkpt lat="42.10918462518722" lon="13.73647662990357"><ele>553.0</ele><time>2026-04-23T12:35:17.999Z</time></trkpt><trkpt lat="42.109237376296896" lon="13.73666053829771"><ele>553.0</ele><time>2026-04-23T12:35:18.999Z</time></trkpt><trkpt lat="42.10929472971924" lon="13.7368299333652"><ele>553.0</ele><time>2026-04-23T12:35:19.999Z</time></trkpt><trkpt lat="42.109372383397314" lon="13.736971710091165"><ele>553.0</ele><time>2026-04-23T12:35:20.999Z</time></trkpt><trkpt lat="42.10948238351017" lon="13.737101409848266"><ele>553.0</ele><time>2026-04-23T12:35:21.999Z</time></trkpt><trkpt lat="42.10961020160375" lon="13.737243240324498"><ele>552.6666666666667</ele><time>2026-04-23T12:35:22.999Z</time></trkpt><trkpt lat="42.10974849281633" lon="13.737388573480219"><ele>552.3333333333334</ele><time>2026-04-23T12:35:23.999Z</time></trkpt><trkpt lat="42.10989654408789" lon="13.737536999338424"><ele>552.0</ele><time>2026-04-23T12:35:24.999Z</time></trkpt><trkpt lat="42.11004409383341" lon="13.73769621439694"><ele>549.3333333333334</ele><time>2026-04-23T12:35:25.999Z</time></trkpt><trkpt lat="42.110182281156625" lon="13.73787895835037"><ele>546.6666666666667</ele><time>2026-04-23T12:35:26.999Z</time></trkpt><trkpt lat="42.11030911191872" lon="13.738073742971931"><ele>544.0</ele><time>2026-04-23T12:35:27.999Z</time></trkpt><trkpt lat="42.11042519530683" lon="13.738270668823796"><ele>544.0</ele><time>2026-04-23T12:35:29Z</time></trkpt><trkpt lat="42.110535170619634" lon="13.738454203868505"><ele>544.0</ele><time>2026-04-23T12:35:30Z</time></trkpt><trkpt lat="42.110638434954616" lon="13.738620755638994"><ele>544.0</ele><time>2026-04-23T12:35:31Z</time></trkpt><trkpt lat="42.110746351859966" lon="13.738765616187488"><ele>544.0</ele><time>2026-04-23T12:35:32Z</time></trkpt><trkpt lat="42.1108553028338" lon="13.7388979892116"><ele>544.0</ele><time>2026-04-23T12:35:33Z</time></trkpt><trkpt lat="42.110969125224614" lon="13.739011777485715"><ele>544.0</ele><time>2026-04-23T12:35:34Z</time></trkpt><trkpt lat="42.111077628353215" lon="13.739110668689847"><ele>544.0</ele><time>2026-04-23T12:35:35Z</time></trkpt><trkpt lat="42.11117068418665" lon="13.73922781274843"><ele>544.0</ele><time>2026-04-23T12:35:36Z</time></trkpt><trkpt lat="42.11126592429668" lon="13.739317509495281"><ele>544.0</ele><time>2026-04-23T12:35:37Z</time></trkpt><trkpt lat="42.1113663392644" lon="13.739381330568461"><ele>544.0</ele><time>2026-04-23T12:35:38Z</time></trkpt><trkpt lat="42.11144954618353" lon="13.739462248587765"><ele>544.0</ele><time>2026-04-23T12:35:39Z</time></trkpt><trkpt lat="42.111548781774296" lon="13.739549715182617"><ele>544.0</ele><time>2026-04-23T12:35:40Z</time></trkpt><trkpt lat="42.11167005421057" lon="13.739655698278357"><ele>542.25</ele><time>2026-04-23T12:35:41Z</time></trkpt><trkpt lat="42.11179047596258" lon="13.739753840907701"><ele>540.5</ele><time>2026-04-23T12:35:42Z</time></trkpt><trkpt lat="42.11191299610285" lon="13.739853211120383"><ele>538.75</ele><time>2026-04-23T12:35:43Z</time></trkpt><trkpt lat="42.112034602127295" lon="13.739952098609264"><ele>537.0</ele><time>2026-04-23T12:35:44Z</time></trkpt><trkpt lat="42.1121503148944" lon="13.740045382752513"><ele>537.0</ele><time>2026-04-23T12:35:45Z</time></trkpt><trkpt lat="42.11225585294174" lon="13.740131497664487"><ele>537.0</ele><time>2026-04-23T12:35:46Z</time></trkpt><trkpt lat="42.11236536374206" lon="13.74021904170494"><ele>537.0</ele><time>2026-04-23T12:35:47Z</time></trkpt><trkpt lat="42.11247415183465" lon="13.740309485689217"><ele>537.0</ele><time>2026-04-23T12:35:48Z</time></trkpt><trkpt lat="42.112580144600216" lon="13.74039976170158"><ele>535.75</ele><time>2026-04-23T12:35:49Z</time></trkpt><trkpt lat="42.11268596256657" lon="13.740484267533072"><ele>534.5</ele><time>2026-04-23T12:35:50Z</time></trkpt><trkpt lat="42.112789697395" lon="13.740565032343513"><ele>533.25</ele><time>2026-04-23T12:35:51Z</time></trkpt><trkpt lat="42.112884831524305" lon="13.740643594981647"><ele>532.0</ele><time>2026-04-23T12:35:52Z</time></trkpt><trkpt lat="42.11296812149864" lon="13.740713172925961"><ele>532.0</ele><time>2026-04-23T12:35:53Z</time></trkpt><trkpt lat="42.113049553858" lon="13.740773786306454"><ele>532.0</ele><time>2026-04-23T12:35:54Z</time></trkpt><trkpt lat="42.11313866502751" lon="13.740820130220053"><ele>532.0</ele><time>2026-04-23T12:35:55Z</time></trkpt><trkpt lat="42.11323448503364" lon="13.740847802010963"><ele>532.0</ele><time>2026-04-23T12:35:56Z</time></trkpt><trkpt lat="42.11333649352754" lon="13.740864402850052"><ele>532.0</ele><time>2026-04-23T12:35:57Z</time></trkpt><trkpt lat="42.11345933260747" lon="13.740874070397387"><ele>533.0</ele><time>2026-04-23T12:35:58Z</time></trkpt><trkpt lat="42.11360230985635" lon="13.740876463305874"><ele>534.0</ele><time>2026-04-23T12:35:59Z</time></trkpt><trkpt lat="42.113754928487396" lon="13.74089719027376"><ele>535.0</ele><time>2026-04-23T12:36:00Z</time></trkpt><trkpt lat="42.113894187948524" lon="13.740908064299886"><ele>536.0</ele><time>2026-04-23T12:36:01Z</time></trkpt><trkpt lat="42.11401626118905" lon="13.740901619959837"><ele>535.75</ele><time>2026-04-23T12:36:02Z</time></trkpt><trkpt lat="42.11413488744628" lon="13.740932686572405"><ele>535.5</ele><time>2026-04-23T12:36:03Z</time></trkpt><trkpt lat="42.11426235960158" lon="13.741004545200774"><ele>535.25</ele><time>2026-04-23T12:36:04Z</time></trkpt><trkpt lat="42.11439763088855" lon="13.74109772126166"><ele>535.0</ele><time>2026-04-23T12:36:05Z</time></trkpt><trkpt lat="42.11451837041258" lon="13.741209724061028"><ele>534.8</ele><time>2026-04-23T12:36:06Z</time></trkpt><trkpt lat="42.11461460075907" lon="13.741328849661784"><ele>534.6</ele><time>2026-04-23T12:36:07Z</time></trkpt><trkpt lat="42.11469881984301" lon="13.741429692185"><ele>534.4</ele><time>2026-04-23T12:36:08Z</time></trkpt><trkpt lat="42.11477421275941" lon="13.741494172821945"><ele>534.2</ele><time>2026-04-23T12:36:09Z</time></trkpt><trkpt lat="42.114873707214436" lon="13.741519852179568"><ele>534.0</ele><time>2026-04-23T12:36:10Z</time></trkpt><trkpt lat="42.11499418406811" lon="13.741501030232289"><ele>534.0</ele><time>2026-04-23T12:36:11Z</time></trkpt><trkpt lat="42.11513074119901" lon="13.741441086217305"><ele>534.0</ele><time>2026-04-23T12:36:12Z</time></trkpt><trkpt lat="42.1152608863176" lon="13.741406503297387"><ele>534.0</ele><time>2026-04-23T12:36:13Z</time></trkpt><trkpt lat="42.11537637913201" lon="13.741373997036021"><ele>534.0</ele><time>2026-04-23T12:36:14Z</time></trkpt><trkpt lat="42.11547677992008" lon="13.74130222435649"><ele>534.0</ele><time>2026-04-23T12:36:15Z</time></trkpt><trkpt lat="42.11557418611744" lon="13.74116448268837"><ele>534.0</ele><time>2026-04-23T12:36:16Z</time></trkpt><trkpt lat="42.11565485595272" lon="13.740979168640662"><ele>534.0</ele><time>2026-04-23T12:36:17Z</time></trkpt><trkpt lat="42.11573373605808" lon="13.740777628078119"><ele>531.3333333333334</ele><time>2026-04-23T12:36:18Z</time></trkpt><trkpt lat="42.11582761180617" lon="13.740596580937941"><ele>528.6666666666667</ele><time>2026-04-23T12:36:19Z</time></trkpt><trkpt lat="42.115929979102845" lon="13.740425426085093"><ele>526.0</ele><time>2026-04-23T12:36:20Z</time></trkpt><trkpt lat="42.1160418337233" lon="13.740259703198834"><ele>526.6666666666667</ele><time>2026-04-23T12:36:21Z</time></trkpt><trkpt lat="42.11615880470231" lon="13.740088037801016"><ele>527.3333333333334</ele><time>2026-04-23T12:36:21.999Z</time></trkpt><trkpt lat="42.1162654415539" lon="13.739918374278563"><ele>528.0</ele><time>2026-04-23T12:36:22.999Z</time></trkpt><trkpt lat="42.11636338502952" lon="13.739760731766182"><ele>528.0</ele><time>2026-04-23T12:36:23.999Z</time></trkpt><trkpt lat="42.11646332684168" lon="13.739593894782432"><ele>528.0</ele><time>2026-04-23T12:36:24.999Z</time></trkpt><trkpt lat="42.116554471161635" lon="13.739412946714525"><ele>528.0</ele><time>2026-04-23T12:36:25.999Z</time></trkpt><trkpt lat="42.11663283984616" lon="13.73920412933997"><ele>524.3333333333334</ele><time>2026-04-23T12:36:26.999Z</time></trkpt><trkpt lat="42.11669364623937" lon="13.738976502721822"><ele>520.6666666666667</ele><time>2026-04-23T12:36:27.999Z</time></trkpt><trkpt lat="42.11675095098088" lon="13.738744708130394"><ele>517.0</ele><time>2026-04-23T12:36:28.999Z</time></trkpt><trkpt lat="42.1168101980458" lon="13.738528504742664"><ele>516.0</ele><time>2026-04-23T12:36:29.999Z</time></trkpt><trkpt lat="42.11686258588007" lon="13.738323829886653"><ele>515.0</ele><time>2026-04-23T12:36:30.999Z</time></trkpt><trkpt lat="42.11689453979571" lon="13.738123246936675"><ele>514.0</ele><time>2026-04-23T12:36:31.999Z</time></trkpt><trkpt lat="42.11689536046405" lon="13.737922869834708"><ele>513.0</ele><time>2026-04-23T12:36:32.999Z</time></trkpt><trkpt lat="42.11685339474216" lon="13.73771347536867"><ele>512.0</ele><time>2026-04-23T12:36:33.999Z</time></trkpt><trkpt lat="42.116774480979906" lon="13.737508807131068"><ele>511.0</ele><time>2026-04-23T12:36:34.999Z</time></trkpt><trkpt lat="42.11666401365867" lon="13.737322878782539"><ele>510.6666666666667</ele><time>2026-04-23T12:36:35.999Z</time></trkpt><trkpt lat="42.116532650510834" lon="13.737145257531463"><ele>510.33333333333337</ele><time>2026-04-23T12:36:36.999Z</time></trkpt><trkpt lat="42.116406409194326" lon="13.736980294256927"><ele>510.0</ele><time>2026-04-23T12:36:37.999Z</time></trkpt><trkpt lat="42.116292560423354" lon="13.736825616386502"><ele>510.0</ele><time>2026-04-23T12:36:38.999Z</time></trkpt><trkpt lat="42.11619821417214" lon="13.736682428867349"><ele>510.0</ele><time>2026-04-23T12:36:39.999Z</time></trkpt><trkpt lat="42.11612922315713" lon="13.73653954611386"><ele>510.0</ele><time>2026-04-23T12:36:40.999Z</time></trkpt><trkpt lat="42.11609114475885" lon="13.736379242164405"><ele>510.0</ele><time>2026-04-23T12:36:41.999Z</time></trkpt><trkpt lat="42.116082397239275" lon="13.736203592347787"><ele>508.75</ele><time>2026-04-23T12:36:42.999Z</time></trkpt><trkpt lat="42.116102263270754" lon="13.736021034563983"><ele>507.5</ele><time>2026-04-23T12:36:43.999Z</time></trkpt><trkpt lat="42.116174645882595" lon="13.73585840498497"><ele>506.25</ele><time>2026-04-23T12:36:44.999Z</time></trkpt><trkpt lat="42.11626995699714" lon="13.73571353276329"><ele>505.0</ele><time>2026-04-23T12:36:45.999Z</time></trkpt><trkpt lat="42.11638295349928" lon="13.73560405825462"><ele>505.0</ele><time>2026-04-23T12:36:46.999Z</time></trkpt><trkpt lat="42.1165270867139" lon="13.73556279821795"><ele>505.0</ele><time>2026-04-23T12:36:47.999Z</time></trkpt><trkpt lat="42.11668963768532" lon="13.735510393202576"><ele>505.0</ele><time>2026-04-23T12:36:48.999Z</time></trkpt><trkpt lat="42.1168655104062" lon="13.73549142617818"><ele>503.33333333333337</ele><time>2026-04-23T12:36:49.999Z</time></trkpt><trkpt lat="42.11705106240252" lon="13.73546456487375"><ele>501.66666666666663</ele><time>2026-04-23T12:36:50.999Z</time></trkpt><trkpt lat="42.11722782582366" lon="13.735461013396494"><ele>500.0</ele><time>2026-04-23T12:36:51.999Z</time></trkpt><trkpt lat="42.117390957871976" lon="13.735472939586753"><ele>498.3333333333333</ele><time>2026-04-23T12:36:52.999Z</time></trkpt><trkpt lat="42.11754848689858" lon="13.735458853354752"><ele>496.66666666666663</ele><time>2026-04-23T12:36:53.999Z</time></trkpt><trkpt lat="42.11772354813877" lon="13.735402141222572"><ele>495.0</ele><time>2026-04-23T12:36:54.999Z</time></trkpt><trkpt lat="42.11789345046251" lon="13.73530970242065"><ele>496.0</ele><time>2026-04-23T12:36:55.999Z</time></trkpt><trkpt lat="42.11805085756132" lon="13.735196695312132"><ele>497.0</ele><time>2026-04-23T12:36:56.999Z</time></trkpt><trkpt lat="42.118185057602666" lon="13.735094681519485"><ele>498.0</ele><time>2026-04-23T12:36:57.999Z</time></trkpt><trkpt lat="42.11830488546145" lon="13.735017740110427"><ele>495.75</ele><time>2026-04-23T12:36:58.999Z</time></trkpt><trkpt lat="42.11841832817903" lon="13.734973583827605"><ele>493.5</ele><time>2026-04-23T12:36:59.999Z</time></trkpt><trkpt lat="42.11854096982106" lon="13.734988639564643"><ele>491.25</ele><time>2026-04-23T12:37:00.999Z</time></trkpt><trkpt lat="42.118669235105514" lon="13.735054717819345"><ele>489.0</ele><time>2026-04-23T12:37:01.999Z</time></trkpt><trkpt lat="42.11880457615144" lon="13.735156961734758"><ele>489.33333333333337</ele><time>2026-04-23T12:37:02.999Z</time></trkpt><trkpt lat="42.11897967549717" lon="13.735284894285904"><ele>489.6666666666667</ele><time>2026-04-23T12:37:03.999Z</time></trkpt><trkpt lat="42.11917812031011" lon="13.735427120313304"><ele>490.0</ele><time>2026-04-23T12:37:04.999Z</time></trkpt><trkpt lat="42.11936572790647" lon="13.735567098999375"><ele>489.0</ele><time>2026-04-23T12:37:05.999Z</time></trkpt><trkpt lat="42.119530919692025" lon="13.735683603737291"><ele>488.0</ele><time>2026-04-23T12:37:06.999Z</time></trkpt><trkpt lat="42.11968198297819" lon="13.735820412922106"><ele>487.0</ele><time>2026-04-23T12:37:07.999Z</time></trkpt><trkpt lat="42.119807114817114" lon="13.735950343169137"><ele>486.5</ele><time>2026-04-23T12:37:08.999Z</time></trkpt><trkpt lat="42.11993335082242" lon="13.73605179862029"><ele>486.0</ele><time>2026-04-23T12:37:09.999Z</time></trkpt><trkpt lat="42.12006436741511" lon="13.736124226846275"><ele>485.5</ele><time>2026-04-23T12:37:10.999Z</time></trkpt><trkpt lat="42.12022286596687" lon="13.736124897926524"><ele>485.0</ele><time>2026-04-23T12:37:11.999Z</time></trkpt><trkpt lat="42.12043213996377" lon="13.736063580225482"><ele>485.0</ele><time>2026-04-23T12:37:12.999Z</time></trkpt><trkpt lat="42.12064308652229" lon="13.73597272037433"><ele>485.0</ele><time>2026-04-23T12:37:13.999Z</time></trkpt><trkpt lat="42.12086778591932" lon="13.735877319230081"><ele>482.5</ele><time>2026-04-23T12:37:14.999Z</time></trkpt><trkpt lat="42.12110397982621" lon="13.735777809717128"><ele>480.0</ele><time>2026-04-23T12:37:15.999Z</time></trkpt><trkpt lat="42.121344015458845" lon="13.735696174822978"><ele>479.0</ele><time>2026-04-23T12:37:16.999Z</time></trkpt><trkpt lat="42.12158437930041" lon="13.735585526388672"><ele>478.0</ele><time>2026-04-23T12:37:17.999Z</time></trkpt><trkpt lat="42.121806695552536" lon="13.735503518746203"><ele>478.0</ele><time>2026-04-23T12:37:18.999Z</time></trkpt><trkpt lat="42.12200223509458" lon="13.735425118188369"><ele>478.0</ele><time>2026-04-23T12:37:19.999Z</time></trkpt><trkpt lat="42.122212271040596" lon="13.735344343944396"><ele>478.0</ele><time>2026-04-23T12:37:20.999Z</time></trkpt><trkpt lat="42.12242172938266" lon="13.735275604159137"><ele>477.6666666666667</ele><time>2026-04-23T12:37:21.999Z</time></trkpt><trkpt lat="42.1226183104455" lon="13.7351739918945"><ele>477.33333333333337</ele><time>2026-04-23T12:37:22.999Z</time></trkpt><trkpt lat="42.122813553103605" lon="13.735077808841742"><ele>477.0</ele><time>2026-04-23T12:37:23.999Z</time></trkpt><trkpt lat="42.12299993569466" lon="13.734961159079408"><ele>477.0</ele><time>2026-04-23T12:37:24.999Z</time></trkpt><trkpt lat="42.123185663364765" lon="13.734825308134265"><ele>477.0</ele><time>2026-04-23T12:37:25.999Z</time></trkpt><trkpt lat="42.12337227405759" lon="13.734696077701797"><ele>477.0</ele><time>2026-04-23T12:37:26.999Z</time></trkpt><trkpt lat="42.12355515555076" lon="13.734563897702735"><ele>477.33333333333337</ele><time>2026-04-23T12:37:27.999Z</time></trkpt><trkpt lat="42.12373707680575" lon="13.734436884601998"><ele>477.6666666666667</ele><time>2026-04-23T12:37:28.999Z</time></trkpt><trkpt lat="42.12391782153812" lon="13.73431315989378"><ele>478.0</ele><time>2026-04-23T12:37:29.999Z</time></trkpt><trkpt lat="42.12410010624347" lon="13.73418740870203"><ele>476.33333333333337</ele><time>2026-04-23T12:37:30.999Z</time></trkpt><trkpt lat="42.12427738327578" lon="13.734062748023007"><ele>474.66666666666663</ele><time>2026-04-23T12:37:31.999Z</time></trkpt><trkpt lat="42.124449460883" lon="13.733943597980316"><ele>473.0</ele><time>2026-04-23T12:37:32.999Z</time></trkpt><trkpt lat="42.124618726744416" lon="13.733835353996332"><ele>473.0</ele><time>2026-04-23T12:37:33.999Z</time></trkpt><trkpt lat="42.12478684049563" lon="13.73372043751412"><ele>473.0</ele><time>2026-04-23T12:37:35Z</time></trkpt><trkpt lat="42.12495423364781" lon="13.733609604987054"><ele>473.0</ele><time>2026-04-23T12:37:36Z</time></trkpt><trkpt lat="42.1251179180583" lon="13.73349726858687"><ele>474.0</ele><time>2026-04-23T12:37:37Z</time></trkpt><trkpt lat="42.125277192219144" lon="13.733384763654763"><ele>475.0</ele><time>2026-04-23T12:37:38Z</time></trkpt><trkpt lat="42.12543913086337" lon="13.733272787886007"><ele>476.0</ele><time>2026-04-23T12:37:39Z</time></trkpt><trkpt lat="42.12559874887043" lon="13.733171825685817"><ele>475.3333333333333</ele><time>2026-04-23T12:37:40Z</time></trkpt><trkpt lat="42.12575401672216" lon="13.733064447018258"><ele>474.66666666666663</ele><time>2026-04-23T12:37:41Z</time></trkpt><trkpt lat="42.12590795619905" lon="13.73296091315007"><ele>474.0</ele><time>2026-04-23T12:37:42Z</time></trkpt><trkpt lat="42.12606506810684" lon="13.732854815293335"><ele>474.0</ele><time>2026-04-23T12:37:43Z</time></trkpt><trkpt lat="42.12621874504278" lon="13.732747616914867"><ele>474.0</ele><time>2026-04-23T12:37:44Z</time></trkpt><trkpt lat="42.126370662158585" lon="13.732639989772604"><ele>474.0</ele><time>2026-04-23T12:37:45Z</time></trkpt><trkpt lat="42.12651848469016" lon="13.732532045137251"><ele>474.66666666666663</ele><time>2026-04-23T12:37:46Z</time></trkpt><trkpt lat="42.126665912004505" lon="13.732437165017608"><ele>475.3333333333333</ele><time>2026-04-23T12:37:47Z</time></trkpt><trkpt lat="42.12680999977968" lon="13.732343866313135"><ele>476.0</ele><time>2026-04-23T12:37:48Z</time></trkpt><trkpt lat="42.12694188011948" lon="13.732260031152832"><ele>476.0</ele><time>2026-04-23T12:37:49Z</time></trkpt><trkpt lat="42.127073389465494" lon="13.732191032505757"><ele>476.0</ele><time>2026-04-23T12:37:50Z</time></trkpt><trkpt lat="42.12721940264433" lon="13.732146092664829"><ele>476.0</ele><time>2026-04-23T12:37:51Z</time></trkpt><trkpt lat="42.12735613586365" lon="13.732100022665824"><ele>476.0</ele><time>2026-04-23T12:37:52Z</time></trkpt><trkpt lat="42.127489377519986" lon="13.732026861461218"><ele>477.3333333333333</ele><time>2026-04-23T12:37:53Z</time></trkpt><trkpt lat="42.1276177798348" lon="13.731903380635682"><ele>478.66666666666663</ele><time>2026-04-23T12:37:54Z</time></trkpt><trkpt lat="42.127748456982985" lon="13.73174868062689"><ele>480.0</ele><time>2026-04-23T12:37:55Z</time></trkpt><trkpt lat="42.1278855007213" lon="13.731592011026097"><ele>480.0</ele><time>2026-04-23T12:37:56Z</time></trkpt><trkpt lat="42.128030411458845" lon="13.731432089543699"><ele>480.0</ele><time>2026-04-23T12:37:57Z</time></trkpt><trkpt lat="42.12816670331166" lon="13.731286829153515"><ele>480.0</ele><time>2026-04-23T12:37:58Z</time></trkpt><trkpt lat="42.128303652700524" lon="13.731133259281306"><ele>480.33333333333337</ele><time>2026-04-23T12:37:59Z</time></trkpt><trkpt lat="42.12843649957897" lon="13.730994083743909"><ele>480.6666666666667</ele><time>2026-04-23T12:38:00Z</time></trkpt><trkpt lat="42.12857472258891" lon="13.730858130345814"><ele>481.0</ele><time>2026-04-23T12:38:01Z</time></trkpt><trkpt lat="42.12871707058212" lon="13.730722317142787"><ele>481.0</ele><time>2026-04-23T12:38:02Z</time></trkpt><trkpt lat="42.128861793654835" lon="13.730584965188086"><ele>481.0</ele><time>2026-04-23T12:38:03Z</time></trkpt><trkpt lat="42.129007077773146" lon="13.730443268034861"><ele>481.0</ele><time>2026-04-23T12:38:04Z</time></trkpt><trkpt lat="42.129155152181006" lon="13.730317383082465"><ele>483.0</ele><time>2026-04-23T12:38:05Z</time></trkpt><trkpt lat="42.12930009399268" lon="13.730188748013328"><ele>485.0</ele><time>2026-04-23T12:38:06Z</time></trkpt><trkpt lat="42.129438759547455" lon="13.730030853685193"><ele>487.0</ele><time>2026-04-23T12:38:07Z</time></trkpt><trkpt lat="42.12955261766147" lon="13.72983895286832"><ele>487.0</ele><time>2026-04-23T12:38:08Z</time></trkpt><trkpt lat="42.12965115330029" lon="13.729620622937324"><ele>487.0</ele><time>2026-04-23T12:38:09Z</time></trkpt><trkpt lat="42.12975094627551" lon="13.729386501257036"><ele>487.0</ele><time>2026-04-23T12:38:10Z</time></trkpt><trkpt lat="42.1298567182209" lon="13.729162859189934"><ele>488.6666666666667</ele><time>2026-04-23T12:38:11Z</time></trkpt><trkpt lat="42.12997438341444" lon="13.728940252303769"><ele>490.33333333333337</ele><time>2026-04-23T12:38:12Z</time></trkpt><trkpt lat="42.13009574714985" lon="13.728717953352794"><ele>492.0</ele><time>2026-04-23T12:38:13Z</time></trkpt><trkpt lat="42.130222876778646" lon="13.728494976625333"><ele>492.0</ele><time>2026-04-23T12:38:14Z</time></trkpt><trkpt lat="42.13035545200038" lon="13.72828772422257"><ele>492.0</ele><time>2026-04-23T12:38:14.999Z</time></trkpt><trkpt lat="42.13051290010808" lon="13.72810397444382"><ele>492.0</ele><time>2026-04-23T12:38:15.999Z</time></trkpt><trkpt lat="42.13063228988599" lon="13.72791166228258"><ele>493.66666666666663</ele><time>2026-04-23T12:38:16.999Z</time></trkpt><trkpt lat="42.13075532246995" lon="13.727738915650855"><ele>495.3333333333333</ele><time>2026-04-23T12:38:17.999Z</time></trkpt><trkpt lat="42.1308784304518" lon="13.72759785117119"><ele>497.0</ele><time>2026-04-23T12:38:18.999Z</time></trkpt><trkpt lat="42.13097080584349" lon="13.72747070940221"><ele>496.99999999999994</ele><time>2026-04-23T12:38:19.999Z</time></trkpt><trkpt lat="42.13103362803339" lon="13.72736141545825"><ele>497.0</ele><time>2026-04-23T12:38:20.999Z</time></trkpt><trkpt lat="42.13111228220806" lon="13.727273319938057"><ele>497.0</ele><time>2026-04-23T12:38:21.999Z</time></trkpt><trkpt lat="42.1311847612562" lon="13.727214216910072"><ele>497.0</ele><time>2026-04-23T12:38:22.999Z</time></trkpt><trkpt lat="42.13126335297354" lon="13.72721201994357"><ele>496.99999999999994</ele><time>2026-04-23T12:38:23.999Z</time></trkpt><trkpt lat="42.131331241220515" lon="13.72726290121837"><ele>497.0</ele><time>2026-04-23T12:38:24.999Z</time></trkpt><trkpt lat="42.13135876350391" lon="13.727385373626582"><ele>497.0</ele><time>2026-04-23T12:38:25.999Z</time></trkpt><trkpt lat="42.13133280826713" lon="13.72750822633707"><ele>497.0</ele><time>2026-04-23T12:38:26.999Z</time></trkpt><trkpt lat="42.13123786903698" lon="13.727596413763553"><ele>497.0</ele><time>2026-04-23T12:38:27.999Z</time></trkpt><trkpt lat="42.13116099468689" lon="13.727730555943637"><ele>497.0</ele><time>2026-04-23T12:38:28.999Z</time></trkpt><trkpt lat="42.13106344704973" lon="13.727870385055418"><ele>499.0</ele><time>2026-04-23T12:38:29.999Z</time></trkpt><trkpt lat="42.13096170585922" lon="13.728018419463053"><ele>501.0</ele><time>2026-04-23T12:38:30.999Z</time></trkpt><trkpt lat="42.13085075184185" lon="13.728172625314464"><ele>503.0</ele><time>2026-04-23T12:38:31.999Z</time></trkpt><trkpt lat="42.130730875238385" lon="13.728333810549978"><ele>501.0</ele><time>2026-04-23T12:38:32.999Z</time></trkpt><trkpt lat="42.13061733425875" lon="13.72849801468213"><ele>499.0</ele><time>2026-04-23T12:38:33.999Z</time></trkpt><trkpt lat="42.13051031135652" lon="13.728641299259717"><ele>497.0</ele><time>2026-04-23T12:38:34.999Z</time></trkpt><trkpt lat="42.130414737911686" lon="13.728764509863579"><ele>497.0</ele><time>2026-04-23T12:38:35.999Z</time></trkpt><trkpt lat="42.13033058242798" lon="13.728874055804598"><ele>497.0</ele><time>2026-04-23T12:38:36.999Z</time></trkpt><trkpt lat="42.130276538682494" lon="13.729004765801742"><ele>497.0</ele><time>2026-04-23T12:38:37.999Z</time></trkpt><trkpt lat="42.13024411188868" lon="13.72916890007161"><ele>497.0</ele><time>2026-04-23T12:38:38.999Z</time></trkpt><trkpt lat="42.13021547873019" lon="13.729355761992565"><ele>498.0</ele><time>2026-04-23T12:38:39.999Z</time></trkpt><trkpt lat="42.130195501586385" lon="13.729555348011566"><ele>499.0</ele><time>2026-04-23T12:38:40.999Z</time></trkpt><trkpt lat="42.130187356826355" lon="13.729755411015551"><ele>500.0</ele><time>2026-04-23T12:38:41.999Z</time></trkpt><trkpt lat="42.130181944339014" lon="13.729934390683713"><ele>501.0</ele><time>2026-04-23T12:38:42.999Z</time></trkpt><trkpt lat="42.130162553704245" lon="13.73006945602683"><ele>501.0</ele><time>2026-04-23T12:38:43.999Z</time></trkpt><trkpt lat="42.1301451254602" lon="13.73017774499187"><ele>501.0</ele><time>2026-04-23T12:38:44.999Z</time></trkpt><trkpt lat="42.130138349427554" lon="13.73028315188945"><ele>501.0</ele><time>2026-04-23T12:38:45.999Z</time></trkpt><trkpt lat="42.13017155774855" lon="13.730392823295047"><ele>501.0</ele><time>2026-04-23T12:38:46.999Z</time></trkpt><trkpt lat="42.13023810544694" lon="13.730488730387137"><ele>501.0</ele><time>2026-04-23T12:38:47.999Z</time></trkpt><trkpt lat="42.130331847078686" lon="13.730554344347544"><ele>501.8</ele><time>2026-04-23T12:38:48.999Z</time></trkpt><trkpt lat="42.13044221721078" lon="13.730593066197821"><ele>502.6</ele><time>2026-04-23T12:38:49.999Z</time></trkpt><trkpt lat="42.13052977963393" lon="13.730694040874646"><ele>503.4</ele><time>2026-04-23T12:38:50.999Z</time></trkpt><trkpt lat="42.13061502457607" lon="13.730772671841246"><ele>504.2</ele><time>2026-04-23T12:38:51.999Z</time></trkpt><trkpt lat="42.13066485641077" lon="13.730864515104559"><ele>505.0</ele><time>2026-04-23T12:38:52.999Z</time></trkpt><trkpt lat="42.13070202980996" lon="13.730984838869524"><ele>502.5</ele><time>2026-04-23T12:38:53.999Z</time></trkpt><trkpt lat="42.13076411743785" lon="13.731095699312522"><ele>500.0</ele><time>2026-04-23T12:38:54.999Z</time></trkpt><trkpt lat="42.13085675036979" lon="13.73118580763953"><ele>497.5</ele><time>2026-04-23T12:38:55.999Z</time></trkpt><trkpt lat="42.13098605666325" lon="13.731231775765307"><ele>495.0</ele><time>2026-04-23T12:38:56.999Z</time></trkpt><trkpt lat="42.131127413979925" lon="13.73121974356529"><ele>495.0</ele><time>2026-04-23T12:38:57.999Z</time></trkpt><trkpt lat="42.13127489177899" lon="13.731224286742709"><ele>495.0</ele><time>2026-04-23T12:38:58.999Z</time></trkpt><trkpt lat="42.13141179134947" lon="13.731242255307649"><ele>495.0</ele><time>2026-04-23T12:38:59.999Z</time></trkpt><trkpt lat="42.131536501297035" lon="13.73131657815693"><ele>495.0</ele><time>2026-04-23T12:39:00.999Z</time></trkpt><trkpt lat="42.131655007923555" lon="13.731436771718007"><ele>497.5</ele><time>2026-04-23T12:39:01.999Z</time></trkpt><trkpt lat="42.13177659055644" lon="13.731572378504907"><ele>500.0</ele><time>2026-04-23T12:39:02.999Z</time></trkpt><trkpt lat="42.13189457577654" lon="13.731694110616074"><ele>502.5</ele><time>2026-04-23T12:39:03.999Z</time></trkpt><trkpt lat="42.13200670824708" lon="13.731795444118623"><ele>505.0</ele><time>2026-04-23T12:39:04.999Z</time></trkpt><trkpt lat="42.132140552057685" lon="13.731858385734926"><ele>505.0</ele><time>2026-04-23T12:39:05.999Z</time></trkpt><trkpt lat="42.13229881782382" lon="13.731882700889345"><ele>505.0</ele><time>2026-04-23T12:39:06.999Z</time></trkpt><trkpt lat="42.13246432996832" lon="13.731856188364514"><ele>505.0</ele><time>2026-04-23T12:39:07.999Z</time></trkpt><trkpt lat="42.13262349049358" lon="13.731794877970518"><ele>505.75</ele><time>2026-04-23T12:39:08.999Z</time></trkpt><trkpt lat="42.13276669515974" lon="13.731725999658808"><ele>506.5</ele><time>2026-04-23T12:39:09.999Z</time></trkpt><trkpt lat="42.132900230408126" lon="13.731679222539524"><ele>507.25</ele><time>2026-04-23T12:39:10.999Z</time></trkpt><trkpt lat="42.133034012359055" lon="13.73166418136585"><ele>508.0</ele><time>2026-04-23T12:39:11.999Z</time></trkpt><trkpt lat="42.13316587037756" lon="13.731723341333128"><ele>507.25</ele><time>2026-04-23T12:39:12.999Z</time></trkpt><trkpt lat="42.13329786609775" lon="13.731806935254253"><ele>506.5</ele><time>2026-04-23T12:39:13.999Z</time></trkpt><trkpt lat="42.13342779241236" lon="13.731919526345825"><ele>505.75</ele><time>2026-04-23T12:39:14.999Z</time></trkpt><trkpt lat="42.133561450177304" lon="13.732006825791"><ele>505.0</ele><time>2026-04-23T12:39:15.999Z</time></trkpt><trkpt lat="42.13367926691638" lon="13.732083464176894"><ele>503.5</ele><time>2026-04-23T12:39:16.999Z</time></trkpt><trkpt lat="42.13381535618974" lon="13.732127243460884"><ele>502.0</ele><time>2026-04-23T12:39:17.999Z</time></trkpt><trkpt lat="42.13394510091823" lon="13.73219760409431"><ele>500.5</ele><time>2026-04-23T12:39:18.999Z</time></trkpt><trkpt lat="42.1340680589784" lon="13.73227661924252"><ele>499.0</ele><time>2026-04-23T12:39:19.999Z</time></trkpt><trkpt lat="42.134177223842826" lon="13.732403261015602"><ele>499.0</ele><time>2026-04-23T12:39:20.999Z</time></trkpt><trkpt lat="42.13429451457333" lon="13.73253959259717"><ele>499.0</ele><time>2026-04-23T12:39:21.999Z</time></trkpt><trkpt lat="42.134391877904406" lon="13.732716464777587"><ele>499.0</ele><time>2026-04-23T12:39:22.999Z</time></trkpt><trkpt lat="42.134494563356384" lon="13.732900246002938"><ele>492.33333333333337</ele><time>2026-04-23T12:39:23.999Z</time></trkpt><trkpt lat="42.13460415747443" lon="13.733077667128281"><ele>485.66666666666663</ele><time>2026-04-23T12:39:24.999Z</time></trkpt><trkpt lat="42.134723501090896" lon="13.73323953580813"><ele>479.0</ele><time>2026-04-23T12:39:25.999Z</time></trkpt><trkpt lat="42.13486576059903" lon="13.733367620034779"><ele>477.66666666666663</ele><time>2026-04-23T12:39:26.999Z</time></trkpt><trkpt lat="42.135027206753875" lon="13.733475160760715"><ele>476.33333333333337</ele><time>2026-04-23T12:39:27.999Z</time></trkpt><trkpt lat="42.13515006155634" lon="13.733627178076457"><ele>475.0</ele><time>2026-04-23T12:39:28.999Z</time></trkpt><trkpt lat="42.13525868707991" lon="13.733796536901224"><ele>475.0</ele><time>2026-04-23T12:39:29.999Z</time></trkpt><trkpt lat="42.135375355919024" lon="13.733970719370614"><ele>475.0</ele><time>2026-04-23T12:39:30.999Z</time></trkpt><trkpt lat="42.135494921743025" lon="13.734126350375131"><ele>475.0</ele><time>2026-04-23T12:39:31.999Z</time></trkpt><trkpt lat="42.13560882892658" lon="13.73426800342468"><ele>473.6666666666667</ele><time>2026-04-23T12:39:32.999Z</time></trkpt><trkpt lat="42.135680270914115" lon="13.73444640288277"><ele>472.33333333333337</ele><time>2026-04-23T12:39:33.999Z</time></trkpt><trkpt lat="42.13575844483038" lon="13.734648829881118"><ele>471.0</ele><time>2026-04-23T12:39:34.999Z</time></trkpt><trkpt lat="42.13584161665132" lon="13.734847953044001"><ele>473.25</ele><time>2026-04-23T12:39:35.999Z</time></trkpt><trkpt lat="42.135907086963954" lon="13.735037840509333"><ele>475.5</ele><time>2026-04-23T12:39:36.999Z</time></trkpt><trkpt lat="42.1359528423498" lon="13.735225783058668"><ele>477.75</ele><time>2026-04-23T12:39:37.999Z</time></trkpt><trkpt lat="42.13595728348149" lon="13.735416236381123"><ele>480.0</ele><time>2026-04-23T12:39:38.999Z</time></trkpt><trkpt lat="42.135946102087956" lon="13.735607243806168"><ele>480.0</ele><time>2026-04-23T12:39:39.999Z</time></trkpt><trkpt lat="42.13589273031721" lon="13.735788591100057"><ele>480.0</ele><time>2026-04-23T12:39:41Z</time></trkpt><trkpt lat="42.13584125896103" lon="13.735987393686118"><ele>480.0</ele><time>2026-04-23T12:39:42Z</time></trkpt><trkpt lat="42.13576415397976" lon="13.736177907858943"><ele>477.0</ele><time>2026-04-23T12:39:43Z</time></trkpt><trkpt lat="42.13570571887281" lon="13.736345482429414"><ele>474.0</ele><time>2026-04-23T12:39:44Z</time></trkpt><trkpt lat="42.13566670889414" lon="13.736504070552131"><ele>471.0</ele><time>2026-04-23T12:39:45Z</time></trkpt><trkpt lat="42.135662941074614" lon="13.736659246267255"><ele>468.0</ele><time>2026-04-23T12:39:46Z</time></trkpt><trkpt lat="42.13570818371159" lon="13.736802644142921"><ele>467.75</ele><time>2026-04-23T12:39:47Z</time></trkpt><trkpt lat="42.13580895659" lon="13.736919681931726"><ele>467.5</ele><time>2026-04-23T12:39:48Z</time></trkpt><trkpt lat="42.13594614012206" lon="13.737012999916013"><ele>467.25</ele><time>2026-04-23T12:39:49Z</time></trkpt><trkpt lat="42.13610468668422" lon="13.737053945660161"><ele>467.0</ele><time>2026-04-23T12:39:50Z</time></trkpt><trkpt lat="42.1362937190013" lon="13.737055516201655"><ele>467.0</ele><time>2026-04-23T12:39:51Z</time></trkpt><trkpt lat="42.13649850429081" lon="13.737029156683379"><ele>467.0</ele><time>2026-04-23T12:39:52Z</time></trkpt><trkpt lat="42.1366942084101" lon="13.737040507158873"><ele>467.0</ele><time>2026-04-23T12:39:53Z</time></trkpt><trkpt lat="42.136872926871405" lon="13.737064158071886"><ele>467.0</ele><time>2026-04-23T12:39:54Z</time></trkpt><trkpt lat="42.13705573509375" lon="13.737127786958682"><ele>467.0</ele><time>2026-04-23T12:39:55Z</time></trkpt><trkpt lat="42.137226748922565" lon="13.737209900599138"><ele>467.0</ele><time>2026-04-23T12:39:56Z</time></trkpt><trkpt lat="42.13738870531529" lon="13.737275831983943"><ele>468.3333333333333</ele><time>2026-04-23T12:39:57Z</time></trkpt><trkpt lat="42.13754401512849" lon="13.737350218386606"><ele>469.66666666666663</ele><time>2026-04-23T12:39:58Z</time></trkpt><trkpt lat="42.137714096209606" lon="13.737403523331155"><ele>471.0</ele><time>2026-04-23T12:39:59Z</time></trkpt><trkpt lat="42.1378887832533" lon="13.737433865730715"><ele>471.0</ele><time>2026-04-23T12:40:00Z</time></trkpt><trkpt lat="42.13806714481601" lon="13.737440046824098"><ele>471.0</ele><time>2026-04-23T12:40:01Z</time></trkpt><trkpt lat="42.13823772503593" lon="13.737434513470799"><ele>471.0</ele><time>2026-04-23T12:40:02Z</time></trkpt><trkpt lat="42.138398330311624" lon="13.737452112115093"><ele>471.5</ele><time>2026-04-23T12:40:03Z</time></trkpt><trkpt lat="42.138555553001964" lon="13.7374337703708"><ele>472.0</ele><time>2026-04-23T12:40:04Z</time></trkpt><trkpt lat="42.138704220420586" lon="13.737445414543858"><ele>472.5</ele><time>2026-04-23T12:40:05Z</time></trkpt><trkpt lat="42.13884602634346" lon="13.737454361166431"><ele>473.0</ele><time>2026-04-23T12:40:06Z</time></trkpt><trkpt lat="42.13897925044341" lon="13.737510552556959"><ele>474.66666666666663</ele><time>2026-04-23T12:40:07Z</time></trkpt><trkpt lat="42.13911834401248" lon="13.737574542989675"><ele>476.33333333333337</ele><time>2026-04-23T12:40:08Z</time></trkpt><trkpt lat="42.139268239122245" lon="13.737660825898324"><ele>478.0</ele><time>2026-04-23T12:40:09Z</time></trkpt><trkpt lat="42.139419058094916" lon="13.737765874506026"><ele>471.0</ele><time>2026-04-23T12:40:10Z</time></trkpt><trkpt lat="42.13956578871972" lon="13.73789109680146"><ele>464.0</ele><time>2026-04-23T12:40:11Z</time></trkpt><trkpt lat="42.13970938129225" lon="13.738041583110618"><ele>457.0</ele><time>2026-04-23T12:40:12Z</time></trkpt><trkpt lat="42.139846921631744" lon="13.738232903896993"><ele>456.33333333333337</ele><time>2026-04-23T12:40:13Z</time></trkpt><trkpt lat="42.14000324323238" lon="13.738434027325951"><ele>455.66666666666663</ele><time>2026-04-23T12:40:14Z</time></trkpt><trkpt lat="42.14016019620364" lon="13.738638074561278"><ele>455.0</ele><time>2026-04-23T12:40:15Z</time></trkpt><trkpt lat="42.14032699241112" lon="13.738831995328416"><ele>455.0</ele><time>2026-04-23T12:40:16Z</time></trkpt><trkpt lat="42.14048785063607" lon="13.739011408368109"><ele>455.0</ele><time>2026-04-23T12:40:17Z</time></trkpt><trkpt lat="42.14062524885614" lon="13.739200735972293"><ele>455.0</ele><time>2026-04-23T12:40:17.999Z</time></trkpt><trkpt lat="42.14074959584938" lon="13.73936703965432"><ele>456.3333333333333</ele><time>2026-04-23T12:40:18.999Z</time></trkpt><trkpt lat="42.14084700396521" lon="13.739539792043443"><ele>457.66666666666663</ele><time>2026-04-23T12:40:19.999Z</time></trkpt><trkpt lat="42.1409234044989" lon="13.7397199182729"><ele>459.0</ele><time>2026-04-23T12:40:20.999Z</time></trkpt><trkpt lat="42.14097275916102" lon="13.739902516737189"><ele>459.0</ele><time>2026-04-23T12:40:21.999Z</time></trkpt><trkpt lat="42.1409977424201" lon="13.740107094880669"><ele>459.0</ele><time>2026-04-23T12:40:22.999Z</time></trkpt><trkpt lat="42.141011802240406" lon="13.74032696927875"><ele>459.0</ele><time>2026-04-23T12:40:23.999Z</time></trkpt><trkpt lat="42.14103384147752" lon="13.74057041371445"><ele>457.33333333333337</ele><time>2026-04-23T12:40:24.999Z</time></trkpt><trkpt lat="42.141055047186136" lon="13.740825618588403"><ele>455.6666666666667</ele><time>2026-04-23T12:40:25.999Z</time></trkpt><trkpt lat="42.14108472221357" lon="13.74108327634078"><ele>454.0</ele><time>2026-04-23T12:40:26.999Z</time></trkpt><trkpt lat="42.141110141924635" lon="13.741314617921569"><ele>453.25</ele><time>2026-04-23T12:40:27.999Z</time></trkpt><trkpt lat="42.141129832631165" lon="13.741528048414677"><ele>452.5</ele><time>2026-04-23T12:40:28.999Z</time></trkpt><trkpt lat="42.14114779071524" lon="13.741716949134737"><ele>451.75</ele><time>2026-04-23T12:40:29.999Z</time></trkpt><trkpt lat="42.14117001451663" lon="13.741860718020622"><ele>451.0</ele><time>2026-04-23T12:40:30.999Z</time></trkpt><trkpt lat="42.14121787709461" lon="13.741995222296904"><ele>450.5</ele><time>2026-04-23T12:40:31.999Z</time></trkpt><trkpt lat="42.14130061670228" lon="13.742103780313096"><ele>450.0</ele><time>2026-04-23T12:40:32.999Z</time></trkpt><trkpt lat="42.14139652849825" lon="13.742207648863033"><ele>449.5</ele><time>2026-04-23T12:40:33.999Z</time></trkpt><trkpt lat="42.14150887761977" lon="13.742243842136464"><ele>449.0</ele><time>2026-04-23T12:40:34.999Z</time></trkpt><trkpt lat="42.141614101008145" lon="13.742257578378881"><ele>449.0</ele><time>2026-04-23T12:40:35.999Z</time></trkpt><trkpt lat="42.14173866868006" lon="13.742239591831227"><ele>449.0</ele><time>2026-04-23T12:40:36.999Z</time></trkpt><trkpt lat="42.141870713171464" lon="13.742215332979528"><ele>449.0</ele><time>2026-04-23T12:40:37.999Z</time></trkpt><trkpt lat="42.14198631252431" lon="13.7422303260357"><ele>449.0</ele><time>2026-04-23T12:40:38.999Z</time></trkpt><trkpt lat="42.14209920558121" lon="13.74222149071619"><ele>449.0</ele><time>2026-04-23T12:40:39.999Z</time></trkpt><trkpt lat="42.14220586349835" lon="13.742265160209545"><ele>449.0</ele><time>2026-04-23T12:40:40.999Z</time></trkpt><trkpt lat="42.14231966112201" lon="13.742328520274555"><ele>449.0</ele><time>2026-04-23T12:40:41.999Z</time></trkpt><trkpt lat="42.14241912092369" lon="13.742441787770833"><ele>449.0</ele><time>2026-04-23T12:40:42.999Z</time></trkpt><trkpt lat="42.14251425845758" lon="13.742565851125901"><ele>449.5</ele><time>2026-04-23T12:40:43.999Z</time></trkpt><trkpt lat="42.14259534262413" lon="13.74272033852762"><ele>450.0</ele><time>2026-04-23T12:40:44.999Z</time></trkpt><trkpt lat="42.142654069048405" lon="13.74289242110889"><ele>450.5</ele><time>2026-04-23T12:40:45.999Z</time></trkpt><trkpt lat="42.142687767711195" lon="13.74306988448031"><ele>451.0</ele><time>2026-04-23T12:40:46.999Z</time></trkpt><trkpt lat="42.14268567299873" lon="13.743269137436993"><ele>451.0</ele><time>2026-04-23T12:40:47.999Z</time></trkpt><trkpt lat="42.142660261828304" lon="13.743480815967498"><ele>451.0</ele><time>2026-04-23T12:40:48.999Z</time></trkpt><trkpt lat="42.14261343970252" lon="13.743712466330626"><ele>451.0</ele><time>2026-04-23T12:40:49.999Z</time></trkpt><trkpt lat="42.14257165198286" lon="13.743946493378214"><ele>452.6666666666667</ele><time>2026-04-23T12:40:50.999Z</time></trkpt><trkpt lat="42.1425137569036" lon="13.744194806732597"><ele>454.33333333333337</ele><time>2026-04-23T12:40:51.999Z</time></trkpt><trkpt lat="42.142471721646004" lon="13.744419555981429"><ele>456.0</ele><time>2026-04-23T12:40:52.999Z</time></trkpt><trkpt lat="42.1424267962461" lon="13.744584558083421"><ele>453.33333333333337</ele><time>2026-04-23T12:40:53.999Z</time></trkpt><trkpt lat="42.14235792927449" lon="13.744731571845058"><ele>450.6666666666667</ele><time>2026-04-23T12:40:54.999Z</time></trkpt><trkpt lat="42.14225594103002" lon="13.744883350189342"><ele>448.0</ele><time>2026-04-23T12:40:55.999Z</time></trkpt><trkpt lat="42.142132345856595" lon="13.745054052098302"><ele>456.6666666666667</ele><time>2026-04-23T12:40:56.999Z</time></trkpt><trkpt lat="42.14200030832317" lon="13.74521619276996"><ele>465.33333333333337</ele><time>2026-04-23T12:40:57.999Z</time></trkpt><trkpt lat="42.141872202274904" lon="13.745337960636677"><ele>474.0</ele><time>2026-04-23T12:40:58.999Z</time></trkpt><trkpt lat="42.1417381231331" lon="13.745402538143312"><ele>474.0</ele><time>2026-04-23T12:40:59.999Z</time></trkpt><trkpt lat="42.141587108786084" lon="13.74542597671354"><ele>474.0</ele><time>2026-04-23T12:41:00.999Z</time></trkpt><trkpt lat="42.14139665113284" lon="13.745430022120274"><ele>474.0</ele><time>2026-04-23T12:41:01.999Z</time></trkpt><trkpt lat="42.141186967005545" lon="13.745430022119479"><ele>473.66666666666663</ele><time>2026-04-23T12:41:02.999Z</time></trkpt><trkpt lat="42.14096698832798" lon="13.745430022118704"><ele>473.3333333333333</ele><time>2026-04-23T12:41:03.999Z</time></trkpt><trkpt lat="42.14075870938003" lon="13.745427131746204"><ele>473.0</ele><time>2026-04-23T12:41:04.999Z</time></trkpt><trkpt lat="42.1405711861485" lon="13.745416129943154"><ele>469.66666666666663</ele><time>2026-04-23T12:41:05.999Z</time></trkpt><trkpt lat="42.140386996466276" lon="13.745396472910507"><ele>466.33333333333337</ele><time>2026-04-23T12:41:06.999Z</time></trkpt><trkpt lat="42.14021755918898" lon="13.745378248347286"><ele>463.0</ele><time>2026-04-23T12:41:07.999Z</time></trkpt><trkpt lat="42.140049381411146" lon="13.745375685285264"><ele>463.0</ele><time>2026-04-23T12:41:08.999Z</time></trkpt><trkpt lat="42.13988906702535" lon="13.745358612987168"><ele>463.0</ele><time>2026-04-23T12:41:09.999Z</time></trkpt><trkpt lat="42.13974518273274" lon="13.745366052916703"><ele>463.0</ele><time>2026-04-23T12:41:10.999Z</time></trkpt><trkpt lat="42.13961743816399" lon="13.745411522958339"><ele>463.0</ele><time>2026-04-23T12:41:11.999Z</time></trkpt><trkpt lat="42.1394948445252" lon="13.745508076255422"><ele>458.33333333333337</ele><time>2026-04-23T12:41:12.999Z</time></trkpt><trkpt lat="42.13938236973839" lon="13.745654089603743"><ele>453.66666666666663</ele><time>2026-04-23T12:41:13.999Z</time></trkpt><trkpt lat="42.13928734559242" lon="13.7458390475866"><ele>449.0</ele><time>2026-04-23T12:41:14.999Z</time></trkpt><trkpt lat="42.139223544163116" lon="13.74602239469516"><ele>450.25</ele><time>2026-04-23T12:41:15.999Z</time></trkpt><trkpt lat="42.139187425519076" lon="13.746183553706679"><ele>451.5</ele><time>2026-04-23T12:41:16.999Z</time></trkpt><trkpt lat="42.1391884465846" lon="13.746338769100802"><ele>452.75</ele><time>2026-04-23T12:41:17.999Z</time></trkpt><trkpt lat="42.13923720187869" lon="13.74648516818664"><ele>454.0</ele><time>2026-04-23T12:41:18.999Z</time></trkpt><trkpt lat="42.13932996081115" lon="13.74662290666658"><ele>454.0</ele><time>2026-04-23T12:41:19.999Z</time></trkpt><trkpt lat="42.1394511448088" lon="13.746771538414864"><ele>454.0</ele><time>2026-04-23T12:41:20.999Z</time></trkpt><trkpt lat="42.13946465476528" lon="13.74695395856176"><ele>454.0</ele><time>2026-04-23T12:41:21.999Z</time></trkpt><trkpt lat="42.139418660597755" lon="13.747159926126448"><ele>455.33333333333337</ele><time>2026-04-23T12:41:22.999Z</time></trkpt><trkpt lat="42.13939402524311" lon="13.747408315229713"><ele>456.66666666666663</ele><time>2026-04-23T12:41:23.999Z</time></trkpt><trkpt lat="42.13935498310184" lon="13.747678588916324"><ele>458.0</ele><time>2026-04-23T12:41:24.999Z</time></trkpt><trkpt lat="42.13933864944478" lon="13.747975397469771"><ele>458.0</ele><time>2026-04-23T12:41:25.999Z</time></trkpt><trkpt lat="42.139332704435525" lon="13.748277312535691"><ele>458.0</ele><time>2026-04-23T12:41:26.999Z</time></trkpt><trkpt lat="42.139326149448706" lon="13.748547935172382"><ele>458.0</ele><time>2026-04-23T12:41:27.999Z</time></trkpt><trkpt lat="42.1392933252361" lon="13.748773176330308"><ele>458.0</ele><time>2026-04-23T12:41:28.999Z</time></trkpt><trkpt lat="42.1392516905611" lon="13.748975055577809"><ele>458.0</ele><time>2026-04-23T12:41:29.999Z</time></trkpt><trkpt lat="42.13920198847272" lon="13.749173403643479"><ele>458.0</ele><time>2026-04-23T12:41:30.999Z</time></trkpt><trkpt lat="42.13915846415276" lon="13.749378863393416"><ele>460.5</ele><time>2026-04-23T12:41:31.999Z</time></trkpt><trkpt lat="42.13910688785527" lon="13.749586822919534"><ele>463.0</ele><time>2026-04-23T12:41:32.999Z</time></trkpt><trkpt lat="42.13901475442438" lon="13.749753223492057"><ele>465.5</ele><time>2026-04-23T12:41:33.999Z</time></trkpt><trkpt lat="42.13891357675209" lon="13.749837158424604"><ele>468.0</ele><time>2026-04-23T12:41:34.999Z</time></trkpt><trkpt lat="42.13881819504048" lon="13.75002727366934"><ele>468.0</ele><time>2026-04-23T12:41:35.999Z</time></trkpt><trkpt lat="42.138783873922925" lon="13.75015529177815"><ele>468.0</ele><time>2026-04-23T12:41:36.999Z</time></trkpt><trkpt lat="42.13873733196451" lon="13.750353080074403"><ele>468.0</ele><time>2026-04-23T12:41:37.999Z</time></trkpt><trkpt lat="42.13866579324325" lon="13.75062729211401"><ele>464.33333333333337</ele><time>2026-04-23T12:41:38.999Z</time></trkpt><trkpt lat="42.13859963927363" lon="13.750889123813213"><ele>460.6666666666667</ele><time>2026-04-23T12:41:39.999Z</time></trkpt><trkpt lat="42.138524362760826" lon="13.751133409128256"><ele>457.0</ele><time>2026-04-23T12:41:40.999Z</time></trkpt><trkpt lat="42.138451690336446" lon="13.751339735296751"><ele>456.6666666666667</ele><time>2026-04-23T12:41:41.999Z</time></trkpt><trkpt lat="42.13837954620662" lon="13.751523484298072"><ele>456.33333333333337</ele><time>2026-04-23T12:41:42.999Z</time></trkpt><trkpt lat="42.138249571075995" lon="13.751679670361122"><ele>456.0</ele><time>2026-04-23T12:41:43.999Z</time></trkpt><trkpt lat="42.13812358027731" lon="13.751889960397456"><ele>451.33333333333337</ele><time>2026-04-23T12:41:44.998Z</time></trkpt><trkpt lat="42.13797360499196" lon="13.752094300573926"><ele>446.6666666666667</ele><time>2026-04-23T12:41:45.998Z</time></trkpt><trkpt lat="42.137828738714035" lon="13.752319374598352"><ele>442.0</ele><time>2026-04-23T12:41:47Z</time></trkpt><trkpt lat="42.13767516683375" lon="13.752550743035837"><ele>441.6666666666667</ele><time>2026-04-23T12:41:48Z</time></trkpt><trkpt lat="42.13751588930381" lon="13.7527388268744"><ele>441.33333333333337</ele><time>2026-04-23T12:41:49Z</time></trkpt><trkpt lat="42.13741323321595" lon="13.752976195120322"><ele>441.0</ele><time>2026-04-23T12:41:50Z</time></trkpt><trkpt lat="42.13731420138555" lon="13.753140471704233"><ele>441.0</ele><time>2026-04-23T12:41:51Z</time></trkpt><trkpt lat="42.137223763578675" lon="13.753274748394054"><ele>441.0</ele><time>2026-04-23T12:41:52Z</time></trkpt><trkpt lat="42.13712787703669" lon="13.7533985580487"><ele>441.0</ele><time>2026-04-23T12:41:53Z</time></trkpt><trkpt lat="42.1370049457269" lon="13.753492751539131"><ele>441.0</ele><time>2026-04-23T12:41:54Z</time></trkpt><trkpt lat="42.13684153762486" lon="13.75354128776757"><ele>442.0</ele><time>2026-04-23T12:41:55Z</time></trkpt><trkpt lat="42.136660678106885" lon="13.753614940996798"><ele>443.0</ele><time>2026-04-23T12:41:56Z</time></trkpt><trkpt lat="42.136473037825255" lon="13.753687365136463"><ele>444.0</ele><time>2026-04-23T12:41:57Z</time></trkpt><trkpt lat="42.136286759777924" lon="13.75381469834112"><ele>444.0</ele><time>2026-04-23T12:41:58Z</time></trkpt><trkpt lat="42.13609232043406" lon="13.75396836582374"><ele>444.0</ele><time>2026-04-23T12:41:59Z</time></trkpt><trkpt lat="42.13589348856953" lon="13.754116149611919"><ele>444.5</ele><time>2026-04-23T12:42:00Z</time></trkpt><trkpt lat="42.13568347227768" lon="13.75426589775364"><ele>445.0</ele><time>2026-04-23T12:42:01Z</time></trkpt><trkpt lat="42.13546768637572" lon="13.754416496260372"><ele>445.0</ele><time>2026-04-23T12:42:02Z</time></trkpt><trkpt lat="42.13525268914792" lon="13.754571481358262"><ele>445.0</ele><time>2026-04-23T12:42:03Z</time></trkpt><trkpt lat="42.135047303771685" lon="13.754714702561209"><ele>441.33333333333337</ele><time>2026-04-23T12:42:04Z</time></trkpt><trkpt lat="42.1348556929138" lon="13.754847872699559"><ele>437.66666666666663</ele><time>2026-04-23T12:42:05Z</time></trkpt><trkpt lat="42.13467461514338" lon="13.754974859764367"><ele>434.0</ele><time>2026-04-23T12:42:06Z</time></trkpt><trkpt lat="42.13450382539087" lon="13.755093792062382"><ele>436.66666666666663</ele><time>2026-04-23T12:42:07Z</time></trkpt><trkpt lat="42.134345055002605" lon="13.755206370180808"><ele>439.33333333333337</ele><time>2026-04-23T12:42:08Z</time></trkpt><trkpt lat="42.13419508514625" lon="13.755310144918358"><ele>442.0</ele><time>2026-04-23T12:42:09Z</time></trkpt><trkpt lat="42.13406058792382" lon="13.755429482664322"><ele>439.0</ele><time>2026-04-23T12:42:10Z</time></trkpt><trkpt lat="42.1339479807807" lon="13.75558145790973"><ele>436.0</ele><time>2026-04-23T12:42:11Z</time></trkpt><trkpt lat="42.1338543954779" lon="13.75575005361834"><ele>433.0</ele><time>2026-04-23T12:42:12Z</time></trkpt><trkpt lat="42.1337848433037" lon="13.755952528760066"><ele>432.6666666666667</ele><time>2026-04-23T12:42:13Z</time></trkpt><trkpt lat="42.13374575263043" lon="13.756203561316926"><ele>432.33333333333337</ele><time>2026-04-23T12:42:14Z</time></trkpt><trkpt lat="42.133727625898864" lon="13.756489196815751"><ele>432.0</ele><time>2026-04-23T12:42:14.999Z</time></trkpt><trkpt lat="42.133712030754054" lon="13.756796504791332"><ele>432.66666666666663</ele><time>2026-04-23T12:42:15.999Z</time></trkpt><trkpt lat="42.13369159893558" lon="13.757104358781787"><ele>433.3333333333333</ele><time>2026-04-23T12:42:16.999Z</time></trkpt><trkpt lat="42.13366637766095" lon="13.7573915693045"><ele>434.0</ele><time>2026-04-23T12:42:17.999Z</time></trkpt><trkpt lat="42.13364876823703" lon="13.757653045582465"><ele>434.66666666666663</ele><time>2026-04-23T12:42:18.999Z</time></trkpt><trkpt lat="42.13361284184339" lon="13.757892970543704"><ele>435.33333333333337</ele><time>2026-04-23T12:42:19.999Z</time></trkpt><trkpt lat="42.13360805298359" lon="13.75811417151995"><ele>436.0</ele><time>2026-04-23T12:42:20.999Z</time></trkpt><trkpt lat="42.133577226320135" lon="13.75831619989602"><ele>436.0</ele><time>2026-04-23T12:42:21.999Z</time></trkpt><trkpt lat="42.13352886047104" lon="13.758504865955839"><ele>436.0</ele><time>2026-04-23T12:42:22.999Z</time></trkpt><trkpt lat="42.133445418136894" lon="13.758686737301664"><ele>436.0</ele><time>2026-04-23T12:42:23.999Z</time></trkpt><trkpt lat="42.13331019489062" lon="13.758843771088092"><ele>435.0</ele><time>2026-04-23T12:42:24.999Z</time></trkpt><trkpt lat="42.13317583710904" lon="13.759042727052924"><ele>434.0</ele><time>2026-04-23T12:42:25.999Z</time></trkpt><trkpt lat="42.13302121840079" lon="13.75922626096112"><ele>433.0</ele><time>2026-04-23T12:42:26.999Z</time></trkpt><trkpt lat="42.132878180335716" lon="13.759399582771175"><ele>434.5</ele><time>2026-04-23T12:42:27.999Z</time></trkpt><trkpt lat="42.13276009782323" lon="13.759539517922665"><ele>436.0</ele><time>2026-04-23T12:42:28.999Z</time></trkpt><trkpt lat="42.13266005996003" lon="13.759653093365152"><ele>437.5</ele><time>2026-04-23T12:42:29.999Z</time></trkpt><trkpt lat="42.13254995991378" lon="13.759706580079122"><ele>439.0</ele><time>2026-04-23T12:42:30.999Z</time></trkpt><trkpt lat="42.132444226281635" lon="13.759766999323165"><ele>441.0</ele><time>2026-04-23T12:42:31.999Z</time></trkpt><trkpt lat="42.1323443765635" lon="13.7598240563304"><ele>443.0</ele><time>2026-04-23T12:42:32.999Z</time></trkpt><trkpt lat="42.132234235166166" lon="13.759892462819343"><ele>445.0</ele><time>2026-04-23T12:42:33.999Z</time></trkpt><trkpt lat="42.132218435695556" lon="13.760293545737944"><ele>441.6666666666667</ele><time>2026-04-23T12:42:34.999Z</time></trkpt><trkpt lat="42.13212916898248" lon="13.760541596357179"><ele>438.33333333333337</ele><time>2026-04-23T12:42:35.999Z</time></trkpt><trkpt lat="42.132026854217116" lon="13.760798773276735"><ele>435.0</ele><time>2026-04-23T12:42:36.999Z</time></trkpt><trkpt lat="42.131922751673194" lon="13.761040083902742"><ele>435.0</ele><time>2026-04-23T12:42:37.999Z</time></trkpt><trkpt lat="42.13185491054822" lon="13.761254089408286"><ele>435.0</ele><time>2026-04-23T12:42:38.999Z</time></trkpt><trkpt lat="42.13175703550396" lon="13.761466151543823"><ele>435.0</ele><time>2026-04-23T12:42:39.999Z</time></trkpt><trkpt lat="42.1316596176994" lon="13.761659433342459"><ele>432.33333333333337</ele><time>2026-04-23T12:42:40.999Z</time></trkpt><trkpt lat="42.131544652953416" lon="13.761842513399506"><ele>429.6666666666667</ele><time>2026-04-23T12:42:41.999Z</time></trkpt><trkpt lat="42.131410652025984" lon="13.762030664351458"><ele>427.0</ele><time>2026-04-23T12:42:42.999Z</time></trkpt><trkpt lat="42.13128110585142" lon="13.762233468968175"><ele>427.0</ele><time>2026-04-23T12:42:43.999Z</time></trkpt><trkpt lat="42.131150491552795" lon="13.762440069560029"><ele>427.0</ele><time>2026-04-23T12:42:44.999Z</time></trkpt><trkpt lat="42.13103021042296" lon="13.76263008666708"><ele>427.0</ele><time>2026-04-23T12:42:45.999Z</time></trkpt><trkpt lat="42.130913418046376" lon="13.762810924609287"><ele>429.6666666666667</ele><time>2026-04-23T12:42:46.999Z</time></trkpt><trkpt lat="42.130809699486996" lon="13.76299245945858"><ele>432.33333333333337</ele><time>2026-04-23T12:42:47.999Z</time></trkpt><trkpt lat="42.13071728818895" lon="13.763172047350059"><ele>435.0</ele><time>2026-04-23T12:42:48.999Z</time></trkpt><trkpt lat="42.130638617289165" lon="13.763359338614412"><ele>431.75</ele><time>2026-04-23T12:42:49.999Z</time></trkpt><trkpt lat="42.13055891144912" lon="13.763535007603828"><ele>428.5</ele><time>2026-04-23T12:42:50.999Z</time></trkpt><trkpt lat="42.130466470533314" lon="13.763680603749243"><ele>425.25</ele><time>2026-04-23T12:42:51.999Z</time></trkpt><trkpt lat="42.13034926791734" lon="13.763794266355651"><ele>422.0</ele><time>2026-04-23T12:42:52.999Z</time></trkpt><trkpt lat="42.1302351966452" lon="13.76386604549346"><ele>422.0</ele><time>2026-04-23T12:42:53.999Z</time></trkpt><trkpt lat="42.13009550874301" lon="13.763856653841579"><ele>422.0</ele><time>2026-04-23T12:42:54.999Z</time></trkpt><trkpt lat="42.129978504594725" lon="13.76381045402662"><ele>422.0</ele><time>2026-04-23T12:42:55.999Z</time></trkpt><trkpt lat="42.129864782990005" lon="13.763790758556482"><ele>422.0</ele><time>2026-04-23T12:42:56.999Z</time></trkpt><trkpt lat="42.12976122111634" lon="13.763836751404448"><ele>425.75</ele><time>2026-04-23T12:42:57.999Z</time></trkpt><trkpt lat="42.12967468559939" lon="13.763941616019482"><ele>429.5</ele><time>2026-04-23T12:42:58.999Z</time></trkpt><trkpt lat="42.12959405926428" lon="13.7641142858941"><ele>433.25</ele><time>2026-04-23T12:42:59.999Z</time></trkpt><trkpt lat="42.12952300912961" lon="13.764329817828925"><ele>437.0</ele><time>2026-04-23T12:43:00.999Z</time></trkpt><trkpt lat="42.129429988460046" lon="13.76456264694721"><ele>437.0</ele><time>2026-04-23T12:43:01.999Z</time></trkpt><trkpt lat="42.129316629101254" lon="13.764813310355041"><ele>437.0</ele><time>2026-04-23T12:43:02.999Z</time></trkpt><trkpt lat="42.1291964127741" lon="13.7650802402254"><ele>437.0</ele><time>2026-04-23T12:43:03.999Z</time></trkpt><trkpt lat="42.12907447072344" lon="13.765352286547058"><ele>449.3333333333333</ele><time>2026-04-23T12:43:04.999Z</time></trkpt><trkpt lat="42.12895361295385" lon="13.76558242255957"><ele>461.66666666666663</ele><time>2026-04-23T12:43:05.999Z</time></trkpt><trkpt lat="42.12883145771821" lon="13.765742491749487"><ele>474.0</ele><time>2026-04-23T12:43:06.999Z</time></trkpt><trkpt lat="42.12873489975053" lon="13.765881969789012"><ele>456.5</ele><time>2026-04-23T12:43:07.999Z</time></trkpt><trkpt lat="42.12858937170982" lon="13.766108048064451"><ele>439.0</ele><time>2026-04-23T12:43:08.999Z</time></trkpt><trkpt lat="42.12859390831102" lon="13.766451536260847"><ele>439.0</ele><time>2026-04-23T12:43:09.999Z</time></trkpt><trkpt lat="42.12860573962893" lon="13.766737436080687"><ele>439.0</ele><time>2026-04-23T12:43:10.999Z</time></trkpt><trkpt lat="42.128537206104376" lon="13.76697221351229"><ele>439.0</ele><time>2026-04-23T12:43:11.999Z</time></trkpt><trkpt lat="42.12843897057069" lon="13.767205125375312"><ele>435.0</ele><time>2026-04-23T12:43:12.999Z</time></trkpt><trkpt lat="42.12832220128792" lon="13.767434542537508"><ele>431.0</ele><time>2026-04-23T12:43:13.999Z</time></trkpt><trkpt lat="42.128202973434185" lon="13.767648146484103"><ele>427.0</ele><time>2026-04-23T12:43:14.999Z</time></trkpt><trkpt lat="42.1280965677527" lon="13.767839388981681"><ele>427.0</ele><time>2026-04-23T12:43:15.999Z</time></trkpt><trkpt lat="42.12799928080883" lon="13.767999634636785"><ele>427.0</ele><time>2026-04-23T12:43:16.999Z</time></trkpt><trkpt lat="42.12791039104544" lon="13.76814239757108"><ele>427.0</ele><time>2026-04-23T12:43:17.999Z</time></trkpt><trkpt lat="42.127847609992884" lon="13.768271131828872"><ele>427.0</ele><time>2026-04-23T12:43:18.999Z</time></trkpt><trkpt lat="42.127813320068" lon="13.768409179643738"><ele>422.33333333333337</ele><time>2026-04-23T12:43:19.999Z</time></trkpt><trkpt lat="42.1278253599687" lon="13.768580141057937"><ele>417.66666666666663</ele><time>2026-04-23T12:43:20.999Z</time></trkpt><trkpt lat="42.12777207589118" lon="13.76876404209182"><ele>413.0</ele><time>2026-04-23T12:43:21.999Z</time></trkpt><trkpt lat="42.127664920701854" lon="13.768957499083042"><ele>413.0</ele><time>2026-04-23T12:43:22.999Z</time></trkpt><trkpt lat="42.127535046003125" lon="13.769160812498653"><ele>413.0</ele><time>2026-04-23T12:43:23.999Z</time></trkpt><trkpt lat="42.12741497023168" lon="13.769389394172697"><ele>413.0</ele><time>2026-04-23T12:43:24.999Z</time></trkpt><trkpt lat="42.12729173341646" lon="13.769619685516538"><ele>414.3333333333333</ele><time>2026-04-23T12:43:25.999Z</time></trkpt><trkpt lat="42.127158803100585" lon="13.769850861924247"><ele>415.66666666666663</ele><time>2026-04-23T12:43:26.999Z</time></trkpt><trkpt lat="42.12701394948121" lon="13.770077835824464"><ele>417.0</ele><time>2026-04-23T12:43:27.999Z</time></trkpt><trkpt lat="42.1268358975734" lon="13.770298492357734"><ele>412.5</ele><time>2026-04-23T12:43:28.999Z</time></trkpt><trkpt lat="42.12664641584269" lon="13.770526472633243"><ele>408.0</ele><time>2026-04-23T12:43:29.999Z</time></trkpt><trkpt lat="42.1264620861894" lon="13.770769769175281"><ele>413.33333333333337</ele><time>2026-04-23T12:43:30.999Z</time></trkpt><trkpt lat="42.126314669771425" lon="13.770987829408957"><ele>418.6666666666667</ele><time>2026-04-23T12:43:31.999Z</time></trkpt><trkpt lat="42.12616392778421" lon="13.771186886263337"><ele>424.0</ele><time>2026-04-23T12:43:32.999Z</time></trkpt><trkpt lat="42.126023893919815" lon="13.771375541023557"><ele>424.0</ele><time>2026-04-23T12:43:33.999Z</time></trkpt><trkpt lat="42.12588895190879" lon="13.77154847976738"><ele>424.0</ele><time>2026-04-23T12:43:34.999Z</time></trkpt><trkpt lat="42.125767801339066" lon="13.771730847092465"><ele>424.0</ele><time>2026-04-23T12:43:35.999Z</time></trkpt><trkpt lat="42.12566774564695" lon="13.771933717212747"><ele>436.33333333333337</ele><time>2026-04-23T12:43:36.999Z</time></trkpt><trkpt lat="42.12558625087295" lon="13.772141725694752"><ele>448.66666666666663</ele><time>2026-04-23T12:43:37.999Z</time></trkpt><trkpt lat="42.12553055175094" lon="13.772339691226522"><ele>461.0</ele><time>2026-04-23T12:43:38.999Z</time></trkpt><trkpt lat="42.12550527365056" lon="13.772554434479533"><ele>455.3333333333333</ele><time>2026-04-23T12:43:39.999Z</time></trkpt><trkpt lat="42.125491472143324" lon="13.77279219754089"><ele>449.66666666666663</ele><time>2026-04-23T12:43:40.999Z</time></trkpt><trkpt lat="42.125462134463824" lon="13.773019769747519"><ele>444.0</ele><time>2026-04-23T12:43:41.999Z</time></trkpt><trkpt lat="42.12543891939352" lon="13.77324370323321"><ele>444.0</ele><time>2026-04-23T12:43:42.999Z</time></trkpt><trkpt lat="42.12533807297338" lon="13.773444324884867"><ele>444.0</ele><time>2026-04-23T12:43:43.999Z</time></trkpt><trkpt lat="42.12526617162428" lon="13.773628543748199"><ele>444.0</ele><time>2026-04-23T12:43:44.999Z</time></trkpt><trkpt lat="42.12519637827783" lon="13.77378699126971"><ele>443.0</ele><time>2026-04-23T12:43:45.999Z</time></trkpt><trkpt lat="42.12512887216854" lon="13.773926762270474"><ele>442.0</ele><time>2026-04-23T12:43:46.998Z</time></trkpt><trkpt lat="42.125044968106295" lon="13.774052356404429"><ele>441.0</ele><time>2026-04-23T12:43:47.998Z</time></trkpt><trkpt lat="42.12492952369284" lon="13.774166128261877"><ele>440.0</ele><time>2026-04-23T12:43:48.998Z</time></trkpt><trkpt lat="42.12477570532073" lon="13.774261106592837"><ele>440.0</ele><time>2026-04-23T12:43:49.998Z</time></trkpt><trkpt lat="42.1246047485177" lon="13.774354672032874"><ele>440.0</ele><time>2026-04-23T12:43:50.998Z</time></trkpt><trkpt lat="42.12445428604904" lon="13.774447059056415"><ele>440.0</ele><time>2026-04-23T12:43:51.998Z</time></trkpt><trkpt lat="42.124338037161834" lon="13.774496617897144"><ele>433.5</ele><time>2026-04-23T12:43:52.999Z</time></trkpt><trkpt lat="42.124222724962216" lon="13.774488951257139"><ele>427.0</ele><time>2026-04-23T12:43:53.999Z</time></trkpt><trkpt lat="42.12408732159147" lon="13.774423122819673"><ele>420.5</ele><time>2026-04-23T12:43:54.999Z</time></trkpt><trkpt lat="42.12394144825722" lon="13.774357695223491"><ele>414.0</ele><time>2026-04-23T12:43:55.999Z</time></trkpt><trkpt lat="42.123781001105066" lon="13.77436038031795"><ele>414.0</ele><time>2026-04-23T12:43:56.999Z</time></trkpt><trkpt lat="42.12361474854503" lon="13.774436749445341"><ele>414.0</ele><time>2026-04-23T12:43:57.999Z</time></trkpt><trkpt lat="42.12348106228058" lon="13.774539975953624"><ele>414.0</ele><time>2026-04-23T12:43:58.999Z</time></trkpt><trkpt lat="42.1233644654845" lon="13.774605821286546"><ele>414.0</ele><time>2026-04-23T12:43:59.999Z</time></trkpt><trkpt lat="42.12324646952569" lon="13.774607249700448"><ele>414.0</ele><time>2026-04-23T12:44:00.999Z</time></trkpt><trkpt lat="42.123088919409234" lon="13.774549622470708"><ele>414.0</ele><time>2026-04-23T12:44:01.999Z</time></trkpt><trkpt lat="42.12294273984476" lon="13.774473553692681"><ele>414.0</ele><time>2026-04-23T12:44:02.999Z</time></trkpt><trkpt lat="42.1227502776063" lon="13.774414303973192"><ele>426.0</ele><time>2026-04-23T12:44:03.999Z</time></trkpt><trkpt lat="42.12257836061947" lon="13.774348929932763"><ele>438.0</ele><time>2026-04-23T12:44:04.999Z</time></trkpt><trkpt lat="42.12243569646409" lon="13.774276923442384"><ele>450.0</ele><time>2026-04-23T12:44:05.999Z</time></trkpt><trkpt lat="42.12230737151133" lon="13.774212946357133"><ele>451.66666666666663</ele><time>2026-04-23T12:44:06.999Z</time></trkpt><trkpt lat="42.12217836019718" lon="13.774192104261965"><ele>453.3333333333333</ele><time>2026-04-23T12:44:07.999Z</time></trkpt><trkpt lat="42.12203088715864" lon="13.774220059273384"><ele>455.0</ele><time>2026-04-23T12:44:08.999Z</time></trkpt><trkpt lat="42.12186280605934" lon="13.774283150366523"><ele>455.0</ele><time>2026-04-23T12:44:09.999Z</time></trkpt><trkpt lat="42.12168510705435" lon="13.774336857608283"><ele>455.0</ele><time>2026-04-23T12:44:10.999Z</time></trkpt><trkpt lat="42.121492722075295" lon="13.774398976466788"><ele>455.0</ele><time>2026-04-23T12:44:11.999Z</time></trkpt><trkpt lat="42.12129317188575" lon="13.774480796764692"><ele>452.0</ele><time>2026-04-23T12:44:12.999Z</time></trkpt><trkpt lat="42.121099518178376" lon="13.774598765900098"><ele>449.0</ele><time>2026-04-23T12:44:13.999Z</time></trkpt><trkpt lat="42.1209269329089" lon="13.774736558973736"><ele>446.0</ele><time>2026-04-23T12:44:14.999Z</time></trkpt><trkpt lat="42.12076391212494" lon="13.774903750671996"><ele>449.0</ele><time>2026-04-23T12:44:15.999Z</time></trkpt><trkpt lat="42.120605573829394" lon="13.775096801629324"><ele>452.0</ele><time>2026-04-23T12:44:16.999Z</time></trkpt><trkpt lat="42.12044324124736" lon="13.775311545444247"><ele>455.0</ele><time>2026-04-23T12:44:17.999Z</time></trkpt><trkpt lat="42.12027850001525" lon="13.775531025904629"><ele>455.0</ele><time>2026-04-23T12:44:18.999Z</time></trkpt><trkpt lat="42.12011108046342" lon="13.775746929669298"><ele>455.0</ele><time>2026-04-23T12:44:19.999Z</time></trkpt><trkpt lat="42.11995251026058" lon="13.775962328009904"><ele>457.0</ele><time>2026-04-23T12:44:20.999Z</time></trkpt><trkpt lat="42.119805418192904" lon="13.7761856168851"><ele>459.0</ele><time>2026-04-23T12:44:21.999Z</time></trkpt><trkpt lat="42.11967440472804" lon="13.776386857353986"><ele>461.0</ele><time>2026-04-23T12:44:22.999Z</time></trkpt><trkpt lat="42.11955906152264" lon="13.776552768651445"><ele>461.0</ele><time>2026-04-23T12:44:23.999Z</time></trkpt><trkpt lat="42.11945908588185" lon="13.776690874654953"><ele>461.0</ele><time>2026-04-23T12:44:24.999Z</time></trkpt><trkpt lat="42.1193699860069" lon="13.77680706258324"><ele>461.0</ele><time>2026-04-23T12:44:25.999Z</time></trkpt><trkpt lat="42.11927931396743" lon="13.776887156752105"><ele>461.0</ele><time>2026-04-23T12:44:26.999Z</time></trkpt><trkpt lat="42.11914681372038" lon="13.77692372934554"><ele>455.3333333333333</ele><time>2026-04-23T12:44:27.999Z</time></trkpt><trkpt lat="42.11898519864004" lon="13.776922504447393"><ele>449.66666666666663</ele><time>2026-04-23T12:44:28.999Z</time></trkpt><trkpt lat="42.11880439032984" lon="13.776901845937946"><ele>444.0</ele><time>2026-04-23T12:44:29.999Z</time></trkpt><trkpt lat="42.118609039070485" lon="13.776920573368853"><ele>444.0</ele><time>2026-04-23T12:44:30.999Z</time></trkpt><trkpt lat="42.118403050830636" lon="13.776984480867085"><ele>444.0</ele><time>2026-04-23T12:44:31.999Z</time></trkpt><trkpt lat="42.118188038635076" lon="13.777066010185411"><ele>444.0</ele><time>2026-04-23T12:44:32.999Z</time></trkpt><trkpt lat="42.11800088562024" lon="13.777126787697817"><ele>448.33333333333337</ele><time>2026-04-23T12:44:33.999Z</time></trkpt><trkpt lat="42.11782591212952" lon="13.777186323200713"><ele>452.6666666666667</ele><time>2026-04-23T12:44:34.999Z</time></trkpt><trkpt lat="42.11765562753313" lon="13.777270842398236"><ele>457.0</ele><time>2026-04-23T12:44:35.999Z</time></trkpt><trkpt lat="42.11748854072175" lon="13.777376180652528"><ele>459.33333333333337</ele><time>2026-04-23T12:44:36.999Z</time></trkpt><trkpt lat="42.11733565782344" lon="13.777487837391705"><ele>461.66666666666663</ele><time>2026-04-23T12:44:37.999Z</time></trkpt><trkpt lat="42.117191210984096" lon="13.77764031581366"><ele>464.0</ele><time>2026-04-23T12:44:38.999Z</time></trkpt><trkpt lat="42.11704586594064" lon="13.777832617076728"><ele>464.0</ele><time>2026-04-23T12:44:39.999Z</time></trkpt><trkpt lat="42.116890249152696" lon="13.778046409037268"><ele>464.0</ele><time>2026-04-23T12:44:40.999Z</time></trkpt><trkpt lat="42.116717539773" lon="13.778265716821677"><ele>470.0</ele><time>2026-04-23T12:44:41.999Z</time></trkpt><trkpt lat="42.11653146110341" lon="13.77850994224147"><ele>476.0</ele><time>2026-04-23T12:44:42.999Z</time></trkpt><trkpt lat="42.11635467265339" lon="13.778736264918939"><ele>476.0</ele><time>2026-04-23T12:44:43.999Z</time></trkpt><trkpt lat="42.11618294964521" lon="13.778950422392626"><ele>476.0</ele><time>2026-04-23T12:44:44.999Z</time></trkpt><trkpt lat="42.11601935757638" lon="13.77914626318182"><ele>476.0</ele><time>2026-04-23T12:44:45.999Z</time></trkpt><trkpt lat="42.115871761946565" lon="13.779325118277551"><ele>476.0</ele><time>2026-04-23T12:44:46.999Z</time></trkpt><trkpt lat="42.11574370129308" lon="13.779501718591042"><ele>476.0</ele><time>2026-04-23T12:44:47.999Z</time></trkpt><trkpt lat="42.11561940150842" lon="13.779694925524543"><ele>476.3333333333333</ele><time>2026-04-23T12:44:48.999Z</time></trkpt><trkpt lat="42.1155054182347" lon="13.779927291022043"><ele>476.66666666666663</ele><time>2026-04-23T12:44:49.999Z</time></trkpt><trkpt lat="42.1153962071943" lon="13.780181046327458"><ele>477.0</ele><time>2026-04-23T12:44:50.999Z</time></trkpt><trkpt lat="42.11527299772587" lon="13.780431469413674"><ele>477.0</ele><time>2026-04-23T12:44:51.999Z</time></trkpt><trkpt lat="42.11513616155121" lon="13.780679007386409"><ele>477.0</ele><time>2026-04-23T12:44:52.999Z</time></trkpt><trkpt lat="42.1150017548254" lon="13.780891429498908"><ele>477.0</ele><time>2026-04-23T12:44:53.999Z</time></trkpt><trkpt lat="42.114880146608606" lon="13.781102597720341"><ele>483.0</ele><time>2026-04-23T12:44:54.999Z</time></trkpt><trkpt lat="42.114763171961016" lon="13.781306081709062"><ele>489.0</ele><time>2026-04-23T12:44:55.999Z</time></trkpt><trkpt lat="42.114633488785344" lon="13.781501968951586"><ele>495.0</ele><time>2026-04-23T12:44:56.999Z</time></trkpt><trkpt lat="42.114509672949104" lon="13.781670297042728"><ele>495.0</ele><time>2026-04-23T12:44:57.999Z</time></trkpt><trkpt lat="42.11437394489716" lon="13.78182921425264"><ele>495.0</ele><time>2026-04-23T12:44:58.999Z</time></trkpt><trkpt lat="42.11422571209142" lon="13.781975622444524"><ele>495.0</ele><time>2026-04-23T12:44:59.999Z</time></trkpt><trkpt lat="42.11407363878836" lon="13.782111269490485"><ele>497.66666666666663</ele><time>2026-04-23T12:45:00.999Z</time></trkpt><trkpt lat="42.11391185025369" lon="13.782235180857827"><ele>500.3333333333333</ele><time>2026-04-23T12:45:01.999Z</time></trkpt><trkpt lat="42.113760441019885" lon="13.782339650580695"><ele>503.0</ele><time>2026-04-23T12:45:02.999Z</time></trkpt><trkpt lat="42.11361307631605" lon="13.782464365354404"><ele>503.0</ele><time>2026-04-23T12:45:03.999Z</time></trkpt><trkpt lat="42.113480804053225" lon="13.78264522617629"><ele>503.0</ele><time>2026-04-23T12:45:04.999Z</time></trkpt><trkpt lat="42.11335826534483" lon="13.782888846561852"><ele>503.0</ele><time>2026-04-23T12:45:05.999Z</time></trkpt><trkpt lat="42.11322963058192" lon="13.783159059341452"><ele>504.5</ele><time>2026-04-23T12:45:06.999Z</time></trkpt><trkpt lat="42.113081979646395" lon="13.783431230039678"><ele>506.0</ele><time>2026-04-23T12:45:07.999Z</time></trkpt><trkpt lat="42.11295251319561" lon="13.783680752516716"><ele>506.0</ele><time>2026-04-23T12:45:08.999Z</time></trkpt><trkpt lat="42.11285149361169" lon="13.783917451596393"><ele>506.0</ele><time>2026-04-23T12:45:09.999Z</time></trkpt><trkpt lat="42.11277395529111" lon="13.784180430633127"><ele>506.0</ele><time>2026-04-23T12:45:10.999Z</time></trkpt><trkpt lat="42.11272211881134" lon="13.784430441516237"><ele>500.66666666666663</ele><time>2026-04-23T12:45:11.999Z</time></trkpt><trkpt lat="42.11267199118159" lon="13.784645682963717"><ele>495.33333333333337</ele><time>2026-04-23T12:45:12.999Z</time></trkpt><trkpt lat="42.112587614899084" lon="13.78485106599648"><ele>490.0</ele><time>2026-04-23T12:45:13.999Z</time></trkpt><trkpt lat="42.11245899652344" lon="13.785046164264017"><ele>500.6666666666667</ele><time>2026-04-23T12:45:14.999Z</time></trkpt><trkpt lat="42.112331087476456" lon="13.785230034600898"><ele>511.33333333333337</ele><time>2026-04-23T12:45:15.999Z</time></trkpt><trkpt lat="42.11226274867329" lon="13.78544334175362"><ele>522.0</ele><time>2026-04-23T12:45:16.999Z</time></trkpt><trkpt lat="42.11222551830239" lon="13.785701539362693"><ele>522.0</ele><time>2026-04-23T12:45:17.999Z</time></trkpt><trkpt lat="42.112196231822935" lon="13.785970459603686"><ele>522.0</ele><time>2026-04-23T12:45:18.999Z</time></trkpt><trkpt lat="42.11214440340623" lon="13.786215968202315"><ele>522.0</ele><time>2026-04-23T12:45:19.999Z</time></trkpt><trkpt lat="42.11205077002223" lon="13.786417559266244"><ele>514.6666666666666</ele><time>2026-04-23T12:45:20.999Z</time></trkpt><trkpt lat="42.111945693715334" lon="13.78660025659003"><ele>507.3333333333333</ele><time>2026-04-23T12:45:21.999Z</time></trkpt><trkpt lat="42.11180225356664" lon="13.786755218189127"><ele>500.0</ele><time>2026-04-23T12:45:22.999Z</time></trkpt><trkpt lat="42.1116540603635" lon="13.786881548316119"><ele>507.5</ele><time>2026-04-23T12:45:23.999Z</time></trkpt><trkpt lat="42.1115133325569" lon="13.786981150704555"><ele>515.0</ele><time>2026-04-23T12:45:24.999Z</time></trkpt><trkpt lat="42.11142434815262" lon="13.787108284981606"><ele>522.5</ele><time>2026-04-23T12:45:25.999Z</time></trkpt><trkpt lat="42.11135110944204" lon="13.787227127752056"><ele>530.0</ele><time>2026-04-23T12:45:26.999Z</time></trkpt><trkpt lat="42.11131836850243" lon="13.787400471331917"><ele>530.0</ele><time>2026-04-23T12:45:27.999Z</time></trkpt><trkpt lat="42.111337813357764" lon="13.787614486136711"><ele>530.0</ele><time>2026-04-23T12:45:28.999Z</time></trkpt><trkpt lat="42.11139119707204" lon="13.787840466343827"><ele>530.0</ele><time>2026-04-23T12:45:29.999Z</time></trkpt><trkpt lat="42.111383008026294" lon="13.788069904490497"><ele>527.3333333333333</ele><time>2026-04-23T12:45:30.999Z</time></trkpt><trkpt lat="42.11132630077623" lon="13.788315677328553"><ele>524.6666666666666</ele><time>2026-04-23T12:45:31.999Z</time></trkpt><trkpt lat="42.11126618324555" lon="13.788544478265768"><ele>522.0</ele><time>2026-04-23T12:45:32.999Z</time></trkpt><trkpt lat="42.11121454048861" lon="13.788720360432169"><ele>528.75</ele><time>2026-04-23T12:45:33.999Z</time></trkpt><trkpt lat="42.11115682086403" lon="13.788840037832939"><ele>535.5</ele><time>2026-04-23T12:45:34.999Z</time></trkpt><trkpt lat="42.11105542876653" lon="13.788909745696268"><ele>542.25</ele><time>2026-04-23T12:45:35.999Z</time></trkpt><trkpt lat="42.11091699085591" lon="13.788975633871953"><ele>549.0</ele><time>2026-04-23T12:45:36.999Z</time></trkpt><trkpt lat="42.110719452038275" lon="13.789016325303852"><ele>549.0</ele><time>2026-04-23T12:45:37.999Z</time></trkpt><trkpt lat="42.11057984422278" lon="13.789057778892191"><ele>549.0</ele><time>2026-04-23T12:45:38.999Z</time></trkpt><trkpt lat="42.11045935229242" lon="13.789128444896734"><ele>549.0</ele><time>2026-04-23T12:45:39.999Z</time></trkpt><trkpt lat="42.11035691622598" lon="13.78922638609238"><ele>549.0</ele><time>2026-04-23T12:45:40.999Z</time></trkpt><trkpt lat="42.11028028475178" lon="13.789353849085352"><ele>543.75</ele><time>2026-04-23T12:45:41.999Z</time></trkpt><trkpt lat="42.11023809244037" lon="13.789516792545149"><ele>538.5</ele><time>2026-04-23T12:45:42.998Z</time></trkpt><trkpt lat="42.110231600175275" lon="13.789706348543035"><ele>533.25</ele><time>2026-04-23T12:45:43.998Z</time></trkpt><trkpt lat="42.11019304131108" lon="13.789886074522087"><ele>528.0</ele><time>2026-04-23T12:45:44.998Z</time></trkpt><trkpt lat="42.11011392820384" lon="13.79005257003695"><ele>524.6666666666666</ele><time>2026-04-23T12:45:45.998Z</time></trkpt><trkpt lat="42.11002137781638" lon="13.790230672711242"><ele>521.3333333333333</ele><time>2026-04-23T12:45:46.998Z</time></trkpt><trkpt lat="42.109926207494375" lon="13.790409214923347"><ele>518.0</ele><time>2026-04-23T12:45:47.998Z</time></trkpt><trkpt lat="42.109864672631645" lon="13.790606420172699"><ele>533.3333333333333</ele><time>2026-04-23T12:45:48.998Z</time></trkpt><trkpt lat="42.10984615684545" lon="13.79081191532019"><ele>548.6666666666666</ele><time>2026-04-23T12:45:49.998Z</time></trkpt><trkpt lat="42.10986293054904" lon="13.791018665340516"><ele>564.0</ele><time>2026-04-23T12:45:50.998Z</time></trkpt><trkpt lat="42.109891657697965" lon="13.79123442175151"><ele>567.0</ele><time>2026-04-23T12:45:51.998Z</time></trkpt><trkpt lat="42.10989996993259" lon="13.791447933653439"><ele>570.0</ele><time>2026-04-23T12:45:52.998Z</time></trkpt><trkpt lat="42.10989798982488" lon="13.791682397096288"><ele>573.0</ele><time>2026-04-23T12:45:53.998Z</time></trkpt><trkpt lat="42.10991224754719" lon="13.79197184719305"><ele>544.0</ele><time>2026-04-23T12:45:54.998Z</time></trkpt><trkpt lat="42.10993898136013" lon="13.792306033039962"><ele>515.0</ele><time>2026-04-23T12:45:55.998Z</time></trkpt><trkpt lat="42.10997495149601" lon="13.792598729405778"><ele>514.6666666666666</ele><time>2026-04-23T12:45:56.998Z</time></trkpt><trkpt lat="42.1100152137529" lon="13.792878565975217"><ele>514.3333333333334</ele><time>2026-04-23T12:45:57.998Z</time></trkpt><trkpt lat="42.110040959316734" lon="13.793128411075422"><ele>514.0</ele><time>2026-04-23T12:45:58.999Z</time></trkpt><trkpt lat="42.11004017741534" lon="13.793369789756461"><ele>508.75</ele><time>2026-04-23T12:45:59.999Z</time></trkpt><trkpt lat="42.11002856227634" lon="13.793640610302342"><ele>503.5</ele><time>2026-04-23T12:46:00.999Z</time></trkpt><trkpt lat="42.110015980694" lon="13.793784728102393"><ele>498.25</ele><time>2026-04-23T12:46:01.999Z</time></trkpt><trkpt lat="42.109988599272235" lon="13.793946185139047"><ele>493.0</ele><time>2026-04-23T12:46:02.999Z</time></trkpt><trkpt lat="42.10994514693676" lon="13.794083052807348"><ele>494.0</ele><time>2026-04-23T12:46:03.999Z</time></trkpt><trkpt lat="42.10988893451071" lon="13.794216859283907"><ele>495.0</ele><time>2026-04-23T12:46:04.999Z</time></trkpt><trkpt lat="42.10978505077837" lon="13.794304601138508"><ele>496.0</ele><time>2026-04-23T12:46:05.999Z</time></trkpt><trkpt lat="42.10964460138167" lon="13.794407669841297"><ele>497.0</ele><time>2026-04-23T12:46:06.999Z</time></trkpt><trkpt lat="42.10948382186036" lon="13.794521211336011"><ele>497.0</ele><time>2026-04-23T12:46:07.999Z</time></trkpt><trkpt lat="42.109315985914364" lon="13.794656349126685"><ele>497.0</ele><time>2026-04-23T12:46:08.999Z</time></trkpt><trkpt lat="42.109124651491484" lon="13.794743208405173"><ele>497.0</ele><time>2026-04-23T12:46:09.999Z</time></trkpt><trkpt lat="42.10894834674108" lon="13.794828424550044"><ele>499.66666666666663</ele><time>2026-04-23T12:46:10.999Z</time></trkpt><trkpt lat="42.10878801591961" lon="13.79492004685003"><ele>502.33333333333337</ele><time>2026-04-23T12:46:11.999Z</time></trkpt><trkpt lat="42.108633759606256" lon="13.794988646321096"><ele>505.0</ele><time>2026-04-23T12:46:12.999Z</time></trkpt><trkpt lat="42.10851172463805" lon="13.795038188768608"><ele>505.0</ele><time>2026-04-23T12:46:13.999Z</time></trkpt><trkpt lat="42.10840201594429" lon="13.795039990651434"><ele>505.0</ele><time>2026-04-23T12:46:14.999Z</time></trkpt><trkpt lat="42.10829423004466" lon="13.795002122796904"><ele>505.0</ele><time>2026-04-23T12:46:15.999Z</time></trkpt><trkpt lat="42.1081547627102" lon="13.79493650413673"><ele>505.0</ele><time>2026-04-23T12:46:16.999Z</time></trkpt><trkpt lat="42.107991228312905" lon="13.794859475446247"><ele>503.75</ele><time>2026-04-23T12:46:17.999Z</time></trkpt><trkpt lat="42.10782468971287" lon="13.794796540248008"><ele>502.5</ele><time>2026-04-23T12:46:18.999Z</time></trkpt><trkpt lat="42.107694673827154" lon="13.794707904197521"><ele>501.25</ele><time>2026-04-23T12:46:19.999Z</time></trkpt><trkpt lat="42.10759427558814" lon="13.794636435542072"><ele>500.0</ele><time>2026-04-23T12:46:20.999Z</time></trkpt><trkpt lat="42.107507081783794" lon="13.794586343366372"><ele>500.0</ele><time>2026-04-23T12:46:21.999Z</time></trkpt><trkpt lat="42.107414880449205" lon="13.794587676267174"><ele>500.0</ele><time>2026-04-23T12:46:22.999Z</time></trkpt><trkpt lat="42.10730861417287" lon="13.794638469630744"><ele>500.0</ele><time>2026-04-23T12:46:23.999Z</time></trkpt><trkpt lat="42.10722704556229" lon="13.79477418685571"><ele>500.0</ele><time>2026-04-23T12:46:24.999Z</time></trkpt><trkpt lat="42.107180532700795" lon="13.794910123271523"><ele>500.0</ele><time>2026-04-23T12:46:25.999Z</time></trkpt><trkpt lat="42.10716124858457" lon="13.795078701217031"><ele>505.0</ele><time>2026-04-23T12:46:26.999Z</time></trkpt><trkpt lat="42.107164651925714" lon="13.795266907815181"><ele>510.0</ele><time>2026-04-23T12:46:27.999Z</time></trkpt><trkpt lat="42.10718605569165" lon="13.795472200602298"><ele>515.0</ele><time>2026-04-23T12:46:28.999Z</time></trkpt><trkpt lat="42.10719046065468" lon="13.79567508624442"><ele>520.0</ele><time>2026-04-23T12:46:29.999Z</time></trkpt><trkpt lat="42.10719063311432" lon="13.795851091456514"><ele>520.0</ele><time>2026-04-23T12:46:30.999Z</time></trkpt><trkpt lat="42.10719121361191" lon="13.79600264325084"><ele>520.0</ele><time>2026-04-23T12:46:31.999Z</time></trkpt><trkpt lat="42.10714006027856" lon="13.796139512387512"><ele>520.0</ele><time>2026-04-23T12:46:32.999Z</time></trkpt><trkpt lat="42.107064666953036" lon="13.796282866298673"><ele>520.0</ele><time>2026-04-23T12:46:33.999Z</time></trkpt><trkpt lat="42.106974088150906" lon="13.796438138250053"><ele>515.0</ele><time>2026-04-23T12:46:34.999Z</time></trkpt><trkpt lat="42.106890221286676" lon="13.796609882993343"><ele>510.0</ele><time>2026-04-23T12:46:35.999Z</time></trkpt><trkpt lat="42.10681489077624" lon="13.796784860014624"><ele>505.0</ele><time>2026-04-23T12:46:36.999Z</time></trkpt><trkpt lat="42.10675314278322" lon="13.796974728257544"><ele>498.6666666666667</ele><time>2026-04-23T12:46:37.999Z</time></trkpt><trkpt lat="42.106690780317415" lon="13.797173960010232"><ele>492.33333333333337</ele><time>2026-04-23T12:46:38.999Z</time></trkpt><trkpt lat="42.106625102662456" lon="13.797386493547066"><ele>486.0</ele><time>2026-04-23T12:46:39.999Z</time></trkpt><trkpt lat="42.10656245354177" lon="13.797614416352925"><ele>495.66666666666663</ele><time>2026-04-23T12:46:40.999Z</time></trkpt><trkpt lat="42.10650517285623" lon="13.797852109670233"><ele>505.3333333333333</ele><time>2026-04-23T12:46:41.999Z</time></trkpt><trkpt lat="42.10644776003521" lon="13.798099819358653"><ele>515.0</ele><time>2026-04-23T12:46:42.999Z</time></trkpt><trkpt lat="42.10638602316463" lon="13.798351844912563"><ele>510.3333333333333</ele><time>2026-04-23T12:46:43.999Z</time></trkpt><trkpt lat="42.10632149591607" lon="13.798600929065493"><ele>505.66666666666663</ele><time>2026-04-23T12:46:44.999Z</time></trkpt><trkpt lat="42.10625546495387" lon="13.798868304010835"><ele>501.0</ele><time>2026-04-23T12:46:45.999Z</time></trkpt><trkpt lat="42.106199071659034" lon="13.799144494836172"><ele>497.33333333333337</ele><time>2026-04-23T12:46:46.999Z</time></trkpt><trkpt lat="42.10615585056511" lon="13.799424708151234"><ele>493.6666666666667</ele><time>2026-04-23T12:46:47.999Z</time></trkpt><trkpt lat="42.10612176351784" lon="13.799690898468999"><ele>490.0</ele><time>2026-04-23T12:46:48.999Z</time></trkpt><trkpt lat="42.10608695560208" lon="13.799941542729725"><ele>487.6666666666667</ele><time>2026-04-23T12:46:49.999Z</time></trkpt><trkpt lat="42.106053665152" lon="13.800187028388207"><ele>485.33333333333337</ele><time>2026-04-23T12:46:50.999Z</time></trkpt><trkpt lat="42.10604023286828" lon="13.80045657183758"><ele>483.0</ele><time>2026-04-23T12:46:51.999Z</time></trkpt><trkpt lat="42.10604599153553" lon="13.800757257958544"><ele>482.0</ele><time>2026-04-23T12:46:52.999Z</time></trkpt><trkpt lat="42.106056231238746" lon="13.801058232976787"><ele>481.0</ele><time>2026-04-23T12:46:53.999Z</time></trkpt><trkpt lat="42.106057069453506" lon="13.801325858324018"><ele>480.0</ele><time>2026-04-23T12:46:54.999Z</time></trkpt><trkpt lat="42.10605768230876" lon="13.80154017496771"><ele>480.0</ele><time>2026-04-23T12:46:55.999Z</time></trkpt><trkpt lat="42.10607551631596" lon="13.801751258880405"><ele>480.0</ele><time>2026-04-23T12:46:56.999Z</time></trkpt><trkpt lat="42.10613474177509" lon="13.801966263870172"><ele>480.0</ele><time>2026-04-23T12:46:57.999Z</time></trkpt><trkpt lat="42.1062309412816" lon="13.802177155420189"><ele>478.33333333333337</ele><time>2026-04-23T12:46:58.999Z</time></trkpt><trkpt lat="42.10632714952315" lon="13.802375051529664"><ele>476.6666666666667</ele><time>2026-04-23T12:46:59.999Z</time></trkpt><trkpt lat="42.106399264678245" lon="13.80255683576813"><ele>475.0</ele><time>2026-04-23T12:47:00.999Z</time></trkpt><trkpt lat="42.10645689992744" lon="13.80272578138732"><ele>474.25</ele><time>2026-04-23T12:47:01.999Z</time></trkpt><trkpt lat="42.10649212344054" lon="13.802898157495346"><ele>473.5</ele><time>2026-04-23T12:47:02.999Z</time></trkpt><trkpt lat="42.10650671268888" lon="13.803076340232789"><ele>472.75</ele><time>2026-04-23T12:47:03.999Z</time></trkpt><trkpt lat="42.10646489983732" lon="13.803275539922122"><ele>472.0</ele><time>2026-04-23T12:47:04.999Z</time></trkpt><trkpt lat="42.10641002532491" lon="13.803466011006808"><ele>466.6666666666667</ele><time>2026-04-23T12:47:05.999Z</time></trkpt><trkpt lat="42.10633134787514" lon="13.80363771029393"><ele>461.33333333333337</ele><time>2026-04-23T12:47:06.999Z</time></trkpt><trkpt lat="42.10622463868881" lon="13.803782735423756"><ele>456.0</ele><time>2026-04-23T12:47:07.999Z</time></trkpt><trkpt lat="42.1060939548407" lon="13.803896838879814"><ele>456.0</ele><time>2026-04-23T12:47:08.999Z</time></trkpt><trkpt lat="42.10594560178195" lon="13.803995196340482"><ele>456.0</ele><time>2026-04-23T12:47:09.999Z</time></trkpt><trkpt lat="42.10579259478445" lon="13.80403105120459"><ele>456.0</ele><time>2026-04-23T12:47:10.999Z</time></trkpt><trkpt lat="42.105629177212855" lon="13.804019897363082"><ele>452.66666666666663</ele><time>2026-04-23T12:47:11.999Z</time></trkpt><trkpt lat="42.10545614108341" lon="13.80396461169309"><ele>449.3333333333333</ele><time>2026-04-23T12:47:12.999Z</time></trkpt><trkpt lat="42.10528668059236" lon="13.803854074687091"><ele>446.0</ele><time>2026-04-23T12:47:13.999Z</time></trkpt><trkpt lat="42.105120643042305" lon="13.803694169384656"><ele>446.0</ele><time>2026-04-23T12:47:14.999Z</time></trkpt><trkpt lat="42.104947071495005" lon="13.803531212087375"><ele>446.0</ele><time>2026-04-23T12:47:15.999Z</time></trkpt><trkpt lat="42.10476295551173" lon="13.803380740479021"><ele>446.0</ele><time>2026-04-23T12:47:16.999Z</time></trkpt><trkpt lat="42.10457461403111" lon="13.803236928452106"><ele>445.0</ele><time>2026-04-23T12:47:17.999Z</time></trkpt><trkpt lat="42.104388517848705" lon="13.803091188209088"><ele>444.0</ele><time>2026-04-23T12:47:18.999Z</time></trkpt><trkpt lat="42.10421058356073" lon="13.802940046381664"><ele>443.0</ele><time>2026-04-23T12:47:19.999Z</time></trkpt><trkpt lat="42.104025931234986" lon="13.802785219111783"><ele>441.5</ele><time>2026-04-23T12:47:20.999Z</time></trkpt><trkpt lat="42.10384581512744" lon="13.802602509241842"><ele>440.0</ele><time>2026-04-23T12:47:21.999Z</time></trkpt><trkpt lat="42.1036583392814" lon="13.80242146643814"><ele>440.0</ele><time>2026-04-23T12:47:22.999Z</time></trkpt><trkpt lat="42.1034716647963" lon="13.802237789487508"><ele>440.0</ele><time>2026-04-23T12:47:23.999Z</time></trkpt><trkpt lat="42.10329385320869" lon="13.802048386173277"><ele>438.0</ele><time>2026-04-23T12:47:24.999Z</time></trkpt><trkpt lat="42.10310516697549" lon="13.80188106441173"><ele>436.0</ele><time>2026-04-23T12:47:25.999Z</time></trkpt><trkpt lat="42.10290541322255" lon="13.801714509370592"><ele>436.0</ele><time>2026-04-23T12:47:26.999Z</time></trkpt><trkpt lat="42.102708098880484" lon="13.801565861574813"><ele>436.0</ele><time>2026-04-23T12:47:27.999Z</time></trkpt><trkpt lat="42.102516151655976" lon="13.801447356651524"><ele>436.0</ele><time>2026-04-23T12:47:28.999Z</time></trkpt><trkpt lat="42.10230946727971" lon="13.801349257732948"><ele>430.5</ele><time>2026-04-23T12:47:29.999Z</time></trkpt><trkpt lat="42.102088087411815" lon="13.8012655224231"><ele>425.0</ele><time>2026-04-23T12:47:30.999Z</time></trkpt><trkpt lat="42.10186051286548" lon="13.801198113622853"><ele>425.0</ele><time>2026-04-23T12:47:31.999Z</time></trkpt><trkpt lat="42.10164730353766" lon="13.80113873867851"><ele>425.0</ele><time>2026-04-23T12:47:32.999Z</time></trkpt><trkpt lat="42.10145055717202" lon="13.801081431186516"><ele>425.0</ele><time>2026-04-23T12:47:33.999Z</time></trkpt><trkpt lat="42.101261558933786" lon="13.8010290891164"><ele>424.66666666666663</ele><time>2026-04-23T12:47:34.999Z</time></trkpt><trkpt lat="42.10107476519652" lon="13.801003416995703"><ele>424.33333333333337</ele><time>2026-04-23T12:47:35.999Z</time></trkpt><trkpt lat="42.10089321083695" lon="13.801010621822929"><ele>424.0</ele><time>2026-04-23T12:47:36.999Z</time></trkpt><trkpt lat="42.100711403216536" lon="13.801053977542955"><ele>425.0</ele><time>2026-04-23T12:47:37.999Z</time></trkpt><trkpt lat="42.10053054229278" lon="13.801123084146974"><ele>426.0</ele><time>2026-04-23T12:47:38.999Z</time></trkpt><trkpt lat="42.10036257300022" lon="13.801210390939715"><ele>427.0</ele><time>2026-04-23T12:47:39.999Z</time></trkpt><trkpt lat="42.10020804576192" lon="13.801314190753413"><ele>427.0</ele><time>2026-04-23T12:47:40.999Z</time></trkpt><trkpt lat="42.10004693202567" lon="13.801451768203945"><ele>427.0</ele><time>2026-04-23T12:47:41.999Z</time></trkpt><trkpt lat="42.099884239275035" lon="13.801624977939492"><ele>427.0</ele><time>2026-04-23T12:47:42.999Z</time></trkpt><trkpt lat="42.09972706140007" lon="13.801820714183563"><ele>425.0</ele><time>2026-04-23T12:47:43.999Z</time></trkpt><trkpt lat="42.099568935577594" lon="13.802015343636056"><ele>423.0</ele><time>2026-04-23T12:47:44.999Z</time></trkpt><trkpt lat="42.09941914838934" lon="13.802182452803919"><ele>421.0</ele><time>2026-04-23T12:47:45.999Z</time></trkpt><trkpt lat="42.09927647376976" lon="13.802338045583618"><ele>421.0</ele><time>2026-04-23T12:47:46.999Z</time></trkpt><trkpt lat="42.09913737833911" lon="13.80250447732153"><ele>421.0</ele><time>2026-04-23T12:47:47.999Z</time></trkpt><trkpt lat="42.09900057806245" lon="13.8026926729484"><ele>421.0</ele><time>2026-04-23T12:47:48.999Z</time></trkpt><trkpt lat="42.09888341250364" lon="13.802900514036743"><ele>419.33333333333337</ele><time>2026-04-23T12:47:49.999Z</time></trkpt><trkpt lat="42.09878156966025" lon="13.803122765094525"><ele>417.66666666666663</ele><time>2026-04-23T12:47:50.999Z</time></trkpt><trkpt lat="42.09869913457713" lon="13.803369109257208"><ele>416.0</ele><time>2026-04-23T12:47:51.999Z</time></trkpt><trkpt lat="42.098638749830414" lon="13.803631660515311"><ele>414.3333333333333</ele><time>2026-04-23T12:47:52.999Z</time></trkpt><trkpt lat="42.09860131025906" lon="13.803916371217232"><ele>412.66666666666663</ele><time>2026-04-23T12:47:53.999Z</time></trkpt><trkpt lat="42.098576385146146" lon="13.80420651748493"><ele>411.0</ele><time>2026-04-23T12:47:54.999Z</time></trkpt><trkpt lat="42.098548960247165" lon="13.804478003758367"><ele>409.66666666666663</ele><time>2026-04-23T12:47:55.999Z</time></trkpt><trkpt lat="42.09852063630652" lon="13.804722319980456"><ele>408.3333333333333</ele><time>2026-04-23T12:47:56.998Z</time></trkpt><trkpt lat="42.09849565433193" lon="13.804943053436599"><ele>407.0</ele><time>2026-04-23T12:47:57.998Z</time></trkpt><trkpt lat="42.09848543116769" lon="13.805162792875386"><ele>406.3333333333333</ele><time>2026-04-23T12:47:58.998Z</time></trkpt><trkpt lat="42.09850420999321" lon="13.805385918233787"><ele>405.66666666666663</ele><time>2026-04-23T12:47:59.998Z</time></trkpt><trkpt lat="42.098557831393705" lon="13.8056189987417"><ele>405.0</ele><time>2026-04-23T12:48:00.998Z</time></trkpt><trkpt lat="42.098637454918105" lon="13.805837033030985"><ele>403.66666666666663</ele><time>2026-04-23T12:48:01.998Z</time></trkpt><trkpt lat="42.098735589007795" lon="13.80603550156005"><ele>402.3333333333333</ele><time>2026-04-23T12:48:02.998Z</time></trkpt><trkpt lat="42.09885649107599" lon="13.806205403182325"><ele>401.0</ele><time>2026-04-23T12:48:03.998Z</time></trkpt><trkpt lat="42.09900335570382" lon="13.80634417791634"><ele>401.0</ele><time>2026-04-23T12:48:04.999Z</time></trkpt><trkpt lat="42.09917037684111" lon="13.806466338858586"><ele>401.0</ele><time>2026-04-23T12:48:05.999Z</time></trkpt><trkpt lat="42.099356575549336" lon="13.806568469693284"><ele>401.0</ele><time>2026-04-23T12:48:06.999Z</time></trkpt><trkpt lat="42.09954293408991" lon="13.80666916742551"><ele>401.0</ele><time>2026-04-23T12:48:07.999Z</time></trkpt><trkpt lat="42.0997343374475" lon="13.806780353116018"><ele>401.0</ele><time>2026-04-23T12:48:08.999Z</time></trkpt><trkpt lat="42.099888193365004" lon="13.806881962867191"><ele>401.0</ele><time>2026-04-23T12:48:09.999Z</time></trkpt><trkpt lat="42.10005578329035" lon="13.80697707539742"><ele>399.66666666666663</ele><time>2026-04-23T12:48:10.999Z</time></trkpt><trkpt lat="42.10021620153078" lon="13.80708348451472"><ele>398.33333333333337</ele><time>2026-04-23T12:48:11.999Z</time></trkpt><trkpt lat="42.100377466400666" lon="13.807184508078691"><ele>397.0</ele><time>2026-04-23T12:48:12.999Z</time></trkpt><trkpt lat="42.10055207163441" lon="13.807285791886217"><ele>397.0</ele><time>2026-04-23T12:48:13.999Z</time></trkpt><trkpt lat="42.1007311506163" lon="13.807398635958704"><ele>397.0</ele><time>2026-04-23T12:48:14.999Z</time></trkpt><trkpt lat="42.10089976554866" lon="13.80750306829642"><ele>397.0</ele><time>2026-04-23T12:48:15.999Z</time></trkpt><trkpt lat="42.1010529854697" lon="13.807599495718037"><ele>395.6666666666667</ele><time>2026-04-23T12:48:16.999Z</time></trkpt><trkpt lat="42.10119619653093" lon="13.807689580531243"><ele>394.33333333333337</ele><time>2026-04-23T12:48:17.999Z</time></trkpt><trkpt lat="42.10133264231892" lon="13.807773977374055"><ele>393.0</ele><time>2026-04-23T12:48:18.999Z</time></trkpt><trkpt lat="42.101466790646725" lon="13.807848129716044"><ele>393.25</ele><time>2026-04-23T12:48:19.999Z</time></trkpt><trkpt lat="42.101593718673094" lon="13.807930236056263"><ele>393.5</ele><time>2026-04-23T12:48:20.999Z</time></trkpt><trkpt lat="42.10171723228074" lon="13.808011691658107"><ele>393.75</ele><time>2026-04-23T12:48:21.999Z</time></trkpt><trkpt lat="42.101826066179015" lon="13.808091826462661"><ele>394.0</ele><time>2026-04-23T12:48:22.999Z</time></trkpt><trkpt lat="42.10193087291347" lon="13.808195331753907"><ele>394.0</ele><time>2026-04-23T12:48:23.999Z</time></trkpt><trkpt lat="42.10201443039697" lon="13.808342616803525"><ele>394.0</ele><time>2026-04-23T12:48:24.999Z</time></trkpt><trkpt lat="42.1020824373478" lon="13.808511799968667"><ele>394.0</ele><time>2026-04-23T12:48:25.999Z</time></trkpt><trkpt lat="42.10214738966245" lon="13.808714286968023"><ele>394.0</ele><time>2026-04-23T12:48:26.999Z</time></trkpt><trkpt lat="42.10220236276023" lon="13.80893847591776"><ele>393.6666666666667</ele><time>2026-04-23T12:48:27.999Z</time></trkpt><trkpt lat="42.10226436590652" lon="13.809185138987159"><ele>393.33333333333337</ele><time>2026-04-23T12:48:28.999Z</time></trkpt><trkpt lat="42.102340755730594" lon="13.809423939210282"><ele>393.0</ele><time>2026-04-23T12:48:29.999Z</time></trkpt><trkpt lat="42.10238485481081" lon="13.809654978073416"><ele>394.0</ele><time>2026-04-23T12:48:30.999Z</time></trkpt><trkpt lat="42.10243545355439" lon="13.809860826839264"><ele>395.0</ele><time>2026-04-23T12:48:31.999Z</time></trkpt><trkpt lat="42.10248452467309" lon="13.810048658867387"><ele>396.0</ele><time>2026-04-23T12:48:32.999Z</time></trkpt><trkpt lat="42.102524197729224" lon="13.810222736041904"><ele>397.0</ele><time>2026-04-23T12:48:33.999Z</time></trkpt><trkpt lat="42.10256029795422" lon="13.810399240471169"><ele>397.0</ele><time>2026-04-23T12:48:34.999Z</time></trkpt><trkpt lat="42.10259280485889" lon="13.810587402853043"><ele>397.0</ele><time>2026-04-23T12:48:35.999Z</time></trkpt><trkpt lat="42.102610224732665" lon="13.8107274206605"><ele>397.0</ele><time>2026-04-23T12:48:36.999Z</time></trkpt><trkpt lat="42.10261706137829" lon="13.810876916627258"><ele>397.0</ele><time>2026-04-23T12:48:37.999Z</time></trkpt><trkpt lat="42.10259216102825" lon="13.811033684801378"><ele>396.25</ele><time>2026-04-23T12:48:38.999Z</time></trkpt><trkpt lat="42.1025465122756" lon="13.811199736917844"><ele>395.5</ele><time>2026-04-23T12:48:39.999Z</time></trkpt><trkpt lat="42.10249209141437" lon="13.81134818706532"><ele>394.75</ele><time>2026-04-23T12:48:40.999Z</time></trkpt><trkpt lat="42.10244939205544" lon="13.81147880814894"><ele>394.0</ele><time>2026-04-23T12:48:41.999Z</time></trkpt><trkpt lat="42.102431443278604" lon="13.81161803585489"><ele>394.0</ele><time>2026-04-23T12:48:42.999Z</time></trkpt><trkpt lat="42.102422524108356" lon="13.811777095249328"><ele>394.0</ele><time>2026-04-23T12:48:43.999Z</time></trkpt><trkpt lat="42.10241476035137" lon="13.811960733636123"><ele>394.0</ele><time>2026-04-23T12:48:44.999Z</time></trkpt><trkpt lat="42.10239843017712" lon="13.812144310213338"><ele>394.0</ele><time>2026-04-23T12:48:45.999Z</time></trkpt><trkpt lat="42.10239703007675" lon="13.812374825269346"><ele>394.0</ele><time>2026-04-23T12:48:46.999Z</time></trkpt><trkpt lat="42.102391652374074" lon="13.812610797536571"><ele>394.0</ele><time>2026-04-23T12:48:47.999Z</time></trkpt><trkpt lat="42.10238854023939" lon="13.812825530587203"><ele>394.0</ele><time>2026-04-23T12:48:48.999Z</time></trkpt><trkpt lat="42.10239110274761" lon="13.813010882529625"><ele>393.6</ele><time>2026-04-23T12:48:49.999Z</time></trkpt><trkpt lat="42.10238829400639" lon="13.813156233583888"><ele>393.2</ele><time>2026-04-23T12:48:50.999Z</time></trkpt><trkpt lat="42.10238834649982" lon="13.813280200343911"><ele>392.8</ele><time>2026-04-23T12:48:51.999Z</time></trkpt><trkpt lat="42.10238696818478" lon="13.813406696799095"><ele>392.40000000000003</ele><time>2026-04-23T12:48:52.999Z</time></trkpt><trkpt lat="42.10238922009725" lon="13.81355252755322"><ele>392.0</ele><time>2026-04-23T12:48:53.999Z</time></trkpt><trkpt lat="42.10238832285312" lon="13.813722573233091"><ele>391.5</ele><time>2026-04-23T12:48:54.999Z</time></trkpt><trkpt lat="42.10238808505091" lon="13.813904869357229"><ele>391.0</ele><time>2026-04-23T12:48:55.999Z</time></trkpt><trkpt lat="42.102384405058935" lon="13.814079413550488"><ele>390.5</ele><time>2026-04-23T12:48:56.999Z</time></trkpt><trkpt lat="42.10238521381392" lon="13.814247171928109"><ele>390.0</ele><time>2026-04-23T12:48:57.999Z</time></trkpt><trkpt lat="42.10238103430191" lon="13.814403855912365"><ele>389.5</ele><time>2026-04-23T12:48:58.999Z</time></trkpt><trkpt lat="42.1023834014168" lon="13.814530413769575"><ele>389.0</ele><time>2026-04-23T12:48:59.999Z</time></trkpt><trkpt lat="42.10238745357412" lon="13.814645089278699"><ele>388.5</ele><time>2026-04-23T12:49:00.999Z</time></trkpt><trkpt lat="42.10241170790916" lon="13.814748590858363"><ele>388.0</ele><time>2026-04-23T12:49:01.999Z</time></trkpt><trkpt lat="42.10246507150011" lon="13.814844703871696"><ele>387.5</ele><time>2026-04-23T12:49:02.999Z</time></trkpt><trkpt lat="42.10252678022845" lon="13.814908006544641"><ele>387.0</ele><time>2026-04-23T12:49:03.999Z</time></trkpt><trkpt lat="42.102595933031864" lon="13.81496028507743"><ele>386.75</ele><time>2026-04-23T12:49:04.999Z</time></trkpt><trkpt lat="42.102689762106955" lon="13.815026271981374"><ele>386.5</ele><time>2026-04-23T12:49:05.999Z</time></trkpt><trkpt lat="42.10279695195245" lon="13.815117875541972"><ele>386.25</ele><time>2026-04-23T12:49:06.999Z</time></trkpt><trkpt lat="42.102914048697066" lon="13.815224198330597"><ele>386.0</ele><time>2026-04-23T12:49:07.999Z</time></trkpt><trkpt lat="42.10303632048376" lon="13.815346999786453"><ele>386.0</ele><time>2026-04-23T12:49:08.999Z</time></trkpt><trkpt lat="42.10314992969108" lon="13.815508112027723"><ele>386.0</ele><time>2026-04-23T12:49:09.999Z</time></trkpt><trkpt lat="42.10327451461254" lon="13.815656259434641"><ele>386.0</ele><time>2026-04-23T12:49:10.999Z</time></trkpt><trkpt lat="42.10339796531876" lon="13.815808806083844"><ele>385.3333333333333</ele><time>2026-04-23T12:49:11.999Z</time></trkpt><trkpt lat="42.10353017697611" lon="13.815956687922927"><ele>384.66666666666663</ele><time>2026-04-23T12:49:12.999Z</time></trkpt><trkpt lat="42.10365534721831" lon="13.816136299533506"><ele>384.0</ele><time>2026-04-23T12:49:13.999Z</time></trkpt><trkpt lat="42.10377200756454" lon="13.816342842671391"><ele>384.0</ele><time>2026-04-23T12:49:14.999Z</time></trkpt><trkpt lat="42.10390782322762" lon="13.816526678347453"><ele>384.0</ele><time>2026-04-23T12:49:15.999Z</time></trkpt><trkpt lat="42.104019408878806" lon="13.816711207680228"><ele>384.0</ele><time>2026-04-23T12:49:16.999Z</time></trkpt><trkpt lat="42.10413355348224" lon="13.816911459722013"><ele>383.6666666666667</ele><time>2026-04-23T12:49:17.999Z</time></trkpt><trkpt lat="42.10423304631202" lon="13.817132556559113"><ele>383.33333333333337</ele><time>2026-04-23T12:49:18.999Z</time></trkpt><trkpt lat="42.10433684852836" lon="13.817354639930937"><ele>383.0</ele><time>2026-04-23T12:49:19.999Z</time></trkpt><trkpt lat="42.10445226920872" lon="13.817572113516784"><ele>383.0</ele><time>2026-04-23T12:49:20.999Z</time></trkpt><trkpt lat="42.10456074153005" lon="13.817803009367005"><ele>383.0</ele><time>2026-04-23T12:49:21.999Z</time></trkpt><trkpt lat="42.10466921133249" lon="13.818038082836336"><ele>383.0</ele><time>2026-04-23T12:49:22.999Z</time></trkpt><trkpt lat="42.104776795485016" lon="13.818276962617874"><ele>382.6666666666667</ele><time>2026-04-23T12:49:23.999Z</time></trkpt><trkpt lat="42.104884383454326" lon="13.81852019292794"><ele>382.3333333333333</ele><time>2026-04-23T12:49:24.999Z</time></trkpt><trkpt lat="42.10499578724511" lon="13.818764055912185"><ele>382.0</ele><time>2026-04-23T12:49:25.999Z</time></trkpt><trkpt lat="42.10510606233015" lon="13.818998905236212"><ele>381.3333333333333</ele><time>2026-04-23T12:49:26.999Z</time></trkpt><trkpt lat="42.10521392956985" lon="13.81922578126605"><ele>380.6666666666667</ele><time>2026-04-23T12:49:27.999Z</time></trkpt><trkpt lat="42.10531955109391" lon="13.819456036954444"><ele>380.0</ele><time>2026-04-23T12:49:28.999Z</time></trkpt><trkpt lat="42.105427424898956" lon="13.819686528673635"><ele>379.33333333333337</ele><time>2026-04-23T12:49:29.999Z</time></trkpt><trkpt lat="42.10553564433708" lon="13.819919668830686"><ele>378.6666666666667</ele><time>2026-04-23T12:49:30.999Z</time></trkpt><trkpt lat="42.105645367423854" lon="13.820150622457971"><ele>378.0</ele><time>2026-04-23T12:49:31.999Z</time></trkpt><trkpt lat="42.1057556481067" lon="13.82038030485359"><ele>377.6666666666667</ele><time>2026-04-23T12:49:32.999Z</time></trkpt><trkpt lat="42.105858008088966" lon="13.820607657157984"><ele>377.33333333333337</ele><time>2026-04-23T12:49:33.999Z</time></trkpt><trkpt lat="42.10596092312185" lon="13.82083382102585"><ele>377.0</ele><time>2026-04-23T12:49:34.999Z</time></trkpt><trkpt lat="42.10606183065172" lon="13.821048314571653"><ele>376.6666666666667</ele><time>2026-04-23T12:49:35.999Z</time></trkpt><trkpt lat="42.10616509626604" lon="13.821264058652071"><ele>376.3333333333333</ele><time>2026-04-23T12:49:36.999Z</time></trkpt><trkpt lat="42.10626549781636" lon="13.821476009934315"><ele>376.0</ele><time>2026-04-23T12:49:37.999Z</time></trkpt><trkpt lat="42.106367396921776" lon="13.821682495589254"><ele>375.3333333333333</ele><time>2026-04-23T12:49:38.999Z</time></trkpt><trkpt lat="42.106472926012714" lon="13.82188159898752"><ele>374.6666666666667</ele><time>2026-04-23T12:49:39.999Z</time></trkpt><trkpt lat="42.10658448994069" lon="13.822068148145894"><ele>374.0</ele><time>2026-04-23T12:49:40.999Z</time></trkpt><trkpt lat="42.10670943684063" lon="13.822238841687355"><ele>373.0</ele><time>2026-04-23T12:49:41.999Z</time></trkpt><trkpt lat="42.10684304325198" lon="13.82240501602169"><ele>372.0</ele><time>2026-04-23T12:49:42.999Z</time></trkpt><trkpt lat="42.106967326359005" lon="13.822588959033222"><ele>371.0</ele><time>2026-04-23T12:49:43.999Z</time></trkpt><trkpt lat="42.10710313955232" lon="13.822759542620515"><ele>371.0</ele><time>2026-04-23T12:49:44.999Z</time></trkpt><trkpt lat="42.10724155067323" lon="13.822931097418389"><ele>371.0</ele><time>2026-04-23T12:49:45.999Z</time></trkpt><trkpt lat="42.107390334624505" lon="13.823093427954815"><ele>371.0</ele><time>2026-04-23T12:49:46.999Z</time></trkpt><trkpt lat="42.10752611301293" lon="13.823279823924524"><ele>371.0</ele><time>2026-04-23T12:49:47.999Z</time></trkpt><trkpt lat="42.107670071124886" lon="13.823465239993705"><ele>371.0</ele><time>2026-04-23T12:49:48.999Z</time></trkpt><trkpt lat="42.10781658076324" lon="13.823658668219364"><ele>371.0</ele><time>2026-04-23T12:49:49.999Z</time></trkpt><trkpt lat="42.10796282171624" lon="13.823854622926397"><ele>371.0</ele><time>2026-04-23T12:49:50.999Z</time></trkpt><trkpt lat="42.108107190012966" lon="13.824059575555754"><ele>371.0</ele><time>2026-04-23T12:49:51.999Z</time></trkpt><trkpt lat="42.108240984629646" lon="13.824276110274548"><ele>371.0</ele><time>2026-04-23T12:49:52.999Z</time></trkpt><trkpt lat="42.10836377004418" lon="13.8244985051263"><ele>370.6666666666667</ele><time>2026-04-23T12:49:53.999Z</time></trkpt><trkpt lat="42.108482155780564" lon="13.824721888208794"><ele>370.3333333333333</ele><time>2026-04-23T12:49:54.999Z</time></trkpt><trkpt lat="42.108596540541285" lon="13.824956720452652"><ele>370.0</ele><time>2026-04-23T12:49:55.999Z</time></trkpt><trkpt lat="42.10869866649644" lon="13.825189762110032"><ele>369.66666666666663</ele><time>2026-04-23T12:49:56.999Z</time></trkpt><trkpt lat="42.108795434671606" lon="13.825412193855705"><ele>369.3333333333333</ele><time>2026-04-23T12:49:57.999Z</time></trkpt><trkpt lat="42.10890209128712" lon="13.825635456196476"><ele>369.0</ele><time>2026-04-23T12:49:58.999Z</time></trkpt><trkpt lat="42.10904173040091" lon="13.825845766160343"><ele>368.3333333333333</ele><time>2026-04-23T12:49:59.999Z</time></trkpt><trkpt lat="42.10920450028249" lon="13.826041744258763"><ele>367.66666666666663</ele><time>2026-04-23T12:50:00.999Z</time></trkpt><trkpt lat="42.109380900388935" lon="13.826233721642346"><ele>367.0</ele><time>2026-04-23T12:50:01.999Z</time></trkpt><trkpt lat="42.109552434808556" lon="13.826408817605964"><ele>367.0</ele><time>2026-04-23T12:50:02.999Z</time></trkpt><trkpt lat="42.109706613548475" lon="13.826576434035285"><ele>367.0</ele><time>2026-04-23T12:50:03.999Z</time></trkpt><trkpt lat="42.109842236267795" lon="13.82673312583197"><ele>367.0</ele><time>2026-04-23T12:50:04.999Z</time></trkpt><trkpt lat="42.10996682571286" lon="13.826864267523222"><ele>366.75</ele><time>2026-04-23T12:50:05.999Z</time></trkpt><trkpt lat="42.110088765696496" lon="13.826972473523702"><ele>366.5</ele><time>2026-04-23T12:50:06.998Z</time></trkpt><trkpt lat="42.110205200287396" lon="13.827070078805678"><ele>366.25</ele><time>2026-04-23T12:50:07.998Z</time></trkpt><trkpt lat="42.11030757781466" lon="13.827184138353838"><ele>366.0</ele><time>2026-04-23T12:50:08.998Z</time></trkpt><trkpt lat="42.11040068861667" lon="13.827344065445313"><ele>366.0</ele><time>2026-04-23T12:50:09.998Z</time></trkpt><trkpt lat="42.110503248319894" lon="13.827535330077366"><ele>366.0</ele><time>2026-04-23T12:50:11Z</time></trkpt><trkpt lat="42.11062103670081" lon="13.827731656311412"><ele>366.0</ele><time>2026-04-23T12:50:12Z</time></trkpt><trkpt lat="42.11075111801357" lon="13.827928711866914"><ele>365.6666666666667</ele><time>2026-04-23T12:50:13Z</time></trkpt><trkpt lat="42.11089097555911" lon="13.828123977451572"><ele>365.33333333333337</ele><time>2026-04-23T12:50:14Z</time></trkpt><trkpt lat="42.11104007527301" lon="13.828314948003179"><ele>365.0</ele><time>2026-04-23T12:50:15Z</time></trkpt><trkpt lat="42.11119653881818" lon="13.828504144138913"><ele>365.0</ele><time>2026-04-23T12:50:16Z</time></trkpt><trkpt lat="42.11136489175101" lon="13.828687213784463"><ele>365.0</ele><time>2026-04-23T12:50:17Z</time></trkpt><trkpt lat="42.11154220877994" lon="13.828877592384302"><ele>365.0</ele><time>2026-04-23T12:50:18Z</time></trkpt><trkpt lat="42.11172314048704" lon="13.829070868622628"><ele>365.0</ele><time>2026-04-23T12:50:19Z</time></trkpt><trkpt lat="42.11190616973861" lon="13.829261791985582"><ele>365.0</ele><time>2026-04-23T12:50:20Z</time></trkpt><trkpt lat="42.11209207978808" lon="13.829451844332073"><ele>364.5</ele><time>2026-04-23T12:50:21Z</time></trkpt><trkpt lat="42.112273259982175" lon="13.829643187071863"><ele>364.0</ele><time>2026-04-23T12:50:22Z</time></trkpt><trkpt lat="42.11245880373094" lon="13.829834314557594"><ele>364.0</ele><time>2026-04-23T12:50:23Z</time></trkpt><trkpt lat="42.1126418379296" lon="13.830025698906718"><ele>364.0</ele><time>2026-04-23T12:50:24Z</time></trkpt><trkpt lat="42.11282911272725" lon="13.830220496027248"><ele>363.0</ele><time>2026-04-23T12:50:25Z</time></trkpt><trkpt lat="42.113014693795535" lon="13.830413811548874"><ele>362.0</ele><time>2026-04-23T12:50:26Z</time></trkpt><trkpt lat="42.11319787543321" lon="13.830613185400404"><ele>361.5</ele><time>2026-04-23T12:50:27Z</time></trkpt><trkpt lat="42.11337688226137" lon="13.830809126414659"><ele>361.0</ele><time>2026-04-23T12:50:28Z</time></trkpt><trkpt lat="42.11355881154222" lon="13.831006649949519"><ele>360.5</ele><time>2026-04-23T12:50:29Z</time></trkpt><trkpt lat="42.113741800497706" lon="13.831205452543701"><ele>360.0</ele><time>2026-04-23T12:50:30Z</time></trkpt><trkpt lat="42.11392426491328" lon="13.83140576863366"><ele>360.0</ele><time>2026-04-23T12:50:31Z</time></trkpt><trkpt lat="42.11410997350617" lon="13.831609380415749"><ele>360.0</ele><time>2026-04-23T12:50:32Z</time></trkpt><trkpt lat="42.11429414385865" lon="13.831810829945484"><ele>360.0</ele><time>2026-04-23T12:50:33Z</time></trkpt><trkpt lat="42.114478967708564" lon="13.832014824611274"><ele>360.0</ele><time>2026-04-23T12:50:34Z</time></trkpt><trkpt lat="42.114666964100024" lon="13.832218528745727"><ele>360.0</ele><time>2026-04-23T12:50:35Z</time></trkpt><trkpt lat="42.11485723649424" lon="13.832425665514851"><ele>360.0</ele><time>2026-04-23T12:50:36Z</time></trkpt><trkpt lat="42.115039945644675" lon="13.83262958267371"><ele>359.5</ele><time>2026-04-23T12:50:37Z</time></trkpt><trkpt lat="42.115218675016976" lon="13.832827214120172"><ele>359.0</ele><time>2026-04-23T12:50:38Z</time></trkpt><trkpt lat="42.11538908402789" lon="13.83301471100108"><ele>359.0</ele><time>2026-04-23T12:50:39Z</time></trkpt><trkpt lat="42.11555706086799" lon="13.833205951094335"><ele>359.0</ele><time>2026-04-23T12:50:39.999Z</time></trkpt><trkpt lat="42.115732262756296" lon="13.833402202916602"><ele>359.0</ele><time>2026-04-23T12:50:40.999Z</time></trkpt><trkpt lat="42.11590917373098" lon="13.833598375426094"><ele>359.33333333333337</ele><time>2026-04-23T12:50:41.999Z</time></trkpt><trkpt lat="42.11607959460143" lon="13.833790884095174"><ele>359.6666666666667</ele><time>2026-04-23T12:50:42.999Z</time></trkpt><trkpt lat="42.11623896265803" lon="13.833966102577568"><ele>360.0</ele><time>2026-04-23T12:50:43.999Z</time></trkpt><trkpt lat="42.11638046788342" lon="13.834133112775465"><ele>360.0</ele><time>2026-04-23T12:50:44.999Z</time></trkpt><trkpt lat="42.11651236180356" lon="13.834291816554465"><ele>360.0</ele><time>2026-04-23T12:50:45.999Z</time></trkpt><trkpt lat="42.116630724871435" lon="13.834441562638997"><ele>360.0</ele><time>2026-04-23T12:50:46.999Z</time></trkpt><trkpt lat="42.11673961868563" lon="13.834577419958997"><ele>359.5</ele><time>2026-04-23T12:50:47.999Z</time></trkpt><trkpt lat="42.116839082249044" lon="13.834701665426353"><ele>359.0</ele><time>2026-04-23T12:50:48.999Z</time></trkpt><trkpt lat="42.11692690923851" lon="13.834819713432424"><ele>358.5</ele><time>2026-04-23T12:50:49.999Z</time></trkpt><trkpt lat="42.11700243646919" lon="13.834926663970032"><ele>358.0</ele><time>2026-04-23T12:50:50.999Z</time></trkpt><trkpt lat="42.117076957039366" lon="13.835016416935474"><ele>358.0</ele><time>2026-04-23T12:50:51.999Z</time></trkpt><trkpt lat="42.11716456616512" lon="13.835077428168194"><ele>358.0</ele><time>2026-04-23T12:50:52.999Z</time></trkpt><trkpt lat="42.11726257894" lon="13.835138434327096"><ele>358.0</ele><time>2026-04-23T12:50:53.999Z</time></trkpt><trkpt lat="42.117399586809704" lon="13.835090236162555"><ele>358.0</ele><time>2026-04-23T12:50:54.999Z</time></trkpt><trkpt lat="42.11753501709409" lon="13.83513409629769"><ele>357.66666666666663</ele><time>2026-04-23T12:50:55.999Z</time></trkpt><trkpt lat="42.117688646949325" lon="13.83524095871832"><ele>357.3333333333333</ele><time>2026-04-23T12:50:56.999Z</time></trkpt><trkpt lat="42.11785915684368" lon="13.835372419979256"><ele>357.0</ele><time>2026-04-23T12:50:57.999Z</time></trkpt><trkpt lat="42.11804875666647" lon="13.835504048958075"><ele>357.3333333333333</ele><time>2026-04-23T12:50:58.999Z</time></trkpt><trkpt lat="42.11824710334497" lon="13.835637351155881"><ele>357.66666666666663</ele><time>2026-04-23T12:50:59.999Z</time></trkpt><trkpt lat="42.11844371982897" lon="13.83577512152087"><ele>358.0</ele><time>2026-04-23T12:51:00.999Z</time></trkpt><trkpt lat="42.11864605563607" lon="13.835909557620376"><ele>358.5</ele><time>2026-04-23T12:51:01.999Z</time></trkpt><trkpt lat="42.11884935639281" lon="13.836052784876554"><ele>359.0</ele><time>2026-04-23T12:51:02.999Z</time></trkpt><trkpt lat="42.1190535037678" lon="13.836194438481208"><ele>358.0</ele><time>2026-04-23T12:51:03.999Z</time></trkpt><trkpt lat="42.11925438783198" lon="13.836339559004106"><ele>357.0</ele><time>2026-04-23T12:51:04.999Z</time></trkpt><trkpt lat="42.119462320706354" lon="13.83648475316505"><ele>357.0</ele><time>2026-04-23T12:51:05.999Z</time></trkpt><trkpt lat="42.119665382936894" lon="13.836631815678711"><ele>357.0</ele><time>2026-04-23T12:51:06.999Z</time></trkpt><trkpt lat="42.11987020957105" lon="13.836778058838826"><ele>356.0</ele><time>2026-04-23T12:51:07.999Z</time></trkpt><trkpt lat="42.120072263797276" lon="13.83692002865927"><ele>355.0</ele><time>2026-04-23T12:51:08.999Z</time></trkpt><trkpt lat="42.12027541933648" lon="13.83705986909213"><ele>355.0</ele><time>2026-04-23T12:51:09.999Z</time></trkpt><trkpt lat="42.12047703819615" lon="13.837195883349521"><ele>355.0</ele><time>2026-04-23T12:51:10.999Z</time></trkpt><trkpt lat="42.12067810765386" lon="13.837334369715682"><ele>355.0</ele><time>2026-04-23T12:51:11.999Z</time></trkpt><trkpt lat="42.120863451657776" lon="13.83746910960455"><ele>355.0</ele><time>2026-04-23T12:51:12.999Z</time></trkpt><trkpt lat="42.121034307555455" lon="13.837591311547865"><ele>355.0</ele><time>2026-04-23T12:51:13.999Z</time></trkpt><trkpt lat="42.12119475240787" lon="13.837709469879227"><ele>354.66666666666663</ele><time>2026-04-23T12:51:14.999Z</time></trkpt><trkpt lat="42.12134180778176" lon="13.837821491008278"><ele>354.3333333333333</ele><time>2026-04-23T12:51:15.999Z</time></trkpt><trkpt lat="42.12148511539516" lon="13.837932074445494"><ele>354.0</ele><time>2026-04-23T12:51:16.999Z</time></trkpt><trkpt lat="42.12163015376204" lon="13.838039849573262"><ele>354.0</ele><time>2026-04-23T12:51:17.999Z</time></trkpt><trkpt lat="42.12176613939467" lon="13.838157799991603"><ele>354.0</ele><time>2026-04-23T12:51:18.999Z</time></trkpt><trkpt lat="42.12187740562023" lon="13.838279456536304"><ele>354.0</ele><time>2026-04-23T12:51:19.999Z</time></trkpt><trkpt lat="42.121974333004765" lon="13.838396330123896"><ele>354.0</ele><time>2026-04-23T12:51:20.999Z</time></trkpt><trkpt lat="42.12205677732491" lon="13.838520208167347"><ele>354.0</ele><time>2026-04-23T12:51:21.999Z</time></trkpt><trkpt lat="42.12212537990974" lon="13.838651218124914"><ele>354.0</ele><time>2026-04-23T12:51:22.999Z</time></trkpt><trkpt lat="42.12218518680238" lon="13.838805789316739"><ele>354.0</ele><time>2026-04-23T12:51:23.999Z</time></trkpt><trkpt lat="42.122298020089914" lon="13.838918733742165"><ele>354.0</ele><time>2026-04-23T12:51:24.999Z</time></trkpt><trkpt lat="42.12240167770684" lon="13.839057095791366"><ele>353.6666666666667</ele><time>2026-04-23T12:51:25.999Z</time></trkpt><trkpt lat="42.12250058541886" lon="13.839222227409813"><ele>353.33333333333337</ele><time>2026-04-23T12:51:26.999Z</time></trkpt><trkpt lat="42.12259902565593" lon="13.83939924616435"><ele>353.0</ele><time>2026-04-23T12:51:27.999Z</time></trkpt><trkpt lat="42.12269400894851" lon="13.839590014397803"><ele>353.0</ele><time>2026-04-23T12:51:28.999Z</time></trkpt><trkpt lat="42.12279185476737" lon="13.839781583842829"><ele>353.0</ele><time>2026-04-23T12:51:29.999Z</time></trkpt><trkpt lat="42.1228929059885" lon="13.839970917301859"><ele>353.0</ele><time>2026-04-23T12:51:30.999Z</time></trkpt><trkpt lat="42.122994868334324" lon="13.840159078938912"><ele>353.33333333333337</ele><time>2026-04-23T12:51:31.999Z</time></trkpt><trkpt lat="42.12309457371642" lon="13.840349502777748"><ele>353.6666666666667</ele><time>2026-04-23T12:51:32.999Z</time></trkpt><trkpt lat="42.12319413162092" lon="13.840536573460449"><ele>354.0</ele><time>2026-04-23T12:51:33.999Z</time></trkpt><trkpt lat="42.12328960347534" lon="13.840720393576046"><ele>353.3333333333333</ele><time>2026-04-23T12:51:34.999Z</time></trkpt><trkpt lat="42.123381924330126" lon="13.840900518927526"><ele>352.66666666666663</ele><time>2026-04-23T12:51:35.999Z</time></trkpt><trkpt lat="42.123472317604865" lon="13.841072288487622"><ele>352.0</ele><time>2026-04-23T12:51:36.999Z</time></trkpt><trkpt lat="42.12355993236208" lon="13.841233657135897"><ele>352.0</ele><time>2026-04-23T12:51:37.999Z</time></trkpt><trkpt lat="42.12364204447334" lon="13.841389898214048"><ele>352.0</ele><time>2026-04-23T12:51:38.999Z</time></trkpt><trkpt lat="42.123710632180284" lon="13.841526877429626"><ele>352.0</ele><time>2026-04-23T12:51:39.999Z</time></trkpt><trkpt lat="42.12377055409459" lon="13.841642574985363"><ele>352.0</ele><time>2026-04-23T12:51:40.999Z</time></trkpt><trkpt lat="42.123827628146906" lon="13.841746524732011"><ele>352.0</ele><time>2026-04-23T12:51:41.999Z</time></trkpt><trkpt lat="42.1238845551865" lon="13.841847996615975"><ele>352.0</ele><time>2026-04-23T12:51:42.999Z</time></trkpt><trkpt lat="42.12394593273757" lon="13.841967276187814"><ele>352.0</ele><time>2026-04-23T12:51:43.999Z</time></trkpt><trkpt lat="42.12401081515409" lon="13.842102408083155"><ele>352.0</ele><time>2026-04-23T12:51:44.999Z</time></trkpt><trkpt lat="42.124079039448596" lon="13.842242679504558"><ele>352.0</ele><time>2026-04-23T12:51:45.999Z</time></trkpt><trkpt lat="42.12415560602836" lon="13.842387868516646"><ele>351.66666666666663</ele><time>2026-04-23T12:51:46.999Z</time></trkpt><trkpt lat="42.12424682419273" lon="13.842540747423609"><ele>351.3333333333333</ele><time>2026-04-23T12:51:47.999Z</time></trkpt><trkpt lat="42.124350730072706" lon="13.842685625732907"><ele>351.0</ele><time>2026-04-23T12:51:48.999Z</time></trkpt><trkpt lat="42.12448513743114" lon="13.84281631471029"><ele>351.0</ele><time>2026-04-23T12:51:49.999Z</time></trkpt><trkpt lat="42.12463031663336" lon="13.842946241242457"><ele>351.0</ele><time>2026-04-23T12:51:50.999Z</time></trkpt><trkpt lat="42.12475042706052" lon="13.843091802513483"><ele>351.0</ele><time>2026-04-23T12:51:51.999Z</time></trkpt><trkpt lat="42.1248851694673" lon="13.8432078085522"><ele>348.0</ele><time>2026-04-23T12:51:52.999Z</time></trkpt><trkpt lat="42.1250171135521" lon="13.843329911959971"><ele>345.0</ele><time>2026-04-23T12:51:53.999Z</time></trkpt><trkpt lat="42.12515342185695" lon="13.843456549290815"><ele>342.0</ele><time>2026-04-23T12:51:54.999Z</time></trkpt><trkpt lat="42.12529480829191" lon="13.843574288616253"><ele>341.0</ele><time>2026-04-23T12:51:55.999Z</time></trkpt><trkpt lat="42.12544104323879" lon="13.843686875503167"><ele>340.0</ele><time>2026-04-23T12:51:56.999Z</time></trkpt><trkpt lat="42.12557812262889" lon="13.843821664285048"><ele>339.0</ele><time>2026-04-23T12:51:57.999Z</time></trkpt><trkpt lat="42.1257345950185" lon="13.843912776470816"><ele>336.6666666666667</ele><time>2026-04-23T12:51:58.999Z</time></trkpt><trkpt lat="42.125887407258006" lon="13.843997207415649"><ele>334.33333333333337</ele><time>2026-04-23T12:51:59.999Z</time></trkpt><trkpt lat="42.1260579871051" lon="13.844067597595783"><ele>332.0</ele><time>2026-04-23T12:52:00.999Z</time></trkpt><trkpt lat="42.12624993071417" lon="13.844137561983757"><ele>332.0</ele><time>2026-04-23T12:52:01.999Z</time></trkpt><trkpt lat="42.12646601635635" lon="13.844216528552954"><ele>332.0</ele><time>2026-04-23T12:52:02.999Z</time></trkpt><trkpt lat="42.12667690410582" lon="13.844313987405075"><ele>332.0</ele><time>2026-04-23T12:52:03.999Z</time></trkpt><trkpt lat="42.126915985492936" lon="13.84439453084982"><ele>328.6666666666667</ele><time>2026-04-23T12:52:04.999Z</time></trkpt><trkpt lat="42.12712675730131" lon="13.844471336112907"><ele>325.3333333333333</ele><time>2026-04-23T12:52:05.999Z</time></trkpt><trkpt lat="42.127331582554234" lon="13.844546072641025"><ele>322.0</ele><time>2026-04-23T12:52:06.999Z</time></trkpt><trkpt lat="42.12752777009226" lon="13.844650432546167"><ele>322.0</ele><time>2026-04-23T12:52:07.999Z</time></trkpt><trkpt lat="42.127713076872766" lon="13.844769920376374"><ele>322.0</ele><time>2026-04-23T12:52:08.999Z</time></trkpt><trkpt lat="42.12789789557062" lon="13.844934481129597"><ele>322.0</ele><time>2026-04-23T12:52:09.999Z</time></trkpt><trkpt lat="42.12808635209359" lon="13.845142779862806"><ele>317.0</ele><time>2026-04-23T12:52:10.999Z</time></trkpt><trkpt lat="42.12830184516021" lon="13.845377353560997"><ele>312.0</ele><time>2026-04-23T12:52:11.999Z</time></trkpt><trkpt lat="42.12854029502865" lon="13.845637122476358"><ele>312.0</ele><time>2026-04-23T12:52:12.999Z</time></trkpt><trkpt lat="42.12879231923995" lon="13.845912941657511"><ele>312.0</ele><time>2026-04-23T12:52:13.999Z</time></trkpt><trkpt lat="42.12906827866339" lon="13.846215708487106"><ele>312.5</ele><time>2026-04-23T12:52:14.999Z</time></trkpt><trkpt lat="42.129310403761835" lon="13.846481354315317"><ele>313.0</ele><time>2026-04-23T12:52:15.999Z</time></trkpt><trkpt lat="42.12953687825549" lon="13.846728798738805"><ele>308.0</ele><time>2026-04-23T12:52:17Z</time></trkpt><trkpt lat="42.12975668318732" lon="13.846968222992071"><ele>303.0</ele><time>2026-04-23T12:52:18Z</time></trkpt><trkpt lat="42.12995744630962" lon="13.847190147086573"><ele>303.0</ele><time>2026-04-23T12:52:19Z</time></trkpt><trkpt lat="42.13015365919968" lon="13.847403828019953"><ele>303.0</ele><time>2026-04-23T12:52:20Z</time></trkpt><trkpt lat="42.130327579791754" lon="13.847650106731676"><ele>294.5</ele><time>2026-04-23T12:52:21Z</time></trkpt><trkpt lat="42.13049166130708" lon="13.847931262337779"><ele>286.0</ele><time>2026-04-23T12:52:22Z</time></trkpt><trkpt lat="42.130659951412895" lon="13.848231433004495"><ele>288.0</ele><time>2026-04-23T12:52:23Z</time></trkpt><trkpt lat="42.13085193511422" lon="13.848550573133277"><ele>290.0</ele><time>2026-04-23T12:52:24Z</time></trkpt><trkpt lat="42.131034529502394" lon="13.848903883581675"><ele>290.0</ele><time>2026-04-23T12:52:25Z</time></trkpt><trkpt lat="42.13123167605696" lon="13.849264146322875"><ele>290.0</ele><time>2026-04-23T12:52:26Z</time></trkpt><trkpt lat="42.13141969618648" lon="13.849641206430622"><ele>284.5</ele><time>2026-04-23T12:52:27Z</time></trkpt><trkpt lat="42.13162656477138" lon="13.85000163213232"><ele>279.0</ele><time>2026-04-23T12:52:28Z</time></trkpt><trkpt lat="42.131829060694244" lon="13.850376150898313"><ele>274.0</ele><time>2026-04-23T12:52:29Z</time></trkpt><trkpt lat="42.13202696004641" lon="13.850742682581057"><ele>269.0</ele><time>2026-04-23T12:52:30Z</time></trkpt><trkpt lat="42.132214404485715" lon="13.851084930245525"><ele>266.0</ele><time>2026-04-23T12:52:31Z</time></trkpt><trkpt lat="42.13239080483046" lon="13.851420516688577"><ele>263.0</ele><time>2026-04-23T12:52:32Z</time></trkpt><trkpt lat="42.13256992529533" lon="13.85175274132891"><ele>261.5</ele><time>2026-04-23T12:52:33Z</time></trkpt><trkpt lat="42.132743521373165" lon="13.852077712091273"><ele>260.0</ele><time>2026-04-23T12:52:34Z</time></trkpt><trkpt lat="42.13291025606411" lon="13.85238452836893"><ele>260.0</ele><time>2026-04-23T12:52:35Z</time></trkpt><trkpt lat="42.1330706472595" lon="13.852686306834208"><ele>260.0</ele><time>2026-04-23T12:52:36Z</time></trkpt><trkpt lat="42.13323490400238" lon="13.85298532851729"><ele>260.0</ele><time>2026-04-23T12:52:37Z</time></trkpt><trkpt lat="42.13339900438552" lon="13.853288385096299"><ele>260.0</ele><time>2026-04-23T12:52:38Z</time></trkpt><trkpt lat="42.13356394415172" lon="13.853591408363856"><ele>260.5</ele><time>2026-04-23T12:52:39Z</time></trkpt><trkpt lat="42.13372869347499" lon="13.853890222260599"><ele>261.0</ele><time>2026-04-23T12:52:40Z</time></trkpt><trkpt lat="42.13387850118711" lon="13.854171784520434"><ele>261.5</ele><time>2026-04-23T12:52:41Z</time></trkpt><trkpt lat="42.13402549497279" lon="13.854443895539209"><ele>262.0</ele><time>2026-04-23T12:52:42Z</time></trkpt><trkpt lat="42.13417134910577" lon="13.854714381057994"><ele>262.0</ele><time>2026-04-23T12:52:43Z</time></trkpt><trkpt lat="42.13430842851526" lon="13.854982926419314"><ele>262.0</ele><time>2026-04-23T12:52:44Z</time></trkpt><trkpt lat="42.134435386367066" lon="13.85523868013338"><ele>262.0</ele><time>2026-04-23T12:52:45Z</time></trkpt><trkpt lat="42.134546702816536" lon="13.855495777022576"><ele>262.0</ele><time>2026-04-23T12:52:46Z</time></trkpt><trkpt lat="42.13464989805665" lon="13.855770492198076"><ele>262.0</ele><time>2026-04-23T12:52:47Z</time></trkpt><trkpt lat="42.13474514812972" lon="13.856057770415772"><ele>261.3333333333333</ele><time>2026-04-23T12:52:48Z</time></trkpt><trkpt lat="42.13483705986846" lon="13.856337830676349"><ele>260.6666666666667</ele><time>2026-04-23T12:52:49Z</time></trkpt><trkpt lat="42.13492709664104" lon="13.85659537103849"><ele>260.0</ele><time>2026-04-23T12:52:50Z</time></trkpt><trkpt lat="42.13500660171892" lon="13.85683463039244"><ele>261.0</ele><time>2026-04-23T12:52:51Z</time></trkpt><trkpt lat="42.13507569487925" lon="13.857043673740835"><ele>262.0</ele><time>2026-04-23T12:52:52Z</time></trkpt><trkpt lat="42.13513336941529" lon="13.857220284628154"><ele>263.0</ele><time>2026-04-23T12:52:53Z</time></trkpt><trkpt lat="42.13518213019192" lon="13.857368384291469"><ele>264.0</ele><time>2026-04-23T12:52:54Z</time></trkpt><trkpt lat="42.13522446702033" lon="13.857502471849505"><ele>264.0</ele><time>2026-04-23T12:52:54.999Z</time></trkpt><trkpt lat="42.13524547554415" lon="13.857621451440405"><ele>264.0</ele><time>2026-04-23T12:52:55.999Z</time></trkpt><trkpt lat="42.135224817308846" lon="13.85774246641722"><ele>264.0</ele><time>2026-04-23T12:52:56.999Z</time></trkpt><trkpt lat="42.135169130927046" lon="13.857870313651906"><ele>264.0</ele><time>2026-04-23T12:52:57.999Z</time></trkpt><trkpt lat="42.13509675897238" lon="13.857997702189085"><ele>264.0</ele><time>2026-04-23T12:52:58.999Z</time></trkpt><trkpt lat="42.135057737995496" lon="13.858141928075355"><ele>264.0</ele><time>2026-04-23T12:52:59.999Z</time></trkpt><trkpt lat="42.13506495226406" lon="13.85829278063025"><ele>264.0</ele><time>2026-04-23T12:53:00.999Z</time></trkpt><trkpt lat="42.13510576939" lon="13.858440024451408"><ele>264.0</ele><time>2026-04-23T12:53:01.999Z</time></trkpt><trkpt lat="42.13518749428089" lon="13.858560221378543"><ele>264.0</ele><time>2026-04-23T12:53:02.999Z</time></trkpt><trkpt lat="42.13529451637651" lon="13.858648706602898"><ele>265.0</ele><time>2026-04-23T12:53:03.999Z</time></trkpt><trkpt lat="42.13541525553091" lon="13.858681518057006"><ele>266.0</ele><time>2026-04-23T12:53:04.999Z</time></trkpt><trkpt lat="42.135542906949084" lon="13.858647823573476"><ele>267.0</ele><time>2026-04-23T12:53:05.999Z</time></trkpt><trkpt lat="42.13566585089583" lon="13.858556176475396"><ele>268.0</ele><time>2026-04-23T12:53:06.999Z</time></trkpt><trkpt lat="42.13576277226357" lon="13.858413076236333"><ele>268.0</ele><time>2026-04-23T12:53:07.999Z</time></trkpt><trkpt lat="42.13583542009885" lon="13.858260329895279"><ele>268.0</ele><time>2026-04-23T12:53:08.999Z</time></trkpt><trkpt lat="42.135916510166915" lon="13.858159361481889"><ele>268.0</ele><time>2026-04-23T12:53:09.999Z</time></trkpt><trkpt lat="42.13604948716318" lon="13.858121270596516"><ele>268.0</ele><time>2026-04-23T12:53:10.999Z</time></trkpt><trkpt lat="42.13622277347887" lon="13.858120390417023"><ele>268.0</ele><time>2026-04-23T12:53:11.999Z</time></trkpt><trkpt lat="42.136441734400776" lon="13.85810814831423"><ele>268.0</ele><time>2026-04-23T12:53:12.999Z</time></trkpt><trkpt lat="42.13669113727722" lon="13.85805623164198"><ele>271.0</ele><time>2026-04-23T12:53:13.999Z</time></trkpt><trkpt lat="42.136970990258604" lon="13.85797527259692"><ele>274.0</ele><time>2026-04-23T12:53:14.999Z</time></trkpt><trkpt lat="42.13727577846944" lon="13.857890193465732"><ele>273.5</ele><time>2026-04-23T12:53:15.999Z</time></trkpt><trkpt lat="42.13759679739788" lon="13.85781134479559"><ele>273.0</ele><time>2026-04-23T12:53:16.999Z</time></trkpt><trkpt lat="42.13794051982903" lon="13.85772666059566"><ele>271.5</ele><time>2026-04-23T12:53:17.999Z</time></trkpt><trkpt lat="42.13826664933135" lon="13.85763651997806"><ele>270.0</ele><time>2026-04-23T12:53:18.999Z</time></trkpt><trkpt lat="42.13854517100703" lon="13.857570473327527"><ele>266.0</ele><time>2026-04-23T12:53:19.999Z</time></trkpt><trkpt lat="42.13880076281837" lon="13.857503360317398"><ele>262.0</ele><time>2026-04-23T12:53:20.999Z</time></trkpt><trkpt lat="42.139038661943" lon="13.857438717851695"><ele>264.0</ele><time>2026-04-23T12:53:21.999Z</time></trkpt><trkpt lat="42.13926908992978" lon="13.857376125717108"><ele>266.0</ele><time>2026-04-23T12:53:22.999Z</time></trkpt><trkpt lat="42.139511644031465" lon="13.857300658477056"><ele>266.0</ele><time>2026-04-23T12:53:23.999Z</time></trkpt><trkpt lat="42.13975430518884" lon="13.85720267504306"><ele>266.0</ele><time>2026-04-23T12:53:24.999Z</time></trkpt><trkpt lat="42.14000739946068" lon="13.857065321444543"><ele>264.5</ele><time>2026-04-23T12:53:25.999Z</time></trkpt><trkpt lat="42.140264379839884" lon="13.856902761844983"><ele>263.0</ele><time>2026-04-23T12:53:26.999Z</time></trkpt><trkpt lat="42.140510296273256" lon="13.856721037846393"><ele>264.0</ele><time>2026-04-23T12:53:27.999Z</time></trkpt><trkpt lat="42.14074464128397" lon="13.856514075930335"><ele>265.0</ele><time>2026-04-23T12:53:28.999Z</time></trkpt><trkpt lat="42.14096869427605" lon="13.856293807580629"><ele>265.0</ele><time>2026-04-23T12:53:29.999Z</time></trkpt><trkpt lat="42.14119044293121" lon="13.85605871285121"><ele>265.0</ele><time>2026-04-23T12:53:30.999Z</time></trkpt><trkpt lat="42.1414233034667" lon="13.855781379966322"><ele>266.5</ele><time>2026-04-23T12:53:31.999Z</time></trkpt><trkpt lat="42.14166260521977" lon="13.855486248086192"><ele>268.0</ele><time>2026-04-23T12:53:32.999Z</time></trkpt><trkpt lat="42.14188303070459" lon="13.855215739515113"><ele>265.5</ele><time>2026-04-23T12:53:33.999Z</time></trkpt><trkpt lat="42.14208195896556" lon="13.854973625644094"><ele>263.0</ele><time>2026-04-23T12:53:34.999Z</time></trkpt><trkpt lat="42.142270995698325" lon="13.854743887610994"><ele>267.0</ele><time>2026-04-23T12:53:35.999Z</time></trkpt><trkpt lat="42.14245974438561" lon="13.854516407012984"><ele>271.0</ele><time>2026-04-23T12:53:36.999Z</time></trkpt><trkpt lat="42.1426412727028" lon="13.854314748158515"><ele>267.0</ele><time>2026-04-23T12:53:37.999Z</time></trkpt><trkpt lat="42.1428387017053" lon="13.854123790446753"><ele>263.0</ele><time>2026-04-23T12:53:38.999Z</time></trkpt><trkpt lat="42.14305754453271" lon="13.853943177007816"><ele>269.5</ele><time>2026-04-23T12:53:39.999Z</time></trkpt><trkpt lat="42.143289012411614" lon="13.853771101337786"><ele>276.0</ele><time>2026-04-23T12:53:40.999Z</time></trkpt><trkpt lat="42.143530195006" lon="13.853600828390666"><ele>269.5</ele><time>2026-04-23T12:53:41.999Z</time></trkpt><trkpt lat="42.143779444579714" lon="13.85344404025841"><ele>263.0</ele><time>2026-04-23T12:53:42.999Z</time></trkpt><trkpt lat="42.14403535489592" lon="13.8532838095653"><ele>266.5</ele><time>2026-04-23T12:53:43.999Z</time></trkpt><trkpt lat="42.1442938210798" lon="13.853117396400927"><ele>270.0</ele><time>2026-04-23T12:53:44.999Z</time></trkpt><trkpt lat="42.14454527962456" lon="13.852936483888962"><ele>270.0</ele><time>2026-04-23T12:53:45.999Z</time></trkpt><trkpt lat="42.14479466389524" lon="13.852747575021834"><ele>270.0</ele><time>2026-04-23T12:53:46.999Z</time></trkpt><trkpt lat="42.145035219968634" lon="13.85251540487528"><ele>269.0</ele><time>2026-04-23T12:53:47.999Z</time></trkpt><trkpt lat="42.14527365445465" lon="13.85225257884988"><ele>268.0</ele><time>2026-04-23T12:53:48.999Z</time></trkpt><trkpt lat="42.14549389153873" lon="13.851957731208763"><ele>267.5</ele><time>2026-04-23T12:53:49.999Z</time></trkpt><trkpt lat="42.14569918337645" lon="13.851636024851318"><ele>267.0</ele><time>2026-04-23T12:53:50.999Z</time></trkpt><trkpt lat="42.14587988496182" lon="13.851279109488685"><ele>265.5</ele><time>2026-04-23T12:53:51.999Z</time></trkpt><trkpt lat="42.14607005974198" lon="13.850931228496648"><ele>264.0</ele><time>2026-04-23T12:53:52.999Z</time></trkpt><trkpt lat="42.14626672883597" lon="13.85060404640144"><ele>264.0</ele><time>2026-04-23T12:53:53.999Z</time></trkpt><trkpt lat="42.146438575252006" lon="13.85028878479291"><ele>264.0</ele><time>2026-04-23T12:53:54.999Z</time></trkpt><trkpt lat="42.14659395708887" lon="13.849998096974113"><ele>272.0</ele><time>2026-04-23T12:53:55.999Z</time></trkpt><trkpt lat="42.146736479938525" lon="13.849731465587624"><ele>280.0</ele><time>2026-04-23T12:53:56.999Z</time></trkpt><trkpt lat="42.14686714668232" lon="13.849496079670901"><ele>277.66666666666663</ele><time>2026-04-23T12:53:57.999Z</time></trkpt><trkpt lat="42.14698868128225" lon="13.849290723342175"><ele>275.3333333333333</ele><time>2026-04-23T12:53:58.999Z</time></trkpt><trkpt lat="42.147117518606166" lon="13.849108832913267"><ele>273.0</ele><time>2026-04-23T12:53:59.999Z</time></trkpt><trkpt lat="42.14726425392492" lon="13.848941366022999"><ele>277.6666666666667</ele><time>2026-04-23T12:54:00.999Z</time></trkpt><trkpt lat="42.147430896664844" lon="13.848786657005052"><ele>282.33333333333337</ele><time>2026-04-23T12:54:01.999Z</time></trkpt><trkpt lat="42.14763638931589" lon="13.848688370404632"><ele>287.0</ele><time>2026-04-23T12:54:02.999Z</time></trkpt><trkpt lat="42.147847009895756" lon="13.848553143130333"><ele>286.33333333333337</ele><time>2026-04-23T12:54:03.999Z</time></trkpt><trkpt lat="42.14806450845037" lon="13.848443042224092"><ele>285.6666666666667</ele><time>2026-04-23T12:54:04.999Z</time></trkpt><trkpt lat="42.148252340806145" lon="13.848323687821175"><ele>285.0</ele><time>2026-04-23T12:54:05.999Z</time></trkpt><trkpt lat="42.1484150546984" lon="13.848182894747426"><ele>285.0</ele><time>2026-04-23T12:54:06.999Z</time></trkpt><trkpt lat="42.14856902573154" lon="13.8479884996092"><ele>285.0</ele><time>2026-04-23T12:54:07.999Z</time></trkpt><trkpt lat="42.14871535332495" lon="13.847743052286726"><ele>285.0</ele><time>2026-04-23T12:54:08.999Z</time></trkpt><trkpt lat="42.1488667683902" lon="13.84745233962586"><ele>286.0</ele><time>2026-04-23T12:54:09.999Z</time></trkpt><trkpt lat="42.14902245870488" lon="13.84713621940031"><ele>287.0</ele><time>2026-04-23T12:54:10.999Z</time></trkpt><trkpt lat="42.14918607879302" lon="13.846802139853159"><ele>285.0</ele><time>2026-04-23T12:54:11.999Z</time></trkpt><trkpt lat="42.149346162949975" lon="13.846480837618506"><ele>283.0</ele><time>2026-04-23T12:54:12.999Z</time></trkpt><trkpt lat="42.14948390966411" lon="13.846211075728526"><ele>281.5</ele><time>2026-04-23T12:54:13.999Z</time></trkpt><trkpt lat="42.14961828514568" lon="13.845960339440557"><ele>280.0</ele><time>2026-04-23T12:54:14.999Z</time></trkpt><trkpt lat="42.149752939294366" lon="13.84569967324422"><ele>284.5</ele><time>2026-04-23T12:54:15.999Z</time></trkpt><trkpt lat="42.14989082415994" lon="13.845426002651788"><ele>289.0</ele><time>2026-04-23T12:54:16.999Z</time></trkpt><trkpt lat="42.15002701723547" lon="13.84515765288807"><ele>288.0</ele><time>2026-04-23T12:54:17.999Z</time></trkpt><trkpt lat="42.15015792120309" lon="13.844903417041937"><ele>287.0</ele><time>2026-04-23T12:54:18.999Z</time></trkpt><trkpt lat="42.150290509116864" lon="13.844657370744441"><ele>287.0</ele><time>2026-04-23T12:54:19.999Z</time></trkpt><trkpt lat="42.15042001107865" lon="13.844422710050303"><ele>287.0</ele><time>2026-04-23T12:54:20.999Z</time></trkpt><trkpt lat="42.150547472310045" lon="13.844196775580274"><ele>287.0</ele><time>2026-04-23T12:54:22Z</time></trkpt><trkpt lat="42.15068014884888" lon="13.843979407302875"><ele>287.33333333333337</ele><time>2026-04-23T12:54:23Z</time></trkpt><trkpt lat="42.15083063219153" lon="13.843791397037958"><ele>287.6666666666667</ele><time>2026-04-23T12:54:24Z</time></trkpt><trkpt lat="42.15097269440293" lon="13.843577111152022"><ele>288.0</ele><time>2026-04-23T12:54:25Z</time></trkpt><trkpt lat="42.15111128493796" lon="13.843365447897515"><ele>285.0</ele><time>2026-04-23T12:54:26Z</time></trkpt><trkpt lat="42.15124003007822" lon="13.843152507211371"><ele>282.0</ele><time>2026-04-23T12:54:27Z</time></trkpt><trkpt lat="42.151384608506284" lon="13.842960392824493"><ele>279.0</ele><time>2026-04-23T12:54:28Z</time></trkpt><trkpt lat="42.15152775633784" lon="13.84278054943426"><ele>278.3333333333333</ele><time>2026-04-23T12:54:29Z</time></trkpt><trkpt lat="42.15166328225231" lon="13.842614542169793"><ele>277.66666666666663</ele><time>2026-04-23T12:54:30Z</time></trkpt><trkpt lat="42.151790501256556" lon="13.84246113691755"><ele>277.0</ele><time>2026-04-23T12:54:31Z</time></trkpt><trkpt lat="42.15191276492735" lon="13.842326861910255"><ele>277.0</ele><time>2026-04-23T12:54:32Z</time></trkpt><trkpt lat="42.15202378753483" lon="13.842194703593925"><ele>277.0</ele><time>2026-04-23T12:54:33Z</time></trkpt><trkpt lat="42.15212819045014" lon="13.842068538843106"><ele>277.0</ele><time>2026-04-23T12:54:34Z</time></trkpt><trkpt lat="42.15221097395548" lon="13.84197823850392"><ele>277.0</ele><time>2026-04-23T12:54:35Z</time></trkpt><trkpt lat="42.15228619784163" lon="13.84189355682498"><ele>277.0</ele><time>2026-04-23T12:54:36Z</time></trkpt><trkpt lat="42.15234790731329" lon="13.841828560539678"><ele>277.0</ele><time>2026-04-23T12:54:37Z</time></trkpt><trkpt lat="42.15242515098334" lon="13.841743362139471"><ele>277.0</ele><time>2026-04-23T12:54:39Z</time></trkpt><trkpt lat="42.15249018974292" lon="13.841695757664564"><ele>277.0</ele><time>2026-04-23T12:54:41Z</time></trkpt><trkpt lat="42.15259367711595" lon="13.841688075669927"><ele>277.0</ele><time>2026-04-23T12:54:43Z</time></trkpt><trkpt lat="42.152659758762255" lon="13.841679652104878"><ele>277.0</ele><time>2026-04-23T12:54:44Z</time></trkpt><trkpt lat="42.152735656512874" lon="13.841634108137521"><ele>277.8333333333333</ele><time>2026-04-23T12:54:45Z</time></trkpt><trkpt lat="42.15280116307898" lon="13.841562358245753"><ele>278.66666666666663</ele><time>2026-04-23T12:54:46Z</time></trkpt><trkpt lat="42.15284466607303" lon="13.841472574615022"><ele>279.5</ele><time>2026-04-23T12:54:47Z</time></trkpt><trkpt lat="42.152869559735045" lon="13.84135937253066"><ele>280.3333333333333</ele><time>2026-04-23T12:54:48Z</time></trkpt><trkpt lat="42.152886840109105" lon="13.841268438514899"><ele>281.1666666666667</ele><time>2026-04-23T12:54:49Z</time></trkpt><trkpt lat="42.15292032505102" lon="13.841177397536976"><ele>282.0</ele><time>2026-04-23T12:54:50Z</time></trkpt><trkpt lat="42.152971850158394" lon="13.841087420089151"><ele>282.0</ele><time>2026-04-23T12:54:51Z</time></trkpt><trkpt lat="42.153031896514456" lon="13.840991276887479"><ele>282.0</ele><time>2026-04-23T12:54:52Z</time></trkpt><trkpt lat="42.153131490247844" lon="13.840916974566975"><ele>282.0</ele><time>2026-04-23T12:54:53Z</time></trkpt><trkpt lat="42.153247588847904" lon="13.84079049457589"><ele>282.0</ele><time>2026-04-23T12:54:54Z</time></trkpt><trkpt lat="42.15338875203183" lon="13.840624520442978"><ele>281.0</ele><time>2026-04-23T12:54:55Z</time></trkpt><trkpt lat="42.15355242099686" lon="13.840403987435238"><ele>280.0</ele><time>2026-04-23T12:54:56Z</time></trkpt><trkpt lat="42.15378317330312" lon="13.840153985550531"><ele>279.5</ele><time>2026-04-23T12:54:56.999Z</time></trkpt><trkpt lat="42.15399719209456" lon="13.839942432850359"><ele>279.0</ele><time>2026-04-23T12:54:57.999Z</time></trkpt><trkpt lat="42.154203441099924" lon="13.83978599765145"><ele>279.0</ele><time>2026-04-23T12:54:58.999Z</time></trkpt><trkpt lat="42.15443092141224" lon="13.83965833775913"><ele>279.0</ele><time>2026-04-23T12:54:59.999Z</time></trkpt><trkpt lat="42.15469865018102" lon="13.839581658296831"><ele>276.0</ele><time>2026-04-23T12:55:00.999Z</time></trkpt><trkpt lat="42.1549760225924" lon="13.839506148381224"><ele>273.0</ele><time>2026-04-23T12:55:01.999Z</time></trkpt><trkpt lat="42.15529494311431" lon="13.839483169114272"><ele>273.0</ele><time>2026-04-23T12:55:02.999Z</time></trkpt><trkpt lat="42.155626703827764" lon="13.839468136252782"><ele>273.0</ele><time>2026-04-23T12:55:03.999Z</time></trkpt><trkpt lat="42.155931639916126" lon="13.839440426117852"><ele>273.0</ele><time>2026-04-23T12:55:04.999Z</time></trkpt><trkpt lat="42.15619861570567" lon="13.839423131007319"><ele>273.0</ele><time>2026-04-23T12:55:05.999Z</time></trkpt><trkpt lat="42.15646132601046" lon="13.839415597084535"><ele>275.0</ele><time>2026-04-23T12:55:06.999Z</time></trkpt><trkpt lat="42.15672876871878" lon="13.839422488195321"><ele>277.0</ele><time>2026-04-23T12:55:07.999Z</time></trkpt><trkpt lat="42.15700833481841" lon="13.8394429659489"><ele>277.0</ele><time>2026-04-23T12:55:08.999Z</time></trkpt><trkpt lat="42.157276756922364" lon="13.839477239384356"><ele>277.0</ele><time>2026-04-23T12:55:09.999Z</time></trkpt><trkpt lat="42.15753421740128" lon="13.839518672627387"><ele>275.0</ele><time>2026-04-23T12:55:10.999Z</time></trkpt><trkpt lat="42.15774352406731" lon="13.839559527783738"><ele>273.0</ele><time>2026-04-23T12:55:11.999Z</time></trkpt><trkpt lat="42.15791908712707" lon="13.839589192087287"><ele>271.0</ele><time>2026-04-23T12:55:12.999Z</time></trkpt><trkpt lat="42.158076179857" lon="13.839606340695969"><ele>268.5</ele><time>2026-04-23T12:55:13.999Z</time></trkpt><trkpt lat="42.158210537105795" lon="13.839621897890256"><ele>266.0</ele><time>2026-04-23T12:55:14.999Z</time></trkpt><trkpt lat="42.15832189272902" lon="13.839640705032943"><ele>263.5</ele><time>2026-04-23T12:55:15.999Z</time></trkpt><trkpt lat="42.15842951328373" lon="13.839659020147971"><ele>261.0</ele><time>2026-04-23T12:55:16.999Z</time></trkpt><trkpt lat="42.15853907766952" lon="13.839678277575604"><ele>261.0</ele><time>2026-04-23T12:55:17.999Z</time></trkpt><trkpt lat="42.15864246937891" lon="13.839696030398684"><ele>261.0</ele><time>2026-04-23T12:55:18.999Z</time></trkpt><trkpt lat="42.15874265692159" lon="13.839709975029733"><ele>261.0</ele><time>2026-04-23T12:55:19.999Z</time></trkpt><trkpt lat="42.15885047892079" lon="13.839727773727216"><ele>261.0</ele><time>2026-04-23T12:55:20.999Z</time></trkpt><trkpt lat="42.15896639856666" lon="13.83974230825077"><ele>261.0</ele><time>2026-04-23T12:55:21.999Z</time></trkpt><trkpt lat="42.159084070676485" lon="13.839762253451731"><ele>260.0</ele><time>2026-04-23T12:55:22.999Z</time></trkpt><trkpt lat="42.15920672414254" lon="13.839778584188426"><ele>259.0</ele><time>2026-04-23T12:55:23.999Z</time></trkpt><trkpt lat="42.15933172600386" lon="13.839792287550978"><ele>258.0</ele><time>2026-04-23T12:55:24.999Z</time></trkpt><trkpt lat="42.159452966595566" lon="13.839808612324905"><ele>257.0</ele><time>2026-04-23T12:55:25.999Z</time></trkpt><trkpt lat="42.15957448236795" lon="13.839825796991056"><ele>257.0</ele><time>2026-04-23T12:55:26.999Z</time></trkpt><trkpt lat="42.15969303123768" lon="13.839843716816615"><ele>257.0</ele><time>2026-04-23T12:55:27.999Z</time></trkpt><trkpt lat="42.159813387697774" lon="13.83986148103138"><ele>257.0</ele><time>2026-04-23T12:55:28.999Z</time></trkpt><trkpt lat="42.159933254853605" lon="13.839876030398806"><ele>257.0</ele><time>2026-04-23T12:55:29.999Z</time></trkpt><trkpt lat="42.16005214027163" lon="13.839892255286056"><ele>256.0</ele><time>2026-04-23T12:55:30.999Z</time></trkpt><trkpt lat="42.160167185252966" lon="13.839906913801018"><ele>255.0</ele><time>2026-04-23T12:55:31.999Z</time></trkpt><trkpt lat="42.16027901736537" lon="13.839927172541532"><ele>254.0</ele><time>2026-04-23T12:55:32.999Z</time></trkpt><trkpt lat="42.16039168570263" lon="13.839947019170316"><ele>253.0</ele><time>2026-04-23T12:55:33.999Z</time></trkpt><trkpt lat="42.160504144814375" lon="13.839967164801617"><ele>253.0</ele><time>2026-04-23T12:55:34.999Z</time></trkpt><trkpt lat="42.16062149883186" lon="13.83998197051399"><ele>253.0</ele><time>2026-04-23T12:55:35.999Z</time></trkpt><trkpt lat="42.16074496697613" lon="13.83999496656504"><ele>253.0</ele><time>2026-04-23T12:55:36.999Z</time></trkpt><trkpt lat="42.160877772380886" lon="13.84001161534727"><ele>253.0</ele><time>2026-04-23T12:55:37.999Z</time></trkpt><trkpt lat="42.16101791835039" lon="13.840035034824062"><ele>252.33333333333331</ele><time>2026-04-23T12:55:38.999Z</time></trkpt><trkpt lat="42.16116545887841" lon="13.840061778998633"><ele>251.66666666666669</ele><time>2026-04-23T12:55:39.999Z</time></trkpt><trkpt lat="42.16132182630356" lon="13.840088992053081"><ele>251.0</ele><time>2026-04-23T12:55:40.999Z</time></trkpt><trkpt lat="42.1614877917827" lon="13.8401129584602"><ele>255.66666666666669</ele><time>2026-04-23T12:55:41.999Z</time></trkpt><trkpt lat="42.16165217270972" lon="13.840135847975853"><ele>260.3333333333333</ele><time>2026-04-23T12:55:42.999Z</time></trkpt><trkpt lat="42.16182136625562" lon="13.840162396536725"><ele>265.0</ele><time>2026-04-23T12:55:43.999Z</time></trkpt><trkpt lat="42.16199345231939" lon="13.840188538605064"><ele>265.0</ele><time>2026-04-23T12:55:44.999Z</time></trkpt><trkpt lat="42.16215878942442" lon="13.8402125698675"><ele>265.0</ele><time>2026-04-23T12:55:45.999Z</time></trkpt><trkpt lat="42.1623285732735" lon="13.84022270945486"><ele>265.0</ele><time>2026-04-23T12:55:46.999Z</time></trkpt><trkpt lat="42.16250693774795" lon="13.840195003385281"><ele>261.0</ele><time>2026-04-23T12:55:47.999Z</time></trkpt><trkpt lat="42.16268795983445" lon="13.84012985761786"><ele>257.0</ele><time>2026-04-23T12:55:48.999Z</time></trkpt><trkpt lat="42.162864511654995" lon="13.840047929155428"><ele>253.0</ele><time>2026-04-23T12:55:49.999Z</time></trkpt><trkpt lat="42.163026090209485" lon="13.839940487439916"><ele>253.0</ele><time>2026-04-23T12:55:50.999Z</time></trkpt><trkpt lat="42.16318892813074" lon="13.839799722337162"><ele>253.0</ele><time>2026-04-23T12:55:51.999Z</time></trkpt><trkpt lat="42.16335640610294" lon="13.839621349584444"><ele>253.0</ele><time>2026-04-23T12:55:52.999Z</time></trkpt><trkpt lat="42.16352706089317" lon="13.839401936553104"><ele>252.0</ele><time>2026-04-23T12:55:53.999Z</time></trkpt><trkpt lat="42.16373331012543" lon="13.839187636754447"><ele>251.0</ele><time>2026-04-23T12:55:54.999Z</time></trkpt><trkpt lat="42.16391457553218" lon="13.838945404448843"><ele>250.33333333333334</ele><time>2026-04-23T12:55:55.999Z</time></trkpt><trkpt lat="42.164087992198596" lon="13.838776036399711"><ele>249.66666666666669</ele><time>2026-04-23T12:55:56.999Z</time></trkpt><trkpt lat="42.16424418730057" lon="13.838590738825012"><ele>249.0</ele><time>2026-04-23T12:55:57.999Z</time></trkpt><trkpt lat="42.16439314729527" lon="13.838399310648022"><ele>249.0</ele><time>2026-04-23T12:55:58.999Z</time></trkpt><trkpt lat="42.16453845884771" lon="13.838223608290221"><ele>249.0</ele><time>2026-04-23T12:55:59.999Z</time></trkpt><trkpt lat="42.164690531513166" lon="13.83805943182196"><ele>249.0</ele><time>2026-04-23T12:56:00.999Z</time></trkpt><trkpt lat="42.16483882847778" lon="13.837870912958131"><ele>248.66666666666669</ele><time>2026-04-23T12:56:01.999Z</time></trkpt><trkpt lat="42.16497413898588" lon="13.837716012608837"><ele>248.33333333333334</ele><time>2026-04-23T12:56:02.999Z</time></trkpt><trkpt lat="42.16510410884856" lon="13.837562389374055"><ele>248.0</ele><time>2026-04-23T12:56:03.999Z</time></trkpt><trkpt lat="42.16525170824626" lon="13.837394317733587"><ele>248.0</ele><time>2026-04-23T12:56:04.999Z</time></trkpt><trkpt lat="42.16538301522472" lon="13.83724675063439"><ele>248.0</ele><time>2026-04-23T12:56:05.999Z</time></trkpt><trkpt lat="42.16550235878406" lon="13.837112358469685"><ele>248.0</ele><time>2026-04-23T12:56:06.999Z</time></trkpt><trkpt lat="42.16560173524402" lon="13.836985505956267"><ele>248.0</ele><time>2026-04-23T12:56:07.999Z</time></trkpt><trkpt lat="42.16567541812529" lon="13.836845105111188"><ele>248.0</ele><time>2026-04-23T12:56:08.999Z</time></trkpt><trkpt lat="42.165723674862186" lon="13.836703363350761"><ele>248.0</ele><time>2026-04-23T12:56:09.999Z</time></trkpt><trkpt lat="42.16574212146319" lon="13.8365478328739"><ele>248.0</ele><time>2026-04-23T12:56:10.999Z</time></trkpt><trkpt lat="42.16574118771354" lon="13.836375072437813"><ele>248.66666666666669</ele><time>2026-04-23T12:56:11.999Z</time></trkpt><trkpt lat="42.16575323701471" lon="13.836249420747412"><ele>249.33333333333334</ele><time>2026-04-23T12:56:12.999Z</time></trkpt><trkpt lat="42.16576248990968" lon="13.83615286734009"><ele>250.0</ele><time>2026-04-23T12:56:13.999Z</time></trkpt><trkpt lat="42.16578104097124" lon="13.836046345360213"><ele>250.66666666666669</ele><time>2026-04-23T12:56:30Z</time></trkpt><trkpt lat="42.16578962067076" lon="13.835950770389726"><ele>251.33333333333334</ele><time>2026-04-23T12:56:32Z</time></trkpt><trkpt lat="42.165794404979565" lon="13.83581704249648"><ele>252.0</ele><time>2026-04-23T12:56:34Z</time></trkpt><trkpt lat="42.16579946837379" lon="13.835720049335611"><ele>252.33333333333334</ele><time>2026-04-23T12:56:35Z</time></trkpt><trkpt lat="42.165810013425194" lon="13.835626046504961"><ele>252.66666666666669</ele><time>2026-04-23T12:56:36Z</time></trkpt><trkpt lat="42.165818117223935" lon="13.835536583366093"><ele>253.0</ele><time>2026-04-23T12:56:37Z</time></trkpt><trkpt lat="42.165827994078086" lon="13.835433969782992"><ele>253.33333333333334</ele><time>2026-04-23T12:56:38Z</time></trkpt><trkpt lat="42.16583366091317" lon="13.83532389700829"><ele>253.66666666666669</ele><time>2026-04-23T12:56:39Z</time></trkpt><trkpt lat="42.165847164508584" lon="13.835208477452477"><ele>254.0</ele><time>2026-04-23T12:56:40Z</time></trkpt><trkpt lat="42.1658599546893" lon="13.83507375967508"><ele>254.0</ele><time>2026-04-23T12:56:41Z</time></trkpt><trkpt lat="42.16588612425865" lon="13.83492855615097"><ele>254.0</ele><time>2026-04-23T12:56:42Z</time></trkpt><trkpt lat="42.1659037572948" lon="13.834739020350135"><ele>254.0</ele><time>2026-04-23T12:56:43Z</time></trkpt><trkpt lat="42.16590128864472" lon="13.834469534651378"><ele>252.66666666666669</ele><time>2026-04-23T12:56:44Z</time></trkpt><trkpt lat="42.16593371685326" lon="13.834182630829183"><ele>251.33333333333331</ele><time>2026-04-23T12:56:45Z</time></trkpt><trkpt lat="42.16597697380991" lon="13.833883453268111"><ele>250.0</ele><time>2026-04-23T12:56:46Z</time></trkpt><trkpt lat="42.16601119822881" lon="13.83358758509797"><ele>249.66666666666666</ele><time>2026-04-23T12:56:47Z</time></trkpt><trkpt lat="42.166031481659985" lon="13.833321389254417"><ele>249.33333333333331</ele><time>2026-04-23T12:56:48Z</time></trkpt><trkpt lat="42.166050744686665" lon="13.833075341086616"><ele>249.0</ele><time>2026-04-23T12:56:49Z</time></trkpt><trkpt lat="42.16607360313144" lon="13.83285846964995"><ele>249.0</ele><time>2026-04-23T12:56:50Z</time></trkpt><trkpt lat="42.166093137676484" lon="13.832679296647445"><ele>249.0</ele><time>2026-04-23T12:56:51Z</time></trkpt><trkpt lat="42.166132092147734" lon="13.8325123011083"><ele>249.0</ele><time>2026-04-23T12:56:52Z</time></trkpt><trkpt lat="42.166229748644696" lon="13.832382404215107"><ele>249.0</ele><time>2026-04-23T12:56:53Z</time></trkpt><trkpt lat="42.166355467481324" lon="13.8322336027688"><ele>248.66666666666669</ele><time>2026-04-23T12:56:54Z</time></trkpt><trkpt lat="42.16650851625454" lon="13.83208685930227"><ele>248.33333333333334</ele><time>2026-04-23T12:56:55Z</time></trkpt><trkpt lat="42.16666782925101" lon="13.831900108992738"><ele>248.0</ele><time>2026-04-23T12:56:56Z</time></trkpt><trkpt lat="42.16681553670135" lon="13.831722743340135"><ele>248.0</ele><time>2026-04-23T12:56:57Z</time></trkpt><trkpt lat="42.16694717285855" lon="13.831572897054084"><ele>248.0</ele><time>2026-04-23T12:56:57.999Z</time></trkpt><trkpt lat="42.16708598277137" lon="13.831442298580948"><ele>248.0</ele><time>2026-04-23T12:56:58.999Z</time></trkpt><trkpt lat="42.167232471279405" lon="13.83130570837402"><ele>247.66666666666669</ele><time>2026-04-23T12:56:59.999Z</time></trkpt><trkpt lat="42.167391296726656" lon="13.83117645661409"><ele>247.33333333333331</ele><time>2026-04-23T12:57:00.999Z</time></trkpt><trkpt lat="42.16756595323461" lon="13.831078732070136"><ele>247.0</ele><time>2026-04-23T12:57:01.999Z</time></trkpt><trkpt lat="42.167754836586106" lon="13.831003951721298"><ele>246.33333333333331</ele><time>2026-04-23T12:57:02.999Z</time></trkpt><trkpt lat="42.16795703761627" lon="13.830939242982428"><ele>245.66666666666669</ele><time>2026-04-23T12:57:03.999Z</time></trkpt><trkpt lat="42.16816148473454" lon="13.83089984338367"><ele>245.0</ele><time>2026-04-23T12:57:04.999Z</time></trkpt><trkpt lat="42.16836313573155" lon="13.830877297258446"><ele>245.0</ele><time>2026-04-23T12:57:05.999Z</time></trkpt><trkpt lat="42.16854961007243" lon="13.830872548648694"><ele>245.0</ele><time>2026-04-23T12:57:06.999Z</time></trkpt><trkpt lat="42.168729076667056" lon="13.83086829975882"><ele>245.0</ele><time>2026-04-23T12:57:07.999Z</time></trkpt><trkpt lat="42.168906302453024" lon="13.830829477922375"><ele>245.0</ele><time>2026-04-23T12:57:08.999Z</time></trkpt><trkpt lat="42.169084180750794" lon="13.830769346962606"><ele>245.0</ele><time>2026-04-23T12:57:09.999Z</time></trkpt><trkpt lat="42.169258181948805" lon="13.830698657919745"><ele>245.0</ele><time>2026-04-23T12:57:10.999Z</time></trkpt><trkpt lat="42.16941807195034" lon="13.830604904200147"><ele>245.0</ele><time>2026-04-23T12:57:11.999Z</time></trkpt><trkpt lat="42.16956479500105" lon="13.830504912853895"><ele>245.0</ele><time>2026-04-23T12:57:12.999Z</time></trkpt><trkpt lat="42.169701355364566" lon="13.830411374156308"><ele>245.0</ele><time>2026-04-23T12:57:13.999Z</time></trkpt><trkpt lat="42.16983943809191" lon="13.830323936408993"><ele>245.5</ele><time>2026-04-23T12:57:14.999Z</time></trkpt><trkpt lat="42.169976838096204" lon="13.830248586564746"><ele>246.0</ele><time>2026-04-23T12:57:15.999Z</time></trkpt><trkpt lat="42.17011593977961" lon="13.830183335951435"><ele>246.5</ele><time>2026-04-23T12:57:16.999Z</time></trkpt><trkpt lat="42.17024374434073" lon="13.830119388521922"><ele>247.0</ele><time>2026-04-23T12:57:17.999Z</time></trkpt><trkpt lat="42.17036699647205" lon="13.830048359876436"><ele>247.0</ele><time>2026-04-23T12:57:18.999Z</time></trkpt><trkpt lat="42.17050440275382" lon="13.829976332701126"><ele>247.0</ele><time>2026-04-23T12:57:19.999Z</time></trkpt><trkpt lat="42.170663571667426" lon="13.82994270466501"><ele>247.0</ele><time>2026-04-23T12:57:20.999Z</time></trkpt><trkpt lat="42.17082796098016" lon="13.829892122604775"><ele>247.0</ele><time>2026-04-23T12:57:21.999Z</time></trkpt><trkpt lat="42.17100348781401" lon="13.82988439942457"><ele>247.0</ele><time>2026-04-23T12:57:22.999Z</time></trkpt><trkpt lat="42.171175339030654" lon="13.82986754833936"><ele>247.0</ele><time>2026-04-23T12:57:23.999Z</time></trkpt><trkpt lat="42.17134771062861" lon="13.829844572897187"><ele>247.0</ele><time>2026-04-23T12:57:24.999Z</time></trkpt><trkpt lat="42.17151545738009" lon="13.82982871024078"><ele>247.0</ele><time>2026-04-23T12:57:25.999Z</time></trkpt><trkpt lat="42.1716753385809" lon="13.829813771634404"><ele>247.0</ele><time>2026-04-23T12:57:26.999Z</time></trkpt><trkpt lat="42.17182122354301" lon="13.829802754294402"><ele>246.75</ele><time>2026-04-23T12:57:27.999Z</time></trkpt><trkpt lat="42.17195656669902" lon="13.829791546950675"><ele>246.5</ele><time>2026-04-23T12:57:28.999Z</time></trkpt><trkpt lat="42.172083112888245" lon="13.829780618321465"><ele>246.25</ele><time>2026-04-23T12:57:29.999Z</time></trkpt><trkpt lat="42.17219733974485" lon="13.829776243709139"><ele>246.0</ele><time>2026-04-23T12:57:30.999Z</time></trkpt><trkpt lat="42.17229176080665" lon="13.82978417689532"><ele>245.8</ele><time>2026-04-23T12:57:31.999Z</time></trkpt><trkpt lat="42.17236545833436" lon="13.829798171472852"><ele>245.60000000000002</ele><time>2026-04-23T12:57:32.999Z</time></trkpt><trkpt lat="42.17247568918413" lon="13.829823351653214"><ele>245.4</ele><time>2026-04-23T12:57:34.999Z</time></trkpt><trkpt lat="42.172561457210065" lon="13.829838530418993"><ele>245.2</ele><time>2026-04-23T12:57:36.999Z</time></trkpt><trkpt lat="42.17270157533681" lon="13.82986406702131"><ele>245.0</ele><time>2026-04-23T12:57:38.999Z</time></trkpt><trkpt lat="42.1727789826661" lon="13.829882690724723"><ele>245.00000000000003</ele><time>2026-04-23T12:57:39.999Z</time></trkpt><trkpt lat="42.17285264881429" lon="13.829904858917018"><ele>245.0</ele><time>2026-04-23T12:57:40.999Z</time></trkpt><trkpt lat="42.172926399021364" lon="13.829932104200974"><ele>245.0</ele><time>2026-04-23T12:57:41.999Z</time></trkpt><trkpt lat="42.173001829281226" lon="13.829956678713065"><ele>245.0</ele><time>2026-04-23T12:57:42.999Z</time></trkpt><trkpt lat="42.17307558673814" lon="13.829982273290726"><ele>245.00000000000003</ele><time>2026-04-23T12:57:43.999Z</time></trkpt><trkpt lat="42.173145325546095" lon="13.830012361452704"><ele>245.0</ele><time>2026-04-23T12:57:44.999Z</time></trkpt><trkpt lat="42.173217571735684" lon="13.830043931815931"><ele>245.33333333333334</ele><time>2026-04-23T12:57:45.999Z</time></trkpt><trkpt lat="42.17328983240719" lon="13.830082125347147"><ele>245.66666666666669</ele><time>2026-04-23T12:57:46.999Z</time></trkpt><trkpt lat="42.17336525156269" lon="13.83012181219082"><ele>246.0</ele><time>2026-04-23T12:57:47.999Z</time></trkpt><trkpt lat="42.17342584746627" lon="13.830154068097308"><ele>246.33333333333331</ele><time>2026-04-23T12:57:48.999Z</time></trkpt><trkpt lat="42.173537614872956" lon="13.830217383704138"><ele>246.66666666666666</ele><time>2026-04-23T12:57:50.999Z</time></trkpt><trkpt lat="42.17361575418045" lon="13.830262387706014"><ele>247.0</ele><time>2026-04-23T12:57:52.999Z</time></trkpt><trkpt lat="42.17368015406228" lon="13.83030082068619"><ele>247.0</ele><time>2026-04-23T12:57:56.999Z</time></trkpt><trkpt lat="42.17374123268745" lon="13.830335111610674"><ele>247.0</ele><time>2026-04-23T12:57:59.999Z</time></trkpt><trkpt lat="42.17381036849852" lon="13.830374353705444"><ele>247.0</ele><time>2026-04-23T12:58:01.999Z</time></trkpt><trkpt lat="42.17388838381453" lon="13.830412954879005"><ele>247.0</ele><time>2026-04-23T12:58:03.999Z</time></trkpt><trkpt lat="42.17399980555" lon="13.830471697649873"><ele>247.0</ele><time>2026-04-23T12:58:05.999Z</time></trkpt><trkpt lat="42.174101891770995" lon="13.830524186385654"><ele>246.99999999999997</ele><time>2026-04-23T12:58:07.999Z</time></trkpt><trkpt lat="42.17418443108719" lon="13.830568988794417"><ele>247.0</ele><time>2026-04-23T12:58:09.999Z</time></trkpt><trkpt lat="42.174261451725236" lon="13.83061177436158"><ele>247.0</ele><time>2026-04-23T12:58:11.999Z</time></trkpt><trkpt lat="42.17432322601888" lon="13.830652699999014"><ele>247.0</ele><time>2026-04-23T12:58:13.999Z</time></trkpt><trkpt lat="42.17438494251839" lon="13.830690268462702"><ele>246.99999999999997</ele><time>2026-04-23T12:58:17.999Z</time></trkpt><trkpt lat="42.17445868694968" lon="13.830715536291333"><ele>247.0</ele><time>2026-04-23T12:58:20.999Z</time></trkpt><trkpt lat="42.17453855330185" lon="13.830745387878974"><ele>247.0</ele><time>2026-04-23T12:58:22.999Z</time></trkpt><trkpt lat="42.17462486483596" lon="13.830805028551932"><ele>247.0</ele><time>2026-04-23T12:58:24.999Z</time></trkpt><trkpt lat="42.1747221051318" lon="13.8308712150435"><ele>247.0</ele><time>2026-04-23T12:58:26.999Z</time></trkpt><trkpt lat="42.174820232319654" lon="13.830935187142844"><ele>247.0</ele><time>2026-04-23T12:58:28.999Z</time></trkpt><trkpt lat="42.174915389763214" lon="13.83101686359123"><ele>247.0</ele><time>2026-04-23T12:58:30.999Z</time></trkpt><trkpt lat="42.174972114514546" lon="13.831062186595696"><ele>247.16666666666666</ele><time>2026-04-23T12:58:31.999Z</time></trkpt><trkpt lat="42.17503638037075" lon="13.831110738677657"><ele>247.33333333333331</ele><time>2026-04-23T12:58:32.999Z</time></trkpt><trkpt lat="42.17510261404305" lon="13.831164111371956"><ele>247.5</ele><time>2026-04-23T12:58:33.999Z</time></trkpt><trkpt lat="42.17516771630595" lon="13.831229254161704"><ele>247.66666666666669</ele><time>2026-04-23T12:58:34.999Z</time></trkpt><trkpt lat="42.17523498300326" lon="13.83130322885678"><ele>247.83333333333334</ele><time>2026-04-23T12:58:35.999Z</time></trkpt><trkpt lat="42.1752988465113" lon="13.831385106182"><ele>248.0</ele><time>2026-04-23T12:58:36.999Z</time></trkpt><trkpt lat="42.17536007448212" lon="13.831478796821688"><ele>248.0</ele><time>2026-04-23T12:58:37.999Z</time></trkpt><trkpt lat="42.17541138478619" lon="13.831587869625741"><ele>248.0</ele><time>2026-04-23T12:58:38.999Z</time></trkpt><trkpt lat="42.17545364615084" lon="13.831703156864767"><ele>248.0</ele><time>2026-04-23T12:58:39.999Z</time></trkpt><trkpt lat="42.17548572625061" lon="13.83181374477125"><ele>248.0</ele><time>2026-04-23T12:58:40.999Z</time></trkpt><trkpt lat="42.175517337169275" lon="13.831929085621212"><ele>248.0</ele><time>2026-04-23T12:58:41.999Z</time></trkpt><trkpt lat="42.175541169982004" lon="13.832048957471123"><ele>247.8</ele><time>2026-04-23T12:58:42.999Z</time></trkpt><trkpt lat="42.17555136294165" lon="13.832178105730554"><ele>247.60000000000002</ele><time>2026-04-23T12:58:43.999Z</time></trkpt><trkpt lat="42.17554974200629" lon="13.83231006518391"><ele>247.39999999999998</ele><time>2026-04-23T12:58:44.999Z</time></trkpt><trkpt lat="42.175538597412334" lon="13.832440086596693"><ele>247.2</ele><time>2026-04-23T12:58:45.999Z</time></trkpt><trkpt lat="42.17552518752252" lon="13.832578589374567"><ele>247.0</ele><time>2026-04-23T12:58:46.999Z</time></trkpt><trkpt lat="42.17550831705645" lon="13.832726951501055"><ele>246.75</ele><time>2026-04-23T12:58:47.999Z</time></trkpt><trkpt lat="42.175488984251714" lon="13.832885925756688"><ele>246.5</ele><time>2026-04-23T12:58:48.999Z</time></trkpt><trkpt lat="42.1754682691634" lon="13.833046634451703"><ele>246.25</ele><time>2026-04-23T12:58:49.999Z</time></trkpt><trkpt lat="42.17544743327788" lon="13.833208607446906"><ele>246.0</ele><time>2026-04-23T12:58:50.999Z</time></trkpt><trkpt lat="42.17542070025885" lon="13.833393585960973"><ele>246.4</ele><time>2026-04-23T12:58:51.999Z</time></trkpt><trkpt lat="42.175390299235765" lon="13.833535148923984"><ele>246.8</ele><time>2026-04-23T12:58:52.999Z</time></trkpt><trkpt lat="42.17536590977578" lon="13.833668092015422"><ele>247.20000000000002</ele><time>2026-04-23T12:58:53.999Z</time></trkpt><trkpt lat="42.17533735620917" lon="13.8338107357779"><ele>247.60000000000002</ele><time>2026-04-23T12:58:54.999Z</time></trkpt><trkpt lat="42.17531693712393" lon="13.833951403208042"><ele>248.0</ele><time>2026-04-23T12:58:55.999Z</time></trkpt><trkpt lat="42.175296828582724" lon="13.834091000285783"><ele>248.0</ele><time>2026-04-23T12:58:56.999Z</time></trkpt><trkpt lat="42.17527664440684" lon="13.834237459634856"><ele>248.0</ele><time>2026-04-23T12:58:57.999Z</time></trkpt><trkpt lat="42.17525486988171" lon="13.834383096353987"><ele>248.0</ele><time>2026-04-23T12:58:58.999Z</time></trkpt><trkpt lat="42.17523378904626" lon="13.834528873203814"><ele>248.0</ele><time>2026-04-23T12:58:59.999Z</time></trkpt><trkpt lat="42.17521040769682" lon="13.834671165043448"><ele>248.0</ele><time>2026-04-23T12:59:00.999Z</time></trkpt><trkpt lat="42.17518532681084" lon="13.834811519933972"><ele>248.0</ele><time>2026-04-23T12:59:01.999Z</time></trkpt><trkpt lat="42.17516180397185" lon="13.834953882716434"><ele>248.0</ele><time>2026-04-23T12:59:02.999Z</time></trkpt><trkpt lat="42.175138754476755" lon="13.83509829313099"><ele>248.0</ele><time>2026-04-23T12:59:03.999Z</time></trkpt><trkpt lat="42.175117482037" lon="13.835242514908735"><ele>248.0</ele><time>2026-04-23T12:59:04.999Z</time></trkpt><trkpt lat="42.17510649393141" lon="13.835380785575131"><ele>248.0</ele><time>2026-04-23T12:59:05.999Z</time></trkpt><trkpt lat="42.175113645141664" lon="13.835517230680818"><ele>250.25</ele><time>2026-04-23T12:59:06.999Z</time></trkpt><trkpt lat="42.17513900349196" lon="13.835651824029632"><ele>252.5</ele><time>2026-04-23T12:59:07.999Z</time></trkpt><trkpt lat="42.17516564474648" lon="13.835795506612222"><ele>254.75</ele><time>2026-04-23T12:59:08.999Z</time></trkpt><trkpt lat="42.175226660416335" lon="13.835938044762331"><ele>257.0</ele><time>2026-04-23T12:59:09.999Z</time></trkpt><trkpt lat="42.17531596842309" lon="13.83612422105794"><ele>253.66666666666669</ele><time>2026-04-23T12:59:10.999Z</time></trkpt><trkpt lat="42.175427813637334" lon="13.83634853375087"><ele>250.33333333333331</ele><time>2026-04-23T12:59:11.999Z</time></trkpt><trkpt lat="42.175553705423404" lon="13.836572625806872"><ele>247.0</ele><time>2026-04-23T12:59:12.999Z</time></trkpt><trkpt lat="42.17568939952137" lon="13.836739127987776"><ele>249.75</ele><time>2026-04-23T12:59:13.999Z</time></trkpt><trkpt lat="42.17580700615489" lon="13.836872401074803"><ele>252.5</ele><time>2026-04-23T12:59:14.999Z</time></trkpt><trkpt lat="42.17593176180017" lon="13.836980173375292"><ele>255.25</ele><time>2026-04-23T12:59:15.999Z</time></trkpt><trkpt lat="42.17596044774687" lon="13.837109745557813"><ele>258.0</ele><time>2026-04-23T12:59:16.999Z</time></trkpt><trkpt lat="42.176030333300794" lon="13.83719569033186"><ele>258.0</ele><time>2026-04-23T12:59:17.999Z</time></trkpt><trkpt lat="42.176099925684355" lon="13.837278235120229"><ele>258.0</ele><time>2026-04-23T12:59:18.999Z</time></trkpt><trkpt lat="42.17617123193648" lon="13.837379351807176"><ele>258.0</ele><time>2026-04-23T12:59:19.999Z</time></trkpt><trkpt lat="42.17626125331392" lon="13.837528413881254"><ele>258.0</ele><time>2026-04-23T12:59:20.999Z</time></trkpt><trkpt lat="42.17639583174823" lon="13.837708582483456"><ele>255.5</ele><time>2026-04-23T12:59:21.999Z</time></trkpt><trkpt lat="42.176555406544445" lon="13.837921667002876"><ele>253.0</ele><time>2026-04-23T12:59:22.999Z</time></trkpt><trkpt lat="42.17674157020106" lon="13.838147866303366"><ele>253.0</ele><time>2026-04-23T12:59:23.999Z</time></trkpt><trkpt lat="42.17692302977536" lon="13.838337173474658"><ele>253.0</ele><time>2026-04-23T12:59:24.999Z</time></trkpt><trkpt lat="42.17710834071092" lon="13.838497224045039"><ele>253.0</ele><time>2026-04-23T12:59:25.999Z</time></trkpt><trkpt lat="42.17734228823428" lon="13.838637034630668"><ele>255.5</ele><time>2026-04-23T12:59:26.999Z</time></trkpt><trkpt lat="42.177602723413315" lon="13.838764943111235"><ele>258.0</ele><time>2026-04-23T12:59:27.999Z</time></trkpt><trkpt lat="42.17788068341088" lon="13.838908941349455"><ele>258.0</ele><time>2026-04-23T12:59:28.999Z</time></trkpt><trkpt lat="42.17813764355468" lon="13.839047862798104"><ele>258.0</ele><time>2026-04-23T12:59:29.999Z</time></trkpt><trkpt lat="42.17835029420831" lon="13.83916140580642"><ele>255.66666666666669</ele><time>2026-04-23T12:59:30.999Z</time></trkpt><trkpt lat="42.17854085506411" lon="13.839279970647773"><ele>253.33333333333334</ele><time>2026-04-23T12:59:31.999Z</time></trkpt><trkpt lat="42.178702299771764" lon="13.839378329776173"><ele>251.0</ele><time>2026-04-23T12:59:32.999Z</time></trkpt><trkpt lat="42.17886738672543" lon="13.839451777374157"><ele>258.0</ele><time>2026-04-23T12:59:33.999Z</time></trkpt><trkpt lat="42.17905257003496" lon="13.839486673246498"><ele>265.0</ele><time>2026-04-23T12:59:34.999Z</time></trkpt><trkpt lat="42.17925553829043" lon="13.839451746987523"><ele>272.0</ele><time>2026-04-23T12:59:35.999Z</time></trkpt><trkpt lat="42.17947701344604" lon="13.839366944425727"><ele>261.0</ele><time>2026-04-23T12:59:36.999Z</time></trkpt><trkpt lat="42.179709766999196" lon="13.839276970576979"><ele>250.0</ele><time>2026-04-23T12:59:37.999Z</time></trkpt><trkpt lat="42.17991889405619" lon="13.839217887247166"><ele>250.0</ele><time>2026-04-23T12:59:38.999Z</time></trkpt><trkpt lat="42.18010926490427" lon="13.839163484343311"><ele>250.0</ele><time>2026-04-23T12:59:39.999Z</time></trkpt><trkpt lat="42.18030164202978" lon="13.839125613499682"><ele>250.0</ele><time>2026-04-23T12:59:40.999Z</time></trkpt><trkpt lat="42.180496745236404" lon="13.839124409101332"><ele>250.66666666666666</ele><time>2026-04-23T12:59:41.999Z</time></trkpt><trkpt lat="42.18068934832085" lon="13.839183193256735"><ele>251.33333333333331</ele><time>2026-04-23T12:59:42.999Z</time></trkpt><trkpt lat="42.18088432888833" lon="13.83925223807128"><ele>252.0</ele><time>2026-04-23T12:59:43.999Z</time></trkpt><trkpt lat="42.18109723013448" lon="13.839361122682007"><ele>255.0</ele><time>2026-04-23T12:59:44.999Z</time></trkpt><trkpt lat="42.18133936153628" lon="13.839471255271997"><ele>258.0</ele><time>2026-04-23T12:59:45.999Z</time></trkpt><trkpt lat="42.181533106282664" lon="13.83958602467142"><ele>258.0</ele><time>2026-04-23T12:59:46.999Z</time></trkpt><trkpt lat="42.18171069140917" lon="13.839688633410084"><ele>258.0</ele><time>2026-04-23T12:59:47.999Z</time></trkpt><trkpt lat="42.181863109108406" lon="13.839826928928954"><ele>258.0</ele><time>2026-04-23T12:59:48.999Z</time></trkpt><trkpt lat="42.1820097841509" lon="13.839992200975516"><ele>257.6666666666667</ele><time>2026-04-23T12:59:49.999Z</time></trkpt><trkpt lat="42.18217204201657" lon="13.840176063323076"><ele>257.33333333333337</ele><time>2026-04-23T12:59:50.999Z</time></trkpt><trkpt lat="42.182313992996164" lon="13.840372331375827"><ele>257.0</ele><time>2026-04-23T12:59:51.999Z</time></trkpt><trkpt lat="42.1824301278223" lon="13.840533864552599"><ele>257.0</ele><time>2026-04-23T12:59:52.999Z</time></trkpt><trkpt lat="42.18256195931437" lon="13.840647876167493"><ele>257.0</ele><time>2026-04-23T12:59:53.999Z</time></trkpt><trkpt lat="42.18271708030299" lon="13.840715978309216"><ele>257.0</ele><time>2026-04-23T12:59:54.999Z</time></trkpt><trkpt lat="42.18288854591281" lon="13.840761632612422"><ele>257.0</ele><time>2026-04-23T12:59:55.999Z</time></trkpt><trkpt lat="42.1830630821766" lon="13.840804749300036"><ele>257.0</ele><time>2026-04-23T12:59:56.999Z</time></trkpt><trkpt lat="42.183225372810554" lon="13.840865927372432"><ele>257.0</ele><time>2026-04-23T12:59:57.999Z</time></trkpt><trkpt lat="42.183369165148584" lon="13.840986183784672"><ele>260.0</ele><time>2026-04-23T12:59:58.999Z</time></trkpt><trkpt lat="42.183528073610134" lon="13.841108848605412"><ele>263.0</ele><time>2026-04-23T12:59:59.999Z</time></trkpt><trkpt lat="42.1836856055999" lon="13.841267705133308"><ele>266.0</ele><time>2026-04-23T13:00:00.999Z</time></trkpt><trkpt lat="42.18386165486938" lon="13.841400283486038"><ele>263.0</ele><time>2026-04-23T13:00:01.999Z</time></trkpt><trkpt lat="42.18405902842865" lon="13.841512602818007"><ele>260.0</ele><time>2026-04-23T13:00:02.999Z</time></trkpt><trkpt lat="42.18426650739153" lon="13.841618730029882"><ele>257.0</ele><time>2026-04-23T13:00:03.999Z</time></trkpt><trkpt lat="42.18447769971174" lon="13.841729691700685"><ele>258.33333333333337</ele><time>2026-04-23T13:00:04.999Z</time></trkpt><trkpt lat="42.18468235972726" lon="13.841836839182495"><ele>259.6666666666667</ele><time>2026-04-23T13:00:05.999Z</time></trkpt><trkpt lat="42.18487029976784" lon="13.841941462476617"><ele>261.0</ele><time>2026-04-23T13:00:06.999Z</time></trkpt><trkpt lat="42.18505077189718" lon="13.842044993991218"><ele>261.0</ele><time>2026-04-23T13:00:07.999Z</time></trkpt><trkpt lat="42.18522446174309" lon="13.842166764608622"><ele>261.0</ele><time>2026-04-23T13:00:08.999Z</time></trkpt><trkpt lat="42.18540438038622" lon="13.842315872259714"><ele>261.0</ele><time>2026-04-23T13:00:09.999Z</time></trkpt><trkpt lat="42.18558575587182" lon="13.842484040318027"><ele>262.5</ele><time>2026-04-23T13:00:10.999Z</time></trkpt><trkpt lat="42.18577040379648" lon="13.84267276788281"><ele>264.0</ele><time>2026-04-23T13:00:11.999Z</time></trkpt><trkpt lat="42.18594952923289" lon="13.842848839244413"><ele>264.0</ele><time>2026-04-23T13:00:12.999Z</time></trkpt><trkpt lat="42.18612425712349" lon="13.843003294647989"><ele>264.0</ele><time>2026-04-23T13:00:13.999Z</time></trkpt><trkpt lat="42.18629954649804" lon="13.843138894838386"><ele>264.0</ele><time>2026-04-23T13:00:14.999Z</time></trkpt><trkpt lat="42.1864716182234" lon="13.843256293106302"><ele>266.0</ele><time>2026-04-23T13:00:15.999Z</time></trkpt><trkpt lat="42.18663053231174" lon="13.843362844404288"><ele>268.0</ele><time>2026-04-23T13:00:16.999Z</time></trkpt><trkpt lat="42.186778186802115" lon="13.843463781114707"><ele>270.0</ele><time>2026-04-23T13:00:17.999Z</time></trkpt><trkpt lat="42.18690895240506" lon="13.84356212019071"><ele>270.0</ele><time>2026-04-23T13:00:18.999Z</time></trkpt><trkpt lat="42.18701766174544" lon="13.843637016065104"><ele>270.0</ele><time>2026-04-23T13:00:19.999Z</time></trkpt><trkpt lat="42.18710809194025" lon="13.843696865109322"><ele>270.0</ele><time>2026-04-23T13:00:20.999Z</time></trkpt><trkpt lat="42.18719725110712" lon="13.843745343595065"><ele>270.0</ele><time>2026-04-23T13:00:21.999Z</time></trkpt><trkpt lat="42.187287230645154" lon="13.843802610335667"><ele>270.0</ele><time>2026-04-23T13:00:22.999Z</time></trkpt><trkpt lat="42.18738377152128" lon="13.843867735851635"><ele>267.5</ele><time>2026-04-23T13:00:23.999Z</time></trkpt><trkpt lat="42.187478283477375" lon="13.843922730602998"><ele>265.0</ele><time>2026-04-23T13:00:24.998Z</time></trkpt><trkpt lat="42.187601645205646" lon="13.844011067887143"><ele>262.5</ele><time>2026-04-23T13:00:25.998Z</time></trkpt><trkpt lat="42.18776380653999" lon="13.84410334887859"><ele>260.0</ele><time>2026-04-23T13:00:26.998Z</time></trkpt><trkpt lat="42.18793069269359" lon="13.844164085129174"><ele>260.0</ele><time>2026-04-23T13:00:27.998Z</time></trkpt><trkpt lat="42.18807332225526" lon="13.844230757082952"><ele>260.0</ele><time>2026-04-23T13:00:28.998Z</time></trkpt><trkpt lat="42.18819924280197" lon="13.844307638192593"><ele>260.0</ele><time>2026-04-23T13:00:29.998Z</time></trkpt><trkpt lat="42.18831423806294" lon="13.844381355584103"><ele>260.0</ele><time>2026-04-23T13:00:30.998Z</time></trkpt><trkpt lat="42.18842456347098" lon="13.844458171451873"><ele>262.4</ele><time>2026-04-23T13:00:31.998Z</time></trkpt><trkpt lat="42.18852275484233" lon="13.844529763770263"><ele>264.8</ele><time>2026-04-23T13:00:32.998Z</time></trkpt><trkpt lat="42.18861194954702" lon="13.844584028949594"><ele>267.2</ele><time>2026-04-23T13:00:33.998Z</time></trkpt><trkpt lat="42.1886913290414" lon="13.844661401936369"><ele>269.6</ele><time>2026-04-23T13:00:34.998Z</time></trkpt><trkpt lat="42.188763591357315" lon="13.844785774928523"><ele>272.0</ele><time>2026-04-23T13:00:35.998Z</time></trkpt><trkpt lat="42.188851074324745" lon="13.844933798723828"><ele>277.6666666666667</ele><time>2026-04-23T13:00:36.998Z</time></trkpt><trkpt lat="42.188956153271874" lon="13.845131342007052"><ele>283.3333333333333</ele><time>2026-04-23T13:00:37.998Z</time></trkpt><trkpt lat="42.1890807275351" lon="13.845365384105433"><ele>289.0</ele><time>2026-04-23T13:00:38.998Z</time></trkpt><trkpt lat="42.18921505569307" lon="13.845617984144045"><ele>274.0</ele><time>2026-04-23T13:00:39.999Z</time></trkpt><trkpt lat="42.18936235275124" lon="13.845910996525678"><ele>259.0</ele><time>2026-04-23T13:00:40.999Z</time></trkpt><trkpt lat="42.18952328205813" lon="13.84620643099911"><ele>259.0</ele><time>2026-04-23T13:00:41.999Z</time></trkpt><trkpt lat="42.18964851243712" lon="13.846475425806567"><ele>259.0</ele><time>2026-04-23T13:00:42.999Z</time></trkpt><trkpt lat="42.1897704635546" lon="13.846713724204784"><ele>254.33333333333331</ele><time>2026-04-23T13:00:43.999Z</time></trkpt><trkpt lat="42.18987821362696" lon="13.846939592752413"><ele>249.66666666666669</ele><time>2026-04-23T13:00:44.999Z</time></trkpt><trkpt lat="42.18996439316581" lon="13.847143433194267"><ele>245.0</ele><time>2026-04-23T13:00:45.999Z</time></trkpt><trkpt lat="42.19003785612372" lon="13.847314369865318"><ele>245.0</ele><time>2026-04-23T13:00:46.999Z</time></trkpt><trkpt lat="42.190101562089666" lon="13.847474317336621"><ele>245.0</ele><time>2026-04-23T13:00:47.999Z</time></trkpt><trkpt lat="42.19014258756397" lon="13.8476448983384"><ele>245.0</ele><time>2026-04-23T13:00:48.999Z</time></trkpt><trkpt lat="42.19015388959958" lon="13.847805589053676"><ele>245.0</ele><time>2026-04-23T13:00:49.999Z</time></trkpt><trkpt lat="42.190162041360786" lon="13.847956528380724"><ele>247.0</ele><time>2026-04-23T13:00:50.999Z</time></trkpt><trkpt lat="42.19021053803549" lon="13.848089522517766"><ele>249.0</ele><time>2026-04-23T13:00:51.999Z</time></trkpt><trkpt lat="42.19031697937134" lon="13.848194794324584"><ele>251.0</ele><time>2026-04-23T13:00:52.999Z</time></trkpt><trkpt lat="42.19046447295979" lon="13.848279128251717"><ele>253.0</ele><time>2026-04-23T13:00:53.999Z</time></trkpt><trkpt lat="42.19061330600538" lon="13.84838871065141"><ele>251.0</ele><time>2026-04-23T13:00:54.999Z</time></trkpt><trkpt lat="42.190705289122555" lon="13.848607809336677"><ele>249.0</ele><time>2026-04-23T13:00:55.999Z</time></trkpt><trkpt lat="42.19082772848993" lon="13.848831267102334"><ele>247.0</ele><time>2026-04-23T13:00:56.999Z</time></trkpt><trkpt lat="42.19093841766561" lon="13.849080576394737"><ele>258.5</ele><time>2026-04-23T13:00:57.999Z</time></trkpt><trkpt lat="42.19108403644008" lon="13.84936621919725"><ele>270.0</ele><time>2026-04-23T13:00:58.999Z</time></trkpt><trkpt lat="42.19123026630711" lon="13.849648956315324"><ele>270.0</ele><time>2026-04-23T13:00:59.999Z</time></trkpt><trkpt lat="42.19140179841027" lon="13.849920976191145"><ele>270.0</ele><time>2026-04-23T13:01:00.999Z</time></trkpt><trkpt lat="42.19156317347008" lon="13.850184605614484"><ele>266.0</ele><time>2026-04-23T13:01:01.999Z</time></trkpt><trkpt lat="42.19173648450442" lon="13.850439031405456"><ele>262.0</ele><time>2026-04-23T13:01:02.999Z</time></trkpt><trkpt lat="42.191871142211525" lon="13.850692123683544"><ele>262.0</ele><time>2026-04-23T13:01:03.999Z</time></trkpt><trkpt lat="42.19200778363721" lon="13.850894950353025"><ele>262.0</ele><time>2026-04-23T13:01:04.999Z</time></trkpt><trkpt lat="42.19223044246071" lon="13.851035267449292"><ele>262.0</ele><time>2026-04-23T13:01:05.999Z</time></trkpt><trkpt lat="42.19242895494731" lon="13.851165144479669"><ele>262.3333333333333</ele><time>2026-04-23T13:01:06.999Z</time></trkpt><trkpt lat="42.192604412429944" lon="13.851314180783199"><ele>262.6666666666667</ele><time>2026-04-23T13:01:07.999Z</time></trkpt><trkpt lat="42.192736959114946" lon="13.851466312780603"><ele>263.0</ele><time>2026-04-23T13:01:08.999Z</time></trkpt><trkpt lat="42.192878100096756" lon="13.851627050049071"><ele>263.0</ele><time>2026-04-23T13:01:09.999Z</time></trkpt><trkpt lat="42.193044035699906" lon="13.851774726768237"><ele>263.0</ele><time>2026-04-23T13:01:10.999Z</time></trkpt><trkpt lat="42.19320413998202" lon="13.85191487441436"><ele>263.0</ele><time>2026-04-23T13:01:11.999Z</time></trkpt><trkpt lat="42.19338589466529" lon="13.851971755419386"><ele>268.33333333333337</ele><time>2026-04-23T13:01:12.999Z</time></trkpt><trkpt lat="42.193577060484714" lon="13.852018566936149"><ele>273.6666666666667</ele><time>2026-04-23T13:01:13.999Z</time></trkpt><trkpt lat="42.19378472474432" lon="13.85204161136411"><ele>279.0</ele><time>2026-04-23T13:01:14.999Z</time></trkpt><trkpt lat="42.19398418857139" lon="13.852059545076148"><ele>272.3333333333333</ele><time>2026-04-23T13:01:15.999Z</time></trkpt><trkpt lat="42.194175215796655" lon="13.852087848425603"><ele>265.66666666666663</ele><time>2026-04-23T13:01:16.999Z</time></trkpt><trkpt lat="42.19434245850137" lon="13.852120092305041"><ele>259.0</ele><time>2026-04-23T13:01:17.999Z</time></trkpt><trkpt lat="42.19451078823516" lon="13.85215313023082"><ele>259.0</ele><time>2026-04-23T13:01:18.999Z</time></trkpt><trkpt lat="42.19467987158051" lon="13.852213643140738"><ele>259.0</ele><time>2026-04-23T13:01:19.999Z</time></trkpt><trkpt lat="42.19483466579492" lon="13.852342901805722"><ele>259.0</ele><time>2026-04-23T13:01:20.999Z</time></trkpt><trkpt lat="42.19498523684241" lon="13.852491859843424"><ele>261.0</ele><time>2026-04-23T13:01:21.999Z</time></trkpt><trkpt lat="42.195109491804395" lon="13.852661024792965"><ele>263.0</ele><time>2026-04-23T13:01:22.999Z</time></trkpt><trkpt lat="42.195218596357655" lon="13.852853865795947"><ele>265.0</ele><time>2026-04-23T13:01:23.999Z</time></trkpt><trkpt lat="42.1953250444658" lon="13.85308952606985"><ele>265.0</ele><time>2026-04-23T13:01:24.999Z</time></trkpt><trkpt lat="42.19540978279312" lon="13.853352725103385"><ele>265.0</ele><time>2026-04-23T13:01:25.999Z</time></trkpt><trkpt lat="42.19549069306043" lon="13.853627109057685"><ele>265.0</ele><time>2026-04-23T13:01:26.999Z</time></trkpt><trkpt lat="42.1955742374522" lon="13.853900954125601"><ele>270.0</ele><time>2026-04-23T13:01:27.999Z</time></trkpt><trkpt lat="42.195651037479195" lon="13.854158762989197"><ele>275.0</ele><time>2026-04-23T13:01:28.999Z</time></trkpt><trkpt lat="42.19572270805853" lon="13.854400274867961"><ele>280.0</ele><time>2026-04-23T13:01:29.999Z</time></trkpt><trkpt lat="42.195790058354476" lon="13.854625585034434"><ele>269.66666666666663</ele><time>2026-04-23T13:01:30.999Z</time></trkpt><trkpt lat="42.19585301726864" lon="13.85484034530036"><ele>259.3333333333333</ele><time>2026-04-23T13:01:31.999Z</time></trkpt><trkpt lat="42.195897166076975" lon="13.855064047658779"><ele>249.0</ele><time>2026-04-23T13:01:32.999Z</time></trkpt><trkpt lat="42.195889487517036" lon="13.85528039204451"><ele>249.0</ele><time>2026-04-23T13:01:33.999Z</time></trkpt><trkpt lat="42.195876895971764" lon="13.855561784788614"><ele>249.0</ele><time>2026-04-23T13:01:34.999Z</time></trkpt><trkpt lat="42.19586111117014" lon="13.855876288359292"><ele>249.0</ele><time>2026-04-23T13:01:35.999Z</time></trkpt><trkpt lat="42.1958439971529" lon="13.856216708714093"><ele>248.5</ele><time>2026-04-23T13:01:36.999Z</time></trkpt><trkpt lat="42.19582668808148" lon="13.856560579295708"><ele>248.0</ele><time>2026-04-23T13:01:37.999Z</time></trkpt><trkpt lat="42.19580860912799" lon="13.856911744073985"><ele>248.0</ele><time>2026-04-23T13:01:38.999Z</time></trkpt><trkpt lat="42.19579012221321" lon="13.857252011770024"><ele>248.0</ele><time>2026-04-23T13:01:39.999Z</time></trkpt><trkpt lat="42.195765056557455" lon="13.85758610413415"><ele>246.5</ele><time>2026-04-23T13:01:40.999Z</time></trkpt><trkpt lat="42.195740266571846" lon="13.857906093224615"><ele>245.0</ele><time>2026-04-23T13:01:41.999Z</time></trkpt><trkpt lat="42.195715028053336" lon="13.85822144106392"><ele>243.66666666666669</ele><time>2026-04-23T13:01:42.999Z</time></trkpt><trkpt lat="42.195697123796144" lon="13.858520785155736"><ele>242.33333333333331</ele><time>2026-04-23T13:01:43.999Z</time></trkpt><trkpt lat="42.19563925501359" lon="13.858786314805112"><ele>241.0</ele><time>2026-04-23T13:01:44.999Z</time></trkpt><trkpt lat="42.19559388147358" lon="13.85904402500858"><ele>252.66666666666666</ele><time>2026-04-23T13:01:45.999Z</time></trkpt><trkpt lat="42.1955588110314" lon="13.85928660156526"><ele>264.3333333333333</ele><time>2026-04-23T13:01:46.999Z</time></trkpt><trkpt lat="42.19553517614479" lon="13.859541520404077"><ele>276.0</ele><time>2026-04-23T13:01:47.999Z</time></trkpt><trkpt lat="42.19552565641382" lon="13.85980832673985"><ele>276.0</ele><time>2026-04-23T13:01:48.999Z</time></trkpt><trkpt lat="42.195517339522965" lon="13.860065053140609"><ele>276.0</ele><time>2026-04-23T13:01:49.999Z</time></trkpt><trkpt lat="42.19550952977892" lon="13.860294078216517"><ele>276.0</ele><time>2026-04-23T13:01:50.999Z</time></trkpt><trkpt lat="42.19552350824048" lon="13.860480702753057"><ele>275.6</ele><time>2026-04-23T13:01:51.999Z</time></trkpt><trkpt lat="42.19551778870595" lon="13.860644044320699"><ele>275.20000000000005</ele><time>2026-04-23T13:01:52.999Z</time></trkpt><trkpt lat="42.195513541758764" lon="13.860792024701437"><ele>274.79999999999995</ele><time>2026-04-23T13:01:53.999Z</time></trkpt><trkpt lat="42.195511274004616" lon="13.860929684191625"><ele>274.4</ele><time>2026-04-23T13:01:54.999Z</time></trkpt><trkpt lat="42.19551345907668" lon="13.861057509628315"><ele>274.0</ele><time>2026-04-23T13:01:55.999Z</time></trkpt><trkpt lat="42.195514864847624" lon="13.861170390565036"><ele>273.8333333333333</ele><time>2026-04-23T13:01:56.999Z</time></trkpt><trkpt lat="42.195514904281545" lon="13.861288346283164"><ele>273.66666666666663</ele><time>2026-04-23T13:01:57.999Z</time></trkpt><trkpt lat="42.195520411426884" lon="13.861397016871994"><ele>273.5</ele><time>2026-04-23T13:01:58.999Z</time></trkpt><trkpt lat="42.19553247782304" lon="13.861498227488637"><ele>273.3333333333333</ele><time>2026-04-23T13:01:59.999Z</time></trkpt><trkpt lat="42.19554952033207" lon="13.86159028929964"><ele>273.1666666666667</ele><time>2026-04-23T13:02:00.999Z</time></trkpt><trkpt lat="42.19556194270153" lon="13.861683691365894"><ele>273.0</ele><time>2026-04-23T13:02:01.999Z</time></trkpt><trkpt lat="42.195559818926874" lon="13.861781464999101"><ele>274.4</ele><time>2026-04-23T13:02:02.999Z</time></trkpt><trkpt lat="42.195538251813" lon="13.861877985659417"><ele>275.8</ele><time>2026-04-23T13:02:03.999Z</time></trkpt><trkpt lat="42.19553852632124" lon="13.861992299162635"><ele>277.2</ele><time>2026-04-23T13:02:04.999Z</time></trkpt><trkpt lat="42.19555718359489" lon="13.86212389266393"><ele>278.6</ele><time>2026-04-23T13:02:05.999Z</time></trkpt><trkpt lat="42.1956034686692" lon="13.862311354224774"><ele>280.0</ele><time>2026-04-23T13:02:06.999Z</time></trkpt><trkpt lat="42.195663044099135" lon="13.862542782886726"><ele>263.0</ele><time>2026-04-23T13:02:07.999Z</time></trkpt><trkpt lat="42.19574520539475" lon="13.862816955794226"><ele>246.0</ele><time>2026-04-23T13:02:08.999Z</time></trkpt><trkpt lat="42.195828448234494" lon="13.863120417835066"><ele>246.0</ele><time>2026-04-23T13:02:09.999Z</time></trkpt><trkpt lat="42.19590312477183" lon="13.863393863646868"><ele>246.0</ele><time>2026-04-23T13:02:10.999Z</time></trkpt><trkpt lat="42.19592928822759" lon="13.863670523678008"><ele>246.0</ele><time>2026-04-23T13:02:11.999Z</time></trkpt><trkpt lat="42.1960255154373" lon="13.863881107394525"><ele>251.33333333333331</ele><time>2026-04-23T13:02:12.999Z</time></trkpt><trkpt lat="42.196101996629544" lon="13.864084814375989"><ele>256.66666666666663</ele><time>2026-04-23T13:02:13.999Z</time></trkpt><trkpt lat="42.19618166469687" lon="13.86432596687388"><ele>262.0</ele><time>2026-04-23T13:02:14.999Z</time></trkpt><trkpt lat="42.19624834963614" lon="13.864564219937662"><ele>267.0</ele><time>2026-04-23T13:02:15.999Z</time></trkpt><trkpt lat="42.1963219045993" lon="13.864825924731633"><ele>272.0</ele><time>2026-04-23T13:02:16.999Z</time></trkpt><trkpt lat="42.19638315804702" lon="13.865075175937744"><ele>277.0</ele><time>2026-04-23T13:02:17.999Z</time></trkpt><trkpt lat="42.196618549658545" lon="13.865303963603793"><ele>269.66666666666663</ele><time>2026-04-23T13:02:18.999Z</time></trkpt><trkpt lat="42.19669190583273" lon="13.865531049806371"><ele>262.3333333333333</ele><time>2026-04-23T13:02:19.998Z</time></trkpt><trkpt lat="42.19675661481014" lon="13.865747329566966"><ele>255.0</ele><time>2026-04-23T13:02:20.998Z</time></trkpt><trkpt lat="42.19681597187316" lon="13.865979919756569"><ele>255.0</ele><time>2026-04-23T13:02:21.998Z</time></trkpt><trkpt lat="42.19687241650027" lon="13.86622773463968"><ele>255.0</ele><time>2026-04-23T13:02:22.998Z</time></trkpt><trkpt lat="42.19692351330945" lon="13.866455634239058"><ele>255.0</ele><time>2026-04-23T13:02:23.998Z</time></trkpt><trkpt lat="42.19697375014502" lon="13.866679698332614"><ele>257.6666666666667</ele><time>2026-04-23T13:02:24.998Z</time></trkpt><trkpt lat="42.19702572945554" lon="13.866914526563422"><ele>260.33333333333337</ele><time>2026-04-23T13:02:25.998Z</time></trkpt><trkpt lat="42.19707459261015" lon="13.86713289816514"><ele>263.0</ele><time>2026-04-23T13:02:26.998Z</time></trkpt><trkpt lat="42.197120327006125" lon="13.8673372871465"><ele>263.0</ele><time>2026-04-23T13:02:27.998Z</time></trkpt><trkpt lat="42.19716527627317" lon="13.867538167356448"><ele>263.0</ele><time>2026-04-23T13:02:28.998Z</time></trkpt><trkpt lat="42.19720801274871" lon="13.867729158513024"><ele>263.0</ele><time>2026-04-23T13:02:29.998Z</time></trkpt><trkpt lat="42.19725202384302" lon="13.867924878781533"><ele>263.75</ele><time>2026-04-23T13:02:30.998Z</time></trkpt><trkpt lat="42.19729684792822" lon="13.868119210975744"><ele>264.5</ele><time>2026-04-23T13:02:31.998Z</time></trkpt><trkpt lat="42.19733656985502" lon="13.868307793902241"><ele>265.25</ele><time>2026-04-23T13:02:32.998Z</time></trkpt><trkpt lat="42.19736547344993" lon="13.868502142773298"><ele>266.0</ele><time>2026-04-23T13:02:33.998Z</time></trkpt><trkpt lat="42.19739116785535" lon="13.868720494627263"><ele>257.0</ele><time>2026-04-23T13:02:34.998Z</time></trkpt><trkpt lat="42.19741838850187" lon="13.868957119361164"><ele>248.0</ele><time>2026-04-23T13:02:35.998Z</time></trkpt><trkpt lat="42.197449211816114" lon="13.869231706970112"><ele>239.0</ele><time>2026-04-23T13:02:36.999Z</time></trkpt><trkpt lat="42.19748654180937" lon="13.869566119570944"><ele>238.0</ele><time>2026-04-23T13:02:37.999Z</time></trkpt><trkpt lat="42.19752800444615" lon="13.86993859601204"><ele>237.0</ele><time>2026-04-23T13:02:38.999Z</time></trkpt><trkpt lat="42.19757315262853" lon="13.87034418129891"><ele>237.0</ele><time>2026-04-23T13:02:39.999Z</time></trkpt><trkpt lat="42.19762355160964" lon="13.870797184356086"><ele>237.0</ele><time>2026-04-23T13:02:40.999Z</time></trkpt><trkpt lat="42.19767592874253" lon="13.871255756948308"><ele>238.5</ele><time>2026-04-23T13:02:41.999Z</time></trkpt><trkpt lat="42.197721056373446" lon="13.871671126472613"><ele>240.0</ele><time>2026-04-23T13:02:42.999Z</time></trkpt><trkpt lat="42.197771189499115" lon="13.872053499644531"><ele>243.0</ele><time>2026-04-23T13:02:43.999Z</time></trkpt><trkpt lat="42.197822394710805" lon="13.872420699195153"><ele>246.0</ele><time>2026-04-23T13:02:45Z</time></trkpt><trkpt lat="42.19787942476655" lon="13.872769979223511"><ele>246.0</ele><time>2026-04-23T13:02:46Z</time></trkpt><trkpt lat="42.197939880610996" lon="13.873130473467972"><ele>246.0</ele><time>2026-04-23T13:02:47Z</time></trkpt><trkpt lat="42.19800267882957" lon="13.87349851455966"><ele>253.0</ele><time>2026-04-23T13:02:48Z</time></trkpt><trkpt lat="42.19805377374463" lon="13.873809261427958"><ele>260.0</ele><time>2026-04-23T13:02:49Z</time></trkpt><trkpt lat="42.19810498219846" lon="13.87412426066709"><ele>260.6666666666667</ele><time>2026-04-23T13:02:50Z</time></trkpt><trkpt lat="42.19815041654541" lon="13.874404599116348"><ele>261.3333333333333</ele><time>2026-04-23T13:02:51Z</time></trkpt><trkpt lat="42.19819284483977" lon="13.874668048439041"><ele>262.0</ele><time>2026-04-23T13:02:52Z</time></trkpt><trkpt lat="42.19823364132099" lon="13.874921365033707"><ele>249.33333333333331</ele><time>2026-04-23T13:02:53Z</time></trkpt><trkpt lat="42.19827060802105" lon="13.875163689245202"><ele>236.66666666666669</ele><time>2026-04-23T13:02:54Z</time></trkpt><trkpt lat="42.19828009003724" lon="13.875389486085055"><ele>224.0</ele><time>2026-04-23T13:02:55Z</time></trkpt><trkpt lat="42.198254371094976" lon="13.875618655264198"><ele>224.0</ele><time>2026-04-23T13:02:56Z</time></trkpt><trkpt lat="42.198201513344344" lon="13.875888522570277"><ele>224.0</ele><time>2026-04-23T13:02:57Z</time></trkpt><trkpt lat="42.19813203545569" lon="13.87620062887777"><ele>224.0</ele><time>2026-04-23T13:02:58Z</time></trkpt><trkpt lat="42.19805755425207" lon="13.876516729259132"><ele>237.0</ele><time>2026-04-23T13:02:59Z</time></trkpt><trkpt lat="42.197990906998854" lon="13.876798718260424"><ele>250.0</ele><time>2026-04-23T13:03:00Z</time></trkpt><trkpt lat="42.19793699648119" lon="13.877049551705072"><ele>263.0</ele><time>2026-04-23T13:03:01Z</time></trkpt><trkpt lat="42.197935280652516" lon="13.877285661865338"><ele>263.0</ele><time>2026-04-23T13:03:02Z</time></trkpt><trkpt lat="42.197925365138616" lon="13.87751552075617"><ele>263.0</ele><time>2026-04-23T13:03:03Z</time></trkpt><trkpt lat="42.19797453289516" lon="13.877754387177559"><ele>263.0</ele><time>2026-04-23T13:03:04Z</time></trkpt><trkpt lat="42.19806329866915" lon="13.878012454768287"><ele>264.6666666666667</ele><time>2026-04-23T13:03:05Z</time></trkpt><trkpt lat="42.19815592717915" lon="13.878297844375021"><ele>266.3333333333333</ele><time>2026-04-23T13:03:06Z</time></trkpt><trkpt lat="42.19827085634313" lon="13.878536399440996"><ele>268.0</ele><time>2026-04-23T13:03:07Z</time></trkpt><trkpt lat="42.198412440188385" lon="13.878723463739522"><ele>253.5</ele><time>2026-04-23T13:03:08Z</time></trkpt><trkpt lat="42.19857566592488" lon="13.878918523458953"><ele>239.0</ele><time>2026-04-23T13:03:09Z</time></trkpt><trkpt lat="42.198763639269345" lon="13.879105612221258"><ele>236.0</ele><time>2026-04-23T13:03:10Z</time></trkpt><trkpt lat="42.19891068172093" lon="13.879279709338768"><ele>233.0</ele><time>2026-04-23T13:03:11Z</time></trkpt><trkpt lat="42.19903709053583" lon="13.879423310163398"><ele>230.0</ele><time>2026-04-23T13:03:12Z</time></trkpt><trkpt lat="42.19914793259802" lon="13.879590726861807"><ele>230.0</ele><time>2026-04-23T13:03:13Z</time></trkpt><trkpt lat="42.19923034735783" lon="13.879774081770288"><ele>230.0</ele><time>2026-04-23T13:03:14Z</time></trkpt><trkpt lat="42.19928989199198" lon="13.87997540933731"><ele>230.0</ele><time>2026-04-23T13:03:15Z</time></trkpt><trkpt lat="42.199294876007905" lon="13.880201915683847"><ele>229.0</ele><time>2026-04-23T13:03:16Z</time></trkpt><trkpt lat="42.19928274755367" lon="13.88046647398455"><ele>228.0</ele><time>2026-04-23T13:03:17Z</time></trkpt><trkpt lat="42.19925577185425" lon="13.880753908797573"><ele>227.0</ele><time>2026-04-23T13:03:18Z</time></trkpt><trkpt lat="42.199230984082774" lon="13.881010662744632"><ele>227.0</ele><time>2026-04-23T13:03:19Z</time></trkpt><trkpt lat="42.19920939743205" lon="13.881245468417296"><ele>227.0</ele><time>2026-04-23T13:03:20Z</time></trkpt><trkpt lat="42.19919688909479" lon="13.881457768887051"><ele>227.0</ele><time>2026-04-23T13:03:21Z</time></trkpt><trkpt lat="42.19922536936211" lon="13.881664387746245"><ele>229.0</ele><time>2026-04-23T13:03:22Z</time></trkpt><trkpt lat="42.19930126219938" lon="13.881884801977092"><ele>231.0</ele><time>2026-04-23T13:03:23Z</time></trkpt><trkpt lat="42.19940157199323" lon="13.882131234417507"><ele>233.0</ele><time>2026-04-23T13:03:24Z</time></trkpt><trkpt lat="42.1994925610691" lon="13.882376618921477"><ele>239.66666666666669</ele><time>2026-04-23T13:03:25Z</time></trkpt><trkpt lat="42.199549008555636" lon="13.882630549549722"><ele>246.33333333333331</ele><time>2026-04-23T13:03:26Z</time></trkpt><trkpt lat="42.19963039647034" lon="13.882865968038676"><ele>253.0</ele><time>2026-04-23T13:03:27Z</time></trkpt><trkpt lat="42.1997378052521" lon="13.883066803720814"><ele>248.33333333333331</ele><time>2026-04-23T13:03:28Z</time></trkpt><trkpt lat="42.1998822880648" lon="13.88326517034958"><ele>243.66666666666669</ele><time>2026-04-23T13:03:29Z</time></trkpt><trkpt lat="42.20004160959227" lon="13.883478228255251"><ele>239.0</ele><time>2026-04-23T13:03:30Z</time></trkpt><trkpt lat="42.20018274796795" lon="13.88366166339143"><ele>239.0</ele><time>2026-04-23T13:03:31Z</time></trkpt><trkpt lat="42.20031461292134" lon="13.883827519837043"><ele>239.0</ele><time>2026-04-23T13:03:32Z</time></trkpt><trkpt lat="42.20042617490173" lon="13.884002681876689"><ele>239.0</ele><time>2026-04-23T13:03:33Z</time></trkpt><trkpt lat="42.20050799239714" lon="13.884220774081143"><ele>243.66666666666669</ele><time>2026-04-23T13:03:34Z</time></trkpt><trkpt lat="42.20057972998901" lon="13.884476061522813"><ele>248.33333333333331</ele><time>2026-04-23T13:03:35Z</time></trkpt><trkpt lat="42.200650492538536" lon="13.884748855586446"><ele>253.0</ele><time>2026-04-23T13:03:36Z</time></trkpt><trkpt lat="42.20072506227169" lon="13.884996578020555"><ele>247.0</ele><time>2026-04-23T13:03:37Z</time></trkpt><trkpt lat="42.20081670462928" lon="13.885217854530804"><ele>241.0</ele><time>2026-04-23T13:03:38Z</time></trkpt><trkpt lat="42.20095621672761" lon="13.885415248033757"><ele>235.0</ele><time>2026-04-23T13:03:39Z</time></trkpt><trkpt lat="42.2011271607877" lon="13.885625368463169"><ele>235.0</ele><time>2026-04-23T13:03:40Z</time></trkpt><trkpt lat="42.201323212988264" lon="13.885848408888068"><ele>235.0</ele><time>2026-04-23T13:03:41Z</time></trkpt><trkpt lat="42.201533482042365" lon="13.8860634654704"><ele>232.0</ele><time>2026-04-23T13:03:42Z</time></trkpt><trkpt lat="42.20174511178253" lon="13.886256760473305"><ele>229.0</ele><time>2026-04-23T13:03:43Z</time></trkpt><trkpt lat="42.201930017250156" lon="13.88645528274264"><ele>229.0</ele><time>2026-04-23T13:03:44Z</time></trkpt><trkpt lat="42.20209294868801" lon="13.886622508433668"><ele>229.0</ele><time>2026-04-23T13:03:45Z</time></trkpt><trkpt lat="42.20224287202865" lon="13.886772946375835"><ele>229.0</ele><time>2026-04-23T13:03:46Z</time></trkpt><trkpt lat="42.20237881434052" lon="13.8869130027341"><ele>226.33333333333331</ele><time>2026-04-23T13:03:47Z</time></trkpt><trkpt lat="42.20251880488136" lon="13.887056124127072"><ele>223.66666666666669</ele><time>2026-04-23T13:03:48Z</time></trkpt><trkpt lat="42.20266441635034" lon="13.88720634305505"><ele>221.0</ele><time>2026-04-23T13:03:49Z</time></trkpt><trkpt lat="42.20280318026653" lon="13.887345485451554"><ele>221.0</ele><time>2026-04-23T13:03:50Z</time></trkpt><trkpt lat="42.20292182926296" lon="13.88749300900777"><ele>221.0</ele><time>2026-04-23T13:03:51Z</time></trkpt><trkpt lat="42.20304818774741" lon="13.88762394301061"><ele>221.0</ele><time>2026-04-23T13:03:52Z</time></trkpt><trkpt lat="42.20317695043394" lon="13.887757368398065"><ele>224.33333333333334</ele><time>2026-04-23T13:03:53Z</time></trkpt><trkpt lat="42.20331859012775" lon="13.887875567510175"><ele>227.66666666666669</ele><time>2026-04-23T13:03:54Z</time></trkpt><trkpt lat="42.203445163378625" lon="13.888007897946915"><ele>231.0</ele><time>2026-04-23T13:03:55Z</time></trkpt><trkpt lat="42.20356837147291" lon="13.888134235468153"><ele>231.0</ele><time>2026-04-23T13:03:56Z</time></trkpt><trkpt lat="42.2036825778787" lon="13.88828683158754"><ele>231.0</ele><time>2026-04-23T13:03:57Z</time></trkpt><trkpt lat="42.20380789633576" lon="13.888428410045538"><ele>231.0</ele><time>2026-04-23T13:03:58Z</time></trkpt><trkpt lat="42.20391947124817" lon="13.888579166871121"><ele>227.0</ele><time>2026-04-23T13:03:59Z</time></trkpt><trkpt lat="42.20402097031265" lon="13.888737874678707"><ele>223.0</ele><time>2026-04-23T13:04:00Z</time></trkpt><trkpt lat="42.2041152196788" lon="13.888903874226708"><ele>219.0</ele><time>2026-04-23T13:04:01Z</time></trkpt><trkpt lat="42.20419950161707" lon="13.889075273029377"><ele>219.0</ele><time>2026-04-23T13:04:02Z</time></trkpt><trkpt lat="42.20427429321173" lon="13.889250657714975"><ele>219.0</ele><time>2026-04-23T13:04:03Z</time></trkpt><trkpt lat="42.20435678659368" lon="13.889476719833048"><ele>219.0</ele><time>2026-04-23T13:04:04Z</time></trkpt><trkpt lat="42.20443769110866" lon="13.889746147362793"><ele>219.33333333333331</ele><time>2026-04-23T13:04:05Z</time></trkpt><trkpt lat="42.20452105737428" lon="13.890026622724028"><ele>219.66666666666666</ele><time>2026-04-23T13:04:06Z</time></trkpt><trkpt lat="42.20459372617819" lon="13.890272242913312"><ele>220.0</ele><time>2026-04-23T13:04:07Z</time></trkpt><trkpt lat="42.20466052226709" lon="13.890489695931874"><ele>219.33333333333331</ele><time>2026-04-23T13:04:08Z</time></trkpt><trkpt lat="42.20474870120656" lon="13.890671935028543"><ele>218.66666666666669</ele><time>2026-04-23T13:04:09Z</time></trkpt><trkpt lat="42.204830042193684" lon="13.890839120439418"><ele>218.0</ele><time>2026-04-23T13:04:10Z</time></trkpt><trkpt lat="42.20495566691303" lon="13.890993428343307"><ele>222.0</ele><time>2026-04-23T13:04:11Z</time></trkpt><trkpt lat="42.20510529497477" lon="13.891212077759873"><ele>226.0</ele><time>2026-04-23T13:04:12Z</time></trkpt><trkpt lat="42.20529221401826" lon="13.891454543271958"><ele>226.0</ele><time>2026-04-23T13:04:13Z</time></trkpt><trkpt lat="42.20550253277808" lon="13.891710779699508"><ele>226.0</ele><time>2026-04-23T13:04:14Z</time></trkpt><trkpt lat="42.205712637001916" lon="13.891996074159318"><ele>226.0</ele><time>2026-04-23T13:04:15Z</time></trkpt><trkpt lat="42.205941986128394" lon="13.892281454505195"><ele>226.0</ele><time>2026-04-23T13:04:16Z</time></trkpt><trkpt lat="42.206137529216115" lon="13.892560686680353"><ele>227.5</ele><time>2026-04-23T13:04:17Z</time></trkpt><trkpt lat="42.20634864770788" lon="13.892776776479325"><ele>229.0</ele><time>2026-04-23T13:04:18Z</time></trkpt><trkpt lat="42.20655359445345" lon="13.89299063373919"><ele>229.0</ele><time>2026-04-23T13:04:19Z</time></trkpt><trkpt lat="42.206756106550436" lon="13.893186519027733"><ele>229.0</ele><time>2026-04-23T13:04:20Z</time></trkpt><trkpt lat="42.20694685268222" lon="13.893405921097084"><ele>232.5</ele><time>2026-04-23T13:04:21Z</time></trkpt><trkpt lat="42.20717349553004" lon="13.893634472680354"><ele>236.0</ele><time>2026-04-23T13:04:22Z</time></trkpt><trkpt lat="42.20743072242674" lon="13.893867970477805"><ele>230.5</ele><time>2026-04-23T13:04:23Z</time></trkpt><trkpt lat="42.207694802568426" lon="13.894160744187548"><ele>225.0</ele><time>2026-04-23T13:04:24Z</time></trkpt><trkpt lat="42.20798540339232" lon="13.894433477736042"><ele>222.0</ele><time>2026-04-23T13:04:25Z</time></trkpt><trkpt lat="42.20827583988567" lon="13.89473059751521"><ele>219.0</ele><time>2026-04-23T13:04:26Z</time></trkpt><trkpt lat="42.208565488960794" lon="13.89502269716708"><ele>219.0</ele><time>2026-04-23T13:04:27Z</time></trkpt><trkpt lat="42.20881743303089" lon="13.89528077722524"><ele>219.0</ele><time>2026-04-23T13:04:28Z</time></trkpt><trkpt lat="42.20905223540732" lon="13.89552351063807"><ele>219.0</ele><time>2026-04-23T13:04:29Z</time></trkpt><trkpt lat="42.20927485774033" lon="13.895753241102053"><ele>219.0</ele><time>2026-04-23T13:04:30Z</time></trkpt><trkpt lat="42.20948465213198" lon="13.895964748329419"><ele>219.5</ele><time>2026-04-23T13:04:31Z</time></trkpt><trkpt lat="42.20968857569655" lon="13.896151188887782"><ele>220.0</ele><time>2026-04-23T13:04:32Z</time></trkpt><trkpt lat="42.20986635346533" lon="13.896331157403191"><ele>220.0</ele><time>2026-04-23T13:04:33Z</time></trkpt><trkpt lat="42.210031621681" lon="13.89649893668655"><ele>220.0</ele><time>2026-04-23T13:04:34Z</time></trkpt><trkpt lat="42.21018235182668" lon="13.89665079346666"><ele>220.0</ele><time>2026-04-23T13:04:34.999Z</time></trkpt><trkpt lat="42.21030742292331" lon="13.896804296292446"><ele>222.33333333333331</ele><time>2026-04-23T13:04:35.999Z</time></trkpt><trkpt lat="42.21041799323838" lon="13.896986927867784"><ele>224.66666666666669</ele><time>2026-04-23T13:04:36.999Z</time></trkpt><trkpt lat="42.210500155300196" lon="13.897224672536044"><ele>227.0</ele><time>2026-04-23T13:04:37.999Z</time></trkpt><trkpt lat="42.21058635427249" lon="13.897489729262833"><ele>222.5</ele><time>2026-04-23T13:04:38.999Z</time></trkpt><trkpt lat="42.210684937593086" lon="13.897773644577136"><ele>218.0</ele><time>2026-04-23T13:04:39.999Z</time></trkpt><trkpt lat="42.21077623182366" lon="13.898069214096894"><ele>218.0</ele><time>2026-04-23T13:04:40.999Z</time></trkpt><trkpt lat="42.210873928843505" lon="13.898356735069838"><ele>218.0</ele><time>2026-04-23T13:04:41.999Z</time></trkpt><trkpt lat="42.21096436814686" lon="13.898623251263492"><ele>219.33333333333334</ele><time>2026-04-23T13:04:42.999Z</time></trkpt><trkpt lat="42.21105116619962" lon="13.898877436146948"><ele>220.66666666666669</ele><time>2026-04-23T13:04:43.999Z</time></trkpt><trkpt lat="42.21112899820403" lon="13.899123777201318"><ele>222.0</ele><time>2026-04-23T13:04:44.999Z</time></trkpt><trkpt lat="42.21120644832194" lon="13.899365855650064"><ele>222.33333333333331</ele><time>2026-04-23T13:04:45.999Z</time></trkpt><trkpt lat="42.21128614910234" lon="13.899605665795853"><ele>222.66666666666666</ele><time>2026-04-23T13:04:46.999Z</time></trkpt><trkpt lat="42.21136721773146" lon="13.899851612847401"><ele>223.0</ele><time>2026-04-23T13:04:47.999Z</time></trkpt><trkpt lat="42.21145057341098" lon="13.90011066020019"><ele>221.66666666666666</ele><time>2026-04-23T13:04:48.999Z</time></trkpt><trkpt lat="42.21153825847295" lon="13.900373324320691"><ele>220.33333333333331</ele><time>2026-04-23T13:04:49.999Z</time></trkpt><trkpt lat="42.21162051377734" lon="13.900639821393172"><ele>219.0</ele><time>2026-04-23T13:04:51.001Z</time></trkpt><trkpt lat="42.21170666890226" lon="13.900884207892942"><ele>220.66666666666669</ele><time>2026-04-23T13:04:52.001Z</time></trkpt><trkpt lat="42.21177872684553" lon="13.901101876190967"><ele>222.33333333333334</ele><time>2026-04-23T13:04:53.001Z</time></trkpt><trkpt lat="42.21187356892628" lon="13.901298848100728"><ele>224.0</ele><time>2026-04-23T13:04:54.001Z</time></trkpt><trkpt lat="42.21199795524994" lon="13.901474984488244"><ele>224.0</ele><time>2026-04-23T13:04:55.001Z</time></trkpt><trkpt lat="42.21215106227272" lon="13.901631900831834"><ele>224.0</ele><time>2026-04-23T13:04:56.001Z</time></trkpt><trkpt lat="42.212326701791994" lon="13.901772302864982"><ele>224.0</ele><time>2026-04-23T13:04:57.001Z</time></trkpt><trkpt lat="42.21251328077928" lon="13.901921628330559"><ele>222.0</ele><time>2026-04-23T13:04:58.001Z</time></trkpt><trkpt lat="42.21269858860604" lon="13.902081960653081"><ele>220.0</ele><time>2026-04-23T13:04:59.001Z</time></trkpt><trkpt lat="42.21287899018672" lon="13.902259337125987"><ele>218.0</ele><time>2026-04-23T13:05:00.001Z</time></trkpt><trkpt lat="42.213023548242404" lon="13.902460547916307"><ele>217.33333333333334</ele><time>2026-04-23T13:05:01.001Z</time></trkpt><trkpt lat="42.21314905322121" lon="13.902684818400951"><ele>216.66666666666669</ele><time>2026-04-23T13:05:02.001Z</time></trkpt><trkpt lat="42.213247977097815" lon="13.902938998447395"><ele>216.0</ele><time>2026-04-23T13:05:03.001Z</time></trkpt><trkpt lat="42.21333457249894" lon="13.903204730022916"><ele>216.0</ele><time>2026-04-23T13:05:04.001Z</time></trkpt><trkpt lat="42.21387849310061" lon="13.903128546953505"><ele>216.5</ele><time>2026-04-23T13:05:05.001Z</time></trkpt><trkpt lat="42.21408117184874" lon="13.903310956893046"><ele>217.0</ele><time>2026-04-23T13:05:06.001Z</time></trkpt><trkpt lat="42.21428811667273" lon="13.903492165954333"><ele>217.0</ele><time>2026-04-23T13:05:07.001Z</time></trkpt><trkpt lat="42.214494537647056" lon="13.903674316097275"><ele>217.0</ele><time>2026-04-23T13:05:08.001Z</time></trkpt><trkpt lat="42.214700794879015" lon="13.903856380725856"><ele>216.5</ele><time>2026-04-23T13:05:09.001Z</time></trkpt><trkpt lat="42.21490905580585" lon="13.904032175343668"><ele>216.0</ele><time>2026-04-23T13:05:10.001Z</time></trkpt><trkpt lat="42.21510523932792" lon="13.904187733756117"><ele>217.0</ele><time>2026-04-23T13:05:11Z</time></trkpt><trkpt lat="42.21530274008317" lon="13.904316986502469"><ele>218.0</ele><time>2026-04-23T13:05:12Z</time></trkpt><trkpt lat="42.215506168026735" lon="13.904446839586047"><ele>219.0</ele><time>2026-04-23T13:05:13Z</time></trkpt><trkpt lat="42.21571634780482" lon="13.904581568698628"><ele>219.0</ele><time>2026-04-23T13:05:14Z</time></trkpt><trkpt lat="42.21592848744855" lon="13.90472213757501"><ele>219.0</ele><time>2026-04-23T13:05:15Z</time></trkpt><trkpt lat="42.21614153836536" lon="13.904863892889766"><ele>219.0</ele><time>2026-04-23T13:05:16Z</time></trkpt><trkpt lat="42.216354429253975" lon="13.905000575815858"><ele>219.0</ele><time>2026-04-23T13:05:17Z</time></trkpt><trkpt lat="42.21654753060935" lon="13.905123827027497"><ele>219.0</ele><time>2026-04-23T13:05:18Z</time></trkpt><trkpt lat="42.21675114775334" lon="13.905259400521752"><ele>219.33333333333331</ele><time>2026-04-23T13:05:19Z</time></trkpt><trkpt lat="42.21695042804724" lon="13.905399079692188"><ele>219.66666666666666</ele><time>2026-04-23T13:05:20Z</time></trkpt><trkpt lat="42.217128083983006" lon="13.905514970499167"><ele>220.0</ele><time>2026-04-23T13:05:21Z</time></trkpt><trkpt lat="42.21729527663809" lon="13.905621516122148"><ele>218.33333333333331</ele><time>2026-04-23T13:05:22Z</time></trkpt><trkpt lat="42.21746049729561" lon="13.90572704040195"><ele>216.66666666666669</ele><time>2026-04-23T13:05:23Z</time></trkpt><trkpt lat="42.217618279280494" lon="13.90583191720711"><ele>215.0</ele><time>2026-04-23T13:05:24Z</time></trkpt><trkpt lat="42.21776965845479" lon="13.905946830064067"><ele>215.66666666666669</ele><time>2026-04-23T13:05:25Z</time></trkpt><trkpt lat="42.2179152824116" lon="13.906084026855833"><ele>216.33333333333331</ele><time>2026-04-23T13:05:26Z</time></trkpt><trkpt lat="42.21804842426461" lon="13.906265174731567"><ele>217.0</ele><time>2026-04-23T13:05:27Z</time></trkpt><trkpt lat="42.21821002346733" lon="13.906473046721029"><ele>217.0</ele><time>2026-04-23T13:05:28Z</time></trkpt><trkpt lat="42.218381877473234" lon="13.906709722867086"><ele>217.0</ele><time>2026-04-23T13:05:29Z</time></trkpt><trkpt lat="42.218560413288145" lon="13.906966224630338"><ele>221.0</ele><time>2026-04-23T13:05:30Z</time></trkpt><trkpt lat="42.21875180161665" lon="13.907232885403381"><ele>225.0</ele><time>2026-04-23T13:05:31Z</time></trkpt><trkpt lat="42.21893995182143" lon="13.90748463159847"><ele>224.0</ele><time>2026-04-23T13:05:32Z</time></trkpt><trkpt lat="42.21911510134055" lon="13.907711213392854"><ele>223.0</ele><time>2026-04-23T13:05:33Z</time></trkpt><trkpt lat="42.21928255410217" lon="13.907931866959478"><ele>223.0</ele><time>2026-04-23T13:05:34Z</time></trkpt><trkpt lat="42.219448473646445" lon="13.908150937873533"><ele>223.0</ele><time>2026-04-23T13:05:35Z</time></trkpt><trkpt lat="42.21961516701515" lon="13.908369707159345"><ele>221.33333333333331</ele><time>2026-04-23T13:05:36Z</time></trkpt><trkpt lat="42.21978115260071" lon="13.908586228994595"><ele>219.66666666666669</ele><time>2026-04-23T13:05:37Z</time></trkpt><trkpt lat="42.21993510947879" lon="13.908794362944272"><ele>218.0</ele><time>2026-04-23T13:05:38Z</time></trkpt><trkpt lat="42.22008279407558" lon="13.908984894656662"><ele>218.0</ele><time>2026-04-23T13:05:39Z</time></trkpt><trkpt lat="42.220227267857425" lon="13.9091758020331"><ele>218.0</ele><time>2026-04-23T13:05:40Z</time></trkpt><trkpt lat="42.220373528155456" lon="13.909370260659237"><ele>218.0</ele><time>2026-04-23T13:05:41Z</time></trkpt><trkpt lat="42.220515229719474" lon="13.909558715551471"><ele>218.66666666666669</ele><time>2026-04-23T13:05:42Z</time></trkpt><trkpt lat="42.220657154534166" lon="13.909742348199327"><ele>219.33333333333331</ele><time>2026-04-23T13:05:43Z</time></trkpt><trkpt lat="42.22079877291089" lon="13.909930623707385"><ele>220.0</ele><time>2026-04-23T13:05:44Z</time></trkpt><trkpt lat="42.220943457917365" lon="13.910122643624351"><ele>220.0</ele><time>2026-04-23T13:05:45Z</time></trkpt><trkpt lat="42.22108830006791" lon="13.91031365347614"><ele>220.0</ele><time>2026-04-23T13:05:46Z</time></trkpt><trkpt lat="42.22123552453036" lon="13.910503802240509"><ele>220.0</ele><time>2026-04-23T13:05:47Z</time></trkpt><trkpt lat="42.22139146897997" lon="13.91069558370988"><ele>219.0</ele><time>2026-04-23T13:05:48Z</time></trkpt><trkpt lat="42.22153806785048" lon="13.910892430624388"><ele>218.0</ele><time>2026-04-23T13:05:49Z</time></trkpt><trkpt lat="42.22167512354023" lon="13.91107751057108"><ele>217.0</ele><time>2026-04-23T13:05:50Z</time></trkpt><trkpt lat="42.221798551866314" lon="13.91124914520533"><ele>217.0</ele><time>2026-04-23T13:05:51Z</time></trkpt><trkpt lat="42.221915557743785" lon="13.911414796415858"><ele>217.0</ele><time>2026-04-23T13:05:52Z</time></trkpt><trkpt lat="42.22202895925404" lon="13.911585110721393"><ele>217.0</ele><time>2026-04-23T13:05:53Z</time></trkpt><trkpt lat="42.22213437204277" lon="13.91175956438093"><ele>216.33333333333331</ele><time>2026-04-23T13:05:54Z</time></trkpt><trkpt lat="42.22223268768386" lon="13.911941064826395"><ele>215.66666666666669</ele><time>2026-04-23T13:05:55Z</time></trkpt><trkpt lat="42.22231453254362" lon="13.912147002913244"><ele>215.0</ele><time>2026-04-23T13:05:56Z</time></trkpt><trkpt lat="42.22241715920378" lon="13.91233291089959"><ele>215.0</ele><time>2026-04-23T13:05:57Z</time></trkpt><trkpt lat="42.22249149551943" lon="13.912523412993208"><ele>215.0</ele><time>2026-04-23T13:05:58Z</time></trkpt><trkpt lat="42.22255300472922" lon="13.912704634905829"><ele>215.0</ele><time>2026-04-23T13:05:59Z</time></trkpt><trkpt lat="42.222603287403345" lon="13.9128832785781"><ele>215.0</ele><time>2026-04-23T13:06:00Z</time></trkpt><trkpt lat="42.222632686389105" lon="13.913067662343336"><ele>216.33333333333334</ele><time>2026-04-23T13:06:01Z</time></trkpt><trkpt lat="42.22268361213564" lon="13.91325430020726"><ele>217.66666666666669</ele><time>2026-04-23T13:06:02Z</time></trkpt><trkpt lat="42.22277423771301" lon="13.913423321333955"><ele>219.0</ele><time>2026-04-23T13:06:03Z</time></trkpt><trkpt lat="42.222869912973934" lon="13.913599851502676"><ele>217.66666666666669</ele><time>2026-04-23T13:06:04Z</time></trkpt><trkpt lat="42.22299104735089" lon="13.913756774216193"><ele>216.33333333333334</ele><time>2026-04-23T13:06:05Z</time></trkpt><trkpt lat="42.223130716975675" lon="13.913897080386002"><ele>215.0</ele><time>2026-04-23T13:06:06Z</time></trkpt><trkpt lat="42.2232828622896" lon="13.914026565579892"><ele>215.0</ele><time>2026-04-23T13:06:07Z</time></trkpt><trkpt lat="42.22344095706627" lon="13.914157341282898"><ele>215.0</ele><time>2026-04-23T13:06:08Z</time></trkpt><trkpt lat="42.2235918617784" lon="13.914282948393504"><ele>215.0</ele><time>2026-04-23T13:06:09Z</time></trkpt><trkpt lat="42.223736368383825" lon="13.914411227205743"><ele>215.0</ele><time>2026-04-23T13:06:10Z</time></trkpt><trkpt lat="42.22387203778044" lon="13.91452956722164"><ele>215.0</ele><time>2026-04-23T13:06:11Z</time></trkpt><trkpt lat="42.223999559592684" lon="13.91465873734954"><ele>215.0</ele><time>2026-04-23T13:06:12Z</time></trkpt><trkpt lat="42.22411200586371" lon="13.914837899633469"><ele>215.0</ele><time>2026-04-23T13:06:13Z</time></trkpt><trkpt lat="42.224238062716104" lon="13.915008555025608"><ele>215.0</ele><time>2026-04-23T13:06:14Z</time></trkpt><trkpt lat="42.22436694685038" lon="13.915158013951462"><ele>215.0</ele><time>2026-04-23T13:06:15Z</time></trkpt><trkpt lat="42.22447466942951" lon="13.91531752003226"><ele>219.0</ele><time>2026-04-23T13:06:16Z</time></trkpt><trkpt lat="42.22458886704291" lon="13.915480619159133"><ele>223.0</ele><time>2026-04-23T13:06:17Z</time></trkpt><trkpt lat="42.22468981219316" lon="13.915672093776923"><ele>227.0</ele><time>2026-04-23T13:06:18Z</time></trkpt><trkpt lat="42.2247930468108" lon="13.915864874958379"><ele>222.0</ele><time>2026-04-23T13:06:19Z</time></trkpt><trkpt lat="42.22489256175328" lon="13.916066981866113"><ele>217.0</ele><time>2026-04-23T13:06:20Z</time></trkpt><trkpt lat="42.22498502505649" lon="13.916264078622543"><ele>212.0</ele><time>2026-04-23T13:06:21Z</time></trkpt><trkpt lat="42.22508669963613" lon="13.9164550429996"><ele>212.0</ele><time>2026-04-23T13:06:22Z</time></trkpt><trkpt lat="42.22515398467796" lon="13.91668618645004"><ele>212.0</ele><time>2026-04-23T13:06:23Z</time></trkpt><trkpt lat="42.22522391627902" lon="13.916932826709354"><ele>212.0</ele><time>2026-04-23T13:06:24Z</time></trkpt><trkpt lat="42.22528770983474" lon="13.91719205037718"><ele>212.0</ele><time>2026-04-23T13:06:25Z</time></trkpt><trkpt lat="42.225344093302276" lon="13.91744549078724"><ele>212.0</ele><time>2026-04-23T13:06:26Z</time></trkpt><trkpt lat="42.22539419381713" lon="13.91767763484912"><ele>212.0</ele><time>2026-04-23T13:06:27Z</time></trkpt><trkpt lat="42.22544295892167" lon="13.91791082276928"><ele>211.33333333333334</ele><time>2026-04-23T13:06:28Z</time></trkpt><trkpt lat="42.22549173714815" lon="13.91814653638083"><ele>210.66666666666669</ele><time>2026-04-23T13:06:29Z</time></trkpt><trkpt lat="42.22553876878624" lon="13.918373809871921"><ele>210.0</ele><time>2026-04-23T13:06:30Z</time></trkpt><trkpt lat="42.22558567493838" lon="13.91860290782168"><ele>210.0</ele><time>2026-04-23T13:06:31Z</time></trkpt><trkpt lat="42.225633773490514" lon="13.91883804822355"><ele>210.0</ele><time>2026-04-23T13:06:32Z</time></trkpt><trkpt lat="42.22568344311193" lon="13.919080869122048"><ele>210.0</ele><time>2026-04-23T13:06:33Z</time></trkpt><trkpt lat="42.225743788726504" lon="13.919375882484958"><ele>209.5</ele><time>2026-04-23T13:06:34Z</time></trkpt><trkpt lat="42.22581686569908" lon="13.919731404937934"><ele>209.0</ele><time>2026-04-23T13:06:35Z</time></trkpt><trkpt lat="42.2258991254043" lon="13.920119460976727"><ele>209.0</ele><time>2026-04-23T13:06:36Z</time></trkpt><trkpt lat="42.22596957728131" lon="13.920483076724777"><ele>209.0</ele><time>2026-04-23T13:06:37Z</time></trkpt><trkpt lat="42.226010502332365" lon="13.920809009219123"><ele>210.0</ele><time>2026-04-23T13:06:38Z</time></trkpt><trkpt lat="42.22609866495713" lon="13.921018180536816"><ele>211.0</ele><time>2026-04-23T13:06:39Z</time></trkpt><trkpt lat="42.22612148646666" lon="13.921291770156387"><ele>212.0</ele><time>2026-04-23T13:06:40Z</time></trkpt><trkpt lat="42.2261259455346" lon="13.921613821721667"><ele>211.5</ele><time>2026-04-23T13:06:41Z</time></trkpt><trkpt lat="42.22611605682694" lon="13.921994726725215"><ele>211.0</ele><time>2026-04-23T13:06:42Z</time></trkpt><trkpt lat="42.22611920416069" lon="13.922360977942375"><ele>209.5</ele><time>2026-04-23T13:06:43Z</time></trkpt><trkpt lat="42.22610829838908" lon="13.922675990054067"><ele>208.0</ele><time>2026-04-23T13:06:44Z</time></trkpt><trkpt lat="42.22610321992179" lon="13.922988923156895"><ele>208.0</ele><time>2026-04-23T13:06:45Z</time></trkpt><trkpt lat="42.226092980685294" lon="13.923342831224296"><ele>208.0</ele><time>2026-04-23T13:06:46Z</time></trkpt><trkpt lat="42.22608488469806" lon="13.923629503867966"><ele>208.0</ele><time>2026-04-23T13:06:47Z</time></trkpt><trkpt lat="42.22607858481784" lon="13.923903670922218"><ele>208.0</ele><time>2026-04-23T13:06:48Z</time></trkpt><trkpt lat="42.226057871947894" lon="13.924165728461759"><ele>208.0</ele><time>2026-04-23T13:06:49Z</time></trkpt><trkpt lat="42.22606657843529" lon="13.924409257234348"><ele>208.0</ele><time>2026-04-23T13:06:50Z</time></trkpt><trkpt lat="42.22605694132876" lon="13.924636700533162"><ele>208.0</ele><time>2026-04-23T13:06:50.999Z</time></trkpt><trkpt lat="42.22605168178443" lon="13.924850129685929"><ele>208.0</ele><time>2026-04-23T13:06:51.999Z</time></trkpt><trkpt lat="42.22604521235071" lon="13.925051984283108"><ele>208.25</ele><time>2026-04-23T13:06:52.999Z</time></trkpt><trkpt lat="42.226039267925316" lon="13.925238235373655"><ele>208.5</ele><time>2026-04-23T13:06:53.999Z</time></trkpt><trkpt lat="42.22603770457867" lon="13.925407834501106"><ele>208.75</ele><time>2026-04-23T13:06:54.999Z</time></trkpt><trkpt lat="42.22603240493707" lon="13.925545809146925"><ele>209.0</ele><time>2026-04-23T13:06:55.999Z</time></trkpt><trkpt lat="42.226030388387805" lon="13.925673855304646"><ele>209.00000000000003</ele><time>2026-04-23T13:06:57.001Z</time></trkpt><trkpt lat="42.22602855215156" lon="13.92579235560573"><ele>209.0</ele><time>2026-04-23T13:06:58.001Z</time></trkpt><trkpt lat="42.22602810759144" lon="13.925889933616753"><ele>209.0</ele><time>2026-04-23T13:06:59.001Z</time></trkpt><trkpt lat="42.22602568050409" lon="13.926030742729177"><ele>209.0</ele><time>2026-04-23T13:07:01.001Z</time></trkpt><trkpt lat="42.22602013079015" lon="13.926147472516835"><ele>209.00000000000003</ele><time>2026-04-23T13:07:04.001Z</time></trkpt><trkpt lat="42.22596861185945" lon="13.926239730742125"><ele>209.0</ele><time>2026-04-23T13:07:06.001Z</time></trkpt><trkpt lat="42.22590699063203" lon="13.926318370364369"><ele>208.6</ele><time>2026-04-23T13:07:08.001Z</time></trkpt><trkpt lat="42.225856685426756" lon="13.926411298093528"><ele>208.2</ele><time>2026-04-23T13:07:10.001Z</time></trkpt><trkpt lat="42.22583948638091" lon="13.92651974473583"><ele>207.79999999999998</ele><time>2026-04-23T13:07:12.001Z</time></trkpt><trkpt lat="42.225854198834895" lon="13.926642655158533"><ele>207.39999999999998</ele><time>2026-04-23T13:07:14.001Z</time></trkpt><trkpt lat="42.2259145697555" lon="13.926773125547635"><ele>207.0</ele><time>2026-04-23T13:07:16.001Z</time></trkpt><trkpt lat="42.22597125778372" lon="13.926919570267282"><ele>206.5</ele><time>2026-04-23T13:07:18.001Z</time></trkpt><trkpt lat="42.22598915222978" lon="13.927005545923786"><ele>206.0</ele><time>2026-04-23T13:07:19.001Z</time></trkpt><trkpt lat="42.22598178436752" lon="13.927099634023426"><ele>205.5</ele><time>2026-04-23T13:07:20Z</time></trkpt><trkpt lat="42.22597935743763" lon="13.92719868422151"><ele>205.0</ele><time>2026-04-23T13:07:21Z</time></trkpt><trkpt lat="42.22597679684126" lon="13.927303189678911"><ele>204.5</ele><time>2026-04-23T13:07:22Z</time></trkpt><trkpt lat="42.22598770995957" lon="13.9274099470153"><ele>204.0</ele><time>2026-04-23T13:07:23Z</time></trkpt><trkpt lat="42.22597154171138" lon="13.927524011158775"><ele>203.2</ele><time>2026-04-23T13:07:24Z</time></trkpt><trkpt lat="42.225965594850166" lon="13.927638320781513"><ele>202.39999999999998</ele><time>2026-04-23T13:07:25Z</time></trkpt><trkpt lat="42.22597011477625" lon="13.927748905315283"><ele>201.6</ele><time>2026-04-23T13:07:26Z</time></trkpt><trkpt lat="42.22597559095461" lon="13.92787477830036"><ele>200.8</ele><time>2026-04-23T13:07:27Z</time></trkpt><trkpt lat="42.225958940669074" lon="13.928011881428386"><ele>200.0</ele><time>2026-04-23T13:07:28Z</time></trkpt><trkpt lat="42.22595522124335" lon="13.92815843455948"><ele>200.0</ele><time>2026-04-23T13:07:29Z</time></trkpt><trkpt lat="42.225951549512516" lon="13.928319139780958"><ele>200.0</ele><time>2026-04-23T13:07:30Z</time></trkpt><trkpt lat="42.22594731901565" lon="13.928509275301442"><ele>200.0</ele><time>2026-04-23T13:07:31Z</time></trkpt><trkpt lat="42.22594255661649" lon="13.928723316644717"><ele>200.0</ele><time>2026-04-23T13:07:32Z</time></trkpt><trkpt lat="42.22593750154528" lon="13.92895051196139"><ele>200.0</ele><time>2026-04-23T13:07:33Z</time></trkpt><trkpt lat="42.225931661778866" lon="13.929212974535716"><ele>200.0</ele><time>2026-04-23T13:07:34Z</time></trkpt><trkpt lat="42.22592545400248" lon="13.929491975985393"><ele>200.0</ele><time>2026-04-23T13:07:35Z</time></trkpt><trkpt lat="42.22593783974596" lon="13.92978972405943"><ele>197.0</ele><time>2026-04-23T13:07:36Z</time></trkpt><trkpt lat="42.22593470539457" lon="13.930119013704008"><ele>194.0</ele><time>2026-04-23T13:07:37Z</time></trkpt><trkpt lat="42.225923115851536" lon="13.930487533070712"><ele>194.0</ele><time>2026-04-23T13:07:38Z</time></trkpt><trkpt lat="42.22591451976244" lon="13.930881371282053"><ele>194.0</ele><time>2026-04-23T13:07:39Z</time></trkpt><trkpt lat="42.22588320416078" lon="13.931303573751627"><ele>192.5</ele><time>2026-04-23T13:07:40Z</time></trkpt><trkpt lat="42.22587426756038" lon="13.93175071239739"><ele>191.0</ele><time>2026-04-23T13:07:41Z</time></trkpt><trkpt lat="42.22586532553191" lon="13.932217430584236"><ele>192.5</ele><time>2026-04-23T13:07:42Z</time></trkpt><trkpt lat="42.225854808511194" lon="13.93270432184224"><ele>194.0</ele><time>2026-04-23T13:07:43Z</time></trkpt><trkpt lat="42.22584482325596" lon="13.933168888190941"><ele>193.5</ele><time>2026-04-23T13:07:44Z</time></trkpt><trkpt lat="42.22585124182272" lon="13.9335867925509"><ele>193.0</ele><time>2026-04-23T13:07:45Z</time></trkpt><trkpt lat="42.22584283218443" lon="13.934018438538892"><ele>192.5</ele><time>2026-04-23T13:07:46Z</time></trkpt><trkpt lat="42.225834007513136" lon="13.934474355477844"><ele>192.0</ele><time>2026-04-23T13:07:47Z</time></trkpt><trkpt lat="42.225809201546646" lon="13.934942628164471"><ele>193.5</ele><time>2026-04-23T13:07:48Z</time></trkpt><trkpt lat="42.225798833580356" lon="13.935425528785444"><ele>195.0</ele><time>2026-04-23T13:07:49Z</time></trkpt><trkpt lat="42.22580362172668" lon="13.935870108299032"><ele>194.5</ele><time>2026-04-23T13:07:50Z</time></trkpt><trkpt lat="42.22579604480302" lon="13.936270248625995"><ele>194.0</ele><time>2026-04-23T13:07:51Z</time></trkpt><trkpt lat="42.22578772199503" lon="13.936655533770182"><ele>194.0</ele><time>2026-04-23T13:07:52Z</time></trkpt><trkpt lat="42.22577940917677" lon="13.937010717017051"><ele>194.0</ele><time>2026-04-23T13:07:53Z</time></trkpt><trkpt lat="42.22577195469152" lon="13.93737206140529"><ele>194.5</ele><time>2026-04-23T13:07:54Z</time></trkpt><trkpt lat="42.22576334598763" lon="13.937750965064915"><ele>195.0</ele><time>2026-04-23T13:07:55Z</time></trkpt><trkpt lat="42.22575266839712" lon="13.938135991895859"><ele>195.5</ele><time>2026-04-23T13:07:56Z</time></trkpt><trkpt lat="42.22574707802114" lon="13.938489784870121"><ele>196.0</ele><time>2026-04-23T13:07:57Z</time></trkpt><trkpt lat="42.22572696639201" lon="13.938824079424723"><ele>196.0</ele><time>2026-04-23T13:07:58Z</time></trkpt><trkpt lat="42.22572986719699" lon="13.939171181759136"><ele>196.0</ele><time>2026-04-23T13:07:59Z</time></trkpt><trkpt lat="42.22572061270483" lon="13.939501575913575"><ele>195.66666666666666</ele><time>2026-04-23T13:08:00Z</time></trkpt><trkpt lat="42.22571675721508" lon="13.939808303073132"><ele>195.33333333333331</ele><time>2026-04-23T13:08:01Z</time></trkpt><trkpt lat="42.225702472047466" lon="13.940091929153944"><ele>195.0</ele><time>2026-04-23T13:08:02Z</time></trkpt><trkpt lat="42.225700339743995" lon="13.94038597802395"><ele>194.66666666666669</ele><time>2026-04-23T13:08:03Z</time></trkpt><trkpt lat="42.22571306087809" lon="13.940677721551491"><ele>194.33333333333334</ele><time>2026-04-23T13:08:04Z</time></trkpt><trkpt lat="42.22575883968424" lon="13.94098007680166"><ele>194.0</ele><time>2026-04-23T13:08:05Z</time></trkpt><trkpt lat="42.225847260808436" lon="13.941322075054742"><ele>193.5</ele><time>2026-04-23T13:08:06Z</time></trkpt><trkpt lat="42.22596390177251" lon="13.941683214461474"><ele>193.0</ele><time>2026-04-23T13:08:07Z</time></trkpt><trkpt lat="42.22608112972104" lon="13.94207280051852"><ele>193.0</ele><time>2026-04-23T13:08:08Z</time></trkpt><trkpt lat="42.22619714335788" lon="13.942484168644608"><ele>193.0</ele><time>2026-04-23T13:08:09Z</time></trkpt><trkpt lat="42.226317703192635" lon="13.94291957396088"><ele>193.0</ele><time>2026-04-23T13:08:10Z</time></trkpt><trkpt lat="42.22645242491162" lon="13.943372851416"><ele>193.0</ele><time>2026-04-23T13:08:11Z</time></trkpt><trkpt lat="42.226584219402554" lon="13.94381646858457"><ele>194.5</ele><time>2026-04-23T13:08:12Z</time></trkpt><trkpt lat="42.22669612780365" lon="13.944204029321744"><ele>196.0</ele><time>2026-04-23T13:08:13Z</time></trkpt><trkpt lat="42.226797778935364" lon="13.944559370389669"><ele>197.0</ele><time>2026-04-23T13:08:14Z</time></trkpt><trkpt lat="42.22691180935929" lon="13.944945031887663"><ele>198.0</ele><time>2026-04-23T13:08:15Z</time></trkpt><trkpt lat="42.22703371401937" lon="13.9453595127893"><ele>198.0</ele><time>2026-04-23T13:08:16Z</time></trkpt><trkpt lat="42.2271542077527" lon="13.945774644385732"><ele>198.0</ele><time>2026-04-23T13:08:17Z</time></trkpt><trkpt lat="42.227259432652474" lon="13.94614031966191"><ele>199.5</ele><time>2026-04-23T13:08:18Z</time></trkpt><trkpt lat="42.22735661450315" lon="13.946482066686043"><ele>201.0</ele><time>2026-04-23T13:08:19Z</time></trkpt><trkpt lat="42.227449488725036" lon="13.94679968483642"><ele>202.0</ele><time>2026-04-23T13:08:20Z</time></trkpt><trkpt lat="42.22753251927735" lon="13.947090170536185"><ele>203.0</ele><time>2026-04-23T13:08:21Z</time></trkpt><trkpt lat="42.22760658777928" lon="13.947354928301554"><ele>204.0</ele><time>2026-04-23T13:08:22Z</time></trkpt><trkpt lat="42.227678071779465" lon="13.947602932980551"><ele>205.0</ele><time>2026-04-23T13:08:23Z</time></trkpt><trkpt lat="42.227742179353065" lon="13.947830838078893"><ele>206.0</ele><time>2026-04-23T13:08:24Z</time></trkpt><trkpt lat="42.227800057019984" lon="13.948025316281496"><ele>207.0</ele><time>2026-04-23T13:08:25Z</time></trkpt><trkpt lat="42.227872396601505" lon="13.948206769946266"><ele>207.0</ele><time>2026-04-23T13:08:26Z</time></trkpt><trkpt lat="42.227976123497875" lon="13.948371569369385"><ele>207.0</ele><time>2026-04-23T13:08:27Z</time></trkpt><trkpt lat="42.22811892265075" lon="13.948502444245042"><ele>207.0</ele><time>2026-04-23T13:08:28Z</time></trkpt><trkpt lat="42.22826371046463" lon="13.948607869147354"><ele>208.0</ele><time>2026-04-23T13:08:29Z</time></trkpt><trkpt lat="42.22838830157414" lon="13.948700505420577"><ele>209.0</ele><time>2026-04-23T13:08:30Z</time></trkpt><trkpt lat="42.22852525507541" lon="13.948815141323989"><ele>210.0</ele><time>2026-04-23T13:08:31Z</time></trkpt><trkpt lat="42.22868748089166" lon="13.948952593156218"><ele>210.0</ele><time>2026-04-23T13:08:32Z</time></trkpt><trkpt lat="42.228861531387196" lon="13.9491235684899"><ele>210.0</ele><time>2026-04-23T13:08:33Z</time></trkpt><trkpt lat="42.22905041618698" lon="13.949330892291023"><ele>215.0</ele><time>2026-04-23T13:08:34Z</time></trkpt><trkpt lat="42.22926320443201" lon="13.949550918232278"><ele>220.0</ele><time>2026-04-23T13:08:35Z</time></trkpt><trkpt lat="42.22948723304319" lon="13.94976546266163"><ele>220.0</ele><time>2026-04-23T13:08:36Z</time></trkpt><trkpt lat="42.22967548647967" lon="13.949933338670018"><ele>220.0</ele><time>2026-04-23T13:08:37Z</time></trkpt><trkpt lat="42.22985563097393" lon="13.950057084257777"><ele>220.0</ele><time>2026-04-23T13:08:38Z</time></trkpt><trkpt lat="42.23006168931316" lon="13.950134324766115"><ele>224.5</ele><time>2026-04-23T13:08:39Z</time></trkpt><trkpt lat="42.23031191514504" lon="13.95017354056804"><ele>229.0</ele><time>2026-04-23T13:08:40Z</time></trkpt><trkpt lat="42.23058711928301" lon="13.950195771198958"><ele>235.0</ele><time>2026-04-23T13:08:41Z</time></trkpt><trkpt lat="42.23084302982519" lon="13.950230125000877"><ele>241.0</ele><time>2026-04-23T13:08:42Z</time></trkpt><trkpt lat="42.231059718351375" lon="13.950277081476441"><ele>241.0</ele><time>2026-04-23T13:08:43Z</time></trkpt><trkpt lat="42.231284462447746" lon="13.950332717643834"><ele>241.0</ele><time>2026-04-23T13:08:44Z</time></trkpt><trkpt lat="42.23152205724571" lon="13.95041063287693"><ele>242.5</ele><time>2026-04-23T13:08:45Z</time></trkpt><trkpt lat="42.23176365714807" lon="13.95049554714186"><ele>244.0</ele><time>2026-04-23T13:08:46Z</time></trkpt><trkpt lat="42.23197709987626" lon="13.950555870154494"><ele>244.0</ele><time>2026-04-23T13:08:47Z</time></trkpt><trkpt lat="42.23218357927072" lon="13.950610904921927"><ele>244.0</ele><time>2026-04-23T13:08:48Z</time></trkpt><trkpt lat="42.23237374992682" lon="13.950666152217973"><ele>244.0</ele><time>2026-04-23T13:08:49Z</time></trkpt><trkpt lat="42.232548056557185" lon="13.95072072509279"><ele>244.33333333333331</ele><time>2026-04-23T13:08:50Z</time></trkpt><trkpt lat="42.23270804178165" lon="13.950771963805645"><ele>244.66666666666669</ele><time>2026-04-23T13:08:51Z</time></trkpt><trkpt lat="42.23286031749649" lon="13.950818860998718"><ele>245.0</ele><time>2026-04-23T13:08:51.999Z</time></trkpt><trkpt lat="42.233024792524446" lon="13.950879294194937"><ele>244.0</ele><time>2026-04-23T13:08:52.999Z</time></trkpt><trkpt lat="42.233215740025955" lon="13.950942224918048"><ele>243.0</ele><time>2026-04-23T13:08:53.999Z</time></trkpt><trkpt lat="42.233447443611" lon="13.95101802591443"><ele>242.0</ele><time>2026-04-23T13:08:54.999Z</time></trkpt><trkpt lat="42.23371084106864" lon="13.951104122022954"><ele>237.5</ele><time>2026-04-23T13:08:55.999Z</time></trkpt><trkpt lat="42.23398611825838" lon="13.951186659428256"><ele>233.0</ele><time>2026-04-23T13:08:56.999Z</time></trkpt><trkpt lat="42.23423560178855" lon="13.951264083865913"><ele>233.0</ele><time>2026-04-23T13:08:57.999Z</time></trkpt><trkpt lat="42.23446660927085" lon="13.951333631237517"><ele>233.0</ele><time>2026-04-23T13:08:58.999Z</time></trkpt><trkpt lat="42.23469158367256" lon="13.951403983869126"><ele>231.0</ele><time>2026-04-23T13:08:59.999Z</time></trkpt><trkpt lat="42.23490774307081" lon="13.951475805416237"><ele>229.0</ele><time>2026-04-23T13:09:00.999Z</time></trkpt><trkpt lat="42.23510301932933" lon="13.951536132242428"><ele>227.0</ele><time>2026-04-23T13:09:01.999Z</time></trkpt><trkpt lat="42.23528076546955" lon="13.95159185942345"><ele>227.0</ele><time>2026-04-23T13:09:03.001Z</time></trkpt><trkpt lat="42.235456403313705" lon="13.951660827900767"><ele>227.0</ele><time>2026-04-23T13:09:04.001Z</time></trkpt><trkpt lat="42.23561286385114" lon="13.951750256557109"><ele>227.0</ele><time>2026-04-23T13:09:05.001Z</time></trkpt><trkpt lat="42.23577045622835" lon="13.95189098633281"><ele>225.66666666666669</ele><time>2026-04-23T13:09:06.001Z</time></trkpt><trkpt lat="42.235923373506594" lon="13.952096449676082"><ele>224.33333333333331</ele><time>2026-04-23T13:09:07.001Z</time></trkpt><trkpt lat="42.23606673363849" lon="13.952323728987112"><ele>223.0</ele><time>2026-04-23T13:09:08.001Z</time></trkpt><trkpt lat="42.23619663342599" lon="13.95251914648817"><ele>224.66666666666666</ele><time>2026-04-23T13:09:09.001Z</time></trkpt><trkpt lat="42.236336722695135" lon="13.952675765122667"><ele>226.33333333333331</ele><time>2026-04-23T13:09:10.001Z</time></trkpt><trkpt lat="42.236489298308854" lon="13.952780379297883"><ele>228.0</ele><time>2026-04-23T13:09:11.001Z</time></trkpt><trkpt lat="42.236680136202615" lon="13.952842589295656"><ele>228.0</ele><time>2026-04-23T13:09:12.001Z</time></trkpt><trkpt lat="42.23690371002347" lon="13.952888375820693"><ele>228.0</ele><time>2026-04-23T13:09:13.001Z</time></trkpt><trkpt lat="42.23714362775276" lon="13.952945613137581"><ele>222.5</ele><time>2026-04-23T13:09:14.001Z</time></trkpt><trkpt lat="42.23738790394175" lon="13.953019226824667"><ele>217.0</ele><time>2026-04-23T13:09:15.001Z</time></trkpt><trkpt lat="42.237608589256865" lon="13.953089082069155"><ele>217.0</ele><time>2026-04-23T13:09:16.001Z</time></trkpt><trkpt lat="42.237813018660006" lon="13.95315684167371"><ele>217.0</ele><time>2026-04-23T13:09:17.001Z</time></trkpt><trkpt lat="42.23800882974325" lon="13.953222638538177"><ele>217.0</ele><time>2026-04-23T13:09:18.001Z</time></trkpt><trkpt lat="42.238193228570005" lon="13.95328295964486"><ele>217.33333333333331</ele><time>2026-04-23T13:09:19.001Z</time></trkpt><trkpt lat="42.23836407093674" lon="13.95333898231827"><ele>217.66666666666669</ele><time>2026-04-23T13:09:20.001Z</time></trkpt><trkpt lat="42.238528725921164" lon="13.95338084912444"><ele>218.0</ele><time>2026-04-23T13:09:21.001Z</time></trkpt><trkpt lat="42.238692630142175" lon="13.953382579532004"><ele>218.0</ele><time>2026-04-23T13:09:22Z</time></trkpt><trkpt lat="42.23885517645611" lon="13.95334291833974"><ele>218.0</ele><time>2026-04-23T13:09:23Z</time></trkpt><trkpt lat="42.23900686944622" lon="13.953260386433781"><ele>218.0</ele><time>2026-04-23T13:09:24Z</time></trkpt><trkpt lat="42.23914185063705" lon="13.95314226041259"><ele>217.0</ele><time>2026-04-23T13:09:25Z</time></trkpt><trkpt lat="42.23925847876524" lon="13.952979084128943"><ele>216.0</ele><time>2026-04-23T13:09:26Z</time></trkpt><trkpt lat="42.239334324500696" lon="13.952745839405832"><ele>215.0</ele><time>2026-04-23T13:09:27Z</time></trkpt><trkpt lat="42.23939233634605" lon="13.952545275822493"><ele>213.0</ele><time>2026-04-23T13:09:28Z</time></trkpt><trkpt lat="42.239430955273995" lon="13.952307957439976"><ele>211.0</ele><time>2026-04-23T13:09:29Z</time></trkpt><trkpt lat="42.23945778286302" lon="13.95204160587419"><ele>209.0</ele><time>2026-04-23T13:09:30Z</time></trkpt><trkpt lat="42.23947944986368" lon="13.95177093152526"><ele>207.25</ele><time>2026-04-23T13:09:31Z</time></trkpt><trkpt lat="42.239506781859866" lon="13.951527524826373"><ele>205.5</ele><time>2026-04-23T13:09:32Z</time></trkpt><trkpt lat="42.23953355365184" lon="13.951331230932674"><ele>203.75</ele><time>2026-04-23T13:09:33Z</time></trkpt><trkpt lat="42.23955991452058" lon="13.95118125162598"><ele>202.0</ele><time>2026-04-23T13:09:34Z</time></trkpt><trkpt lat="42.239614959081024" lon="13.951042571894108"><ele>202.0</ele><time>2026-04-23T13:09:35Z</time></trkpt><trkpt lat="42.23970809312244" lon="13.950919349578422"><ele>202.0</ele><time>2026-04-23T13:09:36Z</time></trkpt><trkpt lat="42.23985118988696" lon="13.950827462280753"><ele>202.0</ele><time>2026-04-23T13:09:37Z</time></trkpt><trkpt lat="42.24002166381817" lon="13.9507561649499"><ele>200.0</ele><time>2026-04-23T13:09:38Z</time></trkpt><trkpt lat="42.24020519796198" lon="13.950708418994074"><ele>198.0</ele><time>2026-04-23T13:09:39Z</time></trkpt><trkpt lat="42.24039665712841" lon="13.950701052892791"><ele>196.0</ele><time>2026-04-23T13:09:40Z</time></trkpt><trkpt lat="42.240593889164025" lon="13.95075296639983"><ele>195.33333333333331</ele><time>2026-04-23T13:09:41Z</time></trkpt><trkpt lat="42.24080032139678" lon="13.95081092859129"><ele>194.66666666666669</ele><time>2026-04-23T13:09:42Z</time></trkpt><trkpt lat="42.24102169257001" lon="13.950883928210049"><ele>194.0</ele><time>2026-04-23T13:09:43Z</time></trkpt><trkpt lat="42.24126974196564" lon="13.950956054024365"><ele>193.0</ele><time>2026-04-23T13:09:44Z</time></trkpt><trkpt lat="42.24151712402643" lon="13.951042098871875"><ele>192.0</ele><time>2026-04-23T13:09:45Z</time></trkpt><trkpt lat="42.24176240898944" lon="13.951113570863637"><ele>192.0</ele><time>2026-04-23T13:09:46Z</time></trkpt><trkpt lat="42.24198323698477" lon="13.951182135393028"><ele>192.0</ele><time>2026-04-23T13:09:47Z</time></trkpt><trkpt lat="42.242188695975486" lon="13.951230868023195"><ele>192.0</ele><time>2026-04-23T13:09:48Z</time></trkpt><trkpt lat="42.242389290723665" lon="13.951254197521186"><ele>189.66666666666666</ele><time>2026-04-23T13:09:49Z</time></trkpt><trkpt lat="42.24258179178252" lon="13.951245876354113"><ele>187.33333333333331</ele><time>2026-04-23T13:09:50Z</time></trkpt><trkpt lat="42.24277686462537" lon="13.95119521353537"><ele>185.0</ele><time>2026-04-23T13:09:51Z</time></trkpt><trkpt lat="42.242986714201194" lon="13.951099375725406"><ele>184.0</ele><time>2026-04-23T13:09:52Z</time></trkpt><trkpt lat="42.24320820152195" lon="13.950982604691665"><ele>183.0</ele><time>2026-04-23T13:09:53Z</time></trkpt><trkpt lat="42.24341985094363" lon="13.950874675887002"><ele>179.33333333333334</ele><time>2026-04-23T13:09:54Z</time></trkpt><trkpt lat="42.24361748770679" lon="13.950779490143436"><ele>175.66666666666669</ele><time>2026-04-23T13:09:55Z</time></trkpt><trkpt lat="42.243810487098365" lon="13.95070234977631"><ele>172.0</ele><time>2026-04-23T13:09:56Z</time></trkpt><trkpt lat="42.24400286626689" lon="13.950642751013781"><ele>170.66666666666669</ele><time>2026-04-23T13:09:57Z</time></trkpt><trkpt lat="42.244198657545816" lon="13.950629380657508"><ele>169.33333333333334</ele><time>2026-04-23T13:09:58Z</time></trkpt><trkpt lat="42.24440501488771" lon="13.950630454069364"><ele>168.0</ele><time>2026-04-23T13:09:59Z</time></trkpt><trkpt lat="42.244614266848664" lon="13.950619861794655"><ele>165.66666666666666</ele><time>2026-04-23T13:10:00Z</time></trkpt><trkpt lat="42.244802707254635" lon="13.950623056027046"><ele>163.33333333333331</ele><time>2026-04-23T13:10:01Z</time></trkpt><trkpt lat="42.2449657132959" lon="13.950625216475027"><ele>161.0</ele><time>2026-04-23T13:10:02Z</time></trkpt><trkpt lat="42.2451309259841" lon="13.950651308646096"><ele>161.0</ele><time>2026-04-23T13:10:03Z</time></trkpt><trkpt lat="42.24529674378279" lon="13.950752312738782"><ele>161.0</ele><time>2026-04-23T13:10:04Z</time></trkpt><trkpt lat="42.24547316620834" lon="13.950846518929106"><ele>161.0</ele><time>2026-04-23T13:10:05Z</time></trkpt><trkpt lat="42.24563700265416" lon="13.950934004347873"><ele>158.66666666666666</ele><time>2026-04-23T13:10:06Z</time></trkpt><trkpt lat="42.24578170758238" lon="13.951020047155668"><ele>156.33333333333334</ele><time>2026-04-23T13:10:07Z</time></trkpt><trkpt lat="42.24591313116843" lon="13.95113022238721"><ele>154.0</ele><time>2026-04-23T13:10:08Z</time></trkpt><trkpt lat="42.2460344891537" lon="13.951299331279031"><ele>154.0</ele><time>2026-04-23T13:10:09Z</time></trkpt><trkpt lat="42.24616570816433" lon="13.951486214796168"><ele>154.0</ele><time>2026-04-23T13:10:10Z</time></trkpt><trkpt lat="42.24629018077648" lon="13.9516524277052"><ele>154.0</ele><time>2026-04-23T13:10:11Z</time></trkpt><trkpt lat="42.246400929995346" lon="13.951806868766438"><ele>151.75</ele><time>2026-04-23T13:10:12Z</time></trkpt><trkpt lat="42.246499540753675" lon="13.951937466995536"><ele>149.5</ele><time>2026-04-23T13:10:13Z</time></trkpt><trkpt lat="42.24660647802409" lon="13.952047536238368"><ele>147.25</ele><time>2026-04-23T13:10:14Z</time></trkpt><trkpt lat="42.24673953074058" lon="13.95211745506274"><ele>145.0</ele><time>2026-04-23T13:10:15Z</time></trkpt><trkpt lat="42.246906266801055" lon="13.952138960774715"><ele>145.0</ele><time>2026-04-23T13:10:16Z</time></trkpt><trkpt lat="42.24709016582262" lon="13.952115914738831"><ele>145.0</ele><time>2026-04-23T13:10:17Z</time></trkpt><trkpt lat="42.24728761644107" lon="13.952075665408584"><ele>145.0</ele><time>2026-04-23T13:10:18Z</time></trkpt><trkpt lat="42.24749187398891" lon="13.952038859377682"><ele>143.33333333333334</ele><time>2026-04-23T13:10:19Z</time></trkpt><trkpt lat="42.2476970989644" lon="13.952020063435082"><ele>141.66666666666666</ele><time>2026-04-23T13:10:20Z</time></trkpt><trkpt lat="42.247901424441814" lon="13.952003157270196"><ele>140.0</ele><time>2026-04-23T13:10:21Z</time></trkpt><trkpt lat="42.24809485606493" lon="13.951984228950767"><ele>139.33333333333331</ele><time>2026-04-23T13:10:22Z</time></trkpt><trkpt lat="42.24827800203774" lon="13.95196656118376"><ele>138.66666666666666</ele><time>2026-04-23T13:10:23Z</time></trkpt><trkpt lat="42.24846115975229" lon="13.951945176368355"><ele>138.0</ele><time>2026-04-23T13:10:24Z</time></trkpt><trkpt lat="42.248650319507476" lon="13.95192307190301"><ele>138.0</ele><time>2026-04-23T13:10:25Z</time></trkpt><trkpt lat="42.24883897457439" lon="13.951901835288659"><ele>138.0</ele><time>2026-04-23T13:10:26Z</time></trkpt><trkpt lat="42.24902548996789" lon="13.951881797028978"><ele>138.0</ele><time>2026-04-23T13:10:27Z</time></trkpt><trkpt lat="42.249203504926946" lon="13.951865453565091"><ele>139.0</ele><time>2026-04-23T13:10:28Z</time></trkpt><trkpt lat="42.2493807674784" lon="13.951848975535235"><ele>140.0</ele><time>2026-04-23T13:10:29Z</time></trkpt><trkpt lat="42.249550686126554" lon="13.951836375162836"><ele>141.0</ele><time>2026-04-23T13:10:30Z</time></trkpt><trkpt lat="42.249709281462515" lon="13.951822828003634"><ele>140.0</ele><time>2026-04-23T13:10:31Z</time></trkpt><trkpt lat="42.2498656915836" lon="13.951805315902423"><ele>139.0</ele><time>2026-04-23T13:10:32Z</time></trkpt><trkpt lat="42.2500216241896" lon="13.95179124645883"><ele>138.0</ele><time>2026-04-23T13:10:33Z</time></trkpt><trkpt lat="42.25017512140947" lon="13.951773185163411"><ele>138.0</ele><time>2026-04-23T13:10:34Z</time></trkpt><trkpt lat="42.25033341616581" lon="13.951756258069176"><ele>138.0</ele><time>2026-04-23T13:10:35Z</time></trkpt><trkpt lat="42.25049603567224" lon="13.951739581652335"><ele>138.0</ele><time>2026-04-23T13:10:36Z</time></trkpt><trkpt lat="42.250655534606814" lon="13.951723591353385"><ele>137.75</ele><time>2026-04-23T13:10:37Z</time></trkpt><trkpt lat="42.25080008416205" lon="13.951703838147047"><ele>137.5</ele><time>2026-04-23T13:10:38Z</time></trkpt><trkpt lat="42.250935193351246" lon="13.951688685998896"><ele>137.25</ele><time>2026-04-23T13:10:39Z</time></trkpt><trkpt lat="42.25107120374621" lon="13.951675251265874"><ele>137.0</ele><time>2026-04-23T13:10:40Z</time></trkpt><trkpt lat="42.25120109843395" lon="13.951665019704663"><ele>137.0</ele><time>2026-04-23T13:10:41Z</time></trkpt><trkpt lat="42.251320964491654" lon="13.951693937416549"><ele>137.0</ele><time>2026-04-23T13:10:42Z</time></trkpt><trkpt lat="42.25143837155334" lon="13.951698346113684"><ele>137.0</ele><time>2026-04-23T13:10:43Z</time></trkpt><trkpt lat="42.25152626776822" lon="13.951725341353828"><ele>137.0</ele><time>2026-04-23T13:10:44Z</time></trkpt><trkpt lat="42.251596754052" lon="13.951745108639264"><ele>137.0</ele><time>2026-04-23T13:10:45Z</time></trkpt><trkpt lat="42.25171143668541" lon="13.951763988561597"><ele>136.0</ele><time>2026-04-23T13:10:47Z</time></trkpt><trkpt lat="42.25183153885325" lon="13.951804340373435"><ele>135.0</ele><time>2026-04-23T13:10:49Z</time></trkpt><trkpt lat="42.25192840688522" lon="13.951824985812575"><ele>134.0</ele><time>2026-04-23T13:10:51Z</time></trkpt><trkpt lat="42.25201612446728" lon="13.951810624888376"><ele>133.0</ele><time>2026-04-23T13:10:53.999Z</time></trkpt><trkpt lat="42.252088288245695" lon="13.951858341400948"><ele>132.0</ele><time>2026-04-23T13:11:16.001Z</time></trkpt><trkpt lat="42.25215276582661" lon="13.951871666298704"><ele>132.0</ele><time>2026-04-23T13:11:17.001Z</time></trkpt><trkpt lat="42.25224602683838" lon="13.951853233565513"><ele>132.0</ele><time>2026-04-23T13:11:18.001Z</time></trkpt><trkpt lat="42.25235236973602" lon="13.951861669148897"><ele>132.0</ele><time>2026-04-23T13:11:19.001Z</time></trkpt><trkpt lat="42.252499743666014" lon="13.951874913168295"><ele>132.0</ele><time>2026-04-23T13:11:20.001Z</time></trkpt><trkpt lat="42.252683324133315" lon="13.951929169216033"><ele>131.66666666666666</ele><time>2026-04-23T13:11:21.001Z</time></trkpt><trkpt lat="42.252900867189" lon="13.951975195786389"><ele>131.33333333333331</ele><time>2026-04-23T13:11:22.001Z</time></trkpt><trkpt lat="42.25310342021306" lon="13.952067064547236"><ele>131.0</ele><time>2026-04-23T13:11:23.001Z</time></trkpt><trkpt lat="42.25325043976946" lon="13.95209668061296"><ele>131.0</ele><time>2026-04-23T13:11:24.001Z</time></trkpt><trkpt lat="42.25338069726856" lon="13.95211023428919"><ele>131.0</ele><time>2026-04-23T13:11:25Z</time></trkpt><trkpt lat="42.2535150199596" lon="13.952089719218884"><ele>131.0</ele><time>2026-04-23T13:11:26Z</time></trkpt><trkpt lat="42.25367481011857" lon="13.952033672148803"><ele>131.0</ele><time>2026-04-23T13:11:27Z</time></trkpt><trkpt lat="42.253855329070085" lon="13.951921163091354"><ele>132.66666666666666</ele><time>2026-04-23T13:11:28Z</time></trkpt><trkpt lat="42.254044068180534" lon="13.95182378359856"><ele>134.33333333333334</ele><time>2026-04-23T13:11:29Z</time></trkpt><trkpt lat="42.25424339398936" lon="13.951764041001935"><ele>136.0</ele><time>2026-04-23T13:11:30Z</time></trkpt><trkpt lat="42.254461187773785" lon="13.951705303859523"><ele>136.0</ele><time>2026-04-23T13:11:31Z</time></trkpt><trkpt lat="42.25469259249384" lon="13.951641660634465"><ele>136.0</ele><time>2026-04-23T13:11:32Z</time></trkpt><trkpt lat="42.25494312433658" lon="13.951559734990479"><ele>138.5</ele><time>2026-04-23T13:11:33Z</time></trkpt><trkpt lat="42.255208101702074" lon="13.95148739932557"><ele>141.0</ele><time>2026-04-23T13:11:34Z</time></trkpt><trkpt lat="42.255469913280095" lon="13.951423463106403"><ele>142.0</ele><time>2026-04-23T13:11:35Z</time></trkpt><trkpt lat="42.25570772720082" lon="13.951358938292227"><ele>143.0</ele><time>2026-04-23T13:11:36Z</time></trkpt><trkpt lat="42.255917758237786" lon="13.951285598466264"><ele>143.0</ele><time>2026-04-23T13:11:37Z</time></trkpt><trkpt lat="42.25612399280737" lon="13.951222864362116"><ele>143.0</ele><time>2026-04-23T13:11:38Z</time></trkpt><trkpt lat="42.256317676071596" lon="13.9511628716428"><ele>143.0</ele><time>2026-04-23T13:11:39Z</time></trkpt><trkpt lat="42.25650753862065" lon="13.951127946728347"><ele>143.33333333333331</ele><time>2026-04-23T13:11:40Z</time></trkpt><trkpt lat="42.256706415143654" lon="13.95111555040732"><ele>143.66666666666666</ele><time>2026-04-23T13:11:41Z</time></trkpt><trkpt lat="42.25692276276035" lon="13.9511266659344"><ele>144.0</ele><time>2026-04-23T13:11:42Z</time></trkpt><trkpt lat="42.257146475611115" lon="13.95113984028085"><ele>143.66666666666666</ele><time>2026-04-23T13:11:43Z</time></trkpt><trkpt lat="42.25737394819051" lon="13.951143791830438"><ele>143.33333333333331</ele><time>2026-04-23T13:11:44Z</time></trkpt><trkpt lat="42.257587291217966" lon="13.951150349175773"><ele>143.0</ele><time>2026-04-23T13:11:45Z</time></trkpt><trkpt lat="42.2577955590128" lon="13.951165014555139"><ele>143.0</ele><time>2026-04-23T13:11:46Z</time></trkpt><trkpt lat="42.25801096934847" lon="13.951196234461678"><ele>143.0</ele><time>2026-04-23T13:11:47Z</time></trkpt><trkpt lat="42.258227773321515" lon="13.951245038349583"><ele>143.0</ele><time>2026-04-23T13:11:48Z</time></trkpt><trkpt lat="42.2584488007494" lon="13.951316745479149"><ele>144.0</ele><time>2026-04-23T13:11:49Z</time></trkpt><trkpt lat="42.25867166107929" lon="13.951402821753458"><ele>145.0</ele><time>2026-04-23T13:11:50Z</time></trkpt><trkpt lat="42.25888795496519" lon="13.95150870583962"><ele>146.5</ele><time>2026-04-23T13:11:51Z</time></trkpt><trkpt lat="42.25909348923609" lon="13.951635937853451"><ele>148.0</ele><time>2026-04-23T13:11:52Z</time></trkpt><trkpt lat="42.25929335465324" lon="13.951779072625774"><ele>148.0</ele><time>2026-04-23T13:11:53Z</time></trkpt><trkpt lat="42.25948147421429" lon="13.95194374493783"><ele>148.0</ele><time>2026-04-23T13:11:54Z</time></trkpt><trkpt lat="42.25966316207153" lon="13.952132951766886"><ele>147.5</ele><time>2026-04-23T13:11:55Z</time></trkpt><trkpt lat="42.25984026048546" lon="13.952346417092748"><ele>147.0</ele><time>2026-04-23T13:11:56Z</time></trkpt><trkpt lat="42.25999527014597" lon="13.952554128734713"><ele>147.0</ele><time>2026-04-23T13:11:57Z</time></trkpt><trkpt lat="42.26013553802581" lon="13.952767644692614"><ele>147.0</ele><time>2026-04-23T13:11:58Z</time></trkpt><trkpt lat="42.26026535611228" lon="13.952993926983275"><ele>147.0</ele><time>2026-04-23T13:11:59Z</time></trkpt><trkpt lat="42.260383953964464" lon="13.95322652355325"><ele>149.0</ele><time>2026-04-23T13:12:00Z</time></trkpt><trkpt lat="42.26048597858747" lon="13.953458093753854"><ele>151.0</ele><time>2026-04-23T13:12:01Z</time></trkpt><trkpt lat="42.26057415752405" lon="13.953700064064874"><ele>153.0</ele><time>2026-04-23T13:12:02Z</time></trkpt><trkpt lat="42.26063952206369" lon="13.953982680521223"><ele>145.5</ele><time>2026-04-23T13:12:03Z</time></trkpt><trkpt lat="42.26073106650696" lon="13.954288580401562"><ele>138.0</ele><time>2026-04-23T13:12:04Z</time></trkpt><trkpt lat="42.26080700058647" lon="13.954630913705797"><ele>138.0</ele><time>2026-04-23T13:12:05Z</time></trkpt><trkpt lat="42.260875726144484" lon="13.95499245389143"><ele>138.0</ele><time>2026-04-23T13:12:06Z</time></trkpt><trkpt lat="42.26095785090705" lon="13.955306855582348"><ele>138.0</ele><time>2026-04-23T13:12:07Z</time></trkpt><trkpt lat="42.261026408498566" lon="13.955626512517227"><ele>138.0</ele><time>2026-04-23T13:12:08Z</time></trkpt><trkpt lat="42.2610836869147" lon="13.95592572345897"><ele>138.66666666666666</ele><time>2026-04-23T13:12:09Z</time></trkpt><trkpt lat="42.26114377685826" lon="13.956202474695871"><ele>139.33333333333331</ele><time>2026-04-23T13:12:10Z</time></trkpt><trkpt lat="42.26119915671451" lon="13.956467770479376"><ele>140.0</ele><time>2026-04-23T13:12:11Z</time></trkpt><trkpt lat="42.261263638647485" lon="13.95676481633596"><ele>138.0</ele><time>2026-04-23T13:12:12Z</time></trkpt><trkpt lat="42.26136417274059" lon="13.95708214022982"><ele>136.0</ele><time>2026-04-23T13:12:13Z</time></trkpt><trkpt lat="42.26149455322752" lon="13.957425151394865"><ele>138.5</ele><time>2026-04-23T13:12:14Z</time></trkpt><trkpt lat="42.26163918483778" lon="13.957783193827733"><ele>141.0</ele><time>2026-04-23T13:12:15Z</time></trkpt><trkpt lat="42.261761163653794" lon="13.958100585647525"><ele>143.0</ele><time>2026-04-23T13:12:16Z</time></trkpt><trkpt lat="42.26186555985766" lon="13.95838283384981"><ele>145.0</ele><time>2026-04-23T13:12:17Z</time></trkpt><trkpt lat="42.26196032260017" lon="13.958645903656816"><ele>145.0</ele><time>2026-04-23T13:12:18Z</time></trkpt><trkpt lat="42.26204970079297" lon="13.958913892763597"><ele>145.0</ele><time>2026-04-23T13:12:19Z</time></trkpt><trkpt lat="42.2621214071676" lon="13.95921364654113"><ele>146.0</ele><time>2026-04-23T13:12:20Z</time></trkpt><trkpt lat="42.26217640944251" lon="13.959561018575581"><ele>147.0</ele><time>2026-04-23T13:12:21Z</time></trkpt><trkpt lat="42.262216555255726" lon="13.959954087465565"><ele>149.0</ele><time>2026-04-23T13:12:22Z</time></trkpt><trkpt lat="42.262264726991674" lon="13.960377690803075"><ele>151.0</ele><time>2026-04-23T13:12:23Z</time></trkpt><trkpt lat="42.262326358447325" lon="13.9608205744774"><ele>143.0</ele><time>2026-04-23T13:12:24Z</time></trkpt><trkpt lat="42.26238662594987" lon="13.961233495026033"><ele>135.0</ele><time>2026-04-23T13:12:25Z</time></trkpt><trkpt lat="42.262427782894875" lon="13.961575513875966"><ele>135.5</ele><time>2026-04-23T13:12:26Z</time></trkpt><trkpt lat="42.262464573495556" lon="13.961882447103108"><ele>136.0</ele><time>2026-04-23T13:12:27Z</time></trkpt><trkpt lat="42.26250462764665" lon="13.96217936872335"><ele>136.0</ele><time>2026-04-23T13:12:28Z</time></trkpt><trkpt lat="42.26254283962062" lon="13.962455817327617"><ele>136.0</ele><time>2026-04-23T13:12:29Z</time></trkpt><trkpt lat="42.26259287460406" lon="13.962714793138037"><ele>136.0</ele><time>2026-04-23T13:12:30Z</time></trkpt><trkpt lat="42.26267212242625" lon="13.962961018984846"><ele>137.5</ele><time>2026-04-23T13:12:31Z</time></trkpt><trkpt lat="42.26278953100318" lon="13.963217758504355"><ele>139.0</ele><time>2026-04-23T13:12:32Z</time></trkpt><trkpt lat="42.26294547405433" lon="13.963468696514836"><ele>137.5</ele><time>2026-04-23T13:12:33Z</time></trkpt><trkpt lat="42.26314347234812" lon="13.963717726164717"><ele>136.0</ele><time>2026-04-23T13:12:34Z</time></trkpt><trkpt lat="42.26335851553145" lon="13.963992170083202"><ele>140.5</ele><time>2026-04-23T13:12:35Z</time></trkpt><trkpt lat="42.2635725431335" lon="13.964292864170394"><ele>145.0</ele><time>2026-04-23T13:12:36Z</time></trkpt><trkpt lat="42.263783445755315" lon="13.96459595570879"><ele>144.0</ele><time>2026-04-23T13:12:37Z</time></trkpt><trkpt lat="42.2639700662388" lon="13.964853640614312"><ele>143.0</ele><time>2026-04-23T13:12:38Z</time></trkpt><trkpt lat="42.264137231274134" lon="13.965067050419634"><ele>143.0</ele><time>2026-04-23T13:12:39Z</time></trkpt><trkpt lat="42.26428333928852" lon="13.965270010294956"><ele>143.0</ele><time>2026-04-23T13:12:40Z</time></trkpt><trkpt lat="42.26441723401445" lon="13.965456674869573"><ele>143.0</ele><time>2026-04-23T13:12:41Z</time></trkpt><trkpt lat="42.26454017497322" lon="13.965665411233104"><ele>144.0</ele><time>2026-04-23T13:12:42Z</time></trkpt><trkpt lat="42.26464547324613" lon="13.965908262294988"><ele>145.0</ele><time>2026-04-23T13:12:43Z</time></trkpt><trkpt lat="42.26472746925544" lon="13.966207032083657"><ele>146.0</ele><time>2026-04-23T13:12:44Z</time></trkpt><trkpt lat="42.26480319179883" lon="13.966547194405056"><ele>141.0</ele><time>2026-04-23T13:12:45Z</time></trkpt><trkpt lat="42.26489188352283" lon="13.96692684633892"><ele>136.0</ele><time>2026-04-23T13:12:46Z</time></trkpt><trkpt lat="42.26499646949252" lon="13.967330859465575"><ele>138.5</ele><time>2026-04-23T13:12:47Z</time></trkpt><trkpt lat="42.26510122376946" lon="13.967749163185534"><ele>141.0</ele><time>2026-04-23T13:12:48Z</time></trkpt><trkpt lat="42.265213634569925" lon="13.968168849704554"><ele>144.5</ele><time>2026-04-23T13:12:49Z</time></trkpt><trkpt lat="42.265305750157566" lon="13.968534876375507"><ele>148.0</ele><time>2026-04-23T13:12:50Z</time></trkpt><trkpt lat="42.265395881202245" lon="13.968865961792385"><ele>148.0</ele><time>2026-04-23T13:12:51Z</time></trkpt><trkpt lat="42.265488238773735" lon="13.969175488097722"><ele>148.0</ele><time>2026-04-23T13:12:51.999Z</time></trkpt><trkpt lat="42.265564408432965" lon="13.969463164067259"><ele>146.66666666666669</ele><time>2026-04-23T13:12:52.999Z</time></trkpt><trkpt lat="42.26563587579483" lon="13.969729186304644"><ele>145.33333333333334</ele><time>2026-04-23T13:12:53.999Z</time></trkpt><trkpt lat="42.26570686933975" lon="13.96998447902423"><ele>144.0</ele><time>2026-04-23T13:12:54.999Z</time></trkpt><trkpt lat="42.26577434195446" lon="13.970229104413145"><ele>144.0</ele><time>2026-04-23T13:12:55.999Z</time></trkpt><trkpt lat="42.26582764491306" lon="13.970471781995819"><ele>144.0</ele><time>2026-04-23T13:12:56.999Z</time></trkpt><trkpt lat="42.265858774822476" lon="13.97070424102107"><ele>144.0</ele><time>2026-04-23T13:12:57.999Z</time></trkpt><trkpt lat="42.2658670211966" lon="13.970947526793825"><ele>143.66666666666666</ele><time>2026-04-23T13:12:58.999Z</time></trkpt><trkpt lat="42.26584920516828" lon="13.971225800167353"><ele>143.33333333333331</ele><time>2026-04-23T13:12:59.999Z</time></trkpt><trkpt lat="42.26581698729079" lon="13.971542027016024"><ele>143.0</ele><time>2026-04-23T13:13:00.999Z</time></trkpt><trkpt lat="42.265784930818576" lon="13.971891615054952"><ele>142.0</ele><time>2026-04-23T13:13:01.999Z</time></trkpt><trkpt lat="42.26574970628714" lon="13.972238657378416"><ele>141.0</ele><time>2026-04-23T13:13:02.999Z</time></trkpt><trkpt lat="42.26572935249937" lon="13.972541788011423"><ele>141.0</ele><time>2026-04-23T13:13:03.999Z</time></trkpt><trkpt lat="42.26570644032129" lon="13.972822757915113"><ele>141.0</ele><time>2026-04-23T13:13:04.999Z</time></trkpt><trkpt lat="42.265687477088186" lon="13.973077676142207"><ele>141.0</ele><time>2026-04-23T13:13:05.999Z</time></trkpt><trkpt lat="42.26568627450156" lon="13.973317101777244"><ele>142.0</ele><time>2026-04-23T13:13:06.999Z</time></trkpt><trkpt lat="42.26572136602977" lon="13.973569815626698"><ele>143.0</ele><time>2026-04-23T13:13:07.999Z</time></trkpt><trkpt lat="42.26579951378299" lon="13.973849099386486"><ele>144.0</ele><time>2026-04-23T13:13:08.999Z</time></trkpt><trkpt lat="42.26591817372902" lon="13.974149359084288"><ele>148.5</ele><time>2026-04-23T13:13:09.999Z</time></trkpt><trkpt lat="42.2660503846042" lon="13.974469182129715"><ele>153.0</ele><time>2026-04-23T13:13:10.999Z</time></trkpt><trkpt lat="42.26617607703705" lon="13.97477657969201"><ele>155.0</ele><time>2026-04-23T13:13:11.999Z</time></trkpt><trkpt lat="42.26627569377313" lon="13.97504051649886"><ele>157.0</ele><time>2026-04-23T13:13:12.999Z</time></trkpt><trkpt lat="42.26636733388658" lon="13.97527201880163"><ele>159.0</ele><time>2026-04-23T13:13:13.999Z</time></trkpt><trkpt lat="42.266430785180695" lon="13.975495380626521"><ele>157.0</ele><time>2026-04-23T13:13:15Z</time></trkpt><trkpt lat="42.26649619445192" lon="13.97569973954281"><ele>155.0</ele><time>2026-04-23T13:13:16Z</time></trkpt><trkpt lat="42.2665323956936" lon="13.97591735524333"><ele>153.0</ele><time>2026-04-23T13:13:17Z</time></trkpt><trkpt lat="42.26654000977409" lon="13.976162987464091"><ele>153.0</ele><time>2026-04-23T13:13:18Z</time></trkpt><trkpt lat="42.266542667602586" lon="13.976451973176525"><ele>153.0</ele><time>2026-04-23T13:13:19Z</time></trkpt><trkpt lat="42.266562489290806" lon="13.9767614252088"><ele>153.0</ele><time>2026-04-23T13:13:20Z</time></trkpt><trkpt lat="42.26656715419094" lon="13.977085273609873"><ele>154.5</ele><time>2026-04-23T13:13:21Z</time></trkpt><trkpt lat="42.26656239417367" lon="13.977426688740955"><ele>156.0</ele><time>2026-04-23T13:13:22Z</time></trkpt><trkpt lat="42.266578268019245" lon="13.977768705935611"><ele>156.0</ele><time>2026-04-23T13:13:23Z</time></trkpt><trkpt lat="42.266601165575224" lon="13.978106905955054"><ele>156.0</ele><time>2026-04-23T13:13:24Z</time></trkpt><trkpt lat="42.26664048129224" lon="13.978423069310953"><ele>156.66666666666666</ele><time>2026-04-23T13:13:25Z</time></trkpt><trkpt lat="42.26665544572611" lon="13.978717649036902"><ele>157.33333333333331</ele><time>2026-04-23T13:13:26Z</time></trkpt><trkpt lat="42.26667229106974" lon="13.979004348147221"><ele>158.0</ele><time>2026-04-23T13:13:27Z</time></trkpt><trkpt lat="42.266688538058055" lon="13.9792838241125"><ele>159.0</ele><time>2026-04-23T13:13:28Z</time></trkpt><trkpt lat="42.266706855011584" lon="13.979555807006612"><ele>160.0</ele><time>2026-04-23T13:13:29Z</time></trkpt><trkpt lat="42.26672378012065" lon="13.979824290028668"><ele>161.0</ele><time>2026-04-23T13:13:30Z</time></trkpt><trkpt lat="42.266736798355666" lon="13.980098071831568"><ele>161.66666666666666</ele><time>2026-04-23T13:13:31Z</time></trkpt><trkpt lat="42.266748687169944" lon="13.980374471754462"><ele>162.33333333333334</ele><time>2026-04-23T13:13:32Z</time></trkpt><trkpt lat="42.266764365385924" lon="13.980648913286828"><ele>163.0</ele><time>2026-04-23T13:13:33Z</time></trkpt><trkpt lat="42.26678299355016" lon="13.980935486940114"><ele>163.33333333333334</ele><time>2026-04-23T13:13:34Z</time></trkpt><trkpt lat="42.26680111718026" lon="13.9812196323297"><ele>163.66666666666666</ele><time>2026-04-23T13:13:35Z</time></trkpt><trkpt lat="42.26681959748978" lon="13.981508582107072"><ele>164.0</ele><time>2026-04-23T13:13:36Z</time></trkpt><trkpt lat="42.26683674696952" lon="13.9818008690903"><ele>163.33333333333331</ele><time>2026-04-23T13:13:37Z</time></trkpt><trkpt lat="42.26685158060019" lon="13.982096615871923"><ele>162.66666666666666</ele><time>2026-04-23T13:13:38Z</time></trkpt><trkpt lat="42.26687035992425" lon="13.982378916386343"><ele>162.0</ele><time>2026-04-23T13:13:39Z</time></trkpt><trkpt lat="42.266887036068056" lon="13.982639094918886"><ele>162.0</ele><time>2026-04-23T13:13:40Z</time></trkpt><trkpt lat="42.266902494117986" lon="13.982880665081277"><ele>162.0</ele><time>2026-04-23T13:13:41Z</time></trkpt><trkpt lat="42.266915420740695" lon="13.983108841572038"><ele>162.0</ele><time>2026-04-23T13:13:42Z</time></trkpt><trkpt lat="42.266911958226395" lon="13.983327405694293"><ele>162.5</ele><time>2026-04-23T13:13:43Z</time></trkpt><trkpt lat="42.26692288002532" lon="13.98352767528983"><ele>163.0</ele><time>2026-04-23T13:13:44Z</time></trkpt><trkpt lat="42.266933956312776" lon="13.983717476165502"><ele>163.5</ele><time>2026-04-23T13:13:45Z</time></trkpt><trkpt lat="42.26694600963587" lon="13.98391641398175"><ele>164.0</ele><time>2026-04-23T13:13:46Z</time></trkpt><trkpt lat="42.26696477775013" lon="13.984154676198939"><ele>162.33333333333331</ele><time>2026-04-23T13:13:47Z</time></trkpt><trkpt lat="42.26699680914965" lon="13.984407434656337"><ele>160.66666666666666</ele><time>2026-04-23T13:13:48Z</time></trkpt><trkpt lat="42.267052031474385" lon="13.98466900623252"><ele>159.0</ele><time>2026-04-23T13:13:49Z</time></trkpt><trkpt lat="42.267071981817544" lon="13.984944057866592"><ele>157.0</ele><time>2026-04-23T13:13:50Z</time></trkpt><trkpt lat="42.26709872683377" lon="13.985198247198701"><ele>155.0</ele><time>2026-04-23T13:13:51Z</time></trkpt><trkpt lat="42.26711547719187" lon="13.985444799558907"><ele>153.0</ele><time>2026-04-23T13:13:52Z</time></trkpt><trkpt lat="42.26710421873523" lon="13.985694813065956"><ele>151.33333333333334</ele><time>2026-04-23T13:13:53Z</time></trkpt><trkpt lat="42.267077527829876" lon="13.985960280483868"><ele>149.66666666666669</ele><time>2026-04-23T13:13:54Z</time></trkpt><trkpt lat="42.26704032009463" lon="13.986229707599662"><ele>148.0</ele><time>2026-04-23T13:13:55Z</time></trkpt><trkpt lat="42.26699265569887" lon="13.986494704433802"><ele>146.0</ele><time>2026-04-23T13:13:56Z</time></trkpt><trkpt lat="42.26693491884382" lon="13.98676557880212"><ele>144.0</ele><time>2026-04-23T13:13:57Z</time></trkpt><trkpt lat="42.26687565740519" lon="13.98702988089826"><ele>142.0</ele><time>2026-04-23T13:13:58Z</time></trkpt><trkpt lat="42.26682336088104" lon="13.987284990050457"><ele>140.33333333333334</ele><time>2026-04-23T13:13:59Z</time></trkpt><trkpt lat="42.26677439575001" lon="13.987539765137766"><ele>138.66666666666666</ele><time>2026-04-23T13:14:00Z</time></trkpt><trkpt lat="42.26671348030168" lon="13.987794335141842"><ele>137.0</ele><time>2026-04-23T13:14:01Z</time></trkpt><trkpt lat="42.266652897857426" lon="13.988042284751161"><ele>137.0</ele><time>2026-04-23T13:14:02Z</time></trkpt><trkpt lat="42.26660755865188" lon="13.988300025070176"><ele>137.0</ele><time>2026-04-23T13:14:03Z</time></trkpt><trkpt lat="42.26658667403532" lon="13.988576150118655"><ele>137.0</ele><time>2026-04-23T13:14:04Z</time></trkpt><trkpt lat="42.26658675855441" lon="13.988862714349297"><ele>134.5</ele><time>2026-04-23T13:14:05Z</time></trkpt><trkpt lat="42.26661367172987" lon="13.989161730401378"><ele>132.0</ele><time>2026-04-23T13:14:06Z</time></trkpt><trkpt lat="42.26666487774535" lon="13.989466546584785"><ele>132.0</ele><time>2026-04-23T13:14:07Z</time></trkpt><trkpt lat="42.266725074671676" lon="13.989760695390984"><ele>132.0</ele><time>2026-04-23T13:14:08Z</time></trkpt><trkpt lat="42.26677729082962" lon="13.990031754190612"><ele>132.0</ele><time>2026-04-23T13:14:09Z</time></trkpt><trkpt lat="42.26682409107473" lon="13.99029123922506"><ele>131.66666666666666</ele><time>2026-04-23T13:14:10Z</time></trkpt><trkpt lat="42.26683939872707" lon="13.990543259627882"><ele>131.33333333333331</ele><time>2026-04-23T13:14:11Z</time></trkpt><trkpt lat="42.26684723509491" lon="13.990788162372523"><ele>131.0</ele><time>2026-04-23T13:14:12Z</time></trkpt><trkpt lat="42.26684579920929" lon="13.991038431910656"><ele>129.0</ele><time>2026-04-23T13:14:13Z</time></trkpt><trkpt lat="42.26681527554087" lon="13.99129577075871"><ele>127.0</ele><time>2026-04-23T13:14:14Z</time></trkpt><trkpt lat="42.26677589433157" lon="13.991564184457053"><ele>125.0</ele><time>2026-04-23T13:14:15Z</time></trkpt><trkpt lat="42.26672961203173" lon="13.99183897847626"><ele>123.33333333333333</ele><time>2026-04-23T13:14:16Z</time></trkpt><trkpt lat="42.26667487279369" lon="13.99212260878386"><ele>121.66666666666666</ele><time>2026-04-23T13:14:17Z</time></trkpt><trkpt lat="42.26662557195509" lon="13.99241129603559"><ele>120.0</ele><time>2026-04-23T13:14:18Z</time></trkpt><trkpt lat="42.266579498460935" lon="13.992703107924735"><ele>119.33333333333334</ele><time>2026-04-23T13:14:19Z</time></trkpt><trkpt lat="42.266532279077104" lon="13.992990543056578"><ele>118.66666666666667</ele><time>2026-04-23T13:14:20Z</time></trkpt><trkpt lat="42.26648491460031" lon="13.993263821501355"><ele>118.0</ele><time>2026-04-23T13:14:21Z</time></trkpt><trkpt lat="42.26642741539028" lon="13.993505346223957"><ele>120.0</ele><time>2026-04-23T13:14:22Z</time></trkpt><trkpt lat="42.26640276248212" lon="13.993739026456737"><ele>122.0</ele><time>2026-04-23T13:14:23Z</time></trkpt><trkpt lat="42.26636218442089" lon="13.993970030149871"><ele>124.0</ele><time>2026-04-23T13:14:24Z</time></trkpt><trkpt lat="42.26632176056251" lon="13.994197330855506"><ele>124.0</ele><time>2026-04-23T13:14:25Z</time></trkpt><trkpt lat="42.26628304026778" lon="13.994422082819826"><ele>124.0</ele><time>2026-04-23T13:14:26Z</time></trkpt><trkpt lat="42.26624476587987" lon="13.994614597474513"><ele>124.0</ele><time>2026-04-23T13:14:27Z</time></trkpt><trkpt lat="42.26620798936502" lon="13.99477716454521"><ele>124.0</ele><time>2026-04-23T13:14:28Z</time></trkpt><trkpt lat="42.26616772768275" lon="13.994912134324268"><ele>123.6</ele><time>2026-04-23T13:14:29Z</time></trkpt><trkpt lat="42.2661143099149" lon="13.995029833104576"><ele>123.2</ele><time>2026-04-23T13:14:30Z</time></trkpt><trkpt lat="42.266046397048065" lon="13.995119256509259"><ele>122.79999999999998</ele><time>2026-04-23T13:14:31Z</time></trkpt><trkpt lat="42.26600077499467" lon="13.99520592621727"><ele>122.39999999999999</ele><time>2026-04-23T13:14:32Z</time></trkpt><trkpt lat="42.265998326346505" lon="13.995325524871332"><ele>122.0</ele><time>2026-04-23T13:14:33Z</time></trkpt><trkpt lat="42.26602462923419" lon="13.995470667861865"><ele>122.0</ele><time>2026-04-23T13:14:34Z</time></trkpt><trkpt lat="42.26604266380645" lon="13.99563817363152"><ele>122.0</ele><time>2026-04-23T13:14:35Z</time></trkpt><trkpt lat="42.26605593310463" lon="13.995815766406679"><ele>122.0</ele><time>2026-04-23T13:14:36Z</time></trkpt><trkpt lat="42.26601847508951" lon="13.99599851971322"><ele>122.0</ele><time>2026-04-23T13:14:37Z</time></trkpt><trkpt lat="42.26599372266417" lon="13.996156810169685"><ele>121.66666666666666</ele><time>2026-04-23T13:14:38Z</time></trkpt><trkpt lat="42.26597225203666" lon="13.99629570057786"><ele>121.33333333333333</ele><time>2026-04-23T13:14:39Z</time></trkpt><trkpt lat="42.265949202876854" lon="13.99642426472523"><ele>121.0</ele><time>2026-04-23T13:14:40Z</time></trkpt><trkpt lat="42.265930475231414" lon="13.996532069195727"><ele>120.66666666666666</ele><time>2026-04-23T13:14:41Z</time></trkpt><trkpt lat="42.26591053113462" lon="13.996620113892858"><ele>120.33333333333333</ele><time>2026-04-23T13:14:42Z</time></trkpt><trkpt lat="42.265886164875916" lon="13.996723816507409"><ele>120.0</ele><time>2026-04-23T13:14:44Z</time></trkpt><trkpt lat="42.26586180702348" lon="13.996831019924242"><ele>120.0</ele><time>2026-04-23T13:14:59.999Z</time></trkpt><trkpt lat="42.265837130456035" lon="13.99699929636182"><ele>120.0</ele><time>2026-04-23T13:15:01.999Z</time></trkpt><trkpt lat="42.265819889165925" lon="13.997106719710123"><ele>120.0</ele><time>2026-04-23T13:15:02.999Z</time></trkpt><trkpt lat="42.26579745079294" lon="13.997238505151905"><ele>120.0</ele><time>2026-04-23T13:15:03.999Z</time></trkpt><trkpt lat="42.26577486432645" lon="13.99737664269024"><ele>120.0</ele><time>2026-04-23T13:15:04.999Z</time></trkpt><trkpt lat="42.265765934916736" lon="13.997501413656039"><ele>119.6</ele><time>2026-04-23T13:15:05.999Z</time></trkpt><trkpt lat="42.26573915764778" lon="13.997639519790697"><ele>119.2</ele><time>2026-04-23T13:15:06.999Z</time></trkpt><trkpt lat="42.265708164307526" lon="13.997774596121554"><ele>118.80000000000001</ele><time>2026-04-23T13:15:07.999Z</time></trkpt><trkpt lat="42.26567358176484" lon="13.997913432913567"><ele>118.4</ele><time>2026-04-23T13:15:08.999Z</time></trkpt><trkpt lat="42.26562957724337" lon="13.998066455544667"><ele>118.0</ele><time>2026-04-23T13:15:09.999Z</time></trkpt><trkpt lat="42.26556861915768" lon="13.99822851840581"><ele>117.75</ele><time>2026-04-23T13:15:10.999Z</time></trkpt><trkpt lat="42.26548867688128" lon="13.9983905876831"><ele>117.5</ele><time>2026-04-23T13:15:11.999Z</time></trkpt><trkpt lat="42.265396825599375" lon="13.998541817366114"><ele>117.25</ele><time>2026-04-23T13:15:12.999Z</time></trkpt><trkpt lat="42.26528208710175" lon="13.998687107947942"><ele>117.0</ele><time>2026-04-23T13:15:13.999Z</time></trkpt><trkpt lat="42.26520123566947" lon="13.998839781647373"><ele>117.0</ele><time>2026-04-23T13:15:14.999Z</time></trkpt><trkpt lat="42.265072364144764" lon="13.998982688663705"><ele>117.0</ele><time>2026-04-23T13:15:15.999Z</time></trkpt><trkpt lat="42.2649141032235" lon="13.999163324946588"><ele>117.0</ele><time>2026-04-23T13:15:16.999Z</time></trkpt><trkpt lat="42.26474098503249" lon="13.999316560722338"><ele>117.33333333333334</ele><time>2026-04-23T13:15:17.999Z</time></trkpt><trkpt lat="42.26456475271076" lon="13.999474026771761"><ele>117.66666666666667</ele><time>2026-04-23T13:15:18.999Z</time></trkpt><trkpt lat="42.26438903165488" lon="13.999644903110065"><ele>118.0</ele><time>2026-04-23T13:15:19.999Z</time></trkpt><trkpt lat="42.264213243767195" lon="13.999815425018987"><ele>118.0</ele><time>2026-04-23T13:15:21Z</time></trkpt><trkpt lat="42.26405064292742" lon="13.999975986100058"><ele>118.0</ele><time>2026-04-23T13:15:22Z</time></trkpt><trkpt lat="42.26390101317114" lon="14.00012757820535"><ele>118.0</ele><time>2026-04-23T13:15:23Z</time></trkpt><trkpt lat="42.26375850160837" lon="14.000268063494735"><ele>119.66666666666667</ele><time>2026-04-23T13:15:24Z</time></trkpt><trkpt lat="42.26362201572526" lon="14.000398704063205"><ele>121.33333333333334</ele><time>2026-04-23T13:15:25Z</time></trkpt><trkpt lat="42.26350467117593" lon="14.000533771773886"><ele>123.0</ele><time>2026-04-23T13:15:26Z</time></trkpt><trkpt lat="42.26340130565133" lon="14.000697630818138"><ele>120.66666666666666</ele><time>2026-04-23T13:15:27Z</time></trkpt><trkpt lat="42.2633127437171" lon="14.00089321840324"><ele>118.33333333333333</ele><time>2026-04-23T13:15:28Z</time></trkpt><trkpt lat="42.263251369136064" lon="14.00110214390335"><ele>116.0</ele><time>2026-04-23T13:15:29Z</time></trkpt><trkpt lat="42.263221827873444" lon="14.00130824568996"><ele>116.0</ele><time>2026-04-23T13:15:30Z</time></trkpt><trkpt lat="42.26321514679644" lon="14.001522879868245"><ele>116.0</ele><time>2026-04-23T13:15:31Z</time></trkpt><trkpt lat="42.26322914890762" lon="14.00173731444057"><ele>116.0</ele><time>2026-04-23T13:15:32Z</time></trkpt><trkpt lat="42.26327005179292" lon="14.001950733818601"><ele>114.33333333333333</ele><time>2026-04-23T13:15:33Z</time></trkpt><trkpt lat="42.26334534200468" lon="14.00216815083163"><ele>112.66666666666666</ele><time>2026-04-23T13:15:34Z</time></trkpt><trkpt lat="42.263430301439705" lon="14.002369033561514"><ele>111.0</ele><time>2026-04-23T13:15:35Z</time></trkpt><trkpt lat="42.263511673571315" lon="14.00255118030043"><ele>110.5</ele><time>2026-04-23T13:15:36Z</time></trkpt><trkpt lat="42.26359981681935" lon="14.002714729847147"><ele>110.0</ele><time>2026-04-23T13:15:37Z</time></trkpt><trkpt lat="42.26367200379215" lon="14.002861568284322"><ele>109.5</ele><time>2026-04-23T13:15:38Z</time></trkpt><trkpt lat="42.26374109020398" lon="14.002995809535024"><ele>109.0</ele><time>2026-04-23T13:15:39Z</time></trkpt><trkpt lat="42.26380164652579" lon="14.003130648641479"><ele>109.00000000000001</ele><time>2026-04-23T13:15:40Z</time></trkpt><trkpt lat="42.26385906107851" lon="14.003258365708124"><ele>109.0</ele><time>2026-04-23T13:15:41Z</time></trkpt><trkpt lat="42.26391590882584" lon="14.00337979226971"><ele>109.0</ele><time>2026-04-23T13:15:42Z</time></trkpt><trkpt lat="42.26395993793437" lon="14.003492723358665"><ele>109.0</ele><time>2026-04-23T13:15:43Z</time></trkpt><trkpt lat="42.263983263430944" lon="14.003579988758082"><ele>109.00000000000001</ele><time>2026-04-23T13:15:44Z</time></trkpt><trkpt lat="42.26400312487864" lon="14.003664879438318"><ele>109.0</ele><time>2026-04-23T13:15:45Z</time></trkpt><trkpt lat="42.26399676172582" lon="14.003832457859307"><ele>109.00000000000001</ele><time>2026-04-23T13:15:47Z</time></trkpt><trkpt lat="42.263971879721275" lon="14.003924420636045"><ele>109.0</ele><time>2026-04-23T13:15:48Z</time></trkpt><trkpt lat="42.26395776050019" lon="14.004031548041224"><ele>109.0</ele><time>2026-04-23T13:15:49Z</time></trkpt><trkpt lat="42.263987751833525" lon="14.004132023917375"><ele>109.0</ele><time>2026-04-23T13:15:50Z</time></trkpt><trkpt lat="42.26405340202623" lon="14.004190748238896"><ele>109.00000000000001</ele><time>2026-04-23T13:15:51Z</time></trkpt><trkpt lat="42.2641336198496" lon="14.004211358069828"><ele>109.0</ele><time>2026-04-23T13:15:52Z</time></trkpt><trkpt lat="42.26422402647714" lon="14.00424050334431"><ele>109.25</ele><time>2026-04-23T13:15:53Z</time></trkpt><trkpt lat="42.26430983096876" lon="14.00433459449869"><ele>109.5</ele><time>2026-04-23T13:15:54Z</time></trkpt><trkpt lat="42.26437223234011" lon="14.00449461837187"><ele>109.75</ele><time>2026-04-23T13:15:55Z</time></trkpt><trkpt lat="42.26445182303043" lon="14.004672010045962"><ele>110.0</ele><time>2026-04-23T13:15:56Z</time></trkpt><trkpt lat="42.26452800219798" lon="14.004841798420474"><ele>110.0</ele><time>2026-04-23T13:15:57Z</time></trkpt><trkpt lat="42.26459305056958" lon="14.004995340889586"><ele>110.0</ele><time>2026-04-23T13:15:58Z</time></trkpt><trkpt lat="42.264666859275245" lon="14.005123433545897"><ele>110.0</ele><time>2026-04-23T13:15:59Z</time></trkpt><trkpt lat="42.26472566445137" lon="14.005252860228019"><ele>110.0</ele><time>2026-04-23T13:16:00Z</time></trkpt><trkpt lat="42.264777188278956" lon="14.005372428561897"><ele>109.0</ele><time>2026-04-23T13:16:01Z</time></trkpt><trkpt lat="42.264828804295966" lon="14.005484534400765"><ele>108.0</ele><time>2026-04-23T13:16:02Z</time></trkpt><trkpt lat="42.264880616247645" lon="14.005606627086244"><ele>107.0</ele><time>2026-04-23T13:16:03Z</time></trkpt><trkpt lat="42.264928495595235" lon="14.00571510400594"><ele>106.0</ele><time>2026-04-23T13:16:04Z</time></trkpt><trkpt lat="42.26496271682736" lon="14.005805030583973"><ele>105.0</ele><time>2026-04-23T13:16:05Z</time></trkpt><trkpt lat="42.265006876098404" lon="14.005899810202319"><ele>104.5</ele><time>2026-04-23T13:16:06Z</time></trkpt><trkpt lat="42.26504947917745" lon="14.005995430637274"><ele>104.0</ele><time>2026-04-23T13:16:07Z</time></trkpt><trkpt lat="42.265092575163244" lon="14.006097065014023"><ele>103.5</ele><time>2026-04-23T13:16:08Z</time></trkpt><trkpt lat="42.265135567949436" lon="14.006200402887284"><ele>103.0</ele><time>2026-04-23T13:16:09Z</time></trkpt><trkpt lat="42.26518234576144" lon="14.006308499797946"><ele>102.5</ele><time>2026-04-23T13:16:10Z</time></trkpt><trkpt lat="42.265231923805466" lon="14.006421996661086"><ele>102.0</ele><time>2026-04-23T13:16:11Z</time></trkpt><trkpt lat="42.2652847163035" lon="14.00654374735008"><ele>101.75</ele><time>2026-04-23T13:16:12Z</time></trkpt><trkpt lat="42.26534177484643" lon="14.006675498737652"><ele>101.5</ele><time>2026-04-23T13:16:13Z</time></trkpt><trkpt lat="42.26541021731388" lon="14.006820547026692"><ele>101.25</ele><time>2026-04-23T13:16:14Z</time></trkpt><trkpt lat="42.265486859772054" lon="14.00698497593049"><ele>101.0</ele><time>2026-04-23T13:16:15Z</time></trkpt><trkpt lat="42.26556765891162" lon="14.007161319450885"><ele>101.0</ele><time>2026-04-23T13:16:16Z</time></trkpt><trkpt lat="42.26564723947424" lon="14.00735403033706"><ele>101.0</ele><time>2026-04-23T13:16:17Z</time></trkpt><trkpt lat="42.26574219165173" lon="14.007541478697647"><ele>101.0</ele><time>2026-04-23T13:16:18Z</time></trkpt><trkpt lat="42.265857984352095" lon="14.007707153734966"><ele>101.0</ele><time>2026-04-23T13:16:19Z</time></trkpt><trkpt lat="42.26598859381143" lon="14.007853534359699"><ele>101.0</ele><time>2026-04-23T13:16:20Z</time></trkpt><trkpt lat="42.26611989951521" lon="14.00799027737655"><ele>101.0</ele><time>2026-04-23T13:16:21Z</time></trkpt><trkpt lat="42.266245722067296" lon="14.008122750894461"><ele>101.0</ele><time>2026-04-23T13:16:22Z</time></trkpt><trkpt lat="42.266360785051525" lon="14.008252815013579"><ele>101.0</ele><time>2026-04-23T13:16:23Z</time></trkpt><trkpt lat="42.26645901928521" lon="14.008380749653915"><ele>101.0</ele><time>2026-04-23T13:16:24Z</time></trkpt><trkpt lat="42.26654092999094" lon="14.008505905081766"><ele>101.0</ele><time>2026-04-23T13:16:25Z</time></trkpt><trkpt lat="42.266613941610395" lon="14.008634490139372"><ele>100.5</ele><time>2026-04-23T13:16:26Z</time></trkpt><trkpt lat="42.266686568208" lon="14.00877005117387"><ele>100.0</ele><time>2026-04-23T13:16:27Z</time></trkpt><trkpt lat="42.266751298412174" lon="14.008916449602383"><ele>99.5</ele><time>2026-04-23T13:16:28Z</time></trkpt><trkpt lat="42.266807260121205" lon="14.009039030964361"><ele>99.0</ele><time>2026-04-23T13:16:29Z</time></trkpt><trkpt lat="42.26685795981582" lon="14.009151597281221"><ele>98.66666666666667</ele><time>2026-04-23T13:16:30Z</time></trkpt><trkpt lat="42.26690822999158" lon="14.009253660302992"><ele>98.33333333333334</ele><time>2026-04-23T13:16:31Z</time></trkpt><trkpt lat="42.26694957752376" lon="14.00935036257636"><ele>98.0</ele><time>2026-04-23T13:16:32Z</time></trkpt><trkpt lat="42.26699177524565" lon="14.00944308301907"><ele>97.66666666666667</ele><time>2026-04-23T13:16:33Z</time></trkpt><trkpt lat="42.26702846123162" lon="14.009531347154391"><ele>97.33333333333334</ele><time>2026-04-23T13:16:34Z</time></trkpt><trkpt lat="42.267067100946875" lon="14.009619634474822"><ele>97.0</ele><time>2026-04-23T13:16:35Z</time></trkpt><trkpt lat="42.26710150743646" lon="14.009698806521024"><ele>97.00000000000001</ele><time>2026-04-23T13:16:36Z</time></trkpt><trkpt lat="42.26714215124648" lon="14.00978696901316"><ele>97.0</ele><time>2026-04-23T13:16:38Z</time></trkpt><trkpt lat="42.267190215285844" lon="14.009883166545745"><ele>97.0</ele><time>2026-04-23T13:16:41Z</time></trkpt><trkpt lat="42.267224070704465" lon="14.009969861416963"><ele>97.0</ele><time>2026-04-23T13:16:43Z</time></trkpt><trkpt lat="42.267252528979434" lon="14.010099753936789"><ele>97.00000000000001</ele><time>2026-04-23T13:16:45Z</time></trkpt><trkpt lat="42.26725923439865" lon="14.010250050920998"><ele>97.0</ele><time>2026-04-23T13:16:47Z</time></trkpt><trkpt lat="42.2672699315021" lon="14.010413004993149"><ele>97.0</ele><time>2026-04-23T13:16:49Z</time></trkpt><trkpt lat="42.267368207157645" lon="14.010546555864563"><ele>97.0</ele><time>2026-04-23T13:16:51Z</time></trkpt><trkpt lat="42.26744175668688" lon="14.010598369528388"><ele>97.0</ele><time>2026-04-23T13:16:52Z</time></trkpt><trkpt lat="42.26751586087938" lon="14.010662477862569"><ele>97.0</ele><time>2026-04-23T13:16:52.999Z</time></trkpt><trkpt lat="42.26757864925865" lon="14.010752069453671"><ele>97.0</ele><time>2026-04-23T13:16:53.999Z</time></trkpt><trkpt lat="42.2676144195911" lon="14.01086962823995"><ele>97.0</ele><time>2026-04-23T13:16:54.999Z</time></trkpt><trkpt lat="42.26766901874639" lon="14.010990402835565"><ele>97.0</ele><time>2026-04-23T13:16:55.999Z</time></trkpt><trkpt lat="42.26772610990975" lon="14.01111690194468"><ele>97.0</ele><time>2026-04-23T13:16:56.999Z</time></trkpt><trkpt lat="42.26777466225043" lon="14.011226027336106"><ele>97.0</ele><time>2026-04-23T13:16:57.999Z</time></trkpt><trkpt lat="42.267824891413554" lon="14.01133892151209"><ele>97.0</ele><time>2026-04-23T13:16:58.999Z</time></trkpt><trkpt lat="42.267888849845214" lon="14.011443192013115"><ele>97.0</ele><time>2026-04-23T13:16:59.999Z</time></trkpt><trkpt lat="42.26793106533771" lon="14.0115425127042"><ele>97.0</ele><time>2026-04-23T13:17:00.999Z</time></trkpt><trkpt lat="42.26796573646878" lon="14.011652004469331"><ele>97.0</ele><time>2026-04-23T13:17:01.999Z</time></trkpt><trkpt lat="42.26801488861423" lon="14.01177321566918"><ele>97.0</ele><time>2026-04-23T13:17:02.999Z</time></trkpt><trkpt lat="42.26808238086922" lon="14.011940272647236"><ele>97.0</ele><time>2026-04-23T13:17:03.999Z</time></trkpt><trkpt lat="42.268160421159386" lon="14.012100989154483"><ele>95.39999999999999</ele><time>2026-04-23T13:17:04.999Z</time></trkpt><trkpt lat="42.268223275559365" lon="14.012234156270278"><ele>93.8</ele><time>2026-04-23T13:17:05.999Z</time></trkpt><trkpt lat="42.26827868158761" lon="14.012342685777831"><ele>92.2</ele><time>2026-04-23T13:17:06.999Z</time></trkpt><trkpt lat="42.26832849213164" lon="14.012452093711032"><ele>90.6</ele><time>2026-04-23T13:17:07.999Z</time></trkpt><trkpt lat="42.26839086067743" lon="14.012574115589496"><ele>89.0</ele><time>2026-04-23T13:17:08.999Z</time></trkpt><trkpt lat="42.268437465188164" lon="14.012716908611843"><ele>89.0</ele><time>2026-04-23T13:17:09.999Z</time></trkpt><trkpt lat="42.26848909725853" lon="14.012836424529047"><ele>89.0</ele><time>2026-04-23T13:17:10.999Z</time></trkpt><trkpt lat="42.26853851731385" lon="14.012950820155398"><ele>89.0</ele><time>2026-04-23T13:17:11.999Z</time></trkpt><trkpt lat="42.26858704484853" lon="14.013063149815588"><ele>89.0</ele><time>2026-04-23T13:17:12.999Z</time></trkpt><trkpt lat="42.2686496454154" lon="14.013168810498769"><ele>89.0</ele><time>2026-04-23T13:17:13.999Z</time></trkpt><trkpt lat="42.26868286037995" lon="14.013284939895213"><ele>88.83333333333334</ele><time>2026-04-23T13:17:14.999Z</time></trkpt><trkpt lat="42.2687413001317" lon="14.013378172477898"><ele>88.66666666666667</ele><time>2026-04-23T13:17:15.999Z</time></trkpt><trkpt lat="42.26876896641719" lon="14.01348425481775"><ele>88.5</ele><time>2026-04-23T13:17:16.999Z</time></trkpt><trkpt lat="42.26880687706804" lon="14.013572008920399"><ele>88.33333333333333</ele><time>2026-04-23T13:17:17.999Z</time></trkpt><trkpt lat="42.268848827308624" lon="14.013669113708392"><ele>88.16666666666666</ele><time>2026-04-23T13:17:18.999Z</time></trkpt><trkpt lat="42.268908617671876" lon="14.01377064096421"><ele>88.0</ele><time>2026-04-23T13:17:19.999Z</time></trkpt><trkpt lat="42.26894823148295" lon="14.013876169846787"><ele>87.66666666666666</ele><time>2026-04-23T13:17:20.999Z</time></trkpt><trkpt lat="42.26898584066988" lon="14.01396602893143"><ele>87.33333333333333</ele><time>2026-04-23T13:17:21.999Z</time></trkpt><trkpt lat="42.26902146361113" lon="14.014044749986477"><ele>87.0</ele><time>2026-04-23T13:17:22.999Z</time></trkpt><trkpt lat="42.26907707913173" lon="14.014171001037122"><ele>86.66666666666667</ele><time>2026-04-23T13:17:24.999Z</time></trkpt><trkpt lat="42.269142705758085" lon="14.014284365142407"><ele>86.33333333333334</ele><time>2026-04-23T13:17:27Z</time></trkpt><trkpt lat="42.269187852075255" lon="14.014347726495822"><ele>86.0</ele><time>2026-04-23T13:17:28Z</time></trkpt><trkpt lat="42.26925756115299" lon="14.014433079808798"><ele>86.0</ele><time>2026-04-23T13:17:30Z</time></trkpt><trkpt lat="42.26932256516914" lon="14.01452915718717"><ele>86.0</ele><time>2026-04-23T13:17:32Z</time></trkpt><trkpt lat="42.269341675956206" lon="14.014615516612595"><ele>86.0</ele><time>2026-04-23T13:17:33Z</time></trkpt><trkpt lat="42.26936001766793" lon="14.014710752569036"><ele>86.0</ele><time>2026-04-23T13:17:34Z</time></trkpt><trkpt lat="42.269399585992794" lon="14.014803532016606"><ele>86.0</ele><time>2026-04-23T13:17:35Z</time></trkpt><trkpt lat="42.2694537104887" lon="14.014890379324461"><ele>86.0</ele><time>2026-04-23T13:17:36Z</time></trkpt><trkpt lat="42.26951543206196" lon="14.014970978769314"><ele>86.19999999999999</ele><time>2026-04-23T13:17:37Z</time></trkpt><trkpt lat="42.269566581756244" lon="14.015051607628775"><ele>86.39999999999999</ele><time>2026-04-23T13:17:38Z</time></trkpt><trkpt lat="42.26961294594706" lon="14.015162924139347"><ele>86.6</ele><time>2026-04-23T13:17:39Z</time></trkpt><trkpt lat="42.2696538504477" lon="14.01529923258976"><ele>86.8</ele><time>2026-04-23T13:17:40Z</time></trkpt><trkpt lat="42.26971735739413" lon="14.015474170551025"><ele>87.0</ele><time>2026-04-23T13:17:41Z</time></trkpt><trkpt lat="42.26979931670295" lon="14.015680122245579"><ele>86.5</ele><time>2026-04-23T13:17:42Z</time></trkpt><trkpt lat="42.269894053058515" lon="14.015943799910614"><ele>86.0</ele><time>2026-04-23T13:17:43Z</time></trkpt><trkpt lat="42.27002328027064" lon="14.016248854783413"><ele>86.0</ele><time>2026-04-23T13:17:44Z</time></trkpt><trkpt lat="42.27017037034338" lon="14.016580122793455"><ele>86.0</ele><time>2026-04-23T13:17:45Z</time></trkpt><trkpt lat="42.270324184524426" lon="14.016933573576212"><ele>86.0</ele><time>2026-04-23T13:17:46Z</time></trkpt><trkpt lat="42.27049542033364" lon="14.017304468973672"><ele>86.0</ele><time>2026-04-23T13:17:47Z</time></trkpt><trkpt lat="42.270651528393415" lon="14.017654677710539"><ele>86.0</ele><time>2026-04-23T13:17:48Z</time></trkpt><trkpt lat="42.27078730756235" lon="14.017957105555842"><ele>86.0</ele><time>2026-04-23T13:17:49Z</time></trkpt><trkpt lat="42.270915111191414" lon="14.018233109335549"><ele>87.33333333333334</ele><time>2026-04-23T13:17:50Z</time></trkpt><trkpt lat="42.27103566831251" lon="14.018484862838855"><ele>88.66666666666667</ele><time>2026-04-23T13:17:51Z</time></trkpt><trkpt lat="42.27114597427577" lon="14.018713752105763"><ele>90.0</ele><time>2026-04-23T13:17:52Z</time></trkpt><trkpt lat="42.27128299607259" lon="14.018935928419904"><ele>91.0</ele><time>2026-04-23T13:17:53Z</time></trkpt><trkpt lat="42.27143695322941" lon="14.019168725713742"><ele>92.0</ele><time>2026-04-23T13:17:54Z</time></trkpt><trkpt lat="42.271612454245194" lon="14.01939848673517"><ele>92.0</ele><time>2026-04-23T13:17:55Z</time></trkpt><trkpt lat="42.27180913424736" lon="14.019623629766677"><ele>92.0</ele><time>2026-04-23T13:17:56Z</time></trkpt><trkpt lat="42.27199388114341" lon="14.01982238724932"><ele>91.66666666666667</ele><time>2026-04-23T13:17:57Z</time></trkpt><trkpt lat="42.27216696842496" lon="14.019993566469964"><ele>91.33333333333333</ele><time>2026-04-23T13:17:58Z</time></trkpt><trkpt lat="42.272357546566596" lon="14.020145774766585"><ele>91.0</ele><time>2026-04-23T13:17:59Z</time></trkpt><trkpt lat="42.27255995660273" lon="14.020280858024279"><ele>91.0</ele><time>2026-04-23T13:18:00Z</time></trkpt><trkpt lat="42.27276672492985" lon="14.020395485591019"><ele>91.0</ele><time>2026-04-23T13:18:01Z</time></trkpt><trkpt lat="42.27298717708827" lon="14.02048891596946"><ele>88.5</ele><time>2026-04-23T13:18:02Z</time></trkpt><trkpt lat="42.273223698336786" lon="14.020574540665178"><ele>86.0</ele><time>2026-04-23T13:18:03Z</time></trkpt><trkpt lat="42.27346758104573" lon="14.02064351627788"><ele>86.0</ele><time>2026-04-23T13:18:04Z</time></trkpt><trkpt lat="42.27371857511353" lon="14.020689308743849"><ele>86.0</ele><time>2026-04-23T13:18:05Z</time></trkpt><trkpt lat="42.27399118545094" lon="14.020712989297028"><ele>85.0</ele><time>2026-04-23T13:18:06Z</time></trkpt><trkpt lat="42.27428776205204" lon="14.020714920828507"><ele>84.0</ele><time>2026-04-23T13:18:07Z</time></trkpt><trkpt lat="42.27460265484323" lon="14.02069992068141"><ele>82.5</ele><time>2026-04-23T13:18:08Z</time></trkpt><trkpt lat="42.27492418275288" lon="14.020679980187568"><ele>81.0</ele><time>2026-04-23T13:18:09Z</time></trkpt><trkpt lat="42.27522287228029" lon="14.020671164378925"><ele>81.0</ele><time>2026-04-23T13:18:10Z</time></trkpt><trkpt lat="42.27550517926425" lon="14.020668560332977"><ele>81.0</ele><time>2026-04-23T13:18:11Z</time></trkpt><trkpt lat="42.27578328212116" lon="14.020680984525516"><ele>81.5</ele><time>2026-04-23T13:18:12Z</time></trkpt><trkpt lat="42.27606888461656" lon="14.020713774294775"><ele>82.0</ele><time>2026-04-23T13:18:13Z</time></trkpt><trkpt lat="42.27635509290053" lon="14.020761306668959"><ele>84.0</ele><time>2026-04-23T13:18:14Z</time></trkpt><trkpt lat="42.27662914338852" lon="14.020825657862353"><ele>86.0</ele><time>2026-04-23T13:18:15Z</time></trkpt><trkpt lat="42.276916824939406" lon="14.020910737081467"><ele>86.0</ele><time>2026-04-23T13:18:16Z</time></trkpt><trkpt lat="42.277211023585664" lon="14.021014714768887"><ele>86.0</ele><time>2026-04-23T13:18:17Z</time></trkpt><trkpt lat="42.277503493286176" lon="14.021140266160897"><ele>84.0</ele><time>2026-04-23T13:18:18Z</time></trkpt><trkpt lat="42.27780465382096" lon="14.021293237810552"><ele>82.0</ele><time>2026-04-23T13:18:19Z</time></trkpt><trkpt lat="42.27811920949539" lon="14.021469947175703"><ele>80.5</ele><time>2026-04-23T13:18:20Z</time></trkpt><trkpt lat="42.27843969017457" lon="14.021671101325252"><ele>79.0</ele><time>2026-04-23T13:18:21Z</time></trkpt><trkpt lat="42.27873892260938" lon="14.021859762986315"><ele>79.5</ele><time>2026-04-23T13:18:22Z</time></trkpt><trkpt lat="42.27900657347188" lon="14.022032429109617"><ele>80.0</ele><time>2026-04-23T13:18:23Z</time></trkpt><trkpt lat="42.27925953383634" lon="14.022187516300667"><ele>80.0</ele><time>2026-04-23T13:18:24Z</time></trkpt><trkpt lat="42.279502614560016" lon="14.022340316915596"><ele>80.0</ele><time>2026-04-23T13:18:25Z</time></trkpt><trkpt lat="42.279753570209316" lon="14.022494598002007"><ele>81.5</ele><time>2026-04-23T13:18:26Z</time></trkpt><trkpt lat="42.27999723288364" lon="14.022644314428893"><ele>83.0</ele><time>2026-04-23T13:18:27Z</time></trkpt><trkpt lat="42.28021253031099" lon="14.022791951826377"><ele>83.0</ele><time>2026-04-23T13:18:28Z</time></trkpt><trkpt lat="42.28039298749646" lon="14.022940790920051"><ele>83.0</ele><time>2026-04-23T13:18:29Z</time></trkpt><trkpt lat="42.28055793077214" lon="14.023090410854847"><ele>83.0</ele><time>2026-04-23T13:18:30Z</time></trkpt><trkpt lat="42.28079899394714" lon="14.023175207314296"><ele>83.66666666666667</ele><time>2026-04-23T13:18:31Z</time></trkpt><trkpt lat="42.28097665677385" lon="14.023285396041096"><ele>84.33333333333333</ele><time>2026-04-23T13:18:32Z</time></trkpt><trkpt lat="42.28113661573579" lon="14.023392608432466"><ele>85.0</ele><time>2026-04-23T13:18:33Z</time></trkpt><trkpt lat="42.281278299030184" lon="14.023489259599042"><ele>87.0</ele><time>2026-04-23T13:18:34Z</time></trkpt><trkpt lat="42.28139786970103" lon="14.023574347124494"><ele>89.0</ele><time>2026-04-23T13:18:35Z</time></trkpt><trkpt lat="42.28153173433812" lon="14.023673748726805"><ele>91.0</ele><time>2026-04-23T13:18:36Z</time></trkpt><trkpt lat="42.28165452557927" lon="14.023769086250681"><ele>93.0</ele><time>2026-04-23T13:18:37Z</time></trkpt><trkpt lat="42.28177466611343" lon="14.023879028558973"><ele>93.0</ele><time>2026-04-23T13:18:38Z</time></trkpt><trkpt lat="42.28189482235165" lon="14.023976405155643"><ele>93.0</ele><time>2026-04-23T13:18:39Z</time></trkpt><trkpt lat="42.282000547109014" lon="14.024072337454202"><ele>93.0</ele><time>2026-04-23T13:18:40Z</time></trkpt><trkpt lat="42.28212002073882" lon="14.024151235736705"><ele>93.0</ele><time>2026-04-23T13:18:41Z</time></trkpt><trkpt lat="42.28221633522828" lon="14.02423718699328"><ele>94.5</ele><time>2026-04-23T13:18:42Z</time></trkpt><trkpt lat="42.282324766772646" lon="14.024340320367793"><ele>96.0</ele><time>2026-04-23T13:18:43Z</time></trkpt><trkpt lat="42.282429966686614" lon="14.024443709561735"><ele>97.5</ele><time>2026-04-23T13:18:44Z</time></trkpt><trkpt lat="42.28252040086944" lon="14.024545562652548"><ele>99.0</ele><time>2026-04-23T13:18:45Z</time></trkpt><trkpt lat="42.2826271364995" lon="14.024676269503342"><ele>99.0</ele><time>2026-04-23T13:18:46Z</time></trkpt><trkpt lat="42.282757197176174" lon="14.024833725166758"><ele>99.0</ele><time>2026-04-23T13:18:47Z</time></trkpt><trkpt lat="42.28289069037811" lon="14.024992787000778"><ele>99.0</ele><time>2026-04-23T13:18:48Z</time></trkpt><trkpt lat="42.28301513840471" lon="14.02514518348609"><ele>96.66666666666667</ele><time>2026-04-23T13:18:49Z</time></trkpt><trkpt lat="42.28313670022467" lon="14.025301208027814"><ele>94.33333333333334</ele><time>2026-04-23T13:18:50Z</time></trkpt><trkpt lat="42.283249494125656" lon="14.025467288774426"><ele>92.0</ele><time>2026-04-23T13:18:51Z</time></trkpt><trkpt lat="42.28336532172186" lon="14.025641395407156"><ele>96.0</ele><time>2026-04-23T13:18:52Z</time></trkpt><trkpt lat="42.283492611401606" lon="14.025846281545002"><ele>100.0</ele><time>2026-04-23T13:18:53Z</time></trkpt><trkpt lat="42.28361248574471" lon="14.026066456534124"><ele>104.0</ele><time>2026-04-23T13:18:54Z</time></trkpt><trkpt lat="42.28373242072082" lon="14.026295410128283"><ele>104.0</ele><time>2026-04-23T13:18:55Z</time></trkpt><trkpt lat="42.28385376674685" lon="14.026537634970392"><ele>104.0</ele><time>2026-04-23T13:18:56Z</time></trkpt><trkpt lat="42.28397443767416" lon="14.026793272194224"><ele>104.0</ele><time>2026-04-23T13:18:56.999Z</time></trkpt><trkpt lat="42.28408788269898" lon="14.0270678465245"><ele>101.33333333333333</ele><time>2026-04-23T13:18:57.999Z</time></trkpt><trkpt lat="42.28419290065472" lon="14.027337814497264"><ele>98.66666666666666</ele><time>2026-04-23T13:18:58.999Z</time></trkpt><trkpt lat="42.284299553016965" lon="14.027600452686114"><ele>96.0</ele><time>2026-04-23T13:18:59.999Z</time></trkpt><trkpt lat="42.28439810558856" lon="14.027867691496633"><ele>96.0</ele><time>2026-04-23T13:19:00.999Z</time></trkpt><trkpt lat="42.28449610999428" lon="14.028124199640782"><ele>96.0</ele><time>2026-04-23T13:19:01.999Z</time></trkpt><trkpt lat="42.28460288711271" lon="14.028404191213667"><ele>96.0</ele><time>2026-04-23T13:19:02.999Z</time></trkpt><trkpt lat="42.28470643189014" lon="14.028691058470288"><ele>89.5</ele><time>2026-04-23T13:19:03.999Z</time></trkpt><trkpt lat="42.284811661193224" lon="14.028971459112139"><ele>83.0</ele><time>2026-04-23T13:19:04.999Z</time></trkpt><trkpt lat="42.2849031406236" lon="14.029246841981905"><ele>83.0</ele><time>2026-04-23T13:19:05.999Z</time></trkpt><trkpt lat="42.285021938596486" lon="14.029561533325793"><ele>83.0</ele><time>2026-04-23T13:19:06.999Z</time></trkpt><trkpt lat="42.2851382851574" lon="14.029877734766293"><ele>87.0</ele><time>2026-04-23T13:19:07.999Z</time></trkpt><trkpt lat="42.28523835209401" lon="14.030164245397879"><ele>91.0</ele><time>2026-04-23T13:19:08.999Z</time></trkpt><trkpt lat="42.28532821711504" lon="14.030433605709947"><ele>91.0</ele><time>2026-04-23T13:19:09.999Z</time></trkpt><trkpt lat="42.28541931379061" lon="14.030682155452332"><ele>91.0</ele><time>2026-04-23T13:19:10.999Z</time></trkpt><trkpt lat="42.28551259495819" lon="14.030912501845316"><ele>91.0</ele><time>2026-04-23T13:19:11.999Z</time></trkpt><trkpt lat="42.285589864770664" lon="14.03112970541528"><ele>88.33333333333333</ele><time>2026-04-23T13:19:12.999Z</time></trkpt><trkpt lat="42.285663148854816" lon="14.03133482514275"><ele>85.66666666666667</ele><time>2026-04-23T13:19:13.999Z</time></trkpt><trkpt lat="42.28574226670318" lon="14.031536204656005"><ele>83.0</ele><time>2026-04-23T13:19:14.999Z</time></trkpt><trkpt lat="42.28582815659966" lon="14.031729991379848"><ele>83.0</ele><time>2026-04-23T13:19:15.999Z</time></trkpt><trkpt lat="42.285925686974544" lon="14.031910730416934"><ele>83.0</ele><time>2026-04-23T13:19:16.999Z</time></trkpt><trkpt lat="42.28603823876102" lon="14.032082968864897"><ele>83.0</ele><time>2026-04-23T13:19:17.999Z</time></trkpt><trkpt lat="42.28616643953497" lon="14.032240230838838"><ele>83.0</ele><time>2026-04-23T13:19:18.999Z</time></trkpt><trkpt lat="42.286309482922775" lon="14.032386433962838"><ele>83.0</ele><time>2026-04-23T13:19:19.999Z</time></trkpt><trkpt lat="42.28647035895834" lon="14.032527041733033"><ele>83.0</ele><time>2026-04-23T13:19:20.999Z</time></trkpt><trkpt lat="42.286636797316035" lon="14.032690515571245"><ele>81.5</ele><time>2026-04-23T13:19:21.999Z</time></trkpt><trkpt lat="42.286801762042856" lon="14.032880672474045"><ele>80.0</ele><time>2026-04-23T13:19:22.999Z</time></trkpt><trkpt lat="42.286978416695995" lon="14.033095644975713"><ele>80.5</ele><time>2026-04-23T13:19:23.999Z</time></trkpt><trkpt lat="42.28716876556454" lon="14.033326513391048"><ele>81.0</ele><time>2026-04-23T13:19:24.999Z</time></trkpt><trkpt lat="42.287392194685125" lon="14.033564269348911"><ele>77.5</ele><time>2026-04-23T13:19:25.999Z</time></trkpt><trkpt lat="42.28763831900726" lon="14.033832682795314"><ele>74.0</ele><time>2026-04-23T13:19:26.999Z</time></trkpt><trkpt lat="42.28790039805168" lon="14.03411440180826"><ele>74.5</ele><time>2026-04-23T13:19:27.999Z</time></trkpt><trkpt lat="42.28817314896836" lon="14.034408759106888"><ele>75.0</ele><time>2026-04-23T13:19:28.999Z</time></trkpt><trkpt lat="42.28845848780141" lon="14.034716104200024"><ele>75.5</ele><time>2026-04-23T13:19:29.999Z</time></trkpt><trkpt lat="42.288740023576004" lon="14.035019038148164"><ele>76.0</ele><time>2026-04-23T13:19:30.999Z</time></trkpt><trkpt lat="42.288986684195194" lon="14.035290840499835"><ele>75.0</ele><time>2026-04-23T13:19:31.999Z</time></trkpt><trkpt lat="42.28921751334137" lon="14.035538752914578"><ele>74.0</ele><time>2026-04-23T13:19:33Z</time></trkpt><trkpt lat="42.289430022407636" lon="14.035771104205876"><ele>74.5</ele><time>2026-04-23T13:19:34Z</time></trkpt><trkpt lat="42.28964749532979" lon="14.035999228841314"><ele>75.0</ele><time>2026-04-23T13:19:35Z</time></trkpt><trkpt lat="42.28987280675897" lon="14.036233704110137"><ele>75.0</ele><time>2026-04-23T13:19:36Z</time></trkpt><trkpt lat="42.290088696867315" lon="14.036470846066345"><ele>75.0</ele><time>2026-04-23T13:19:37Z</time></trkpt><trkpt lat="42.29029880244545" lon="14.03669557112791"><ele>75.5</ele><time>2026-04-23T13:19:38Z</time></trkpt><trkpt lat="42.290499947916125" lon="14.036905426985694"><ele>76.0</ele><time>2026-04-23T13:19:39Z</time></trkpt><trkpt lat="42.29068198315453" lon="14.037109373240053"><ele>76.0</ele><time>2026-04-23T13:19:40Z</time></trkpt><trkpt lat="42.29086534842454" lon="14.03731378169862"><ele>76.0</ele><time>2026-04-23T13:19:41Z</time></trkpt><trkpt lat="42.29104963258917" lon="14.037505552563404"><ele>82.5</ele><time>2026-04-23T13:19:42Z</time></trkpt><trkpt lat="42.29123550907827" lon="14.03769376612483"><ele>89.0</ele><time>2026-04-23T13:19:43Z</time></trkpt><trkpt lat="42.29142234930553" lon="14.037861776850416"><ele>85.33333333333334</ele><time>2026-04-23T13:19:44Z</time></trkpt><trkpt lat="42.29161249345199" lon="14.038008267371598"><ele>81.66666666666667</ele><time>2026-04-23T13:19:45Z</time></trkpt><trkpt lat="42.29179293748441" lon="14.038142583496564"><ele>78.0</ele><time>2026-04-23T13:19:46Z</time></trkpt><trkpt lat="42.291967882595735" lon="14.038264269509275"><ele>75.66666666666667</ele><time>2026-04-23T13:19:47Z</time></trkpt><trkpt lat="42.292136027733854" lon="14.038411116899862"><ele>73.33333333333334</ele><time>2026-04-23T13:19:48Z</time></trkpt><trkpt lat="42.29231076647971" lon="14.03851643610722"><ele>71.0</ele><time>2026-04-23T13:19:49Z</time></trkpt><trkpt lat="42.29246867307701" lon="14.03864499833878"><ele>71.0</ele><time>2026-04-23T13:19:50Z</time></trkpt><trkpt lat="42.29262659403588" lon="14.038766624638415"><ele>71.0</ele><time>2026-04-23T13:19:51Z</time></trkpt><trkpt lat="42.292785133439004" lon="14.038879284465956"><ele>71.0</ele><time>2026-04-23T13:19:52Z</time></trkpt><trkpt lat="42.29293673016606" lon="14.038993860718461"><ele>71.0</ele><time>2026-04-23T13:19:53Z</time></trkpt><trkpt lat="42.29309894043266" lon="14.039108417798595"><ele>71.0</ele><time>2026-04-23T13:19:54Z</time></trkpt><trkpt lat="42.29326322090401" lon="14.03922751361354"><ele>71.0</ele><time>2026-04-23T13:19:55Z</time></trkpt><trkpt lat="42.29342381948707" lon="14.039347141228909"><ele>71.66666666666667</ele><time>2026-04-23T13:19:56Z</time></trkpt><trkpt lat="42.293592952673535" lon="14.03946796407144"><ele>72.33333333333333</ele><time>2026-04-23T13:19:57Z</time></trkpt><trkpt lat="42.29376273968772" lon="14.03958785452653"><ele>73.0</ele><time>2026-04-23T13:19:58Z</time></trkpt><trkpt lat="42.29391973153979" lon="14.039695777196794"><ele>73.0</ele><time>2026-04-23T13:19:59Z</time></trkpt><trkpt lat="42.294062176973775" lon="14.039787497682255"><ele>73.0</ele><time>2026-04-23T13:20:00Z</time></trkpt><trkpt lat="42.29418748471728" lon="14.039870278848278"><ele>73.0</ele><time>2026-04-23T13:20:01Z</time></trkpt><trkpt lat="42.294296114561455" lon="14.03994352353372"><ele>73.0</ele><time>2026-04-23T13:20:02Z</time></trkpt><trkpt lat="42.294383319800765" lon="14.040016716770339"><ele>73.0</ele><time>2026-04-23T13:20:03Z</time></trkpt><trkpt lat="42.29445253566445" lon="14.040108602973428"><ele>73.0</ele><time>2026-04-23T13:20:04Z</time></trkpt><trkpt lat="42.294510953779465" lon="14.040222263235897"><ele>73.0</ele><time>2026-04-23T13:20:05Z</time></trkpt><trkpt lat="42.29452509578394" lon="14.040324046757503"><ele>73.0</ele><time>2026-04-23T13:20:06Z</time></trkpt><trkpt lat="42.29464766726086" lon="14.040300537409273"><ele>73.0</ele><time>2026-04-23T13:20:07Z</time></trkpt><trkpt lat="42.294765239734694" lon="14.040287825489449"><ele>73.0</ele><time>2026-04-23T13:20:08Z</time></trkpt><trkpt lat="42.29490529231474" lon="14.040300252946203"><ele>73.0</ele><time>2026-04-23T13:20:09Z</time></trkpt><trkpt lat="42.295057285149284" lon="14.04036655086859"><ele>73.0</ele><time>2026-04-23T13:20:10Z</time></trkpt><trkpt lat="42.29519632088296" lon="14.04044908956741"><ele>73.0</ele><time>2026-04-23T13:20:11Z</time></trkpt><trkpt lat="42.29530187799898" lon="14.040525765553589"><ele>73.0</ele><time>2026-04-23T13:20:12Z</time></trkpt><trkpt lat="42.29540520144885" lon="14.040591618696716"><ele>73.0</ele><time>2026-04-23T13:20:13Z</time></trkpt><trkpt lat="42.29550587239721" lon="14.040654727243924"><ele>73.0</ele><time>2026-04-23T13:20:14Z</time></trkpt><trkpt lat="42.295605509072395" lon="14.040717513124623"><ele>73.0</ele><time>2026-04-23T13:20:15Z</time></trkpt><trkpt lat="42.29570522223544" lon="14.040776532260935"><ele>73.0</ele><time>2026-04-23T13:20:16Z</time></trkpt><trkpt lat="42.29581298608011" lon="14.040842201091246"><ele>73.0</ele><time>2026-04-23T13:20:17Z</time></trkpt><trkpt lat="42.29592492875976" lon="14.040907565035987"><ele>73.0</ele><time>2026-04-23T13:20:18Z</time></trkpt><trkpt lat="42.29604891956235" lon="14.040972933356304"><ele>73.75</ele><time>2026-04-23T13:20:19Z</time></trkpt><trkpt lat="42.29616767185043" lon="14.041048225400822"><ele>74.5</ele><time>2026-04-23T13:20:20Z</time></trkpt><trkpt lat="42.296285637049436" lon="14.041127546259176"><ele>75.25</ele><time>2026-04-23T13:20:21Z</time></trkpt><trkpt lat="42.29640639669889" lon="14.041204365484873"><ele>76.0</ele><time>2026-04-23T13:20:22Z</time></trkpt><trkpt lat="42.2965297751999" lon="14.041281600001145"><ele>76.75</ele><time>2026-04-23T13:20:23Z</time></trkpt><trkpt lat="42.296649870452555" lon="14.041362935407626"><ele>77.5</ele><time>2026-04-23T13:20:24Z</time></trkpt><trkpt lat="42.29676800019554" lon="14.041453789781166"><ele>78.25</ele><time>2026-04-23T13:20:25Z</time></trkpt><trkpt lat="42.29687849103756" lon="14.041564665385552"><ele>79.0</ele><time>2026-04-23T13:20:26Z</time></trkpt><trkpt lat="42.296990035122555" lon="14.041694117835743"><ele>79.0</ele><time>2026-04-23T13:20:27Z</time></trkpt><trkpt lat="42.297100138304174" lon="14.041835127534288"><ele>79.0</ele><time>2026-04-23T13:20:28Z</time></trkpt><trkpt lat="42.29719505323074" lon="14.04199138754232"><ele>79.0</ele><time>2026-04-23T13:20:29Z</time></trkpt><trkpt lat="42.29727547663265" lon="14.042158108750867"><ele>79.0</ele><time>2026-04-23T13:20:30Z</time></trkpt><trkpt lat="42.297353941272625" lon="14.042338079364098"><ele>81.66666666666666</ele><time>2026-04-23T13:20:31Z</time></trkpt><trkpt lat="42.2974261768615" lon="14.042534190700437"><ele>84.33333333333333</ele><time>2026-04-23T13:20:32Z</time></trkpt><trkpt lat="42.29747694048985" lon="14.042747890170316"><ele>87.0</ele><time>2026-04-23T13:20:33Z</time></trkpt><trkpt lat="42.297525725949605" lon="14.042965725796368"><ele>87.0</ele><time>2026-04-23T13:20:34Z</time></trkpt><trkpt lat="42.29756762586046" lon="14.04316643356903"><ele>87.0</ele><time>2026-04-23T13:20:35Z</time></trkpt><trkpt lat="42.297609916600344" lon="14.043371472669433"><ele>87.0</ele><time>2026-04-23T13:20:36Z</time></trkpt><trkpt lat="42.297654059216875" lon="14.043585974966188"><ele>87.0</ele><time>2026-04-23T13:20:37Z</time></trkpt><trkpt lat="42.29770152176072" lon="14.043818088121656"><ele>87.0</ele><time>2026-04-23T13:20:38Z</time></trkpt><trkpt lat="42.2977469667753" lon="14.044040334562075"><ele>87.0</ele><time>2026-04-23T13:20:39Z</time></trkpt><trkpt lat="42.29779292781071" lon="14.044268660845585"><ele>87.0</ele><time>2026-04-23T13:20:40Z</time></trkpt><trkpt lat="42.29784019130217" lon="14.044490826432511"><ele>87.0</ele><time>2026-04-23T13:20:41Z</time></trkpt><trkpt lat="42.297904865644924" lon="14.04470187070274"><ele>87.0</ele><time>2026-04-23T13:20:42Z</time></trkpt><trkpt lat="42.29798446659596" lon="14.044911327600254"><ele>87.66666666666667</ele><time>2026-04-23T13:20:43Z</time></trkpt><trkpt lat="42.298078635325176" lon="14.04511874007208"><ele>88.33333333333334</ele><time>2026-04-23T13:20:44Z</time></trkpt><trkpt lat="42.298183812988405" lon="14.045338051926116"><ele>89.0</ele><time>2026-04-23T13:20:45Z</time></trkpt><trkpt lat="42.298297981347346" lon="14.045575223207896"><ele>84.5</ele><time>2026-04-23T13:20:46Z</time></trkpt><trkpt lat="42.29842001898396" lon="14.045828605122582"><ele>80.0</ele><time>2026-04-23T13:20:47Z</time></trkpt><trkpt lat="42.29854478651873" lon="14.046087803932712"><ele>80.0</ele><time>2026-04-23T13:20:48Z</time></trkpt><trkpt lat="42.29867043412522" lon="14.046348829312166"><ele>80.0</ele><time>2026-04-23T13:20:49Z</time></trkpt><trkpt lat="42.29881121611712" lon="14.04661204898449"><ele>77.0</ele><time>2026-04-23T13:20:50Z</time></trkpt><trkpt lat="42.2989382038682" lon="14.046903076531605"><ele>74.0</ele><time>2026-04-23T13:20:51Z</time></trkpt><trkpt lat="42.29909033000759" lon="14.047222581146954"><ele>76.0</ele><time>2026-04-23T13:20:52Z</time></trkpt><trkpt lat="42.29926158138638" lon="14.047575871461621"><ele>78.0</ele><time>2026-04-23T13:20:53Z</time></trkpt><trkpt lat="42.29942503487291" lon="14.047920570992725"><ele>78.0</ele><time>2026-04-23T13:20:54Z</time></trkpt><trkpt lat="42.2995708238569" lon="14.048219881896536"><ele>78.0</ele><time>2026-04-23T13:20:55Z</time></trkpt><trkpt lat="42.29970378498112" lon="14.048497451258413"><ele>76.33333333333333</ele><time>2026-04-23T13:20:56Z</time></trkpt><trkpt lat="42.299826545360524" lon="14.048760449207792"><ele>74.66666666666666</ele><time>2026-04-23T13:20:57Z</time></trkpt><trkpt lat="42.299940389444174" lon="14.049005532709653"><ele>73.0</ele><time>2026-04-23T13:20:58Z</time></trkpt><trkpt lat="42.30006491923908" lon="14.049225700618981"><ele>73.0</ele><time>2026-04-23T13:20:59Z</time></trkpt><trkpt lat="42.3002118536919" lon="14.049448950884068"><ele>73.0</ele><time>2026-04-23T13:21:00Z</time></trkpt><trkpt lat="42.30038453814256" lon="14.049655059502989"><ele>73.0</ele><time>2026-04-23T13:21:01Z</time></trkpt><trkpt lat="42.30056753650692" lon="14.04985857720861"><ele>73.0</ele><time>2026-04-23T13:21:02Z</time></trkpt><trkpt lat="42.30077467418919" lon="14.050048704443673"><ele>72.0</ele><time>2026-04-23T13:21:03Z</time></trkpt><trkpt lat="42.30096920404907" lon="14.050226450445644"><ele>71.0</ele><time>2026-04-23T13:21:03.999Z</time></trkpt><trkpt lat="42.301135246399916" lon="14.050404403786901"><ele>70.0</ele><time>2026-04-23T13:21:04.999Z</time></trkpt><trkpt lat="42.30132131718072" lon="14.050583576981616"><ele>68.0</ele><time>2026-04-23T13:21:05.999Z</time></trkpt><trkpt lat="42.30150299201463" lon="14.050759378530392"><ele>66.0</ele><time>2026-04-23T13:21:06.999Z</time></trkpt><trkpt lat="42.30167296983149" lon="14.05092442241958"><ele>64.0</ele><time>2026-04-23T13:21:07.999Z</time></trkpt><trkpt lat="42.301841181072255" lon="14.051085582307639"><ele>64.0</ele><time>2026-04-23T13:21:08.999Z</time></trkpt><trkpt lat="42.30201059758525" lon="14.051248824415774"><ele>64.0</ele><time>2026-04-23T13:21:09.999Z</time></trkpt><trkpt lat="42.30217293363986" lon="14.051419250813542"><ele>64.0</ele><time>2026-04-23T13:21:10.999Z</time></trkpt><trkpt lat="42.30233950736275" lon="14.051589117553156"><ele>63.666666666666664</ele><time>2026-04-23T13:21:11.999Z</time></trkpt><trkpt lat="42.302497997493084" lon="14.051747595603574"><ele>63.33333333333333</ele><time>2026-04-23T13:21:12.999Z</time></trkpt><trkpt lat="42.30264838841473" lon="14.051892784198765"><ele>63.0</ele><time>2026-04-23T13:21:13.999Z</time></trkpt><trkpt lat="42.30279475479712" lon="14.05203115017374"><ele>63.0</ele><time>2026-04-23T13:21:14.999Z</time></trkpt><trkpt lat="42.30294484905312" lon="14.052170984690484"><ele>63.0</ele><time>2026-04-23T13:21:15.999Z</time></trkpt><trkpt lat="42.30309012165583" lon="14.052314509785132"><ele>63.0</ele><time>2026-04-23T13:21:16.999Z</time></trkpt><trkpt lat="42.30323882169224" lon="14.05246239431473"><ele>63.0</ele><time>2026-04-23T13:21:17.999Z</time></trkpt><trkpt lat="42.30338732023573" lon="14.0526130902194"><ele>63.0</ele><time>2026-04-23T13:21:18.999Z</time></trkpt><trkpt lat="42.30354101667408" lon="14.052766500507984"><ele>63.0</ele><time>2026-04-23T13:21:19.999Z</time></trkpt><trkpt lat="42.30369316140534" lon="14.052915716568998"><ele>63.0</ele><time>2026-04-23T13:21:20.999Z</time></trkpt><trkpt lat="42.30385027683179" lon="14.05306660914988"><ele>63.0</ele><time>2026-04-23T13:21:21.999Z</time></trkpt><trkpt lat="42.30400273725103" lon="14.05321580786869"><ele>63.0</ele><time>2026-04-23T13:21:22.999Z</time></trkpt><trkpt lat="42.304154127166306" lon="14.053361115091349"><ele>62.33333333333333</ele><time>2026-04-23T13:21:23.999Z</time></trkpt><trkpt lat="42.304302131074955" lon="14.053508288286105"><ele>61.666666666666664</ele><time>2026-04-23T13:21:24.999Z</time></trkpt><trkpt lat="42.30444981769052" lon="14.053652370849958"><ele>61.0</ele><time>2026-04-23T13:21:25.999Z</time></trkpt><trkpt lat="42.30459206450831" lon="14.053795103379432"><ele>61.0</ele><time>2026-04-23T13:21:26.999Z</time></trkpt><trkpt lat="42.30473814690496" lon="14.05393086682327"><ele>61.0</ele><time>2026-04-23T13:21:27.999Z</time></trkpt><trkpt lat="42.30488014260901" lon="14.05405363494278"><ele>61.0</ele><time>2026-04-23T13:21:28.999Z</time></trkpt><trkpt lat="42.30503301648849" lon="14.05416040069826"><ele>61.0</ele><time>2026-04-23T13:21:29.999Z</time></trkpt><trkpt lat="42.30518667927761" lon="14.054252265494092"><ele>61.0</ele><time>2026-04-23T13:21:30.999Z</time></trkpt><trkpt lat="42.30533108597952" lon="14.054334166530055"><ele>61.0</ele><time>2026-04-23T13:21:31.999Z</time></trkpt><trkpt lat="42.30548056199781" lon="14.054416384684188"><ele>61.666666666666664</ele><time>2026-04-23T13:21:32.999Z</time></trkpt><trkpt lat="42.305640381352916" lon="14.054507316313776"><ele>62.33333333333333</ele><time>2026-04-23T13:21:33.999Z</time></trkpt><trkpt lat="42.30581142924553" lon="14.054608400094297"><ele>63.0</ele><time>2026-04-23T13:21:34.999Z</time></trkpt><trkpt lat="42.30600284395811" lon="14.054718276273135"><ele>63.0</ele><time>2026-04-23T13:21:35.999Z</time></trkpt><trkpt lat="42.30620923307587" lon="14.05483683761293"><ele>63.0</ele><time>2026-04-23T13:21:36.999Z</time></trkpt><trkpt lat="42.30643204950486" lon="14.054965963549094"><ele>62.0</ele><time>2026-04-23T13:21:37.999Z</time></trkpt><trkpt lat="42.306686476661426" lon="14.055129487580746"><ele>61.0</ele><time>2026-04-23T13:21:39Z</time></trkpt><trkpt lat="42.30696476597173" lon="14.055291593700302"><ele>61.5</ele><time>2026-04-23T13:21:40Z</time></trkpt><trkpt lat="42.30725944906829" lon="14.0554442963526"><ele>62.0</ele><time>2026-04-23T13:21:41Z</time></trkpt><trkpt lat="42.30756208377569" lon="14.055638102454607"><ele>62.5</ele><time>2026-04-23T13:21:42Z</time></trkpt><trkpt lat="42.30786838641039" lon="14.055819377046854"><ele>63.0</ele><time>2026-04-23T13:21:43Z</time></trkpt><trkpt lat="42.30814684986195" lon="14.05597331452607"><ele>63.0</ele><time>2026-04-23T13:21:44Z</time></trkpt><trkpt lat="42.3083947238776" lon="14.056115635543597"><ele>63.0</ele><time>2026-04-23T13:21:45Z</time></trkpt><trkpt lat="42.30862294913534" lon="14.0562580832385"><ele>63.0</ele><time>2026-04-23T13:21:46Z</time></trkpt><trkpt lat="42.30882664389538" lon="14.056400160814798"><ele>63.0</ele><time>2026-04-23T13:21:47Z</time></trkpt><trkpt lat="42.30901405237375" lon="14.056557837412962"><ele>63.33333333333333</ele><time>2026-04-23T13:21:48Z</time></trkpt><trkpt lat="42.309188122742555" lon="14.05675668923517"><ele>63.666666666666664</ele><time>2026-04-23T13:21:49Z</time></trkpt><trkpt lat="42.30934358778149" lon="14.05696731211281"><ele>64.0</ele><time>2026-04-23T13:21:50Z</time></trkpt><trkpt lat="42.30947340984561" lon="14.057229352351676"><ele>64.0</ele><time>2026-04-23T13:21:51Z</time></trkpt><trkpt lat="42.30963495235495" lon="14.057492878800101"><ele>64.0</ele><time>2026-04-23T13:21:52Z</time></trkpt><trkpt lat="42.309785255930706" lon="14.057796891858057"><ele>64.0</ele><time>2026-04-23T13:21:53Z</time></trkpt><trkpt lat="42.3099629244385" lon="14.058113997184421"><ele>64.0</ele><time>2026-04-23T13:21:54Z</time></trkpt><trkpt lat="42.31014492030767" lon="14.058439018779579"><ele>65.5</ele><time>2026-04-23T13:21:55Z</time></trkpt><trkpt lat="42.31030470519908" lon="14.058731047781336"><ele>67.0</ele><time>2026-04-23T13:21:56Z</time></trkpt><trkpt lat="42.3104519387263" lon="14.058994602059308"><ele>67.0</ele><time>2026-04-23T13:21:57Z</time></trkpt><trkpt lat="42.31058372221089" lon="14.059242445663282"><ele>67.0</ele><time>2026-04-23T13:21:58Z</time></trkpt><trkpt lat="42.31070275625312" lon="14.059464099193335"><ele>67.0</ele><time>2026-04-23T13:21:59Z</time></trkpt><trkpt lat="42.3108080667405" lon="14.059656056464457"><ele>67.0</ele><time>2026-04-23T13:22:00Z</time></trkpt><trkpt lat="42.31090110194311" lon="14.059837378724156"><ele>67.0</ele><time>2026-04-23T13:22:01Z</time></trkpt><trkpt lat="42.31100557787469" lon="14.060034674531577"><ele>67.0</ele><time>2026-04-23T13:22:02Z</time></trkpt><trkpt lat="42.3111249412248" lon="14.06024012343175"><ele>67.5</ele><time>2026-04-23T13:22:03Z</time></trkpt><trkpt lat="42.31125019879912" lon="14.06046961340928"><ele>68.0</ele><time>2026-04-23T13:22:04Z</time></trkpt><trkpt lat="42.311399763605195" lon="14.060730656914304"><ele>67.0</ele><time>2026-04-23T13:22:05Z</time></trkpt><trkpt lat="42.31155765996984" lon="14.061009810563558"><ele>66.0</ele><time>2026-04-23T13:22:06Z</time></trkpt><trkpt lat="42.31172321221283" lon="14.06129863547928"><ele>66.0</ele><time>2026-04-23T13:22:07Z</time></trkpt><trkpt lat="42.311886634890456" lon="14.061596536541392"><ele>66.0</ele><time>2026-04-23T13:22:08Z</time></trkpt><trkpt lat="42.312053350405385" lon="14.061905414488749"><ele>65.5</ele><time>2026-04-23T13:22:09Z</time></trkpt><trkpt lat="42.31222113232307" lon="14.06221609428621"><ele>65.0</ele><time>2026-04-23T13:22:10Z</time></trkpt><trkpt lat="42.31238146031375" lon="14.06250652433323"><ele>65.0</ele><time>2026-04-23T13:22:11Z</time></trkpt><trkpt lat="42.31252511729841" lon="14.062768765312851"><ele>65.0</ele><time>2026-04-23T13:22:12Z</time></trkpt><trkpt lat="42.312666452216334" lon="14.063013061934136"><ele>65.0</ele><time>2026-04-23T13:22:13Z</time></trkpt><trkpt lat="42.312800901882895" lon="14.063254837235784"><ele>65.0</ele><time>2026-04-23T13:22:14Z</time></trkpt><trkpt lat="42.312936039084214" lon="14.063499467320005"><ele>65.0</ele><time>2026-04-23T13:22:15Z</time></trkpt><trkpt lat="42.31305213869667" lon="14.063744550775507"><ele>65.33333333333334</ele><time>2026-04-23T13:22:16Z</time></trkpt><trkpt lat="42.31315974566972" lon="14.06400374865452"><ele>65.66666666666667</ele><time>2026-04-23T13:22:17Z</time></trkpt><trkpt lat="42.31325712465922" lon="14.064278661508936"><ele>66.0</ele><time>2026-04-23T13:22:18Z</time></trkpt><trkpt lat="42.31334505105565" lon="14.064562409942573"><ele>66.66666666666667</ele><time>2026-04-23T13:22:19Z</time></trkpt><trkpt lat="42.31342192396524" lon="14.064846476084144"><ele>67.33333333333334</ele><time>2026-04-23T13:22:20Z</time></trkpt><trkpt lat="42.31348401276158" lon="14.065134868166961"><ele>68.0</ele><time>2026-04-23T13:22:21Z</time></trkpt><trkpt lat="42.313533124151824" lon="14.065431346844399"><ele>68.5</ele><time>2026-04-23T13:22:22Z</time></trkpt><trkpt lat="42.31356863715814" lon="14.065752447648592"><ele>69.0</ele><time>2026-04-23T13:22:23Z</time></trkpt><trkpt lat="42.313595978955085" lon="14.06610154430987"><ele>68.0</ele><time>2026-04-23T13:22:24Z</time></trkpt><trkpt lat="42.31362437278111" lon="14.066475203570791"><ele>67.0</ele><time>2026-04-23T13:22:25Z</time></trkpt><trkpt lat="42.313652156014996" lon="14.066865871026426"><ele>67.0</ele><time>2026-04-23T13:22:26Z</time></trkpt><trkpt lat="42.31369263714184" lon="14.067277810570019"><ele>67.0</ele><time>2026-04-23T13:22:27Z</time></trkpt><trkpt lat="42.313737626426" lon="14.067710443218553"><ele>67.0</ele><time>2026-04-23T13:22:28Z</time></trkpt><trkpt lat="42.31378176567931" lon="14.068172257874688"><ele>67.0</ele><time>2026-04-23T13:22:29Z</time></trkpt><trkpt lat="42.31382481632302" lon="14.068648745846156"><ele>67.0</ele><time>2026-04-23T13:22:30Z</time></trkpt><trkpt lat="42.31386726295788" lon="14.069097663486426"><ele>67.0</ele><time>2026-04-23T13:22:31Z</time></trkpt><trkpt lat="42.31390030992385" lon="14.069480931590016"><ele>66.5</ele><time>2026-04-23T13:22:32Z</time></trkpt><trkpt lat="42.31393299350616" lon="14.069828819438685"><ele>66.0</ele><time>2026-04-23T13:22:33Z</time></trkpt><trkpt lat="42.31396516384255" lon="14.070157084128162"><ele>66.0</ele><time>2026-04-23T13:22:34Z</time></trkpt><trkpt lat="42.313995926635066" lon="14.070460452299319"><ele>66.0</ele><time>2026-04-23T13:22:35Z</time></trkpt><trkpt lat="42.314029024118135" lon="14.070747679596053"><ele>66.0</ele><time>2026-04-23T13:22:36Z</time></trkpt><trkpt lat="42.3140507408423" lon="14.071016419139715"><ele>66.33333333333333</ele><time>2026-04-23T13:22:37Z</time></trkpt><trkpt lat="42.31407425558216" lon="14.071276146043452"><ele>66.66666666666666</ele><time>2026-04-23T13:22:38Z</time></trkpt><trkpt lat="42.31410053200945" lon="14.071515892734581"><ele>67.0</ele><time>2026-04-23T13:22:39Z</time></trkpt><trkpt lat="42.314135144015594" lon="14.071790444932676"><ele>67.5</ele><time>2026-04-23T13:22:40Z</time></trkpt><trkpt lat="42.31416968942578" lon="14.072112651183318"><ele>68.0</ele><time>2026-04-23T13:22:41Z</time></trkpt><trkpt lat="42.31418614735178" lon="14.072447061145482"><ele>68.0</ele><time>2026-04-23T13:22:42Z</time></trkpt><trkpt lat="42.314206398874894" lon="14.072766442979999"><ele>68.0</ele><time>2026-04-23T13:22:43Z</time></trkpt><trkpt lat="42.31422330018584" lon="14.073052645594673"><ele>68.0</ele><time>2026-04-23T13:22:44Z</time></trkpt><trkpt lat="42.31425340860027" lon="14.073320708201177"><ele>67.66666666666667</ele><time>2026-04-23T13:22:45Z</time></trkpt><trkpt lat="42.31428350083552" lon="14.073576275843491"><ele>67.33333333333333</ele><time>2026-04-23T13:22:46Z</time></trkpt><trkpt lat="42.31430729917873" lon="14.073818117039263"><ele>67.0</ele><time>2026-04-23T13:22:47Z</time></trkpt><trkpt lat="42.31432880416452" lon="14.074040541503605"><ele>67.25</ele><time>2026-04-23T13:22:48Z</time></trkpt><trkpt lat="42.31435052516051" lon="14.07423995499876"><ele>67.5</ele><time>2026-04-23T13:22:49Z</time></trkpt><trkpt lat="42.31438540018606" lon="14.074422483541214"><ele>67.75</ele><time>2026-04-23T13:22:50Z</time></trkpt><trkpt lat="42.314444721361845" lon="14.074589024221591"><ele>68.0</ele><time>2026-04-23T13:22:51Z</time></trkpt><trkpt lat="42.3145178859203" lon="14.074737574786598"><ele>68.0</ele><time>2026-04-23T13:22:52Z</time></trkpt><trkpt lat="42.31458713040173" lon="14.074856954709025"><ele>68.0</ele><time>2026-04-23T13:22:53Z</time></trkpt><trkpt lat="42.31463377873594" lon="14.07495348089776"><ele>68.0</ele><time>2026-04-23T13:22:54Z</time></trkpt><trkpt lat="42.31465710922762" lon="14.07505078280598"><ele>68.0</ele><time>2026-04-23T13:22:55Z</time></trkpt><trkpt lat="42.3146460108932" lon="14.075156020489521"><ele>68.0</ele><time>2026-04-23T13:22:56Z</time></trkpt><trkpt lat="42.314625118898356" lon="14.07526800402374"><ele>68.0</ele><time>2026-04-23T13:22:57Z</time></trkpt><trkpt lat="42.31464812359868" lon="14.075385638868779"><ele>68.0</ele><time>2026-04-23T13:22:58Z</time></trkpt><trkpt lat="42.31471094882939" lon="14.07553039022424"><ele>68.0</ele><time>2026-04-23T13:22:59Z</time></trkpt><trkpt lat="42.31479696359064" lon="14.075716875987505"><ele>68.0</ele><time>2026-04-23T13:23:00Z</time></trkpt><trkpt lat="42.314896592134865" lon="14.075929236169712"><ele>68.33333333333334</ele><time>2026-04-23T13:23:01Z</time></trkpt><trkpt lat="42.31500658008329" lon="14.076126193631481"><ele>68.66666666666667</ele><time>2026-04-23T13:23:02Z</time></trkpt><trkpt lat="42.31508960913832" lon="14.07630235394886"><ele>69.0</ele><time>2026-04-23T13:23:03Z</time></trkpt><trkpt lat="42.31516391645409" lon="14.076463577667289"><ele>69.0</ele><time>2026-04-23T13:23:04Z</time></trkpt><trkpt lat="42.31523729228877" lon="14.076613624203837"><ele>69.0</ele><time>2026-04-23T13:23:05Z</time></trkpt><trkpt lat="42.315317755379375" lon="14.076776592337636"><ele>69.0</ele><time>2026-04-23T13:23:06Z</time></trkpt><trkpt lat="42.3154094506226" lon="14.07696052706162"><ele>69.0</ele><time>2026-04-23T13:23:07Z</time></trkpt><trkpt lat="42.31550512269848" lon="14.077156823094148"><ele>68.75</ele><time>2026-04-23T13:23:07.999Z</time></trkpt><trkpt lat="42.315581217348615" lon="14.077335738777515"><ele>68.5</ele><time>2026-04-23T13:23:08.999Z</time></trkpt><trkpt lat="42.315653606928656" lon="14.077491631149128"><ele>68.25</ele><time>2026-04-23T13:23:09.999Z</time></trkpt><trkpt lat="42.315725268674335" lon="14.077636913661017"><ele>68.0</ele><time>2026-04-23T13:23:10.999Z</time></trkpt><trkpt lat="42.31579641381426" lon="14.077778530028061"><ele>68.0</ele><time>2026-04-23T13:23:11.999Z</time></trkpt><trkpt lat="42.315880225904195" lon="14.077945661752779"><ele>68.0</ele><time>2026-04-23T13:23:12.999Z</time></trkpt><trkpt lat="42.31597726317446" lon="14.078137932143933"><ele>68.0</ele><time>2026-04-23T13:23:13.999Z</time></trkpt><trkpt lat="42.316078816222486" lon="14.078355485687615"><ele>68.0</ele><time>2026-04-23T13:23:14.999Z</time></trkpt><trkpt lat="42.316178428251305" lon="14.078585707566523"><ele>68.0</ele><time>2026-04-23T13:23:15.999Z</time></trkpt><trkpt lat="42.31628116811976" lon="14.078821513856125"><ele>68.0</ele><time>2026-04-23T13:23:16.999Z</time></trkpt><trkpt lat="42.31638785266698" lon="14.07905109462123"><ele>67.66666666666667</ele><time>2026-04-23T13:23:17.999Z</time></trkpt><trkpt lat="42.316495665058135" lon="14.079265470628659"><ele>67.33333333333333</ele><time>2026-04-23T13:23:18.999Z</time></trkpt><trkpt lat="42.316596275188516" lon="14.079474220628454"><ele>67.0</ele><time>2026-04-23T13:23:19.999Z</time></trkpt><trkpt lat="42.3166972830895" lon="14.079682128866063"><ele>67.0</ele><time>2026-04-23T13:23:20.999Z</time></trkpt><trkpt lat="42.31679799204868" lon="14.079893430030115"><ele>67.0</ele><time>2026-04-23T13:23:21.999Z</time></trkpt><trkpt lat="42.31690167555661" lon="14.080109915163316"><ele>67.0</ele><time>2026-04-23T13:23:22.999Z</time></trkpt><trkpt lat="42.31700812141071" lon="14.080326131875058"><ele>67.0</ele><time>2026-04-23T13:23:23.999Z</time></trkpt><trkpt lat="42.31711473350572" lon="14.08054470858253"><ele>67.0</ele><time>2026-04-23T13:23:24.999Z</time></trkpt><trkpt lat="42.317219863081014" lon="14.080767051176188"><ele>67.0</ele><time>2026-04-23T13:23:25.999Z</time></trkpt><trkpt lat="42.31732304144776" lon="14.080990231701776"><ele>66.33333333333333</ele><time>2026-04-23T13:23:26.999Z</time></trkpt><trkpt lat="42.31742649767729" lon="14.081205832752566"><ele>65.66666666666667</ele><time>2026-04-23T13:23:27.999Z</time></trkpt><trkpt lat="42.31752617977155" lon="14.081410278923263"><ele>65.0</ele><time>2026-04-23T13:23:28.999Z</time></trkpt><trkpt lat="42.31762365115618" lon="14.081603610048337"><ele>64.66666666666667</ele><time>2026-04-23T13:23:29.999Z</time></trkpt><trkpt lat="42.31771433597076" lon="14.081801245337344"><ele>64.33333333333333</ele><time>2026-04-23T13:23:30.999Z</time></trkpt><trkpt lat="42.31780312262341" lon="14.081986022165053"><ele>64.0</ele><time>2026-04-23T13:23:31.999Z</time></trkpt><trkpt lat="42.31788532769381" lon="14.082151115523969"><ele>64.0</ele><time>2026-04-23T13:23:32.999Z</time></trkpt><trkpt lat="42.317965857179736" lon="14.0823184225753"><ele>64.0</ele><time>2026-04-23T13:23:33.999Z</time></trkpt><trkpt lat="42.318051384352984" lon="14.082494888973075"><ele>64.0</ele><time>2026-04-23T13:23:34.999Z</time></trkpt><trkpt lat="42.31813831639739" lon="14.082680854900676"><ele>64.0</ele><time>2026-04-23T13:23:35.999Z</time></trkpt><trkpt lat="42.3182291476685" lon="14.082876043564093"><ele>64.0</ele><time>2026-04-23T13:23:36.999Z</time></trkpt><trkpt lat="42.31832449432904" lon="14.083081379222541"><ele>64.0</ele><time>2026-04-23T13:23:37.999Z</time></trkpt><trkpt lat="42.31843267395375" lon="14.083300130819843"><ele>63.666666666666664</ele><time>2026-04-23T13:23:38.999Z</time></trkpt><trkpt lat="42.31854212029455" lon="14.083523745216423"><ele>63.33333333333333</ele><time>2026-04-23T13:23:39.999Z</time></trkpt><trkpt lat="42.31865258843711" lon="14.083753516439439"><ele>63.0</ele><time>2026-04-23T13:23:40.999Z</time></trkpt><trkpt lat="42.31875952243468" lon="14.083977657004867"><ele>63.0</ele><time>2026-04-23T13:23:41.999Z</time></trkpt><trkpt lat="42.318862580927096" lon="14.084193129559255"><ele>63.0</ele><time>2026-04-23T13:23:42.999Z</time></trkpt><trkpt lat="42.31896211548532" lon="14.08440395601295"><ele>63.0</ele><time>2026-04-23T13:23:43.999Z</time></trkpt><trkpt lat="42.31906548599655" lon="14.084619132315696"><ele>63.0</ele><time>2026-04-23T13:23:45Z</time></trkpt><trkpt lat="42.319158572080084" lon="14.084817456914829"><ele>63.0</ele><time>2026-04-23T13:23:46Z</time></trkpt><trkpt lat="42.31924880141215" lon="14.085005229853445"><ele>63.0</ele><time>2026-04-23T13:23:47Z</time></trkpt><trkpt lat="42.31933991903523" lon="14.085189882515147"><ele>62.66666666666667</ele><time>2026-04-23T13:23:48Z</time></trkpt><trkpt lat="42.31943024144415" lon="14.08537230843241"><ele>62.333333333333336</ele><time>2026-04-23T13:23:49Z</time></trkpt><trkpt lat="42.3195179239831" lon="14.085553101912742"><ele>62.0</ele><time>2026-04-23T13:23:50Z</time></trkpt><trkpt lat="42.319599621634175" lon="14.085727098406764"><ele>61.75</ele><time>2026-04-23T13:23:51Z</time></trkpt><trkpt lat="42.319677958600664" lon="14.085891234755072"><ele>61.5</ele><time>2026-04-23T13:23:52Z</time></trkpt><trkpt lat="42.31974924732742" lon="14.086046367070555"><ele>61.25</ele><time>2026-04-23T13:23:53Z</time></trkpt><trkpt lat="42.31981880952342" lon="14.08618689998435"><ele>61.0</ele><time>2026-04-23T13:23:54Z</time></trkpt><trkpt lat="42.319883241854946" lon="14.08631947323483"><ele>61.0</ele><time>2026-04-23T13:23:55Z</time></trkpt><trkpt lat="42.31994352435368" lon="14.086446934288281"><ele>61.0</ele><time>2026-04-23T13:23:56Z</time></trkpt><trkpt lat="42.3200069929046" lon="14.086582778123459"><ele>61.0</ele><time>2026-04-23T13:23:57Z</time></trkpt><trkpt lat="42.320073676318906" lon="14.086721364521512"><ele>61.0</ele><time>2026-04-23T13:23:58Z</time></trkpt><trkpt lat="42.32014184913582" lon="14.08686412864409"><ele>61.0</ele><time>2026-04-23T13:23:59Z</time></trkpt><trkpt lat="42.32021187305594" lon="14.087011120727029"><ele>61.0</ele><time>2026-04-23T13:24:00Z</time></trkpt><trkpt lat="42.32027746094487" lon="14.087163004316704"><ele>61.0</ele><time>2026-04-23T13:24:01Z</time></trkpt><trkpt lat="42.320338713673436" lon="14.087318487201383"><ele>61.0</ele><time>2026-04-23T13:24:02Z</time></trkpt><trkpt lat="42.320426188073945" lon="14.087447281195963"><ele>61.0</ele><time>2026-04-23T13:24:03Z</time></trkpt><trkpt lat="42.32049787067158" lon="14.087595203285023"><ele>61.0</ele><time>2026-04-23T13:24:04Z</time></trkpt><trkpt lat="42.32056281494986" lon="14.087736479098622"><ele>61.0</ele><time>2026-04-23T13:24:05Z</time></trkpt><trkpt lat="42.32063156376799" lon="14.087876237910459"><ele>61.0</ele><time>2026-04-23T13:24:06Z</time></trkpt><trkpt lat="42.32069868797474" lon="14.088023797558174"><ele>60.666666666666664</ele><time>2026-04-23T13:24:07Z</time></trkpt><trkpt lat="42.32077144217943" lon="14.0881714940301"><ele>60.33333333333333</ele><time>2026-04-23T13:24:08Z</time></trkpt><trkpt lat="42.320842816713736" lon="14.088358146058798"><ele>60.0</ele><time>2026-04-23T13:24:09Z</time></trkpt><trkpt lat="42.320960927162986" lon="14.08855356702733"><ele>60.0</ele><time>2026-04-23T13:24:10Z</time></trkpt><trkpt lat="42.32107530929523" lon="14.088793077893078"><ele>60.0</ele><time>2026-04-23T13:24:11Z</time></trkpt><trkpt lat="42.32118927012208" lon="14.089026973730643"><ele>60.0</ele><time>2026-04-23T13:24:12Z</time></trkpt><trkpt lat="42.32130758916665" lon="14.089249002131606"><ele>59.66666666666667</ele><time>2026-04-23T13:24:13Z</time></trkpt><trkpt lat="42.32141731840158" lon="14.089463321169546"><ele>59.333333333333336</ele><time>2026-04-23T13:24:14Z</time></trkpt><trkpt lat="42.321479933575795" lon="14.089687228353048"><ele>59.0</ele><time>2026-04-23T13:24:15Z</time></trkpt><trkpt lat="42.321573960387546" lon="14.089880968392826"><ele>58.66666666666667</ele><time>2026-04-23T13:24:16Z</time></trkpt><trkpt lat="42.32166491853634" lon="14.090072411250029"><ele>58.33333333333333</ele><time>2026-04-23T13:24:17Z</time></trkpt><trkpt lat="42.321752080688334" lon="14.090254172035165"><ele>58.0</ele><time>2026-04-23T13:24:18Z</time></trkpt><trkpt lat="42.32183113236794" lon="14.090418912672456"><ele>58.0</ele><time>2026-04-23T13:24:19Z</time></trkpt><trkpt lat="42.321926873442685" lon="14.090587844022913"><ele>58.0</ele><time>2026-04-23T13:24:20Z</time></trkpt><trkpt lat="42.322009194515374" lon="14.09075443668521"><ele>58.0</ele><time>2026-04-23T13:24:21Z</time></trkpt><trkpt lat="42.32208320882265" lon="14.09090539924972"><ele>58.0</ele><time>2026-04-23T13:24:22Z</time></trkpt><trkpt lat="42.32214926678556" lon="14.09105408645488"><ele>58.0</ele><time>2026-04-23T13:24:23Z</time></trkpt><trkpt lat="42.3222169098329" lon="14.091197583404572"><ele>58.0</ele><time>2026-04-23T13:24:24Z</time></trkpt><trkpt lat="42.32228009248028" lon="14.091328952349114"><ele>58.0</ele><time>2026-04-23T13:24:25Z</time></trkpt><trkpt lat="42.32234522321144" lon="14.091458880890988"><ele>58.0</ele><time>2026-04-23T13:24:26Z</time></trkpt><trkpt lat="42.322398972395646" lon="14.091607173778447"><ele>58.25</ele><time>2026-04-23T13:24:27Z</time></trkpt><trkpt lat="42.32246899528202" lon="14.091752577176146"><ele>58.5</ele><time>2026-04-23T13:24:28Z</time></trkpt><trkpt lat="42.3225479542389" lon="14.091878471385028"><ele>58.75</ele><time>2026-04-23T13:24:29Z</time></trkpt><trkpt lat="42.322605381854885" lon="14.092016108716107"><ele>59.0</ele><time>2026-04-23T13:24:30Z</time></trkpt><trkpt lat="42.32266082339776" lon="14.092142302445314"><ele>59.0</ele><time>2026-04-23T13:24:31Z</time></trkpt><trkpt lat="42.32271530044584" lon="14.092276636093958"><ele>59.00000000000001</ele><time>2026-04-23T13:24:32Z</time></trkpt><trkpt lat="42.322774528216634" lon="14.092411669222225"><ele>59.00000000000001</ele><time>2026-04-23T13:24:33Z</time></trkpt><trkpt lat="42.32283385849502" lon="14.092528105393342"><ele>59.0</ele><time>2026-04-23T13:24:34Z</time></trkpt><trkpt lat="42.32289426488773" lon="14.092638023857004"><ele>59.0</ele><time>2026-04-23T13:24:35Z</time></trkpt><trkpt lat="42.32295127147517" lon="14.0927433687479"><ele>58.800000000000004</ele><time>2026-04-23T13:24:36Z</time></trkpt><trkpt lat="42.32300344878366" lon="14.092842385289185"><ele>58.60000000000001</ele><time>2026-04-23T13:24:37Z</time></trkpt><trkpt lat="42.323049367004614" lon="14.092965250853002"><ele>58.4</ele><time>2026-04-23T13:24:38Z</time></trkpt><trkpt lat="42.32311353878662" lon="14.093101241398818"><ele>58.2</ele><time>2026-04-23T13:24:39Z</time></trkpt><trkpt lat="42.32317231259302" lon="14.093225726419153"><ele>58.0</ele><time>2026-04-23T13:24:40Z</time></trkpt><trkpt lat="42.32322560536191" lon="14.093336654936865"><ele>58.0</ele><time>2026-04-23T13:24:41Z</time></trkpt><trkpt lat="42.32327583498431" lon="14.093442107304895"><ele>58.0</ele><time>2026-04-23T13:24:42Z</time></trkpt><trkpt lat="42.32333382571162" lon="14.093526241280525"><ele>58.0</ele><time>2026-04-23T13:24:43Z</time></trkpt><trkpt lat="42.323382952334406" lon="14.093627937287296"><ele>58.0</ele><time>2026-04-23T13:24:44Z</time></trkpt><trkpt lat="42.3234434070016" lon="14.09375259518045"><ele>58.0</ele><time>2026-04-23T13:24:45Z</time></trkpt><trkpt lat="42.32349665381909" lon="14.093924158083574"><ele>58.0</ele><time>2026-04-23T13:24:46Z</time></trkpt><trkpt lat="42.323562295124106" lon="14.094107389051144"><ele>58.0</ele><time>2026-04-23T13:24:47Z</time></trkpt><trkpt lat="42.32362813009845" lon="14.09428178680634"><ele>58.0</ele><time>2026-04-23T13:24:48Z</time></trkpt><trkpt lat="42.32364981119864" lon="14.094461504814477"><ele>58.0</ele><time>2026-04-23T13:24:49Z</time></trkpt><trkpt lat="42.32368336692771" lon="14.094622010485875"><ele>58.0</ele><time>2026-04-23T13:24:50Z</time></trkpt><trkpt lat="42.32372948567721" lon="14.094764345149258"><ele>58.0</ele><time>2026-04-23T13:24:51Z</time></trkpt><trkpt lat="42.32375511323288" lon="14.094898270161162"><ele>58.0</ele><time>2026-04-23T13:24:52Z</time></trkpt><trkpt lat="42.323765728368976" lon="14.095027320624965"><ele>58.0</ele><time>2026-04-23T13:24:53Z</time></trkpt><trkpt lat="42.323788144490194" lon="14.095138879927713"><ele>58.0</ele><time>2026-04-23T13:24:54Z</time></trkpt><trkpt lat="42.32382189571042" lon="14.095259804951567"><ele>58.0</ele><time>2026-04-23T13:24:55Z</time></trkpt><trkpt lat="42.32385623031859" lon="14.095418037083977"><ele>58.0</ele><time>2026-04-23T13:24:56Z</time></trkpt><trkpt lat="42.32388613261273" lon="14.095621661725572"><ele>58.0</ele><time>2026-04-23T13:24:57Z</time></trkpt><trkpt lat="42.32392884899713" lon="14.095831344909605"><ele>58.0</ele><time>2026-04-23T13:24:58Z</time></trkpt><trkpt lat="42.323971822982685" lon="14.09604337527408"><ele>58.0</ele><time>2026-04-23T13:24:59Z</time></trkpt><trkpt lat="42.3240151375666" lon="14.09625708613008"><ele>58.0</ele><time>2026-04-23T13:25:00Z</time></trkpt><trkpt lat="42.32405803328928" lon="14.096468979606016"><ele>58.0</ele><time>2026-04-23T13:25:01Z</time></trkpt><trkpt lat="42.32409641403011" lon="14.096659157832326"><ele>58.0</ele><time>2026-04-23T13:25:02Z</time></trkpt><trkpt lat="42.32413080599538" lon="14.096829571510208"><ele>58.0</ele><time>2026-04-23T13:25:03Z</time></trkpt><trkpt lat="42.324163023824994" lon="14.096989212251858"><ele>58.0</ele><time>2026-04-23T13:25:04Z</time></trkpt><trkpt lat="42.32419257386666" lon="14.097135633987703"><ele>58.0</ele><time>2026-04-23T13:25:05Z</time></trkpt><trkpt lat="42.32421990144388" lon="14.09727104331021"><ele>58.0</ele><time>2026-04-23T13:25:06Z</time></trkpt><trkpt lat="42.32424842536395" lon="14.097405004483663"><ele>58.0</ele><time>2026-04-23T13:25:07Z</time></trkpt><trkpt lat="42.32427574221287" lon="14.097530037464038"><ele>58.0</ele><time>2026-04-23T13:25:08Z</time></trkpt><trkpt lat="42.32431161132392" lon="14.097663578109154"><ele>58.0</ele><time>2026-04-23T13:25:09Z</time></trkpt><trkpt lat="42.32435236255984" lon="14.0977941423573"><ele>58.0</ele><time>2026-04-23T13:25:10Z</time></trkpt><trkpt lat="42.32439611106009" lon="14.0979109203305"><ele>57.83333333333333</ele><time>2026-04-23T13:25:11Z</time></trkpt><trkpt lat="42.32443887251863" lon="14.098016478435682"><ele>57.666666666666664</ele><time>2026-04-23T13:25:12Z</time></trkpt><trkpt lat="42.32449248613561" lon="14.098133057052507"><ele>57.5</ele><time>2026-04-23T13:25:13Z</time></trkpt><trkpt lat="42.32454827171718" lon="14.098231911721449"><ele>57.33333333333333</ele><time>2026-04-23T13:25:14Z</time></trkpt><trkpt lat="42.324598182410355" lon="14.098316573171013"><ele>57.166666666666664</ele><time>2026-04-23T13:25:14.999Z</time></trkpt><trkpt lat="42.32464869276346" lon="14.098400101212519"><ele>57.0</ele><time>2026-04-23T13:25:15.999Z</time></trkpt><trkpt lat="42.32469762416676" lon="14.09847949636081"><ele>56.2</ele><time>2026-04-23T13:25:16.999Z</time></trkpt><trkpt lat="42.32475585562973" lon="14.098573711805834"><ele>55.400000000000006</ele><time>2026-04-23T13:25:17.999Z</time></trkpt><trkpt lat="42.324816460674434" lon="14.09867070059837"><ele>54.599999999999994</ele><time>2026-04-23T13:25:18.999Z</time></trkpt><trkpt lat="42.324881745893386" lon="14.098775179267635"><ele>53.8</ele><time>2026-04-23T13:25:19.999Z</time></trkpt><trkpt lat="42.32494071644383" lon="14.098869552309708"><ele>53.0</ele><time>2026-04-23T13:25:20.999Z</time></trkpt><trkpt lat="42.3250176614329" lon="14.098992690600369"><ele>53.75</ele><time>2026-04-23T13:25:21.999Z</time></trkpt><trkpt lat="42.32510742853692" lon="14.099135514893021"><ele>54.5</ele><time>2026-04-23T13:25:22.999Z</time></trkpt><trkpt lat="42.3251904213372" lon="14.099267359182251"><ele>55.25</ele><time>2026-04-23T13:25:23.999Z</time></trkpt><trkpt lat="42.32526646273506" lon="14.099388160313625"><ele>56.0</ele><time>2026-04-23T13:25:24.999Z</time></trkpt><trkpt lat="42.325349717689505" lon="14.099520421068126"><ele>56.0</ele><time>2026-04-23T13:25:25.999Z</time></trkpt><trkpt lat="42.325437448187216" lon="14.099659657374236"><ele>56.0</ele><time>2026-04-23T13:25:26.999Z</time></trkpt><trkpt lat="42.32554262121523" lon="14.099778093285485"><ele>56.0</ele><time>2026-04-23T13:25:27.999Z</time></trkpt><trkpt lat="42.325621974911925" lon="14.09991082907039"><ele>56.0</ele><time>2026-04-23T13:25:28.999Z</time></trkpt><trkpt lat="42.325723430421824" lon="14.100058355944109"><ele>55.25</ele><time>2026-04-23T13:25:29.999Z</time></trkpt><trkpt lat="42.32582487550445" lon="14.100218226790027"><ele>54.5</ele><time>2026-04-23T13:25:30.999Z</time></trkpt><trkpt lat="42.32588948596471" lon="14.100379888216873"><ele>53.75</ele><time>2026-04-23T13:25:31.999Z</time></trkpt><trkpt lat="42.325965984633854" lon="14.10050244226123"><ele>53.0</ele><time>2026-04-23T13:25:32.999Z</time></trkpt><trkpt lat="42.32602889835124" lon="14.100604319505257"><ele>53.00000000000001</ele><time>2026-04-23T13:25:33.999Z</time></trkpt><trkpt lat="42.326090703898814" lon="14.100661549636092"><ele>53.0</ele><time>2026-04-23T13:25:34.999Z</time></trkpt><trkpt lat="42.32611968051" lon="14.100743248987476"><ele>53.0</ele><time>2026-04-23T13:25:35.999Z</time></trkpt><trkpt lat="42.32614398455605" lon="14.100825499461523"><ele>53.0</ele><time>2026-04-23T13:25:36.999Z</time></trkpt><trkpt lat="42.32616399217336" lon="14.100997774062424"><ele>53.00000000000001</ele><time>2026-04-23T13:25:38.999Z</time></trkpt><trkpt lat="42.326174888201535" lon="14.101087195029052"><ele>53.0</ele><time>2026-04-23T13:25:39.999Z</time></trkpt><trkpt lat="42.32625371068355" lon="14.101209267505121"><ele>53.333333333333336</ele><time>2026-04-23T13:25:41.999Z</time></trkpt><trkpt lat="42.32632462857624" lon="14.101253490721367"><ele>53.66666666666667</ele><time>2026-04-23T13:25:42.999Z</time></trkpt><trkpt lat="42.32640309604719" lon="14.10128729541843"><ele>54.0</ele><time>2026-04-23T13:25:43.999Z</time></trkpt><trkpt lat="42.32647856864591" lon="14.101325527058034"><ele>54.33333333333333</ele><time>2026-04-23T13:25:44.999Z</time></trkpt><trkpt lat="42.32653986022999" lon="14.101387205049509"><ele>54.666666666666664</ele><time>2026-04-23T13:25:45.999Z</time></trkpt><trkpt lat="42.32660256798628" lon="14.1014667466014"><ele>55.0</ele><time>2026-04-23T13:25:46.999Z</time></trkpt><trkpt lat="42.32667075018865" lon="14.101574743177647"><ele>55.0</ele><time>2026-04-23T13:25:47.999Z</time></trkpt><trkpt lat="42.32673860656237" lon="14.101721037002978"><ele>55.0</ele><time>2026-04-23T13:25:48.999Z</time></trkpt><trkpt lat="42.32682991723058" lon="14.1018635335896"><ele>55.0</ele><time>2026-04-23T13:25:49.999Z</time></trkpt><trkpt lat="42.32692076735294" lon="14.10201928695423"><ele>55.0</ele><time>2026-04-23T13:25:51Z</time></trkpt><trkpt lat="42.32701116977712" lon="14.102175826896183"><ele>55.0</ele><time>2026-04-23T13:25:52Z</time></trkpt><trkpt lat="42.327088085531834" lon="14.102314086494259"><ele>55.0</ele><time>2026-04-23T13:25:53Z</time></trkpt><trkpt lat="42.327151385769916" lon="14.102447713416261"><ele>55.0</ele><time>2026-04-23T13:25:54Z</time></trkpt><trkpt lat="42.32720612607186" lon="14.10259175181843"><ele>55.0</ele><time>2026-04-23T13:25:55Z</time></trkpt><trkpt lat="42.32725264737001" lon="14.10272946593459"><ele>53.5</ele><time>2026-04-23T13:25:56Z</time></trkpt><trkpt lat="42.32729542048903" lon="14.102861539751254"><ele>52.0</ele><time>2026-04-23T13:25:57Z</time></trkpt><trkpt lat="42.32733860175754" lon="14.102999183855296"><ele>50.5</ele><time>2026-04-23T13:25:58Z</time></trkpt><trkpt lat="42.32738750435049" lon="14.103155065191789"><ele>49.0</ele><time>2026-04-23T13:25:59Z</time></trkpt><trkpt lat="42.32744470111133" lon="14.103337099226437"><ele>49.0</ele><time>2026-04-23T13:26:00Z</time></trkpt><trkpt lat="42.32750631088795" lon="14.103532520632937"><ele>49.0</ele><time>2026-04-23T13:26:01Z</time></trkpt><trkpt lat="42.3275858352195" lon="14.103738818390129"><ele>49.0</ele><time>2026-04-23T13:26:02Z</time></trkpt><trkpt lat="42.32765541917477" lon="14.103965807312816"><ele>48.33333333333333</ele><time>2026-04-23T13:26:03Z</time></trkpt><trkpt lat="42.3277250862984" lon="14.104199687953267"><ele>47.666666666666664</ele><time>2026-04-23T13:26:04Z</time></trkpt><trkpt lat="42.327799136252345" lon="14.10441132001475"><ele>47.0</ele><time>2026-04-23T13:26:05Z</time></trkpt><trkpt lat="42.32786329106085" lon="14.104608620712739"><ele>47.0</ele><time>2026-04-23T13:26:06Z</time></trkpt><trkpt lat="42.3279230536606" lon="14.104799258440725"><ele>47.0</ele><time>2026-04-23T13:26:07Z</time></trkpt><trkpt lat="42.32797595647188" lon="14.104977218901677"><ele>47.0</ele><time>2026-04-23T13:26:08Z</time></trkpt><trkpt lat="42.3280266430533" lon="14.105135971868892"><ele>47.0</ele><time>2026-04-23T13:26:09Z</time></trkpt><trkpt lat="42.32806953331607" lon="14.10527089267014"><ele>46.83333333333333</ele><time>2026-04-23T13:26:10Z</time></trkpt><trkpt lat="42.32809361722793" lon="14.105394574924917"><ele>46.666666666666664</ele><time>2026-04-23T13:26:11Z</time></trkpt><trkpt lat="42.32812525353515" lon="14.105494824030789"><ele>46.5</ele><time>2026-04-23T13:26:12Z</time></trkpt><trkpt lat="42.32815694148262" lon="14.105595236773684"><ele>46.333333333333336</ele><time>2026-04-23T13:26:13Z</time></trkpt><trkpt lat="42.32818462880416" lon="14.105682972318958"><ele>46.16666666666667</ele><time>2026-04-23T13:26:14Z</time></trkpt><trkpt lat="42.3282111696929" lon="14.105767075056237"><ele>46.0</ele><time>2026-04-23T13:26:15Z</time></trkpt><trkpt lat="42.32827138976904" lon="14.105914514657794"><ele>46.0</ele><time>2026-04-23T13:26:17Z</time></trkpt><trkpt lat="42.32830083105122" lon="14.10599722996968"><ele>46.0</ele><time>2026-04-23T13:26:18Z</time></trkpt><trkpt lat="42.32831655312215" lon="14.106101013935891"><ele>46.0</ele><time>2026-04-23T13:26:19Z</time></trkpt><trkpt lat="42.3283422271192" lon="14.106182369675501"><ele>46.0</ele><time>2026-04-23T13:26:20Z</time></trkpt><trkpt lat="42.32836714942539" lon="14.106261343448992"><ele>46.0</ele><time>2026-04-23T13:26:21Z</time></trkpt><trkpt lat="42.328392167082015" lon="14.106340619364259"><ele>46.0</ele><time>2026-04-23T13:26:22Z</time></trkpt><trkpt lat="42.32843643195451" lon="14.106427747284322"><ele>46.0</ele><time>2026-04-23T13:26:23Z</time></trkpt><trkpt lat="42.32846903040976" lon="14.10653172241645"><ele>46.0</ele><time>2026-04-23T13:26:24Z</time></trkpt><trkpt lat="42.328500659649" lon="14.106633114747888"><ele>46.0</ele><time>2026-04-23T13:26:25Z</time></trkpt><trkpt lat="42.328529872062795" lon="14.106719740315546"><ele>46.0</ele><time>2026-04-23T13:26:26Z</time></trkpt><trkpt lat="42.32855287145967" lon="14.106800310343335"><ele>46.0</ele><time>2026-04-23T13:26:27Z</time></trkpt><trkpt lat="42.32860202259022" lon="14.10696090544523"><ele>46.0</ele><time>2026-04-23T13:26:29Z</time></trkpt><trkpt lat="42.328629660913165" lon="14.107037453311152"><ele>46.0</ele><time>2026-04-23T13:26:30Z</time></trkpt><trkpt lat="42.32866121389323" lon="14.107192566043482"><ele>46.0</ele><time>2026-04-23T13:26:32Z</time></trkpt><trkpt lat="42.32870557306795" lon="14.107333827915493"><ele>46.0</ele><time>2026-04-23T13:26:34Z</time></trkpt><trkpt lat="42.32874478788032" lon="14.107458242729857"><ele>46.0</ele><time>2026-04-23T13:26:36Z</time></trkpt><trkpt lat="42.32878751391573" lon="14.107593755562007"><ele>46.0</ele><time>2026-04-23T13:26:38Z</time></trkpt><trkpt lat="42.328833303177625" lon="14.107739298571397"><ele>46.0</ele><time>2026-04-23T13:26:40Z</time></trkpt><trkpt lat="42.328877535113755" lon="14.107879923498782"><ele>45.0</ele><time>2026-04-23T13:26:42Z</time></trkpt><trkpt lat="42.32892502215753" lon="14.10803089726505"><ele>44.0</ele><time>2026-04-23T13:26:44Z</time></trkpt><trkpt lat="42.32897816339247" lon="14.108199847179923"><ele>43.0</ele><time>2026-04-23T13:26:46Z</time></trkpt><trkpt lat="42.3290077134752" lon="14.108293794644501"><ele>42.0</ele><time>2026-04-23T13:26:47Z</time></trkpt><trkpt lat="42.329037604803815" lon="14.10838882702627"><ele>41.0</ele><time>2026-04-23T13:26:48Z</time></trkpt><trkpt lat="42.32906877861297" lon="14.108487936742822"><ele>41.0</ele><time>2026-04-23T13:26:49Z</time></trkpt><trkpt lat="42.329112271475786" lon="14.10862621194813"><ele>41.0</ele><time>2026-04-23T13:26:50Z</time></trkpt><trkpt lat="42.32916842733133" lon="14.108804746183374"><ele>41.0</ele><time>2026-04-23T13:26:51Z</time></trkpt><trkpt lat="42.329235981507225" lon="14.10901935600763"><ele>41.0</ele><time>2026-04-23T13:26:52Z</time></trkpt><trkpt lat="42.329304254787836" lon="14.109236217881378"><ele>41.666666666666664</ele><time>2026-04-23T13:26:53Z</time></trkpt><trkpt lat="42.32936477399651" lon="14.109428449879061"><ele>42.333333333333336</ele><time>2026-04-23T13:26:54Z</time></trkpt><trkpt lat="42.3294218374481" lon="14.109609705071364"><ele>43.0</ele><time>2026-04-23T13:26:55Z</time></trkpt><trkpt lat="42.329499157531444" lon="14.109855303040845"><ele>43.333333333333336</ele><time>2026-04-23T13:26:56Z</time></trkpt><trkpt lat="42.32956837893997" lon="14.110075970502242"><ele>43.666666666666664</ele><time>2026-04-23T13:26:57Z</time></trkpt><trkpt lat="42.32962841754908" lon="14.110267414818164"><ele>44.0</ele><time>2026-04-23T13:26:58Z</time></trkpt><trkpt lat="42.32968485569243" lon="14.110435313259487"><ele>43.5</ele><time>2026-04-23T13:26:59Z</time></trkpt><trkpt lat="42.32974856922002" lon="14.110598521748832"><ele>43.0</ele><time>2026-04-23T13:27:00Z</time></trkpt><trkpt lat="42.32978121485854" lon="14.110754637369222"><ele>42.5</ele><time>2026-04-23T13:27:01Z</time></trkpt><trkpt lat="42.329841581496325" lon="14.110882338808375"><ele>42.0</ele><time>2026-04-23T13:27:02Z</time></trkpt><trkpt lat="42.329894685485414" lon="14.111039659918404"><ele>42.0</ele><time>2026-04-23T13:27:03Z</time></trkpt><trkpt lat="42.32996582797262" lon="14.111245891284128"><ele>42.0</ele><time>2026-04-23T13:27:04Z</time></trkpt><trkpt lat="42.330042131646444" lon="14.111487919038682"><ele>42.0</ele><time>2026-04-23T13:27:05Z</time></trkpt><trkpt lat="42.33008584734552" lon="14.111717444048912"><ele>42.25</ele><time>2026-04-23T13:27:06Z</time></trkpt><trkpt lat="42.33014480776913" lon="14.111889609178805"><ele>42.5</ele><time>2026-04-23T13:27:07Z</time></trkpt><trkpt lat="42.330202949763994" lon="14.11204894202644"><ele>42.75</ele><time>2026-04-23T13:27:08Z</time></trkpt><trkpt lat="42.33024934998003" lon="14.11219466017987"><ele>43.0</ele><time>2026-04-23T13:27:09Z</time></trkpt><trkpt lat="42.33028237018321" lon="14.11232012826052"><ele>43.0</ele><time>2026-04-23T13:27:10Z</time></trkpt><trkpt lat="42.33031293236" lon="14.11244414829516"><ele>43.0</ele><time>2026-04-23T13:27:11Z</time></trkpt><trkpt lat="42.33035078324421" lon="14.112564682871767"><ele>43.0</ele><time>2026-04-23T13:27:12Z</time></trkpt><trkpt lat="42.33040248401579" lon="14.112674633765312"><ele>43.0</ele><time>2026-04-23T13:27:14Z</time></trkpt><trkpt lat="42.33041939253383" lon="14.112783166249239"><ele>43.0</ele><time>2026-04-23T13:27:16.999Z</time></trkpt><trkpt lat="42.33046575278634" lon="14.112895952075384"><ele>43.0</ele><time>2026-04-23T13:27:19.999Z</time></trkpt><trkpt lat="42.33047087236189" lon="14.113030091675599"><ele>43.0</ele><time>2026-04-23T13:27:21.999Z</time></trkpt><trkpt lat="42.33047695864715" lon="14.113198308209146"><ele>43.0</ele><time>2026-04-23T13:27:23.999Z</time></trkpt><trkpt lat="42.330512784425785" lon="14.113285801106468"><ele>43.0</ele><time>2026-04-23T13:27:24.999Z</time></trkpt><trkpt lat="42.33057052978387" lon="14.113370261234845"><ele>43.0</ele><time>2026-04-23T13:27:25.999Z</time></trkpt><trkpt lat="42.33064455281405" lon="14.113457649613148"><ele>41.75</ele><time>2026-04-23T13:27:26.999Z</time></trkpt><trkpt lat="42.33070232367193" lon="14.11359221190051"><ele>40.5</ele><time>2026-04-23T13:27:27.999Z</time></trkpt><trkpt lat="42.33075133975205" lon="14.11377614068516"><ele>39.25</ele><time>2026-04-23T13:27:28.999Z</time></trkpt><trkpt lat="42.33079762349371" lon="14.113978450752374"><ele>38.0</ele><time>2026-04-23T13:27:29.999Z</time></trkpt><trkpt lat="42.330856589995605" lon="14.114187347898058"><ele>38.0</ele><time>2026-04-23T13:27:30.999Z</time></trkpt><trkpt lat="42.33093255383913" lon="14.114419768336369"><ele>38.0</ele><time>2026-04-23T13:27:31.999Z</time></trkpt><trkpt lat="42.33102405804162" lon="14.114682743444629"><ele>38.0</ele><time>2026-04-23T13:27:32.999Z</time></trkpt><trkpt lat="42.331105374715364" lon="14.114968248272934"><ele>38.0</ele><time>2026-04-23T13:27:33.999Z</time></trkpt><trkpt lat="42.33119953836751" lon="14.115258668322618"><ele>38.0</ele><time>2026-04-23T13:27:34.999Z</time></trkpt><trkpt lat="42.33128224579811" lon="14.115518865243265"><ele>38.0</ele><time>2026-04-23T13:27:35.999Z</time></trkpt><trkpt lat="42.331353401926215" lon="14.115742159804832"><ele>38.0</ele><time>2026-04-23T13:27:36.999Z</time></trkpt><trkpt lat="42.33141509396098" lon="14.115936007153378"><ele>38.0</ele><time>2026-04-23T13:27:37.999Z</time></trkpt><trkpt lat="42.33147099115912" lon="14.116122756407776"><ele>38.0</ele><time>2026-04-23T13:27:38.999Z</time></trkpt><trkpt lat="42.33152667011034" lon="14.116295024117091"><ele>38.0</ele><time>2026-04-23T13:27:39.999Z</time></trkpt><trkpt lat="42.33158039552283" lon="14.116457625947529"><ele>38.0</ele><time>2026-04-23T13:27:40.999Z</time></trkpt><trkpt lat="42.331627755227174" lon="14.116613448446984"><ele>38.0</ele><time>2026-04-23T13:27:41.999Z</time></trkpt><trkpt lat="42.331668180732656" lon="14.116752115765868"><ele>38.0</ele><time>2026-04-23T13:27:42.999Z</time></trkpt><trkpt lat="42.33170922318444" lon="14.116879460041762"><ele>38.0</ele><time>2026-04-23T13:27:43.999Z</time></trkpt><trkpt lat="42.331748879190464" lon="14.116996085459572"><ele>38.0</ele><time>2026-04-23T13:27:44.999Z</time></trkpt><trkpt lat="42.33178007283901" lon="14.117107179240625"><ele>38.0</ele><time>2026-04-23T13:27:45.999Z</time></trkpt><trkpt lat="42.33181450103127" lon="14.11721852587594"><ele>38.0</ele><time>2026-04-23T13:27:46.999Z</time></trkpt><trkpt lat="42.3318536263632" lon="14.117337721579535"><ele>38.0</ele><time>2026-04-23T13:27:47.999Z</time></trkpt><trkpt lat="42.33188238436883" lon="14.117435905146491"><ele>38.0</ele><time>2026-04-23T13:27:48.999Z</time></trkpt><trkpt lat="42.331914151107874" lon="14.117527217569458"><ele>38.0</ele><time>2026-04-23T13:27:51.999Z</time></trkpt><trkpt lat="42.33194332362017" lon="14.117603576197032"><ele>38.0</ele><time>2026-04-23T13:27:53.999Z</time></trkpt><trkpt lat="42.331986892876486" lon="14.117739082593848"><ele>38.33333333333333</ele><time>2026-04-23T13:27:55.999Z</time></trkpt><trkpt lat="42.33201170316012" lon="14.117834830308915"><ele>38.666666666666664</ele><time>2026-04-23T13:27:57Z</time></trkpt><trkpt lat="42.33203412265501" lon="14.117920274250102"><ele>39.0</ele><time>2026-04-23T13:27:58Z</time></trkpt><trkpt lat="42.33205843619161" lon="14.118018656017417"><ele>39.333333333333336</ele><time>2026-04-23T13:27:59Z</time></trkpt><trkpt lat="42.33209175574279" lon="14.118118059541345"><ele>39.66666666666667</ele><time>2026-04-23T13:28:00Z</time></trkpt><trkpt lat="42.332129157217935" lon="14.118222217611253"><ele>40.0</ele><time>2026-04-23T13:28:01Z</time></trkpt><trkpt lat="42.33216308959918" lon="14.118333572498447"><ele>40.0</ele><time>2026-04-23T13:28:02Z</time></trkpt><trkpt lat="42.332198663447" lon="14.118440371136613"><ele>40.0</ele><time>2026-04-23T13:28:03Z</time></trkpt><trkpt lat="42.33223265782428" lon="14.118545931833346"><ele>40.0</ele><time>2026-04-23T13:28:04Z</time></trkpt><trkpt lat="42.332265295407" lon="14.118646577819407"><ele>40.0</ele><time>2026-04-23T13:28:05Z</time></trkpt><trkpt lat="42.33229378448386" lon="14.118739458151191"><ele>40.0</ele><time>2026-04-23T13:28:06Z</time></trkpt><trkpt lat="42.33231942576335" lon="14.118823837664314"><ele>40.0</ele><time>2026-04-23T13:28:07Z</time></trkpt><trkpt lat="42.33234636785031" lon="14.118915715241748"><ele>40.0</ele><time>2026-04-23T13:28:08Z</time></trkpt><trkpt lat="42.332324506456764" lon="14.119031234419708"><ele>40.0</ele><time>2026-04-23T13:28:10Z</time></trkpt><trkpt lat="42.33223193595422" lon="14.119049484486315"><ele>40.0</ele><time>2026-04-23T13:28:12Z</time></trkpt><trkpt lat="42.332173942294254" lon="14.11901087615129"><ele>40.0</ele><time>2026-04-23T13:28:13Z</time></trkpt><trkpt lat="42.3320732004985" lon="14.11896365466032"><ele>40.0</ele><time>2026-04-23T13:28:15Z</time></trkpt><trkpt lat="42.331998980447594" lon="14.118948128715475"><ele>40.0</ele><time>2026-04-23T13:28:17Z</time></trkpt><trkpt lat="42.33189385057938" lon="14.118928543550672"><ele>40.0</ele><time>2026-04-23T13:28:19Z</time></trkpt><trkpt lat="42.331785972374504" lon="14.118909323403823"><ele>40.0</ele><time>2026-04-23T13:28:21Z</time></trkpt><trkpt lat="42.33171531670389" lon="14.118896735034381"><ele>40.0</ele><time>2026-04-23T13:29:52.999Z</time></trkpt><trkpt lat="42.33175438913973" lon="14.118722341747912"><ele>40.0</ele><time>2026-04-23T13:30:27Z</time></trkpt><trkpt lat="42.331783649666505" lon="14.118635919279257"><ele>40.0</ele><time>2026-04-23T13:30:39.034Z</time></trkpt><trkpt lat="42.331764787906145" lon="14.118723842178165"><ele>40.0</ele><time>2026-04-23T13:30:42Z</time></trkpt><trkpt lat="42.33170687007623" lon="14.118825194071706"><ele>40.0</ele><time>2026-04-23T13:31:24.999Z</time></trkpt><trkpt lat="42.331657680055805" lon="14.118603632740033"><ele>40.0</ele><time>2026-04-23T13:31:49.999Z</time></trkpt><trkpt lat="42.33172075550704" lon="14.118699241580785"><ele>40.0</ele><time>2026-04-23T13:32:13.999Z</time></trkpt><trkpt lat="42.331746018701004" lon="14.11880740922998"><ele>40.0</ele><time>2026-04-23T13:32:16.999Z</time></trkpt><trkpt lat="42.331684197292496" lon="14.118775646634239"><ele>40.0</ele><time>2026-04-23T13:33:22Z</time></trkpt><trkpt lat="42.33162183854864" lon="14.118802192675814"><ele>40.0</ele><time>2026-04-23T13:33:38.999Z</time></trkpt><trkpt lat="42.331552099266844" lon="14.118775169519843"><ele>40.0</ele><time>2026-04-23T13:33:53.999Z</time></trkpt><trkpt lat="42.33164535328728" lon="14.118758104921186"><ele>40.0</ele><time>2026-04-23T13:34:45.023Z</time></trkpt><trkpt lat="42.33178534640494" lon="14.118821173699303"><ele>40.0</ele><time>2026-04-23T13:35:04.457Z</time></trkpt><trkpt lat="42.33162368111163" lon="14.118523329113627"><ele>40.0</ele><time>2026-04-23T13:58:21.984Z</time></trkpt><trkpt lat="42.33159135526092" lon="14.118623680450785"><ele>40.0</ele><time>2026-04-23T13:58:22.984Z</time></trkpt><trkpt lat="42.33156908463395" lon="14.118742501880947"><ele>40.0</ele><time>2026-04-23T13:58:24.984Z</time></trkpt><trkpt lat="42.331542417259335" lon="14.118826479729327"><ele>40.0</ele><time>2026-04-23T13:58:31Z</time></trkpt><trkpt lat="42.331607832665135" lon="14.118767461200619"><ele>40.0</ele><time>2026-04-23T13:59:08Z</time></trkpt><trkpt lat="42.33167686165861" lon="14.118770731409565"><ele>40.0</ele><time>2026-04-23T13:59:15.999Z</time></trkpt><trkpt lat="42.33172459874576" lon="14.11884935054542"><ele>40.0</ele><time>2026-04-23T14:00:06.999Z</time></trkpt><trkpt lat="42.331653083159246" lon="14.11882751116552"><ele>40.0</ele><time>2026-04-23T14:45:25Z</time></trkpt><trkpt lat="42.331659667526495" lon="14.118691622762173"><ele>40.0</ele><time>2026-04-23T15:03:27.999Z</time></trkpt><trkpt lat="42.3316489533287" lon="14.11878539658951"><ele>40.0</ele><time>2026-04-23T15:03:34Z</time></trkpt><trkpt lat="42.331701814543756" lon="14.118832305398094"><ele>40.0</ele><time>2026-04-23T15:03:43Z</time></trkpt><trkpt lat="42.33173840043862" lon="14.119123649095789"><ele>40.0</ele><time>2026-04-23T15:03:44Z</time></trkpt><trkpt lat="42.33175870117021" lon="14.119213945409046"><ele>40.0</ele><time>2026-04-23T15:03:45Z</time></trkpt><trkpt lat="42.33181795241454" lon="14.119244401520367"><ele>40.0</ele><time>2026-04-23T15:03:47Z</time></trkpt><trkpt lat="42.331860814548406" lon="14.119366161625658"><ele>40.0</ele><time>2026-04-23T15:03:49.023Z</time></trkpt><trkpt lat="42.331822712245845" lon="14.118838302171476"><ele>40.0</ele><time>2026-04-23T15:04:03.868Z</time></trkpt><trkpt lat="42.331862505780244" lon="14.118943147441959"><ele>40.0</ele><time>2026-04-23T15:08:06.858Z</time></trkpt><trkpt lat="42.331786282539454" lon="14.118925711839715"><ele>40.0</ele><time>2026-04-23T15:08:09.018Z</time></trkpt><trkpt lat="42.33171819910426" lon="14.118907407551964"><ele>40.0</ele><time>2026-04-23T15:08:19Z</time></trkpt><trkpt lat="42.33159443143961" lon="14.118845089939809"><ele>40.0</ele><time>2026-04-23T15:08:31Z</time></trkpt><trkpt lat="42.33167245736592" lon="14.118899746647285"><ele>40.0</ele><time>2026-04-23T15:15:25Z</time></trkpt><trkpt lat="42.33171866133495" lon="14.118837027085643"><ele>40.0</ele><time>2026-04-23T15:23:10Z</time></trkpt><trkpt lat="42.33174533481526" lon="14.118752657634513"><ele>40.0</ele><time>2026-04-23T15:23:15Z</time></trkpt><trkpt lat="42.33181808791503" lon="14.118818766550948"><ele>40.0</ele><time>2026-04-23T15:24:27.622Z</time></trkpt><trkpt lat="42.33188746906852" lon="14.118900230856259"><ele>40.0</ele><time>2026-04-23T15:24:33.622Z</time></trkpt><trkpt lat="42.332074401131194" lon="14.118956426890536"><ele>40.0</ele><time>2026-04-23T15:24:41.016Z</time></trkpt><trkpt lat="42.33203376694878" lon="14.118853641856216"><ele>40.0</ele><time>2026-04-23T15:26:15.999Z</time></trkpt><trkpt lat="42.33196598878638" lon="14.118824827922746"><ele>40.0</ele><time>2026-04-23T15:26:27.999Z</time></trkpt><trkpt lat="42.33190301757127" lon="14.118856858427556"><ele>40.0</ele><time>2026-04-23T15:26:36.999Z</time></trkpt><trkpt lat="42.33183473710187" lon="14.11887070453749"><ele>40.0</ele><time>2026-04-23T15:26:45.999Z</time></trkpt><trkpt lat="42.33177251064472" lon="14.118856142658894"><ele>40.0</ele><time>2026-04-23T15:26:57.999Z</time></trkpt><trkpt lat="42.33170575555649" lon="14.118850184434663"><ele>40.0</ele><time>2026-04-23T15:27:10Z</time></trkpt><trkpt lat="42.33166761409001" lon="14.118963545635866"><ele>40.0</ele><time>2026-04-23T16:10:20Z</time></trkpt><trkpt lat="42.33168975472739" lon="14.11883012754733"><ele>40.0</ele><time>2026-04-23T16:23:17Z</time></trkpt><trkpt lat="42.33162454366861" lon="14.118813864902979"><ele>40.0</ele><time>2026-04-23T16:26:02.001Z</time></trkpt><trkpt lat="42.33169360106571" lon="14.118806562191187"><ele>40.0</ele><time>2026-04-23T16:29:09Z</time></trkpt><trkpt lat="42.33189913611264" lon="14.118907863711605"><ele>40.0</ele><time>2026-04-23T16:31:27.447Z</time></trkpt><trkpt lat="42.33168581161557" lon="14.118943608970497"><ele>40.0</ele><time>2026-04-23T16:31:44.999Z</time></trkpt><trkpt lat="42.331647604569795" lon="14.118869717202257"><ele>40.0</ele><time>2026-04-23T16:31:58.999Z</time></trkpt><trkpt lat="42.33168487543132" lon="14.118800952774908"><ele>40.0</ele><time>2026-04-23T16:32:08Z</time></trkpt><trkpt lat="42.33161523954021" lon="14.118787553568577"><ele>40.0</ele><time>2026-04-23T16:32:32Z</time></trkpt><trkpt lat="42.33170745929739" lon="14.118789108247439"><ele>40.0</ele><time>2026-04-23T16:33:10.455Z</time></trkpt><trkpt lat="42.331798703117734" lon="14.118816434347782"><ele>40.0</ele><time>2026-04-23T16:35:14.613Z</time></trkpt><trkpt lat="42.33171214529183" lon="14.11887180547892"><ele>40.0</ele><time>2026-04-23T16:39:32.012Z</time></trkpt><trkpt lat="42.33165514807171" lon="14.118827290135236"><ele>40.0</ele><time>2026-04-23T16:39:39.995Z</time></trkpt><trkpt lat="42.33155670209707" lon="14.11875953846003"><ele>40.0</ele><time>2026-04-23T16:40:08Z</time></trkpt><trkpt lat="42.33152943892518" lon="14.118852063063748"><ele>40.0</ele><time>2026-04-23T16:40:16Z</time></trkpt><trkpt lat="42.33147824643059" lon="14.11879848351635"><ele>40.0</ele><time>2026-04-23T16:42:19Z</time></trkpt><trkpt lat="42.33178293779046" lon="14.118820929836698"><ele>40.0</ele><time>2026-04-23T16:47:44.661Z</time></trkpt><trkpt lat="42.33169445070921" lon="14.119123950442216"><ele>40.0</ele><time>2026-04-23T16:48:19.631Z</time></trkpt><trkpt lat="42.33151638213834" lon="14.11898311436207"><ele>40.0</ele><time>2026-04-23T16:48:22.999Z</time></trkpt><trkpt lat="42.33154981639997" lon="14.1189042696959"><ele>40.0</ele><time>2026-04-23T16:48:39Z</time></trkpt><trkpt lat="42.33150749024416" lon="14.118839275774167"><ele>40.0</ele><time>2026-04-23T16:49:11Z</time></trkpt><trkpt lat="42.33158334544912" lon="14.118812302640762"><ele>40.0</ele><time>2026-04-23T16:53:04Z</time></trkpt><trkpt lat="42.33165881896325" lon="14.118805292925096"><ele>40.0</ele><time>2026-04-23T16:53:06Z</time></trkpt><trkpt lat="42.33177845085535" lon="14.118832615371467"><ele>40.0</ele><time>2026-04-23T16:53:08Z</time></trkpt><trkpt lat="42.3318430801704" lon="14.118840182353274"><ele>40.0</ele><time>2026-04-23T16:53:09Z</time></trkpt><trkpt lat="42.33188843832816" lon="14.118995502248426"><ele>40.0</ele><time>2026-04-23T16:53:10Z</time></trkpt><trkpt lat="42.331985635266854" lon="14.119013592348217"><ele>40.0</ele><time>2026-04-23T16:53:12Z</time></trkpt><trkpt lat="42.331916148700635" lon="14.118993439902937"><ele>40.0</ele><time>2026-04-23T16:53:19Z</time></trkpt><trkpt lat="42.33183720483068" lon="14.118973638117414"><ele>40.0</ele><time>2026-04-23T16:53:20Z</time></trkpt><trkpt lat="42.33175450429516" lon="14.118966145589257"><ele>40.0</ele><time>2026-04-23T16:53:21Z</time></trkpt><trkpt lat="42.33165639287701" lon="14.118957477630637"><ele>40.0</ele><time>2026-04-23T16:53:22Z</time></trkpt><trkpt lat="42.331551268620956" lon="14.11894615188961"><ele>40.0</ele><time>2026-04-23T16:53:23Z</time></trkpt><trkpt lat="42.331437722672234" lon="14.11892464846968"><ele>39.75</ele><time>2026-04-23T16:53:24Z</time></trkpt><trkpt lat="42.33132562713824" lon="14.118897475249389"><ele>39.5</ele><time>2026-04-23T16:53:25Z</time></trkpt><trkpt lat="42.331207283200946" lon="14.118874881617302"><ele>39.25</ele><time>2026-04-23T16:53:26Z</time></trkpt><trkpt lat="42.33108757107933" lon="14.118860126179733"><ele>39.0</ele><time>2026-04-23T16:53:27Z</time></trkpt><trkpt lat="42.33098257402021" lon="14.118823837033862"><ele>39.0</ele><time>2026-04-23T16:53:28Z</time></trkpt><trkpt lat="42.33087294765831" lon="14.11879712616131"><ele>39.0</ele><time>2026-04-23T16:53:29Z</time></trkpt><trkpt lat="42.33076212669902" lon="14.118767095407073"><ele>39.0</ele><time>2026-04-23T16:53:30Z</time></trkpt><trkpt lat="42.3306545485032" lon="14.118732230183829"><ele>39.0</ele><time>2026-04-23T16:53:31Z</time></trkpt><trkpt lat="42.33054858658026" lon="14.118697862151402"><ele>39.0</ele><time>2026-04-23T16:53:32Z</time></trkpt><trkpt lat="42.33043449747612" lon="14.11867325350845"><ele>39.6</ele><time>2026-04-23T16:53:33Z</time></trkpt><trkpt lat="42.330316025238325" lon="14.11864696689157"><ele>40.2</ele><time>2026-04-23T16:53:34Z</time></trkpt><trkpt lat="42.33020398473834" lon="14.118611365771251"><ele>40.800000000000004</ele><time>2026-04-23T16:53:35Z</time></trkpt><trkpt lat="42.33010973423363" lon="14.118590904519577"><ele>41.4</ele><time>2026-04-23T16:53:36Z</time></trkpt><trkpt lat="42.330027048721725" lon="14.118603817721688"><ele>42.0</ele><time>2026-04-23T16:53:37Z</time></trkpt><trkpt lat="42.329933669608366" lon="14.118649495157541"><ele>42.0</ele><time>2026-04-23T16:53:38Z</time></trkpt><trkpt lat="42.329848027657924" lon="14.11869512492005"><ele>42.0</ele><time>2026-04-23T16:53:39Z</time></trkpt><trkpt lat="42.3297555397853" lon="14.11866882340421"><ele>42.0</ele><time>2026-04-23T16:53:41Z</time></trkpt><trkpt lat="42.32972211174453" lon="14.11849895282549"><ele>42.0</ele><time>2026-04-23T16:53:44Z</time></trkpt><trkpt lat="42.32968883339556" lon="14.118380475231625"><ele>42.0</ele><time>2026-04-23T16:53:45Z</time></trkpt><trkpt lat="42.32965354105097" lon="14.118245991048363"><ele>42.75</ele><time>2026-04-23T16:53:46Z</time></trkpt><trkpt lat="42.32961991885155" lon="14.118098924777247"><ele>43.5</ele><time>2026-04-23T16:53:47Z</time></trkpt><trkpt lat="42.32960046530597" lon="14.117939079909375"><ele>44.25</ele><time>2026-04-23T16:53:47.999Z</time></trkpt><trkpt lat="42.329593610509924" lon="14.11777461947767"><ele>45.0</ele><time>2026-04-23T16:53:48.999Z</time></trkpt><trkpt lat="42.32960823241187" lon="14.1176161717058"><ele>45.0</ele><time>2026-04-23T16:53:49.999Z</time></trkpt><trkpt lat="42.32963263766841" lon="14.117455331031312"><ele>45.0</ele><time>2026-04-23T16:53:50.999Z</time></trkpt><trkpt lat="42.329663354142745" lon="14.117287671180632"><ele>45.0</ele><time>2026-04-23T16:53:51.999Z</time></trkpt><trkpt lat="42.32969644704651" lon="14.117117624060185"><ele>45.0</ele><time>2026-04-23T16:53:52.999Z</time></trkpt><trkpt lat="42.329729730603006" lon="14.116946361340057"><ele>44.2</ele><time>2026-04-23T16:53:53.999Z</time></trkpt><trkpt lat="42.32976026521275" lon="14.11678924353934"><ele>43.4</ele><time>2026-04-23T16:53:54.999Z</time></trkpt><trkpt lat="42.329786691765264" lon="14.1166532639916"><ele>42.599999999999994</ele><time>2026-04-23T16:53:55.999Z</time></trkpt><trkpt lat="42.329809957496806" lon="14.116533549014056"><ele>41.8</ele><time>2026-04-23T16:53:56.999Z</time></trkpt><trkpt lat="42.329830193241385" lon="14.11642855406791"><ele>41.0</ele><time>2026-04-23T16:53:57.999Z</time></trkpt><trkpt lat="42.32985084218729" lon="14.11632270568795"><ele>40.8</ele><time>2026-04-23T16:53:58.999Z</time></trkpt><trkpt lat="42.329858531132714" lon="14.116202806991248"><ele>40.599999999999994</ele><time>2026-04-23T16:53:59.999Z</time></trkpt><trkpt lat="42.329884918531526" lon="14.116084175464161"><ele>40.4</ele><time>2026-04-23T16:54:00.999Z</time></trkpt><trkpt lat="42.32990670761479" lon="14.115964489988068"><ele>40.2</ele><time>2026-04-23T16:54:01.999Z</time></trkpt><trkpt lat="42.32994399020787" lon="14.115846322597264"><ele>40.0</ele><time>2026-04-23T16:54:02.999Z</time></trkpt><trkpt lat="42.32996822826171" lon="14.115723291024018"><ele>40.4</ele><time>2026-04-23T16:54:03.999Z</time></trkpt><trkpt lat="42.32999334596245" lon="14.115595794409087"><ele>40.8</ele><time>2026-04-23T16:54:04.999Z</time></trkpt><trkpt lat="42.33001806581394" lon="14.1154703172652"><ele>41.2</ele><time>2026-04-23T16:54:05.999Z</time></trkpt><trkpt lat="42.3300415830345" lon="14.115350944636608"><ele>41.6</ele><time>2026-04-23T16:54:06.999Z</time></trkpt><trkpt lat="42.330064248597246" lon="14.115235894983085"><ele>42.0</ele><time>2026-04-23T16:54:07.999Z</time></trkpt><trkpt lat="42.33008601426566" lon="14.115123683762144"><ele>42.0</ele><time>2026-04-23T16:54:08.999Z</time></trkpt><trkpt lat="42.33010688968658" lon="14.115015841282494"><ele>42.0</ele><time>2026-04-23T16:54:09.999Z</time></trkpt><trkpt lat="42.33012716796051" lon="14.11491108366717"><ele>42.0</ele><time>2026-04-23T16:54:10.999Z</time></trkpt><trkpt lat="42.33014705079958" lon="14.114808368974597"><ele>42.0</ele><time>2026-04-23T16:54:11.999Z</time></trkpt><trkpt lat="42.330165634114024" lon="14.114714544641753"><ele>42.0</ele><time>2026-04-23T16:54:12.999Z</time></trkpt><trkpt lat="42.33019654900592" lon="14.114557699047328"><ele>42.0</ele><time>2026-04-23T16:54:14.999Z</time></trkpt><trkpt lat="42.330228396264474" lon="14.114396123076979"><ele>42.166666666666664</ele><time>2026-04-23T16:54:16.999Z</time></trkpt><trkpt lat="42.33023262242531" lon="14.114299999813182"><ele>42.333333333333336</ele><time>2026-04-23T16:54:17.999Z</time></trkpt><trkpt lat="42.33025499535918" lon="14.114219206215852"><ele>42.5</ele><time>2026-04-23T16:54:18.999Z</time></trkpt><trkpt lat="42.33027932040775" lon="14.11408858004275"><ele>42.66666666666667</ele><time>2026-04-23T16:54:20.999Z</time></trkpt><trkpt lat="42.33031663944153" lon="14.114004174811509"><ele>42.833333333333336</ele><time>2026-04-23T16:56:07.999Z</time></trkpt><trkpt lat="42.33031367976976" lon="14.113840112191179"><ele>43.0</ele><time>2026-04-23T16:56:09.999Z</time></trkpt><trkpt lat="42.33033253661061" lon="14.113715478969398"><ele>43.0</ele><time>2026-04-23T16:56:10.999Z</time></trkpt><trkpt lat="42.330354346663896" lon="14.113584096419606"><ele>43.0</ele><time>2026-04-23T16:56:11.999Z</time></trkpt><trkpt lat="42.3303766779684" lon="14.113479545124598"><ele>43.0</ele><time>2026-04-23T16:56:12.999Z</time></trkpt><trkpt lat="42.33039506544266" lon="14.113386779771819"><ele>43.0</ele><time>2026-04-23T16:56:13.999Z</time></trkpt><trkpt lat="42.33044263182691" lon="14.113301965018193"><ele>43.0</ele><time>2026-04-23T16:56:15.999Z</time></trkpt><trkpt lat="42.330540974611324" lon="14.113255308314423"><ele>43.0</ele><time>2026-04-23T16:56:17.999Z</time></trkpt><trkpt lat="42.33060702049589" lon="14.113223607850271"><ele>43.0</ele><time>2026-04-23T16:56:18.999Z</time></trkpt><trkpt lat="42.33065887515607" lon="14.113150029666693"><ele>43.0</ele><time>2026-04-23T16:56:19.999Z</time></trkpt><trkpt lat="42.33066525717396" lon="14.113065102711788"><ele>43.0</ele><time>2026-04-23T16:56:20.999Z</time></trkpt><trkpt lat="42.3306274745736" lon="14.112966680091734"><ele>43.0</ele><time>2026-04-23T16:56:21.999Z</time></trkpt><trkpt lat="42.33054556382783" lon="14.11287136057391"><ele>43.0</ele><time>2026-04-23T16:56:22.999Z</time></trkpt><trkpt lat="42.3304397169744" lon="14.11275233354289"><ele>43.0</ele><time>2026-04-23T16:56:23.999Z</time></trkpt><trkpt lat="42.33037955843792" lon="14.112587930156618"><ele>43.0</ele><time>2026-04-23T16:56:24.999Z</time></trkpt><trkpt lat="42.33033218990233" lon="14.112386038040018"><ele>43.0</ele><time>2026-04-23T16:56:25.999Z</time></trkpt><trkpt lat="42.33026863041781" lon="14.112111820636922"><ele>43.0</ele><time>2026-04-23T16:56:26.999Z</time></trkpt><trkpt lat="42.33016075460426" lon="14.111818642491837"><ele>43.0</ele><time>2026-04-23T16:56:27.999Z</time></trkpt><trkpt lat="42.33008196336769" lon="14.111594879407647"><ele>43.0</ele><time>2026-04-23T16:56:28.999Z</time></trkpt><trkpt lat="42.32998354658936" lon="14.111281935325557"><ele>42.66666666666667</ele><time>2026-04-23T16:56:29.999Z</time></trkpt><trkpt lat="42.32989588735191" lon="14.111003194148976"><ele>42.333333333333336</ele><time>2026-04-23T16:56:30.999Z</time></trkpt><trkpt lat="42.32982355589891" lon="14.110817984458864"><ele>42.0</ele><time>2026-04-23T16:56:31.999Z</time></trkpt><trkpt lat="42.3297659940599" lon="14.11064444605618"><ele>42.5</ele><time>2026-04-23T16:56:32.999Z</time></trkpt><trkpt lat="42.32971052558453" lon="14.110468801300138"><ele>43.0</ele><time>2026-04-23T16:56:33.999Z</time></trkpt><trkpt lat="42.329659028306054" lon="14.11030347846641"><ele>43.5</ele><time>2026-04-23T16:56:34.999Z</time></trkpt><trkpt lat="42.329609611192566" lon="14.110131749857008"><ele>44.0</ele><time>2026-04-23T16:56:35.999Z</time></trkpt><trkpt lat="42.32956250741122" lon="14.109969998866248"><ele>43.75</ele><time>2026-04-23T16:56:36.999Z</time></trkpt><trkpt lat="42.32951431384084" lon="14.10982107434732"><ele>43.5</ele><time>2026-04-23T16:56:37.999Z</time></trkpt><trkpt lat="42.32946577601275" lon="14.109666693627949"><ele>43.25</ele><time>2026-04-23T16:56:38.999Z</time></trkpt><trkpt lat="42.32941495100112" lon="14.109493752672657"><ele>43.0</ele><time>2026-04-23T16:56:39.999Z</time></trkpt><trkpt lat="42.329364120132745" lon="14.109324994443966"><ele>42.333333333333336</ele><time>2026-04-23T16:56:40.999Z</time></trkpt><trkpt lat="42.329274665083155" lon="14.1090687558226"><ele>41.666666666666664</ele><time>2026-04-23T16:56:41.999Z</time></trkpt><trkpt lat="42.32919331490795" lon="14.10880113994212"><ele>41.0</ele><time>2026-04-23T16:56:42.999Z</time></trkpt><trkpt lat="42.32913889028704" lon="14.108574111647748"><ele>41.0</ele><time>2026-04-23T16:56:43.999Z</time></trkpt><trkpt lat="42.32907492174071" lon="14.108376396852618"><ele>41.0</ele><time>2026-04-23T16:56:44.999Z</time></trkpt><trkpt lat="42.329019565861174" lon="14.1082066537355"><ele>41.0</ele><time>2026-04-23T16:56:45.999Z</time></trkpt><trkpt lat="42.328964453848386" lon="14.108028577966763"><ele>41.0</ele><time>2026-04-23T16:56:46.999Z</time></trkpt><trkpt lat="42.328910439277614" lon="14.107869147858603"><ele>42.25</ele><time>2026-04-23T16:56:47.999Z</time></trkpt><trkpt lat="42.32885727009002" lon="14.107719572766564"><ele>43.5</ele><time>2026-04-23T16:56:49Z</time></trkpt><trkpt lat="42.328816052198846" lon="14.107568876311735"><ele>44.75</ele><time>2026-04-23T16:56:50Z</time></trkpt><trkpt lat="42.32876539292891" lon="14.107412023182345"><ele>46.0</ele><time>2026-04-23T16:56:51Z</time></trkpt><trkpt lat="42.32871229472107" lon="14.107248328115322"><ele>46.0</ele><time>2026-04-23T16:56:52Z</time></trkpt><trkpt lat="42.32866290086039" lon="14.10709001855403"><ele>46.0</ele><time>2026-04-23T16:56:53Z</time></trkpt><trkpt lat="42.32861180314728" lon="14.10692854569119"><ele>46.0</ele><time>2026-04-23T16:56:54Z</time></trkpt><trkpt lat="42.328557568330375" lon="14.106762050430369"><ele>46.0</ele><time>2026-04-23T16:56:55Z</time></trkpt><trkpt lat="42.328504834870294" lon="14.106596270585735"><ele>46.0</ele><time>2026-04-23T16:56:56Z</time></trkpt><trkpt lat="42.328453374765665" lon="14.106428537685884"><ele>46.0</ele><time>2026-04-23T16:56:57Z</time></trkpt><trkpt lat="42.32839930822432" lon="14.10625380828996"><ele>46.0</ele><time>2026-04-23T16:56:58Z</time></trkpt><trkpt lat="42.32833671342268" lon="14.106056151997633"><ele>46.0</ele><time>2026-04-23T16:56:59Z</time></trkpt><trkpt lat="42.32826421302551" lon="14.105843224092661"><ele>46.0</ele><time>2026-04-23T16:57:00Z</time></trkpt><trkpt lat="42.328192645332166" lon="14.105619433406753"><ele>46.0</ele><time>2026-04-23T16:57:01Z</time></trkpt><trkpt lat="42.32811534273925" lon="14.105389305425291"><ele>46.0</ele><time>2026-04-23T16:57:02Z</time></trkpt><trkpt lat="42.32804703097122" lon="14.105173556179704"><ele>46.0</ele><time>2026-04-23T16:57:03Z</time></trkpt><trkpt lat="42.32799412441733" lon="14.104992607475072"><ele>46.0</ele><time>2026-04-23T16:57:04Z</time></trkpt><trkpt lat="42.32794076145969" lon="14.1048148516506"><ele>46.0</ele><time>2026-04-23T16:57:05Z</time></trkpt><trkpt lat="42.3278885858973" lon="14.104650203893307"><ele>46.0</ele><time>2026-04-23T16:57:06Z</time></trkpt><trkpt lat="42.327838201075934" lon="14.10449595838773"><ele>46.333333333333336</ele><time>2026-04-23T16:57:07Z</time></trkpt><trkpt lat="42.32778660493205" lon="14.104325260947936"><ele>46.666666666666664</ele><time>2026-04-23T16:57:08Z</time></trkpt><trkpt lat="42.3277240672041" lon="14.10413705755955"><ele>47.0</ele><time>2026-04-23T16:57:09Z</time></trkpt><trkpt lat="42.3276575458109" lon="14.10393644003432"><ele>47.666666666666664</ele><time>2026-04-23T16:57:10Z</time></trkpt><trkpt lat="42.32759643232895" lon="14.103729593756498"><ele>48.33333333333333</ele><time>2026-04-23T16:57:11Z</time></trkpt><trkpt lat="42.32752775858634" lon="14.103525896551993"><ele>49.0</ele><time>2026-04-23T16:57:12Z</time></trkpt><trkpt lat="42.32746411458043" lon="14.103334858822878"><ele>48.75</ele><time>2026-04-23T16:57:13Z</time></trkpt><trkpt lat="42.32741825579965" lon="14.10313781278793"><ele>48.5</ele><time>2026-04-23T16:57:14Z</time></trkpt><trkpt lat="42.32735960862937" lon="14.102950869773478"><ele>48.25</ele><time>2026-04-23T16:57:15Z</time></trkpt><trkpt lat="42.32728933493444" lon="14.102783063832462"><ele>48.0</ele><time>2026-04-23T16:57:16Z</time></trkpt><trkpt lat="42.32724881141525" lon="14.102609069831024"><ele>49.75</ele><time>2026-04-23T16:57:17Z</time></trkpt><trkpt lat="42.327178916213846" lon="14.102463367981395"><ele>51.5</ele><time>2026-04-23T16:57:18Z</time></trkpt><trkpt lat="42.32711480344359" lon="14.10231584266653"><ele>53.25</ele><time>2026-04-23T16:57:19Z</time></trkpt><trkpt lat="42.32704020603768" lon="14.102169073732975"><ele>55.0</ele><time>2026-04-23T16:57:20Z</time></trkpt><trkpt lat="42.326961266959" lon="14.102028631127396"><ele>55.0</ele><time>2026-04-23T16:57:21Z</time></trkpt><trkpt lat="42.32688257577889" lon="14.101902962664486"><ele>55.0</ele><time>2026-04-23T16:57:22Z</time></trkpt><trkpt lat="42.32681560174422" lon="14.101790285059845"><ele>55.0</ele><time>2026-04-23T16:57:23Z</time></trkpt><trkpt lat="42.32675210126927" lon="14.101691938876845"><ele>55.0</ele><time>2026-04-23T16:57:24Z</time></trkpt><trkpt lat="42.3266972507159" lon="14.101602204536032"><ele>55.0</ele><time>2026-04-23T16:57:25Z</time></trkpt><trkpt lat="42.3266462499915" lon="14.101520178608284"><ele>54.99999999999999</ele><time>2026-04-23T16:57:26Z</time></trkpt><trkpt lat="42.32660075086314" lon="14.101441693669791"><ele>55.0</ele><time>2026-04-23T16:57:27Z</time></trkpt><trkpt lat="42.32655479519004" lon="14.101370232187318"><ele>55.0</ele><time>2026-04-23T16:57:28Z</time></trkpt><trkpt lat="42.32650346615427" lon="14.101298658838429"><ele>55.0</ele><time>2026-04-23T16:57:29Z</time></trkpt><trkpt lat="42.32643476281951" lon="14.101210785171492"><ele>54.99999999999999</ele><time>2026-04-23T16:57:30Z</time></trkpt><trkpt lat="42.326363840704865" lon="14.101093122617998"><ele>55.0</ele><time>2026-04-23T16:57:31Z</time></trkpt><trkpt lat="42.326296714669276" lon="14.100956838748617"><ele>55.0</ele><time>2026-04-23T16:57:32Z</time></trkpt><trkpt lat="42.32620748043276" lon="14.100832168885875"><ele>55.0</ele><time>2026-04-23T16:57:33Z</time></trkpt><trkpt lat="42.32611663169228" lon="14.100712752199302"><ele>55.0</ele><time>2026-04-23T16:57:34Z</time></trkpt><trkpt lat="42.32604917553308" lon="14.100591075537903"><ele>55.0</ele><time>2026-04-23T16:57:35Z</time></trkpt><trkpt lat="42.325980686625854" lon="14.100459594729779"><ele>54.5</ele><time>2026-04-23T16:57:36Z</time></trkpt><trkpt lat="42.32590417496579" lon="14.100332539635303"><ele>54.0</ele><time>2026-04-23T16:57:37Z</time></trkpt><trkpt lat="42.32582219824545" lon="14.100208402886073"><ele>53.5</ele><time>2026-04-23T16:57:38Z</time></trkpt><trkpt lat="42.32574724454681" lon="14.100088004291639"><ele>53.0</ele><time>2026-04-23T16:57:39Z</time></trkpt><trkpt lat="42.32567953723037" lon="14.099974242573847"><ele>52.599999999999994</ele><time>2026-04-23T16:57:40Z</time></trkpt><trkpt lat="42.32560742648789" lon="14.099866295977076"><ele>52.199999999999996</ele><time>2026-04-23T16:57:40.999Z</time></trkpt><trkpt lat="42.32554437512447" lon="14.099768596092625"><ele>51.8</ele><time>2026-04-23T16:57:41.999Z</time></trkpt><trkpt lat="42.32548729159915" lon="14.09967800735515"><ele>51.4</ele><time>2026-04-23T16:57:42.999Z</time></trkpt><trkpt lat="42.32542734331382" lon="14.099575850413961"><ele>51.0</ele><time>2026-04-23T16:57:43.999Z</time></trkpt><trkpt lat="42.325366640526646" lon="14.09947425712007"><ele>51.4</ele><time>2026-04-23T16:57:44.999Z</time></trkpt><trkpt lat="42.32530470449651" lon="14.099373896875795"><ele>51.8</ele><time>2026-04-23T16:57:45.999Z</time></trkpt><trkpt lat="42.32523952692332" lon="14.099277196960989"><ele>52.199999999999996</ele><time>2026-04-23T16:57:46.999Z</time></trkpt><trkpt lat="42.32518075043076" lon="14.09918597135704"><ele>52.599999999999994</ele><time>2026-04-23T16:57:47.999Z</time></trkpt><trkpt lat="42.325122984274486" lon="14.09908969801073"><ele>53.0</ele><time>2026-04-23T16:57:48.999Z</time></trkpt><trkpt lat="42.32506909356732" lon="14.098987175773972"><ele>53.0</ele><time>2026-04-23T16:57:49.999Z</time></trkpt><trkpt lat="42.325000498955575" lon="14.098891228387743"><ele>53.0</ele><time>2026-04-23T16:57:50.999Z</time></trkpt><trkpt lat="42.32492085009495" lon="14.098766239186338"><ele>53.0</ele><time>2026-04-23T16:57:51.999Z</time></trkpt><trkpt lat="42.32481589070944" lon="14.098608831951005"><ele>53.0</ele><time>2026-04-23T16:57:52.999Z</time></trkpt><trkpt lat="42.32468517886902" lon="14.098414129246017"><ele>54.333333333333336</ele><time>2026-04-23T16:57:53.999Z</time></trkpt><trkpt lat="42.3245786547025" lon="14.098225542367933"><ele>55.66666666666667</ele><time>2026-04-23T16:57:54.999Z</time></trkpt><trkpt lat="42.32449251250605" lon="14.098051846327222"><ele>57.0</ele><time>2026-04-23T16:57:55.999Z</time></trkpt><trkpt lat="42.324405072846965" lon="14.09786562561906"><ele>57.0</ele><time>2026-04-23T16:57:56.999Z</time></trkpt><trkpt lat="42.32433330564999" lon="14.097651176586803"><ele>57.0</ele><time>2026-04-23T16:57:57.999Z</time></trkpt><trkpt lat="42.32427819539012" lon="14.097420321519705"><ele>57.0</ele><time>2026-04-23T16:57:58.999Z</time></trkpt><trkpt lat="42.32424866113704" lon="14.097184536926166"><ele>57.25</ele><time>2026-04-23T16:57:59.999Z</time></trkpt><trkpt lat="42.324220478891164" lon="14.097008815986193"><ele>57.5</ele><time>2026-04-23T16:58:00.999Z</time></trkpt><trkpt lat="42.324200406523474" lon="14.096869241767028"><ele>57.75</ele><time>2026-04-23T16:58:01.999Z</time></trkpt><trkpt lat="42.324156208850525" lon="14.096704792034283"><ele>58.0</ele><time>2026-04-23T16:58:02.999Z</time></trkpt><trkpt lat="42.324106401406674" lon="14.096512665228191"><ele>58.0</ele><time>2026-04-23T16:58:03.999Z</time></trkpt><trkpt lat="42.32406590048271" lon="14.096314797933141"><ele>58.0</ele><time>2026-04-23T16:58:04.999Z</time></trkpt><trkpt lat="42.324032649713025" lon="14.096138495918195"><ele>58.0</ele><time>2026-04-23T16:58:05.999Z</time></trkpt><trkpt lat="42.32400081826937" lon="14.095986197772088"><ele>58.0</ele><time>2026-04-23T16:58:06.999Z</time></trkpt><trkpt lat="42.32397087618916" lon="14.095838498539306"><ele>57.75</ele><time>2026-04-23T16:58:07.999Z</time></trkpt><trkpt lat="42.32393824668799" lon="14.09568213845186"><ele>57.5</ele><time>2026-04-23T16:58:08.999Z</time></trkpt><trkpt lat="42.3239051726316" lon="14.095520153713291"><ele>57.25</ele><time>2026-04-23T16:58:09.999Z</time></trkpt><trkpt lat="42.32387106927102" lon="14.095356890600181"><ele>57.0</ele><time>2026-04-23T16:58:10.999Z</time></trkpt><trkpt lat="42.32384518127354" lon="14.095207283519832"><ele>57.2</ele><time>2026-04-23T16:58:11.999Z</time></trkpt><trkpt lat="42.32382138558034" lon="14.095078000128716"><ele>57.400000000000006</ele><time>2026-04-23T16:58:12.999Z</time></trkpt><trkpt lat="42.323796172831486" lon="14.094952125717487"><ele>57.599999999999994</ele><time>2026-04-23T16:58:13.999Z</time></trkpt><trkpt lat="42.323766075238865" lon="14.094818487192372"><ele>57.8</ele><time>2026-04-23T16:58:14.999Z</time></trkpt><trkpt lat="42.32373791825149" lon="14.094681935734561"><ele>58.0</ele><time>2026-04-23T16:58:15.999Z</time></trkpt><trkpt lat="42.32370418267615" lon="14.094534467112538"><ele>58.0</ele><time>2026-04-23T16:58:16.999Z</time></trkpt><trkpt lat="42.32367039360931" lon="14.09437387720188"><ele>58.0</ele><time>2026-04-23T16:58:17.999Z</time></trkpt><trkpt lat="42.323632535217605" lon="14.094213697696693"><ele>58.0</ele><time>2026-04-23T16:58:18.999Z</time></trkpt><trkpt lat="42.32358962152704" lon="14.094062280390824"><ele>58.0</ele><time>2026-04-23T16:58:19.999Z</time></trkpt><trkpt lat="42.323542922201" lon="14.093912930573559"><ele>58.0</ele><time>2026-04-23T16:58:20.999Z</time></trkpt><trkpt lat="42.32348406222099" lon="14.093766968283555"><ele>58.0</ele><time>2026-04-23T16:58:21.999Z</time></trkpt><trkpt lat="42.32342259792951" lon="14.093625388848317"><ele>58.0</ele><time>2026-04-23T16:58:22.999Z</time></trkpt><trkpt lat="42.32335683643401" lon="14.093495009646508"><ele>58.0</ele><time>2026-04-23T16:58:23.999Z</time></trkpt><trkpt lat="42.32329236451241" lon="14.09337563885437"><ele>58.0</ele><time>2026-04-23T16:58:24.999Z</time></trkpt><trkpt lat="42.32323088972522" lon="14.093255958238773"><ele>58.0</ele><time>2026-04-23T16:58:25.999Z</time></trkpt><trkpt lat="42.32316746762098" lon="14.093126222357325"><ele>58.0</ele><time>2026-04-23T16:58:26.999Z</time></trkpt><trkpt lat="42.323106660977494" lon="14.092990752283185"><ele>58.0</ele><time>2026-04-23T16:58:27.999Z</time></trkpt><trkpt lat="42.32303457741286" lon="14.09284303389325"><ele>58.0</ele><time>2026-04-23T16:58:28.999Z</time></trkpt><trkpt lat="42.322932109594014" lon="14.09264966321304"><ele>58.0</ele><time>2026-04-23T16:58:29.999Z</time></trkpt><trkpt lat="42.32284553425629" lon="14.092458825095845"><ele>58.0</ele><time>2026-04-23T16:58:30.999Z</time></trkpt><trkpt lat="42.32277727301901" lon="14.092304939152484"><ele>58.2</ele><time>2026-04-23T16:58:31.999Z</time></trkpt><trkpt lat="42.322713727639595" lon="14.092173892167507"><ele>58.4</ele><time>2026-04-23T16:58:32.999Z</time></trkpt><trkpt lat="42.32264235853398" lon="14.092026666392227"><ele>58.60000000000001</ele><time>2026-04-23T16:58:33.999Z</time></trkpt><trkpt lat="42.322579060563655" lon="14.091888437767388"><ele>58.800000000000004</ele><time>2026-04-23T16:58:34.999Z</time></trkpt><trkpt lat="42.32254576527749" lon="14.09181455926011"><ele>59.0</ele><time>2026-04-23T16:58:35.999Z</time></trkpt><trkpt lat="42.32249957317923" lon="14.091746533274117"><ele>58.75</ele><time>2026-04-23T16:58:37.999Z</time></trkpt><trkpt lat="42.3224202012085" lon="14.091577528176625"><ele>58.5</ele><time>2026-04-23T16:58:39.999Z</time></trkpt><trkpt lat="42.32236075344951" lon="14.091444793119802"><ele>58.25</ele><time>2026-04-23T16:58:40.999Z</time></trkpt><trkpt lat="42.32227974917494" lon="14.09128040316557"><ele>58.0</ele><time>2026-04-23T16:58:41.999Z</time></trkpt><trkpt lat="42.32219261931249" lon="14.091104019530777"><ele>58.0</ele><time>2026-04-23T16:58:42.999Z</time></trkpt><trkpt lat="42.322123196023654" lon="14.090954925898105"><ele>58.0</ele><time>2026-04-23T16:58:43.999Z</time></trkpt><trkpt lat="42.322059267197375" lon="14.090824983545414"><ele>58.0</ele><time>2026-04-23T16:58:44.999Z</time></trkpt><trkpt lat="42.322004677629415" lon="14.090713183286873"><ele>58.0</ele><time>2026-04-23T16:58:45.999Z</time></trkpt><trkpt lat="42.32195600745537" lon="14.090611673758293"><ele>58.0</ele><time>2026-04-23T16:58:46.999Z</time></trkpt><trkpt lat="42.32189498431144" lon="14.09048917341384"><ele>58.0</ele><time>2026-04-23T16:58:47.999Z</time></trkpt><trkpt lat="42.32180925686103" lon="14.090319486668358"><ele>58.0</ele><time>2026-04-23T16:58:48.999Z</time></trkpt><trkpt lat="42.321716253539535" lon="14.090112706135187"><ele>58.0</ele><time>2026-04-23T16:58:49.999Z</time></trkpt><trkpt lat="42.32163603342505" lon="14.089933205884483"><ele>58.2</ele><time>2026-04-23T16:58:50.999Z</time></trkpt><trkpt lat="42.32157513411255" lon="14.089816808434838"><ele>58.4</ele><time>2026-04-23T16:58:51.999Z</time></trkpt><trkpt lat="42.321519351982424" lon="14.089711666443467"><ele>58.60000000000001</ele><time>2026-04-23T16:58:52.999Z</time></trkpt><trkpt lat="42.321469870026014" lon="14.08960212010575"><ele>58.800000000000004</ele><time>2026-04-23T16:58:53.999Z</time></trkpt><trkpt lat="42.32142008261872" lon="14.089499609434867"><ele>59.0</ele><time>2026-04-23T16:58:55Z</time></trkpt><trkpt lat="42.321369871186796" lon="14.08939509591989"><ele>59.0</ele><time>2026-04-23T16:58:56Z</time></trkpt><trkpt lat="42.321321871557956" lon="14.089288412518105"><ele>59.00000000000001</ele><time>2026-04-23T16:58:57Z</time></trkpt><trkpt lat="42.32127365701337" lon="14.089173697824204"><ele>59.00000000000001</ele><time>2026-04-23T16:58:58Z</time></trkpt><trkpt lat="42.321224630742726" lon="14.089033487444578"><ele>59.0</ele><time>2026-04-23T16:58:59Z</time></trkpt><trkpt lat="42.321171896948975" lon="14.088872875054214"><ele>59.0</ele><time>2026-04-23T16:59:00Z</time></trkpt><trkpt lat="42.32105014962854" lon="14.088739298183814"><ele>59.2</ele><time>2026-04-23T16:59:01Z</time></trkpt><trkpt lat="42.320986277870944" lon="14.088594590997914"><ele>59.400000000000006</ele><time>2026-04-23T16:59:02Z</time></trkpt><trkpt lat="42.320929598807744" lon="14.088472658753034"><ele>59.6</ele><time>2026-04-23T16:59:03Z</time></trkpt><trkpt lat="42.32086958222698" lon="14.088352311850631"><ele>59.8</ele><time>2026-04-23T16:59:04Z</time></trkpt><trkpt lat="42.320815554277196" lon="14.088236513241158"><ele>60.0</ele><time>2026-04-23T16:59:05Z</time></trkpt><trkpt lat="42.32075980364732" lon="14.0881144623601"><ele>60.0</ele><time>2026-04-23T16:59:06Z</time></trkpt><trkpt lat="42.320697554135364" lon="14.087989133794508"><ele>60.0</ele><time>2026-04-23T16:59:07Z</time></trkpt><trkpt lat="42.3206181202562" lon="14.08783708904424"><ele>60.0</ele><time>2026-04-23T16:59:08Z</time></trkpt><trkpt lat="42.32052695399853" lon="14.087649261866224"><ele>60.0</ele><time>2026-04-23T16:59:09Z</time></trkpt><trkpt lat="42.320439762031256" lon="14.087412531875305"><ele>60.5</ele><time>2026-04-23T16:59:10Z</time></trkpt><trkpt lat="42.32031703890934" lon="14.087140605775916"><ele>61.0</ele><time>2026-04-23T16:59:11Z</time></trkpt><trkpt lat="42.320166571136554" lon="14.086844909155506"><ele>60.0</ele><time>2026-04-23T16:59:12Z</time></trkpt><trkpt lat="42.32001214500474" lon="14.086528574266904"><ele>59.0</ele><time>2026-04-23T16:59:13Z</time></trkpt><trkpt lat="42.319877451962306" lon="14.086252295512526"><ele>59.0</ele><time>2026-04-23T16:59:14Z</time></trkpt><trkpt lat="42.319750972566325" lon="14.085982548308593"><ele>59.0</ele><time>2026-04-23T16:59:15Z</time></trkpt><trkpt lat="42.31962210553792" lon="14.085712709535374"><ele>60.0</ele><time>2026-04-23T16:59:16Z</time></trkpt><trkpt lat="42.31949977520734" lon="14.085466756615729"><ele>61.0</ele><time>2026-04-23T16:59:17Z</time></trkpt><trkpt lat="42.319391691160924" lon="14.085238271103027"><ele>62.0</ele><time>2026-04-23T16:59:18Z</time></trkpt><trkpt lat="42.319278064155725" lon="14.084995447535245"><ele>62.333333333333336</ele><time>2026-04-23T16:59:19Z</time></trkpt><trkpt lat="42.31916744241972" lon="14.084763531062087"><ele>62.66666666666667</ele><time>2026-04-23T16:59:20Z</time></trkpt><trkpt lat="42.3190602888354" lon="14.08454263254888"><ele>63.0</ele><time>2026-04-23T16:59:21Z</time></trkpt><trkpt lat="42.31895696729172" lon="14.084330055074277"><ele>63.0</ele><time>2026-04-23T16:59:22Z</time></trkpt><trkpt lat="42.31885695425413" lon="14.084122325958464"><ele>63.0</ele><time>2026-04-23T16:59:23Z</time></trkpt><trkpt lat="42.318761628374574" lon="14.083918115855601"><ele>63.0</ele><time>2026-04-23T16:59:24Z</time></trkpt><trkpt lat="42.31866854544439" lon="14.083723324624971"><ele>63.0</ele><time>2026-04-23T16:59:25Z</time></trkpt><trkpt lat="42.318576221848275" lon="14.083534266808728"><ele>63.0</ele><time>2026-04-23T16:59:26Z</time></trkpt><trkpt lat="42.3184889981813" lon="14.083344720311345"><ele>63.0</ele><time>2026-04-23T16:59:27Z</time></trkpt><trkpt lat="42.31840653684428" lon="14.083170405435686"><ele>63.25</ele><time>2026-04-23T16:59:28Z</time></trkpt><trkpt lat="42.318328482176604" lon="14.083006195164058"><ele>63.5</ele><time>2026-04-23T16:59:29Z</time></trkpt><trkpt lat="42.318254662217605" lon="14.082853540981938"><ele>63.75</ele><time>2026-04-23T16:59:30Z</time></trkpt><trkpt lat="42.3181868450278" lon="14.082717390547439"><ele>64.0</ele><time>2026-04-23T16:59:31Z</time></trkpt><trkpt lat="42.318123828216486" lon="14.082584908720477"><ele>64.0</ele><time>2026-04-23T16:59:32Z</time></trkpt><trkpt lat="42.318075210124114" lon="14.082471072718095"><ele>64.0</ele><time>2026-04-23T16:59:33Z</time></trkpt><trkpt lat="42.31802003661183" lon="14.082354439462305"><ele>64.0</ele><time>2026-04-23T16:59:34Z</time></trkpt><trkpt lat="42.31795398636319" lon="14.082227186801225"><ele>64.0</ele><time>2026-04-23T16:59:35Z</time></trkpt><trkpt lat="42.31788599914835" lon="14.082090926138491"><ele>64.0</ele><time>2026-04-23T16:59:36Z</time></trkpt><trkpt lat="42.31781973185407" lon="14.081950431044998"><ele>64.0</ele><time>2026-04-23T16:59:37Z</time></trkpt><trkpt lat="42.31775011735394" lon="14.081805596158715"><ele>64.0</ele><time>2026-04-23T16:59:38Z</time></trkpt><trkpt lat="42.31768366087677" lon="14.081658223531571"><ele>64.0</ele><time>2026-04-23T16:59:39Z</time></trkpt><trkpt lat="42.317610037788135" lon="14.08150925848794"><ele>64.0</ele><time>2026-04-23T16:59:40Z</time></trkpt><trkpt lat="42.317540440441995" lon="14.081359135260781"><ele>64.0</ele><time>2026-04-23T16:59:41Z</time></trkpt><trkpt lat="42.317471547898656" lon="14.081204742505564"><ele>64.0</ele><time>2026-04-23T16:59:42Z</time></trkpt><trkpt lat="42.31739636947492" lon="14.081053952935537"><ele>64.0</ele><time>2026-04-23T16:59:43Z</time></trkpt><trkpt lat="42.31732304867471" lon="14.080903001426591"><ele>64.0</ele><time>2026-04-23T16:59:44Z</time></trkpt><trkpt lat="42.31724381170439" lon="14.080741151180838"><ele>65.0</ele><time>2026-04-23T16:59:45Z</time></trkpt><trkpt lat="42.31715111832887" lon="14.0805546098324"><ele>66.0</ele><time>2026-04-23T16:59:46Z</time></trkpt><trkpt lat="42.31703799348838" lon="14.080350879354931"><ele>67.0</ele><time>2026-04-23T16:59:46.999Z</time></trkpt><trkpt lat="42.31693778001787" lon="14.080120666642603"><ele>67.0</ele><time>2026-04-23T16:59:47.999Z</time></trkpt><trkpt lat="42.316835144524376" lon="14.07991556141272"><ele>67.0</ele><time>2026-04-23T16:59:48.999Z</time></trkpt><trkpt lat="42.31675382456235" lon="14.079735532571954"><ele>67.0</ele><time>2026-04-23T16:59:49.999Z</time></trkpt><trkpt lat="42.316668868169195" lon="14.07956038030265"><ele>67.0</ele><time>2026-04-23T16:59:50.999Z</time></trkpt><trkpt lat="42.31658636784276" lon="14.079389065293121"><ele>67.0</ele><time>2026-04-23T16:59:51.999Z</time></trkpt><trkpt lat="42.3165120479221" lon="14.079234102570874"><ele>67.0</ele><time>2026-04-23T16:59:52.999Z</time></trkpt><trkpt lat="42.31644275257893" lon="14.079085401425676"><ele>67.0</ele><time>2026-04-23T16:59:53.999Z</time></trkpt><trkpt lat="42.31637445722504" lon="14.078947280692955"><ele>67.25</ele><time>2026-04-23T16:59:54.999Z</time></trkpt><trkpt lat="42.316312331269756" lon="14.078824527756293"><ele>67.5</ele><time>2026-04-23T16:59:55.999Z</time></trkpt><trkpt lat="42.316243341171386" lon="14.078702273387336"><ele>67.75</ele><time>2026-04-23T16:59:56.999Z</time></trkpt><trkpt lat="42.31617275788328" lon="14.078533102041657"><ele>68.0</ele><time>2026-04-23T16:59:57.999Z</time></trkpt><trkpt lat="42.316068414100656" lon="14.078343436054743"><ele>68.0</ele><time>2026-04-23T16:59:58.999Z</time></trkpt><trkpt lat="42.3159805461145" lon="14.078108224948181"><ele>68.0</ele><time>2026-04-23T16:59:59.999Z</time></trkpt><trkpt lat="42.31586481297975" lon="14.077863488309333"><ele>68.0</ele><time>2026-04-23T17:00:00.999Z</time></trkpt><trkpt lat="42.31574758916263" lon="14.077633418760051"><ele>68.0</ele><time>2026-04-23T17:00:01.999Z</time></trkpt><trkpt lat="42.315650887213984" lon="14.077436879247795"><ele>68.0</ele><time>2026-04-23T17:00:02.999Z</time></trkpt><trkpt lat="42.31556168508687" lon="14.07725693554784"><ele>68.0</ele><time>2026-04-23T17:00:03.999Z</time></trkpt><trkpt lat="42.315486465815354" lon="14.07709206313761"><ele>68.25</ele><time>2026-04-23T17:00:04.999Z</time></trkpt><trkpt lat="42.31542090364296" lon="14.076954973444083"><ele>68.5</ele><time>2026-04-23T17:00:05.999Z</time></trkpt><trkpt lat="42.31535792397702" lon="14.07682740865637"><ele>68.75</ele><time>2026-04-23T17:00:06.999Z</time></trkpt><trkpt lat="42.31528041739918" lon="14.076688958764054"><ele>69.0</ele><time>2026-04-23T17:00:07.999Z</time></trkpt><trkpt lat="42.31521677173398" lon="14.076551396553477"><ele>69.0</ele><time>2026-04-23T17:00:08.999Z</time></trkpt><trkpt lat="42.3151800875806" lon="14.076450306512237"><ele>69.0</ele><time>2026-04-23T17:00:09.999Z</time></trkpt><trkpt lat="42.31514081049948" lon="14.076371076261566"><ele>69.0</ele><time>2026-04-23T17:00:10.999Z</time></trkpt><trkpt lat="42.31510281856063" lon="14.076295062084872"><ele>69.0</ele><time>2026-04-23T17:00:11.999Z</time></trkpt><trkpt lat="42.31506689413398" lon="14.076221342756643"><ele>69.0</ele><time>2026-04-23T17:00:12.999Z</time></trkpt><trkpt lat="42.31499889555706" lon="14.076083952586677"><ele>69.0</ele><time>2026-04-23T17:00:14.999Z</time></trkpt><trkpt lat="42.31496433037276" lon="14.07600955036481"><ele>69.0</ele><time>2026-04-23T17:00:15.999Z</time></trkpt><trkpt lat="42.31492973245651" lon="14.075936444041918"><ele>69.0</ele><time>2026-04-23T17:00:16.999Z</time></trkpt><trkpt lat="42.31489788428342" lon="14.075861699957068"><ele>69.0</ele><time>2026-04-23T17:00:17.999Z</time></trkpt><trkpt lat="42.31486502319349" lon="14.0757823606082"><ele>69.0</ele><time>2026-04-23T17:00:18.999Z</time></trkpt><trkpt lat="42.31480671362808" lon="14.075643918376397"><ele>69.0</ele><time>2026-04-23T17:00:20.999Z</time></trkpt><trkpt lat="42.3147557699704" lon="14.075503025395413"><ele>69.0</ele><time>2026-04-23T17:00:22.999Z</time></trkpt><trkpt lat="42.314743021576305" lon="14.075361820325034"><ele>68.8</ele><time>2026-04-23T17:00:24.999Z</time></trkpt><trkpt lat="42.31477856336562" lon="14.075243402117923"><ele>68.60000000000001</ele><time>2026-04-23T17:00:26.999Z</time></trkpt><trkpt lat="42.3147882157829" lon="14.075110653270356"><ele>68.4</ele><time>2026-04-23T17:00:28.999Z</time></trkpt><trkpt lat="42.31475683060639" lon="14.07501041147507"><ele>68.2</ele><time>2026-04-23T17:00:29.999Z</time></trkpt><trkpt lat="42.31469057175376" lon="14.074893847870953"><ele>68.0</ele><time>2026-04-23T17:00:30.999Z</time></trkpt><trkpt lat="42.31459277981966" lon="14.074760505539349"><ele>68.0</ele><time>2026-04-23T17:00:31.999Z</time></trkpt><trkpt lat="42.31448339931854" lon="14.07460941401109"><ele>68.0</ele><time>2026-04-23T17:00:32.999Z</time></trkpt><trkpt lat="42.31440964652278" lon="14.07443941854297"><ele>68.0</ele><time>2026-04-23T17:00:33.999Z</time></trkpt><trkpt lat="42.314373805451474" lon="14.074273845092232"><ele>68.0</ele><time>2026-04-23T17:00:34.999Z</time></trkpt><trkpt lat="42.31434374099234" lon="14.074064085375893"><ele>68.0</ele><time>2026-04-23T17:00:35.999Z</time></trkpt><trkpt lat="42.31431934920551" lon="14.073847313344322"><ele>68.0</ele><time>2026-04-23T17:00:36.999Z</time></trkpt><trkpt lat="42.31429650293305" lon="14.073582321662045"><ele>68.0</ele><time>2026-04-23T17:00:37.999Z</time></trkpt><trkpt lat="42.3142715153073" lon="14.073257296251292"><ele>68.0</ele><time>2026-04-23T17:00:38.999Z</time></trkpt><trkpt lat="42.31424912708374" lon="14.072891258212652"><ele>68.0</ele><time>2026-04-23T17:00:39.999Z</time></trkpt><trkpt lat="42.31421026249478" lon="14.072502746690047"><ele>68.5</ele><time>2026-04-23T17:00:40.999Z</time></trkpt><trkpt lat="42.31417410332838" lon="14.072148050218106"><ele>69.0</ele><time>2026-04-23T17:00:41.999Z</time></trkpt><trkpt lat="42.3141468209595" lon="14.071839386937022"><ele>68.33333333333333</ele><time>2026-04-23T17:00:42.999Z</time></trkpt><trkpt lat="42.31411779167513" lon="14.071537935862748"><ele>67.66666666666666</ele><time>2026-04-23T17:00:43.999Z</time></trkpt><trkpt lat="42.31409307955354" lon="14.071255542343785"><ele>67.0</ele><time>2026-04-23T17:00:44.999Z</time></trkpt><trkpt lat="42.314068516176604" lon="14.070987599917624"><ele>66.66666666666666</ele><time>2026-04-23T17:00:45.999Z</time></trkpt><trkpt lat="42.31404412505563" lon="14.070719320173074"><ele>66.33333333333333</ele><time>2026-04-23T17:00:46.999Z</time></trkpt><trkpt lat="42.31401582892354" lon="14.07044817664377"><ele>66.0</ele><time>2026-04-23T17:00:47.999Z</time></trkpt><trkpt lat="42.31399439151846" lon="14.070208991931786"><ele>66.0</ele><time>2026-04-23T17:00:48.999Z</time></trkpt><trkpt lat="42.31397356575973" lon="14.069982169103662"><ele>66.0</ele><time>2026-04-23T17:00:49.999Z</time></trkpt><trkpt lat="42.31395465770953" lon="14.069769915759007"><ele>66.0</ele><time>2026-04-23T17:00:50.999Z</time></trkpt><trkpt lat="42.31393383118891" lon="14.069571604766672"><ele>66.0</ele><time>2026-04-23T17:00:51.999Z</time></trkpt><trkpt lat="42.31391579491529" lon="14.069374060827199"><ele>66.0</ele><time>2026-04-23T17:00:52.999Z</time></trkpt><trkpt lat="42.31389388966248" lon="14.069174286908764"><ele>66.0</ele><time>2026-04-23T17:00:53.999Z</time></trkpt><trkpt lat="42.313880881074354" lon="14.068983346154901"><ele>66.0</ele><time>2026-04-23T17:00:54.999Z</time></trkpt><trkpt lat="42.313865606090204" lon="14.068793138299064"><ele>66.0</ele><time>2026-04-23T17:00:55.999Z</time></trkpt><trkpt lat="42.31384999129085" lon="14.068608504330452"><ele>66.0</ele><time>2026-04-23T17:00:56.999Z</time></trkpt><trkpt lat="42.31383432210499" lon="14.06842912935181"><ele>66.0</ele><time>2026-04-23T17:00:57.999Z</time></trkpt><trkpt lat="42.313817392526886" lon="14.068258168990017"><ele>66.0</ele><time>2026-04-23T17:00:58.999Z</time></trkpt><trkpt lat="42.31379573032721" lon="14.068086298186039"><ele>66.25</ele><time>2026-04-23T17:01:00Z</time></trkpt><trkpt lat="42.31377848689176" lon="14.06791148033326"><ele>66.5</ele><time>2026-04-23T17:01:01Z</time></trkpt><trkpt lat="42.313761723715906" lon="14.067730112170809"><ele>66.75</ele><time>2026-04-23T17:01:02Z</time></trkpt><trkpt lat="42.31374594048673" lon="14.067551033729202"><ele>67.0</ele><time>2026-04-23T17:01:03Z</time></trkpt><trkpt lat="42.31373076016336" lon="14.067375152905576"><ele>67.0</ele><time>2026-04-23T17:01:04Z</time></trkpt><trkpt lat="42.313713327891776" lon="14.067193218325988"><ele>67.0</ele><time>2026-04-23T17:01:05Z</time></trkpt><trkpt lat="42.31369705982474" lon="14.067005745711567"><ele>67.0</ele><time>2026-04-23T17:01:06Z</time></trkpt><trkpt lat="42.313681219844106" lon="14.06681599191906"><ele>67.0</ele><time>2026-04-23T17:01:07Z</time></trkpt><trkpt lat="42.31366521111584" lon="14.06662850111028"><ele>67.0</ele><time>2026-04-23T17:01:08Z</time></trkpt><trkpt lat="42.31364537267821" lon="14.06644049973098"><ele>67.0</ele><time>2026-04-23T17:01:09Z</time></trkpt><trkpt lat="42.313628862622856" lon="14.066255509212601"><ele>67.0</ele><time>2026-04-23T17:01:10Z</time></trkpt><trkpt lat="42.313609511347096" lon="14.066064200248523"><ele>67.0</ele><time>2026-04-23T17:01:11Z</time></trkpt><trkpt lat="42.31358915278834" lon="14.065865863699042"><ele>67.5</ele><time>2026-04-23T17:01:12Z</time></trkpt><trkpt lat="42.31356956864132" lon="14.065668412090474"><ele>68.0</ele><time>2026-04-23T17:01:13Z</time></trkpt><trkpt lat="42.313548696151216" lon="14.065474935067089"><ele>68.5</ele><time>2026-04-23T17:01:14Z</time></trkpt><trkpt lat="42.31352533567936" lon="14.065269506605057"><ele>69.0</ele><time>2026-04-23T17:01:15Z</time></trkpt><trkpt lat="42.31349250041586" lon="14.065061889800738"><ele>68.66666666666667</ele><time>2026-04-23T17:01:16Z</time></trkpt><trkpt lat="42.31345039049428" lon="14.064844768649104"><ele>68.33333333333334</ele><time>2026-04-23T17:01:17Z</time></trkpt><trkpt lat="42.313401498167494" lon="14.064648445370933"><ele>68.0</ele><time>2026-04-23T17:01:18Z</time></trkpt><trkpt lat="42.31334945525683" lon="14.064465064798435"><ele>68.0</ele><time>2026-04-23T17:01:19Z</time></trkpt><trkpt lat="42.31329051883222" lon="14.064285509431844"><ele>68.0</ele><time>2026-04-23T17:01:20Z</time></trkpt><trkpt lat="42.31322716710507" lon="14.064104981848844"><ele>68.0</ele><time>2026-04-23T17:01:21Z</time></trkpt><trkpt lat="42.31315753876634" lon="14.063923716153788"><ele>68.0</ele><time>2026-04-23T17:01:22Z</time></trkpt><trkpt lat="42.31307607740644" lon="14.063742702371338"><ele>67.66666666666667</ele><time>2026-04-23T17:01:23Z</time></trkpt><trkpt lat="42.31297290819867" lon="14.06354307680057"><ele>67.33333333333333</ele><time>2026-04-23T17:01:24Z</time></trkpt><trkpt lat="42.312837089019986" lon="14.063311179854777"><ele>67.0</ele><time>2026-04-23T17:01:25Z</time></trkpt><trkpt lat="42.31270353137395" lon="14.063033194595356"><ele>66.0</ele><time>2026-04-23T17:01:26Z</time></trkpt><trkpt lat="42.31253318278647" lon="14.062738165902688"><ele>65.0</ele><time>2026-04-23T17:01:27Z</time></trkpt><trkpt lat="42.31236372298573" lon="14.062398487811578"><ele>64.5</ele><time>2026-04-23T17:01:28Z</time></trkpt><trkpt lat="42.31217474070553" lon="14.06204647445743"><ele>64.0</ele><time>2026-04-23T17:01:29Z</time></trkpt><trkpt lat="42.31198077121125" lon="14.06170646587561"><ele>65.0</ele><time>2026-04-23T17:01:30Z</time></trkpt><trkpt lat="42.31181507315802" lon="14.061403464511256"><ele>66.0</ele><time>2026-04-23T17:01:31Z</time></trkpt><trkpt lat="42.311664537116826" lon="14.061130161220039"><ele>66.0</ele><time>2026-04-23T17:01:32Z</time></trkpt><trkpt lat="42.31151683384827" lon="14.060862344748797"><ele>66.0</ele><time>2026-04-23T17:01:33Z</time></trkpt><trkpt lat="42.311369598350105" lon="14.060590894866424"><ele>67.0</ele><time>2026-04-23T17:01:34Z</time></trkpt><trkpt lat="42.31121221957106" lon="14.060316414479736"><ele>68.0</ele><time>2026-04-23T17:01:35Z</time></trkpt><trkpt lat="42.31106681070502" lon="14.060027879553473"><ele>67.66666666666667</ele><time>2026-04-23T17:01:36Z</time></trkpt><trkpt lat="42.3109446377092" lon="14.05975498928325"><ele>67.33333333333333</ele><time>2026-04-23T17:01:37Z</time></trkpt><trkpt lat="42.310795651268485" lon="14.059549741707869"><ele>67.0</ele><time>2026-04-23T17:01:38Z</time></trkpt><trkpt lat="42.310642387409494" lon="14.059324793998949"><ele>67.0</ele><time>2026-04-23T17:01:39Z</time></trkpt><trkpt lat="42.31054128951138" lon="14.05909624343053"><ele>67.0</ele><time>2026-04-23T17:01:40Z</time></trkpt><trkpt lat="42.310436879165835" lon="14.058922427848733"><ele>67.0</ele><time>2026-04-23T17:01:41Z</time></trkpt><trkpt lat="42.31033868455425" lon="14.05873561094624"><ele>67.0</ele><time>2026-04-23T17:01:42Z</time></trkpt><trkpt lat="42.31020885146728" lon="14.058526713895228"><ele>67.0</ele><time>2026-04-23T17:01:43Z</time></trkpt><trkpt lat="42.31007100396246" lon="14.058282338604393"><ele>67.0</ele><time>2026-04-23T17:01:44Z</time></trkpt><trkpt lat="42.30994437819515" lon="14.058012311331773"><ele>65.5</ele><time>2026-04-23T17:01:45Z</time></trkpt><trkpt lat="42.30981151756659" lon="14.05774032615186"><ele>64.0</ele><time>2026-04-23T17:01:46Z</time></trkpt><trkpt lat="42.30967903737048" lon="14.057496558639615"><ele>64.0</ele><time>2026-04-23T17:01:47Z</time></trkpt><trkpt lat="42.30955335304452" lon="14.057271029306495"><ele>64.0</ele><time>2026-04-23T17:01:48Z</time></trkpt><trkpt lat="42.30943235872985" lon="14.05706181465353"><ele>64.0</ele><time>2026-04-23T17:01:49Z</time></trkpt><trkpt lat="42.30930587247282" lon="14.056859381097944"><ele>64.0</ele><time>2026-04-23T17:01:50Z</time></trkpt><trkpt lat="42.30916080558919" lon="14.056666289417336"><ele>64.0</ele><time>2026-04-23T17:01:51Z</time></trkpt><trkpt lat="42.30899911235229" lon="14.056498159300498"><ele>64.0</ele><time>2026-04-23T17:01:52Z</time></trkpt><trkpt lat="42.30882387023654" lon="14.056345420589953"><ele>63.666666666666664</ele><time>2026-04-23T17:01:53Z</time></trkpt><trkpt lat="42.30863597756516" lon="14.05620904114485"><ele>63.33333333333333</ele><time>2026-04-23T17:01:54Z</time></trkpt><trkpt lat="42.30843765095888" lon="14.056088552489031"><ele>63.0</ele><time>2026-04-23T17:01:55Z</time></trkpt><trkpt lat="42.30823757997573" lon="14.055977032433473"><ele>62.66666666666667</ele><time>2026-04-23T17:01:56Z</time></trkpt><trkpt lat="42.30803722104594" lon="14.055863647512146"><ele>62.333333333333336</ele><time>2026-04-23T17:01:57Z</time></trkpt><trkpt lat="42.30784065938208" lon="14.05574822679223"><ele>62.0</ele><time>2026-04-23T17:01:58Z</time></trkpt><trkpt lat="42.307642430470615" lon="14.055634331310209"><ele>62.0</ele><time>2026-04-23T17:01:59Z</time></trkpt><trkpt lat="42.30744836690169" lon="14.055521082208807"><ele>62.0</ele><time>2026-04-23T17:02:00Z</time></trkpt><trkpt lat="42.307257427898875" lon="14.055406633649591"><ele>62.0</ele><time>2026-04-23T17:02:00.999Z</time></trkpt><trkpt lat="42.30706424520361" lon="14.055293308075754"><ele>61.66666666666667</ele><time>2026-04-23T17:02:01.999Z</time></trkpt><trkpt lat="42.30687247535069" lon="14.055181104156338"><ele>61.33333333333333</ele><time>2026-04-23T17:02:02.999Z</time></trkpt><trkpt lat="42.306685209131565" lon="14.055070129294405"><ele>61.0</ele><time>2026-04-23T17:02:03.999Z</time></trkpt><trkpt lat="42.30650985334556" lon="14.054966065182471"><ele>61.666666666666664</ele><time>2026-04-23T17:02:04.999Z</time></trkpt><trkpt lat="42.30634297582887" lon="14.05486908209675"><ele>62.33333333333333</ele><time>2026-04-23T17:02:05.999Z</time></trkpt><trkpt lat="42.30617606600414" lon="14.054772050573748"><ele>63.0</ele><time>2026-04-23T17:02:06.999Z</time></trkpt><trkpt lat="42.30600452267501" lon="14.05467266613888"><ele>63.0</ele><time>2026-04-23T17:02:07.999Z</time></trkpt><trkpt lat="42.30583000094394" lon="14.054569587640255"><ele>63.0</ele><time>2026-04-23T17:02:08.999Z</time></trkpt><trkpt lat="42.30565705235368" lon="14.054469746106266"><ele>63.0</ele><time>2026-04-23T17:02:09.999Z</time></trkpt><trkpt lat="42.305488815491024" lon="14.054373348278608"><ele>62.33333333333333</ele><time>2026-04-23T17:02:10.999Z</time></trkpt><trkpt lat="42.30532738942685" lon="14.054276479586825"><ele>61.666666666666664</ele><time>2026-04-23T17:02:11.999Z</time></trkpt><trkpt lat="42.30517179925961" lon="14.054181896960582"><ele>61.0</ele><time>2026-04-23T17:02:12.999Z</time></trkpt><trkpt lat="42.30503273322938" lon="14.05409013840091"><ele>61.0</ele><time>2026-04-23T17:02:13.999Z</time></trkpt><trkpt lat="42.3049011893484" lon="14.053996649251346"><ele>61.0</ele><time>2026-04-23T17:02:14.999Z</time></trkpt><trkpt lat="42.30478466339918" lon="14.053905890533715"><ele>61.0</ele><time>2026-04-23T17:02:15.999Z</time></trkpt><trkpt lat="42.30468703419062" lon="14.053821394494992"><ele>61.0</ele><time>2026-04-23T17:02:16.999Z</time></trkpt><trkpt lat="42.30459971016027" lon="14.053741251337337"><ele>60.99999999999999</ele><time>2026-04-23T17:02:17.999Z</time></trkpt><trkpt lat="42.304519239459964" lon="14.05366687557541"><ele>61.0</ele><time>2026-04-23T17:02:18.999Z</time></trkpt><trkpt lat="42.304445187142505" lon="14.053593800078094"><ele>61.0</ele><time>2026-04-23T17:02:19.999Z</time></trkpt><trkpt lat="42.30437967211241" lon="14.053528350045935"><ele>61.0</ele><time>2026-04-23T17:02:20.999Z</time></trkpt><trkpt lat="42.30432574203347" lon="14.053474498968281"><ele>60.99999999999999</ele><time>2026-04-23T17:02:21.999Z</time></trkpt><trkpt lat="42.30426289831273" lon="14.053408411947691"><ele>61.0</ele><time>2026-04-23T17:02:23.999Z</time></trkpt><trkpt lat="42.30418795936562" lon="14.053335342778327"><ele>61.199999999999996</ele><time>2026-04-23T17:03:03.999Z</time></trkpt><trkpt lat="42.30412433852619" lon="14.053266179499447"><ele>61.39999999999999</ele><time>2026-04-23T17:03:05Z</time></trkpt><trkpt lat="42.304045813688894" lon="14.053182050064892"><ele>61.6</ele><time>2026-04-23T17:03:06Z</time></trkpt><trkpt lat="42.30396298963751" lon="14.053091002739308"><ele>61.8</ele><time>2026-04-23T17:03:07Z</time></trkpt><trkpt lat="42.30386558337871" lon="14.052997576227703"><ele>62.0</ele><time>2026-04-23T17:03:08Z</time></trkpt><trkpt lat="42.303773947297245" lon="14.052887292381769"><ele>62.25</ele><time>2026-04-23T17:03:09Z</time></trkpt><trkpt lat="42.30368115700371" lon="14.05277129092316"><ele>62.5</ele><time>2026-04-23T17:03:10Z</time></trkpt><trkpt lat="42.303551871251095" lon="14.052717456856069"><ele>62.75</ele><time>2026-04-23T17:03:11Z</time></trkpt><trkpt lat="42.30342754403789" lon="14.052601947879566"><ele>63.0</ele><time>2026-04-23T17:03:12Z</time></trkpt><trkpt lat="42.30328945438944" lon="14.052473756943344"><ele>63.0</ele><time>2026-04-23T17:03:13Z</time></trkpt><trkpt lat="42.30310797698284" lon="14.052296409557343"><ele>63.0</ele><time>2026-04-23T17:03:14Z</time></trkpt><trkpt lat="42.30290252767119" lon="14.052092985357481"><ele>63.0</ele><time>2026-04-23T17:03:15Z</time></trkpt><trkpt lat="42.30266915547392" lon="14.051863284592628"><ele>63.0</ele><time>2026-04-23T17:03:16Z</time></trkpt><trkpt lat="42.302413917019194" lon="14.05160993960912"><ele>63.5</ele><time>2026-04-23T17:03:17Z</time></trkpt><trkpt lat="42.302148867403936" lon="14.051349257939115"><ele>64.0</ele><time>2026-04-23T17:03:18Z</time></trkpt><trkpt lat="42.3018685139396" lon="14.051065507148842"><ele>64.0</ele><time>2026-04-23T17:03:19Z</time></trkpt><trkpt lat="42.30160338333545" lon="14.050797585144965"><ele>64.0</ele><time>2026-04-23T17:03:20Z</time></trkpt><trkpt lat="42.301373839168" lon="14.05057270433622"><ele>67.0</ele><time>2026-04-23T17:03:21Z</time></trkpt><trkpt lat="42.30116710643325" lon="14.05037030057515"><ele>70.0</ele><time>2026-04-23T17:03:22Z</time></trkpt><trkpt lat="42.30097488058646" lon="14.050189127261815"><ele>70.0</ele><time>2026-04-23T17:03:23Z</time></trkpt><trkpt lat="42.300795529183674" lon="14.050013671177032"><ele>70.0</ele><time>2026-04-23T17:03:24Z</time></trkpt><trkpt lat="42.30062006605317" lon="14.04984398709296"><ele>70.0</ele><time>2026-04-23T17:03:25Z</time></trkpt><trkpt lat="42.30043982700676" lon="14.049667324637566"><ele>69.33333333333333</ele><time>2026-04-23T17:03:26Z</time></trkpt><trkpt lat="42.300266056782405" lon="14.04948187245702"><ele>68.66666666666667</ele><time>2026-04-23T17:03:27Z</time></trkpt><trkpt lat="42.30011396342188" lon="14.049279408684896"><ele>68.0</ele><time>2026-04-23T17:03:28Z</time></trkpt><trkpt lat="42.299992758183244" lon="14.04903101668222"><ele>68.0</ele><time>2026-04-23T17:03:29Z</time></trkpt><trkpt lat="42.299859162298326" lon="14.048753205659104"><ele>68.0</ele><time>2026-04-23T17:03:30Z</time></trkpt><trkpt lat="42.29971522090294" lon="14.048463903435104"><ele>73.0</ele><time>2026-04-23T17:03:31Z</time></trkpt><trkpt lat="42.2995795399764" lon="14.04815385389051"><ele>78.0</ele><time>2026-04-23T17:03:32Z</time></trkpt><trkpt lat="42.2994309713608" lon="14.047846531766842"><ele>78.0</ele><time>2026-04-23T17:03:33Z</time></trkpt><trkpt lat="42.29927537976001" lon="14.047538592435203"><ele>78.0</ele><time>2026-04-23T17:03:34Z</time></trkpt><trkpt lat="42.29913671557323" lon="14.047249936429623"><ele>76.0</ele><time>2026-04-23T17:03:35Z</time></trkpt><trkpt lat="42.299011135029154" lon="14.046987932763026"><ele>74.0</ele><time>2026-04-23T17:03:36Z</time></trkpt><trkpt lat="42.29889051041489" lon="14.04673156105275"><ele>77.0</ele><time>2026-04-23T17:03:37Z</time></trkpt><trkpt lat="42.29876698926999" lon="14.046472503603667"><ele>80.0</ele><time>2026-04-23T17:03:38Z</time></trkpt><trkpt lat="42.29864388608972" lon="14.046219343724745"><ele>80.0</ele><time>2026-04-23T17:03:39Z</time></trkpt><trkpt lat="42.29852545418614" lon="14.045966423715527"><ele>80.0</ele><time>2026-04-23T17:03:40Z</time></trkpt><trkpt lat="42.29841324171261" lon="14.045723687511227"><ele>80.0</ele><time>2026-04-23T17:03:41Z</time></trkpt><trkpt lat="42.298297088462974" lon="14.045482251006202"><ele>78.33333333333334</ele><time>2026-04-23T17:03:42Z</time></trkpt><trkpt lat="42.29819108138776" lon="14.045258209023416"><ele>76.66666666666667</ele><time>2026-04-23T17:03:43Z</time></trkpt><trkpt lat="42.298085349322754" lon="14.045027932323725"><ele>75.0</ele><time>2026-04-23T17:03:44Z</time></trkpt><trkpt lat="42.29799158160214" lon="14.044790795667396"><ele>79.0</ele><time>2026-04-23T17:03:45Z</time></trkpt><trkpt lat="42.29789991343752" lon="14.044539736344124"><ele>83.0</ele><time>2026-04-23T17:03:46Z</time></trkpt><trkpt lat="42.297828718451996" lon="14.044261615577208"><ele>87.0</ele><time>2026-04-23T17:03:47Z</time></trkpt><trkpt lat="42.29776375165679" lon="14.043949303791479"><ele>88.0</ele><time>2026-04-23T17:03:48Z</time></trkpt><trkpt lat="42.297701134131984" lon="14.043623832626604"><ele>89.0</ele><time>2026-04-23T17:03:49Z</time></trkpt><trkpt lat="42.297640564754" lon="14.043314380012257"><ele>88.33333333333334</ele><time>2026-04-23T17:03:50Z</time></trkpt><trkpt lat="42.297581216085405" lon="14.043040048276032"><ele>87.66666666666667</ele><time>2026-04-23T17:03:51Z</time></trkpt><trkpt lat="42.297531175100595" lon="14.042800685374148"><ele>87.0</ele><time>2026-04-23T17:03:52Z</time></trkpt><trkpt lat="42.29748104335044" lon="14.042581801059622"><ele>84.33333333333333</ele><time>2026-04-23T17:03:53Z</time></trkpt><trkpt lat="42.29742818883805" lon="14.04238813442556"><ele>81.66666666666666</ele><time>2026-04-23T17:03:54Z</time></trkpt><trkpt lat="42.297351797940784" lon="14.042204072543356"><ele>79.0</ele><time>2026-04-23T17:03:55Z</time></trkpt><trkpt lat="42.29726087186185" lon="14.042032138621645"><ele>79.0</ele><time>2026-04-23T17:03:56Z</time></trkpt><trkpt lat="42.29715917021081" lon="14.04186550204422"><ele>79.0</ele><time>2026-04-23T17:03:57Z</time></trkpt><trkpt lat="42.29704972974178" lon="14.041706191840749"><ele>79.0</ele><time>2026-04-23T17:03:58Z</time></trkpt><trkpt lat="42.2969400257495" lon="14.041581814710055"><ele>79.0</ele><time>2026-04-23T17:03:59Z</time></trkpt><trkpt lat="42.29683306292263" lon="14.041490553239337"><ele>79.0</ele><time>2026-04-23T17:04:00Z</time></trkpt><trkpt lat="42.2967151790237" lon="14.041393523896472"><ele>79.0</ele><time>2026-04-23T17:04:01Z</time></trkpt><trkpt lat="42.29656534857007" lon="14.041296786077227"><ele>79.0</ele><time>2026-04-23T17:04:02Z</time></trkpt><trkpt lat="42.29638761274603" lon="14.041173407761352"><ele>78.0</ele><time>2026-04-23T17:04:03Z</time></trkpt><trkpt lat="42.296204900936516" lon="14.041041331950822"><ele>77.0</ele><time>2026-04-23T17:04:04Z</time></trkpt><trkpt lat="42.296023774553234" lon="14.04092144086057"><ele>76.0</ele><time>2026-04-23T17:04:05Z</time></trkpt><trkpt lat="42.29584167078086" lon="14.040817000873924"><ele>75.0</ele><time>2026-04-23T17:04:06Z</time></trkpt><trkpt lat="42.295649406401594" lon="14.04070720127266"><ele>74.0</ele><time>2026-04-23T17:04:06.999Z</time></trkpt><trkpt lat="42.29545211965448" lon="14.040590273868775"><ele>73.0</ele><time>2026-04-23T17:04:07.999Z</time></trkpt><trkpt lat="42.295276498550024" lon="14.040490140746824"><ele>73.0</ele><time>2026-04-23T17:04:08.999Z</time></trkpt><trkpt lat="42.29513120736288" lon="14.040402557152804"><ele>73.0</ele><time>2026-04-23T17:04:09.999Z</time></trkpt><trkpt lat="42.294999882523655" lon="14.040326542879201"><ele>73.0</ele><time>2026-04-23T17:04:10.999Z</time></trkpt><trkpt lat="42.2948798860393" lon="14.040256381109586"><ele>73.0</ele><time>2026-04-23T17:04:11.999Z</time></trkpt><trkpt lat="42.29477108754611" lon="14.040206214998348"><ele>73.0</ele><time>2026-04-23T17:04:12.999Z</time></trkpt><trkpt lat="42.294655714548675" lon="14.040114411303035"><ele>73.0</ele><time>2026-04-23T17:04:13.999Z</time></trkpt><trkpt lat="42.2945028226764" lon="14.040022745302966"><ele>73.0</ele><time>2026-04-23T17:04:14.999Z</time></trkpt><trkpt lat="42.294323569285346" lon="14.039909709167304"><ele>73.0</ele><time>2026-04-23T17:04:15.999Z</time></trkpt><trkpt lat="42.29412032540404" lon="14.0397686758445"><ele>73.0</ele><time>2026-04-23T17:04:16.999Z</time></trkpt><trkpt lat="42.29389313645771" lon="14.039624793138419"><ele>73.0</ele><time>2026-04-23T17:04:17.999Z</time></trkpt><trkpt lat="42.29365448653648" lon="14.039461776899358"><ele>73.0</ele><time>2026-04-23T17:04:18.999Z</time></trkpt><trkpt lat="42.293406368165364" lon="14.039278369473678"><ele>72.0</ele><time>2026-04-23T17:04:19.999Z</time></trkpt><trkpt lat="42.29313493119612" lon="14.039080636732812"><ele>71.0</ele><time>2026-04-23T17:04:20.999Z</time></trkpt><trkpt lat="42.29286349898445" lon="14.038881467470116"><ele>71.0</ele><time>2026-04-23T17:04:21.999Z</time></trkpt><trkpt lat="42.29262571974108" lon="14.03870413486886"><ele>71.0</ele><time>2026-04-23T17:04:22.999Z</time></trkpt><trkpt lat="42.292405556644034" lon="14.038545659876123"><ele>74.5</ele><time>2026-04-23T17:04:23.999Z</time></trkpt><trkpt lat="42.29219902936273" lon="14.038388546959919"><ele>78.0</ele><time>2026-04-23T17:04:24.999Z</time></trkpt><trkpt lat="42.291996857826994" lon="14.038234355348095"><ele>78.0</ele><time>2026-04-23T17:04:25.999Z</time></trkpt><trkpt lat="42.29179692499905" lon="14.038090442364004"><ele>78.0</ele><time>2026-04-23T17:04:26.999Z</time></trkpt><trkpt lat="42.291605441098675" lon="14.037951016453144"><ele>78.0</ele><time>2026-04-23T17:04:27.999Z</time></trkpt><trkpt lat="42.29142722398815" lon="14.0378072952798"><ele>77.33333333333333</ele><time>2026-04-23T17:04:28.999Z</time></trkpt><trkpt lat="42.29125386684245" lon="14.037647351736558"><ele>76.66666666666666</ele><time>2026-04-23T17:04:29.999Z</time></trkpt><trkpt lat="42.2910808066801" lon="14.037476742008067"><ele>76.0</ele><time>2026-04-23T17:04:30.999Z</time></trkpt><trkpt lat="42.29091276653626" lon="14.03729390321688"><ele>76.0</ele><time>2026-04-23T17:04:31.999Z</time></trkpt><trkpt lat="42.2907491683244" lon="14.03711136450787"><ele>76.0</ele><time>2026-04-23T17:04:32.999Z</time></trkpt><trkpt lat="42.290579789305106" lon="14.036931453444254"><ele>76.0</ele><time>2026-04-23T17:04:33.999Z</time></trkpt><trkpt lat="42.29040878569963" lon="14.036752253544073"><ele>75.66666666666666</ele><time>2026-04-23T17:04:34.999Z</time></trkpt><trkpt lat="42.29024171621699" lon="14.03657213583232"><ele>75.33333333333333</ele><time>2026-04-23T17:04:35.999Z</time></trkpt><trkpt lat="42.290078929902606" lon="14.036392835187236"><ele>75.0</ele><time>2026-04-23T17:04:36.999Z</time></trkpt><trkpt lat="42.28991080788079" lon="14.036211058316713"><ele>74.66666666666667</ele><time>2026-04-23T17:04:37.999Z</time></trkpt><trkpt lat="42.2897466423701" lon="14.036037808211002"><ele>74.33333333333334</ele><time>2026-04-23T17:04:38.999Z</time></trkpt><trkpt lat="42.2895834356093" lon="14.035863101864832"><ele>74.0</ele><time>2026-04-23T17:04:39.999Z</time></trkpt><trkpt lat="42.28941846356941" lon="14.03568711649117"><ele>74.0</ele><time>2026-04-23T17:04:40.999Z</time></trkpt><trkpt lat="42.289248824500305" lon="14.03551112323041"><ele>74.0</ele><time>2026-04-23T17:04:41.999Z</time></trkpt><trkpt lat="42.28908207338879" lon="14.035334777641065"><ele>74.0</ele><time>2026-04-23T17:04:42.999Z</time></trkpt><trkpt lat="42.28891878346048" lon="14.035154488296143"><ele>74.33333333333334</ele><time>2026-04-23T17:04:43.999Z</time></trkpt><trkpt lat="42.288757867736244" lon="14.03497570063707"><ele>74.66666666666667</ele><time>2026-04-23T17:04:44.999Z</time></trkpt><trkpt lat="42.28859582555901" lon="14.034800337257836"><ele>75.0</ele><time>2026-04-23T17:04:45.999Z</time></trkpt><trkpt lat="42.28843550154794" lon="14.034627745616337"><ele>75.0</ele><time>2026-04-23T17:04:46.999Z</time></trkpt><trkpt lat="42.28827798705886" lon="14.034454826084744"><ele>75.0</ele><time>2026-04-23T17:04:47.999Z</time></trkpt><trkpt lat="42.28812081190151" lon="14.034283951706188"><ele>75.0</ele><time>2026-04-23T17:04:48.999Z</time></trkpt><trkpt lat="42.28796661654319" lon="14.034112603028426"><ele>74.66666666666667</ele><time>2026-04-23T17:04:49.999Z</time></trkpt><trkpt lat="42.28780908081914" lon="14.033947180557542"><ele>74.33333333333334</ele><time>2026-04-23T17:04:50.999Z</time></trkpt><trkpt lat="42.287654023287686" lon="14.033779905633653"><ele>74.0</ele><time>2026-04-23T17:04:51.999Z</time></trkpt><trkpt lat="42.28750018804183" lon="14.033614920913028"><ele>74.0</ele><time>2026-04-23T17:04:52.999Z</time></trkpt><trkpt lat="42.287351983719226" lon="14.033445763167949"><ele>74.0</ele><time>2026-04-23T17:04:53.999Z</time></trkpt><trkpt lat="42.2872022668348" lon="14.033280874550943"><ele>74.0</ele><time>2026-04-23T17:04:54.999Z</time></trkpt><trkpt lat="42.287050693199156" lon="14.033120715040383"><ele>76.0</ele><time>2026-04-23T17:04:55.999Z</time></trkpt><trkpt lat="42.286899620349196" lon="14.032958818462228"><ele>78.0</ele><time>2026-04-23T17:04:56.999Z</time></trkpt><trkpt lat="42.28674505583461" lon="14.032799713611524"><ele>80.0</ele><time>2026-04-23T17:04:57.999Z</time></trkpt><trkpt lat="42.28658509736739" lon="14.032632311009133"><ele>79.33333333333334</ele><time>2026-04-23T17:04:58.999Z</time></trkpt><trkpt lat="42.286431961568155" lon="14.032464374865825"><ele>78.66666666666667</ele><time>2026-04-23T17:04:59.999Z</time></trkpt><trkpt lat="42.28628873437277" lon="14.03231359433061"><ele>78.0</ele><time>2026-04-23T17:05:00.999Z</time></trkpt><trkpt lat="42.286150781407954" lon="14.032157899560898"><ele>78.0</ele><time>2026-04-23T17:05:01.999Z</time></trkpt><trkpt lat="42.28601707763665" lon="14.031978592543615"><ele>78.0</ele><time>2026-04-23T17:05:02.999Z</time></trkpt><trkpt lat="42.285886714533426" lon="14.031768200351834"><ele>78.0</ele><time>2026-04-23T17:05:03.999Z</time></trkpt><trkpt lat="42.28577111147981" lon="14.031538196218285"><ele>78.0</ele><time>2026-04-23T17:05:04.999Z</time></trkpt><trkpt lat="42.285667336494626" lon="14.031292329357948"><ele>78.0</ele><time>2026-04-23T17:05:05.999Z</time></trkpt><trkpt lat="42.28557271370446" lon="14.03104224035944"><ele>78.0</ele><time>2026-04-23T17:05:06.999Z</time></trkpt><trkpt lat="42.28548013036909" lon="14.030781651271601"><ele>82.33333333333333</ele><time>2026-04-23T17:05:07.999Z</time></trkpt><trkpt lat="42.28539065351229" lon="14.030514219674139"><ele>86.66666666666666</ele><time>2026-04-23T17:05:08.999Z</time></trkpt><trkpt lat="42.28529746435951" lon="14.030246520854368"><ele>91.0</ele><time>2026-04-23T17:05:09.999Z</time></trkpt><trkpt lat="42.285197617944114" lon="14.029980122844623"><ele>88.33333333333333</ele><time>2026-04-23T17:05:11Z</time></trkpt><trkpt lat="42.285100225951865" lon="14.029717153849067"><ele>85.66666666666667</ele><time>2026-04-23T17:05:12Z</time></trkpt><trkpt lat="42.28500879011986" lon="14.029451499941274"><ele>83.0</ele><time>2026-04-23T17:05:13Z</time></trkpt><trkpt lat="42.28491495106668" lon="14.029192748133621"><ele>82.0</ele><time>2026-04-23T17:05:14Z</time></trkpt><trkpt lat="42.28481741550226" lon="14.028944566588944"><ele>81.0</ele><time>2026-04-23T17:05:15Z</time></trkpt><trkpt lat="42.284718703744964" lon="14.028683768028602"><ele>80.0</ele><time>2026-04-23T17:05:16Z</time></trkpt><trkpt lat="42.284620276727345" lon="14.028412226022207"><ele>88.0</ele><time>2026-04-23T17:05:17Z</time></trkpt><trkpt lat="42.28451957038425" lon="14.0281334626621"><ele>96.0</ele><time>2026-04-23T17:05:18Z</time></trkpt><trkpt lat="42.28441940337" lon="14.027865613399848"><ele>96.0</ele><time>2026-04-23T17:05:19Z</time></trkpt><trkpt lat="42.28432370904308" lon="14.027606938581062"><ele>96.0</ele><time>2026-04-23T17:05:20Z</time></trkpt><trkpt lat="42.28422498636937" lon="14.027354006728421"><ele>96.0</ele><time>2026-04-23T17:05:21Z</time></trkpt><trkpt lat="42.28411880548992" lon="14.027106346808345"><ele>98.66666666666666</ele><time>2026-04-23T17:05:22Z</time></trkpt><trkpt lat="42.284010843916526" lon="14.026856419805688"><ele>101.33333333333333</ele><time>2026-04-23T17:05:23Z</time></trkpt><trkpt lat="42.28389860615058" lon="14.026601000097221"><ele>104.0</ele><time>2026-04-23T17:05:24Z</time></trkpt><trkpt lat="42.283767436538376" lon="14.02632906297986"><ele>104.0</ele><time>2026-04-23T17:05:25Z</time></trkpt><trkpt lat="42.28362438442676" lon="14.026045384848596"><ele>104.0</ele><time>2026-04-23T17:05:26Z</time></trkpt><trkpt lat="42.283483201624165" lon="14.025792166434343"><ele>100.0</ele><time>2026-04-23T17:05:27Z</time></trkpt><trkpt lat="42.28335129040538" lon="14.025570144256504"><ele>96.0</ele><time>2026-04-23T17:05:28Z</time></trkpt><trkpt lat="42.283199876609295" lon="14.0253391488439"><ele>92.0</ele><time>2026-04-23T17:05:29Z</time></trkpt><trkpt lat="42.28304766376127" lon="14.025120941371213"><ele>94.33333333333334</ele><time>2026-04-23T17:05:30Z</time></trkpt><trkpt lat="42.282896660582594" lon="14.024925919149327"><ele>96.66666666666667</ele><time>2026-04-23T17:05:31Z</time></trkpt><trkpt lat="42.28275475916584" lon="14.024750489145697"><ele>99.0</ele><time>2026-04-23T17:05:32Z</time></trkpt><trkpt lat="42.28260815152343" lon="14.024577110167002"><ele>99.0</ele><time>2026-04-23T17:05:33Z</time></trkpt><trkpt lat="42.28246231619934" lon="14.02441777471549"><ele>99.0</ele><time>2026-04-23T17:05:34Z</time></trkpt><trkpt lat="42.28231481268806" lon="14.024265670039698"><ele>99.0</ele><time>2026-04-23T17:05:35Z</time></trkpt><trkpt lat="42.28216215074585" lon="14.024124302368792"><ele>97.0</ele><time>2026-04-23T17:05:36Z</time></trkpt><trkpt lat="42.28201192354864" lon="14.023991416269398"><ele>95.0</ele><time>2026-04-23T17:05:37Z</time></trkpt><trkpt lat="42.2818653784685" lon="14.023870614405055"><ele>93.0</ele><time>2026-04-23T17:05:38Z</time></trkpt><trkpt lat="42.2817120567008" lon="14.023754136781642"><ele>93.0</ele><time>2026-04-23T17:05:39Z</time></trkpt><trkpt lat="42.28156024237908" lon="14.02364758701579"><ele>93.0</ele><time>2026-04-23T17:05:40Z</time></trkpt><trkpt lat="42.28141973338857" lon="14.02354491162265"><ele>93.0</ele><time>2026-04-23T17:05:41Z</time></trkpt><trkpt lat="42.28127766542195" lon="14.023442490687518"><ele>90.33333333333333</ele><time>2026-04-23T17:05:42Z</time></trkpt><trkpt lat="42.281121538929874" lon="14.023340931820847"><ele>87.66666666666666</ele><time>2026-04-23T17:05:43Z</time></trkpt><trkpt lat="42.28094747321005" lon="14.023231649998264"><ele>85.0</ele><time>2026-04-23T17:05:44Z</time></trkpt><trkpt lat="42.2807470733816" lon="14.023112563121668"><ele>84.0</ele><time>2026-04-23T17:05:45Z</time></trkpt><trkpt lat="42.28052826741334" lon="14.02296968902561"><ele>83.0</ele><time>2026-04-23T17:05:46Z</time></trkpt><trkpt lat="42.28029211830715" lon="14.022801323248867"><ele>83.0</ele><time>2026-04-23T17:05:47Z</time></trkpt><trkpt lat="42.28002824087037" lon="14.022625198404365"><ele>83.0</ele><time>2026-04-23T17:05:48Z</time></trkpt><trkpt lat="42.27973620355037" lon="14.022444315994397"><ele>81.5</ele><time>2026-04-23T17:05:49Z</time></trkpt><trkpt lat="42.279431559807556" lon="14.022255557645892"><ele>80.0</ele><time>2026-04-23T17:05:50Z</time></trkpt><trkpt lat="42.279105433764734" lon="14.022053158484745"><ele>79.5</ele><time>2026-04-23T17:05:51Z</time></trkpt><trkpt lat="42.27879945520085" lon="14.021860793676074"><ele>79.0</ele><time>2026-04-23T17:05:52Z</time></trkpt><trkpt lat="42.27851636604037" lon="14.021683245967022"><ele>80.0</ele><time>2026-04-23T17:05:53Z</time></trkpt><trkpt lat="42.2782448781035" lon="14.021515021029508"><ele>81.0</ele><time>2026-04-23T17:05:54Z</time></trkpt><trkpt lat="42.277971263749656" lon="14.021369297249189"><ele>81.5</ele><time>2026-04-23T17:05:55Z</time></trkpt><trkpt lat="42.277672093935394" lon="14.02127181089185"><ele>82.0</ele><time>2026-04-23T17:05:56Z</time></trkpt><trkpt lat="42.27735599408018" lon="14.021187317070238"><ele>84.0</ele><time>2026-04-23T17:05:57Z</time></trkpt><trkpt lat="42.2772133987441" lon="14.020945775714832"><ele>86.0</ele><time>2026-04-23T17:05:58Z</time></trkpt><trkpt lat="42.2769351554685" lon="14.020843581389435"><ele>85.0</ele><time>2026-04-23T17:05:59Z</time></trkpt><trkpt lat="42.27663325941563" lon="14.020756854767662"><ele>84.0</ele><time>2026-04-23T17:06:00Z</time></trkpt><trkpt lat="42.27632591998495" lon="14.0206823345616"><ele>83.0</ele><time>2026-04-23T17:06:01Z</time></trkpt><trkpt lat="42.27602740945998" lon="14.020641068104217"><ele>82.0</ele><time>2026-04-23T17:06:02Z</time></trkpt><trkpt lat="42.27573256142974" lon="14.0206144393093"><ele>81.5</ele><time>2026-04-23T17:06:03Z</time></trkpt><trkpt lat="42.27545363634191" lon="14.020604093035598"><ele>81.0</ele><time>2026-04-23T17:06:04Z</time></trkpt><trkpt lat="42.27519018089644" lon="14.020611841128014"><ele>81.0</ele><time>2026-04-23T17:06:05Z</time></trkpt><trkpt lat="42.27493951983945" lon="14.020623199093901"><ele>81.0</ele><time>2026-04-23T17:06:06Z</time></trkpt><trkpt lat="42.27470032225643" lon="14.020636938913794"><ele>82.0</ele><time>2026-04-23T17:06:07Z</time></trkpt><trkpt lat="42.27448277799748" lon="14.020643169046556"><ele>83.0</ele><time>2026-04-23T17:06:08Z</time></trkpt><trkpt lat="42.27427672551445" lon="14.020649932447087"><ele>84.0</ele><time>2026-04-23T17:06:09Z</time></trkpt><trkpt lat="42.27407349924901" lon="14.020655071893495"><ele>84.66666666666667</ele><time>2026-04-23T17:06:10Z</time></trkpt><trkpt lat="42.27386910349794" lon="14.020655792010253"><ele>85.33333333333334</ele><time>2026-04-23T17:06:11Z</time></trkpt><trkpt lat="42.27366444418644" lon="14.02063462858145"><ele>86.0</ele><time>2026-04-23T17:06:12Z</time></trkpt><trkpt lat="42.27345674526334" lon="14.020596211083946"><ele>86.0</ele><time>2026-04-23T17:06:13Z</time></trkpt><trkpt lat="42.2732449037822" lon="14.020538307433233"><ele>86.0</ele><time>2026-04-23T17:06:14Z</time></trkpt><trkpt lat="42.27303336065382" lon="14.020472224567987"><ele>86.0</ele><time>2026-04-23T17:06:14.999Z</time></trkpt><trkpt lat="42.2728298835973" lon="14.020388516908731"><ele>87.66666666666667</ele><time>2026-04-23T17:06:15.999Z</time></trkpt><trkpt lat="42.272637204521" lon="14.020284209569503"><ele>89.33333333333333</ele><time>2026-04-23T17:06:16.999Z</time></trkpt><trkpt lat="42.27245038521133" lon="14.020162679674234"><ele>91.0</ele><time>2026-04-23T17:06:17.999Z</time></trkpt><trkpt lat="42.272264729240106" lon="14.02002590882114"><ele>91.33333333333333</ele><time>2026-04-23T17:06:18.999Z</time></trkpt><trkpt lat="42.27208324877123" lon="14.019869372585276"><ele>91.66666666666667</ele><time>2026-04-23T17:06:19.999Z</time></trkpt><trkpt lat="42.27191876394872" lon="14.019698917476026"><ele>92.0</ele><time>2026-04-23T17:06:20.999Z</time></trkpt><trkpt lat="42.27176402458803" lon="14.019521300222504"><ele>92.0</ele><time>2026-04-23T17:06:21.999Z</time></trkpt><trkpt lat="42.27161017594465" lon="14.019332906766957"><ele>92.0</ele><time>2026-04-23T17:06:22.999Z</time></trkpt><trkpt lat="42.27145480912351" lon="14.019134163507617"><ele>92.0</ele><time>2026-04-23T17:06:23.999Z</time></trkpt><trkpt lat="42.27130689245782" lon="14.018923015037654"><ele>91.33333333333334</ele><time>2026-04-23T17:06:24.999Z</time></trkpt><trkpt lat="42.2711673745394" lon="14.018700453908938"><ele>90.66666666666667</ele><time>2026-04-23T17:06:25.999Z</time></trkpt><trkpt lat="42.27103911074574" lon="14.018457160532327"><ele>90.0</ele><time>2026-04-23T17:06:26.999Z</time></trkpt><trkpt lat="42.270917675751846" lon="14.018178860240013"><ele>88.0</ele><time>2026-04-23T17:06:27.999Z</time></trkpt><trkpt lat="42.2707940638499" lon="14.017905885703348"><ele>86.0</ele><time>2026-04-23T17:06:28.999Z</time></trkpt><trkpt lat="42.270670028155095" lon="14.017626599992346"><ele>86.0</ele><time>2026-04-23T17:06:29.999Z</time></trkpt><trkpt lat="42.2705450971695" lon="14.017343887351222"><ele>86.0</ele><time>2026-04-23T17:06:30.999Z</time></trkpt><trkpt lat="42.270419830316285" lon="14.017064505507195"><ele>86.0</ele><time>2026-04-23T17:06:31.999Z</time></trkpt><trkpt lat="42.27030108479348" lon="14.016799290853363"><ele>86.0</ele><time>2026-04-23T17:06:32.999Z</time></trkpt><trkpt lat="42.27019184940262" lon="14.016551100107087"><ele>86.0</ele><time>2026-04-23T17:06:33.999Z</time></trkpt><trkpt lat="42.27008539388541" lon="14.016307452286615"><ele>86.0</ele><time>2026-04-23T17:06:34.999Z</time></trkpt><trkpt lat="42.26998677793436" lon="14.016074620178014"><ele>86.0</ele><time>2026-04-23T17:06:35.999Z</time></trkpt><trkpt lat="42.26989541011042" lon="14.015855131724829"><ele>86.0</ele><time>2026-04-23T17:06:36.999Z</time></trkpt><trkpt lat="42.26981499345648" lon="14.015653734437862"><ele>86.5</ele><time>2026-04-23T17:06:37.999Z</time></trkpt><trkpt lat="42.26974420539085" lon="14.01546601593704"><ele>87.0</ele><time>2026-04-23T17:06:38.999Z</time></trkpt><trkpt lat="42.26970123070913" lon="14.015317691222846"><ele>87.5</ele><time>2026-04-23T17:06:39.999Z</time></trkpt><trkpt lat="42.26966559901197" lon="14.015181535790937"><ele>88.0</ele><time>2026-04-23T17:06:40.999Z</time></trkpt><trkpt lat="42.26964972871731" lon="14.015032894975759"><ele>87.60000000000001</ele><time>2026-04-23T17:06:41.999Z</time></trkpt><trkpt lat="42.26965138125962" lon="14.014889277074587"><ele>87.2</ele><time>2026-04-23T17:06:42.999Z</time></trkpt><trkpt lat="42.26967145927246" lon="14.014739606126303"><ele>86.8</ele><time>2026-04-23T17:06:43.999Z</time></trkpt><trkpt lat="42.26969094577535" lon="14.014627970886329"><ele>86.4</ele><time>2026-04-23T17:06:44.999Z</time></trkpt><trkpt lat="42.26967838629802" lon="14.01453136269437"><ele>86.0</ele><time>2026-04-23T17:06:45.999Z</time></trkpt><trkpt lat="42.26962296711398" lon="14.014444811451972"><ele>86.0</ele><time>2026-04-23T17:06:46.999Z</time></trkpt><trkpt lat="42.269536793379416" lon="14.014385234655744"><ele>86.0</ele><time>2026-04-23T17:06:47.999Z</time></trkpt><trkpt lat="42.26942099840118" lon="14.014359330362375"><ele>86.0</ele><time>2026-04-23T17:06:48.999Z</time></trkpt><trkpt lat="42.269311470315415" lon="14.014323810739905"><ele>86.0</ele><time>2026-04-23T17:06:49.999Z</time></trkpt><trkpt lat="42.26923355783486" lon="14.014254983698955"><ele>86.0</ele><time>2026-04-23T17:06:50.999Z</time></trkpt><trkpt lat="42.26915975766825" lon="14.01415665060122"><ele>85.5</ele><time>2026-04-23T17:06:51.999Z</time></trkpt><trkpt lat="42.26908505972766" lon="14.014047002395097"><ele>85.0</ele><time>2026-04-23T17:06:52.999Z</time></trkpt><trkpt lat="42.26901600407035" lon="14.013923227780246"><ele>84.5</ele><time>2026-04-23T17:06:53.999Z</time></trkpt><trkpt lat="42.26895353804825" lon="14.013786903958339"><ele>84.0</ele><time>2026-04-23T17:06:54.999Z</time></trkpt><trkpt lat="42.26889198756258" lon="14.01364380559935"><ele>85.33333333333333</ele><time>2026-04-23T17:06:55.999Z</time></trkpt><trkpt lat="42.26882288123851" lon="14.013487803365237"><ele>86.66666666666666</ele><time>2026-04-23T17:06:56.999Z</time></trkpt><trkpt lat="42.268733291819956" lon="14.013304514400824"><ele>88.0</ele><time>2026-04-23T17:06:57.999Z</time></trkpt><trkpt lat="42.26862354088431" lon="14.013073577076897"><ele>88.5</ele><time>2026-04-23T17:06:58.999Z</time></trkpt><trkpt lat="42.268509532965204" lon="14.012811211783834"><ele>89.0</ele><time>2026-04-23T17:06:59.999Z</time></trkpt><trkpt lat="42.26837942920416" lon="14.012521329616307"><ele>89.0</ele><time>2026-04-23T17:07:00.999Z</time></trkpt><trkpt lat="42.26824871508316" lon="14.012224873170947"><ele>89.0</ele><time>2026-04-23T17:07:01.999Z</time></trkpt><trkpt lat="42.26814374441585" lon="14.011970689372165"><ele>90.75</ele><time>2026-04-23T17:07:02.999Z</time></trkpt><trkpt lat="42.26807173993929" lon="14.011782652948625"><ele>92.5</ele><time>2026-04-23T17:07:03.999Z</time></trkpt><trkpt lat="42.26801760176197" lon="14.011646480015973"><ele>94.25</ele><time>2026-04-23T17:07:04.999Z</time></trkpt><trkpt lat="42.267955218672824" lon="14.01151233318442"><ele>96.0</ele><time>2026-04-23T17:07:05.999Z</time></trkpt><trkpt lat="42.26790036111587" lon="14.01137813768802"><ele>96.19999999999999</ele><time>2026-04-23T17:07:06.999Z</time></trkpt><trkpt lat="42.26785323035633" lon="14.011283145980348"><ele>96.39999999999999</ele><time>2026-04-23T17:07:07.999Z</time></trkpt><trkpt lat="42.26781912414791" lon="14.011205842163442"><ele>96.6</ele><time>2026-04-23T17:07:08.999Z</time></trkpt><trkpt lat="42.26776033519907" lon="14.011063442343834"><ele>96.8</ele><time>2026-04-23T17:07:10.999Z</time></trkpt><trkpt lat="42.267693889441006" lon="14.010927698387107"><ele>97.0</ele><time>2026-04-23T17:07:12.999Z</time></trkpt><trkpt lat="42.26765390470874" lon="14.010823190193388"><ele>96.66666666666667</ele><time>2026-04-23T17:07:14.999Z</time></trkpt><trkpt lat="42.26762128437576" lon="14.010740000301897"><ele>96.33333333333334</ele><time>2026-04-23T17:07:19Z</time></trkpt><trkpt lat="42.267573161625144" lon="14.010640867710682"><ele>96.0</ele><time>2026-04-23T17:07:21Z</time></trkpt><trkpt lat="42.26752387612991" lon="14.010527558829795"><ele>95.66666666666667</ele><time>2026-04-23T17:07:23Z</time></trkpt><trkpt lat="42.26748870220919" lon="14.010373249671533"><ele>95.33333333333334</ele><time>2026-04-23T17:07:25Z</time></trkpt><trkpt lat="42.267468452253695" lon="14.0102753684955"><ele>95.0</ele><time>2026-04-23T17:07:26Z</time></trkpt><trkpt lat="42.2674223435052" lon="14.010182726084436"><ele>95.0</ele><time>2026-04-23T17:07:27Z</time></trkpt><trkpt lat="42.26735048580861" lon="14.010098497730407"><ele>95.0</ele><time>2026-04-23T17:07:28Z</time></trkpt><trkpt lat="42.26727872990093" lon="14.010010469675777"><ele>95.0</ele><time>2026-04-23T17:07:29Z</time></trkpt><trkpt lat="42.26721819725001" lon="14.009893007733712"><ele>95.0</ele><time>2026-04-23T17:07:30Z</time></trkpt><trkpt lat="42.267158300256995" lon="14.009751218496728"><ele>95.0</ele><time>2026-04-23T17:07:31Z</time></trkpt><trkpt lat="42.26708950578378" lon="14.009597848689666"><ele>95.66666666666667</ele><time>2026-04-23T17:07:32Z</time></trkpt><trkpt lat="42.2669996970704" lon="14.00941435587997"><ele>96.33333333333334</ele><time>2026-04-23T17:07:33Z</time></trkpt><trkpt lat="42.26689787727631" lon="14.009201311914111"><ele>97.0</ele><time>2026-04-23T17:07:34Z</time></trkpt><trkpt lat="42.26681785734593" lon="14.009008110235527"><ele>97.39999999999999</ele><time>2026-04-23T17:07:35Z</time></trkpt><trkpt lat="42.26675747936335" lon="14.008856830304598"><ele>97.8</ele><time>2026-04-23T17:07:36Z</time></trkpt><trkpt lat="42.2667031006653" lon="14.00872621020048"><ele>98.2</ele><time>2026-04-23T17:07:37Z</time></trkpt><trkpt lat="42.26664242044961" lon="14.008608245844451"><ele>98.6</ele><time>2026-04-23T17:07:38Z</time></trkpt><trkpt lat="42.26658588568239" lon="14.008497564507653"><ele>99.0</ele><time>2026-04-23T17:07:39Z</time></trkpt><trkpt lat="42.266524958113706" lon="14.008402615522629"><ele>99.2</ele><time>2026-04-23T17:07:40Z</time></trkpt><trkpt lat="42.26645768449636" lon="14.008309926223601"><ele>99.4</ele><time>2026-04-23T17:07:41Z</time></trkpt><trkpt lat="42.2663842022329" lon="14.00822190107852"><ele>99.6</ele><time>2026-04-23T17:07:42Z</time></trkpt><trkpt lat="42.26630102229903" lon="14.008132937168261"><ele>99.8</ele><time>2026-04-23T17:07:43Z</time></trkpt><trkpt lat="42.2662168343549" lon="14.008042635851615"><ele>100.0</ele><time>2026-04-23T17:07:44Z</time></trkpt><trkpt lat="42.26613653424723" lon="14.0079635638676"><ele>100.2</ele><time>2026-04-23T17:07:45Z</time></trkpt><trkpt lat="42.26606111046207" lon="14.007880270081003"><ele>100.4</ele><time>2026-04-23T17:07:46Z</time></trkpt><trkpt lat="42.2659856737207" lon="14.007794582172046"><ele>100.6</ele><time>2026-04-23T17:07:47Z</time></trkpt><trkpt lat="42.2659125056144" lon="14.007711256784864"><ele>100.8</ele><time>2026-04-23T17:07:48Z</time></trkpt><trkpt lat="42.26584271283654" lon="14.007620832010142"><ele>101.0</ele><time>2026-04-23T17:07:49Z</time></trkpt><trkpt lat="42.26577902072235" lon="14.007524111986351"><ele>101.0</ele><time>2026-04-23T17:07:50Z</time></trkpt><trkpt lat="42.265721972833276" lon="14.007424519905662"><ele>101.0</ele><time>2026-04-23T17:07:51Z</time></trkpt><trkpt lat="42.265664069932384" lon="14.007319141187784"><ele>101.0</ele><time>2026-04-23T17:07:52Z</time></trkpt><trkpt lat="42.265604578443934" lon="14.007211139818478"><ele>101.0</ele><time>2026-04-23T17:07:53Z</time></trkpt><trkpt lat="42.26555741658629" lon="14.007095930530253"><ele>101.0</ele><time>2026-04-23T17:07:54Z</time></trkpt><trkpt lat="42.26551035839005" lon="14.006993613054519"><ele>100.99999999999999</ele><time>2026-04-23T17:07:55Z</time></trkpt><trkpt lat="42.265463930609336" lon="14.006887011907558"><ele>101.0</ele><time>2026-04-23T17:07:56Z</time></trkpt><trkpt lat="42.265419890486946" lon="14.006788391611275"><ele>101.0</ele><time>2026-04-23T17:07:57Z</time></trkpt><trkpt lat="42.265380246367116" lon="14.00669477111538"><ele>101.0</ele><time>2026-04-23T17:07:58Z</time></trkpt><trkpt lat="42.265334581665755" lon="14.006599123628371"><ele>100.99999999999999</ele><time>2026-04-23T17:07:59Z</time></trkpt><trkpt lat="42.26528987547027" lon="14.006502961338123"><ele>101.0</ele><time>2026-04-23T17:08:00Z</time></trkpt><trkpt lat="42.26525456582456" lon="14.006414402085673"><ele>101.19999999999999</ele><time>2026-04-23T17:08:01Z</time></trkpt><trkpt lat="42.26519637164884" lon="14.006276442063319"><ele>101.39999999999999</ele><time>2026-04-23T17:08:03Z</time></trkpt><trkpt lat="42.26512899102113" lon="14.006127433169837"><ele>101.6</ele><time>2026-04-23T17:08:05Z</time></trkpt><trkpt lat="42.265093546618" lon="14.006043811912138"><ele>101.8</ele><time>2026-04-23T17:08:06Z</time></trkpt><trkpt lat="42.26505432337821" lon="14.005953996194227"><ele>102.0</ele><time>2026-04-23T17:08:07Z</time></trkpt><trkpt lat="42.26501392393375" lon="14.005867505394317"><ele>102.16666666666667</ele><time>2026-04-23T17:08:08Z</time></trkpt><trkpt lat="42.26497067527968" lon="14.005772432636563"><ele>102.33333333333334</ele><time>2026-04-23T17:08:09Z</time></trkpt><trkpt lat="42.26492701452115" lon="14.005669858340541"><ele>102.5</ele><time>2026-04-23T17:08:10Z</time></trkpt><trkpt lat="42.264880410048754" lon="14.005563847204282"><ele>102.66666666666667</ele><time>2026-04-23T17:08:11Z</time></trkpt><trkpt lat="42.26483817101215" lon="14.005472433252644"><ele>102.83333333333334</ele><time>2026-04-23T17:08:12Z</time></trkpt><trkpt lat="42.26479751097926" lon="14.005381260091424"><ele>103.0</ele><time>2026-04-23T17:08:13Z</time></trkpt><trkpt lat="42.2647473131785" lon="14.005268742399315"><ele>103.0</ele><time>2026-04-23T17:08:13.999Z</time></trkpt><trkpt lat="42.26468172999697" lon="14.005118801431088"><ele>103.0</ele><time>2026-04-23T17:08:14.999Z</time></trkpt><trkpt lat="42.264612231651064" lon="14.004956162949421"><ele>103.0</ele><time>2026-04-23T17:08:15.999Z</time></trkpt><trkpt lat="42.26455782313263" lon="14.004824841968135"><ele>103.0</ele><time>2026-04-23T17:08:16.999Z</time></trkpt><trkpt lat="42.2645021444689" lon="14.004694214051865"><ele>104.2</ele><time>2026-04-23T17:08:17.999Z</time></trkpt><trkpt lat="42.264434162446534" lon="14.004539204388513"><ele>105.4</ele><time>2026-04-23T17:08:18.999Z</time></trkpt><trkpt lat="42.26436986692445" lon="14.004389751441037"><ele>106.60000000000001</ele><time>2026-04-23T17:08:19.999Z</time></trkpt><trkpt lat="42.26431146896329" lon="14.004275392684558"><ele>107.80000000000001</ele><time>2026-04-23T17:08:20.999Z</time></trkpt><trkpt lat="42.26426834151003" lon="14.004193789093852"><ele>109.0</ele><time>2026-04-23T17:08:21.999Z</time></trkpt><trkpt lat="42.264188773033304" lon="14.004051372599646"><ele>109.0</ele><time>2026-04-23T17:08:23.999Z</time></trkpt><trkpt lat="42.26416545394393" lon="14.003965634420462"><ele>109.0</ele><time>2026-04-23T17:08:24.999Z</time></trkpt><trkpt lat="42.26413311279015" lon="14.003790816630593"><ele>109.0</ele><time>2026-04-23T17:08:26.999Z</time></trkpt><trkpt lat="42.2640561568864" lon="14.003650444001655"><ele>109.0</ele><time>2026-04-23T17:08:27.999Z</time></trkpt><trkpt lat="42.26397286528975" lon="14.003465761364604"><ele>109.0</ele><time>2026-04-23T17:08:28.999Z</time></trkpt><trkpt lat="42.26388550980884" lon="14.003250436600545"><ele>109.0</ele><time>2026-04-23T17:08:29.999Z</time></trkpt><trkpt lat="42.26377067142159" lon="14.00300312728434"><ele>109.0</ele><time>2026-04-23T17:08:30.999Z</time></trkpt><trkpt lat="42.2636502617952" lon="14.002738897140913"><ele>109.0</ele><time>2026-04-23T17:08:31.999Z</time></trkpt><trkpt lat="42.26355819612752" lon="14.002524818598715"><ele>109.0</ele><time>2026-04-23T17:08:32.999Z</time></trkpt><trkpt lat="42.26347315804671" lon="14.002340492769957"><ele>109.0</ele><time>2026-04-23T17:08:33.999Z</time></trkpt><trkpt lat="42.26338987406388" lon="14.00216673948695"><ele>109.5</ele><time>2026-04-23T17:08:34.999Z</time></trkpt><trkpt lat="42.26332365867262" lon="14.001999087371262"><ele>110.0</ele><time>2026-04-23T17:08:35.999Z</time></trkpt><trkpt lat="42.26327576980707" lon="14.001826811840887"><ele>110.5</ele><time>2026-04-23T17:08:36.999Z</time></trkpt><trkpt lat="42.2632477459281" lon="14.001654423718836"><ele>111.0</ele><time>2026-04-23T17:08:37.999Z</time></trkpt><trkpt lat="42.26325336839086" lon="14.001482432204467"><ele>112.25</ele><time>2026-04-23T17:08:38.999Z</time></trkpt><trkpt lat="42.263263939363355" lon="14.001294396651282"><ele>113.5</ele><time>2026-04-23T17:08:39.999Z</time></trkpt><trkpt lat="42.26329237824934" lon="14.001114619871165"><ele>114.75</ele><time>2026-04-23T17:08:40.999Z</time></trkpt><trkpt lat="42.26334196721616" lon="14.00093737908456"><ele>116.0</ele><time>2026-04-23T17:08:41.999Z</time></trkpt><trkpt lat="42.263411536800525" lon="14.000767497185711"><ele>117.75</ele><time>2026-04-23T17:08:42.999Z</time></trkpt><trkpt lat="42.263501468709364" lon="14.000609293202492"><ele>119.5</ele><time>2026-04-23T17:08:43.999Z</time></trkpt><trkpt lat="42.263606221576836" lon="14.000469367146932"><ele>121.25</ele><time>2026-04-23T17:08:44.999Z</time></trkpt><trkpt lat="42.26371951246249" lon="14.000344257430003"><ele>123.0</ele><time>2026-04-23T17:08:45.999Z</time></trkpt><trkpt lat="42.2638381893369" lon="14.000224956721668"><ele>121.75</ele><time>2026-04-23T17:08:46.999Z</time></trkpt><trkpt lat="42.263959870445746" lon="14.000108037419286"><ele>120.5</ele><time>2026-04-23T17:08:47.999Z</time></trkpt><trkpt lat="42.264075801787634" lon="13.999989681813414"><ele>119.25</ele><time>2026-04-23T17:08:48.999Z</time></trkpt><trkpt lat="42.26419489144702" lon="13.999870906375955"><ele>118.0</ele><time>2026-04-23T17:08:49.999Z</time></trkpt><trkpt lat="42.26431804966053" lon="13.999749362602492"><ele>118.0</ele><time>2026-04-23T17:08:50.999Z</time></trkpt><trkpt lat="42.264458044814546" lon="13.999607688888105"><ele>118.0</ele><time>2026-04-23T17:08:51.999Z</time></trkpt><trkpt lat="42.26461333610706" lon="13.99946171032358"><ele>118.0</ele><time>2026-04-23T17:08:52.999Z</time></trkpt><trkpt lat="42.26477935282928" lon="13.999319445069707"><ele>117.66666666666667</ele><time>2026-04-23T17:08:53.999Z</time></trkpt><trkpt lat="42.26493392301658" lon="13.999181975782369"><ele>117.33333333333334</ele><time>2026-04-23T17:08:54.999Z</time></trkpt><trkpt lat="42.26506970834213" lon="13.999047783922114"><ele>117.0</ele><time>2026-04-23T17:08:55.999Z</time></trkpt><trkpt lat="42.265188994218484" lon="13.9989173884113"><ele>117.0</ele><time>2026-04-23T17:08:56.999Z</time></trkpt><trkpt lat="42.265290487997476" lon="13.998782115754468"><ele>117.0</ele><time>2026-04-23T17:08:57.999Z</time></trkpt><trkpt lat="42.265386737201304" lon="13.998656832442581"><ele>117.0</ele><time>2026-04-23T17:08:58.999Z</time></trkpt><trkpt lat="42.26547720159027" lon="13.998516598229061"><ele>117.0</ele><time>2026-04-23T17:08:59.999Z</time></trkpt><trkpt lat="42.26554360616435" lon="13.998406553639189"><ele>117.16666666666667</ele><time>2026-04-23T17:09:00.999Z</time></trkpt><trkpt lat="42.26559738641606" lon="13.99830537954191"><ele>117.33333333333334</ele><time>2026-04-23T17:09:01.999Z</time></trkpt><trkpt lat="42.2656409698624" lon="13.998219774328906"><ele>117.5</ele><time>2026-04-23T17:09:02.999Z</time></trkpt><trkpt lat="42.26569068790288" lon="13.998089114391814"><ele>117.66666666666667</ele><time>2026-04-23T17:09:04.999Z</time></trkpt><trkpt lat="42.265708813377564" lon="13.997998502904482"><ele>117.83333333333334</ele><time>2026-04-23T17:09:07.999Z</time></trkpt><trkpt lat="42.26571835982674" lon="13.997865820810688"><ele>118.0</ele><time>2026-04-23T17:09:31Z</time></trkpt><trkpt lat="42.265741450609035" lon="13.997746284217426"><ele>118.0</ele><time>2026-04-23T17:09:32Z</time></trkpt><trkpt lat="42.26576673204825" lon="13.997607640918206"><ele>118.0</ele><time>2026-04-23T17:09:33Z</time></trkpt><trkpt lat="42.26579297701981" lon="13.997448430066047"><ele>118.0</ele><time>2026-04-23T17:09:34Z</time></trkpt><trkpt lat="42.26582688358453" lon="13.997275159056516"><ele>118.0</ele><time>2026-04-23T17:09:35Z</time></trkpt><trkpt lat="42.26586406399692" lon="13.997097552324155"><ele>118.5</ele><time>2026-04-23T17:09:36Z</time></trkpt><trkpt lat="42.26589174316356" lon="13.99691537231872"><ele>119.0</ele><time>2026-04-23T17:09:37Z</time></trkpt><trkpt lat="42.26592156161399" lon="13.99674457022007"><ele>119.5</ele><time>2026-04-23T17:09:38Z</time></trkpt><trkpt lat="42.265955928807486" lon="13.996555808989962"><ele>120.0</ele><time>2026-04-23T17:09:39Z</time></trkpt><trkpt lat="42.265984606263864" lon="13.99634333284877"><ele>120.0</ele><time>2026-04-23T17:09:40Z</time></trkpt><trkpt lat="42.26602198672429" lon="13.996125666401733"><ele>120.0</ele><time>2026-04-23T17:09:41Z</time></trkpt><trkpt lat="42.26605663676867" lon="13.995919754400251"><ele>120.0</ele><time>2026-04-23T17:09:42Z</time></trkpt><trkpt lat="42.26606374238898" lon="13.995724145126884"><ele>120.66666666666666</ele><time>2026-04-23T17:09:43Z</time></trkpt><trkpt lat="42.266096867555966" lon="13.995544259734043"><ele>121.33333333333333</ele><time>2026-04-23T17:09:44Z</time></trkpt><trkpt lat="42.266123357276705" lon="13.995330901318649"><ele>122.0</ele><time>2026-04-23T17:09:45Z</time></trkpt><trkpt lat="42.266177680625916" lon="13.995098090353347"><ele>122.5</ele><time>2026-04-23T17:09:46Z</time></trkpt><trkpt lat="42.26623298589706" lon="13.994882993815631"><ele>123.0</ele><time>2026-04-23T17:09:47Z</time></trkpt><trkpt lat="42.26625957795047" lon="13.994691761173796"><ele>123.5</ele><time>2026-04-23T17:09:48Z</time></trkpt><trkpt lat="42.26628522505929" lon="13.994510861450562"><ele>124.0</ele><time>2026-04-23T17:09:49Z</time></trkpt><trkpt lat="42.26631653082475" lon="13.994340586619327"><ele>125.5</ele><time>2026-04-23T17:09:50Z</time></trkpt><trkpt lat="42.266352004126006" lon="13.99416643345348"><ele>127.0</ele><time>2026-04-23T17:09:51Z</time></trkpt><trkpt lat="42.26638223655949" lon="13.993988838692367"><ele>128.5</ele><time>2026-04-23T17:09:52Z</time></trkpt><trkpt lat="42.26641744107552" lon="13.993808632797643"><ele>130.0</ele><time>2026-04-23T17:09:53Z</time></trkpt><trkpt lat="42.26644895827642" lon="13.993622638016054"><ele>127.0</ele><time>2026-04-23T17:09:54Z</time></trkpt><trkpt lat="42.26648136443346" lon="13.993434183609457"><ele>124.0</ele><time>2026-04-23T17:09:55Z</time></trkpt><trkpt lat="42.266513291829625" lon="13.993238456282542"><ele>121.0</ele><time>2026-04-23T17:09:56Z</time></trkpt><trkpt lat="42.266547370485064" lon="13.993043017646105"><ele>118.0</ele><time>2026-04-23T17:09:57Z</time></trkpt><trkpt lat="42.26658069776052" lon="13.992843970835239"><ele>118.0</ele><time>2026-04-23T17:09:58Z</time></trkpt><trkpt lat="42.266613529221615" lon="13.992640614530997"><ele>118.0</ele><time>2026-04-23T17:09:59Z</time></trkpt><trkpt lat="42.266648897514806" lon="13.99243628266067"><ele>118.0</ele><time>2026-04-23T17:10:00Z</time></trkpt><trkpt lat="42.26668275655748" lon="13.992230835146643"><ele>118.66666666666667</ele><time>2026-04-23T17:10:01Z</time></trkpt><trkpt lat="42.266720156421044" lon="13.99202619388423"><ele>119.33333333333334</ele><time>2026-04-23T17:10:02Z</time></trkpt><trkpt lat="42.266756393009835" lon="13.991821649271614"><ele>120.0</ele><time>2026-04-23T17:10:03Z</time></trkpt><trkpt lat="42.26679427660365" lon="13.991613901875102"><ele>121.66666666666666</ele><time>2026-04-23T17:10:04Z</time></trkpt><trkpt lat="42.26682959166898" lon="13.991395073436971"><ele>123.33333333333333</ele><time>2026-04-23T17:10:05Z</time></trkpt><trkpt lat="42.26686323440474" lon="13.991164280517811"><ele>125.0</ele><time>2026-04-23T17:10:06Z</time></trkpt><trkpt lat="42.26688413228673" lon="13.990938750661837"><ele>127.0</ele><time>2026-04-23T17:10:07Z</time></trkpt><trkpt lat="42.266884531221855" lon="13.990704752144959"><ele>129.0</ele><time>2026-04-23T17:10:08Z</time></trkpt><trkpt lat="42.266872774231665" lon="13.990479152839912"><ele>131.0</ele><time>2026-04-23T17:10:09Z</time></trkpt><trkpt lat="42.266846008807555" lon="13.99024292971237"><ele>131.33333333333331</ele><time>2026-04-23T17:10:10Z</time></trkpt><trkpt lat="42.26680403901698" lon="13.990000821258112"><ele>131.66666666666666</ele><time>2026-04-23T17:10:11Z</time></trkpt><trkpt lat="42.266755908072106" lon="13.989748116812049"><ele>132.0</ele><time>2026-04-23T17:10:12Z</time></trkpt><trkpt lat="42.26670641915982" lon="13.989495587484846"><ele>132.0</ele><time>2026-04-23T17:10:12.999Z</time></trkpt><trkpt lat="42.266652298072366" lon="13.989242375507601"><ele>132.0</ele><time>2026-04-23T17:10:13.999Z</time></trkpt><trkpt lat="42.26662426209026" lon="13.988986794810707"><ele>132.0</ele><time>2026-04-23T17:10:14.999Z</time></trkpt><trkpt lat="42.26661472331331" lon="13.988718783028142"><ele>132.0</ele><time>2026-04-23T17:10:15.999Z</time></trkpt><trkpt lat="42.26662747937188" lon="13.988448673598914"><ele>132.0</ele><time>2026-04-23T17:10:16.999Z</time></trkpt><trkpt lat="42.26665939283145" lon="13.988193730277034"><ele>132.0</ele><time>2026-04-23T17:10:17.999Z</time></trkpt><trkpt lat="42.266711638436476" lon="13.987942729175774"><ele>133.66666666666666</ele><time>2026-04-23T17:10:18.999Z</time></trkpt><trkpt lat="42.26677377501664" lon="13.987679695282395"><ele>135.33333333333331</ele><time>2026-04-23T17:10:19.999Z</time></trkpt><trkpt lat="42.266833474709806" lon="13.987417963452085"><ele>137.0</ele><time>2026-04-23T17:10:20.999Z</time></trkpt><trkpt lat="42.26688820789219" lon="13.987176846157269"><ele>138.66666666666666</ele><time>2026-04-23T17:10:21.999Z</time></trkpt><trkpt lat="42.266950228384815" lon="13.986961185390687"><ele>140.33333333333334</ele><time>2026-04-23T17:10:22.999Z</time></trkpt><trkpt lat="42.26697227656774" lon="13.986733084489707"><ele>142.0</ele><time>2026-04-23T17:10:23.999Z</time></trkpt><trkpt lat="42.26701269819673" lon="13.986546730924331"><ele>144.0</ele><time>2026-04-23T17:10:24.999Z</time></trkpt><trkpt lat="42.26704906105522" lon="13.986363217420806"><ele>146.0</ele><time>2026-04-23T17:10:25.999Z</time></trkpt><trkpt lat="42.26708957424399" lon="13.986167206891471"><ele>148.0</ele><time>2026-04-23T17:10:26.999Z</time></trkpt><trkpt lat="42.26712602940099" lon="13.985939483387655"><ele>149.66666666666669</ele><time>2026-04-23T17:10:27.999Z</time></trkpt><trkpt lat="42.26714488156481" lon="13.985677577562424"><ele>151.33333333333334</ele><time>2026-04-23T17:10:28.999Z</time></trkpt><trkpt lat="42.26714853343074" lon="13.985393137439594"><ele>153.0</ele><time>2026-04-23T17:10:29.999Z</time></trkpt><trkpt lat="42.26714425170181" lon="13.985093620439251"><ele>156.0</ele><time>2026-04-23T17:10:30.999Z</time></trkpt><trkpt lat="42.267114558794" lon="13.984762393264186"><ele>159.0</ele><time>2026-04-23T17:10:31.999Z</time></trkpt><trkpt lat="42.2670561291639" lon="13.984410394975342"><ele>160.66666666666666</ele><time>2026-04-23T17:10:32.999Z</time></trkpt><trkpt lat="42.2670023028188" lon="13.984126385948032"><ele>162.33333333333331</ele><time>2026-04-23T17:10:33.999Z</time></trkpt><trkpt lat="42.2669693465332" lon="13.983834981658191"><ele>164.0</ele><time>2026-04-23T17:10:34.999Z</time></trkpt><trkpt lat="42.266956029690434" lon="13.98354945238961"><ele>163.33333333333331</ele><time>2026-04-23T17:10:35.999Z</time></trkpt><trkpt lat="42.26694767928986" lon="13.98327313575385"><ele>162.66666666666666</ele><time>2026-04-23T17:10:36.999Z</time></trkpt><trkpt lat="42.26693379658812" lon="13.982986585249556"><ele>162.0</ele><time>2026-04-23T17:10:37.999Z</time></trkpt><trkpt lat="42.26691373086919" lon="13.982683521088065"><ele>162.0</ele><time>2026-04-23T17:10:38.999Z</time></trkpt><trkpt lat="42.26689615349774" lon="13.982367821352364"><ele>162.0</ele><time>2026-04-23T17:10:39.999Z</time></trkpt><trkpt lat="42.266878276502304" lon="13.982045424399208"><ele>162.0</ele><time>2026-04-23T17:10:40.999Z</time></trkpt><trkpt lat="42.26685949896266" lon="13.981726427121252"><ele>162.0</ele><time>2026-04-23T17:10:41.999Z</time></trkpt><trkpt lat="42.266839265289356" lon="13.981414355388322"><ele>162.5</ele><time>2026-04-23T17:10:42.999Z</time></trkpt><trkpt lat="42.26681964098482" lon="13.981095544657363"><ele>163.0</ele><time>2026-04-23T17:10:43.999Z</time></trkpt><trkpt lat="42.26679910041124" lon="13.980764285099541"><ele>163.0</ele><time>2026-04-23T17:10:44.999Z</time></trkpt><trkpt lat="42.26677893541338" lon="13.98043670487384"><ele>163.0</ele><time>2026-04-23T17:10:45.999Z</time></trkpt><trkpt lat="42.26676463247514" lon="13.980131913371881"><ele>162.0</ele><time>2026-04-23T17:10:46.999Z</time></trkpt><trkpt lat="42.26674920852116" lon="13.979821098303804"><ele>161.0</ele><time>2026-04-23T17:10:47.999Z</time></trkpt><trkpt lat="42.26673074169536" lon="13.979491930124627"><ele>159.5</ele><time>2026-04-23T17:10:48.999Z</time></trkpt><trkpt lat="42.266712154850545" lon="13.979148422720435"><ele>158.0</ele><time>2026-04-23T17:10:49.999Z</time></trkpt><trkpt lat="42.26668806558139" lon="13.978794301759715"><ele>158.0</ele><time>2026-04-23T17:10:50.999Z</time></trkpt><trkpt lat="42.26666248265746" lon="13.978444397497881"><ele>158.0</ele><time>2026-04-23T17:10:51.999Z</time></trkpt><trkpt lat="42.266637453426966" lon="13.978112831819985"><ele>157.0</ele><time>2026-04-23T17:10:52.999Z</time></trkpt><trkpt lat="42.266620827666095" lon="13.977802125139851"><ele>156.0</ele><time>2026-04-23T17:10:53.999Z</time></trkpt><trkpt lat="42.26660740937186" lon="13.977495254089515"><ele>156.0</ele><time>2026-04-23T17:10:54.999Z</time></trkpt><trkpt lat="42.26659308095068" lon="13.977173401822009"><ele>156.0</ele><time>2026-04-23T17:10:55.999Z</time></trkpt><trkpt lat="42.266592204605054" lon="13.976867044394215"><ele>155.0</ele><time>2026-04-23T17:10:56.999Z</time></trkpt><trkpt lat="42.26658833225362" lon="13.97657695146561"><ele>154.0</ele><time>2026-04-23T17:10:57.999Z</time></trkpt><trkpt lat="42.26658378057123" lon="13.976312302339473"><ele>153.0</ele><time>2026-04-23T17:10:58.999Z</time></trkpt><trkpt lat="42.266581037740806" lon="13.97608147246435"><ele>153.0</ele><time>2026-04-23T17:10:59.999Z</time></trkpt><trkpt lat="42.266568888634126" lon="13.975865095552837"><ele>153.0</ele><time>2026-04-23T17:11:00.999Z</time></trkpt><trkpt lat="42.26653934013717" lon="13.975653554865643"><ele>153.0</ele><time>2026-04-23T17:11:01.999Z</time></trkpt><trkpt lat="42.26647547497707" lon="13.975438696424138"><ele>153.0</ele><time>2026-04-23T17:11:02.999Z</time></trkpt><trkpt lat="42.2663776399566" lon="13.975200807456684"><ele>153.0</ele><time>2026-04-23T17:11:03.999Z</time></trkpt><trkpt lat="42.26626056422352" lon="13.974938397823575"><ele>153.0</ele><time>2026-04-23T17:11:04.999Z</time></trkpt><trkpt lat="42.266142459258546" lon="13.974650766760666"><ele>153.0</ele><time>2026-04-23T17:11:05.999Z</time></trkpt><trkpt lat="42.266030584717555" lon="13.9743608913419"><ele>153.0</ele><time>2026-04-23T17:11:06.999Z</time></trkpt><trkpt lat="42.26593298672825" lon="13.974107324939501"><ele>150.0</ele><time>2026-04-23T17:11:07.999Z</time></trkpt><trkpt lat="42.265850605541274" lon="13.97386122681727"><ele>147.0</ele><time>2026-04-23T17:11:08.999Z</time></trkpt><trkpt lat="42.26577666612981" lon="13.973625935352386"><ele>144.0</ele><time>2026-04-23T17:11:09.999Z</time></trkpt><trkpt lat="42.26572237522962" lon="13.973388851312995"><ele>143.0</ele><time>2026-04-23T17:11:10.999Z</time></trkpt><trkpt lat="42.26570277625257" lon="13.973151835905881"><ele>142.0</ele><time>2026-04-23T17:11:11.999Z</time></trkpt><trkpt lat="42.26571123343901" lon="13.972892072616231"><ele>141.0</ele><time>2026-04-23T17:11:12.999Z</time></trkpt><trkpt lat="42.26573815988236" lon="13.972606668804016"><ele>140.0</ele><time>2026-04-23T17:11:13.999Z</time></trkpt><trkpt lat="42.26576948408754" lon="13.972299824044303"><ele>139.0</ele><time>2026-04-23T17:11:14.999Z</time></trkpt><trkpt lat="42.26579599702708" lon="13.971983804623267"><ele>139.0</ele><time>2026-04-23T17:11:15.999Z</time></trkpt><trkpt lat="42.26581776718045" lon="13.971691029800255"><ele>139.0</ele><time>2026-04-23T17:11:16.999Z</time></trkpt><trkpt lat="42.26583945434752" lon="13.971425823042173"><ele>139.0</ele><time>2026-04-23T17:11:17.999Z</time></trkpt><trkpt lat="42.26586204157147" lon="13.971178056966684"><ele>140.33333333333334</ele><time>2026-04-23T17:11:18.999Z</time></trkpt><trkpt lat="42.26587829787882" lon="13.970949279545334"><ele>141.66666666666666</ele><time>2026-04-23T17:11:19.999Z</time></trkpt><trkpt lat="42.26587952802152" lon="13.970732247585"><ele>143.0</ele><time>2026-04-23T17:11:20.999Z</time></trkpt><trkpt lat="42.265862050607225" lon="13.970521267671137"><ele>143.0</ele><time>2026-04-23T17:11:21.999Z</time></trkpt><trkpt lat="42.265823231110964" lon="13.97031314117218"><ele>143.0</ele><time>2026-04-23T17:11:22.999Z</time></trkpt><trkpt lat="42.26576399164299" lon="13.970099193175955"><ele>143.0</ele><time>2026-04-23T17:11:23.999Z</time></trkpt><trkpt lat="42.26569018903786" lon="13.96985049663311"><ele>148.5</ele><time>2026-04-23T17:11:24.999Z</time></trkpt><trkpt lat="42.265592651659" lon="13.969558249046178"><ele>154.0</ele><time>2026-04-23T17:11:25.999Z</time></trkpt><trkpt lat="42.26551207496204" lon="13.969214580718681"><ele>151.0</ele><time>2026-04-23T17:11:26.999Z</time></trkpt><trkpt lat="42.26540596503408" lon="13.968839090608439"><ele>148.0</ele><time>2026-04-23T17:11:28Z</time></trkpt><trkpt lat="42.265309194723386" lon="13.968426561199315"><ele>144.5</ele><time>2026-04-23T17:11:29Z</time></trkpt><trkpt lat="42.26519390838361" lon="13.96800508542095"><ele>141.0</ele><time>2026-04-23T17:11:30Z</time></trkpt><trkpt lat="42.26508653530954" lon="13.967599909037219"><ele>138.5</ele><time>2026-04-23T17:11:31Z</time></trkpt><trkpt lat="42.26500215063565" lon="13.967253565904723"><ele>136.0</ele><time>2026-04-23T17:11:32Z</time></trkpt><trkpt lat="42.264927611788536" lon="13.966945055482341"><ele>135.0</ele><time>2026-04-23T17:11:33Z</time></trkpt><trkpt lat="42.264858865113275" lon="13.966646338883205"><ele>134.0</ele><time>2026-04-23T17:11:34Z</time></trkpt><trkpt lat="42.26478805250116" lon="13.96635579271864"><ele>137.0</ele><time>2026-04-23T17:11:35Z</time></trkpt><trkpt lat="42.264712991895216" lon="13.966074662228719"><ele>140.0</ele><time>2026-04-23T17:11:36Z</time></trkpt><trkpt lat="42.264630658474566" lon="13.965811936421314"><ele>143.0</ele><time>2026-04-23T17:11:37Z</time></trkpt><trkpt lat="42.26453902355081" lon="13.965576080655248"><ele>143.0</ele><time>2026-04-23T17:11:38Z</time></trkpt><trkpt lat="42.264419681720476" lon="13.965360269765203"><ele>143.0</ele><time>2026-04-23T17:11:39Z</time></trkpt><trkpt lat="42.26424855239396" lon="13.965139334038653"><ele>143.0</ele><time>2026-04-23T17:11:40Z</time></trkpt><trkpt lat="42.264054259606766" lon="13.964901682660177"><ele>144.0</ele><time>2026-04-23T17:11:41Z</time></trkpt><trkpt lat="42.26385671282404" lon="13.96462462096427"><ele>145.0</ele><time>2026-04-23T17:11:42Z</time></trkpt><trkpt lat="42.26365957445369" lon="13.964341633828795"><ele>140.5</ele><time>2026-04-23T17:11:43Z</time></trkpt><trkpt lat="42.26347477028972" lon="13.964097552976094"><ele>136.0</ele><time>2026-04-23T17:11:44Z</time></trkpt><trkpt lat="42.26329890818858" lon="13.963857550639394"><ele>136.0</ele><time>2026-04-23T17:11:45Z</time></trkpt><trkpt lat="42.2631220190643" lon="13.963607619071212"><ele>136.0</ele><time>2026-04-23T17:11:46Z</time></trkpt><trkpt lat="42.26301637396503" lon="13.96344395399018"><ele>136.0</ele><time>2026-04-23T17:11:47Z</time></trkpt><trkpt lat="42.26287964695564" lon="13.96324650684424"><ele>137.0</ele><time>2026-04-23T17:11:48Z</time></trkpt><trkpt lat="42.262758892391254" lon="13.963060641749246"><ele>138.0</ele><time>2026-04-23T17:11:49Z</time></trkpt><trkpt lat="42.26265441845007" lon="13.962855456154024"><ele>139.0</ele><time>2026-04-23T17:11:50Z</time></trkpt><trkpt lat="42.26257740614364" lon="13.96261747156804"><ele>137.5</ele><time>2026-04-23T17:11:51Z</time></trkpt><trkpt lat="42.26251862235293" lon="13.962345067777322"><ele>136.0</ele><time>2026-04-23T17:11:52Z</time></trkpt><trkpt lat="42.262470974934566" lon="13.962013663987076"><ele>135.5</ele><time>2026-04-23T17:11:53Z</time></trkpt><trkpt lat="42.26242984725163" lon="13.961633935359473"><ele>135.0</ele><time>2026-04-23T17:11:54Z</time></trkpt><trkpt lat="42.2623823762637" lon="13.961221693251199"><ele>134.5</ele><time>2026-04-23T17:11:55Z</time></trkpt><trkpt lat="42.262331615478544" lon="13.960787151584618"><ele>134.0</ele><time>2026-04-23T17:11:56Z</time></trkpt><trkpt lat="42.26228737119091" lon="13.960413903971416"><ele>140.5</ele><time>2026-04-23T17:11:57Z</time></trkpt><trkpt lat="42.262246621399186" lon="13.960076357278934"><ele>147.0</ele><time>2026-04-23T17:11:58Z</time></trkpt><trkpt lat="42.26220571932034" lon="13.959762560040097"><ele>147.0</ele><time>2026-04-23T17:11:59Z</time></trkpt><trkpt lat="42.262170021691176" lon="13.95947296888781"><ele>147.0</ele><time>2026-04-23T17:12:00Z</time></trkpt><trkpt lat="42.26213634140923" lon="13.959201354636082"><ele>147.0</ele><time>2026-04-23T17:12:01Z</time></trkpt><trkpt lat="42.26209552923531" lon="13.95894333663958"><ele>146.33333333333334</ele><time>2026-04-23T17:12:02Z</time></trkpt><trkpt lat="42.262024896635786" lon="13.95867394857506"><ele>145.66666666666669</ele><time>2026-04-23T17:12:03Z</time></trkpt><trkpt lat="42.261922752306" lon="13.958390054471009"><ele>145.0</ele><time>2026-04-23T17:12:04Z</time></trkpt><trkpt lat="42.26179550129894" lon="13.958082397637725"><ele>143.0</ele><time>2026-04-23T17:12:05Z</time></trkpt><trkpt lat="42.26166710354565" lon="13.957760880257078"><ele>141.0</ele><time>2026-04-23T17:12:06Z</time></trkpt><trkpt lat="42.26155963726677" lon="13.957479327054095"><ele>139.33333333333334</ele><time>2026-04-23T17:12:07Z</time></trkpt><trkpt lat="42.26146609500812" lon="13.957218387829279"><ele>137.66666666666669</ele><time>2026-04-23T17:12:08Z</time></trkpt><trkpt lat="42.261379213402485" lon="13.956971919819752"><ele>136.0</ele><time>2026-04-23T17:12:09Z</time></trkpt><trkpt lat="42.2612863700786" lon="13.956721397762726"><ele>136.66666666666669</ele><time>2026-04-23T17:12:09.999Z</time></trkpt><trkpt lat="42.26120363813775" lon="13.956446185344744"><ele>137.33333333333334</ele><time>2026-04-23T17:12:10.999Z</time></trkpt><trkpt lat="42.26113613966031" lon="13.956154427074658"><ele>138.0</ele><time>2026-04-23T17:12:11.999Z</time></trkpt><trkpt lat="42.26108133217467" lon="13.955838584106655"><ele>138.0</ele><time>2026-04-23T17:12:12.999Z</time></trkpt><trkpt lat="42.261023618060534" lon="13.955516956161807"><ele>138.0</ele><time>2026-04-23T17:12:13.999Z</time></trkpt><trkpt lat="42.26095563319466" lon="13.955199451723448"><ele>138.0</ele><time>2026-04-23T17:12:14.999Z</time></trkpt><trkpt lat="42.260889840507765" lon="13.954892022886833"><ele>138.0</ele><time>2026-04-23T17:12:15.999Z</time></trkpt><trkpt lat="42.260831061973896" lon="13.95460006649126"><ele>138.0</ele><time>2026-04-23T17:12:16.999Z</time></trkpt><trkpt lat="42.260769536423595" lon="13.954314957779243"><ele>138.0</ele><time>2026-04-23T17:12:17.999Z</time></trkpt><trkpt lat="42.26070544854117" lon="13.954031266251105"><ele>138.0</ele><time>2026-04-23T17:12:18.999Z</time></trkpt><trkpt lat="42.26063666917989" lon="13.953759318691057"><ele>141.0</ele><time>2026-04-23T17:12:19.999Z</time></trkpt><trkpt lat="42.2605642166035" lon="13.953519546374869"><ele>144.0</ele><time>2026-04-23T17:12:20.999Z</time></trkpt><trkpt lat="42.260474303851396" lon="13.95328692362262"><ele>147.0</ele><time>2026-04-23T17:12:21.999Z</time></trkpt><trkpt lat="42.26036060521379" lon="13.95304980852127"><ele>147.0</ele><time>2026-04-23T17:12:22.999Z</time></trkpt><trkpt lat="42.260238025984144" lon="13.952819019439717"><ele>147.0</ele><time>2026-04-23T17:12:23.999Z</time></trkpt><trkpt lat="42.26010107913375" lon="13.952595485318858"><ele>147.0</ele><time>2026-04-23T17:12:24.999Z</time></trkpt><trkpt lat="42.25994700584181" lon="13.95237894818946"><ele>147.33333333333334</ele><time>2026-04-23T17:12:25.999Z</time></trkpt><trkpt lat="42.25978770555309" lon="13.952176616802577"><ele>147.66666666666669</ele><time>2026-04-23T17:12:26.999Z</time></trkpt><trkpt lat="42.2596195432528" lon="13.951986976992618"><ele>148.0</ele><time>2026-04-23T17:12:27.999Z</time></trkpt><trkpt lat="42.25945300898874" lon="13.951831905684172"><ele>147.0</ele><time>2026-04-23T17:12:28.999Z</time></trkpt><trkpt lat="42.25928152712265" lon="13.95169224823598"><ele>146.0</ele><time>2026-04-23T17:12:29.999Z</time></trkpt><trkpt lat="42.25910045977742" lon="13.95156076164795"><ele>145.0</ele><time>2026-04-23T17:12:30.999Z</time></trkpt><trkpt lat="42.25890575008301" lon="13.951441410357637"><ele>145.0</ele><time>2026-04-23T17:12:31.999Z</time></trkpt><trkpt lat="42.25870121179036" lon="13.951344276313103"><ele>145.0</ele><time>2026-04-23T17:12:32.999Z</time></trkpt><trkpt lat="42.25848891032264" lon="13.951256253353748"><ele>145.0</ele><time>2026-04-23T17:12:33.999Z</time></trkpt><trkpt lat="42.25826463574664" lon="13.951184632451984"><ele>144.0</ele><time>2026-04-23T17:12:34.999Z</time></trkpt><trkpt lat="42.25802714662818" lon="13.951140821834935"><ele>143.0</ele><time>2026-04-23T17:12:35.999Z</time></trkpt><trkpt lat="42.257801142201366" lon="13.951101912052472"><ele>143.0</ele><time>2026-04-23T17:12:36.999Z</time></trkpt><trkpt lat="42.25754334841196" lon="13.951089939340157"><ele>143.0</ele><time>2026-04-23T17:12:37.999Z</time></trkpt><trkpt lat="42.257274771949525" lon="13.951086817545443"><ele>143.5</ele><time>2026-04-23T17:12:38.999Z</time></trkpt><trkpt lat="42.257035011590865" lon="13.95108314520709"><ele>144.0</ele><time>2026-04-23T17:12:39.999Z</time></trkpt><trkpt lat="42.25681661446445" lon="13.951074933355189"><ele>144.0</ele><time>2026-04-23T17:12:40.999Z</time></trkpt><trkpt lat="42.25661125893077" lon="13.951069498400075"><ele>144.0</ele><time>2026-04-23T17:12:41.999Z</time></trkpt><trkpt lat="42.25640282176625" lon="13.951089949248118"><ele>144.0</ele><time>2026-04-23T17:12:42.999Z</time></trkpt><trkpt lat="42.25616431275112" lon="13.951162199077983"><ele>143.5</ele><time>2026-04-23T17:12:43.999Z</time></trkpt><trkpt lat="42.25589745740203" lon="13.951260301005663"><ele>143.0</ele><time>2026-04-23T17:12:44.999Z</time></trkpt><trkpt lat="42.25561867757718" lon="13.95134695865821"><ele>142.0</ele><time>2026-04-23T17:12:45.999Z</time></trkpt><trkpt lat="42.25537972584098" lon="13.951415923556956"><ele>141.0</ele><time>2026-04-23T17:12:46.999Z</time></trkpt><trkpt lat="42.255168442574835" lon="13.95147522365672"><ele>141.0</ele><time>2026-04-23T17:12:47.999Z</time></trkpt><trkpt lat="42.25498088558473" lon="13.95153563769057"><ele>141.0</ele><time>2026-04-23T17:12:48.999Z</time></trkpt><trkpt lat="42.25482129562848" lon="13.951571801503846"><ele>141.0</ele><time>2026-04-23T17:12:49.999Z</time></trkpt><trkpt lat="42.25467533000004" lon="13.951613398798633"><ele>141.0</ele><time>2026-04-23T17:12:50.999Z</time></trkpt><trkpt lat="42.25455304806802" lon="13.951648492685726"><ele>141.0</ele><time>2026-04-23T17:12:51.999Z</time></trkpt><trkpt lat="42.25445791730083" lon="13.951676953071306"><ele>141.0</ele><time>2026-04-23T17:12:52.999Z</time></trkpt><trkpt lat="42.25437164854539" lon="13.951700717342556"><ele>141.0</ele><time>2026-04-23T17:12:53.999Z</time></trkpt><trkpt lat="42.25430054640664" lon="13.951726802431713"><ele>141.0</ele><time>2026-04-23T17:12:54.999Z</time></trkpt><trkpt lat="42.25421850851496" lon="13.95174881233603"><ele>141.0</ele><time>2026-04-23T17:12:55.999Z</time></trkpt><trkpt lat="42.254147016013704" lon="13.951772245949986"><ele>141.0</ele><time>2026-04-23T17:12:56.999Z</time></trkpt><trkpt lat="42.25405428038172" lon="13.951811369098643"><ele>141.0</ele><time>2026-04-23T17:12:58.999Z</time></trkpt><trkpt lat="42.25397766052426" lon="13.951835624261033"><ele>141.0</ele><time>2026-04-23T17:13:01.999Z</time></trkpt><trkpt lat="42.25390185063252" lon="13.951830633021306"><ele>141.0</ele><time>2026-04-23T17:13:05.999Z</time></trkpt><trkpt lat="42.25381302985908" lon="13.951874209036216"><ele>141.0</ele><time>2026-04-23T17:13:08.999Z</time></trkpt><trkpt lat="42.25374474813096" lon="13.951906601444724"><ele>139.33333333333334</ele><time>2026-04-23T17:13:10.999Z</time></trkpt><trkpt lat="42.2536738450914" lon="13.951937319089554"><ele>137.66666666666666</ele><time>2026-04-23T17:13:13.999Z</time></trkpt><trkpt lat="42.25361158859372" lon="13.951957261613694"><ele>136.0</ele><time>2026-04-23T17:13:17.999Z</time></trkpt><trkpt lat="42.253541001030094" lon="13.951978128300803"><ele>134.33333333333331</ele><time>2026-04-23T17:13:28.999Z</time></trkpt><trkpt lat="42.25346387357069" lon="13.952003051579773"><ele>132.66666666666666</ele><time>2026-04-23T17:13:30.999Z</time></trkpt><trkpt lat="42.253390553238496" lon="13.95203912299597"><ele>131.0</ele><time>2026-04-23T17:13:31.999Z</time></trkpt><trkpt lat="42.253283948826954" lon="13.952046872537823"><ele>131.0</ele><time>2026-04-23T17:13:32.999Z</time></trkpt><trkpt lat="42.25315318246449" lon="13.952021177624369"><ele>131.0</ele><time>2026-04-23T17:13:34Z</time></trkpt><trkpt lat="42.25298873425062" lon="13.951977642911624"><ele>131.0</ele><time>2026-04-23T17:13:35Z</time></trkpt><trkpt lat="42.25279167131022" lon="13.951938644656165"><ele>130.33333333333331</ele><time>2026-04-23T17:13:36Z</time></trkpt><trkpt lat="42.252611052417144" lon="13.951906148928515"><ele>129.66666666666666</ele><time>2026-04-23T17:13:37Z</time></trkpt><trkpt lat="42.252467938502384" lon="13.951871342483345"><ele>129.0</ele><time>2026-04-23T17:13:38Z</time></trkpt><trkpt lat="42.252331695965324" lon="13.95184148864348"><ele>129.75</ele><time>2026-04-23T17:13:39Z</time></trkpt><trkpt lat="42.25220266566515" lon="13.951819580231803"><ele>130.5</ele><time>2026-04-23T17:13:40Z</time></trkpt><trkpt lat="42.25206525873694" lon="13.951799680164164"><ele>131.25</ele><time>2026-04-23T17:13:41Z</time></trkpt><trkpt lat="42.251921333331765" lon="13.951770259758822"><ele>132.0</ele><time>2026-04-23T17:13:42Z</time></trkpt><trkpt lat="42.25176816954594" lon="13.951737323742565"><ele>132.5</ele><time>2026-04-23T17:13:43Z</time></trkpt><trkpt lat="42.25161383559457" lon="13.951704434157724"><ele>133.0</ele><time>2026-04-23T17:13:44Z</time></trkpt><trkpt lat="42.25148428092072" lon="13.951672409910557"><ele>133.5</ele><time>2026-04-23T17:13:45Z</time></trkpt><trkpt lat="42.25138163795362" lon="13.951647957758478"><ele>134.0</ele><time>2026-04-23T17:13:46Z</time></trkpt><trkpt lat="42.25128701985629" lon="13.9516315607005"><ele>134.6</ele><time>2026-04-23T17:13:47Z</time></trkpt><trkpt lat="42.25121510642891" lon="13.951620792703467"><ele>135.2</ele><time>2026-04-23T17:13:48Z</time></trkpt><trkpt lat="42.251150461529136" lon="13.951628734556477"><ele>135.79999999999998</ele><time>2026-04-23T17:13:49Z</time></trkpt><trkpt lat="42.251053214810554" lon="13.951645129852285"><ele>136.4</ele><time>2026-04-23T17:13:50Z</time></trkpt><trkpt lat="42.25091953954122" lon="13.951645780313953"><ele>137.0</ele><time>2026-04-23T17:13:51Z</time></trkpt><trkpt lat="42.25075552373005" lon="13.951654956394004"><ele>136.66666666666666</ele><time>2026-04-23T17:13:52Z</time></trkpt><trkpt lat="42.25057412102267" lon="13.951677491515238"><ele>136.33333333333334</ele><time>2026-04-23T17:13:53Z</time></trkpt><trkpt lat="42.250373764655365" lon="13.951705078630894"><ele>136.0</ele><time>2026-04-23T17:13:54Z</time></trkpt><trkpt lat="42.250164476441576" lon="13.951731570941925"><ele>137.0</ele><time>2026-04-23T17:13:55Z</time></trkpt><trkpt lat="42.249941095922665" lon="13.951763953186124"><ele>138.0</ele><time>2026-04-23T17:13:56Z</time></trkpt><trkpt lat="42.24971639062447" lon="13.95178871334747"><ele>139.5</ele><time>2026-04-23T17:13:57Z</time></trkpt><trkpt lat="42.24949259054107" lon="13.951813063462728"><ele>141.0</ele><time>2026-04-23T17:13:58Z</time></trkpt><trkpt lat="42.2492640453233" lon="13.951833992286895"><ele>141.0</ele><time>2026-04-23T17:13:59Z</time></trkpt><trkpt lat="42.24903768297056" lon="13.951856479337817"><ele>141.0</ele><time>2026-04-23T17:14:00Z</time></trkpt><trkpt lat="42.248820012775006" lon="13.951881275155037"><ele>141.0</ele><time>2026-04-23T17:14:01Z</time></trkpt><trkpt lat="42.248612092093154" lon="13.951907029203138"><ele>140.66666666666666</ele><time>2026-04-23T17:14:02Z</time></trkpt><trkpt lat="42.2484126612378" lon="13.951930482697623"><ele>140.33333333333331</ele><time>2026-04-23T17:14:03Z</time></trkpt><trkpt lat="42.24821773289588" lon="13.95195117830424"><ele>140.0</ele><time>2026-04-23T17:14:04Z</time></trkpt><trkpt lat="42.24802803377773" lon="13.951967850529973"><ele>140.0</ele><time>2026-04-23T17:14:05Z</time></trkpt><trkpt lat="42.24783565412964" lon="13.951980427176117"><ele>140.0</ele><time>2026-04-23T17:14:06Z</time></trkpt><trkpt lat="42.2476381747926" lon="13.951990195758132"><ele>140.0</ele><time>2026-04-23T17:14:07Z</time></trkpt><trkpt lat="42.247437489000596" lon="13.952009226542497"><ele>141.66666666666666</ele><time>2026-04-23T17:14:08Z</time></trkpt><trkpt lat="42.24723141071309" lon="13.952036770512771"><ele>143.33333333333334</ele><time>2026-04-23T17:14:09Z</time></trkpt><trkpt lat="42.24703988629538" lon="13.952061502274608"><ele>145.0</ele><time>2026-04-23T17:14:10Z</time></trkpt><trkpt lat="42.246868171231405" lon="13.952069600476442"><ele>145.0</ele><time>2026-04-23T17:14:11Z</time></trkpt><trkpt lat="42.246711064520674" lon="13.952045160212629"><ele>145.0</ele><time>2026-04-23T17:14:12Z</time></trkpt><trkpt lat="42.246575510279456" lon="13.951983381424592"><ele>145.0</ele><time>2026-04-23T17:14:13Z</time></trkpt><trkpt lat="42.246460674846354" lon="13.95186226720931"><ele>145.0</ele><time>2026-04-23T17:14:14Z</time></trkpt><trkpt lat="42.24635070955641" lon="13.951694192082995"><ele>148.0</ele><time>2026-04-23T17:14:14.999Z</time></trkpt><trkpt lat="42.24623696658992" lon="13.951502348568741"><ele>151.0</ele><time>2026-04-23T17:14:15.999Z</time></trkpt><trkpt lat="42.24611476949508" lon="13.951307460398843"><ele>154.0</ele><time>2026-04-23T17:14:16.999Z</time></trkpt><trkpt lat="42.246001041713704" lon="13.951139436508473"><ele>154.0</ele><time>2026-04-23T17:14:17.999Z</time></trkpt><trkpt lat="42.24586885767638" lon="13.951000596457327"><ele>154.0</ele><time>2026-04-23T17:14:18.999Z</time></trkpt><trkpt lat="42.245698072766515" lon="13.950875893512695"><ele>154.0</ele><time>2026-04-23T17:14:19.999Z</time></trkpt><trkpt lat="42.24549735792715" lon="13.950778773842108"><ele>156.33333333333334</ele><time>2026-04-23T17:14:20.999Z</time></trkpt><trkpt lat="42.245312692750474" lon="13.95069295869572"><ele>158.66666666666666</ele><time>2026-04-23T17:14:21.999Z</time></trkpt><trkpt lat="42.24515661902734" lon="13.950618699023767"><ele>161.0</ele><time>2026-04-23T17:14:22.999Z</time></trkpt><trkpt lat="42.244971046650974" lon="13.95056991089954"><ele>163.33333333333331</ele><time>2026-04-23T17:14:23.999Z</time></trkpt><trkpt lat="42.2447579277017" lon="13.95055974366026"><ele>165.66666666666666</ele><time>2026-04-23T17:14:24.999Z</time></trkpt><trkpt lat="42.244536852401154" lon="13.950568313986123"><ele>168.0</ele><time>2026-04-23T17:14:25.999Z</time></trkpt><trkpt lat="42.24433921599918" lon="13.950569036540857"><ele>168.0</ele><time>2026-04-23T17:14:26.999Z</time></trkpt><trkpt lat="42.244162622324914" lon="13.950570683575581"><ele>168.0</ele><time>2026-04-23T17:14:27.999Z</time></trkpt><trkpt lat="42.24397468939457" lon="13.950595663172688"><ele>168.0</ele><time>2026-04-23T17:14:28.999Z</time></trkpt><trkpt lat="42.24376249437991" lon="13.950660791209852"><ele>170.0</ele><time>2026-04-23T17:14:29.999Z</time></trkpt><trkpt lat="42.243538769912334" lon="13.95076473022687"><ele>172.0</ele><time>2026-04-23T17:14:30.999Z</time></trkpt><trkpt lat="42.243302852100776" lon="13.950885968031713"><ele>176.33333333333334</ele><time>2026-04-23T17:14:31.999Z</time></trkpt><trkpt lat="42.243077893761374" lon="13.950992981920304"><ele>180.66666666666666</ele><time>2026-04-23T17:14:32.999Z</time></trkpt><trkpt lat="42.24288220568101" lon="13.951080745243175"><ele>185.0</ele><time>2026-04-23T17:14:33.999Z</time></trkpt><trkpt lat="42.242704219273605" lon="13.951149557901726"><ele>185.0</ele><time>2026-04-23T17:14:34.999Z</time></trkpt><trkpt lat="42.24252653764993" lon="13.951200534210352"><ele>185.0</ele><time>2026-04-23T17:14:35.999Z</time></trkpt><trkpt lat="42.24233399088695" lon="13.951210015034912"><ele>185.0</ele><time>2026-04-23T17:14:36.999Z</time></trkpt><trkpt lat="42.242116382857986" lon="13.951174125395664"><ele>188.5</ele><time>2026-04-23T17:14:37.999Z</time></trkpt><trkpt lat="42.24188236324911" lon="13.951107845336038"><ele>192.0</ele><time>2026-04-23T17:14:38.999Z</time></trkpt><trkpt lat="42.24163742009649" lon="13.951019874835643"><ele>193.0</ele><time>2026-04-23T17:14:39.999Z</time></trkpt><trkpt lat="42.241398887236144" lon="13.950941748434483"><ele>194.0</ele><time>2026-04-23T17:14:40.999Z</time></trkpt><trkpt lat="42.241190283046016" lon="13.950874034129509"><ele>194.0</ele><time>2026-04-23T17:14:41.999Z</time></trkpt><trkpt lat="42.240996264621806" lon="13.950809512121774"><ele>194.0</ele><time>2026-04-23T17:14:42.999Z</time></trkpt><trkpt lat="42.24081991430373" lon="13.950751053956814"><ele>194.0</ele><time>2026-04-23T17:14:43.999Z</time></trkpt><trkpt lat="42.24065057917473" lon="13.95069929694265"><ele>194.66666666666669</ele><time>2026-04-23T17:14:44.999Z</time></trkpt><trkpt lat="42.24048930443664" lon="13.950678432969207"><ele>195.33333333333331</ele><time>2026-04-23T17:14:45.999Z</time></trkpt><trkpt lat="42.24032858263772" lon="13.95068848081491"><ele>196.0</ele><time>2026-04-23T17:14:46.999Z</time></trkpt><trkpt lat="42.24015703883573" lon="13.950666867586113"><ele>196.0</ele><time>2026-04-23T17:14:47.999Z</time></trkpt><trkpt lat="42.24000180662663" lon="13.950700610255398"><ele>196.0</ele><time>2026-04-23T17:14:48.999Z</time></trkpt><trkpt lat="42.23985419168809" lon="13.95076280519528"><ele>196.0</ele><time>2026-04-23T17:14:49.999Z</time></trkpt><trkpt lat="42.239728701122324" lon="13.950845534095633"><ele>197.5</ele><time>2026-04-23T17:14:50.999Z</time></trkpt><trkpt lat="42.239626111004966" lon="13.950940630337263"><ele>199.0</ele><time>2026-04-23T17:14:51.999Z</time></trkpt><trkpt lat="42.239549054238324" lon="13.951062243365978"><ele>200.5</ele><time>2026-04-23T17:14:52.999Z</time></trkpt><trkpt lat="42.23949852700827" lon="13.95121104777781"><ele>202.0</ele><time>2026-04-23T17:14:53.999Z</time></trkpt><trkpt lat="42.23946773085604" lon="13.951403825200156"><ele>202.0</ele><time>2026-04-23T17:14:54.999Z</time></trkpt><trkpt lat="42.239456107760745" lon="13.951631405709383"><ele>202.0</ele><time>2026-04-23T17:14:55.999Z</time></trkpt><trkpt lat="42.2394435689575" lon="13.95186993009616"><ele>202.0</ele><time>2026-04-23T17:14:56.999Z</time></trkpt><trkpt lat="42.23940244214253" lon="13.952111537370257"><ele>204.33333333333331</ele><time>2026-04-23T17:14:57.999Z</time></trkpt><trkpt lat="42.23938993754907" lon="13.952358820671506"><ele>206.66666666666669</ele><time>2026-04-23T17:14:58.999Z</time></trkpt><trkpt lat="42.23933570326925" lon="13.952557840525024"><ele>209.0</ele><time>2026-04-23T17:14:59.999Z</time></trkpt><trkpt lat="42.23927606044787" lon="13.952746907941485"><ele>211.0</ele><time>2026-04-23T17:15:00.999Z</time></trkpt><trkpt lat="42.239189762327726" lon="13.952919882264844"><ele>213.0</ele><time>2026-04-23T17:15:01.999Z</time></trkpt><trkpt lat="42.239086884094675" lon="13.953066250389806"><ele>215.0</ele><time>2026-04-23T17:15:02.999Z</time></trkpt><trkpt lat="42.23896547177111" lon="13.953182748859485"><ele>216.0</ele><time>2026-04-23T17:15:03.999Z</time></trkpt><trkpt lat="42.23882643354952" lon="13.953268741619366"><ele>217.0</ele><time>2026-04-23T17:15:04.999Z</time></trkpt><trkpt lat="42.238681790921916" lon="13.953310072101345"><ele>218.0</ele><time>2026-04-23T17:15:05.999Z</time></trkpt><trkpt lat="42.238528140792226" lon="13.953318486494123"><ele>218.0</ele><time>2026-04-23T17:15:06.999Z</time></trkpt><trkpt lat="42.238355326107424" lon="13.953291576814715"><ele>218.0</ele><time>2026-04-23T17:15:07.999Z</time></trkpt><trkpt lat="42.238156065859606" lon="13.953232075161637"><ele>218.0</ele><time>2026-04-23T17:15:08.999Z</time></trkpt><trkpt lat="42.237901700839714" lon="13.953132671561251"><ele>217.5</ele><time>2026-04-23T17:15:09.999Z</time></trkpt><trkpt lat="42.23764231107482" lon="13.953048133956477"><ele>217.0</ele><time>2026-04-23T17:15:10.999Z</time></trkpt><trkpt lat="42.23736966752212" lon="13.95296969562921"><ele>222.5</ele><time>2026-04-23T17:15:11.999Z</time></trkpt><trkpt lat="42.23713287458878" lon="13.952904259765072"><ele>228.0</ele><time>2026-04-23T17:15:12.999Z</time></trkpt><trkpt lat="42.23692850909091" lon="13.952838198306315"><ele>228.0</ele><time>2026-04-23T17:15:13.999Z</time></trkpt><trkpt lat="42.23674229909523" lon="13.952782660556581"><ele>228.0</ele><time>2026-04-23T17:15:14.999Z</time></trkpt><trkpt lat="42.23656846934307" lon="13.95272960439532"><ele>228.0</ele><time>2026-04-23T17:15:15.999Z</time></trkpt><trkpt lat="42.23640996954603" lon="13.952653987903439"><ele>226.33333333333331</ele><time>2026-04-23T17:15:16.999Z</time></trkpt><trkpt lat="42.236259578674044" lon="13.952532360345932"><ele>224.66666666666666</ele><time>2026-04-23T17:15:17.999Z</time></trkpt><trkpt lat="42.236109974737545" lon="13.952358962247391"><ele>223.0</ele><time>2026-04-23T17:15:18.999Z</time></trkpt><trkpt lat="42.23596437862386" lon="13.952153004119612"><ele>223.0</ele><time>2026-04-23T17:15:19.999Z</time></trkpt><trkpt lat="42.235841653245764" lon="13.951966798555251"><ele>223.0</ele><time>2026-04-23T17:15:20.999Z</time></trkpt><trkpt lat="42.23572473467816" lon="13.95180843082025"><ele>223.0</ele><time>2026-04-23T17:15:21.999Z</time></trkpt><trkpt lat="42.23558692094692" lon="13.951666384582403"><ele>224.33333333333331</ele><time>2026-04-23T17:15:22.999Z</time></trkpt><trkpt lat="42.23541695151864" lon="13.95155594275475"><ele>225.66666666666669</ele><time>2026-04-23T17:15:23.999Z</time></trkpt><trkpt lat="42.23520554965759" lon="13.951487733681253"><ele>227.0</ele><time>2026-04-23T17:15:24.999Z</time></trkpt><trkpt lat="42.23496304322336" lon="13.951441188743505"><ele>230.0</ele><time>2026-04-23T17:15:25.999Z</time></trkpt><trkpt lat="42.23469319908346" lon="13.951369445254764"><ele>233.0</ele><time>2026-04-23T17:15:26.999Z</time></trkpt><trkpt lat="42.23440526448996" lon="13.951280904380708"><ele>233.0</ele><time>2026-04-23T17:15:27.999Z</time></trkpt><trkpt lat="42.23410720554822" lon="13.95118318109723"><ele>233.0</ele><time>2026-04-23T17:15:28.999Z</time></trkpt><trkpt lat="42.23384501055018" lon="13.95110079580813"><ele>236.0</ele><time>2026-04-23T17:15:29.999Z</time></trkpt><trkpt lat="42.23362298537699" lon="13.951018013986475"><ele>239.0</ele><time>2026-04-23T17:15:30.999Z</time></trkpt><trkpt lat="42.23342856072831" lon="13.950954439453902"><ele>242.0</ele><time>2026-04-23T17:15:31.999Z</time></trkpt><trkpt lat="42.23325799156619" lon="13.95089842606379"><ele>243.0</ele><time>2026-04-23T17:15:32.999Z</time></trkpt><trkpt lat="42.23310189924549" lon="13.950849192118392"><ele>244.0</ele><time>2026-04-23T17:15:33.999Z</time></trkpt><trkpt lat="42.23295437913794" lon="13.950803056091114"><ele>245.0</ele><time>2026-04-23T17:15:34.999Z</time></trkpt><trkpt lat="42.23279552427878" lon="13.950754767391475"><ele>245.0</ele><time>2026-04-23T17:15:35.999Z</time></trkpt><trkpt lat="42.23262304240139" lon="13.950701388544807"><ele>245.0</ele><time>2026-04-23T17:15:36.999Z</time></trkpt><trkpt lat="42.23243190666717" lon="13.950646590428454"><ele>245.0</ele><time>2026-04-23T17:15:37.999Z</time></trkpt><trkpt lat="42.23222041510135" lon="13.95058286386223"><ele>244.5</ele><time>2026-04-23T17:15:38.999Z</time></trkpt><trkpt lat="42.23199812565877" lon="13.950509752097133"><ele>244.0</ele><time>2026-04-23T17:15:40Z</time></trkpt><trkpt lat="42.23177656316695" lon="13.95043052120252"><ele>244.0</ele><time>2026-04-23T17:15:41Z</time></trkpt><trkpt lat="42.23157056405804" lon="13.950336950620942"><ele>244.0</ele><time>2026-04-23T17:15:42Z</time></trkpt><trkpt lat="42.23131357109992" lon="13.950296178166182"><ele>243.0</ele><time>2026-04-23T17:15:43Z</time></trkpt><trkpt lat="42.23108916160863" lon="13.950236960366496"><ele>242.0</ele><time>2026-04-23T17:15:44Z</time></trkpt><trkpt lat="42.23087882961657" lon="13.950186664948106"><ele>241.0</ele><time>2026-04-23T17:15:45Z</time></trkpt><trkpt lat="42.23065664314727" lon="13.950145305517887"><ele>237.0</ele><time>2026-04-23T17:15:46Z</time></trkpt><trkpt lat="42.23043824678816" lon="13.950105861056148"><ele>233.0</ele><time>2026-04-23T17:15:47Z</time></trkpt><trkpt lat="42.230229800399954" lon="13.950076532311884"><ele>229.0</ele><time>2026-04-23T17:15:48Z</time></trkpt><trkpt lat="42.23003158789121" lon="13.950038406517745"><ele>227.33333333333331</ele><time>2026-04-23T17:15:49Z</time></trkpt><trkpt lat="42.229845652355536" lon="13.949975460294958"><ele>225.66666666666669</ele><time>2026-04-23T17:15:50Z</time></trkpt><trkpt lat="42.22967065727224" lon="13.949886370830432"><ele>224.0</ele><time>2026-04-23T17:15:51Z</time></trkpt><trkpt lat="42.22950981854855" lon="13.949718780645494"><ele>222.0</ele><time>2026-04-23T17:15:52Z</time></trkpt><trkpt lat="42.22931888931365" lon="13.949543625381224"><ele>220.0</ele><time>2026-04-23T17:15:53Z</time></trkpt><trkpt lat="42.22910127555284" lon="13.949349164223207"><ele>215.0</ele><time>2026-04-23T17:15:54Z</time></trkpt><trkpt lat="42.228889672010546" lon="13.949135179078354"><ele>210.0</ele><time>2026-04-23T17:15:55Z</time></trkpt><trkpt lat="42.22869348738294" lon="13.948950567627621"><ele>210.0</ele><time>2026-04-23T17:15:56Z</time></trkpt><trkpt lat="42.22850694754698" lon="13.94877193646982"><ele>210.0</ele><time>2026-04-23T17:15:57Z</time></trkpt><trkpt lat="42.22832686423971" lon="13.948605005725957"><ele>210.0</ele><time>2026-04-23T17:15:58Z</time></trkpt><trkpt lat="42.22816335413574" lon="13.948449895161767"><ele>209.25</ele><time>2026-04-23T17:15:59Z</time></trkpt><trkpt lat="42.228027019746456" lon="13.948314860790713"><ele>208.5</ele><time>2026-04-23T17:16:00Z</time></trkpt><trkpt lat="42.227923843205474" lon="13.948195231987826"><ele>207.75</ele><time>2026-04-23T17:16:01Z</time></trkpt><trkpt lat="42.227840026980225" lon="13.948074908869746"><ele>207.0</ele><time>2026-04-23T17:16:02Z</time></trkpt><trkpt lat="42.22777005478989" lon="13.947904253614153"><ele>207.0</ele><time>2026-04-23T17:16:03Z</time></trkpt><trkpt lat="42.22770852080618" lon="13.947683189429084"><ele>207.0</ele><time>2026-04-23T17:16:04Z</time></trkpt><trkpt lat="42.22764251321916" lon="13.947414575597065"><ele>207.0</ele><time>2026-04-23T17:16:05Z</time></trkpt><trkpt lat="42.22756778485826" lon="13.947122237658174"><ele>205.5</ele><time>2026-04-23T17:16:06Z</time></trkpt><trkpt lat="42.22747773407564" lon="13.94680610737602"><ele>204.0</ele><time>2026-04-23T17:16:07Z</time></trkpt><trkpt lat="42.22738204315185" lon="13.946473028588464"><ele>202.0</ele><time>2026-04-23T17:16:08Z</time></trkpt><trkpt lat="42.22728585050273" lon="13.946126949101124"><ele>200.0</ele><time>2026-04-23T17:16:09Z</time></trkpt><trkpt lat="42.22718078278915" lon="13.945757676831748"><ele>199.0</ele><time>2026-04-23T17:16:10Z</time></trkpt><trkpt lat="42.22706803822801" lon="13.945353626344756"><ele>198.0</ele><time>2026-04-23T17:16:11Z</time></trkpt><trkpt lat="42.22694329981498" lon="13.944924919826741"><ele>198.0</ele><time>2026-04-23T17:16:12Z</time></trkpt><trkpt lat="42.22681332075549" lon="13.944474542884668"><ele>198.0</ele><time>2026-04-23T17:16:12.999Z</time></trkpt><trkpt lat="42.22667739875933" lon="13.944006358508522"><ele>197.0</ele><time>2026-04-23T17:16:13.999Z</time></trkpt><trkpt lat="42.22655596508821" lon="13.9435763193919"><ele>196.0</ele><time>2026-04-23T17:16:14.999Z</time></trkpt><trkpt lat="42.22644661680114" lon="13.943185983143053"><ele>194.5</ele><time>2026-04-23T17:16:15.999Z</time></trkpt><trkpt lat="42.22634277116266" lon="13.942827057930357"><ele>193.0</ele><time>2026-04-23T17:16:16.999Z</time></trkpt><trkpt lat="42.22624429932421" lon="13.942488090289356"><ele>193.0</ele><time>2026-04-23T17:16:17.999Z</time></trkpt><trkpt lat="42.226149238841785" lon="13.942166044327662"><ele>193.0</ele><time>2026-04-23T17:16:18.999Z</time></trkpt><trkpt lat="42.22606185946017" lon="13.941866855544992"><ele>194.0</ele><time>2026-04-23T17:16:19.999Z</time></trkpt><trkpt lat="42.22597909082116" lon="13.94158214124295"><ele>195.0</ele><time>2026-04-23T17:16:20.999Z</time></trkpt><trkpt lat="42.2259042752117" lon="13.941314365965749"><ele>196.0</ele><time>2026-04-23T17:16:21.999Z</time></trkpt><trkpt lat="42.22583942573496" lon="13.941058669496234"><ele>195.33333333333331</ele><time>2026-04-23T17:16:22.999Z</time></trkpt><trkpt lat="42.225779086059" lon="13.940789660920807"><ele>194.66666666666669</ele><time>2026-04-23T17:16:23.999Z</time></trkpt><trkpt lat="42.22573514493267" lon="13.94050771005578"><ele>194.0</ele><time>2026-04-23T17:16:24.999Z</time></trkpt><trkpt lat="42.22570995389728" lon="13.94021847826999"><ele>194.33333333333334</ele><time>2026-04-23T17:16:25.999Z</time></trkpt><trkpt lat="42.22571001372339" lon="13.939924154378694"><ele>194.66666666666669</ele><time>2026-04-23T17:16:26.999Z</time></trkpt><trkpt lat="42.225723052052544" lon="13.939624212852676"><ele>195.0</ele><time>2026-04-23T17:16:27.999Z</time></trkpt><trkpt lat="42.225737697829096" lon="13.939330437942068"><ele>195.33333333333331</ele><time>2026-04-23T17:16:28.999Z</time></trkpt><trkpt lat="42.22575030471479" lon="13.939038630543674"><ele>195.66666666666666</ele><time>2026-04-23T17:16:29.999Z</time></trkpt><trkpt lat="42.22576884604921" lon="13.938743265599989"><ele>196.0</ele><time>2026-04-23T17:16:30.999Z</time></trkpt><trkpt lat="42.225774660957825" lon="13.93844442863942"><ele>195.5</ele><time>2026-04-23T17:16:31.999Z</time></trkpt><trkpt lat="42.22578099074649" lon="13.938129724858042"><ele>195.0</ele><time>2026-04-23T17:16:32.999Z</time></trkpt><trkpt lat="42.225788874715036" lon="13.937792827327545"><ele>194.5</ele><time>2026-04-23T17:16:33.999Z</time></trkpt><trkpt lat="42.225802366609486" lon="13.937436116248662"><ele>194.0</ele><time>2026-04-23T17:16:34.999Z</time></trkpt><trkpt lat="42.225808834140615" lon="13.937062798862284"><ele>194.0</ele><time>2026-04-23T17:16:35.999Z</time></trkpt><trkpt lat="42.22581641211191" lon="13.936676784130382"><ele>194.0</ele><time>2026-04-23T17:16:36.999Z</time></trkpt><trkpt lat="42.22582561996824" lon="13.936281327453239"><ele>194.5</ele><time>2026-04-23T17:16:37.999Z</time></trkpt><trkpt lat="42.22583403889148" lon="13.935869265586218"><ele>195.0</ele><time>2026-04-23T17:16:38.999Z</time></trkpt><trkpt lat="42.22584090095511" lon="13.935449633937612"><ele>193.5</ele><time>2026-04-23T17:16:39.999Z</time></trkpt><trkpt lat="42.225848129114574" lon="13.935031932951201"><ele>192.0</ele><time>2026-04-23T17:16:40.999Z</time></trkpt><trkpt lat="42.22585649531737" lon="13.934631092655147"><ele>192.0</ele><time>2026-04-23T17:16:41.999Z</time></trkpt><trkpt lat="42.22586553671601" lon="13.93424037620198"><ele>192.0</ele><time>2026-04-23T17:16:42.999Z</time></trkpt><trkpt lat="42.225874784935215" lon="13.93385567814078"><ele>192.5</ele><time>2026-04-23T17:16:43.999Z</time></trkpt><trkpt lat="42.22588391211347" lon="13.933468663646252"><ele>193.0</ele><time>2026-04-23T17:16:44.999Z</time></trkpt><trkpt lat="42.22589052446298" lon="13.933064982450679"><ele>193.5</ele><time>2026-04-23T17:16:45.999Z</time></trkpt><trkpt lat="42.22589758411256" lon="13.932644014807668"><ele>194.0</ele><time>2026-04-23T17:16:46.999Z</time></trkpt><trkpt lat="42.225905605287565" lon="13.932196951879071"><ele>192.5</ele><time>2026-04-23T17:16:47.999Z</time></trkpt><trkpt lat="42.22591553716402" lon="13.931746336510685"><ele>191.0</ele><time>2026-04-23T17:16:48.999Z</time></trkpt><trkpt lat="42.225928090146034" lon="13.931311323029545"><ele>191.0</ele><time>2026-04-23T17:16:49.999Z</time></trkpt><trkpt lat="42.22593704613439" lon="13.930917836770458"><ele>191.0</ele><time>2026-04-23T17:16:50.999Z</time></trkpt><trkpt lat="42.22594568742209" lon="13.930556242975253"><ele>192.5</ele><time>2026-04-23T17:16:51.999Z</time></trkpt><trkpt lat="42.22595146963415" lon="13.930206990713577"><ele>194.0</ele><time>2026-04-23T17:16:52.999Z</time></trkpt><trkpt lat="42.225959009059615" lon="13.929874508881953"><ele>196.0</ele><time>2026-04-23T17:16:53.999Z</time></trkpt><trkpt lat="42.22596973960724" lon="13.929552998131886"><ele>198.0</ele><time>2026-04-23T17:16:54.999Z</time></trkpt><trkpt lat="42.22597910774661" lon="13.929236165607852"><ele>199.0</ele><time>2026-04-23T17:16:55.999Z</time></trkpt><trkpt lat="42.22598676995052" lon="13.928911851390444"><ele>200.0</ele><time>2026-04-23T17:16:56.999Z</time></trkpt><trkpt lat="42.22598877513341" lon="13.928583447818813"><ele>200.0</ele><time>2026-04-23T17:16:57.999Z</time></trkpt><trkpt lat="42.22598794825245" lon="13.928291382449043"><ele>200.0</ele><time>2026-04-23T17:16:58.999Z</time></trkpt><trkpt lat="42.2259919296453" lon="13.928028874450593"><ele>200.0</ele><time>2026-04-23T17:16:59.999Z</time></trkpt><trkpt lat="42.22600094610619" lon="13.927795720915611"><ele>200.0</ele><time>2026-04-23T17:17:00.999Z</time></trkpt><trkpt lat="42.22600851614528" lon="13.927583251962808"><ele>200.0</ele><time>2026-04-23T17:17:01.999Z</time></trkpt><trkpt lat="42.22601290578842" lon="13.927393026271755"><ele>200.0</ele><time>2026-04-23T17:17:02.999Z</time></trkpt><trkpt lat="42.22602121317419" lon="13.927216294004854"><ele>200.0</ele><time>2026-04-23T17:17:03.999Z</time></trkpt><trkpt lat="42.22602982922989" lon="13.927061373355638"><ele>200.66666666666669</ele><time>2026-04-23T17:17:04.999Z</time></trkpt><trkpt lat="42.22604158975731" lon="13.926940947722331"><ele>201.33333333333334</ele><time>2026-04-23T17:17:05.999Z</time></trkpt><trkpt lat="42.2260704637039" lon="13.926839341567668"><ele>202.0</ele><time>2026-04-23T17:17:06.999Z</time></trkpt><trkpt lat="42.226133113781195" lon="13.926758854867511"><ele>202.66666666666669</ele><time>2026-04-23T17:17:07.999Z</time></trkpt><trkpt lat="42.22621086955124" lon="13.926666880844847"><ele>203.33333333333334</ele><time>2026-04-23T17:17:08.999Z</time></trkpt><trkpt lat="42.22624296373464" lon="13.926563515729969"><ele>204.0</ele><time>2026-04-23T17:17:09.999Z</time></trkpt><trkpt lat="42.22623773727508" lon="13.926442535954822"><ele>204.5</ele><time>2026-04-23T17:17:10.999Z</time></trkpt><trkpt lat="42.226198672660566" lon="13.926327495027234"><ele>205.0</ele><time>2026-04-23T17:17:11.999Z</time></trkpt><trkpt lat="42.226137012411456" lon="13.92623694741871"><ele>205.5</ele><time>2026-04-23T17:17:12.999Z</time></trkpt><trkpt lat="42.22607966473398" lon="13.9261508507406"><ele>206.0</ele><time>2026-04-23T17:17:13.999Z</time></trkpt><trkpt lat="42.226054509451615" lon="13.92605896543534"><ele>206.5</ele><time>2026-04-23T17:17:14.999Z</time></trkpt><trkpt lat="42.22604516088302" lon="13.925956497367302"><ele>207.0</ele><time>2026-04-23T17:17:15.999Z</time></trkpt><trkpt lat="42.22603424304789" lon="13.925816623504625"><ele>207.5</ele><time>2026-04-23T17:17:16.999Z</time></trkpt><trkpt lat="42.22605194164085" lon="13.925652593929232"><ele>208.0</ele><time>2026-04-23T17:17:17.999Z</time></trkpt><trkpt lat="42.22603410202471" lon="13.92547600734893"><ele>208.5</ele><time>2026-04-23T17:17:18.999Z</time></trkpt><trkpt lat="42.226041386623436" lon="13.925286775074529"><ele>209.0</ele><time>2026-04-23T17:17:19.999Z</time></trkpt><trkpt lat="42.22606107409984" lon="13.925081389914093"><ele>208.66666666666669</ele><time>2026-04-23T17:17:20.999Z</time></trkpt><trkpt lat="42.226079671167135" lon="13.92486525976159"><ele>208.33333333333331</ele><time>2026-04-23T17:17:21.999Z</time></trkpt><trkpt lat="42.22608885158197" lon="13.92463650582121"><ele>208.0</ele><time>2026-04-23T17:17:22.999Z</time></trkpt><trkpt lat="42.226091357818106" lon="13.924372260995995"><ele>207.5</ele><time>2026-04-23T17:17:23.999Z</time></trkpt><trkpt lat="42.226095409254135" lon="13.924070394436473"><ele>207.0</ele><time>2026-04-23T17:17:24.999Z</time></trkpt><trkpt lat="42.226106974895536" lon="13.92375053654775"><ele>207.0</ele><time>2026-04-23T17:17:25.999Z</time></trkpt><trkpt lat="42.226111959424706" lon="13.92341424923801"><ele>207.0</ele><time>2026-04-23T17:17:26.999Z</time></trkpt><trkpt lat="42.22612320830776" lon="13.923065146048108"><ele>207.5</ele><time>2026-04-23T17:17:27.999Z</time></trkpt><trkpt lat="42.226134987143105" lon="13.922715172492286"><ele>208.0</ele><time>2026-04-23T17:17:28.999Z</time></trkpt><trkpt lat="42.22614425354075" lon="13.922381503440127"><ele>209.0</ele><time>2026-04-23T17:17:29.999Z</time></trkpt><trkpt lat="42.226155213376266" lon="13.922076557806394"><ele>210.0</ele><time>2026-04-23T17:17:30.999Z</time></trkpt><trkpt lat="42.22616668053282" lon="13.921793960380151"><ele>211.0</ele><time>2026-04-23T17:17:31.999Z</time></trkpt><trkpt lat="42.22617030315438" lon="13.921526295535182"><ele>211.33333333333331</ele><time>2026-04-23T17:17:32.999Z</time></trkpt><trkpt lat="42.22616450580333" lon="13.921275676903317"><ele>211.66666666666669</ele><time>2026-04-23T17:17:33.999Z</time></trkpt><trkpt lat="42.22612449445763" lon="13.921040801488031"><ele>212.0</ele><time>2026-04-23T17:17:34.999Z</time></trkpt><trkpt lat="42.226086734039946" lon="13.92079208111146"><ele>211.0</ele><time>2026-04-23T17:17:35.998Z</time></trkpt><trkpt lat="42.22602718974397" lon="13.920538505362515"><ele>210.0</ele><time>2026-04-23T17:17:36.998Z</time></trkpt><trkpt lat="42.225966558913555" lon="13.92027851121561"><ele>209.0</ele><time>2026-04-23T17:17:37.998Z</time></trkpt><trkpt lat="42.22591468221812" lon="13.920020072504977"><ele>208.0</ele><time>2026-04-23T17:17:38.998Z</time></trkpt><trkpt lat="42.2258599605361" lon="13.91975759711046"><ele>207.0</ele><time>2026-04-23T17:17:39.998Z</time></trkpt><trkpt lat="42.2258054404346" lon="13.91949228933286"><ele>206.0</ele><time>2026-04-23T17:17:40.998Z</time></trkpt><trkpt lat="42.22575418501364" lon="13.919229037301216"><ele>205.33333333333334</ele><time>2026-04-23T17:17:41.998Z</time></trkpt><trkpt lat="42.22569775868909" lon="13.918960836099359"><ele>204.66666666666669</ele><time>2026-04-23T17:17:42.998Z</time></trkpt><trkpt lat="42.225640929196835" lon="13.918688417220427"><ele>204.0</ele><time>2026-04-23T17:17:43.998Z</time></trkpt><trkpt lat="42.225587577518645" lon="13.918414228462511"><ele>205.33333333333331</ele><time>2026-04-23T17:17:44.998Z</time></trkpt><trkpt lat="42.22553239444082" lon="13.918137714626118"><ele>206.66666666666666</ele><time>2026-04-23T17:17:46Z</time></trkpt><trkpt lat="42.22547832862528" lon="13.91786065749528"><ele>208.0</ele><time>2026-04-23T17:17:47Z</time></trkpt><trkpt lat="42.22541833277458" lon="13.917576385453515"><ele>209.33333333333331</ele><time>2026-04-23T17:17:48Z</time></trkpt><trkpt lat="42.22535831894282" lon="13.917297936241239"><ele>210.66666666666669</ele><time>2026-04-23T17:17:49Z</time></trkpt><trkpt lat="42.22529485104455" lon="13.917025863584229"><ele>212.0</ele><time>2026-04-23T17:17:50Z</time></trkpt><trkpt lat="42.225228954259265" lon="13.916778129646852"><ele>212.0</ele><time>2026-04-23T17:17:51Z</time></trkpt><trkpt lat="42.22515621242345" lon="13.91653530198927"><ele>212.0</ele><time>2026-04-23T17:17:52Z</time></trkpt><trkpt lat="42.225064212534136" lon="13.916298376725488"><ele>212.0</ele><time>2026-04-23T17:17:53Z</time></trkpt><trkpt lat="42.22495461176645" lon="13.916070710821499"><ele>210.66666666666669</ele><time>2026-04-23T17:17:54Z</time></trkpt><trkpt lat="42.224839080182505" lon="13.915846106859728"><ele>209.33333333333331</ele><time>2026-04-23T17:17:55Z</time></trkpt><trkpt lat="42.224713901958154" lon="13.915622740597454"><ele>208.0</ele><time>2026-04-23T17:17:56Z</time></trkpt><trkpt lat="42.224584754644944" lon="13.915409107299757"><ele>210.33333333333331</ele><time>2026-04-23T17:17:57Z</time></trkpt><trkpt lat="42.22444441896966" lon="13.915201973217897"><ele>212.66666666666669</ele><time>2026-04-23T17:17:58Z</time></trkpt><trkpt lat="42.22431680853655" lon="13.915023655687435"><ele>215.0</ele><time>2026-04-23T17:17:59Z</time></trkpt><trkpt lat="42.22419282264597" lon="13.914852883104096"><ele>215.0</ele><time>2026-04-23T17:18:00Z</time></trkpt><trkpt lat="42.22405976761064" lon="13.914671962451198"><ele>215.0</ele><time>2026-04-23T17:18:01Z</time></trkpt><trkpt lat="42.22390789904781" lon="13.914495070283948"><ele>215.0</ele><time>2026-04-23T17:18:02Z</time></trkpt><trkpt lat="42.22372682345576" lon="13.914336459525142"><ele>215.0</ele><time>2026-04-23T17:18:03Z</time></trkpt><trkpt lat="42.22353226539344" lon="13.914183611064445"><ele>215.0</ele><time>2026-04-23T17:18:04Z</time></trkpt><trkpt lat="42.22336436877786" lon="13.914044530522043"><ele>215.0</ele><time>2026-04-23T17:18:05Z</time></trkpt><trkpt lat="42.223217173547205" lon="13.913914580538874"><ele>219.33333333333334</ele><time>2026-04-23T17:18:06Z</time></trkpt><trkpt lat="42.22308057703414" lon="13.91379089392231"><ele>223.66666666666669</ele><time>2026-04-23T17:18:07Z</time></trkpt><trkpt lat="42.22295533066557" lon="13.913656979344358"><ele>228.0</ele><time>2026-04-23T17:18:08Z</time></trkpt><trkpt lat="42.22283870870966" lon="13.913477802159804"><ele>225.0</ele><time>2026-04-23T17:18:09Z</time></trkpt><trkpt lat="42.222731409749336" lon="13.913258750642777"><ele>222.0</ele><time>2026-04-23T17:18:10Z</time></trkpt><trkpt lat="42.2226501047545" lon="13.912997949567304"><ele>219.0</ele><time>2026-04-23T17:18:11Z</time></trkpt><trkpt lat="42.22259259669377" lon="13.912746717983472"><ele>217.66666666666669</ele><time>2026-04-23T17:18:12Z</time></trkpt><trkpt lat="42.22253262958722" lon="13.912499750226353"><ele>216.33333333333334</ele><time>2026-04-23T17:18:13Z</time></trkpt><trkpt lat="42.22244200458741" lon="13.912259448394842"><ele>215.0</ele><time>2026-04-23T17:18:14Z</time></trkpt><trkpt lat="42.2223200852379" lon="13.91203014405214"><ele>215.66666666666669</ele><time>2026-04-23T17:18:15Z</time></trkpt><trkpt lat="42.222189164533724" lon="13.911800674693414"><ele>216.33333333333331</ele><time>2026-04-23T17:18:16Z</time></trkpt><trkpt lat="42.22204908356674" lon="13.91156088769569"><ele>217.0</ele><time>2026-04-23T17:18:17Z</time></trkpt><trkpt lat="42.221903191259536" lon="13.911332382114677"><ele>217.0</ele><time>2026-04-23T17:18:17.999Z</time></trkpt><trkpt lat="42.22174229219314" lon="13.91111193005375"><ele>217.0</ele><time>2026-04-23T17:18:18.999Z</time></trkpt><trkpt lat="42.221583094457316" lon="13.910898807261614"><ele>218.5</ele><time>2026-04-23T17:18:19.999Z</time></trkpt><trkpt lat="42.22141378078813" lon="13.910682307576774"><ele>220.0</ele><time>2026-04-23T17:18:20.999Z</time></trkpt><trkpt lat="42.221233624633484" lon="13.91044410529534"><ele>220.0</ele><time>2026-04-23T17:18:21.999Z</time></trkpt><trkpt lat="42.22102563728431" lon="13.910171010056303"><ele>220.0</ele><time>2026-04-23T17:18:22.999Z</time></trkpt><trkpt lat="42.220799316977654" lon="13.909868836350444"><ele>222.0</ele><time>2026-04-23T17:18:23.999Z</time></trkpt><trkpt lat="42.22055539417242" lon="13.909547746074544"><ele>224.0</ele><time>2026-04-23T17:18:24.999Z</time></trkpt><trkpt lat="42.22032947249085" lon="13.90924906540563"><ele>221.0</ele><time>2026-04-23T17:18:25.999Z</time></trkpt><trkpt lat="42.22013524026229" lon="13.908991159737663"><ele>218.0</ele><time>2026-04-23T17:18:26.999Z</time></trkpt><trkpt lat="42.21995618644183" lon="13.908755365504279"><ele>220.5</ele><time>2026-04-23T17:18:27.999Z</time></trkpt><trkpt lat="42.21978399198793" lon="13.908537857115117"><ele>223.0</ele><time>2026-04-23T17:18:28.999Z</time></trkpt><trkpt lat="42.21962679541617" lon="13.908331518412671"><ele>223.0</ele><time>2026-04-23T17:18:29.999Z</time></trkpt><trkpt lat="42.2194716200557" lon="13.908125710702558"><ele>223.0</ele><time>2026-04-23T17:18:30.999Z</time></trkpt><trkpt lat="42.21931652246446" lon="13.907916048543019"><ele>223.0</ele><time>2026-04-23T17:18:31.999Z</time></trkpt><trkpt lat="42.21918761788994" lon="13.907684027585312"><ele>223.66666666666666</ele><time>2026-04-23T17:18:32.999Z</time></trkpt><trkpt lat="42.21906810302992" lon="13.907425438894778"><ele>224.33333333333331</ele><time>2026-04-23T17:18:33.999Z</time></trkpt><trkpt lat="42.21896851849586" lon="13.907161302240528"><ele>225.0</ele><time>2026-04-23T17:18:34.999Z</time></trkpt><trkpt lat="42.21866356782494" lon="13.90703968861793"><ele>225.0</ele><time>2026-04-23T17:18:35.999Z</time></trkpt><trkpt lat="42.218493174433675" lon="13.906810579161766"><ele>225.0</ele><time>2026-04-23T17:18:36.999Z</time></trkpt><trkpt lat="42.21832007592984" lon="13.906578772131576"><ele>226.33333333333331</ele><time>2026-04-23T17:18:37.999Z</time></trkpt><trkpt lat="42.218160666916575" lon="13.906369543318588"><ele>227.66666666666666</ele><time>2026-04-23T17:18:38.999Z</time></trkpt><trkpt lat="42.21800393193691" lon="13.90616618894734"><ele>229.0</ele><time>2026-04-23T17:18:39.999Z</time></trkpt><trkpt lat="42.21784388893084" lon="13.905969144139577"><ele>222.0</ele><time>2026-04-23T17:18:40.999Z</time></trkpt><trkpt lat="42.217671307137536" lon="13.90579077361932"><ele>215.0</ele><time>2026-04-23T17:18:41.999Z</time></trkpt><trkpt lat="42.217469813645685" lon="13.90563328901098"><ele>217.5</ele><time>2026-04-23T17:18:42.999Z</time></trkpt><trkpt lat="42.21723153984372" lon="13.905484517690628"><ele>220.0</ele><time>2026-04-23T17:18:43.999Z</time></trkpt><trkpt lat="42.21696486801916" lon="13.90533004887863"><ele>220.0</ele><time>2026-04-23T17:18:44.999Z</time></trkpt><trkpt lat="42.21669798419593" lon="13.905168595904462"><ele>220.0</ele><time>2026-04-23T17:18:45.999Z</time></trkpt><trkpt lat="42.21646659624691" lon="13.905015829661057"><ele>219.5</ele><time>2026-04-23T17:18:46.999Z</time></trkpt><trkpt lat="42.21625141024941" lon="13.904876269416276"><ele>219.0</ele><time>2026-04-23T17:18:47.999Z</time></trkpt><trkpt lat="42.21603569669228" lon="13.904739620557413"><ele>219.0</ele><time>2026-04-23T17:18:48.999Z</time></trkpt><trkpt lat="42.21582136538967" lon="13.904601650060048"><ele>219.0</ele><time>2026-04-23T17:18:49.999Z</time></trkpt><trkpt lat="42.21561126128004" lon="13.904464232558505"><ele>218.0</ele><time>2026-04-23T17:18:50.999Z</time></trkpt><trkpt lat="42.21541492495594" lon="13.904336512467045"><ele>217.0</ele><time>2026-04-23T17:18:51.999Z</time></trkpt><trkpt lat="42.21522910781703" lon="13.904209564972355"><ele>216.0</ele><time>2026-04-23T17:18:52.999Z</time></trkpt><trkpt lat="42.215054125826526" lon="13.904081654031469"><ele>216.0</ele><time>2026-04-23T17:18:53.999Z</time></trkpt><trkpt lat="42.214890470587655" lon="13.903963753049492"><ele>216.0</ele><time>2026-04-23T17:18:54.999Z</time></trkpt><trkpt lat="42.21473470571412" lon="13.903838501192908"><ele>216.0</ele><time>2026-04-23T17:18:55.999Z</time></trkpt><trkpt lat="42.21459140000453" lon="13.903710857220789"><ele>216.33333333333331</ele><time>2026-04-23T17:18:56.999Z</time></trkpt><trkpt lat="42.21443833569121" lon="13.90357271640726"><ele>216.66666666666666</ele><time>2026-04-23T17:18:57.999Z</time></trkpt><trkpt lat="42.21427574308735" lon="13.90343471108654"><ele>217.0</ele><time>2026-04-23T17:18:58.999Z</time></trkpt><trkpt lat="42.21409450156234" lon="13.903286719989731"><ele>216.5</ele><time>2026-04-23T17:18:59.999Z</time></trkpt><trkpt lat="42.21389288290253" lon="13.903134277966016"><ele>216.0</ele><time>2026-04-23T17:19:00.999Z</time></trkpt><trkpt lat="42.21368403859657" lon="13.90296012536678"><ele>216.0</ele><time>2026-04-23T17:19:01.999Z</time></trkpt><trkpt lat="42.213487752865326" lon="13.902763041182544"><ele>216.0</ele><time>2026-04-23T17:19:02.999Z</time></trkpt><trkpt lat="42.21328597555155" lon="13.902575961880864"><ele>217.0</ele><time>2026-04-23T17:19:03.999Z</time></trkpt><trkpt lat="42.21308555849403" lon="13.902398012670519"><ele>218.0</ele><time>2026-04-23T17:19:04.999Z</time></trkpt><trkpt lat="42.21289747621018" lon="13.902221168890987"><ele>218.0</ele><time>2026-04-23T17:19:05.999Z</time></trkpt><trkpt lat="42.212726662764275" lon="13.902063608343969"><ele>218.0</ele><time>2026-04-23T17:19:06.999Z</time></trkpt><trkpt lat="42.21255573388872" lon="13.901922537222907"><ele>218.0</ele><time>2026-04-23T17:19:07.999Z</time></trkpt><trkpt lat="42.212381925389685" lon="13.901778891647396"><ele>220.0</ele><time>2026-04-23T17:19:08.999Z</time></trkpt><trkpt lat="42.212218787266586" lon="13.901645180038743"><ele>222.0</ele><time>2026-04-23T17:19:09.999Z</time></trkpt><trkpt lat="42.21207594229777" lon="13.901515325657805"><ele>224.0</ele><time>2026-04-23T17:19:10.999Z</time></trkpt><trkpt lat="42.211948919317564" lon="13.901373116989767"><ele>224.0</ele><time>2026-04-23T17:19:11.999Z</time></trkpt><trkpt lat="42.21182727854378" lon="13.901200192831848"><ele>224.0</ele><time>2026-04-23T17:19:12.999Z</time></trkpt><trkpt lat="42.211726213023205" lon="13.90098175296424"><ele>224.0</ele><time>2026-04-23T17:19:13.999Z</time></trkpt><trkpt lat="42.211641923023286" lon="13.90071446005145"><ele>225.0</ele><time>2026-04-23T17:19:14.999Z</time></trkpt><trkpt lat="42.21155745810561" lon="13.900411670641315"><ele>226.0</ele><time>2026-04-23T17:19:15.999Z</time></trkpt><trkpt lat="42.21146704656437" lon="13.900110292360297"><ele>224.5</ele><time>2026-04-23T17:19:16.999Z</time></trkpt><trkpt lat="42.211375007518114" lon="13.899813859810196"><ele>223.0</ele><time>2026-04-23T17:19:17.999Z</time></trkpt><trkpt lat="42.21127844555024" lon="13.899516991859885"><ele>222.5</ele><time>2026-04-23T17:19:18.999Z</time></trkpt><trkpt lat="42.21118296959026" lon="13.899221179714"><ele>222.0</ele><time>2026-04-23T17:19:19.999Z</time></trkpt><trkpt lat="42.2110849024215" lon="13.898904120000806"><ele>222.0</ele><time>2026-04-23T17:19:20.999Z</time></trkpt><trkpt lat="42.21097412646303" lon="13.898556099373732"><ele>222.0</ele><time>2026-04-23T17:19:21.999Z</time></trkpt><trkpt lat="42.21085996450446" lon="13.898196800212567"><ele>220.0</ele><time>2026-04-23T17:19:22.999Z</time></trkpt><trkpt lat="42.2107600548988" lon="13.897871510401943"><ele>218.0</ele><time>2026-04-23T17:19:23.999Z</time></trkpt><trkpt lat="42.21066934549886" lon="13.897576394688064"><ele>221.0</ele><time>2026-04-23T17:19:24.999Z</time></trkpt><trkpt lat="42.210588410161414" lon="13.897314697073089"><ele>224.0</ele><time>2026-04-23T17:19:25.999Z</time></trkpt><trkpt lat="42.21051692109794" lon="13.897088203175032"><ele>227.0</ele><time>2026-04-23T17:19:26.999Z</time></trkpt><trkpt lat="42.21043942052913" lon="13.896892353317172"><ele>224.66666666666669</ele><time>2026-04-23T17:19:27.999Z</time></trkpt><trkpt lat="42.21033590485466" lon="13.896719101061079"><ele>222.33333333333331</ele><time>2026-04-23T17:19:28.999Z</time></trkpt><trkpt lat="42.210200993598285" lon="13.896555580131016"><ele>220.0</ele><time>2026-04-23T17:19:29.999Z</time></trkpt><trkpt lat="42.21000620051029" lon="13.896412108301242"><ele>220.0</ele><time>2026-04-23T17:19:30.999Z</time></trkpt><trkpt lat="42.2098320409376" lon="13.896247600504957"><ele>220.0</ele><time>2026-04-23T17:19:31.999Z</time></trkpt><trkpt lat="42.20965358280916" lon="13.896072659400458"><ele>220.0</ele><time>2026-04-23T17:19:32.999Z</time></trkpt><trkpt lat="42.20946885349757" lon="13.895881084023232"><ele>219.5</ele><time>2026-04-23T17:19:33.999Z</time></trkpt><trkpt lat="42.2092616176971" lon="13.895670687053686"><ele>219.0</ele><time>2026-04-23T17:19:34.999Z</time></trkpt><trkpt lat="42.20904082952828" lon="13.895449142765615"><ele>219.0</ele><time>2026-04-23T17:19:35.999Z</time></trkpt><trkpt lat="42.208810361377544" lon="13.895217999072228"><ele>219.0</ele><time>2026-04-23T17:19:36.999Z</time></trkpt><trkpt lat="42.20857319497459" lon="13.89497784026397"><ele>219.0</ele><time>2026-04-23T17:19:37.999Z</time></trkpt><trkpt lat="42.20832582413668" lon="13.894725781178302"><ele>219.0</ele><time>2026-04-23T17:19:38.999Z</time></trkpt><trkpt lat="42.20805847866138" lon="13.894455661514653"><ele>220.0</ele><time>2026-04-23T17:19:39.999Z</time></trkpt><trkpt lat="42.20778276821643" lon="13.894180043749264"><ele>221.0</ele><time>2026-04-23T17:19:40.999Z</time></trkpt><trkpt lat="42.207546666325406" lon="13.893935774248378"><ele>221.0</ele><time>2026-04-23T17:19:41.999Z</time></trkpt><trkpt lat="42.2073328762562" lon="13.893719419944496"><ele>221.0</ele><time>2026-04-23T17:19:42.999Z</time></trkpt><trkpt lat="42.20713423642409" lon="13.893519349804118"><ele>223.66666666666669</ele><time>2026-04-23T17:19:43.999Z</time></trkpt><trkpt lat="42.20694942388731" lon="13.89333497336227"><ele>226.33333333333331</ele><time>2026-04-23T17:19:44.998Z</time></trkpt><trkpt lat="42.20677669946572" lon="13.893164715081422"><ele>229.0</ele><time>2026-04-23T17:19:45.998Z</time></trkpt><trkpt lat="42.20662024303861" lon="13.89299871867712"><ele>228.0</ele><time>2026-04-23T17:19:46.998Z</time></trkpt><trkpt lat="42.206453358728616" lon="13.892828796258662"><ele>227.0</ele><time>2026-04-23T17:19:47.998Z</time></trkpt><trkpt lat="42.2062753383169" lon="13.892639706080704"><ele>226.0</ele><time>2026-04-23T17:19:48.998Z</time></trkpt><trkpt lat="42.20609353593941" lon="13.89243789345331"><ele>226.0</ele><time>2026-04-23T17:19:49.998Z</time></trkpt><trkpt lat="42.20592600161631" lon="13.892255137273146"><ele>226.0</ele><time>2026-04-23T17:19:50.998Z</time></trkpt><trkpt lat="42.205781578773454" lon="13.892048432509258"><ele>226.0</ele><time>2026-04-23T17:19:52Z</time></trkpt><trkpt lat="42.20564983418679" lon="13.891832667661275"><ele>226.0</ele><time>2026-04-23T17:19:53Z</time></trkpt><trkpt lat="42.20551212274389" lon="13.891647263394852"><ele>226.0</ele><time>2026-04-23T17:19:54Z</time></trkpt><trkpt lat="42.20538163803601" lon="13.891480944894868"><ele>226.0</ele><time>2026-04-23T17:19:55Z</time></trkpt><trkpt lat="42.205259830091435" lon="13.89132767488072"><ele>226.0</ele><time>2026-04-23T17:19:56Z</time></trkpt><trkpt lat="42.20513764279438" lon="13.891178434949357"><ele>226.0</ele><time>2026-04-23T17:19:57Z</time></trkpt><trkpt lat="42.205010588724825" lon="13.891018747579384"><ele>226.0</ele><time>2026-04-23T17:19:58Z</time></trkpt><trkpt lat="42.20489100917926" lon="13.890862020291975"><ele>226.66666666666666</ele><time>2026-04-23T17:19:59Z</time></trkpt><trkpt lat="42.20479086146028" lon="13.890697816684087"><ele>227.33333333333331</ele><time>2026-04-23T17:20:00Z</time></trkpt><trkpt lat="42.204705398257154" lon="13.890513153223482"><ele>228.0</ele><time>2026-04-23T17:20:01Z</time></trkpt><trkpt lat="42.2046384060232" lon="13.890307697593656"><ele>228.0</ele><time>2026-04-23T17:20:02Z</time></trkpt><trkpt lat="42.204581294756366" lon="13.8900923686005"><ele>228.0</ele><time>2026-04-23T17:20:03Z</time></trkpt><trkpt lat="42.20452820702178" lon="13.889887056388256"><ele>228.0</ele><time>2026-04-23T17:20:04Z</time></trkpt><trkpt lat="42.204474778167096" lon="13.889699975779335"><ele>225.33333333333331</ele><time>2026-04-23T17:20:05Z</time></trkpt><trkpt lat="42.204412771627666" lon="13.889511987492837"><ele>222.66666666666666</ele><time>2026-04-23T17:20:06Z</time></trkpt><trkpt lat="42.2043486025715" lon="13.889320745024001"><ele>220.0</ele><time>2026-04-23T17:20:07Z</time></trkpt><trkpt lat="42.20428158311533" lon="13.88913667633767"><ele>219.75</ele><time>2026-04-23T17:20:08Z</time></trkpt><trkpt lat="42.204206646814384" lon="13.888963970804147"><ele>219.5</ele><time>2026-04-23T17:20:09Z</time></trkpt><trkpt lat="42.2041244527662" lon="13.888807796963475"><ele>219.25</ele><time>2026-04-23T17:20:10Z</time></trkpt><trkpt lat="42.204030061384174" lon="13.888651830695174"><ele>219.0</ele><time>2026-04-23T17:20:11Z</time></trkpt><trkpt lat="42.20391144502407" lon="13.888513191319493"><ele>223.0</ele><time>2026-04-23T17:20:12Z</time></trkpt><trkpt lat="42.203810659817975" lon="13.888346654896468"><ele>227.0</ele><time>2026-04-23T17:20:13Z</time></trkpt><trkpt lat="42.20367030272114" lon="13.888197162453448"><ele>231.0</ele><time>2026-04-23T17:20:14Z</time></trkpt><trkpt lat="42.20349849091525" lon="13.88803620354491"><ele>231.0</ele><time>2026-04-23T17:20:15Z</time></trkpt><trkpt lat="42.203310081419446" lon="13.887862430673804"><ele>231.0</ele><time>2026-04-23T17:20:16Z</time></trkpt><trkpt lat="42.20310842009939" lon="13.887642899395383"><ele>226.0</ele><time>2026-04-23T17:20:17Z</time></trkpt><trkpt lat="42.202910019208545" lon="13.887402019374331"><ele>221.0</ele><time>2026-04-23T17:20:18Z</time></trkpt><trkpt lat="42.202696802858135" lon="13.887174240026573"><ele>221.0</ele><time>2026-04-23T17:20:19Z</time></trkpt><trkpt lat="42.20247624295853" lon="13.886952450885284"><ele>221.0</ele><time>2026-04-23T17:20:19.999Z</time></trkpt><trkpt lat="42.20227256278614" lon="13.886746415710025"><ele>225.0</ele><time>2026-04-23T17:20:20.999Z</time></trkpt><trkpt lat="42.20208520759315" lon="13.886550454231799"><ele>229.0</ele><time>2026-04-23T17:20:21.999Z</time></trkpt><trkpt lat="42.20189521898191" lon="13.886361390606611"><ele>229.0</ele><time>2026-04-23T17:20:22.999Z</time></trkpt><trkpt lat="42.201712944860304" lon="13.88617402273551"><ele>229.0</ele><time>2026-04-23T17:20:23.999Z</time></trkpt><trkpt lat="42.201528563574584" lon="13.885984272148288"><ele>231.0</ele><time>2026-04-23T17:20:24.999Z</time></trkpt><trkpt lat="42.20135889131144" lon="13.88581127017303"><ele>233.0</ele><time>2026-04-23T17:20:25.999Z</time></trkpt><trkpt lat="42.20120160924321" lon="13.885651765052389"><ele>235.0</ele><time>2026-04-23T17:20:26.999Z</time></trkpt><trkpt lat="42.20105844510772" lon="13.885497318252924"><ele>235.0</ele><time>2026-04-23T17:20:27.999Z</time></trkpt><trkpt lat="42.200935555436544" lon="13.885329882646039"><ele>235.0</ele><time>2026-04-23T17:20:28.999Z</time></trkpt><trkpt lat="42.20082813981566" lon="13.885142185834999"><ele>235.0</ele><time>2026-04-23T17:20:29.999Z</time></trkpt><trkpt lat="42.20073182849944" lon="13.884922102980434"><ele>236.33333333333331</ele><time>2026-04-23T17:20:30.999Z</time></trkpt><trkpt lat="42.200661638049176" lon="13.884673890066624"><ele>237.66666666666669</ele><time>2026-04-23T17:20:31.999Z</time></trkpt><trkpt lat="42.2006078992871" lon="13.884404792702945"><ele>239.0</ele><time>2026-04-23T17:20:32.999Z</time></trkpt><trkpt lat="42.20054837935295" lon="13.88416658413922"><ele>239.0</ele><time>2026-04-23T17:20:33.999Z</time></trkpt><trkpt lat="42.20049387304288" lon="13.883961311393756"><ele>239.0</ele><time>2026-04-23T17:20:34.999Z</time></trkpt><trkpt lat="42.20038206130929" lon="13.883784262363688"><ele>239.0</ele><time>2026-04-23T17:20:35.999Z</time></trkpt><trkpt lat="42.200243974330576" lon="13.883615167517025"><ele>239.0</ele><time>2026-04-23T17:20:36.999Z</time></trkpt><trkpt lat="42.20009593853301" lon="13.883446669596369"><ele>239.0</ele><time>2026-04-23T17:20:37.999Z</time></trkpt><trkpt lat="42.199963606998004" lon="13.883287009766606"><ele>239.0</ele><time>2026-04-23T17:20:38.999Z</time></trkpt><trkpt lat="42.199851381258505" lon="13.883138177610421"><ele>243.66666666666669</ele><time>2026-04-23T17:20:39.999Z</time></trkpt><trkpt lat="42.19975220402105" lon="13.882992940997173"><ele>248.33333333333331</ele><time>2026-04-23T17:20:40.999Z</time></trkpt><trkpt lat="42.19966790056172" lon="13.882829170852487"><ele>253.0</ele><time>2026-04-23T17:20:41.999Z</time></trkpt><trkpt lat="42.19959056042074" lon="13.882610117079311"><ele>246.33333333333331</ele><time>2026-04-23T17:20:42.999Z</time></trkpt><trkpt lat="42.19951916704142" lon="13.882354755252825"><ele>239.66666666666669</ele><time>2026-04-23T17:20:43.999Z</time></trkpt><trkpt lat="42.1994406310959" lon="13.882088081170963"><ele>233.0</ele><time>2026-04-23T17:20:44.999Z</time></trkpt><trkpt lat="42.19935224983129" lon="13.88186930943735"><ele>231.5</ele><time>2026-04-23T17:20:45.999Z</time></trkpt><trkpt lat="42.199280117763415" lon="13.88168590494321"><ele>230.0</ele><time>2026-04-23T17:20:46.999Z</time></trkpt><trkpt lat="42.19923623333938" lon="13.881517447480192"><ele>228.5</ele><time>2026-04-23T17:20:47.999Z</time></trkpt><trkpt lat="42.19922700409917" lon="13.881333466115617"><ele>227.0</ele><time>2026-04-23T17:20:48.999Z</time></trkpt><trkpt lat="42.199255607384394" lon="13.881118892823507"><ele>230.0</ele><time>2026-04-23T17:20:49.999Z</time></trkpt><trkpt lat="42.199289175822344" lon="13.880864565921522"><ele>233.0</ele><time>2026-04-23T17:20:50.999Z</time></trkpt><trkpt lat="42.1993199485741" lon="13.88059586141766"><ele>236.0</ele><time>2026-04-23T17:20:51.999Z</time></trkpt><trkpt lat="42.19934188122125" lon="13.880346348761186"><ele>236.0</ele><time>2026-04-23T17:20:52.999Z</time></trkpt><trkpt lat="42.199351959796395" lon="13.880128179995767"><ele>236.0</ele><time>2026-04-23T17:20:53.999Z</time></trkpt><trkpt lat="42.199333447317336" lon="13.879919813011954"><ele>236.0</ele><time>2026-04-23T17:20:54.999Z</time></trkpt><trkpt lat="42.19927901699382" lon="13.879711226484169"><ele>237.0</ele><time>2026-04-23T17:20:55.999Z</time></trkpt><trkpt lat="42.19918801771249" lon="13.879516291439803"><ele>238.0</ele><time>2026-04-23T17:20:56.999Z</time></trkpt><trkpt lat="42.199066626124534" lon="13.879334873234539"><ele>239.0</ele><time>2026-04-23T17:20:57.999Z</time></trkpt><trkpt lat="42.19892093901957" lon="13.879181166789376"><ele>239.0</ele><time>2026-04-23T17:20:58.999Z</time></trkpt><trkpt lat="42.19875756560543" lon="13.879041346868616"><ele>239.0</ele><time>2026-04-23T17:20:59.999Z</time></trkpt><trkpt lat="42.198601645408736" lon="13.878894145992161"><ele>239.0</ele><time>2026-04-23T17:21:00.999Z</time></trkpt><trkpt lat="42.19845790841573" lon="13.878729958519802"><ele>239.0</ele><time>2026-04-23T17:21:01.999Z</time></trkpt><trkpt lat="42.19832925901819" lon="13.878542123229852"><ele>239.0</ele><time>2026-04-23T17:21:02.999Z</time></trkpt><trkpt lat="42.198215585146436" lon="13.878321611329113"><ele>239.0</ele><time>2026-04-23T17:21:03.999Z</time></trkpt><trkpt lat="42.198119095035686" lon="13.878084215523183"><ele>247.0</ele><time>2026-04-23T17:21:04.999Z</time></trkpt><trkpt lat="42.198047096499714" lon="13.877856680823612"><ele>255.0</ele><time>2026-04-23T17:21:05.999Z</time></trkpt><trkpt lat="42.1979965354063" lon="13.877659698752948"><ele>263.0</ele><time>2026-04-23T17:21:06.999Z</time></trkpt><trkpt lat="42.197966747979756" lon="13.87747787921913"><ele>263.0</ele><time>2026-04-23T17:21:07.999Z</time></trkpt><trkpt lat="42.197956264896035" lon="13.877295594860728"><ele>263.0</ele><time>2026-04-23T17:21:08.999Z</time></trkpt><trkpt lat="42.197964278122306" lon="13.877093408472001"><ele>263.0</ele><time>2026-04-23T17:21:09.999Z</time></trkpt><trkpt lat="42.19799874914238" lon="13.876869259625963"><ele>263.6666666666667</ele><time>2026-04-23T17:21:10.999Z</time></trkpt><trkpt lat="42.198056736014" lon="13.876626346945962"><ele>264.3333333333333</ele><time>2026-04-23T17:21:11.999Z</time></trkpt><trkpt lat="42.19813538970901" lon="13.876366912198531"><ele>265.0</ele><time>2026-04-23T17:21:12.999Z</time></trkpt><trkpt lat="42.19820496860593" lon="13.876095200639696"><ele>251.33333333333331</ele><time>2026-04-23T17:21:13.999Z</time></trkpt><trkpt lat="42.198260585713605" lon="13.875843707300614"><ele>237.66666666666669</ele><time>2026-04-23T17:21:14.999Z</time></trkpt><trkpt lat="42.198306316687976" lon="13.87562196308067"><ele>224.0</ele><time>2026-04-23T17:21:15.999Z</time></trkpt><trkpt lat="42.19833177667475" lon="13.87541183735644"><ele>224.0</ele><time>2026-04-23T17:21:16.999Z</time></trkpt><trkpt lat="42.19833316391897" lon="13.875180641390466"><ele>224.0</ele><time>2026-04-23T17:21:17.999Z</time></trkpt><trkpt lat="42.19830392108501" lon="13.874922921496335"><ele>224.0</ele><time>2026-04-23T17:21:18.999Z</time></trkpt><trkpt lat="42.198253441131364" lon="13.87463444263928"><ele>228.0</ele><time>2026-04-23T17:21:19.999Z</time></trkpt><trkpt lat="42.19819012172949" lon="13.87431490991742"><ele>232.0</ele><time>2026-04-23T17:21:20.999Z</time></trkpt><trkpt lat="42.19812135798065" lon="13.873963584018412"><ele>239.0</ele><time>2026-04-23T17:21:21.999Z</time></trkpt><trkpt lat="42.19806093052423" lon="13.873582600884806"><ele>246.0</ele><time>2026-04-23T17:21:22.999Z</time></trkpt><trkpt lat="42.19799756117073" lon="13.873164192704124"><ele>246.0</ele><time>2026-04-23T17:21:23.999Z</time></trkpt><trkpt lat="42.19792321347215" lon="13.872713996210948"><ele>246.0</ele><time>2026-04-23T17:21:24.999Z</time></trkpt><trkpt lat="42.19785517371276" lon="13.872249114178848"><ele>248.0</ele><time>2026-04-23T17:21:25.999Z</time></trkpt><trkpt lat="42.19779012276021" lon="13.871780101122097"><ele>250.0</ele><time>2026-04-23T17:21:26.999Z</time></trkpt><trkpt lat="42.19774212784172" lon="13.87135553325863"><ele>245.0</ele><time>2026-04-23T17:21:27.999Z</time></trkpt><trkpt lat="42.197695847588804" lon="13.870969389347522"><ele>240.0</ele><time>2026-04-23T17:21:28.999Z</time></trkpt><trkpt lat="42.19765651895271" lon="13.870607321109494"><ele>238.5</ele><time>2026-04-23T17:21:29.999Z</time></trkpt><trkpt lat="42.19762526598902" lon="13.870289822645598"><ele>237.0</ele><time>2026-04-23T17:21:30.999Z</time></trkpt><trkpt lat="42.19758000265287" lon="13.86996050202877"><ele>237.0</ele><time>2026-04-23T17:21:31.999Z</time></trkpt><trkpt lat="42.19755222035363" lon="13.869666390882436"><ele>237.0</ele><time>2026-04-23T17:21:32.999Z</time></trkpt><trkpt lat="42.1975179966024" lon="13.869364826583206"><ele>237.0</ele><time>2026-04-23T17:21:33.999Z</time></trkpt><trkpt lat="42.19748702964656" lon="13.869075422768068"><ele>237.0</ele><time>2026-04-23T17:21:34.999Z</time></trkpt><trkpt lat="42.197456072664565" lon="13.86879375033777"><ele>237.0</ele><time>2026-04-23T17:21:35.999Z</time></trkpt><trkpt lat="42.19742141998784" lon="13.868512882288343"><ele>237.0</ele><time>2026-04-23T17:21:36.999Z</time></trkpt><trkpt lat="42.197379502245866" lon="13.868222351892292"><ele>251.5</ele><time>2026-04-23T17:21:37.999Z</time></trkpt><trkpt lat="42.19732322974678" lon="13.86792776229491"><ele>266.0</ele><time>2026-04-23T17:21:38.999Z</time></trkpt><trkpt lat="42.197244099531865" lon="13.8676211460397"><ele>264.5</ele><time>2026-04-23T17:21:39.999Z</time></trkpt><trkpt lat="42.19716855493499" lon="13.867305898999257"><ele>263.0</ele><time>2026-04-23T17:21:40.999Z</time></trkpt><trkpt lat="42.197094178860745" lon="13.86697962191572"><ele>259.0</ele><time>2026-04-23T17:21:41.999Z</time></trkpt><trkpt lat="42.197024067635496" lon="13.866675889485375"><ele>255.0</ele><time>2026-04-23T17:21:42.999Z</time></trkpt><trkpt lat="42.196961049363644" lon="13.866387257685556"><ele>255.0</ele><time>2026-04-23T17:21:43.999Z</time></trkpt><trkpt lat="42.196902918436464" lon="13.866117641062324"><ele>255.0</ele><time>2026-04-23T17:21:44.999Z</time></trkpt><trkpt lat="42.19684012011773" lon="13.86585347023183"><ele>255.0</ele><time>2026-04-23T17:21:45.999Z</time></trkpt><trkpt lat="42.19676820835712" lon="13.865583118432633"><ele>251.66666666666669</ele><time>2026-04-23T17:21:46.999Z</time></trkpt><trkpt lat="42.19668031523027" lon="13.865309313824115"><ele>248.33333333333334</ele><time>2026-04-23T17:21:47.999Z</time></trkpt><trkpt lat="42.19658419261427" lon="13.865043068917096"><ele>245.0</ele><time>2026-04-23T17:21:48.998Z</time></trkpt><trkpt lat="42.19650190588276" lon="13.864799916666875"><ele>250.66666666666669</ele><time>2026-04-23T17:21:49.998Z</time></trkpt><trkpt lat="42.19642986239104" lon="13.864582318843533"><ele>256.3333333333333</ele><time>2026-04-23T17:21:50.998Z</time></trkpt><trkpt lat="42.196362337943754" lon="13.864373845396676"><ele>262.0</ele><time>2026-04-23T17:21:51.998Z</time></trkpt><trkpt lat="42.19629435776568" lon="13.864181039719083"><ele>262.0</ele><time>2026-04-23T17:21:52.998Z</time></trkpt><trkpt lat="42.19623258530433" lon="13.864000722339824"><ele>262.0</ele><time>2026-04-23T17:21:53.998Z</time></trkpt><trkpt lat="42.19618303038983" lon="13.863837470197428"><ele>262.0</ele><time>2026-04-23T17:21:54.998Z</time></trkpt><trkpt lat="42.19609612429574" lon="13.863683228229636"><ele>262.0</ele><time>2026-04-23T17:21:55.998Z</time></trkpt><trkpt lat="42.196037387849" lon="13.863541775843714"><ele>258.0</ele><time>2026-04-23T17:21:56.998Z</time></trkpt><trkpt lat="42.195986388691054" lon="13.863409014121395"><ele>254.0</ele><time>2026-04-23T17:21:58Z</time></trkpt><trkpt lat="42.195945433802464" lon="13.863280770527618"><ele>250.0</ele><time>2026-04-23T17:21:59Z</time></trkpt><trkpt lat="42.19589915196864" lon="13.863132940838504"><ele>246.0</ele><time>2026-04-23T17:22:00Z</time></trkpt><trkpt lat="42.19584649225616" lon="13.862978912028575"><ele>246.0</ele><time>2026-04-23T17:22:01Z</time></trkpt><trkpt lat="42.1957995697304" lon="13.862833240214814"><ele>246.00000000000003</ele><time>2026-04-23T17:22:02Z</time></trkpt><trkpt lat="42.195753155659254" lon="13.86268702289996"><ele>246.00000000000003</ele><time>2026-04-23T17:22:03Z</time></trkpt><trkpt lat="42.19571022462886" lon="13.862549018950524"><ele>246.0</ele><time>2026-04-23T17:22:04Z</time></trkpt><trkpt lat="42.19567991701065" lon="13.862433625454168"><ele>246.0</ele><time>2026-04-23T17:22:05Z</time></trkpt><trkpt lat="42.1956595440588" lon="13.862327791620165"><ele>245.16666666666666</ele><time>2026-04-23T17:22:06Z</time></trkpt><trkpt lat="42.19566478163966" lon="13.862242436697123"><ele>244.33333333333331</ele><time>2026-04-23T17:22:07Z</time></trkpt><trkpt lat="42.19574931785265" lon="13.86211803462431"><ele>243.5</ele><time>2026-04-23T17:22:09Z</time></trkpt><trkpt lat="42.19581884219087" lon="13.86211266163514"><ele>242.66666666666666</ele><time>2026-04-23T17:22:10Z</time></trkpt><trkpt lat="42.19589307955166" lon="13.86215245563987"><ele>241.83333333333331</ele><time>2026-04-23T17:22:11Z</time></trkpt><trkpt lat="42.19594528503036" lon="13.862230101607302"><ele>241.0</ele><time>2026-04-23T17:22:12Z</time></trkpt><trkpt lat="42.1959827477392" lon="13.862343158532251"><ele>241.0</ele><time>2026-04-23T17:22:13Z</time></trkpt><trkpt lat="42.19600723902706" lon="13.86248910589904"><ele>241.0</ele><time>2026-04-23T17:22:14Z</time></trkpt><trkpt lat="42.196031140705834" lon="13.862645166847178"><ele>241.0</ele><time>2026-04-23T17:22:15Z</time></trkpt><trkpt lat="42.196050982399875" lon="13.862811373673493"><ele>241.0</ele><time>2026-04-23T17:22:16Z</time></trkpt><trkpt lat="42.19607356383705" lon="13.863045753489143"><ele>242.25</ele><time>2026-04-23T17:22:17Z</time></trkpt><trkpt lat="42.19609948879959" lon="13.86327048587925"><ele>243.5</ele><time>2026-04-23T17:22:18Z</time></trkpt><trkpt lat="42.19612647417835" lon="13.86342946288149"><ele>244.75</ele><time>2026-04-23T17:22:19Z</time></trkpt><trkpt lat="42.19616626269213" lon="13.863555437213337"><ele>246.0</ele><time>2026-04-23T17:22:20Z</time></trkpt><trkpt lat="42.196225686077796" lon="13.863666551359504"><ele>244.0</ele><time>2026-04-23T17:22:21Z</time></trkpt><trkpt lat="42.196316411569725" lon="13.863761723975582"><ele>242.0</ele><time>2026-04-23T17:22:22Z</time></trkpt><trkpt lat="42.19642493951232" lon="13.863828704490325"><ele>240.0</ele><time>2026-04-23T17:22:22.999Z</time></trkpt><trkpt lat="42.19654654850288" lon="13.86385656736888"><ele>238.0</ele><time>2026-04-23T17:22:23.999Z</time></trkpt><trkpt lat="42.19667595542684" lon="13.86384794493468"><ele>238.0</ele><time>2026-04-23T17:22:24.999Z</time></trkpt><trkpt lat="42.19680975356696" lon="13.863791068899074"><ele>238.0</ele><time>2026-04-23T17:22:25.999Z</time></trkpt><trkpt lat="42.19695143255834" lon="13.863691625708483"><ele>238.0</ele><time>2026-04-23T17:22:26.999Z</time></trkpt><trkpt lat="42.19708020212904" lon="13.863603129272816"><ele>238.0</ele><time>2026-04-23T17:22:27.999Z</time></trkpt><trkpt lat="42.197176408074434" lon="13.863526907015029"><ele>238.2</ele><time>2026-04-23T17:22:28.999Z</time></trkpt><trkpt lat="42.19725083982178" lon="13.863435867182494"><ele>238.4</ele><time>2026-04-23T17:22:29.999Z</time></trkpt><trkpt lat="42.19731040006003" lon="13.863325628042759"><ele>238.59999999999997</ele><time>2026-04-23T17:22:30.999Z</time></trkpt><trkpt lat="42.197347463790024" lon="13.863189077192974"><ele>238.79999999999998</ele><time>2026-04-23T17:22:31.999Z</time></trkpt><trkpt lat="42.19736847771825" lon="13.863041581671242"><ele>239.0</ele><time>2026-04-23T17:22:32.999Z</time></trkpt><trkpt lat="42.197351141935556" lon="13.862908289024235"><ele>239.0</ele><time>2026-04-23T17:22:33.999Z</time></trkpt><trkpt lat="42.1973389797799" lon="13.862761951954356"><ele>238.99999999999997</ele><time>2026-04-23T17:22:34.999Z</time></trkpt><trkpt lat="42.19728276599032" lon="13.862621512207443"><ele>238.99999999999997</ele><time>2026-04-23T17:22:35.999Z</time></trkpt><trkpt lat="42.197233796150066" lon="13.862504808686591"><ele>239.0</ele><time>2026-04-23T17:22:36.999Z</time></trkpt><trkpt lat="42.19722185417851" lon="13.862386484383169"><ele>239.0</ele><time>2026-04-23T17:22:37.999Z</time></trkpt><trkpt lat="42.197224257209626" lon="13.862254557912937"><ele>238.83333333333334</ele><time>2026-04-23T17:22:38.999Z</time></trkpt><trkpt lat="42.1972214767179" lon="13.862141504154259"><ele>238.66666666666669</ele><time>2026-04-23T17:22:39.999Z</time></trkpt><trkpt lat="42.1971979661885" lon="13.862048536148375"><ele>238.5</ele><time>2026-04-23T17:22:40.999Z</time></trkpt><trkpt lat="42.197147575799704" lon="13.861953615599955"><ele>238.33333333333331</ele><time>2026-04-23T17:22:41.999Z</time></trkpt><trkpt lat="42.19709383854472" lon="13.861859268010537"><ele>238.16666666666666</ele><time>2026-04-23T17:22:42.999Z</time></trkpt><trkpt lat="42.1970551477895" lon="13.861772491651722"><ele>238.0</ele><time>2026-04-23T17:22:43.999Z</time></trkpt><trkpt lat="42.196982753069854" lon="13.861664213845494"><ele>238.60000000000002</ele><time>2026-04-23T17:22:45.999Z</time></trkpt><trkpt lat="42.19691992253039" lon="13.861633677366015"><ele>239.20000000000002</ele><time>2026-04-23T17:22:46.999Z</time></trkpt><trkpt lat="42.19683985799866" lon="13.861580349078318"><ele>239.8</ele><time>2026-04-23T17:22:47.999Z</time></trkpt><trkpt lat="42.196746246104546" lon="13.861510648063879"><ele>240.4</ele><time>2026-04-23T17:22:48.999Z</time></trkpt><trkpt lat="42.19667524046016" lon="13.861411751004757"><ele>241.0</ele><time>2026-04-23T17:22:49.999Z</time></trkpt><trkpt lat="42.19660988604463" lon="13.86127822961366"><ele>241.0</ele><time>2026-04-23T17:22:50.999Z</time></trkpt><trkpt lat="42.1965530874655" lon="13.86113146418794"><ele>241.0</ele><time>2026-04-23T17:22:51.999Z</time></trkpt><trkpt lat="42.19650638767954" lon="13.860980555524499"><ele>241.0</ele><time>2026-04-23T17:22:52.999Z</time></trkpt><trkpt lat="42.19647910532069" lon="13.860827418195157"><ele>241.0</ele><time>2026-04-23T17:22:53.999Z</time></trkpt><trkpt lat="42.196478758027126" lon="13.860668430674906"><ele>241.0</ele><time>2026-04-23T17:22:54.999Z</time></trkpt><trkpt lat="42.196510246205165" lon="13.86051505180803"><ele>241.0</ele><time>2026-04-23T17:22:55.999Z</time></trkpt><trkpt lat="42.19657667458723" lon="13.860358019922439"><ele>241.0</ele><time>2026-04-23T17:22:56.999Z</time></trkpt><trkpt lat="42.19667430490033" lon="13.860220049181516"><ele>241.0</ele><time>2026-04-23T17:22:57.999Z</time></trkpt><trkpt lat="42.19680662270184" lon="13.860124240998111"><ele>240.66666666666666</ele><time>2026-04-23T17:22:58.999Z</time></trkpt><trkpt lat="42.19695604095827" lon="13.860075398717159"><ele>240.33333333333331</ele><time>2026-04-23T17:22:59.999Z</time></trkpt><trkpt lat="42.1971248877945" lon="13.860066805836041"><ele>240.0</ele><time>2026-04-23T17:23:00.999Z</time></trkpt><trkpt lat="42.197312413756826" lon="13.86008945893208"><ele>240.33333333333331</ele><time>2026-04-23T17:23:01.999Z</time></trkpt><trkpt lat="42.197490387278506" lon="13.860124730123033"><ele>240.66666666666666</ele><time>2026-04-23T17:23:02.999Z</time></trkpt><trkpt lat="42.19764234265467" lon="13.860151237916131"><ele>241.0</ele><time>2026-04-23T17:23:03.999Z</time></trkpt><trkpt lat="42.19779832369558" lon="13.860175851474805"><ele>241.0</ele><time>2026-04-23T17:23:04.999Z</time></trkpt><trkpt lat="42.197911880813145" lon="13.860224097963608"><ele>241.00000000000003</ele><time>2026-04-23T17:23:05.999Z</time></trkpt><trkpt lat="42.197993970753096" lon="13.86030211137738"><ele>241.00000000000003</ele><time>2026-04-23T17:23:06.999Z</time></trkpt><trkpt lat="42.19806202698558" lon="13.86040264275774"><ele>241.0</ele><time>2026-04-23T17:23:07.999Z</time></trkpt><trkpt lat="42.19810014361029" lon="13.86052114063566"><ele>241.0</ele><time>2026-04-23T17:23:08.999Z</time></trkpt><trkpt lat="42.19811476809231" lon="13.860619904441487"><ele>241.0</ele><time>2026-04-23T17:23:09.999Z</time></trkpt><trkpt lat="42.19807220649439" lon="13.86075423936776"><ele>241.0</ele><time>2026-04-23T17:23:11.999Z</time></trkpt><trkpt lat="42.198048765955846" lon="13.860871726641488"><ele>241.0</ele><time>2026-04-23T17:23:12.999Z</time></trkpt><trkpt lat="42.198440018833665" lon="13.860977406957259"><ele>253.5</ele><time>2026-04-23T17:23:14.999Z</time></trkpt><trkpt lat="42.1983341871009" lon="13.860578364184125"><ele>266.0</ele><time>2026-04-23T17:23:15.999Z</time></trkpt><trkpt lat="42.19817523519444" lon="13.860518687053501"><ele>257.6666666666667</ele><time>2026-04-23T17:23:16.999Z</time></trkpt><trkpt lat="42.198002715251825" lon="13.860420489973192"><ele>249.33333333333331</ele><time>2026-04-23T17:23:17.999Z</time></trkpt><trkpt lat="42.1978562340206" lon="13.860266396270163"><ele>241.0</ele><time>2026-04-23T17:23:18.999Z</time></trkpt><trkpt lat="42.19763875658283" lon="13.860141184409617"><ele>241.0</ele><time>2026-04-23T17:23:19.999Z</time></trkpt><trkpt lat="42.197576270230726" lon="13.85993411868087"><ele>241.0</ele><time>2026-04-23T17:23:20.999Z</time></trkpt><trkpt lat="42.197431682879596" lon="13.859680800899888"><ele>241.0</ele><time>2026-04-23T17:23:21.999Z</time></trkpt><trkpt lat="42.197432954248335" lon="13.859395150897061"><ele>242.5</ele><time>2026-04-23T17:23:22.999Z</time></trkpt><trkpt lat="42.197439106058766" lon="13.859049490082946"><ele>244.0</ele><time>2026-04-23T17:23:23.999Z</time></trkpt><trkpt lat="42.19744836962067" lon="13.85870724876547"><ele>243.5</ele><time>2026-04-23T17:23:24.999Z</time></trkpt><trkpt lat="42.19746127111282" lon="13.858347434029472"><ele>243.0</ele><time>2026-04-23T17:23:25.999Z</time></trkpt><trkpt lat="42.19746716438976" lon="13.857929040087585"><ele>245.0</ele><time>2026-04-23T17:23:26.999Z</time></trkpt><trkpt lat="42.197482318633384" lon="13.857484316214215"><ele>247.0</ele><time>2026-04-23T17:23:27.999Z</time></trkpt><trkpt lat="42.197497696387366" lon="13.857019944100406"><ele>249.5</ele><time>2026-04-23T17:23:28.999Z</time></trkpt><trkpt lat="42.19750822658091" lon="13.856578281611183"><ele>252.0</ele><time>2026-04-23T17:23:29.999Z</time></trkpt><trkpt lat="42.19751546318785" lon="13.856153246083778"><ele>251.0</ele><time>2026-04-23T17:23:30.999Z</time></trkpt><trkpt lat="42.19750846910373" lon="13.855748253880293"><ele>250.0</ele><time>2026-04-23T17:23:31.999Z</time></trkpt><trkpt lat="42.19748567201533" lon="13.855355417403878"><ele>249.0</ele><time>2026-04-23T17:23:32.999Z</time></trkpt><trkpt lat="42.19744452626171" lon="13.854934205950972"><ele>248.0</ele><time>2026-04-23T17:23:33.999Z</time></trkpt><trkpt lat="42.1973861369776" lon="13.854529337862115"><ele>244.5</ele><time>2026-04-23T17:23:34.999Z</time></trkpt><trkpt lat="42.197308886367445" lon="13.854166937098677"><ele>241.0</ele><time>2026-04-23T17:23:35.999Z</time></trkpt><trkpt lat="42.19721779958792" lon="13.853798740719991"><ele>241.5</ele><time>2026-04-23T17:23:36.999Z</time></trkpt><trkpt lat="42.19710663298996" lon="13.853429051406506"><ele>242.0</ele><time>2026-04-23T17:23:37.999Z</time></trkpt><trkpt lat="42.19699434589451" lon="13.853052423757813"><ele>242.0</ele><time>2026-04-23T17:23:38.999Z</time></trkpt><trkpt lat="42.196850695865194" lon="13.85270450393139"><ele>242.0</ele><time>2026-04-23T17:23:39.999Z</time></trkpt><trkpt lat="42.19668387272079" lon="13.852373170014259"><ele>241.0</ele><time>2026-04-23T17:23:40.999Z</time></trkpt><trkpt lat="42.19650057821968" lon="13.852057949160251"><ele>240.0</ele><time>2026-04-23T17:23:41.999Z</time></trkpt><trkpt lat="42.196309313370854" lon="13.851757263025167"><ele>243.0</ele><time>2026-04-23T17:23:42.999Z</time></trkpt><trkpt lat="42.19610069392869" lon="13.85147122099879"><ele>246.0</ele><time>2026-04-23T17:23:43.999Z</time></trkpt><trkpt lat="42.19587958591666" lon="13.851202703552094"><ele>245.0</ele><time>2026-04-23T17:23:44.999Z</time></trkpt><trkpt lat="42.195641571907665" lon="13.850954184127993"><ele>244.0</ele><time>2026-04-23T17:23:45.999Z</time></trkpt><trkpt lat="42.19538325365055" lon="13.850723860365454"><ele>244.0</ele><time>2026-04-23T17:23:46.999Z</time></trkpt><trkpt lat="42.195111542086984" lon="13.850497540275127"><ele>244.0</ele><time>2026-04-23T17:23:47.999Z</time></trkpt><trkpt lat="42.19481322317906" lon="13.850284607693764"><ele>244.5</ele><time>2026-04-23T17:23:48.999Z</time></trkpt><trkpt lat="42.19449588370152" lon="13.850066259942773"><ele>245.0</ele><time>2026-04-23T17:23:49.999Z</time></trkpt><trkpt lat="42.194164812437556" lon="13.849845230307945"><ele>245.0</ele><time>2026-04-23T17:23:50.998Z</time></trkpt><trkpt lat="42.19382936266565" lon="13.849622409931007"><ele>245.0</ele><time>2026-04-23T17:23:51.998Z</time></trkpt><trkpt lat="42.1934960390678" lon="13.8494017266787"><ele>245.0</ele><time>2026-04-23T17:23:52.998Z</time></trkpt><trkpt lat="42.19317621420973" lon="13.849169900196628"><ele>245.0</ele><time>2026-04-23T17:23:53.998Z</time></trkpt><trkpt lat="42.19285923735355" lon="13.848911453336873"><ele>245.0</ele><time>2026-04-23T17:23:54.998Z</time></trkpt><trkpt lat="42.192546788993276" lon="13.848634458342246"><ele>245.0</ele><time>2026-04-23T17:23:55.998Z</time></trkpt><trkpt lat="42.19225204796115" lon="13.848344527374069"><ele>245.0</ele><time>2026-04-23T17:23:56.998Z</time></trkpt><trkpt lat="42.19196955408815" lon="13.84804366621682"><ele>245.0</ele><time>2026-04-23T17:23:57.998Z</time></trkpt><trkpt lat="42.191701411810044" lon="13.847726532265503"><ele>244.5</ele><time>2026-04-23T17:23:58.998Z</time></trkpt><trkpt lat="42.191430854023885" lon="13.847401094407303"><ele>244.0</ele><time>2026-04-23T17:23:59.998Z</time></trkpt><trkpt lat="42.191160902950095" lon="13.847058262439043"><ele>246.0</ele><time>2026-04-23T17:24:00.998Z</time></trkpt><trkpt lat="42.19088747629949" lon="13.846708784483432"><ele>248.0</ele><time>2026-04-23T17:24:01.998Z</time></trkpt><trkpt lat="42.19061076502335" lon="13.84635538193291"><ele>248.5</ele><time>2026-04-23T17:24:02.998Z</time></trkpt><trkpt lat="42.19033700618135" lon="13.846002961350608"><ele>249.0</ele><time>2026-04-23T17:24:04Z</time></trkpt><trkpt lat="42.190071541696824" lon="13.845662137023055"><ele>249.5</ele><time>2026-04-23T17:24:05Z</time></trkpt><trkpt lat="42.189806248587736" lon="13.845326942588306"><ele>250.0</ele><time>2026-04-23T17:24:06Z</time></trkpt><trkpt lat="42.18953314153082" lon="13.844992091380046"><ele>250.0</ele><time>2026-04-23T17:24:07Z</time></trkpt><trkpt lat="42.18925173483781" lon="13.84466248757505"><ele>250.0</ele><time>2026-04-23T17:24:08Z</time></trkpt><trkpt lat="42.188964973745705" lon="13.844342813424452"><ele>250.0</ele><time>2026-04-23T17:24:09Z</time></trkpt><trkpt lat="42.18866871596247" lon="13.844033108711546"><ele>250.0</ele><time>2026-04-23T17:24:10Z</time></trkpt><trkpt lat="42.18836458123901" lon="13.843734415838064"><ele>246.5</ele><time>2026-04-23T17:24:11Z</time></trkpt><trkpt lat="42.188051023339504" lon="13.84344131342522"><ele>243.0</ele><time>2026-04-23T17:24:12Z</time></trkpt><trkpt lat="42.187723207081476" lon="13.843161704965201"><ele>243.0</ele><time>2026-04-23T17:24:13Z</time></trkpt><trkpt lat="42.18739416613366" lon="13.842888840130419"><ele>243.0</ele><time>2026-04-23T17:24:14Z</time></trkpt><trkpt lat="42.187054589406955" lon="13.842635660975816"><ele>244.0</ele><time>2026-04-23T17:24:15Z</time></trkpt><trkpt lat="42.18670709474718" lon="13.842394383215183"><ele>245.0</ele><time>2026-04-23T17:24:16Z</time></trkpt><trkpt lat="42.18635506315388" lon="13.842168784602181"><ele>246.5</ele><time>2026-04-23T17:24:17Z</time></trkpt><trkpt lat="42.18599966680654" lon="13.84196499934941"><ele>248.0</ele><time>2026-04-23T17:24:18Z</time></trkpt><trkpt lat="42.18564068269929" lon="13.84177500692302"><ele>248.0</ele><time>2026-04-23T17:24:19Z</time></trkpt><trkpt lat="42.18528337529427" lon="13.841586658766374"><ele>248.0</ele><time>2026-04-23T17:24:20Z</time></trkpt><trkpt lat="42.184922059819584" lon="13.841396404703008"><ele>252.5</ele><time>2026-04-23T17:24:21Z</time></trkpt><trkpt lat="42.18456055437622" lon="13.841208668801363"><ele>257.0</ele><time>2026-04-23T17:24:22Z</time></trkpt><trkpt lat="42.18421222842012" lon="13.841029731906138"><ele>255.5</ele><time>2026-04-23T17:24:23Z</time></trkpt><trkpt lat="42.18388793068198" lon="13.84085793344226"><ele>254.0</ele><time>2026-04-23T17:24:24Z</time></trkpt><trkpt lat="42.18357795587235" lon="13.84068347109515"><ele>254.0</ele><time>2026-04-23T17:24:25Z</time></trkpt><trkpt lat="42.18327535102999" lon="13.840503804103465"><ele>254.0</ele><time>2026-04-23T17:24:25.999Z</time></trkpt><trkpt lat="42.182989534010545" lon="13.840314710942435"><ele>250.5</ele><time>2026-04-23T17:24:26.999Z</time></trkpt><trkpt lat="42.182704325461486" lon="13.840101660261405"><ele>247.0</ele><time>2026-04-23T17:24:27.999Z</time></trkpt><trkpt lat="42.182457963139704" lon="13.83989394207798"><ele>252.5</ele><time>2026-04-23T17:24:28.999Z</time></trkpt><trkpt lat="42.1822144409119" lon="13.83966161780607"><ele>258.0</ele><time>2026-04-23T17:24:29.999Z</time></trkpt><trkpt lat="42.18198546035939" lon="13.839414049577993"><ele>254.5</ele><time>2026-04-23T17:24:30.999Z</time></trkpt><trkpt lat="42.181771072567436" lon="13.839146208778091"><ele>251.0</ele><time>2026-04-23T17:24:31.999Z</time></trkpt><trkpt lat="42.181576539837884" lon="13.838864792901688"><ele>251.5</ele><time>2026-04-23T17:24:32.999Z</time></trkpt><trkpt lat="42.1814147714708" lon="13.838536359031679"><ele>252.0</ele><time>2026-04-23T17:24:33.999Z</time></trkpt><trkpt lat="42.1812492988762" lon="13.83819291040894"><ele>250.0</ele><time>2026-04-23T17:24:34.999Z</time></trkpt><trkpt lat="42.18108076535432" lon="13.83785195553575"><ele>248.0</ele><time>2026-04-23T17:24:35.999Z</time></trkpt><trkpt lat="42.18085119180568" lon="13.837510496939366"><ele>248.0</ele><time>2026-04-23T17:24:36.999Z</time></trkpt><trkpt lat="42.180703384058084" lon="13.83713275845952"><ele>248.0</ele><time>2026-04-23T17:24:37.999Z</time></trkpt><trkpt lat="42.18056804330225" lon="13.836737963846064"><ele>250.5</ele><time>2026-04-23T17:24:38.999Z</time></trkpt><trkpt lat="42.18044511166954" lon="13.83632624841466"><ele>253.0</ele><time>2026-04-23T17:24:39.999Z</time></trkpt><trkpt lat="42.180326765419615" lon="13.835901145531775"><ele>270.5</ele><time>2026-04-23T17:24:40.999Z</time></trkpt><trkpt lat="42.18019410892615" lon="13.835462074099077"><ele>288.0</ele><time>2026-04-23T17:24:41.999Z</time></trkpt><trkpt lat="42.18005403773588" lon="13.835031917996842"><ele>307.0</ele><time>2026-04-23T17:24:42.999Z</time></trkpt><trkpt lat="42.17991696953121" lon="13.834563079795899"><ele>326.0</ele><time>2026-04-23T17:24:43.999Z</time></trkpt><trkpt lat="42.17980492718453" lon="13.834108075973157"><ele>331.5</ele><time>2026-04-23T17:24:44.999Z</time></trkpt><trkpt lat="42.17969453440826" lon="13.833656758313131"><ele>337.0</ele><time>2026-04-23T17:24:45.999Z</time></trkpt><trkpt lat="42.1795799497764" lon="13.833191410642959"><ele>349.5</ele><time>2026-04-23T17:24:47.063Z</time></trkpt><trkpt lat="42.17946742151486" lon="13.832742019790592"><ele>362.0</ele><time>2026-04-23T17:24:48.063Z</time></trkpt><trkpt lat="42.1793550526023" lon="13.832293265123552"><ele>370.5</ele><time>2026-04-23T17:24:49.057Z</time></trkpt><trkpt lat="42.17924265523296" lon="13.831844396908117"><ele>379.0</ele><time>2026-04-23T17:24:50.056Z</time></trkpt><trkpt lat="42.17913013198348" lon="13.831394016543713"><ele>386.5</ele><time>2026-04-23T17:24:51.059Z</time></trkpt><trkpt lat="42.179018274930854" lon="13.83094585857609"><ele>394.0</ele><time>2026-04-23T17:24:52.05Z</time></trkpt><trkpt lat="42.17843614778655" lon="13.82835657352609"><ele>300.0</ele><time>2026-04-23T17:24:55.409Z</time></trkpt><trkpt lat="42.178050543914246" lon="13.827128656773297"><ele>278.0</ele><time>2026-04-23T17:24:56.41Z</time></trkpt><trkpt lat="42.17740202239887" lon="13.826122839863727"><ele>262.0</ele><time>2026-04-23T17:25:05.999Z</time></trkpt><trkpt lat="42.17723104030151" lon="13.825448373975638"><ele>262.0</ele><time>2026-04-23T17:25:06.999Z</time></trkpt><trkpt lat="42.17704161111279" lon="13.82518057459475"><ele>262.0</ele><time>2026-04-23T17:25:07.999Z</time></trkpt><trkpt lat="42.176824287463965" lon="13.824920341751554"><ele>262.5</ele><time>2026-04-23T17:25:08.999Z</time></trkpt><trkpt lat="42.17659032625171" lon="13.824689102346362"><ele>263.0</ele><time>2026-04-23T17:25:09.999Z</time></trkpt><trkpt lat="42.176341254438555" lon="13.824475956474918"><ele>261.5</ele><time>2026-04-23T17:25:10.999Z</time></trkpt><trkpt lat="42.17608241390324" lon="13.824275682696276"><ele>260.0</ele><time>2026-04-23T17:25:11.999Z</time></trkpt><trkpt lat="42.175805679212424" lon="13.824078179426014"><ele>257.5</ele><time>2026-04-23T17:25:12.999Z</time></trkpt><trkpt lat="42.175510968295114" lon="13.823912514846844"><ele>255.0</ele><time>2026-04-23T17:25:13.999Z</time></trkpt><trkpt lat="42.17521562921967" lon="13.823790630730585"><ele>255.0</ele><time>2026-04-23T17:25:14.999Z</time></trkpt><trkpt lat="42.174916537431926" lon="13.823695061219077"><ele>255.0</ele><time>2026-04-23T17:25:15.999Z</time></trkpt><trkpt lat="42.174596667010896" lon="13.823608870289425"><ele>255.0</ele><time>2026-04-23T17:25:16.999Z</time></trkpt><trkpt lat="42.17425413740216" lon="13.823541255313176"><ele>255.0</ele><time>2026-04-23T17:25:17.999Z</time></trkpt><trkpt lat="42.17389201055771" lon="13.82350238438468"><ele>255.0</ele><time>2026-04-23T17:25:18.999Z</time></trkpt><trkpt lat="42.173523766987785" lon="13.823484554395547"><ele>255.0</ele><time>2026-04-23T17:25:19.999Z</time></trkpt><trkpt lat="42.173143625705166" lon="13.823491498812626"><ele>254.5</ele><time>2026-04-23T17:25:20.999Z</time></trkpt><trkpt lat="42.17275025476486" lon="13.823506962488329"><ele>254.0</ele><time>2026-04-23T17:25:21.999Z</time></trkpt><trkpt lat="42.17234990207622" lon="13.823527095288698"><ele>254.0</ele><time>2026-04-23T17:25:22.999Z</time></trkpt><trkpt lat="42.171940903365496" lon="13.823553090661486"><ele>254.0</ele><time>2026-04-23T17:25:23.999Z</time></trkpt><trkpt lat="42.17152343445099" lon="13.823582381122517"><ele>252.5</ele><time>2026-04-23T17:25:24.999Z</time></trkpt><trkpt lat="42.17109641468862" lon="13.823606666620584"><ele>251.0</ele><time>2026-04-23T17:25:25.999Z</time></trkpt><trkpt lat="42.17066547060405" lon="13.823632659525643"><ele>250.0</ele><time>2026-04-23T17:25:26.999Z</time></trkpt><trkpt lat="42.17023524492413" lon="13.823657664312117"><ele>249.0</ele><time>2026-04-23T17:25:27.999Z</time></trkpt><trkpt lat="42.16980184020547" lon="13.823683192979692"><ele>247.5</ele><time>2026-04-23T17:25:28.999Z</time></trkpt><trkpt lat="42.1693668392814" lon="13.823711473584167"><ele>246.0</ele><time>2026-04-23T17:25:29.999Z</time></trkpt><trkpt lat="42.16893437670453" lon="13.82373616620785"><ele>245.5</ele><time>2026-04-23T17:25:30.999Z</time></trkpt><trkpt lat="42.168498745926925" lon="13.823759650458658"><ele>245.0</ele><time>2026-04-23T17:25:31.999Z</time></trkpt><trkpt lat="42.16806251568736" lon="13.823783636668425"><ele>246.0</ele><time>2026-04-23T17:25:32.999Z</time></trkpt><trkpt lat="42.16762444071028" lon="13.823808498206132"><ele>247.0</ele><time>2026-04-23T17:25:33.999Z</time></trkpt><trkpt lat="42.167186423529" lon="13.823831740653432"><ele>247.0</ele><time>2026-04-23T17:25:34.999Z</time></trkpt><trkpt lat="42.166747430043635" lon="13.823854132291565"><ele>247.0</ele><time>2026-04-23T17:25:35.999Z</time></trkpt><trkpt lat="42.16630881082062" lon="13.823875157709665"><ele>247.0</ele><time>2026-04-23T17:25:36.999Z</time></trkpt><trkpt lat="42.16586869277811" lon="13.823895072225632"><ele>247.0</ele><time>2026-04-23T17:25:37.999Z</time></trkpt><trkpt lat="42.165429911391016" lon="13.823917078061788"><ele>247.0</ele><time>2026-04-23T17:25:38.999Z</time></trkpt><trkpt lat="42.16499159682805" lon="13.823943949680745"><ele>247.0</ele><time>2026-04-23T17:25:39.999Z</time></trkpt><trkpt lat="42.16455385147601" lon="13.823971217061887"><ele>247.5</ele><time>2026-04-23T17:25:40.999Z</time></trkpt><trkpt lat="42.164117305661506" lon="13.823998880480705"><ele>248.0</ele><time>2026-04-23T17:25:41.999Z</time></trkpt><trkpt lat="42.163679571425824" lon="13.824024626010683"><ele>248.5</ele><time>2026-04-23T17:25:42.999Z</time></trkpt><trkpt lat="42.16324458326206" lon="13.82404892077908"><ele>249.0</ele><time>2026-04-23T17:25:43.999Z</time></trkpt><trkpt lat="42.162809173679605" lon="13.824071075613203"><ele>249.5</ele><time>2026-04-23T17:25:44.999Z</time></trkpt><trkpt lat="42.16237647638647" lon="13.824093308268306"><ele>250.0</ele><time>2026-04-23T17:25:45.999Z</time></trkpt><trkpt lat="42.16194460893985" lon="13.824120940973717"><ele>251.0</ele><time>2026-04-23T17:25:46.999Z</time></trkpt><trkpt lat="42.16151181004312" lon="13.824151735146291"><ele>252.0</ele><time>2026-04-23T17:25:47.999Z</time></trkpt><trkpt lat="42.16108090051772" lon="13.82418494668731"><ele>253.5</ele><time>2026-04-23T17:25:48.999Z</time></trkpt><trkpt lat="42.16064939228811" lon="13.824214121490304"><ele>255.0</ele><time>2026-04-23T17:25:49.999Z</time></trkpt><trkpt lat="42.1602189223251" lon="13.824247112473826"><ele>256.0</ele><time>2026-04-23T17:25:50.999Z</time></trkpt><trkpt lat="42.159791514979126" lon="13.824283374022261"><ele>257.0</ele><time>2026-04-23T17:25:51.999Z</time></trkpt><trkpt lat="42.159367159742" lon="13.824323748058088"><ele>254.0</ele><time>2026-04-23T17:25:52.999Z</time></trkpt><trkpt lat="42.158945977489644" lon="13.824368231877468"><ele>251.0</ele><time>2026-04-23T17:25:53.999Z</time></trkpt><trkpt lat="42.158525214264834" lon="13.82441633905267"><ele>252.0</ele><time>2026-04-23T17:25:54.999Z</time></trkpt><trkpt lat="42.15810934606835" lon="13.824465531494482"><ele>253.0</ele><time>2026-04-23T17:25:55.999Z</time></trkpt><trkpt lat="42.15770004495992" lon="13.824514113223014"><ele>253.0</ele><time>2026-04-23T17:25:56.999Z</time></trkpt><trkpt lat="42.15728836596049" lon="13.82456364319882"><ele>253.0</ele><time>2026-04-23T17:25:57.998Z</time></trkpt><trkpt lat="42.156870762366" lon="13.824619131873588"><ele>252.5</ele><time>2026-04-23T17:25:58.998Z</time></trkpt><trkpt lat="42.15644957696382" lon="13.824675768554139"><ele>252.0</ele><time>2026-04-23T17:25:59.998Z</time></trkpt><trkpt lat="42.15602384433625" lon="13.824738115083376"><ele>254.5</ele><time>2026-04-23T17:26:00.998Z</time></trkpt><trkpt lat="42.15559807543411" lon="13.824804256213437"><ele>257.0</ele><time>2026-04-23T17:26:01.998Z</time></trkpt><trkpt lat="42.15516899028888" lon="13.824876838256511"><ele>256.5</ele><time>2026-04-23T17:26:02.998Z</time></trkpt><trkpt lat="42.15473791211856" lon="13.824956616398437"><ele>256.0</ele><time>2026-04-23T17:26:03.998Z</time></trkpt><trkpt lat="42.15430626538354" lon="13.82503670311784"><ele>255.0</ele><time>2026-04-23T17:26:04.998Z</time></trkpt><trkpt lat="42.15387579678547" lon="13.825127005324862"><ele>254.0</ele><time>2026-04-23T17:26:05.998Z</time></trkpt><trkpt lat="42.15344560843506" lon="13.825221660959453"><ele>252.5</ele><time>2026-04-23T17:26:06.998Z</time></trkpt><trkpt lat="42.153016466531895" lon="13.825318806816659"><ele>251.0</ele><time>2026-04-23T17:26:07.998Z</time></trkpt><trkpt lat="42.15259016802766" lon="13.825415981664962"><ele>252.5</ele><time>2026-04-23T17:26:08.998Z</time></trkpt><trkpt lat="42.15216622667774" lon="13.825516158387908"><ele>254.0</ele><time>2026-04-23T17:26:10Z</time></trkpt><trkpt lat="42.15174599003274" lon="13.825627274166521"><ele>253.5</ele><time>2026-04-23T17:26:11Z</time></trkpt><trkpt lat="42.15132538221123" lon="13.825742129038186"><ele>253.0</ele><time>2026-04-23T17:26:12Z</time></trkpt><trkpt lat="42.150912461895096" lon="13.825859301539197"><ele>252.0</ele><time>2026-04-23T17:26:13Z</time></trkpt><trkpt lat="42.15049830387032" lon="13.825982003030756"><ele>251.0</ele><time>2026-04-23T17:26:14Z</time></trkpt><trkpt lat="42.15008690935693" lon="13.826106707325128"><ele>251.5</ele><time>2026-04-23T17:26:15Z</time></trkpt><trkpt lat="42.14967642498124" lon="13.82623667839788"><ele>252.0</ele><time>2026-04-23T17:26:16Z</time></trkpt><trkpt lat="42.14927951966157" lon="13.826373228992548"><ele>251.0</ele><time>2026-04-23T17:26:17Z</time></trkpt><trkpt lat="42.14890000247424" lon="13.8265160156318"><ele>250.0</ele><time>2026-04-23T17:26:18Z</time></trkpt><trkpt lat="42.148543339428734" lon="13.826669224890567"><ele>251.5</ele><time>2026-04-23T17:26:19Z</time></trkpt><trkpt lat="42.148189535851415" lon="13.826833630958225"><ele>253.0</ele><time>2026-04-23T17:26:20Z</time></trkpt><trkpt lat="42.14783716622822" lon="13.827008053352495"><ele>253.0</ele><time>2026-04-23T17:26:21Z</time></trkpt><trkpt lat="42.14749143028822" lon="13.827192383425036"><ele>253.0</ele><time>2026-04-23T17:26:22Z</time></trkpt><trkpt lat="42.14715079348306" lon="13.827393518581907"><ele>253.0</ele><time>2026-04-23T17:26:23Z</time></trkpt><trkpt lat="42.146818161185536" lon="13.82760913227213"><ele>253.0</ele><time>2026-04-23T17:26:24Z</time></trkpt><trkpt lat="42.14649352037387" lon="13.827839374689514"><ele>254.5</ele><time>2026-04-23T17:26:25Z</time></trkpt><trkpt lat="42.146175484462425" lon="13.828084301888145"><ele>256.0</ele><time>2026-04-23T17:26:26Z</time></trkpt><trkpt lat="42.14586125523105" lon="13.828349956697808"><ele>258.0</ele><time>2026-04-23T17:26:27Z</time></trkpt><trkpt lat="42.145557387398846" lon="13.828632330593209"><ele>260.0</ele><time>2026-04-23T17:26:28Z</time></trkpt><trkpt lat="42.14526322464007" lon="13.828935030419801"><ele>260.0</ele><time>2026-04-23T17:26:29Z</time></trkpt><trkpt lat="42.14497701023691" lon="13.829260969753138"><ele>260.0</ele><time>2026-04-23T17:26:29.999Z</time></trkpt><trkpt lat="42.14469666933025" lon="13.829601173754263"><ele>258.0</ele><time>2026-04-23T17:26:30.999Z</time></trkpt><trkpt lat="42.14442418882774" lon="13.829951424692387"><ele>256.0</ele><time>2026-04-23T17:26:31.999Z</time></trkpt><trkpt lat="42.144166309622136" lon="13.830317795779571"><ele>255.5</ele><time>2026-04-23T17:26:32.999Z</time></trkpt><trkpt lat="42.1439218079646" lon="13.830699340905364"><ele>255.0</ele><time>2026-04-23T17:26:33.999Z</time></trkpt><trkpt lat="42.143690791794214" lon="13.831092330890824"><ele>255.0</ele><time>2026-04-23T17:26:34.999Z</time></trkpt><trkpt lat="42.14347857225491" lon="13.831488225161944"><ele>255.0</ele><time>2026-04-23T17:26:35.999Z</time></trkpt><trkpt lat="42.143285590893065" lon="13.831870958350674"><ele>254.5</ele><time>2026-04-23T17:26:36.999Z</time></trkpt><trkpt lat="42.143104129729366" lon="13.832266649241017"><ele>254.0</ele><time>2026-04-23T17:26:37.999Z</time></trkpt><trkpt lat="42.14293027724469" lon="13.832676385325971"><ele>254.0</ele><time>2026-04-23T17:26:38.999Z</time></trkpt><trkpt lat="42.14276558473178" lon="13.833096757992422"><ele>254.0</ele><time>2026-04-23T17:26:39.999Z</time></trkpt><trkpt lat="42.14261317327279" lon="13.83353368140499"><ele>253.5</ele><time>2026-04-23T17:26:40.999Z</time></trkpt><trkpt lat="42.14247351063329" lon="13.833990000698208"><ele>253.0</ele><time>2026-04-23T17:26:41.999Z</time></trkpt><trkpt lat="42.14233936270002" lon="13.834465152358183"><ele>253.0</ele><time>2026-04-23T17:26:42.999Z</time></trkpt><trkpt lat="42.14221226629591" lon="13.83495856788444"><ele>253.0</ele><time>2026-04-23T17:26:43.999Z</time></trkpt><trkpt lat="42.14208954872468" lon="13.83547331837147"><ele>254.0</ele><time>2026-04-23T17:26:44.999Z</time></trkpt><trkpt lat="42.14197017658518" lon="13.83600262312236"><ele>255.0</ele><time>2026-04-23T17:26:45.999Z</time></trkpt><trkpt lat="42.141851224414054" lon="13.836542095481713"><ele>255.0</ele><time>2026-04-23T17:26:46.999Z</time></trkpt><trkpt lat="42.14173028123427" lon="13.837087993850238"><ele>255.0</ele><time>2026-04-23T17:26:47.999Z</time></trkpt><trkpt lat="42.14160671112599" lon="13.837637463580482"><ele>254.5</ele><time>2026-04-23T17:26:48.999Z</time></trkpt><trkpt lat="42.14148711112077" lon="13.838151095604484"><ele>254.0</ele><time>2026-04-23T17:26:49.999Z</time></trkpt><trkpt lat="42.14136652434994" lon="13.838635564752297"><ele>255.5</ele><time>2026-04-23T17:26:50.999Z</time></trkpt><trkpt lat="42.14124164097022" lon="13.839092487032689"><ele>257.0</ele><time>2026-04-23T17:26:51.999Z</time></trkpt><trkpt lat="42.14110271629958" lon="13.839554895727362"><ele>258.0</ele><time>2026-04-23T17:26:52.999Z</time></trkpt><trkpt lat="42.14095507600953" lon="13.840007950776357"><ele>259.0</ele><time>2026-04-23T17:26:53.999Z</time></trkpt><trkpt lat="42.140793443011525" lon="13.840450251624599"><ele>262.5</ele><time>2026-04-23T17:26:54.999Z</time></trkpt><trkpt lat="42.14062111942172" lon="13.84086746388808"><ele>266.0</ele><time>2026-04-23T17:26:55.999Z</time></trkpt><trkpt lat="42.14043651348644" lon="13.841261082645481"><ele>270.0</ele><time>2026-04-23T17:26:56.999Z</time></trkpt><trkpt lat="42.140240435470005" lon="13.841633299325872"><ele>274.0</ele><time>2026-04-23T17:26:57.999Z</time></trkpt><trkpt lat="42.140030415860295" lon="13.841986471392401"><ele>275.5</ele><time>2026-04-23T17:26:58.999Z</time></trkpt><trkpt lat="42.139811494987725" lon="13.842317477307214"><ele>277.0</ele><time>2026-04-23T17:26:59.999Z</time></trkpt><trkpt lat="42.13958100830457" lon="13.842634471920906"><ele>278.0</ele><time>2026-04-23T17:27:00.999Z</time></trkpt><trkpt lat="42.13934275876996" lon="13.842941440562843"><ele>279.0</ele><time>2026-04-23T17:27:01.999Z</time></trkpt><trkpt lat="42.139097755124745" lon="13.843227013659249"><ele>280.0</ele><time>2026-04-23T17:27:02.999Z</time></trkpt><trkpt lat="42.13884035639699" lon="13.843521003438198"><ele>281.0</ele><time>2026-04-23T17:27:03.999Z</time></trkpt><trkpt lat="42.13857007913598" lon="13.843792735110542"><ele>281.0</ele><time>2026-04-23T17:27:04.999Z</time></trkpt><trkpt lat="42.13829151202494" lon="13.84404457163845"><ele>281.0</ele><time>2026-04-23T17:27:05.999Z</time></trkpt><trkpt lat="42.13799945511863" lon="13.84428751314242"><ele>284.5</ele><time>2026-04-23T17:27:06.999Z</time></trkpt><trkpt lat="42.13769545029074" lon="13.844523332179186"><ele>288.0</ele><time>2026-04-23T17:27:07.999Z</time></trkpt><trkpt lat="42.13737362115341" lon="13.84475854317539"><ele>286.5</ele><time>2026-04-23T17:27:08.999Z</time></trkpt><trkpt lat="42.13704242715196" lon="13.844986790584265"><ele>285.0</ele><time>2026-04-23T17:27:09.999Z</time></trkpt><trkpt lat="42.136698073245256" lon="13.845208728049675"><ele>292.0</ele><time>2026-04-23T17:27:10.999Z</time></trkpt><trkpt lat="42.136343517197965" lon="13.84542302487928"><ele>299.0</ele><time>2026-04-23T17:27:11.999Z</time></trkpt><trkpt lat="42.13597786885241" lon="13.845636731203614"><ele>301.0</ele><time>2026-04-23T17:27:12.999Z</time></trkpt><trkpt lat="42.135609221727286" lon="13.845851220570712"><ele>303.0</ele><time>2026-04-23T17:27:13.999Z</time></trkpt><trkpt lat="42.13523762698662" lon="13.84606495358401"><ele>305.0</ele><time>2026-04-23T17:27:14.999Z</time></trkpt><trkpt lat="42.1348682223637" lon="13.846282471366328"><ele>307.0</ele><time>2026-04-23T17:27:15.999Z</time></trkpt><trkpt lat="42.13450655894642" lon="13.846503269439253"><ele>307.0</ele><time>2026-04-23T17:27:16.999Z</time></trkpt><trkpt lat="42.134149279754844" lon="13.84673143625656"><ele>307.0</ele><time>2026-04-23T17:27:17.999Z</time></trkpt><trkpt lat="42.133798012198845" lon="13.846960574477269"><ele>306.5</ele><time>2026-04-23T17:27:18.999Z</time></trkpt><trkpt lat="42.13345284054531" lon="13.847200488129024"><ele>306.0</ele><time>2026-04-23T17:27:19.999Z</time></trkpt><trkpt lat="42.13310962513178" lon="13.847450871660671"><ele>300.5</ele><time>2026-04-23T17:27:20.999Z</time></trkpt><trkpt lat="42.132766455722994" lon="13.847700178606491"><ele>295.0</ele><time>2026-04-23T17:27:21.999Z</time></trkpt><trkpt lat="42.13241885003245" lon="13.847952340351197"><ele>295.0</ele><time>2026-04-23T17:27:22.999Z</time></trkpt><trkpt lat="42.13206464941275" lon="13.848207818981983"><ele>295.0</ele><time>2026-04-23T17:27:23.999Z</time></trkpt><trkpt lat="42.1317032481427" lon="13.848474044071667"><ele>292.5</ele><time>2026-04-23T17:27:24.999Z</time></trkpt><trkpt lat="42.131337856250084" lon="13.848749775298144"><ele>290.0</ele><time>2026-04-23T17:27:25.999Z</time></trkpt><trkpt lat="42.13097171693918" lon="13.84903230994572"><ele>284.5</ele><time>2026-04-23T17:27:26.999Z</time></trkpt><trkpt lat="42.13060568200388" lon="13.849328245355021"><ele>279.0</ele><time>2026-04-23T17:27:27.999Z</time></trkpt><trkpt lat="42.13023757952772" lon="13.849635697045288"><ele>284.0</ele><time>2026-04-23T17:27:28.999Z</time></trkpt><trkpt lat="42.129869044553416" lon="13.849956508133873"><ele>289.0</ele><time>2026-04-23T17:27:29.999Z</time></trkpt><trkpt lat="42.129499441826155" lon="13.850282288846392"><ele>290.5</ele><time>2026-04-23T17:27:30.999Z</time></trkpt><trkpt lat="42.12913143627792" lon="13.850615510200644"><ele>292.0</ele><time>2026-04-23T17:27:31.999Z</time></trkpt><trkpt lat="42.128763695943796" lon="13.85095700900073"><ele>294.0</ele><time>2026-04-23T17:27:32.999Z</time></trkpt><trkpt lat="42.128398509356856" lon="13.851303936191439"><ele>296.0</ele><time>2026-04-23T17:27:33.999Z</time></trkpt><trkpt lat="42.12803808621055" lon="13.851660377904468"><ele>302.0</ele><time>2026-04-23T17:27:34.999Z</time></trkpt><trkpt lat="42.127675394117745" lon="13.852025889258773"><ele>307.0</ele><time>2026-04-23T17:27:35.999Z</time></trkpt><trkpt lat="42.127318886081845" lon="13.852396378944544"><ele>306.0</ele><time>2026-04-23T17:27:36.999Z</time></trkpt><trkpt lat="42.12697457819842" lon="13.852765589015725"><ele>305.0</ele><time>2026-04-23T17:27:37.999Z</time></trkpt><trkpt lat="42.12663152907935" lon="13.853133791562115"><ele>306.0</ele><time>2026-04-23T17:27:38.999Z</time></trkpt><trkpt lat="42.126294401620456" lon="13.853503702903868"><ele>307.0</ele><time>2026-04-23T17:27:39.999Z</time></trkpt><trkpt lat="42.1259643812325" lon="13.853876527177723"><ele>309.5</ele><time>2026-04-23T17:27:40.999Z</time></trkpt><trkpt lat="42.125642452571896" lon="13.854256068245036"><ele>312.0</ele><time>2026-04-23T17:27:41.999Z</time></trkpt><trkpt lat="42.125324013807806" lon="13.85463727274201"><ele>312.0</ele><time>2026-04-23T17:27:42.999Z</time></trkpt><trkpt lat="42.125012940511375" lon="13.855018827032845"><ele>312.0</ele><time>2026-04-23T17:27:43.999Z</time></trkpt><trkpt lat="42.124710110220285" lon="13.855395698723685"><ele>313.0</ele><time>2026-04-23T17:27:44.999Z</time></trkpt><trkpt lat="42.12441728700018" lon="13.855772425869775"><ele>314.0</ele><time>2026-04-23T17:27:45.999Z</time></trkpt><trkpt lat="42.12413333721802" lon="13.856148251088275"><ele>315.0</ele><time>2026-04-23T17:27:46.999Z</time></trkpt><trkpt lat="42.123846174741686" lon="13.856525579009768"><ele>316.0</ele><time>2026-04-23T17:27:47.999Z</time></trkpt><trkpt lat="42.12355998032137" lon="13.856901958325832"><ele>316.0</ele><time>2026-04-23T17:27:48.999Z</time></trkpt><trkpt lat="42.12327307391333" lon="13.857277123349096"><ele>316.0</ele><time>2026-04-23T17:27:49.999Z</time></trkpt><trkpt lat="42.12298957204194" lon="13.857654424853001"><ele>318.5</ele><time>2026-04-23T17:27:50.999Z</time></trkpt><trkpt lat="42.12270945941993" lon="13.858020899532264"><ele>321.0</ele><time>2026-04-23T17:27:51.999Z</time></trkpt><trkpt lat="42.12242989141196" lon="13.858379642664262"><ele>324.5</ele><time>2026-04-23T17:27:52.999Z</time></trkpt><trkpt lat="42.12215260265051" lon="13.858729860107143"><ele>328.0</ele><time>2026-04-23T17:27:53.999Z</time></trkpt><trkpt lat="42.12187320694083" lon="13.859071859583972"><ele>328.0</ele><time>2026-04-23T17:27:54.999Z</time></trkpt><trkpt lat="42.1215894278319" lon="13.859410066725948"><ele>328.0</ele><time>2026-04-23T17:27:55.999Z</time></trkpt><trkpt lat="42.12129895037099" lon="13.85974801671307"><ele>328.0</ele><time>2026-04-23T17:27:56.998Z</time></trkpt><trkpt lat="42.12100366634918" lon="13.860076569954805"><ele>328.0</ele><time>2026-04-23T17:27:57.998Z</time></trkpt><trkpt lat="42.12070031683407" lon="13.860397227228894"><ele>328.0</ele><time>2026-04-23T17:27:58.998Z</time></trkpt><trkpt lat="42.120390259268326" lon="13.860711932433576"><ele>328.0</ele><time>2026-04-23T17:27:59.998Z</time></trkpt><trkpt lat="42.12007957082156" lon="13.861011006639828"><ele>328.5</ele><time>2026-04-23T17:28:00.998Z</time></trkpt><trkpt lat="42.11976414227567" lon="13.861291732884924"><ele>329.0</ele><time>2026-04-23T17:28:01.998Z</time></trkpt><trkpt lat="42.119453438517034" lon="13.861555559578743"><ele>328.0</ele><time>2026-04-23T17:28:02.998Z</time></trkpt><trkpt lat="42.11914170961236" lon="13.861808566402383"><ele>327.0</ele><time>2026-04-23T17:28:03.998Z</time></trkpt><trkpt lat="42.11882879197481" lon="13.862053187443484"><ele>327.0</ele><time>2026-04-23T17:28:04.998Z</time></trkpt><trkpt lat="42.11851362103711" lon="13.862286490732863"><ele>327.0</ele><time>2026-04-23T17:28:05.998Z</time></trkpt><trkpt lat="42.1181878588596" lon="13.862511697821715"><ele>333.0</ele><time>2026-04-23T17:28:06.998Z</time></trkpt><trkpt lat="42.117853830085664" lon="13.862730958753405"><ele>339.0</ele><time>2026-04-23T17:28:07.998Z</time></trkpt><trkpt lat="42.11751979536971" lon="13.862933280707058"><ele>339.5</ele><time>2026-04-23T17:28:08.998Z</time></trkpt><trkpt lat="42.11720002002032" lon="13.863118106226977"><ele>340.0</ele><time>2026-04-23T17:28:09.998Z</time></trkpt><trkpt lat="42.11688499803436" lon="13.863291522959564"><ele>340.0</ele><time>2026-04-23T17:28:10.998Z</time></trkpt><trkpt lat="42.11656621950606" lon="13.863459501780225"><ele>340.0</ele><time>2026-04-23T17:28:11.998Z</time></trkpt><trkpt lat="42.11624263327407" lon="13.863618672617507"><ele>340.0</ele><time>2026-04-23T17:28:12.998Z</time></trkpt><trkpt lat="42.11591481595446" lon="13.863767325103662"><ele>340.0</ele><time>2026-04-23T17:28:13.998Z</time></trkpt><trkpt lat="42.11557520281564" lon="13.863908545417319"><ele>340.0</ele><time>2026-04-23T17:28:14.998Z</time></trkpt><trkpt lat="42.11522957835267" lon="13.86404299539706"><ele>340.0</ele><time>2026-04-23T17:28:16Z</time></trkpt><trkpt lat="42.11488242537481" lon="13.864173607233298"><ele>340.5</ele><time>2026-04-23T17:28:17Z</time></trkpt><trkpt lat="42.11452876253725" lon="13.864294324779152"><ele>341.0</ele><time>2026-04-23T17:28:18Z</time></trkpt><trkpt lat="42.11417293027636" lon="13.864402273436172"><ele>341.5</ele><time>2026-04-23T17:28:19Z</time></trkpt><trkpt lat="42.11381377422994" lon="13.864492289205426"><ele>342.0</ele><time>2026-04-23T17:28:20Z</time></trkpt><trkpt lat="42.1134522119344" lon="13.864571430307798"><ele>342.0</ele><time>2026-04-23T17:28:21Z</time></trkpt><trkpt lat="42.11307705211302" lon="13.864645022557944"><ele>342.0</ele><time>2026-04-23T17:28:22Z</time></trkpt><trkpt lat="42.112690399863524" lon="13.864716241013332"><ele>336.0</ele><time>2026-04-23T17:28:23Z</time></trkpt><trkpt lat="42.11229537516661" lon="13.864778583319831"><ele>330.0</ele><time>2026-04-23T17:28:24Z</time></trkpt><trkpt lat="42.11189716890982" lon="13.864830428715194"><ele>324.0</ele><time>2026-04-23T17:28:25Z</time></trkpt><trkpt lat="42.11149733562812" lon="13.864872807465105"><ele>318.0</ele><time>2026-04-23T17:28:26Z</time></trkpt><trkpt lat="42.11110021798951" lon="13.864913386055457"><ele>318.5</ele><time>2026-04-23T17:28:27Z</time></trkpt><trkpt lat="42.11070868011235" lon="13.864946669887377"><ele>319.0</ele><time>2026-04-23T17:28:28Z</time></trkpt><trkpt lat="42.11032441635473" lon="13.864973166463757"><ele>319.0</ele><time>2026-04-23T17:28:29Z</time></trkpt><trkpt lat="42.10994185833163" lon="13.864989805891456"><ele>319.0</ele><time>2026-04-23T17:28:30Z</time></trkpt><trkpt lat="42.10956265076108" lon="13.865003279325101"><ele>328.0</ele><time>2026-04-23T17:28:31Z</time></trkpt><trkpt lat="42.109180450962654" lon="13.865016495964749"><ele>337.0</ele><time>2026-04-23T17:28:32Z</time></trkpt><trkpt lat="42.10879724939171" lon="13.86502670119598"><ele>340.5</ele><time>2026-04-23T17:28:33Z</time></trkpt><trkpt lat="42.10841256324648" lon="13.865030545385723"><ele>344.0</ele><time>2026-04-23T17:28:33.999Z</time></trkpt><trkpt lat="42.108020422700704" lon="13.865029956919281"><ele>344.0</ele><time>2026-04-23T17:28:34.999Z</time></trkpt><trkpt lat="42.107626045486406" lon="13.865030596407315"><ele>344.0</ele><time>2026-04-23T17:28:35.999Z</time></trkpt><trkpt lat="42.10723085593682" lon="13.86502742484399"><ele>344.5</ele><time>2026-04-23T17:28:36.999Z</time></trkpt><trkpt lat="42.106835018186565" lon="13.86502015525943"><ele>345.0</ele><time>2026-04-23T17:28:37.999Z</time></trkpt><trkpt lat="42.10643456317387" lon="13.865012302439496"><ele>344.0</ele><time>2026-04-23T17:28:38.999Z</time></trkpt><trkpt lat="42.10603275020139" lon="13.865007307189023"><ele>343.0</ele><time>2026-04-23T17:28:39.999Z</time></trkpt><trkpt lat="42.105629279677956" lon="13.865006017484923"><ele>343.0</ele><time>2026-04-23T17:28:40.999Z</time></trkpt><trkpt lat="42.105224583387376" lon="13.865001517934754"><ele>343.0</ele><time>2026-04-23T17:28:41.999Z</time></trkpt><trkpt lat="42.104819897454114" lon="13.864996807684866"><ele>343.0</ele><time>2026-04-23T17:28:42.999Z</time></trkpt><trkpt lat="42.104412094184475" lon="13.864989487525676"><ele>343.0</ele><time>2026-04-23T17:28:43.999Z</time></trkpt><trkpt lat="42.10400434664026" lon="13.864980851670582"><ele>343.0</ele><time>2026-04-23T17:28:44.999Z</time></trkpt><trkpt lat="42.10359506202409" lon="13.864970901413784"><ele>343.0</ele><time>2026-04-23T17:28:45.999Z</time></trkpt><trkpt lat="42.10318750460765" lon="13.864962555754339"><ele>343.0</ele><time>2026-04-23T17:28:46.999Z</time></trkpt><trkpt lat="42.10277449350114" lon="13.864955573779394"><ele>343.0</ele><time>2026-04-23T17:28:47.999Z</time></trkpt><trkpt lat="42.102361652068936" lon="13.864958751438213"><ele>338.5</ele><time>2026-04-23T17:28:48.999Z</time></trkpt><trkpt lat="42.10194317784205" lon="13.864963463034782"><ele>334.0</ele><time>2026-04-23T17:28:49.999Z</time></trkpt><trkpt lat="42.101516246632414" lon="13.86497028751869"><ele>333.5</ele><time>2026-04-23T17:28:50.999Z</time></trkpt><trkpt lat="42.10108439911948" lon="13.864983554422004"><ele>333.0</ele><time>2026-04-23T17:28:51.999Z</time></trkpt><trkpt lat="42.10064953896739" lon="13.865002638369019"><ele>338.0</ele><time>2026-04-23T17:28:52.999Z</time></trkpt><trkpt lat="42.100212323237415" lon="13.865029508044161"><ele>343.0</ele><time>2026-04-23T17:28:53.999Z</time></trkpt><trkpt lat="42.09977480927141" lon="13.86506473878616"><ele>344.0</ele><time>2026-04-23T17:28:54.999Z</time></trkpt><trkpt lat="42.09933849014458" lon="13.86510925573545"><ele>345.0</ele><time>2026-04-23T17:28:55.999Z</time></trkpt><trkpt lat="42.09890259398606" lon="13.865161120741584"><ele>345.0</ele><time>2026-04-23T17:28:56.999Z</time></trkpt><trkpt lat="42.09847114362465" lon="13.86521960898449"><ele>345.0</ele><time>2026-04-23T17:28:57.999Z</time></trkpt><trkpt lat="42.098038052515015" lon="13.865280670101214"><ele>345.0</ele><time>2026-04-23T17:28:58.999Z</time></trkpt><trkpt lat="42.09760527782724" lon="13.865347785435116"><ele>345.0</ele><time>2026-04-23T17:28:59.999Z</time></trkpt><trkpt lat="42.09717478854785" lon="13.865423519647432"><ele>343.5</ele><time>2026-04-23T17:29:00.999Z</time></trkpt><trkpt lat="42.09674262149818" lon="13.865507268848198"><ele>342.0</ele><time>2026-04-23T17:29:01.999Z</time></trkpt><trkpt lat="42.09630960306877" lon="13.865600144960409"><ele>334.5</ele><time>2026-04-23T17:29:02.999Z</time></trkpt><trkpt lat="42.09587785781768" lon="13.865701985563001"><ele>327.0</ele><time>2026-04-23T17:29:03.999Z</time></trkpt><trkpt lat="42.095448140315554" lon="13.865809899126242"><ele>322.0</ele><time>2026-04-23T17:29:04.999Z</time></trkpt><trkpt lat="42.095017824723115" lon="13.865920561102017"><ele>317.0</ele><time>2026-04-23T17:29:05.999Z</time></trkpt><trkpt lat="42.09459201566801" lon="13.866037646673451"><ele>314.5</ele><time>2026-04-23T17:29:06.999Z</time></trkpt><trkpt lat="42.09417334430112" lon="13.866164407924282"><ele>312.0</ele><time>2026-04-23T17:29:07.999Z</time></trkpt><trkpt lat="42.09375077904184" lon="13.866294110961803"><ele>312.0</ele><time>2026-04-23T17:29:08.999Z</time></trkpt><trkpt lat="42.09333766204478" lon="13.866431978930889"><ele>312.0</ele><time>2026-04-23T17:29:09.999Z</time></trkpt><trkpt lat="42.0929276604852" lon="13.866575472470531"><ele>314.0</ele><time>2026-04-23T17:29:10.999Z</time></trkpt><trkpt lat="42.09252183726551" lon="13.866725399257536"><ele>316.0</ele><time>2026-04-23T17:29:11.999Z</time></trkpt><trkpt lat="42.09212219751349" lon="13.866878226604232"><ele>318.5</ele><time>2026-04-23T17:29:12.999Z</time></trkpt><trkpt lat="42.09172760535529" lon="13.867034307883996"><ele>321.0</ele><time>2026-04-23T17:29:13.999Z</time></trkpt><trkpt lat="42.091338919529825" lon="13.867195700736426"><ele>327.5</ele><time>2026-04-23T17:29:14.999Z</time></trkpt><trkpt lat="42.09095459200974" lon="13.867360560030294"><ele>334.0</ele><time>2026-04-23T17:29:15.999Z</time></trkpt><trkpt lat="42.090576594217026" lon="13.867523308116036"><ele>336.0</ele><time>2026-04-23T17:29:16.999Z</time></trkpt><trkpt lat="42.09020332326694" lon="13.86768391257359"><ele>338.0</ele><time>2026-04-23T17:29:17.999Z</time></trkpt><trkpt lat="42.08983702713576" lon="13.867840804940263"><ele>341.0</ele><time>2026-04-23T17:29:18.999Z</time></trkpt><trkpt lat="42.08948602438493" lon="13.867984334030638"><ele>344.0</ele><time>2026-04-23T17:29:19.999Z</time></trkpt><trkpt lat="42.08914744044317" lon="13.868113902043994"><ele>346.5</ele><time>2026-04-23T17:29:20.999Z</time></trkpt><trkpt lat="42.08880866497726" lon="13.868234372623222"><ele>349.0</ele><time>2026-04-23T17:29:21.999Z</time></trkpt><trkpt lat="42.08847126578772" lon="13.868344744487397"><ele>350.5</ele><time>2026-04-23T17:29:22.999Z</time></trkpt><trkpt lat="42.08813256597708" lon="13.868452612845307"><ele>352.0</ele><time>2026-04-23T17:29:23.999Z</time></trkpt><trkpt lat="42.08779182939376" lon="13.868559914537895"><ele>352.0</ele><time>2026-04-23T17:29:24.999Z</time></trkpt><trkpt lat="42.08745152402175" lon="13.868662066001717"><ele>352.0</ele><time>2026-04-23T17:29:25.999Z</time></trkpt><trkpt lat="42.08710833891612" lon="13.868753027152524"><ele>352.0</ele><time>2026-04-23T17:29:26.999Z</time></trkpt><trkpt lat="42.08676625466122" lon="13.868828675784407"><ele>352.0</ele><time>2026-04-23T17:29:27.999Z</time></trkpt><trkpt lat="42.08641954785487" lon="13.868887394212054"><ele>352.5</ele><time>2026-04-23T17:29:28.999Z</time></trkpt><trkpt lat="42.08606985397487" lon="13.868933938881217"><ele>353.0</ele><time>2026-04-23T17:29:29.999Z</time></trkpt><trkpt lat="42.08572304635496" lon="13.868973100681819"><ele>354.0</ele><time>2026-04-23T17:29:30.999Z</time></trkpt><trkpt lat="42.08538099291702" lon="13.868998454368901"><ele>355.0</ele><time>2026-04-23T17:29:31.999Z</time></trkpt><trkpt lat="42.08504081703278" lon="13.869008183788695"><ele>356.5</ele><time>2026-04-23T17:29:32.999Z</time></trkpt><trkpt lat="42.08469983695995" lon="13.86900997538983"><ele>358.0</ele><time>2026-04-23T17:29:33.999Z</time></trkpt><trkpt lat="42.08435171072183" lon="13.869002439483177"><ele>359.0</ele><time>2026-04-23T17:29:34.999Z</time></trkpt><trkpt lat="42.08400865221075" lon="13.868980175568934"><ele>360.0</ele><time>2026-04-23T17:29:35.999Z</time></trkpt><trkpt lat="42.08366394495181" lon="13.868949522978994"><ele>360.0</ele><time>2026-04-23T17:29:36.999Z</time></trkpt><trkpt lat="42.08332117050489" lon="13.868903597026124"><ele>360.0</ele><time>2026-04-23T17:29:37.999Z</time></trkpt><trkpt lat="42.082979248697235" lon="13.868850819200961"><ele>360.5</ele><time>2026-04-23T17:29:38.999Z</time></trkpt><trkpt lat="42.08264303956815" lon="13.868783945875418"><ele>361.0</ele><time>2026-04-23T17:29:39.999Z</time></trkpt><trkpt lat="42.08230899259937" lon="13.868703568122827"><ele>361.0</ele><time>2026-04-23T17:29:40.999Z</time></trkpt><trkpt lat="42.081977843008026" lon="13.868612878475359"><ele>361.0</ele><time>2026-04-23T17:29:41.999Z</time></trkpt><trkpt lat="42.08164737907161" lon="13.868508210549644"><ele>360.5</ele><time>2026-04-23T17:29:42.999Z</time></trkpt><trkpt lat="42.081318024412575" lon="13.86839355782477"><ele>360.0</ele><time>2026-04-23T17:29:43.999Z</time></trkpt><trkpt lat="42.080993476738335" lon="13.868271639917957"><ele>362.0</ele><time>2026-04-23T17:29:44.999Z</time></trkpt><trkpt lat="42.080669793878336" lon="13.868140135788066"><ele>364.0</ele><time>2026-04-23T17:29:45.999Z</time></trkpt><trkpt lat="42.08034961727164" lon="13.867997618673588"><ele>364.0</ele><time>2026-04-23T17:29:46.999Z</time></trkpt><trkpt lat="42.080035285893885" lon="13.867846494226088"><ele>364.0</ele><time>2026-04-23T17:29:47.999Z</time></trkpt><trkpt lat="42.07972769927666" lon="13.867686066630332"><ele>363.0</ele><time>2026-04-23T17:29:48.999Z</time></trkpt><trkpt lat="42.07942396615796" lon="13.867514418804083"><ele>362.0</ele><time>2026-04-23T17:29:49.999Z</time></trkpt><trkpt lat="42.07910799593135" lon="13.867317924238623"><ele>363.5</ele><time>2026-04-23T17:29:50.999Z</time></trkpt><trkpt lat="42.078828008823976" lon="13.86714117430427"><ele>365.0</ele><time>2026-04-23T17:29:51.999Z</time></trkpt><trkpt lat="42.078544799322486" lon="13.866949825920258"><ele>365.0</ele><time>2026-04-23T17:29:52.999Z</time></trkpt><trkpt lat="42.07824173528459" lon="13.866722962009018"><ele>365.0</ele><time>2026-04-23T17:29:53.999Z</time></trkpt><trkpt lat="42.077947201115734" lon="13.866491232582563"><ele>365.0</ele><time>2026-04-23T17:29:54.999Z</time></trkpt><trkpt lat="42.077654894038986" lon="13.866253107568792"><ele>365.0</ele><time>2026-04-23T17:29:55.999Z</time></trkpt><trkpt lat="42.07736954336225" lon="13.866008836314302"><ele>365.0</ele><time>2026-04-23T17:29:56.999Z</time></trkpt><trkpt lat="42.0770900129087" lon="13.865755155167626"><ele>365.0</ele><time>2026-04-23T17:29:57.999Z</time></trkpt><trkpt lat="42.076813605846716" lon="13.865489854199653"><ele>364.5</ele><time>2026-04-23T17:29:58.999Z</time></trkpt><trkpt lat="42.07653698559546" lon="13.865218384182866"><ele>364.0</ele><time>2026-04-23T17:29:59.999Z</time></trkpt><trkpt lat="42.07626147191553" lon="13.864942680485447"><ele>365.0</ele><time>2026-04-23T17:30:00.999Z</time></trkpt><trkpt lat="42.075988559763225" lon="13.8646609505643"><ele>366.0</ele><time>2026-04-23T17:30:01.999Z</time></trkpt><trkpt lat="42.07571546426113" lon="13.864372960421775"><ele>367.0</ele><time>2026-04-23T17:30:02.998Z</time></trkpt><trkpt lat="42.0754487740688" lon="13.864086628357505"><ele>368.0</ele><time>2026-04-23T17:30:03.998Z</time></trkpt><trkpt lat="42.07516629685457" lon="13.863773056352986"><ele>368.5</ele><time>2026-04-23T17:30:04.998Z</time></trkpt><trkpt lat="42.07488671149736" lon="13.863466523034317"><ele>369.0</ele><time>2026-04-23T17:30:05.998Z</time></trkpt><trkpt lat="42.07460448678131" lon="13.863159162320624"><ele>369.0</ele><time>2026-04-23T17:30:06.998Z</time></trkpt><trkpt lat="42.07432527566035" lon="13.862849315726303"><ele>369.0</ele><time>2026-04-23T17:30:07.998Z</time></trkpt><trkpt lat="42.07404594247245" lon="13.862538833097105"><ele>372.5</ele><time>2026-04-23T17:30:08.998Z</time></trkpt><trkpt lat="42.07376670316331" lon="13.86223121398384"><ele>376.0</ele><time>2026-04-23T17:30:09.998Z</time></trkpt><trkpt lat="42.07348237813477" lon="13.861923279821568"><ele>385.5</ele><time>2026-04-23T17:30:10.998Z</time></trkpt><trkpt lat="42.07319954977349" lon="13.861623377554935"><ele>395.0</ele><time>2026-04-23T17:30:11.998Z</time></trkpt><trkpt lat="42.072916047713846" lon="13.861324783766086"><ele>395.0</ele><time>2026-04-23T17:30:12.998Z</time></trkpt><trkpt lat="42.07262980597196" lon="13.861027552759552"><ele>395.0</ele><time>2026-04-23T17:30:13.998Z</time></trkpt><trkpt lat="42.07233901441415" lon="13.860734265024076"><ele>405.5</ele><time>2026-04-23T17:30:14.998Z</time></trkpt><trkpt lat="42.072043941031836" lon="13.860448585856796"><ele>416.0</ele><time>2026-04-23T17:30:15.998Z</time></trkpt><trkpt lat="42.07174052682744" lon="13.86017102993687"><ele>416.5</ele><time>2026-04-23T17:30:16.998Z</time></trkpt><trkpt lat="42.071427591890185" lon="13.85991028700673"><ele>417.0</ele><time>2026-04-23T17:30:17.998Z</time></trkpt><trkpt lat="42.07110655036897" lon="13.859665765290424"><ele>417.0</ele><time>2026-04-23T17:30:18.998Z</time></trkpt><trkpt lat="42.0707829858814" lon="13.859440410920897"><ele>417.0</ele><time>2026-04-23T17:30:19.998Z</time></trkpt><trkpt lat="42.070455778315505" lon="13.859242903249113"><ele>417.5</ele><time>2026-04-23T17:30:20.998Z</time></trkpt><trkpt lat="42.07012831097428" lon="13.859073101322142"><ele>418.0</ele><time>2026-04-23T17:30:22Z</time></trkpt><trkpt lat="42.06979818040346" lon="13.858921483766713"><ele>426.0</ele><time>2026-04-23T17:30:23Z</time></trkpt><trkpt lat="42.06945966617696" lon="13.858789808804408"><ele>434.0</ele><time>2026-04-23T17:30:24Z</time></trkpt><trkpt lat="42.069113193695514" lon="13.858683043629556"><ele>440.5</ele><time>2026-04-23T17:30:25Z</time></trkpt><trkpt lat="42.06876040502164" lon="13.858601710730818"><ele>447.0</ele><time>2026-04-23T17:30:26Z</time></trkpt><trkpt lat="42.06840302821535" lon="13.85854534402743"><ele>449.0</ele><time>2026-04-23T17:30:27Z</time></trkpt><trkpt lat="42.06804805937318" lon="13.858511682002622"><ele>451.0</ele><time>2026-04-23T17:30:28Z</time></trkpt><trkpt lat="42.06768820399639" lon="13.858500856427234"><ele>452.5</ele><time>2026-04-23T17:30:29Z</time></trkpt><trkpt lat="42.06732975011237" lon="13.858515498346387"><ele>454.0</ele><time>2026-04-23T17:30:30Z</time></trkpt><trkpt lat="42.06697007947263" lon="13.858558336034335"><ele>454.0</ele><time>2026-04-23T17:30:31Z</time></trkpt><trkpt lat="42.06661324355234" lon="13.85862463170636"><ele>454.0</ele><time>2026-04-23T17:30:32Z</time></trkpt><trkpt lat="42.06625589818625" lon="13.858702425926372"><ele>453.0</ele><time>2026-04-23T17:30:33Z</time></trkpt><trkpt lat="42.065895081687195" lon="13.858783061464122"><ele>452.0</ele><time>2026-04-23T17:30:34Z</time></trkpt><trkpt lat="42.0655297367952" lon="13.858862907434421"><ele>450.0</ele><time>2026-04-23T17:30:35Z</time></trkpt><trkpt lat="42.06516035024788" lon="13.85894920915404"><ele>448.0</ele><time>2026-04-23T17:30:36Z</time></trkpt><trkpt lat="42.06479311731337" lon="13.859033000364294"><ele>448.0</ele><time>2026-04-23T17:30:37Z</time></trkpt><trkpt lat="42.06442196391386" lon="13.859112344932074"><ele>448.0</ele><time>2026-04-23T17:30:38Z</time></trkpt><trkpt lat="42.06405173672307" lon="13.859176384735445"><ele>448.5</ele><time>2026-04-23T17:30:38.999Z</time></trkpt><trkpt lat="42.06368537249554" lon="13.859216848027362"><ele>449.0</ele><time>2026-04-23T17:30:39.999Z</time></trkpt><trkpt lat="42.06331440526209" lon="13.85923481036709"><ele>448.0</ele><time>2026-04-23T17:30:40.999Z</time></trkpt><trkpt lat="42.06293693931092" lon="13.859244478196116"><ele>447.0</ele><time>2026-04-23T17:30:41.999Z</time></trkpt><trkpt lat="42.06255614175337" lon="13.859251460381243"><ele>451.0</ele><time>2026-04-23T17:30:42.999Z</time></trkpt><trkpt lat="42.06217509505079" lon="13.859256316487732"><ele>455.0</ele><time>2026-04-23T17:30:43.999Z</time></trkpt><trkpt lat="42.061798292847165" lon="13.859260728225571"><ele>460.5</ele><time>2026-04-23T17:30:44.999Z</time></trkpt><trkpt lat="42.061409650593085" lon="13.859268794645557"><ele>466.0</ele><time>2026-04-23T17:30:45.999Z</time></trkpt><trkpt lat="42.061024810405556" lon="13.859276813540726"><ele>476.5</ele><time>2026-04-23T17:30:46.999Z</time></trkpt><trkpt lat="42.0606410658924" lon="13.859284460247284"><ele>487.0</ele><time>2026-04-23T17:30:47.999Z</time></trkpt><trkpt lat="42.06025137942202" lon="13.859301388608571"><ele>494.5</ele><time>2026-04-23T17:30:48.999Z</time></trkpt><trkpt lat="42.05985929516872" lon="13.859328115046608"><ele>502.0</ele><time>2026-04-23T17:30:49.999Z</time></trkpt><trkpt lat="42.05946741270365" lon="13.859364549550806"><ele>501.0</ele><time>2026-04-23T17:30:50.999Z</time></trkpt><trkpt lat="42.05907759350448" lon="13.859406476298428"><ele>500.0</ele><time>2026-04-23T17:30:51.999Z</time></trkpt><trkpt lat="42.05868713689363" lon="13.859442819946244"><ele>493.5</ele><time>2026-04-23T17:30:52.999Z</time></trkpt><trkpt lat="42.05826981382497" lon="13.859473150435946"><ele>487.0</ele><time>2026-04-23T17:30:54.063Z</time></trkpt><trkpt lat="42.057879041693056" lon="13.859505937420185"><ele>487.0</ele><time>2026-04-23T17:30:55.058Z</time></trkpt><trkpt lat="42.057483881984155" lon="13.859546733268337"><ele>487.0</ele><time>2026-04-23T17:30:56.061Z</time></trkpt><trkpt lat="42.05709070288534" lon="13.859595307505394"><ele>468.0</ele><time>2026-04-23T17:30:57.059Z</time></trkpt><trkpt lat="42.05636092521931" lon="13.859350141649696"><ele>468.0</ele><time>2026-04-23T17:30:58.999Z</time></trkpt><trkpt lat="42.05597390600909" lon="13.859355819301761"><ele>468.0</ele><time>2026-04-23T17:30:59.999Z</time></trkpt><trkpt lat="42.05558321951803" lon="13.859356599116396"><ele>466.5</ele><time>2026-04-23T17:31:00.999Z</time></trkpt><trkpt lat="42.05518864027788" lon="13.85936284904779"><ele>465.0</ele><time>2026-04-23T17:31:01.999Z</time></trkpt><trkpt lat="42.05479707894936" lon="13.859372553316456"><ele>459.5</ele><time>2026-04-23T17:31:02.999Z</time></trkpt><trkpt lat="42.05441022220011" lon="13.859380640770457"><ele>454.0</ele><time>2026-04-23T17:31:03.999Z</time></trkpt><trkpt lat="42.054022096395265" lon="13.85939100923524"><ele>453.0</ele><time>2026-04-23T17:31:04.999Z</time></trkpt><trkpt lat="42.05363525542126" lon="13.859394471848855"><ele>452.0</ele><time>2026-04-23T17:31:05.999Z</time></trkpt><trkpt lat="42.05324757952877" lon="13.85939569384507"><ele>452.0</ele><time>2026-04-23T17:31:06.999Z</time></trkpt><trkpt lat="42.052863603543265" lon="13.859392630790547"><ele>452.0</ele><time>2026-04-23T17:31:07.999Z</time></trkpt><trkpt lat="42.052483654744925" lon="13.859383870796949"><ele>454.5</ele><time>2026-04-23T17:31:08.999Z</time></trkpt><trkpt lat="42.052108725376414" lon="13.85936235665356"><ele>457.0</ele><time>2026-04-23T17:31:09.999Z</time></trkpt><trkpt lat="42.051739854766254" lon="13.859324078159943"><ele>470.5</ele><time>2026-04-23T17:31:10.999Z</time></trkpt><trkpt lat="42.05137325448911" lon="13.859267678360693"><ele>484.0</ele><time>2026-04-23T17:31:11.999Z</time></trkpt><trkpt lat="42.05101190348715" lon="13.859184342873256"><ele>480.5</ele><time>2026-04-23T17:31:12.999Z</time></trkpt><trkpt lat="42.05065084649218" lon="13.859092971421155"><ele>477.0</ele><time>2026-04-23T17:31:13.999Z</time></trkpt><trkpt lat="42.05029560671267" lon="13.858980600603987"><ele>473.5</ele><time>2026-04-23T17:31:14.999Z</time></trkpt><trkpt lat="42.04994231250359" lon="13.858849480296875"><ele>470.0</ele><time>2026-04-23T17:31:15.999Z</time></trkpt><trkpt lat="42.04959107218006" lon="13.858704329038007"><ele>470.0</ele><time>2026-04-23T17:31:16.999Z</time></trkpt><trkpt lat="42.04924940437019" lon="13.858539137518703"><ele>470.0</ele><time>2026-04-23T17:31:17.999Z</time></trkpt><trkpt lat="42.04891498928129" lon="13.858360323636932"><ele>478.5</ele><time>2026-04-23T17:31:18.999Z</time></trkpt><trkpt lat="42.04858277463744" lon="13.85816346630866"><ele>487.0</ele><time>2026-04-23T17:31:19.999Z</time></trkpt><trkpt lat="42.04825276987015" lon="13.857949126209917"><ele>487.0</ele><time>2026-04-23T17:31:20.999Z</time></trkpt><trkpt lat="42.04792828195692" lon="13.857720587531743"><ele>487.0</ele><time>2026-04-23T17:31:21.999Z</time></trkpt><trkpt lat="42.04761585590532" lon="13.857476865832503"><ele>488.5</ele><time>2026-04-23T17:31:22.999Z</time></trkpt><trkpt lat="42.04730763506777" lon="13.857217498645596"><ele>490.0</ele><time>2026-04-23T17:31:23.999Z</time></trkpt><trkpt lat="42.0470037207535" lon="13.856940513600957"><ele>495.5</ele><time>2026-04-23T17:31:24.999Z</time></trkpt><trkpt lat="42.04670570162897" lon="13.856642362169119"><ele>501.0</ele><time>2026-04-23T17:31:25.999Z</time></trkpt><trkpt lat="42.0464056679344" lon="13.856340511905959"><ele>493.0</ele><time>2026-04-23T17:31:26.999Z</time></trkpt><trkpt lat="42.0461030265902" lon="13.856041159759373"><ele>485.0</ele><time>2026-04-23T17:31:27.999Z</time></trkpt><trkpt lat="42.045798808897565" lon="13.855753354783726"><ele>481.0</ele><time>2026-04-23T17:31:28.999Z</time></trkpt><trkpt lat="42.0454990030721" lon="13.855479944494375"><ele>477.0</ele><time>2026-04-23T17:31:29.999Z</time></trkpt><trkpt lat="42.04519934031477" lon="13.855220841348064"><ele>493.5</ele><time>2026-04-23T17:31:30.999Z</time></trkpt><trkpt lat="42.04489520408657" lon="13.85498949295817"><ele>510.0</ele><time>2026-04-23T17:31:31.999Z</time></trkpt><trkpt lat="42.04458234509131" lon="13.854777715888257"><ele>510.0</ele><time>2026-04-23T17:31:32.999Z</time></trkpt><trkpt lat="42.0442587445295" lon="13.85457648870998"><ele>510.0</ele><time>2026-04-23T17:31:33.999Z</time></trkpt><trkpt lat="42.04393032596353" lon="13.854377384914862"><ele>509.0</ele><time>2026-04-23T17:31:34.999Z</time></trkpt><trkpt lat="42.043601475061365" lon="13.854173170184929"><ele>508.0</ele><time>2026-04-23T17:31:35.999Z</time></trkpt><trkpt lat="42.043282311806124" lon="13.853955287667429"><ele>508.0</ele><time>2026-04-23T17:31:36.999Z</time></trkpt><trkpt lat="42.042974680269786" lon="13.853724512481943"><ele>508.0</ele><time>2026-04-23T17:31:37.999Z</time></trkpt><trkpt lat="42.042682823771095" lon="13.853482549808698"><ele>507.0</ele><time>2026-04-23T17:31:38.999Z</time></trkpt><trkpt lat="42.04240610595814" lon="13.853218746990413"><ele>506.0</ele><time>2026-04-23T17:31:39.999Z</time></trkpt><trkpt lat="42.042148804641215" lon="13.852945049021653"><ele>506.0</ele><time>2026-04-23T17:31:40.999Z</time></trkpt><trkpt lat="42.04190793876658" lon="13.852646483385172"><ele>506.0</ele><time>2026-04-23T17:31:41.999Z</time></trkpt><trkpt lat="42.04167736572416" lon="13.852335333788593"><ele>507.5</ele><time>2026-04-23T17:31:42.999Z</time></trkpt><trkpt lat="42.04146038216605" lon="13.85199688862751"><ele>509.0</ele><time>2026-04-23T17:31:43.999Z</time></trkpt><trkpt lat="42.04125000496914" lon="13.851643862655289"><ele>509.0</ele><time>2026-04-23T17:31:44.999Z</time></trkpt><trkpt lat="42.041042878595555" lon="13.851282011828225"><ele>509.0</ele><time>2026-04-23T17:31:45.999Z</time></trkpt><trkpt lat="42.04083352385303" lon="13.850922688918516"><ele>499.0</ele><time>2026-04-23T17:31:46.999Z</time></trkpt><trkpt lat="42.040618748951886" lon="13.850572255909842"><ele>489.0</ele><time>2026-04-23T17:31:47.999Z</time></trkpt><trkpt lat="42.040399505786276" lon="13.850234495546392"><ele>486.0</ele><time>2026-04-23T17:31:48.999Z</time></trkpt><trkpt lat="42.04017868526353" lon="13.849903782557314"><ele>483.0</ele><time>2026-04-23T17:31:49.999Z</time></trkpt><trkpt lat="42.03995408783256" lon="13.849584711003146"><ele>489.5</ele><time>2026-04-23T17:31:50.999Z</time></trkpt><trkpt lat="42.03972438606835" lon="13.849274522899321"><ele>496.0</ele><time>2026-04-23T17:31:51.999Z</time></trkpt><trkpt lat="42.03947788530845" lon="13.848971555681043"><ele>496.0</ele><time>2026-04-23T17:31:52.999Z</time></trkpt><trkpt lat="42.039216999896" lon="13.848677790155676"><ele>496.0</ele><time>2026-04-23T17:31:53.999Z</time></trkpt><trkpt lat="42.03894463191249" lon="13.848394465805939"><ele>498.0</ele><time>2026-04-23T17:31:54.999Z</time></trkpt><trkpt lat="42.0386574351257" lon="13.848121518844636"><ele>500.0</ele><time>2026-04-23T17:31:55.999Z</time></trkpt><trkpt lat="42.03836133214212" lon="13.847859229023966"><ele>506.5</ele><time>2026-04-23T17:31:56.999Z</time></trkpt><trkpt lat="42.038053115410904" lon="13.847602557702036"><ele>513.0</ele><time>2026-04-23T17:31:57.999Z</time></trkpt><trkpt lat="42.0377419748793" lon="13.847348061023213"><ele>505.0</ele><time>2026-04-23T17:31:58.999Z</time></trkpt><trkpt lat="42.03742457384964" lon="13.847099095436311"><ele>497.0</ele><time>2026-04-23T17:31:59.999Z</time></trkpt><trkpt lat="42.037107447658784" lon="13.846853399481022"><ele>506.5</ele><time>2026-04-23T17:32:00.999Z</time></trkpt><trkpt lat="42.03679329402031" lon="13.846612222495548"><ele>516.0</ele><time>2026-04-23T17:32:01.999Z</time></trkpt><trkpt lat="42.036486544163665" lon="13.846364229203392"><ele>516.0</ele><time>2026-04-23T17:32:02.999Z</time></trkpt><trkpt lat="42.036195323948874" lon="13.84610760467087"><ele>516.0</ele><time>2026-04-23T17:32:03.999Z</time></trkpt><trkpt lat="42.03592010848777" lon="13.845839342065183"><ele>528.0</ele><time>2026-04-23T17:32:04.999Z</time></trkpt><trkpt lat="42.03566179732456" lon="13.845557350102645"><ele>540.0</ele><time>2026-04-23T17:32:05.999Z</time></trkpt><trkpt lat="42.035411154758776" lon="13.845268909522623"><ele>545.5</ele><time>2026-04-23T17:32:06.998Z</time></trkpt><trkpt lat="42.035178231366174" lon="13.844968297554075"><ele>551.0</ele><time>2026-04-23T17:32:07.998Z</time></trkpt><trkpt lat="42.03495586010828" lon="13.844657233565155"><ele>551.0</ele><time>2026-04-23T17:32:08.998Z</time></trkpt><trkpt lat="42.0347493136264" lon="13.844338991001617"><ele>551.0</ele><time>2026-04-23T17:32:09.998Z</time></trkpt><trkpt lat="42.03455182093002" lon="13.84400131598541"><ele>562.0</ele><time>2026-04-23T17:32:10.998Z</time></trkpt><trkpt lat="42.034354567605334" lon="13.843645962288674"><ele>573.0</ele><time>2026-04-23T17:32:11.998Z</time></trkpt><trkpt lat="42.034155087317664" lon="13.843271223540322"><ele>575.5</ele><time>2026-04-23T17:32:12.998Z</time></trkpt><trkpt lat="42.03395471294154" lon="13.842888641328113"><ele>578.0</ele><time>2026-04-23T17:32:13.998Z</time></trkpt><trkpt lat="42.03375552274766" lon="13.842494844901376"><ele>578.0</ele><time>2026-04-23T17:32:14.998Z</time></trkpt><trkpt lat="42.033554211696654" lon="13.842095468201082"><ele>578.0</ele><time>2026-04-23T17:32:15.998Z</time></trkpt><trkpt lat="42.03334318662816" lon="13.8416981676342"><ele>573.5</ele><time>2026-04-23T17:32:16.998Z</time></trkpt><trkpt lat="42.03313426735938" lon="13.841314195715684"><ele>569.0</ele><time>2026-04-23T17:32:17.998Z</time></trkpt><trkpt lat="42.03291271597304" lon="13.840936475979605"><ele>568.0</ele><time>2026-04-23T17:32:18.998Z</time></trkpt><trkpt lat="42.0326853560661" lon="13.840571385215613"><ele>567.0</ele><time>2026-04-23T17:32:19.998Z</time></trkpt><trkpt lat="42.03244728113602" lon="13.840217647849576"><ele>579.5</ele><time>2026-04-23T17:32:20.998Z</time></trkpt><trkpt lat="42.03220325009344" lon="13.839878438684103"><ele>592.0</ele><time>2026-04-23T17:32:21.998Z</time></trkpt><trkpt lat="42.031948275241774" lon="13.839555781560634"><ele>591.5</ele><time>2026-04-23T17:32:22.998Z</time></trkpt><trkpt lat="42.031685322752246" lon="13.839245972553352"><ele>591.0</ele><time>2026-04-23T17:32:23.998Z</time></trkpt><trkpt lat="42.03141609029601" lon="13.838952148641997"><ele>591.0</ele><time>2026-04-23T17:32:24.998Z</time></trkpt><trkpt lat="42.03114739391849" lon="13.8386777088937"><ele>591.0</ele><time>2026-04-23T17:32:25.998Z</time></trkpt><trkpt lat="42.03087712092075" lon="13.838425740265608"><ele>595.5</ele><time>2026-04-23T17:32:26.998Z</time></trkpt><trkpt lat="42.030596454100454" lon="13.838189285381532"><ele>600.0</ele><time>2026-04-23T17:32:27.999Z</time></trkpt><trkpt lat="42.030304986237894" lon="13.83795861895373"><ele>600.0</ele><time>2026-04-23T17:32:28.999Z</time></trkpt><trkpt lat="42.030007034463154" lon="13.837742744547064"><ele>600.0</ele><time>2026-04-23T17:32:29.999Z</time></trkpt><trkpt lat="42.02969868249618" lon="13.837541293394976"><ele>596.5</ele><time>2026-04-23T17:32:30.999Z</time></trkpt><trkpt lat="42.02938608461636" lon="13.837353531056669"><ele>593.0</ele><time>2026-04-23T17:32:31.999Z</time></trkpt><trkpt lat="42.029062723404195" lon="13.837181044353086"><ele>593.0</ele><time>2026-04-23T17:32:32.999Z</time></trkpt><trkpt lat="42.02872885281494" lon="13.837018689704186"><ele>593.0</ele><time>2026-04-23T17:32:33.999Z</time></trkpt><trkpt lat="42.028383846352284" lon="13.836864756557056"><ele>602.5</ele><time>2026-04-23T17:32:34.999Z</time></trkpt><trkpt lat="42.02803232265328" lon="13.83672455208885"><ele>612.0</ele><time>2026-04-23T17:32:35.999Z</time></trkpt><trkpt lat="42.02767173666416" lon="13.836592323413637"><ele>608.0</ele><time>2026-04-23T17:32:37Z</time></trkpt><trkpt lat="42.027306416171484" lon="13.836466615915848"><ele>604.0</ele><time>2026-04-23T17:32:38Z</time></trkpt><trkpt lat="42.026935263997814" lon="13.8363479818119"><ele>601.5</ele><time>2026-04-23T17:32:39Z</time></trkpt><trkpt lat="42.02656140949633" lon="13.83623564228009"><ele>599.0</ele><time>2026-04-23T17:32:40Z</time></trkpt><trkpt lat="42.026180820083766" lon="13.836125839656267"><ele>593.5</ele><time>2026-04-23T17:32:41Z</time></trkpt><trkpt lat="42.025799285234775" lon="13.836013724544546"><ele>588.0</ele><time>2026-04-23T17:32:42Z</time></trkpt><trkpt lat="42.025418383337254" lon="13.835897642956905"><ele>605.0</ele><time>2026-04-23T17:32:43Z</time></trkpt><trkpt lat="42.02503839061203" lon="13.835781640645026"><ele>622.0</ele><time>2026-04-23T17:32:44Z</time></trkpt><trkpt lat="42.02465962805145" lon="13.835658314252992"><ele>622.0</ele><time>2026-04-23T17:32:45Z</time></trkpt><trkpt lat="42.024283838308904" lon="13.835523273748864"><ele>622.0</ele><time>2026-04-23T17:32:46Z</time></trkpt><trkpt lat="42.023908415660664" lon="13.835384223321123"><ele>619.0</ele><time>2026-04-23T17:32:47Z</time></trkpt><trkpt lat="42.02353342384058" lon="13.835236808213526"><ele>616.0</ele><time>2026-04-23T17:32:48Z</time></trkpt><trkpt lat="42.02317008342102" lon="13.835080775749411"><ele>625.5</ele><time>2026-04-23T17:32:49Z</time></trkpt><trkpt lat="42.022824025757195" lon="13.834912088327146"><ele>635.0</ele><time>2026-04-23T17:32:50Z</time></trkpt><trkpt lat="42.022493632107576" lon="13.834720345764309"><ele>638.0</ele><time>2026-04-23T17:32:51Z</time></trkpt><trkpt lat="42.02216567119807" lon="13.834512998571185"><ele>641.0</ele><time>2026-04-23T17:32:52Z</time></trkpt><trkpt lat="42.02183888991497" lon="13.834288234689119"><ele>629.0</ele><time>2026-04-23T17:32:53Z</time></trkpt><trkpt lat="42.02152010030536" lon="13.834049134498487"><ele>617.0</ele><time>2026-04-23T17:32:54Z</time></trkpt><trkpt lat="42.021209295923605" lon="13.833801743368246"><ele>617.0</ele><time>2026-04-23T17:32:55Z</time></trkpt><trkpt lat="42.020927281289254" lon="13.833536053013944"><ele>617.0</ele><time>2026-04-23T17:32:56Z</time></trkpt><trkpt lat="42.020666194215565" lon="13.8332579085381"><ele>622.0</ele><time>2026-04-23T17:32:57Z</time></trkpt><trkpt lat="42.02042290532779" lon="13.832959829425308"><ele>627.0</ele><time>2026-04-23T17:32:58Z</time></trkpt><trkpt lat="42.020195896890776" lon="13.832645879753976"><ele>623.5</ele><time>2026-04-23T17:32:59Z</time></trkpt><trkpt lat="42.01998707346435" lon="13.83231564239707"><ele>620.0</ele><time>2026-04-23T17:33:00Z</time></trkpt><trkpt lat="42.01979565493287" lon="13.831972288145"><ele>632.0</ele><time>2026-04-23T17:33:01Z</time></trkpt><trkpt lat="42.019619742825085" lon="13.831610675513282"><ele>644.0</ele><time>2026-04-23T17:33:02Z</time></trkpt><trkpt lat="42.01945597462181" lon="13.831230477047335"><ele>654.0</ele><time>2026-04-23T17:33:03Z</time></trkpt><trkpt lat="42.01930544422085" lon="13.830821625944036"><ele>664.0</ele><time>2026-04-23T17:33:04Z</time></trkpt><trkpt lat="42.01915551571735" lon="13.83038967207736"><ele>640.5</ele><time>2026-04-23T17:33:05Z</time></trkpt><trkpt lat="42.018996867863365" lon="13.82995479125503"><ele>617.0</ele><time>2026-04-23T17:33:06Z</time></trkpt><trkpt lat="42.01883364296087" lon="13.829518359680918"><ele>622.5</ele><time>2026-04-23T17:33:07Z</time></trkpt><trkpt lat="42.01867851171807" lon="13.829104603673747"><ele>628.0</ele><time>2026-04-23T17:33:08Z</time></trkpt><trkpt lat="42.01852040592571" lon="13.828713311548228"><ele>628.0</ele><time>2026-04-23T17:33:09Z</time></trkpt><trkpt lat="42.01835997223395" lon="13.82834281601307"><ele>628.0</ele><time>2026-04-23T17:33:10Z</time></trkpt><trkpt lat="42.01819421655098" lon="13.827999952049748"><ele>628.0</ele><time>2026-04-23T17:33:11Z</time></trkpt><trkpt lat="42.018024891475875" lon="13.82768420802373"><ele>628.0</ele><time>2026-04-23T17:33:12Z</time></trkpt><trkpt lat="42.01788143619132" lon="13.827379912143567"><ele>632.0</ele><time>2026-04-23T17:33:13Z</time></trkpt><trkpt lat="42.017698123150765" lon="13.827139014104281"><ele>636.0</ele><time>2026-04-23T17:33:14Z</time></trkpt><trkpt lat="42.017468649694294" lon="13.826892699714143"><ele>656.5</ele><time>2026-04-23T17:33:15Z</time></trkpt><trkpt lat="42.017275507439145" lon="13.826676349665902"><ele>677.0</ele><time>2026-04-23T17:33:16Z</time></trkpt><trkpt lat="42.017089918000515" lon="13.826486084778097"><ele>677.0</ele><time>2026-04-23T17:33:17Z</time></trkpt><trkpt lat="42.01690733465635" lon="13.826326145094356"><ele>677.0</ele><time>2026-04-23T17:33:18Z</time></trkpt><trkpt lat="42.01673520487377" lon="13.826190291028858"><ele>677.0</ele><time>2026-04-23T17:33:19Z</time></trkpt><trkpt lat="42.0165691498712" lon="13.826068672423565"><ele>680.6666666666666</ele><time>2026-04-23T17:33:20Z</time></trkpt><trkpt lat="42.01640755825525" lon="13.825963828293785"><ele>684.3333333333334</ele><time>2026-04-23T17:33:21Z</time></trkpt><trkpt lat="42.016256129990126" lon="13.825874560175897"><ele>688.0</ele><time>2026-04-23T17:33:22Z</time></trkpt><trkpt lat="42.01611381912022" lon="13.82579060363093"><ele>688.0</ele><time>2026-04-23T17:33:23Z</time></trkpt><trkpt lat="42.01598173459094" lon="13.82571836875794"><ele>688.0</ele><time>2026-04-23T17:33:24Z</time></trkpt><trkpt lat="42.015863392915115" lon="13.825649709254758"><ele>688.0</ele><time>2026-04-23T17:33:25Z</time></trkpt><trkpt lat="42.01575482546417" lon="13.825590506596008"><ele>688.0</ele><time>2026-04-23T17:33:26Z</time></trkpt><trkpt lat="42.01564797672237" lon="13.825524100995077"><ele>683.25</ele><time>2026-04-23T17:33:27Z</time></trkpt><trkpt lat="42.01553725302492" lon="13.825453376488527"><ele>678.5</ele><time>2026-04-23T17:33:28Z</time></trkpt><trkpt lat="42.01542101393944" lon="13.82537974301028"><ele>673.75</ele><time>2026-04-23T17:33:29Z</time></trkpt><trkpt lat="42.015303049212925" lon="13.825301472795262"><ele>669.0</ele><time>2026-04-23T17:33:30Z</time></trkpt><trkpt lat="42.015192122153174" lon="13.825227103600605"><ele>669.0</ele><time>2026-04-23T17:33:31Z</time></trkpt><trkpt lat="42.0150872566277" lon="13.825155180826675"><ele>669.0</ele><time>2026-04-23T17:33:32Z</time></trkpt><trkpt lat="42.01498367211387" lon="13.82507932465046"><ele>669.0</ele><time>2026-04-23T17:33:33Z</time></trkpt><trkpt lat="42.014883041923284" lon="13.82499915092926"><ele>669.0</ele><time>2026-04-23T17:33:34Z</time></trkpt><trkpt lat="42.01478210178702" lon="13.824917146044013"><ele>676.75</ele><time>2026-04-23T17:33:35Z</time></trkpt><trkpt lat="42.014671298284725" lon="13.824825238307696"><ele>684.5</ele><time>2026-04-23T17:33:36Z</time></trkpt><trkpt lat="42.01455487763254" lon="13.824729822780911"><ele>692.25</ele><time>2026-04-23T17:33:37Z</time></trkpt><trkpt lat="42.01444495283757" lon="13.824635088889707"><ele>700.0</ele><time>2026-04-23T17:33:38Z</time></trkpt><trkpt lat="42.014335690011436" lon="13.824530899634793"><ele>700.0</ele><time>2026-04-23T17:33:39Z</time></trkpt><trkpt lat="42.014220165155145" lon="13.824415580792323"><ele>700.0</ele><time>2026-04-23T17:33:40Z</time></trkpt><trkpt lat="42.014117770403566" lon="13.824335380276407"><ele>700.0</ele><time>2026-04-23T17:33:41Z</time></trkpt><trkpt lat="42.01401886911493" lon="13.82424130884552"><ele>700.0</ele><time>2026-04-23T17:33:42Z</time></trkpt><trkpt lat="42.01391748600913" lon="13.824135679957077"><ele>705.75</ele><time>2026-04-23T17:33:43Z</time></trkpt><trkpt lat="42.01381657986682" lon="13.824026286372279"><ele>711.5</ele><time>2026-04-23T17:33:44Z</time></trkpt><trkpt lat="42.01371913363263" lon="13.823919211185887"><ele>717.25</ele><time>2026-04-23T17:33:45Z</time></trkpt><trkpt lat="42.01362388612598" lon="13.823797794237166"><ele>723.0</ele><time>2026-04-23T17:33:46.065Z</time></trkpt><trkpt lat="42.01353807340026" lon="13.82368107265581"><ele>723.0</ele><time>2026-04-23T17:33:47.06Z</time></trkpt><trkpt lat="42.01344950325538" lon="13.823569177131231"><ele>723.0</ele><time>2026-04-23T17:33:48.039Z</time></trkpt><trkpt lat="42.01246071409491" lon="13.821210295783189"><ele>684.0</ele><time>2026-04-23T17:33:51.407Z</time></trkpt><trkpt lat="42.01239448161703" lon="13.820242722105212"><ele>687.0</ele><time>2026-04-23T17:34:08.999Z</time></trkpt><trkpt lat="42.01225974494295" lon="13.820103565509926"><ele>690.0</ele><time>2026-04-23T17:34:09.999Z</time></trkpt><trkpt lat="42.01222412997953" lon="13.819957238217624"><ele>693.0</ele><time>2026-04-23T17:34:10.999Z</time></trkpt><trkpt lat="42.01218245054615" lon="13.819810590425652"><ele>696.0</ele><time>2026-04-23T17:34:11.999Z</time></trkpt><trkpt lat="42.01217657273433" lon="13.819623273046771"><ele>696.0</ele><time>2026-04-23T17:34:12.999Z</time></trkpt><trkpt lat="42.012150393916464" lon="13.819449686032877"><ele>696.0</ele><time>2026-04-23T17:34:13.999Z</time></trkpt><trkpt lat="42.012120327937744" lon="13.819273696109894"><ele>696.0</ele><time>2026-04-23T17:34:14.999Z</time></trkpt><trkpt lat="42.012097778573576" lon="13.819092826659142"><ele>696.0</ele><time>2026-04-23T17:34:15.999Z</time></trkpt><trkpt lat="42.012073726215036" lon="13.81891618515718"><ele>698.25</ele><time>2026-04-23T17:34:16.999Z</time></trkpt><trkpt lat="42.012053527648554" lon="13.818736877124325"><ele>700.5</ele><time>2026-04-23T17:34:17.999Z</time></trkpt><trkpt lat="42.0120302897177" lon="13.81856476018007"><ele>702.75</ele><time>2026-04-23T17:34:18.999Z</time></trkpt><trkpt lat="42.01200743809351" lon="13.818387298467481"><ele>705.0</ele><time>2026-04-23T17:34:19.999Z</time></trkpt><trkpt lat="42.011983762027654" lon="13.818208623172367"><ele>707.75</ele><time>2026-04-23T17:34:20.999Z</time></trkpt><trkpt lat="42.01196299467413" lon="13.818028765815384"><ele>710.5</ele><time>2026-04-23T17:34:21.999Z</time></trkpt><trkpt lat="42.01194282917003" lon="13.81784444834803"><ele>713.25</ele><time>2026-04-23T17:34:22.999Z</time></trkpt><trkpt lat="42.01192131216533" lon="13.817661485305676"><ele>716.0</ele><time>2026-04-23T17:34:23.999Z</time></trkpt><trkpt lat="42.011897346884076" lon="13.817474861678454"><ele>718.75</ele><time>2026-04-23T17:34:24.999Z</time></trkpt><trkpt lat="42.01187189226356" lon="13.817285537128258"><ele>721.5</ele><time>2026-04-23T17:34:25.999Z</time></trkpt><trkpt lat="42.01184706757958" lon="13.817094989184024"><ele>724.25</ele><time>2026-04-23T17:34:26.999Z</time></trkpt><trkpt lat="42.01182623901815" lon="13.816899749359651"><ele>727.0</ele><time>2026-04-23T17:34:27.999Z</time></trkpt><trkpt lat="42.011799105276786" lon="13.816719916625518"><ele>728.5</ele><time>2026-04-23T17:34:28.999Z</time></trkpt><trkpt lat="42.011782842547966" lon="13.816538715313067"><ele>730.0</ele><time>2026-04-23T17:34:29.999Z</time></trkpt><trkpt lat="42.01176174537848" lon="13.816377260723623"><ele>731.5</ele><time>2026-04-23T17:34:30.999Z</time></trkpt><trkpt lat="42.011740640094544" lon="13.81622759399512"><ele>733.0</ele><time>2026-04-23T17:34:31.999Z</time></trkpt><trkpt lat="42.01172641618878" lon="13.816087144104062"><ele>734.0</ele><time>2026-04-23T17:34:32.999Z</time></trkpt><trkpt lat="42.01170848744277" lon="13.815945620055976"><ele>735.0</ele><time>2026-04-23T17:34:34Z</time></trkpt><trkpt lat="42.01169166060873" lon="13.815801426592898"><ele>736.0</ele><time>2026-04-23T17:34:35Z</time></trkpt><trkpt lat="42.01167861276479" lon="13.815645389912966"><ele>737.0</ele><time>2026-04-23T17:34:36Z</time></trkpt><trkpt lat="42.01165931713664" lon="13.815491780256192"><ele>738.0</ele><time>2026-04-23T17:34:37Z</time></trkpt><trkpt lat="42.01163581083258" lon="13.815331365397247"><ele>727.5</ele><time>2026-04-23T17:34:38Z</time></trkpt><trkpt lat="42.01161732056349" lon="13.815169215360978"><ele>717.0</ele><time>2026-04-23T17:34:39Z</time></trkpt><trkpt lat="42.01159897616225" lon="13.815002052378178"><ele>706.5</ele><time>2026-04-23T17:34:40Z</time></trkpt><trkpt lat="42.011580945769786" lon="13.814827318128884"><ele>696.0</ele><time>2026-04-23T17:34:41Z</time></trkpt><trkpt lat="42.011560897271366" lon="13.814650765692608"><ele>695.75</ele><time>2026-04-23T17:34:42Z</time></trkpt><trkpt lat="42.011544932199726" lon="13.814470215230058"><ele>695.5</ele><time>2026-04-23T17:34:43Z</time></trkpt><trkpt lat="42.01152627990735" lon="13.814280382062417"><ele>695.25</ele><time>2026-04-23T17:34:44Z</time></trkpt><trkpt lat="42.01150862715029" lon="13.814086458197663"><ele>695.0</ele><time>2026-04-23T17:34:45Z</time></trkpt><trkpt lat="42.01148487154487" lon="13.813890774177466"><ele>698.0</ele><time>2026-04-23T17:34:46Z</time></trkpt><trkpt lat="42.01147254023967" lon="13.813703609808961"><ele>701.0</ele><time>2026-04-23T17:34:47Z</time></trkpt><trkpt lat="42.01145857239613" lon="13.813511442829522"><ele>704.0</ele><time>2026-04-23T17:34:48Z</time></trkpt><trkpt lat="42.0114576642928" lon="13.813307863468795"><ele>707.0</ele><time>2026-04-23T17:34:49Z</time></trkpt><trkpt lat="42.01142940435419" lon="13.81312078989032"><ele>711.3333333333333</ele><time>2026-04-23T17:34:50Z</time></trkpt><trkpt lat="42.01142149145543" lon="13.812920589956404"><ele>715.6666666666666</ele><time>2026-04-23T17:34:51Z</time></trkpt><trkpt lat="42.011409485811456" lon="13.8127156529109"><ele>720.0</ele><time>2026-04-23T17:34:52Z</time></trkpt><trkpt lat="42.011401656623846" lon="13.812502631536884"><ele>722.6666666666666</ele><time>2026-04-23T17:34:53Z</time></trkpt><trkpt lat="42.01139390200838" lon="13.81227724416481"><ele>725.3333333333333</ele><time>2026-04-23T17:34:54Z</time></trkpt><trkpt lat="42.01138513479334" lon="13.81204637207014"><ele>728.0</ele><time>2026-04-23T17:34:55Z</time></trkpt><trkpt lat="42.011382173507556" lon="13.811807396135187"><ele>728.5</ele><time>2026-04-23T17:34:56Z</time></trkpt><trkpt lat="42.01138038809657" lon="13.811588925538139"><ele>729.0</ele><time>2026-04-23T17:34:57Z</time></trkpt><trkpt lat="42.01138165974401" lon="13.811391329389348"><ele>729.5</ele><time>2026-04-23T17:34:58Z</time></trkpt><trkpt lat="42.01138682951806" lon="13.811218756146397"><ele>730.0</ele><time>2026-04-23T17:34:59Z</time></trkpt><trkpt lat="42.011388423516394" lon="13.811053145316677"><ele>731.0</ele><time>2026-04-23T17:35:00Z</time></trkpt><trkpt lat="42.01139803075246" lon="13.810886352196366"><ele>732.0</ele><time>2026-04-23T17:35:01Z</time></trkpt><trkpt lat="42.01140770935468" lon="13.810718471175738"><ele>733.0</ele><time>2026-04-23T17:35:02Z</time></trkpt><trkpt lat="42.011418578036555" lon="13.810546101753134"><ele>734.0</ele><time>2026-04-23T17:35:03Z</time></trkpt><trkpt lat="42.01143175610412" lon="13.81036948255059"><ele>734.0</ele><time>2026-04-23T17:35:04Z</time></trkpt><trkpt lat="42.01144520648251" lon="13.810187258462642"><ele>734.0</ele><time>2026-04-23T17:35:05Z</time></trkpt><trkpt lat="42.01146433955111" lon="13.809993171800713"><ele>734.0</ele><time>2026-04-23T17:35:06Z</time></trkpt><trkpt lat="42.01148438256008" lon="13.809793133098653"><ele>734.0</ele><time>2026-04-23T17:35:07Z</time></trkpt><trkpt lat="42.011504528179756" lon="13.80958908033123"><ele>733.0</ele><time>2026-04-23T17:35:08Z</time></trkpt><trkpt lat="42.011529280652745" lon="13.80938858269636"><ele>732.0</ele><time>2026-04-23T17:35:09Z</time></trkpt><trkpt lat="42.011554451166376" lon="13.809185231057135"><ele>731.0</ele><time>2026-04-23T17:35:10Z</time></trkpt><trkpt lat="42.01158317810396" lon="13.808981108008592"><ele>731.0</ele><time>2026-04-23T17:35:11Z</time></trkpt><trkpt lat="42.01161760763204" lon="13.808772502063382"><ele>731.0</ele><time>2026-04-23T17:35:12Z</time></trkpt><trkpt lat="42.011652684529366" lon="13.808562120127585"><ele>731.0</ele><time>2026-04-23T17:35:13Z</time></trkpt><trkpt lat="42.0116938540219" lon="13.808353103188384"><ele>738.0</ele><time>2026-04-23T17:35:14Z</time></trkpt><trkpt lat="42.011737064703176" lon="13.80815252027984"><ele>745.0</ele><time>2026-04-23T17:35:15Z</time></trkpt><trkpt lat="42.01178216502307" lon="13.807961314413205"><ele>752.0</ele><time>2026-04-23T17:35:16Z</time></trkpt><trkpt lat="42.0118292463649" lon="13.80776752073878"><ele>751.0</ele><time>2026-04-23T17:35:17Z</time></trkpt><trkpt lat="42.01187733267251" lon="13.807569726443148"><ele>750.0</ele><time>2026-04-23T17:35:18Z</time></trkpt><trkpt lat="42.011930062780735" lon="13.80736962639067"><ele>749.0</ele><time>2026-04-23T17:35:19Z</time></trkpt><trkpt lat="42.01198729146097" lon="13.807171699276015"><ele>749.0</ele><time>2026-04-23T17:35:20Z</time></trkpt><trkpt lat="42.0120453102896" lon="13.80697726095391"><ele>749.0</ele><time>2026-04-23T17:35:21Z</time></trkpt><trkpt lat="42.01210599858106" lon="13.806781201001401"><ele>749.0</ele><time>2026-04-23T17:35:22Z</time></trkpt><trkpt lat="42.01216816931092" lon="13.806585426573628"><ele>747.0</ele><time>2026-04-23T17:35:23Z</time></trkpt><trkpt lat="42.012233649339414" lon="13.806394493983134"><ele>745.0</ele><time>2026-04-23T17:35:24Z</time></trkpt><trkpt lat="42.01229863937703" lon="13.806206556173734"><ele>743.0</ele><time>2026-04-23T17:35:25Z</time></trkpt><trkpt lat="42.01236559342026" lon="13.80602101339803"><ele>742.6666666666666</ele><time>2026-04-23T17:35:26Z</time></trkpt><trkpt lat="42.012435133868266" lon="13.80583526258649"><ele>742.3333333333334</ele><time>2026-04-23T17:35:27Z</time></trkpt><trkpt lat="42.012506447973195" lon="13.80564251325424"><ele>742.0</ele><time>2026-04-23T17:35:28Z</time></trkpt><trkpt lat="42.012583848665614" lon="13.80544300642583"><ele>746.6666666666667</ele><time>2026-04-23T17:35:29Z</time></trkpt><trkpt lat="42.012660210355456" lon="13.805242834338653"><ele>751.3333333333334</ele><time>2026-04-23T17:35:30Z</time></trkpt><trkpt lat="42.01273368315375" lon="13.805042676835264"><ele>756.0</ele><time>2026-04-23T17:35:31Z</time></trkpt><trkpt lat="42.01280971191404" lon="13.804836530008536"><ele>756.0</ele><time>2026-04-23T17:35:32Z</time></trkpt><trkpt lat="42.01288826876718" lon="13.804619556670998"><ele>756.0</ele><time>2026-04-23T17:35:33Z</time></trkpt><trkpt lat="42.01297008436928" lon="13.804386097930129"><ele>756.0</ele><time>2026-04-23T17:35:34Z</time></trkpt><trkpt lat="42.01305889348583" lon="13.804140489155895"><ele>752.3333333333334</ele><time>2026-04-23T17:35:35Z</time></trkpt><trkpt lat="42.01315257061748" lon="13.803879166385899"><ele>748.6666666666667</ele><time>2026-04-23T17:35:36Z</time></trkpt><trkpt lat="42.0132471650219" lon="13.803614338029819"><ele>745.0</ele><time>2026-04-23T17:35:37Z</time></trkpt><trkpt lat="42.01333640659799" lon="13.803331438200184"><ele>756.0</ele><time>2026-04-23T17:35:38Z</time></trkpt><trkpt lat="42.013427269830956" lon="13.803021949057898"><ele>767.0</ele><time>2026-04-23T17:35:39Z</time></trkpt><trkpt lat="42.01352266658621" lon="13.80267290884108"><ele>760.5</ele><time>2026-04-23T17:35:40Z</time></trkpt><trkpt lat="42.01361710366652" lon="13.80229664432212"><ele>754.0</ele><time>2026-04-23T17:35:41Z</time></trkpt><trkpt lat="42.013719322789164" lon="13.801907307664134"><ele>748.0</ele><time>2026-04-23T17:35:42Z</time></trkpt><trkpt lat="42.01381977188207" lon="13.801538340948186"><ele>742.0</ele><time>2026-04-23T17:35:43Z</time></trkpt><trkpt lat="42.01391192094509" lon="13.801181439470657"><ele>738.0</ele><time>2026-04-23T17:35:44Z</time></trkpt><trkpt lat="42.01399680444629" lon="13.800823394510644"><ele>734.0</ele><time>2026-04-23T17:35:45Z</time></trkpt><trkpt lat="42.0140840588461" lon="13.800457987078488"><ele>749.0</ele><time>2026-04-23T17:35:46Z</time></trkpt><trkpt lat="42.014179020204544" lon="13.800078828929228"><ele>764.0</ele><time>2026-04-23T17:35:47Z</time></trkpt><trkpt lat="42.0142774423357" lon="13.79970747048534"><ele>764.5</ele><time>2026-04-23T17:35:48Z</time></trkpt><trkpt lat="42.01438202952761" lon="13.799332924528047"><ele>765.0</ele><time>2026-04-23T17:35:49Z</time></trkpt><trkpt lat="42.014487273349474" lon="13.798968619872085"><ele>765.0</ele><time>2026-04-23T17:35:50Z</time></trkpt><trkpt lat="42.01460200761485" lon="13.798605898330122"><ele>765.0</ele><time>2026-04-23T17:35:51Z</time></trkpt><trkpt lat="42.014722173497084" lon="13.798242198924465"><ele>766.5</ele><time>2026-04-23T17:35:52Z</time></trkpt><trkpt lat="42.014855475573114" lon="13.79787679877466"><ele>768.0</ele><time>2026-04-23T17:35:53Z</time></trkpt><trkpt lat="42.014996898152376" lon="13.797527669331828"><ele>773.5</ele><time>2026-04-23T17:35:54Z</time></trkpt><trkpt lat="42.015148387930246" lon="13.79719303197388"><ele>779.0</ele><time>2026-04-23T17:35:55Z</time></trkpt><trkpt lat="42.015312684382685" lon="13.796874840738447"><ele>776.0</ele><time>2026-04-23T17:35:56Z</time></trkpt><trkpt lat="42.01548444798201" lon="13.796557357245833"><ele>773.0</ele><time>2026-04-23T17:35:57Z</time></trkpt><trkpt lat="42.015675141762856" lon="13.796253440518175"><ele>776.0</ele><time>2026-04-23T17:35:58Z</time></trkpt><trkpt lat="42.015875220107816" lon="13.795956477550675"><ele>779.0</ele><time>2026-04-23T17:35:59Z</time></trkpt><trkpt lat="42.01608780164695" lon="13.79566199853042"><ele>779.0</ele><time>2026-04-23T17:36:00Z</time></trkpt><trkpt lat="42.016318183858864" lon="13.795350069764318"><ele>779.0</ele><time>2026-04-23T17:36:01Z</time></trkpt><trkpt lat="42.01656439560156" lon="13.795034285087576"><ele>778.5</ele><time>2026-04-23T17:36:02Z</time></trkpt><trkpt lat="42.01681912503839" lon="13.794728801108482"><ele>778.0</ele><time>2026-04-23T17:36:03Z</time></trkpt><trkpt lat="42.017086806240876" lon="13.794421845107937"><ele>777.0</ele><time>2026-04-23T17:36:04Z</time></trkpt><trkpt lat="42.01736707275129" lon="13.794111733135876"><ele>776.0</ele><time>2026-04-23T17:36:05Z</time></trkpt><trkpt lat="42.017655133189564" lon="13.79379358614286"><ele>770.0</ele><time>2026-04-23T17:36:06Z</time></trkpt><trkpt lat="42.017949561909965" lon="13.793463126099017"><ele>764.0</ele><time>2026-04-23T17:36:07Z</time></trkpt><trkpt lat="42.01825305789479" lon="13.793124920120833"><ele>766.0</ele><time>2026-04-23T17:36:07.999Z</time></trkpt><trkpt lat="42.018561788701504" lon="13.79277954693696"><ele>768.0</ele><time>2026-04-23T17:36:08.999Z</time></trkpt><trkpt lat="42.018872441234286" lon="13.792428170436645"><ele>770.0</ele><time>2026-04-23T17:36:09.999Z</time></trkpt><trkpt lat="42.019188884706374" lon="13.792069725574542"><ele>772.0</ele><time>2026-04-23T17:36:10.999Z</time></trkpt><trkpt lat="42.01950919634752" lon="13.791705950439292"><ele>772.0</ele><time>2026-04-23T17:36:11.999Z</time></trkpt><trkpt lat="42.01983350291985" lon="13.791337348354807"><ele>772.0</ele><time>2026-04-23T17:36:12.999Z</time></trkpt><trkpt lat="42.0201613635037" lon="13.790969896483334"><ele>774.0</ele><time>2026-04-23T17:36:13.999Z</time></trkpt><trkpt lat="42.02049288579989" lon="13.790605718261373"><ele>776.0</ele><time>2026-04-23T17:36:14.999Z</time></trkpt><trkpt lat="42.02081984659267" lon="13.79024262269344"><ele>779.0</ele><time>2026-04-23T17:36:15.999Z</time></trkpt><trkpt lat="42.02113522499899" lon="13.789892377138788"><ele>782.0</ele><time>2026-04-23T17:36:16.999Z</time></trkpt><trkpt lat="42.02144076850425" lon="13.789552940377156"><ele>785.0</ele><time>2026-04-23T17:36:17.999Z</time></trkpt><trkpt lat="42.02174093894155" lon="13.789216761738675"><ele>788.0</ele><time>2026-04-23T17:36:18.999Z</time></trkpt><trkpt lat="42.022038552222625" lon="13.788879727454729"><ele>788.0</ele><time>2026-04-23T17:36:19.999Z</time></trkpt><trkpt lat="42.02232981961686" lon="13.788545631240181"><ele>788.0</ele><time>2026-04-23T17:36:20.999Z</time></trkpt><trkpt lat="42.022616188504536" lon="13.788209534180844"><ele>787.0</ele><time>2026-04-23T17:36:21.999Z</time></trkpt><trkpt lat="42.02289710931625" lon="13.787863624721144"><ele>786.0</ele><time>2026-04-23T17:36:22.999Z</time></trkpt><trkpt lat="42.02317284672653" lon="13.787509475506614"><ele>784.5</ele><time>2026-04-23T17:36:23.999Z</time></trkpt><trkpt lat="42.02344334169557" lon="13.787150426689248"><ele>783.0</ele><time>2026-04-23T17:36:24.999Z</time></trkpt><trkpt lat="42.023713079900354" lon="13.786784964963237"><ele>783.0</ele><time>2026-04-23T17:36:25.999Z</time></trkpt><trkpt lat="42.02397528913655" lon="13.786417831115195"><ele>783.0</ele><time>2026-04-23T17:36:26.999Z</time></trkpt><trkpt lat="42.02422997097385" lon="13.786045933352108"><ele>784.0</ele><time>2026-04-23T17:36:27.999Z</time></trkpt><trkpt lat="42.02447725193056" lon="13.785661484095474"><ele>785.0</ele><time>2026-04-23T17:36:28.999Z</time></trkpt><trkpt lat="42.024709984081575" lon="13.785272397109617"><ele>785.0</ele><time>2026-04-23T17:36:29.999Z</time></trkpt><trkpt lat="42.024934872002895" lon="13.784867136341278"><ele>785.0</ele><time>2026-04-23T17:36:30.999Z</time></trkpt><trkpt lat="42.02514860386021" lon="13.784446475874777"><ele>779.5</ele><time>2026-04-23T17:36:31.999Z</time></trkpt><trkpt lat="42.025351903963674" lon="13.78402246836682"><ele>774.0</ele><time>2026-04-23T17:36:32.999Z</time></trkpt><trkpt lat="42.02554261248617" lon="13.783590561568971"><ele>770.5</ele><time>2026-04-23T17:36:33.999Z</time></trkpt><trkpt lat="42.02572268997695" lon="13.78315516610488"><ele>767.0</ele><time>2026-04-23T17:36:34.999Z</time></trkpt><trkpt lat="42.02588606246864" lon="13.782718849042864"><ele>769.5</ele><time>2026-04-23T17:36:35.999Z</time></trkpt><trkpt lat="42.02603070029758" lon="13.782277529623757"><ele>772.0</ele><time>2026-04-23T17:36:36.999Z</time></trkpt><trkpt lat="42.02616517016816" lon="13.781828059312737"><ele>775.5</ele><time>2026-04-23T17:36:37.999Z</time></trkpt><trkpt lat="42.026283319055416" lon="13.781372667569821"><ele>779.0</ele><time>2026-04-23T17:36:38.999Z</time></trkpt><trkpt lat="42.02639067104798" lon="13.780912557575872"><ele>783.0</ele><time>2026-04-23T17:36:40Z</time></trkpt><trkpt lat="42.02648581521221" lon="13.780451350694005"><ele>787.0</ele><time>2026-04-23T17:36:41Z</time></trkpt><trkpt lat="42.02656418696612" lon="13.779986862164721"><ele>792.5</ele><time>2026-04-23T17:36:42Z</time></trkpt><trkpt lat="42.02662614171383" lon="13.779515597685094"><ele>798.0</ele><time>2026-04-23T17:36:43Z</time></trkpt><trkpt lat="42.02667336951822" lon="13.779043523279961"><ele>801.5</ele><time>2026-04-23T17:36:44Z</time></trkpt><trkpt lat="42.02670795197528" lon="13.778572795019288"><ele>805.0</ele><time>2026-04-23T17:36:45Z</time></trkpt><trkpt lat="42.02673046116971" lon="13.778104333936524"><ele>820.0</ele><time>2026-04-23T17:36:46Z</time></trkpt><trkpt lat="42.02673947489985" lon="13.77763814437306"><ele>835.0</ele><time>2026-04-23T17:36:47Z</time></trkpt><trkpt lat="42.026730104605946" lon="13.777178588530996"><ele>848.5</ele><time>2026-04-23T17:36:48Z</time></trkpt><trkpt lat="42.026703818178255" lon="13.776721026071026"><ele>862.0</ele><time>2026-04-23T17:36:49Z</time></trkpt><trkpt lat="42.0266654957338" lon="13.776262672419628"><ele>887.5</ele><time>2026-04-23T17:36:50Z</time></trkpt><trkpt lat="42.02662818724084" lon="13.77580486980564"><ele>913.0</ele><time>2026-04-23T17:36:51Z</time></trkpt><trkpt lat="42.02659396182068" lon="13.775346314986438"><ele>932.0</ele><time>2026-04-23T17:36:52Z</time></trkpt><trkpt lat="42.02655373329113" lon="13.77484659764927"><ele>951.0</ele><time>2026-04-23T17:36:53.058Z</time></trkpt><trkpt lat="42.02651997523683" lon="13.774387584393413"><ele>972.5</ele><time>2026-04-23T17:36:54.058Z</time></trkpt><trkpt lat="42.02647941762942" lon="13.773929907810261"><ele>994.0</ele><time>2026-04-23T17:36:55.059Z</time></trkpt><trkpt lat="42.02642967232175" lon="13.773470912078512"><ele>1012.5</ele><time>2026-04-23T17:36:56.06Z</time></trkpt><trkpt lat="42.026377916176635" lon="13.773008834888845"><ele>1031.0</ele><time>2026-04-23T17:36:57.058Z</time></trkpt><trkpt lat="42.02633124203611" lon="13.772550865221346"><ele>1154.0</ele><time>2026-04-23T17:36:58.047Z</time></trkpt><trkpt lat="42.02603333008714" lon="13.769869222952863"><ele>1180.0</ele><time>2026-04-23T17:37:01.406Z</time></trkpt><trkpt lat="42.02592663936885" lon="13.768914792022535"><ele>1190.0</ele><time>2026-04-23T17:37:02.405Z</time></trkpt><trkpt lat="42.02581864796161" lon="13.76795972380085"><ele>1199.0</ele><time>2026-04-23T17:37:03.405Z</time></trkpt><trkpt lat="42.02570955749285" lon="13.76700485548793"><ele>1200.0</ele><time>2026-04-23T17:37:04.405Z</time></trkpt><trkpt lat="42.025601279527066" lon="13.76604985408673"><ele>1207.5</ele><time>2026-04-23T17:37:05.405Z</time></trkpt><trkpt lat="42.0255808" lon="13.7658691"><ele>1215.0</ele><time>2026-04-23T17:37:06.403Z</time></trkpt><trkpt lat="42.020659487071775" lon="13.722668341921738"><ele>1038.0</ele><time>2026-04-23T17:38:32.999Z</time></trkpt><trkpt lat="42.020590514334174" lon="13.722165456551233"><ele>861.0</ele><time>2026-04-23T17:38:33.999Z</time></trkpt><trkpt lat="42.02055386105306" lon="13.721585792960669"><ele>861.0</ele><time>2026-04-23T17:38:34.999Z</time></trkpt><trkpt lat="42.020516555872234" lon="13.721117877483636"><ele>861.0</ele><time>2026-04-23T17:38:35.999Z</time></trkpt><trkpt lat="42.02045507825645" lon="13.720617537027545"><ele>859.0</ele><time>2026-04-23T17:38:36.999Z</time></trkpt><trkpt lat="42.02039175346986" lon="13.720118940048094"><ele>857.0</ele><time>2026-04-23T17:38:37.999Z</time></trkpt><trkpt lat="42.02034272854197" lon="13.719593134837542"><ele>856.0</ele><time>2026-04-23T17:38:38.999Z</time></trkpt><trkpt lat="42.02029393990986" lon="13.719090459935872"><ele>855.0</ele><time>2026-04-23T17:38:39.999Z</time></trkpt><trkpt lat="42.02024571079908" lon="13.718584205424715"><ele>855.5</ele><time>2026-04-23T17:38:40.999Z</time></trkpt><trkpt lat="42.020202460083304" lon="13.718077984106905"><ele>856.0</ele><time>2026-04-23T17:38:41.999Z</time></trkpt><trkpt lat="42.02016265308242" lon="13.71757441170722"><ele>856.0</ele><time>2026-04-23T17:38:42.999Z</time></trkpt><trkpt lat="42.0201298541748" lon="13.717076970763207"><ele>856.0</ele><time>2026-04-23T17:38:43.999Z</time></trkpt><trkpt lat="42.020104877530294" lon="13.716577151804183"><ele>856.0</ele><time>2026-04-23T17:38:44.999Z</time></trkpt><trkpt lat="42.02008656548404" lon="13.716081719147134"><ele>856.0</ele><time>2026-04-23T17:38:46Z</time></trkpt><trkpt lat="42.02007415315338" lon="13.715588635408457"><ele>856.0</ele><time>2026-04-23T17:38:47Z</time></trkpt><trkpt lat="42.020063838112534" lon="13.715098599430187"><ele>856.0</ele><time>2026-04-23T17:38:48Z</time></trkpt><trkpt lat="42.0200569288246" lon="13.714612995606508"><ele>858.0</ele><time>2026-04-23T17:38:49Z</time></trkpt><trkpt lat="42.02005518143862" lon="13.714130602557338"><ele>860.0</ele><time>2026-04-23T17:38:50Z</time></trkpt><trkpt lat="42.020063386514934" lon="13.713639174135619"><ele>860.0</ele><time>2026-04-23T17:38:51Z</time></trkpt><trkpt lat="42.02007716559352" lon="13.713146334934134"><ele>860.0</ele><time>2026-04-23T17:38:52Z</time></trkpt><trkpt lat="42.02009586118576" lon="13.712655288347166"><ele>860.0</ele><time>2026-04-23T17:38:53Z</time></trkpt><trkpt lat="42.02011993029436" lon="13.712167359708529"><ele>860.0</ele><time>2026-04-23T17:38:54Z</time></trkpt><trkpt lat="42.02015026931933" lon="13.7116819978536"><ele>860.5</ele><time>2026-04-23T17:38:55Z</time></trkpt><trkpt lat="42.02018293300059" lon="13.71119466697041"><ele>861.0</ele><time>2026-04-23T17:38:56Z</time></trkpt><trkpt lat="42.02022312230657" lon="13.710705422036758"><ele>864.0</ele><time>2026-04-23T17:38:57Z</time></trkpt><trkpt lat="42.0202677722636" lon="13.710222287993366"><ele>867.0</ele><time>2026-04-23T17:38:58Z</time></trkpt><trkpt lat="42.020318374938526" lon="13.709741061570696"><ele>866.5</ele><time>2026-04-23T17:38:59Z</time></trkpt><trkpt lat="42.02037315821676" lon="13.709263489589066"><ele>866.0</ele><time>2026-04-23T17:39:00Z</time></trkpt><trkpt lat="42.0204318907829" lon="13.70878544020314"><ele>866.5</ele><time>2026-04-23T17:39:01Z</time></trkpt><trkpt lat="42.02049551227429" lon="13.708307554530506"><ele>867.0</ele><time>2026-04-23T17:39:02Z</time></trkpt><trkpt lat="42.0205652864727" lon="13.707830029735684"><ele>867.0</ele><time>2026-04-23T17:39:03Z</time></trkpt><trkpt lat="42.02064012500789" lon="13.707349078793298"><ele>867.0</ele><time>2026-04-23T17:39:04Z</time></trkpt><trkpt lat="42.020721840407425" lon="13.706873195812346"><ele>867.5</ele><time>2026-04-23T17:39:05Z</time></trkpt><trkpt lat="42.02080738603978" lon="13.706400296874055"><ele>868.0</ele><time>2026-04-23T17:39:06Z</time></trkpt><trkpt lat="42.020897217807025" lon="13.705931134851935"><ele>868.0</ele><time>2026-04-23T17:39:07Z</time></trkpt><trkpt lat="42.020992501325736" lon="13.705467139238772"><ele>868.0</ele><time>2026-04-23T17:39:08Z</time></trkpt><trkpt lat="42.0210916170501" lon="13.705001480365041"><ele>867.5</ele><time>2026-04-23T17:39:09Z</time></trkpt><trkpt lat="42.02119702093295" lon="13.704538124258814"><ele>867.0</ele><time>2026-04-23T17:39:10Z</time></trkpt><trkpt lat="42.021307517112476" lon="13.704076606529513"><ele>866.0</ele><time>2026-04-23T17:39:11Z</time></trkpt><trkpt lat="42.02142250395371" lon="13.703615759261048"><ele>865.0</ele><time>2026-04-23T17:39:12Z</time></trkpt><trkpt lat="42.02154215960942" lon="13.703151630518414"><ele>870.0</ele><time>2026-04-23T17:39:13Z</time></trkpt><trkpt lat="42.021666626130816" lon="13.702686719226369"><ele>875.0</ele><time>2026-04-23T17:39:14Z</time></trkpt><trkpt lat="42.02179984796936" lon="13.70221517371533"><ele>873.0</ele><time>2026-04-23T17:39:15Z</time></trkpt><trkpt lat="42.021942016013206" lon="13.701737209264166"><ele>871.0</ele><time>2026-04-23T17:39:16Z</time></trkpt><trkpt lat="42.022093793167585" lon="13.701257248128316"><ele>869.5</ele><time>2026-04-23T17:39:17Z</time></trkpt><trkpt lat="42.02225226005116" lon="13.700774181202227"><ele>868.0</ele><time>2026-04-23T17:39:18Z</time></trkpt><trkpt lat="42.022417223558" lon="13.70028428647385"><ele>868.5</ele><time>2026-04-23T17:39:19Z</time></trkpt><trkpt lat="42.02259034275775" lon="13.699802908888731"><ele>869.0</ele><time>2026-04-23T17:39:20Z</time></trkpt><trkpt lat="42.02277000320184" lon="13.699320903502949"><ele>869.0</ele><time>2026-04-23T17:39:21Z</time></trkpt><trkpt lat="42.02295342657147" lon="13.698830297293203"><ele>869.0</ele><time>2026-04-23T17:39:22Z</time></trkpt><trkpt lat="42.023142541724454" lon="13.698338546651486"><ele>869.0</ele><time>2026-04-23T17:39:23Z</time></trkpt><trkpt lat="42.023344360595566" lon="13.697848692705138"><ele>869.0</ele><time>2026-04-23T17:39:24Z</time></trkpt><trkpt lat="42.02355843634702" lon="13.697354236731258"><ele>865.5</ele><time>2026-04-23T17:39:25Z</time></trkpt><trkpt lat="42.02377774544707" lon="13.696854369032494"><ele>862.0</ele><time>2026-04-23T17:39:26Z</time></trkpt><trkpt lat="42.02401059025517" lon="13.69635657392111"><ele>862.0</ele><time>2026-04-23T17:39:27Z</time></trkpt><trkpt lat="42.02424868833556" lon="13.695862987336623"><ele>862.0</ele><time>2026-04-23T17:39:28Z</time></trkpt><trkpt lat="42.02449712736991" lon="13.695372484375588"><ele>859.0</ele><time>2026-04-23T17:39:29Z</time></trkpt><trkpt lat="42.02475119061998" lon="13.694887100369018"><ele>856.0</ele><time>2026-04-23T17:39:30Z</time></trkpt><trkpt lat="42.025016444927154" lon="13.69440502875983"><ele>856.0</ele><time>2026-04-23T17:39:31Z</time></trkpt><trkpt lat="42.025286009527235" lon="13.693922237083465"><ele>856.0</ele><time>2026-04-23T17:39:32Z</time></trkpt><trkpt lat="42.02555755169135" lon="13.69344007413532"><ele>862.0</ele><time>2026-04-23T17:39:33Z</time></trkpt><trkpt lat="42.025832771029464" lon="13.692958337986996"><ele>856.0</ele><time>2026-04-23T17:39:34Z</time></trkpt><trkpt lat="42.02610233925052" lon="13.692478340893594"><ele>850.0</ele><time>2026-04-23T17:39:35Z</time></trkpt><trkpt lat="42.026364866936895" lon="13.692005411959439"><ele>847.5</ele><time>2026-04-23T17:39:36Z</time></trkpt><trkpt lat="42.026624204455906" lon="13.691543089276836"><ele>845.0</ele><time>2026-04-23T17:39:37Z</time></trkpt><trkpt lat="42.02687717792586" lon="13.691086858435012"><ele>845.0</ele><time>2026-04-23T17:39:38Z</time></trkpt><trkpt lat="42.0271300531481" lon="13.690634216690121"><ele>845.0</ele><time>2026-04-23T17:39:39Z</time></trkpt><trkpt lat="42.02738117102276" lon="13.690183694948995"><ele>843.5</ele><time>2026-04-23T17:39:40Z</time></trkpt><trkpt lat="42.027629773067" lon="13.689735015608349"><ele>842.0</ele><time>2026-04-23T17:39:41Z</time></trkpt><trkpt lat="42.02788001563319" lon="13.689288876215743"><ele>842.0</ele><time>2026-04-23T17:39:42Z</time></trkpt><trkpt lat="42.028132905066684" lon="13.688839516214792"><ele>842.0</ele><time>2026-04-23T17:39:43Z</time></trkpt><trkpt lat="42.02838573869604" lon="13.688388496982636"><ele>847.5</ele><time>2026-04-23T17:39:44Z</time></trkpt><trkpt lat="42.028637850866176" lon="13.687937241398743"><ele>853.0</ele><time>2026-04-23T17:39:45Z</time></trkpt><trkpt lat="42.0288908376842" lon="13.687482544824471"><ele>852.0</ele><time>2026-04-23T17:39:46Z</time></trkpt><trkpt lat="42.02914415427389" lon="13.687029466998771"><ele>851.0</ele><time>2026-04-23T17:39:47Z</time></trkpt><trkpt lat="42.029395115155175" lon="13.686578042221587"><ele>851.0</ele><time>2026-04-23T17:39:48Z</time></trkpt><trkpt lat="42.02964276917927" lon="13.686125108391993"><ele>851.0</ele><time>2026-04-23T17:39:49Z</time></trkpt><trkpt lat="42.02988992293313" lon="13.685675969927878"><ele>851.5</ele><time>2026-04-23T17:39:50Z</time></trkpt><trkpt lat="42.03013392168577" lon="13.68522975699619"><ele>852.0</ele><time>2026-04-23T17:39:51Z</time></trkpt><trkpt lat="42.03037773192341" lon="13.684791544143568"><ele>852.0</ele><time>2026-04-23T17:39:52Z</time></trkpt><trkpt lat="42.03061948613314" lon="13.684358354848742"><ele>852.0</ele><time>2026-04-23T17:39:53Z</time></trkpt><trkpt lat="42.030859657380994" lon="13.683929400096499"><ele>852.5</ele><time>2026-04-23T17:39:54Z</time></trkpt><trkpt lat="42.031095456545444" lon="13.683501828401859"><ele>853.0</ele><time>2026-04-23T17:39:55Z</time></trkpt><trkpt lat="42.03132488574954" lon="13.683080499003902"><ele>853.0</ele><time>2026-04-23T17:39:56Z</time></trkpt><trkpt lat="42.03155123864065" lon="13.68265891904631"><ele>853.0</ele><time>2026-04-23T17:39:57Z</time></trkpt><trkpt lat="42.03177394013496" lon="13.682237061502331"><ele>853.0</ele><time>2026-04-23T17:39:58Z</time></trkpt><trkpt lat="42.03199086781111" lon="13.681816451637687"><ele>853.0</ele><time>2026-04-23T17:39:59Z</time></trkpt><trkpt lat="42.03220347363162" lon="13.681394193771622"><ele>854.5</ele><time>2026-04-23T17:40:00Z</time></trkpt><trkpt lat="42.032413013358706" lon="13.680970757763829"><ele>856.0</ele><time>2026-04-23T17:40:01Z</time></trkpt><trkpt lat="42.032616160582656" lon="13.680543855715758"><ele>855.0</ele><time>2026-04-23T17:40:02Z</time></trkpt><trkpt lat="42.032811777583156" lon="13.680113301315373"><ele>854.0</ele><time>2026-04-23T17:40:03Z</time></trkpt><trkpt lat="42.03299232363337" lon="13.679683943565236"><ele>855.0</ele><time>2026-04-23T17:40:04Z</time></trkpt><trkpt lat="42.03316120431855" lon="13.67925432346446"><ele>856.0</ele><time>2026-04-23T17:40:05Z</time></trkpt><trkpt lat="42.03332070637818" lon="13.678828031176934"><ele>854.0</ele><time>2026-04-23T17:40:06Z</time></trkpt><trkpt lat="42.033467589015785" lon="13.678397784105002"><ele>852.0</ele><time>2026-04-23T17:40:07Z</time></trkpt><trkpt lat="42.03360275119676" lon="13.677965320537432"><ele>849.0</ele><time>2026-04-23T17:40:08Z</time></trkpt><trkpt lat="42.03373163096667" lon="13.677529656161242"><ele>846.0</ele><time>2026-04-23T17:40:09Z</time></trkpt><trkpt lat="42.03385019304873" lon="13.677095007274133"><ele>837.5</ele><time>2026-04-23T17:40:10Z</time></trkpt><trkpt lat="42.03395679970096" lon="13.676667846137697"><ele>829.0</ele><time>2026-04-23T17:40:11Z</time></trkpt><trkpt lat="42.03404486693908" lon="13.67623955439686"><ele>831.0</ele><time>2026-04-23T17:40:12Z</time></trkpt><trkpt lat="42.034129990543676" lon="13.67580858968783"><ele>833.0</ele><time>2026-04-23T17:40:12.999Z</time></trkpt><trkpt lat="42.03420557663902" lon="13.67537346785859"><ele>824.0</ele><time>2026-04-23T17:40:13.999Z</time></trkpt><trkpt lat="42.03427223755269" lon="13.674932874021291"><ele>815.0</ele><time>2026-04-23T17:40:14.999Z</time></trkpt><trkpt lat="42.0343319816178" lon="13.674485449885672"><ele>815.5</ele><time>2026-04-23T17:40:15.999Z</time></trkpt><trkpt lat="42.034381346106905" lon="13.674026701887913"><ele>816.0</ele><time>2026-04-23T17:40:16.999Z</time></trkpt><trkpt lat="42.03442564946074" lon="13.673564785175016"><ele>816.0</ele><time>2026-04-23T17:40:17.999Z</time></trkpt><trkpt lat="42.03445573020763" lon="13.673096038336002"><ele>816.0</ele><time>2026-04-23T17:40:18.999Z</time></trkpt><trkpt lat="42.03448476761498" lon="13.672621840665798"><ele>821.5</ele><time>2026-04-23T17:40:19.999Z</time></trkpt><trkpt lat="42.034513127792344" lon="13.672148626580201"><ele>827.0</ele><time>2026-04-23T17:40:20.999Z</time></trkpt><trkpt lat="42.03453752572519" lon="13.671669831340566"><ele>830.5</ele><time>2026-04-23T17:40:21.999Z</time></trkpt><trkpt lat="42.034560976523" lon="13.671191776413155"><ele>834.0</ele><time>2026-04-23T17:40:22.999Z</time></trkpt><trkpt lat="42.03458667854084" lon="13.670715786510595"><ele>839.5</ele><time>2026-04-23T17:40:23.999Z</time></trkpt><trkpt lat="42.03461498801608" lon="13.670241386169456"><ele>845.0</ele><time>2026-04-23T17:40:24.999Z</time></trkpt><trkpt lat="42.03464554293819" lon="13.669766179788994"><ele>847.0</ele><time>2026-04-23T17:40:25.999Z</time></trkpt><trkpt lat="42.03468312040683" lon="13.669292205151287"><ele>849.0</ele><time>2026-04-23T17:40:26.999Z</time></trkpt><trkpt lat="42.034728385279536" lon="13.668823980533325"><ele>851.5</ele><time>2026-04-23T17:40:27.999Z</time></trkpt><trkpt lat="42.03478481470439" lon="13.668353105009944"><ele>854.0</ele><time>2026-04-23T17:40:28.999Z</time></trkpt><trkpt lat="42.0348562307365" lon="13.66788425982474"><ele>852.5</ele><time>2026-04-23T17:40:29.999Z</time></trkpt><trkpt lat="42.03493472744321" lon="13.667418539367326"><ele>851.0</ele><time>2026-04-23T17:40:30.999Z</time></trkpt><trkpt lat="42.035024108528155" lon="13.66696749050366"><ele>853.5</ele><time>2026-04-23T17:40:31.999Z</time></trkpt><trkpt lat="42.035119996299045" lon="13.666537534206514"><ele>856.0</ele><time>2026-04-23T17:40:32.999Z</time></trkpt><trkpt lat="42.03522721434325" lon="13.666116450711712"><ele>856.5</ele><time>2026-04-23T17:40:33.999Z</time></trkpt><trkpt lat="42.035345837735456" lon="13.665696748999437"><ele>857.0</ele><time>2026-04-23T17:40:34.999Z</time></trkpt><trkpt lat="42.03547241925198" lon="13.665280108036004"><ele>859.0</ele><time>2026-04-23T17:40:35.999Z</time></trkpt><trkpt lat="42.03560872938705" lon="13.66487128680253"><ele>861.0</ele><time>2026-04-23T17:40:36.999Z</time></trkpt><trkpt lat="42.035757110660796" lon="13.664464979071937"><ele>859.5</ele><time>2026-04-23T17:40:37.999Z</time></trkpt><trkpt lat="42.03591691395607" lon="13.664064111209772"><ele>858.0</ele><time>2026-04-23T17:40:38.999Z</time></trkpt><trkpt lat="42.03608710247978" lon="13.663668284063826"><ele>859.5</ele><time>2026-04-23T17:40:39.999Z</time></trkpt><trkpt lat="42.03626660380928" lon="13.663276328078528"><ele>861.0</ele><time>2026-04-23T17:40:40.999Z</time></trkpt><trkpt lat="42.03645263949868" lon="13.662890702854058"><ele>862.0</ele><time>2026-04-23T17:40:41.999Z</time></trkpt><trkpt lat="42.03664461981402" lon="13.662513519406474"><ele>863.0</ele><time>2026-04-23T17:40:42.999Z</time></trkpt><trkpt lat="42.03684690028117" lon="13.66214797921662"><ele>864.5</ele><time>2026-04-23T17:40:43.999Z</time></trkpt><trkpt lat="42.03705817224386" lon="13.661792141402579"><ele>866.0</ele><time>2026-04-23T17:40:44.999Z</time></trkpt><trkpt lat="42.03727790376835" lon="13.661441708228315"><ele>865.0</ele><time>2026-04-23T17:40:45.999Z</time></trkpt><trkpt lat="42.037506537805385" lon="13.661099612813883"><ele>864.0</ele><time>2026-04-23T17:40:46.999Z</time></trkpt><trkpt lat="42.03774378465996" lon="13.66076691953965"><ele>864.0</ele><time>2026-04-23T17:40:47.999Z</time></trkpt><trkpt lat="42.03799307626039" lon="13.660438559647886"><ele>864.0</ele><time>2026-04-23T17:40:48.999Z</time></trkpt><trkpt lat="42.038256674386666" lon="13.660122411768512"><ele>864.0</ele><time>2026-04-23T17:40:49.999Z</time></trkpt><trkpt lat="42.038530487869956" lon="13.65981371041101"><ele>864.0</ele><time>2026-04-23T17:40:51Z</time></trkpt><trkpt lat="42.03881286077592" lon="13.659510081360413"><ele>863.0</ele><time>2026-04-23T17:40:52Z</time></trkpt><trkpt lat="42.039097138596595" lon="13.65922487579156"><ele>862.0</ele><time>2026-04-23T17:40:53Z</time></trkpt><trkpt lat="42.03939380068538" lon="13.65895068717745"><ele>861.0</ele><time>2026-04-23T17:40:54Z</time></trkpt><trkpt lat="42.039697951401685" lon="13.658688989805256"><ele>860.0</ele><time>2026-04-23T17:40:55Z</time></trkpt><trkpt lat="42.040008320705674" lon="13.658441869884076"><ele>858.5</ele><time>2026-04-23T17:40:56Z</time></trkpt><trkpt lat="42.040324353575926" lon="13.658211275134732"><ele>857.0</ele><time>2026-04-23T17:40:57Z</time></trkpt><trkpt lat="42.04064492590002" lon="13.657991766774522"><ele>857.5</ele><time>2026-04-23T17:40:58Z</time></trkpt><trkpt lat="42.04097116446253" lon="13.657783896305903"><ele>858.0</ele><time>2026-04-23T17:40:59Z</time></trkpt><trkpt lat="42.041302724102124" lon="13.657589693088353"><ele>859.0</ele><time>2026-04-23T17:41:00Z</time></trkpt><trkpt lat="42.04163719048044" lon="13.657404009944218"><ele>860.0</ele><time>2026-04-23T17:41:01Z</time></trkpt><trkpt lat="42.04197365589051" lon="13.65722763859006"><ele>860.0</ele><time>2026-04-23T17:41:02Z</time></trkpt><trkpt lat="42.04231026297457" lon="13.657057780353924"><ele>860.0</ele><time>2026-04-23T17:41:03Z</time></trkpt><trkpt lat="42.04264414748945" lon="13.656895591500025"><ele>858.5</ele><time>2026-04-23T17:41:04Z</time></trkpt><trkpt lat="42.04297637231651" lon="13.65673359898097"><ele>857.0</ele><time>2026-04-23T17:41:05Z</time></trkpt><trkpt lat="42.04330417191359" lon="13.656571421769854"><ele>856.0</ele><time>2026-04-23T17:41:06Z</time></trkpt><trkpt lat="42.04363083545199" lon="13.656411563230469"><ele>855.0</ele><time>2026-04-23T17:41:07Z</time></trkpt><trkpt lat="42.043954124411094" lon="13.65625151095553"><ele>852.5</ele><time>2026-04-23T17:41:08Z</time></trkpt><trkpt lat="42.04427464606605" lon="13.656089311520228"><ele>850.0</ele><time>2026-04-23T17:41:09Z</time></trkpt><trkpt lat="42.04459252909058" lon="13.655922137941666"><ele>850.0</ele><time>2026-04-23T17:41:10Z</time></trkpt><trkpt lat="42.044906396541506" lon="13.655748236854368"><ele>850.0</ele><time>2026-04-23T17:41:11Z</time></trkpt><trkpt lat="42.04521967586658" lon="13.65555904807046"><ele>849.5</ele><time>2026-04-23T17:41:12Z</time></trkpt><trkpt lat="42.04553420328216" lon="13.655352409794908"><ele>849.0</ele><time>2026-04-23T17:41:13Z</time></trkpt><trkpt lat="42.04584584571582" lon="13.65513128479003"><ele>849.0</ele><time>2026-04-23T17:41:14Z</time></trkpt><trkpt lat="42.04615352291904" lon="13.654897176931467"><ele>849.0</ele><time>2026-04-23T17:41:15Z</time></trkpt><trkpt lat="42.046456040527644" lon="13.654648270164513"><ele>851.5</ele><time>2026-04-23T17:41:16Z</time></trkpt><trkpt lat="42.04675256098744" lon="13.654383590162917"><ele>854.0</ele><time>2026-04-23T17:41:17Z</time></trkpt><trkpt lat="42.04704185925943" lon="13.654106947054157"><ele>854.0</ele><time>2026-04-23T17:41:18Z</time></trkpt><trkpt lat="42.047325377812186" lon="13.653819151060484"><ele>854.0</ele><time>2026-04-23T17:41:19Z</time></trkpt><trkpt lat="42.04760189860152" lon="13.65352004233885"><ele>853.0</ele><time>2026-04-23T17:41:20Z</time></trkpt><trkpt lat="42.04787304492018" lon="13.653212456691042"><ele>852.0</ele><time>2026-04-23T17:41:21Z</time></trkpt><trkpt lat="42.04814054021848" lon="13.652891885227662"><ele>850.5</ele><time>2026-04-23T17:41:22Z</time></trkpt><trkpt lat="42.048406333606856" lon="13.652559160045634"><ele>849.0</ele><time>2026-04-23T17:41:23Z</time></trkpt><trkpt lat="42.04866962412166" lon="13.652217405083082"><ele>849.5</ele><time>2026-04-23T17:41:24Z</time></trkpt><trkpt lat="42.04892923114445" lon="13.651871302081219"><ele>850.0</ele><time>2026-04-23T17:41:25Z</time></trkpt><trkpt lat="42.04918366484053" lon="13.651519881215837"><ele>850.0</ele><time>2026-04-23T17:41:26Z</time></trkpt><trkpt lat="42.04942996048083" lon="13.651162756923371"><ele>850.0</ele><time>2026-04-23T17:41:27Z</time></trkpt><trkpt lat="42.04967660839021" lon="13.65080518445533"><ele>849.0</ele><time>2026-04-23T17:41:28Z</time></trkpt><trkpt lat="42.04992002877667" lon="13.65044788104257"><ele>848.0</ele><time>2026-04-23T17:41:29Z</time></trkpt><trkpt lat="42.05015940387691" lon="13.650085388367922"><ele>848.0</ele><time>2026-04-23T17:41:30Z</time></trkpt><trkpt lat="42.050395743510656" lon="13.64972213913177"><ele>848.0</ele><time>2026-04-23T17:41:31Z</time></trkpt><trkpt lat="42.050627501214734" lon="13.649359460117841"><ele>848.0</ele><time>2026-04-23T17:41:32Z</time></trkpt><trkpt lat="42.05085574524325" lon="13.648996796234117"><ele>848.0</ele><time>2026-04-23T17:41:33Z</time></trkpt><trkpt lat="42.051079443841985" lon="13.64863295882396"><ele>846.0</ele><time>2026-04-23T17:41:34Z</time></trkpt><trkpt lat="42.0512989765359" lon="13.648265071319507"><ele>844.0</ele><time>2026-04-23T17:41:35Z</time></trkpt><trkpt lat="42.051512928638374" lon="13.647894474275455"><ele>847.5</ele><time>2026-04-23T17:41:36Z</time></trkpt><trkpt lat="42.05172405086727" lon="13.647522354643495"><ele>851.0</ele><time>2026-04-23T17:41:37Z</time></trkpt><trkpt lat="42.05193127148939" lon="13.64715233526564"><ele>849.5</ele><time>2026-04-23T17:41:38Z</time></trkpt><trkpt lat="42.05213339852619" lon="13.646784253504787"><ele>848.0</ele><time>2026-04-23T17:41:39Z</time></trkpt><trkpt lat="42.052334252957614" lon="13.646415856233391"><ele>850.0</ele><time>2026-04-23T17:41:40Z</time></trkpt><trkpt lat="42.05253051198729" lon="13.646046797389737"><ele>852.0</ele><time>2026-04-23T17:41:41Z</time></trkpt><trkpt lat="42.05272288624555" lon="13.645675087191554"><ele>852.0</ele><time>2026-04-23T17:41:42Z</time></trkpt><trkpt lat="42.05291135705952" lon="13.645302213606108"><ele>852.0</ele><time>2026-04-23T17:41:43Z</time></trkpt><trkpt lat="42.05309759860018" lon="13.644928918521936"><ele>852.0</ele><time>2026-04-23T17:41:44Z</time></trkpt><trkpt lat="42.053283214260055" lon="13.644550924208076"><ele>852.0</ele><time>2026-04-23T17:41:45Z</time></trkpt><trkpt lat="42.05346546360924" lon="13.644167482592685"><ele>848.0</ele><time>2026-04-23T17:41:46Z</time></trkpt><trkpt lat="42.053647803497924" lon="13.643781365897256"><ele>844.0</ele><time>2026-04-23T17:41:47Z</time></trkpt><trkpt lat="42.053829237106875" lon="13.64338794958705"><ele>843.0</ele><time>2026-04-23T17:41:48Z</time></trkpt><trkpt lat="42.05400787333394" lon="13.64299031467882"><ele>842.0</ele><time>2026-04-23T17:41:49Z</time></trkpt><trkpt lat="42.05418477474066" lon="13.64258860946444"><ele>842.0</ele><time>2026-04-23T17:41:50Z</time></trkpt><trkpt lat="42.05436066959648" lon="13.642183670764165"><ele>842.0</ele><time>2026-04-23T17:41:51Z</time></trkpt><trkpt lat="42.05453419021322" lon="13.641771294645304"><ele>839.5</ele><time>2026-04-23T17:41:52Z</time></trkpt><trkpt lat="42.05470340565152" lon="13.641353882583298"><ele>837.0</ele><time>2026-04-23T17:41:53Z</time></trkpt><trkpt lat="42.05487031161448" lon="13.640931959210713"><ele>837.0</ele><time>2026-04-23T17:41:54Z</time></trkpt><trkpt lat="42.05503270814575" lon="13.640506825363433"><ele>837.0</ele><time>2026-04-23T17:41:55Z</time></trkpt><trkpt lat="42.055189052878056" lon="13.640076896610427"><ele>837.0</ele><time>2026-04-23T17:41:56Z</time></trkpt><trkpt lat="42.055338189718235" lon="13.639639214546747"><ele>837.0</ele><time>2026-04-23T17:41:57Z</time></trkpt><trkpt lat="42.05547889858258" lon="13.639195387483332"><ele>834.5</ele><time>2026-04-23T17:41:58Z</time></trkpt><trkpt lat="42.05561006992884" lon="13.63874810748316"><ele>832.0</ele><time>2026-04-23T17:41:59Z</time></trkpt><trkpt lat="42.05573489821498" lon="13.638296727709264"><ele>829.5</ele><time>2026-04-23T17:42:00Z</time></trkpt><trkpt lat="42.05585208358782" lon="13.637843081743151"><ele>827.0</ele><time>2026-04-23T17:42:01Z</time></trkpt><trkpt lat="42.05595925926182" lon="13.637382319123391"><ele>822.5</ele><time>2026-04-23T17:42:02Z</time></trkpt><trkpt lat="42.05605569065162" lon="13.636918339154517"><ele>818.0</ele><time>2026-04-23T17:42:03Z</time></trkpt><trkpt lat="42.05613928526497" lon="13.636459064385084"><ele>817.5</ele><time>2026-04-23T17:42:04Z</time></trkpt><trkpt lat="42.05621133313061" lon="13.636002051919451"><ele>817.0</ele><time>2026-04-23T17:42:05Z</time></trkpt><trkpt lat="42.056273642667996" lon="13.635537830429305"><ele>817.0</ele><time>2026-04-23T17:42:06Z</time></trkpt><trkpt lat="42.056324216479794" lon="13.635071400497473"><ele>817.0</ele><time>2026-04-23T17:42:07Z</time></trkpt><trkpt lat="42.05636478230359" lon="13.634606729191152"><ele>814.5</ele><time>2026-04-23T17:42:08Z</time></trkpt><trkpt lat="42.05639418713761" lon="13.634138972744354"><ele>812.0</ele><time>2026-04-23T17:42:09Z</time></trkpt><trkpt lat="42.05641404236182" lon="13.63366688685337"><ele>807.5</ele><time>2026-04-23T17:42:10Z</time></trkpt><trkpt lat="42.056422658487854" lon="13.633191006806513"><ele>803.0</ele><time>2026-04-23T17:42:11Z</time></trkpt><trkpt lat="42.05641476705219" lon="13.632711005763547"><ele>797.5</ele><time>2026-04-23T17:42:12Z</time></trkpt><trkpt lat="42.05640306813624" lon="13.63223954414878"><ele>792.0</ele><time>2026-04-23T17:42:13Z</time></trkpt><trkpt lat="42.05637819912531" lon="13.63176216940924"><ele>787.0</ele><time>2026-04-23T17:42:14Z</time></trkpt><trkpt lat="42.05633835877994" lon="13.631285577722345"><ele>782.0</ele><time>2026-04-23T17:42:15Z</time></trkpt><trkpt lat="42.05628919318932" lon="13.630806951854135"><ele>781.5</ele><time>2026-04-23T17:42:16Z</time></trkpt><trkpt lat="42.056229126111205" lon="13.630332240143302"><ele>781.0</ele><time>2026-04-23T17:42:17Z</time></trkpt><trkpt lat="42.05616327351787" lon="13.629861983043432"><ele>786.5</ele><time>2026-04-23T17:42:17.999Z</time></trkpt><trkpt lat="42.0560933069613" lon="13.62938753849829"><ele>792.0</ele><time>2026-04-23T17:42:18.999Z</time></trkpt><trkpt lat="42.05601801426826" lon="13.628910745349598"><ele>796.5</ele><time>2026-04-23T17:42:19.999Z</time></trkpt><trkpt lat="42.05593609209234" lon="13.628429435850235"><ele>801.0</ele><time>2026-04-23T17:42:20.999Z</time></trkpt><trkpt lat="42.05585154731895" lon="13.62794542745521"><ele>797.5</ele><time>2026-04-23T17:42:21.999Z</time></trkpt><trkpt lat="42.05576657120339" lon="13.627461167370504"><ele>794.0</ele><time>2026-04-23T17:42:22.999Z</time></trkpt><trkpt lat="42.05568320611205" lon="13.626974961722224"><ele>794.0</ele><time>2026-04-23T17:42:23.999Z</time></trkpt><trkpt lat="42.05560508760592" lon="13.626489744860514"><ele>794.0</ele><time>2026-04-23T17:42:24.999Z</time></trkpt><trkpt lat="42.0555325744125" lon="13.626003924139797"><ele>794.5</ele><time>2026-04-23T17:42:25.999Z</time></trkpt><trkpt lat="42.05546448628083" lon="13.625518814132748"><ele>795.0</ele><time>2026-04-23T17:42:26.999Z</time></trkpt><trkpt lat="42.05540282533916" lon="13.625035103171847"><ele>799.5</ele><time>2026-04-23T17:42:27.999Z</time></trkpt><trkpt lat="42.05534891560409" lon="13.624553553393934"><ele>804.0</ele><time>2026-04-23T17:42:28.999Z</time></trkpt><trkpt lat="42.05530555207097" lon="13.62407900708045"><ele>807.0</ele><time>2026-04-23T17:42:29.999Z</time></trkpt><trkpt lat="42.05527066942489" lon="13.623607466181728"><ele>810.0</ele><time>2026-04-23T17:42:30.999Z</time></trkpt><trkpt lat="42.05524705731755" lon="13.623141753469449"><ele>809.0</ele><time>2026-04-23T17:42:31.999Z</time></trkpt><trkpt lat="42.055239271360875" lon="13.622684004783327"><ele>808.0</ele><time>2026-04-23T17:42:32.999Z</time></trkpt><trkpt lat="42.055242828836235" lon="13.622231662521186"><ele>807.5</ele><time>2026-04-23T17:42:33.999Z</time></trkpt><trkpt lat="42.055261298557156" lon="13.621783821996688"><ele>807.0</ele><time>2026-04-23T17:42:34.999Z</time></trkpt><trkpt lat="42.05527934426896" lon="13.621333079519106"><ele>806.5</ele><time>2026-04-23T17:42:35.999Z</time></trkpt><trkpt lat="42.05531077818322" lon="13.620893187333525"><ele>806.0</ele><time>2026-04-23T17:42:36.999Z</time></trkpt><trkpt lat="42.0553494146502" lon="13.620465240057799"><ele>803.5</ele><time>2026-04-23T17:42:37.999Z</time></trkpt><trkpt lat="42.05539543606763" lon="13.62005369058339"><ele>801.0</ele><time>2026-04-23T17:42:38.999Z</time></trkpt><trkpt lat="42.05545766965464" lon="13.619645586347474"><ele>796.5</ele><time>2026-04-23T17:42:39.999Z</time></trkpt><trkpt lat="42.05552851573814" lon="13.61923264662138"><ele>792.0</ele><time>2026-04-23T17:42:40.999Z</time></trkpt><trkpt lat="42.05560346585727" lon="13.618812183445597"><ele>789.5</ele><time>2026-04-23T17:42:41.999Z</time></trkpt><trkpt lat="42.05568922905394" lon="13.618383894339207"><ele>787.0</ele><time>2026-04-23T17:42:42.999Z</time></trkpt><trkpt lat="42.05578635934563" lon="13.617955252548409"><ele>792.0</ele><time>2026-04-23T17:42:43.999Z</time></trkpt><trkpt lat="42.055890961237175" lon="13.617527033103018"><ele>797.0</ele><time>2026-04-23T17:42:44.999Z</time></trkpt><trkpt lat="42.05600363447897" lon="13.617097054479254"><ele>794.5</ele><time>2026-04-23T17:42:45.999Z</time></trkpt><trkpt lat="42.05612225564761" lon="13.616666823684318"><ele>792.0</ele><time>2026-04-23T17:42:46.999Z</time></trkpt><trkpt lat="42.05623927676727" lon="13.616233334903276"><ele>789.0</ele><time>2026-04-23T17:42:47.999Z</time></trkpt><trkpt lat="42.05636793592569" lon="13.615804161017593"><ele>786.0</ele><time>2026-04-23T17:42:48.999Z</time></trkpt><trkpt lat="42.05650091477825" lon="13.615356015983581"><ele>784.5</ele><time>2026-04-23T17:42:49.999Z</time></trkpt><trkpt lat="42.056634954483165" lon="13.6149043507711"><ele>783.0</ele><time>2026-04-23T17:42:50.999Z</time></trkpt><trkpt lat="42.0567735609274" lon="13.614446259034393"><ele>783.0</ele><time>2026-04-23T17:42:51.999Z</time></trkpt><trkpt lat="42.05691191927117" lon="13.613990356803027"><ele>783.0</ele><time>2026-04-23T17:42:52.999Z</time></trkpt><trkpt lat="42.05704612113996" lon="13.61353665726432"><ele>779.0</ele><time>2026-04-23T17:42:53.999Z</time></trkpt><trkpt lat="42.05717314097618" lon="13.613084377922704"><ele>775.0</ele><time>2026-04-23T17:42:54.999Z</time></trkpt><trkpt lat="42.05729663432164" lon="13.61262392858359"><ele>770.0</ele><time>2026-04-23T17:42:56Z</time></trkpt><trkpt lat="42.057415806916715" lon="13.612173122496692"><ele>765.0</ele><time>2026-04-23T17:42:57Z</time></trkpt><trkpt lat="42.057531679781675" lon="13.611722775510941"><ele>760.5</ele><time>2026-04-23T17:42:58Z</time></trkpt><trkpt lat="42.0576397861569" lon="13.611265052487665"><ele>756.0</ele><time>2026-04-23T17:42:59Z</time></trkpt><trkpt lat="42.05774121370352" lon="13.610805119877769"><ele>752.5</ele><time>2026-04-23T17:43:00Z</time></trkpt><trkpt lat="42.05784056565697" lon="13.610342712889748"><ele>749.0</ele><time>2026-04-23T17:43:01Z</time></trkpt><trkpt lat="42.05793673318385" lon="13.60988083009734"><ele>751.0</ele><time>2026-04-23T17:43:02Z</time></trkpt><trkpt lat="42.058024394195186" lon="13.609415511877387"><ele>753.0</ele><time>2026-04-23T17:43:03Z</time></trkpt><trkpt lat="42.058108011785315" lon="13.608947055668082"><ele>756.5</ele><time>2026-04-23T17:43:04Z</time></trkpt><trkpt lat="42.05818954730857" lon="13.608477235272327"><ele>760.0</ele><time>2026-04-23T17:43:05Z</time></trkpt><trkpt lat="42.058268712827186" lon="13.608005577972209"><ele>763.0</ele><time>2026-04-23T17:43:06Z</time></trkpt><trkpt lat="42.058341519589185" lon="13.607539361691552"><ele>766.0</ele><time>2026-04-23T17:43:07Z</time></trkpt><trkpt lat="42.058411017360015" lon="13.607066685497799"><ele>765.0</ele><time>2026-04-23T17:43:08Z</time></trkpt><trkpt lat="42.05847238780576" lon="13.606593106492298"><ele>764.0</ele><time>2026-04-23T17:43:09Z</time></trkpt><trkpt lat="42.05853149366447" lon="13.606120302575835"><ele>762.5</ele><time>2026-04-23T17:43:10Z</time></trkpt><trkpt lat="42.05857941849105" lon="13.60564697755345"><ele>761.0</ele><time>2026-04-23T17:43:11Z</time></trkpt><trkpt lat="42.05862915262707" lon="13.605171390737889"><ele>758.5</ele><time>2026-04-23T17:43:12Z</time></trkpt><trkpt lat="42.05867265028278" lon="13.604694206321712"><ele>756.0</ele><time>2026-04-23T17:43:13Z</time></trkpt><trkpt lat="42.058711937461574" lon="13.604218451082653"><ele>754.0</ele><time>2026-04-23T17:43:14Z</time></trkpt><trkpt lat="42.05874568321072" lon="13.603742431772718"><ele>752.0</ele><time>2026-04-23T17:43:15Z</time></trkpt><trkpt lat="42.05877444484897" lon="13.603265116076097"><ele>747.0</ele><time>2026-04-23T17:43:16Z</time></trkpt><trkpt lat="42.058799777903914" lon="13.602788937441142"><ele>742.0</ele><time>2026-04-23T17:43:17Z</time></trkpt><trkpt lat="42.05882164504281" lon="13.602310054171438"><ele>742.0</ele><time>2026-04-23T17:43:18Z</time></trkpt><trkpt lat="42.05883904369284" lon="13.601834275491854"><ele>742.0</ele><time>2026-04-23T17:43:19Z</time></trkpt><trkpt lat="42.058849491730015" lon="13.601357104328878"><ele>744.0</ele><time>2026-04-23T17:43:20Z</time></trkpt><trkpt lat="42.058855948253" lon="13.600878782521109"><ele>746.0</ele><time>2026-04-23T17:43:21Z</time></trkpt><trkpt lat="42.05886031061675" lon="13.600400219245628"><ele>745.5</ele><time>2026-04-23T17:43:22Z</time></trkpt><trkpt lat="42.058861993052844" lon="13.599918720720193"><ele>745.0</ele><time>2026-04-23T17:43:23Z</time></trkpt><trkpt lat="42.05885793260451" lon="13.599439852698652"><ele>743.5</ele><time>2026-04-23T17:43:24Z</time></trkpt><trkpt lat="42.058852518610315" lon="13.598959849206903"><ele>742.0</ele><time>2026-04-23T17:43:25Z</time></trkpt><trkpt lat="42.05884929933671" lon="13.59848271261353"><ele>740.5</ele><time>2026-04-23T17:43:26Z</time></trkpt><trkpt lat="42.05884802872057" lon="13.598005475918526"><ele>739.0</ele><time>2026-04-23T17:43:27Z</time></trkpt><trkpt lat="42.05884460947501" lon="13.597527004110686"><ele>738.5</ele><time>2026-04-23T17:43:28Z</time></trkpt><trkpt lat="42.058838025526875" lon="13.59705071329177"><ele>738.0</ele><time>2026-04-23T17:43:29Z</time></trkpt><trkpt lat="42.05883092268092" lon="13.596572898425762"><ele>737.0</ele><time>2026-04-23T17:43:30Z</time></trkpt><trkpt lat="42.058823493427475" lon="13.596094262368148"><ele>736.0</ele><time>2026-04-23T17:43:31Z</time></trkpt><trkpt lat="42.05881725980565" lon="13.595616916702205"><ele>735.5</ele><time>2026-04-23T17:43:32Z</time></trkpt><trkpt lat="42.058811822146446" lon="13.595138656575282"><ele>735.0</ele><time>2026-04-23T17:43:33Z</time></trkpt><trkpt lat="42.05880631322125" lon="13.594657898797076"><ele>734.0</ele><time>2026-04-23T17:43:34Z</time></trkpt><trkpt lat="42.05881012887362" lon="13.594180764992526"><ele>733.0</ele><time>2026-04-23T17:43:35Z</time></trkpt><trkpt lat="42.05880983404379" lon="13.593704762057234"><ele>730.5</ele><time>2026-04-23T17:43:36Z</time></trkpt><trkpt lat="42.0588163567191" lon="13.593227578637382"><ele>728.0</ele><time>2026-04-23T17:43:37Z</time></trkpt><trkpt lat="42.058826374599946" lon="13.592751638747446"><ele>727.5</ele><time>2026-04-23T17:43:38Z</time></trkpt><trkpt lat="42.05883997688904" lon="13.592273048874176"><ele>727.0</ele><time>2026-04-23T17:43:39Z</time></trkpt><trkpt lat="42.05885284624038" lon="13.591797733572088"><ele>728.5</ele><time>2026-04-23T17:43:40Z</time></trkpt><trkpt lat="42.05887506196673" lon="13.591322941622453"><ele>730.0</ele><time>2026-04-23T17:43:41Z</time></trkpt><trkpt lat="42.05890101861344" lon="13.590843184193899"><ele>730.0</ele><time>2026-04-23T17:43:42Z</time></trkpt><trkpt lat="42.05893183351229" lon="13.590364555624406"><ele>730.0</ele><time>2026-04-23T17:43:43Z</time></trkpt><trkpt lat="42.05896838177369" lon="13.58988916167816"><ele>727.0</ele><time>2026-04-23T17:43:44Z</time></trkpt><trkpt lat="42.05900930164575" lon="13.589413554327814"><ele>724.0</ele><time>2026-04-23T17:43:45Z</time></trkpt><trkpt lat="42.05905868398693" lon="13.588939955933268"><ele>723.0</ele><time>2026-04-23T17:43:46Z</time></trkpt><trkpt lat="42.05911047647273" lon="13.588468572264023"><ele>722.0</ele><time>2026-04-23T17:43:47Z</time></trkpt><trkpt lat="42.059165237120666" lon="13.587996819907659"><ele>724.0</ele><time>2026-04-23T17:43:48Z</time></trkpt><trkpt lat="42.05922224935692" lon="13.587525340136608"><ele>726.0</ele><time>2026-04-23T17:43:49Z</time></trkpt><trkpt lat="42.05928619124495" lon="13.587053728111036"><ele>724.5</ele><time>2026-04-23T17:43:50Z</time></trkpt><trkpt lat="42.059355159343404" lon="13.586584992260375"><ele>723.0</ele><time>2026-04-23T17:43:51Z</time></trkpt><trkpt lat="42.0594296318082" lon="13.586116834375131"><ele>722.0</ele><time>2026-04-23T17:43:52Z</time></trkpt><trkpt lat="42.059508327767304" lon="13.585651013706617"><ele>721.0</ele><time>2026-04-23T17:43:53Z</time></trkpt><trkpt lat="42.05959087976532" lon="13.585185842868224"><ele>719.5</ele><time>2026-04-23T17:43:54Z</time></trkpt><trkpt lat="42.059677287101394" lon="13.584722002457138"><ele>718.0</ele><time>2026-04-23T17:43:55Z</time></trkpt><trkpt lat="42.059768516128536" lon="13.584258096308012"><ele>716.5</ele><time>2026-04-23T17:43:56Z</time></trkpt><trkpt lat="42.05986009301483" lon="13.583797478944291"><ele>715.0</ele><time>2026-04-23T17:43:57Z</time></trkpt><trkpt lat="42.059952719363665" lon="13.58333528683718"><ele>716.5</ele><time>2026-04-23T17:43:58Z</time></trkpt><trkpt lat="42.06004642643688" lon="13.582875718103452"><ele>718.0</ele><time>2026-04-23T17:43:59Z</time></trkpt><trkpt lat="42.06014300495421" lon="13.582413507344512"><ele>716.5</ele><time>2026-04-23T17:44:00Z</time></trkpt><trkpt lat="42.06024016144355" lon="13.581951933710858"><ele>715.0</ele><time>2026-04-23T17:44:01Z</time></trkpt><trkpt lat="42.06033528078847" lon="13.581491769113526"><ele>713.5</ele><time>2026-04-23T17:44:02Z</time></trkpt><trkpt lat="42.06043059871064" lon="13.58103155505757"><ele>712.0</ele><time>2026-04-23T17:44:03Z</time></trkpt><trkpt lat="42.06052590472982" lon="13.580570516567745"><ele>710.0</ele><time>2026-04-23T17:44:04Z</time></trkpt><trkpt lat="42.06061983040721" lon="13.580108530425683"><ele>708.0</ele><time>2026-04-23T17:44:05Z</time></trkpt><trkpt lat="42.060712549987876" lon="13.579647377717704"><ele>711.0</ele><time>2026-04-23T17:44:06Z</time></trkpt><trkpt lat="42.06080300385399" lon="13.57918219981728"><ele>714.0</ele><time>2026-04-23T17:44:07Z</time></trkpt><trkpt lat="42.06089064058601" lon="13.578720845568242"><ele>713.0</ele><time>2026-04-23T17:44:08Z</time></trkpt><trkpt lat="42.06097204547678" lon="13.578256648524256"><ele>712.0</ele><time>2026-04-23T17:44:09Z</time></trkpt><trkpt lat="42.06104658876075" lon="13.577791180885281"><ele>711.0</ele><time>2026-04-23T17:44:10Z</time></trkpt><trkpt lat="42.06111416276751" lon="13.57732160408464"><ele>710.0</ele><time>2026-04-23T17:44:11Z</time></trkpt><trkpt lat="42.06117930060592" lon="13.576851579191983"><ele>709.0</ele><time>2026-04-23T17:44:12Z</time></trkpt><trkpt lat="42.06123886562422" lon="13.57638051859469"><ele>708.0</ele><time>2026-04-23T17:44:13Z</time></trkpt><trkpt lat="42.061294189790324" lon="13.575908120662938"><ele>707.0</ele><time>2026-04-23T17:44:14Z</time></trkpt><trkpt lat="42.06134708363738" lon="13.57543485565677"><ele>706.0</ele><time>2026-04-23T17:44:15Z</time></trkpt><trkpt lat="42.06139732619854" lon="13.574961523557324"><ele>704.0</ele><time>2026-04-23T17:44:16Z</time></trkpt><trkpt lat="42.061442399395055" lon="13.574487060140227"><ele>702.0</ele><time>2026-04-23T17:44:17Z</time></trkpt><trkpt lat="42.06148167781092" lon="13.574012204685628"><ele>700.5</ele><time>2026-04-23T17:44:18Z</time></trkpt><trkpt lat="42.06151637901846" lon="13.573536325617553"><ele>699.0</ele><time>2026-04-23T17:44:19Z</time></trkpt><trkpt lat="42.0615450468294" lon="13.573060506414006"><ele>699.5</ele><time>2026-04-23T17:44:20Z</time></trkpt><trkpt lat="42.06156803678797" lon="13.572584064066657"><ele>700.0</ele><time>2026-04-23T17:44:21Z</time></trkpt><trkpt lat="42.06158921173666" lon="13.57210801531373"><ele>700.0</ele><time>2026-04-23T17:44:22Z</time></trkpt><trkpt lat="42.06160642403844" lon="13.571629527204243"><ele>700.0</ele><time>2026-04-23T17:44:23Z</time></trkpt><trkpt lat="42.06161837316156" lon="13.571152966200053"><ele>702.0</ele><time>2026-04-23T17:44:24Z</time></trkpt><trkpt lat="42.06162505296087" lon="13.570685607484503"><ele>704.0</ele><time>2026-04-23T17:44:25Z</time></trkpt><trkpt lat="42.061630178948086" lon="13.570250450919438"><ele>704.0</ele><time>2026-04-23T17:44:26Z</time></trkpt><trkpt lat="42.06163425494283" lon="13.569842709141795"><ele>704.0</ele><time>2026-04-23T17:44:27Z</time></trkpt><trkpt lat="42.061638092990485" lon="13.56943528600858"><ele>704.5</ele><time>2026-04-23T17:44:28Z</time></trkpt><trkpt lat="42.06163670117929" lon="13.569034940180924"><ele>705.0</ele><time>2026-04-23T17:44:29Z</time></trkpt><trkpt lat="42.06162492859404" lon="13.568638707450143"><ele>702.5</ele><time>2026-04-23T17:44:30Z</time></trkpt><trkpt lat="42.061590483397254" lon="13.568242846591776"><ele>700.0</ele><time>2026-04-23T17:44:31Z</time></trkpt><trkpt lat="42.06158152262342" lon="13.567888652034622"><ele>700.0</ele><time>2026-04-23T17:44:32Z</time></trkpt><trkpt lat="42.061608256736555" lon="13.567572702906833"><ele>700.0</ele><time>2026-04-23T17:44:32.999Z</time></trkpt><trkpt lat="42.06162388410496" lon="13.567251203923629"><ele>699.3333333333334</ele><time>2026-04-23T17:44:33.999Z</time></trkpt><trkpt lat="42.06160557449428" lon="13.56693916672057"><ele>698.6666666666666</ele><time>2026-04-23T17:44:34.999Z</time></trkpt><trkpt lat="42.06159993651821" lon="13.566661613515821"><ele>698.0</ele><time>2026-04-23T17:44:35.999Z</time></trkpt><trkpt lat="42.06159443099723" lon="13.566400857382355"><ele>698.0</ele><time>2026-04-23T17:44:36.999Z</time></trkpt><trkpt lat="42.061592360651694" lon="13.566153982944341"><ele>698.0</ele><time>2026-04-23T17:44:37.999Z</time></trkpt><trkpt lat="42.06159158685654" lon="13.56592284302053"><ele>698.0</ele><time>2026-04-23T17:44:38.999Z</time></trkpt><trkpt lat="42.06159503953964" lon="13.565703970165055"><ele>698.0</ele><time>2026-04-23T17:44:39.999Z</time></trkpt><trkpt lat="42.06160529883713" lon="13.565494966576134"><ele>698.0</ele><time>2026-04-23T17:44:40.999Z</time></trkpt><trkpt lat="42.061622677084834" lon="13.565299125906044"><ele>698.0</ele><time>2026-04-23T17:44:41.999Z</time></trkpt><trkpt lat="42.061649001541966" lon="13.565108812711426"><ele>698.0</ele><time>2026-04-23T17:44:42.999Z</time></trkpt><trkpt lat="42.06168449001742" lon="13.564931842526207"><ele>698.6666666666666</ele><time>2026-04-23T17:44:43.999Z</time></trkpt><trkpt lat="42.06172970922147" lon="13.564748439311382"><ele>699.3333333333334</ele><time>2026-04-23T17:44:44.999Z</time></trkpt><trkpt lat="42.06179980574949" lon="13.564558928494783"><ele>700.0</ele><time>2026-04-23T17:44:45.999Z</time></trkpt><trkpt lat="42.0618934807518" lon="13.564363352885366"><ele>700.0</ele><time>2026-04-23T17:44:46.999Z</time></trkpt><trkpt lat="42.062011488412075" lon="13.564177364624395"><ele>700.0</ele><time>2026-04-23T17:44:47.999Z</time></trkpt><trkpt lat="42.062148924461596" lon="13.564003942985945"><ele>700.0</ele><time>2026-04-23T17:44:48.999Z</time></trkpt><trkpt lat="42.06230115719563" lon="13.563842508935158"><ele>700.0</ele><time>2026-04-23T17:44:49.999Z</time></trkpt><trkpt lat="42.0624453850563" lon="13.563701380745613"><ele>700.0</ele><time>2026-04-23T17:44:50.999Z</time></trkpt><trkpt lat="42.06257616043174" lon="13.563569670390164"><ele>700.0</ele><time>2026-04-23T17:44:51.999Z</time></trkpt><trkpt lat="42.062686637619336" lon="13.563429873330925"><ele>699.75</ele><time>2026-04-23T17:44:52.999Z</time></trkpt><trkpt lat="42.06277365501585" lon="13.563264087639778"><ele>699.5</ele><time>2026-04-23T17:44:53.999Z</time></trkpt><trkpt lat="42.06283632082404" lon="13.563080912625129"><ele>699.25</ele><time>2026-04-23T17:44:54.999Z</time></trkpt><trkpt lat="42.06286150225596" lon="13.562885249104315"><ele>699.0</ele><time>2026-04-23T17:44:55.999Z</time></trkpt><trkpt lat="42.06285226258637" lon="13.562684760370383"><ele>698.6666666666666</ele><time>2026-04-23T17:44:56.999Z</time></trkpt><trkpt lat="42.06280529236711" lon="13.56250352388645"><ele>698.3333333333333</ele><time>2026-04-23T17:44:57.999Z</time></trkpt><trkpt lat="42.06272246148636" lon="13.562330896249417"><ele>698.0</ele><time>2026-04-23T17:44:58.999Z</time></trkpt><trkpt lat="42.062608389995866" lon="13.562169104370781"><ele>698.0</ele><time>2026-04-23T17:44:59.999Z</time></trkpt><trkpt lat="42.06246971753443" lon="13.562033879786744"><ele>698.0</ele><time>2026-04-23T17:45:00.999Z</time></trkpt><trkpt lat="42.06231527837879" lon="13.561938101334357"><ele>698.0</ele><time>2026-04-23T17:45:02Z</time></trkpt><trkpt lat="42.062143408863264" lon="13.561878257936009"><ele>696.6666666666666</ele><time>2026-04-23T17:45:03Z</time></trkpt><trkpt lat="42.06196785567629" lon="13.561852404749844"><ele>695.3333333333334</ele><time>2026-04-23T17:45:04Z</time></trkpt><trkpt lat="42.06179131116453" lon="13.561848352733977"><ele>694.0</ele><time>2026-04-23T17:45:05Z</time></trkpt><trkpt lat="42.06160908250324" lon="13.561854786735235"><ele>694.0</ele><time>2026-04-23T17:45:06Z</time></trkpt><trkpt lat="42.061424466479174" lon="13.561861630460644"><ele>694.0</ele><time>2026-04-23T17:45:07Z</time></trkpt><trkpt lat="42.06123671300512" lon="13.561873638051019"><ele>694.0</ele><time>2026-04-23T17:45:08Z</time></trkpt><trkpt lat="42.06105078767033" lon="13.561867759075435"><ele>694.0</ele><time>2026-04-23T17:45:09Z</time></trkpt><trkpt lat="42.06086206407795" lon="13.561900726278145"><ele>694.0</ele><time>2026-04-23T17:45:10Z</time></trkpt><trkpt lat="42.06068898356379" lon="13.56192489841256"><ele>694.0</ele><time>2026-04-23T17:45:11Z</time></trkpt><trkpt lat="42.060517878262644" lon="13.561963576053953"><ele>693.6666666666667</ele><time>2026-04-23T17:45:12Z</time></trkpt><trkpt lat="42.06035757251506" lon="13.562028505222383"><ele>693.3333333333334</ele><time>2026-04-23T17:45:13Z</time></trkpt><trkpt lat="42.060202418927965" lon="13.56212250758417"><ele>693.0</ele><time>2026-04-23T17:45:14Z</time></trkpt><trkpt lat="42.06005952415282" lon="13.562242490759477"><ele>693.25</ele><time>2026-04-23T17:45:15Z</time></trkpt><trkpt lat="42.05994383777064" lon="13.56237803089427"><ele>693.5</ele><time>2026-04-23T17:45:16Z</time></trkpt><trkpt lat="42.0598367646647" lon="13.562499084958075"><ele>693.75</ele><time>2026-04-23T17:45:17Z</time></trkpt><trkpt lat="42.05973654653598" lon="13.562645411695058"><ele>694.0</ele><time>2026-04-23T17:45:18Z</time></trkpt><trkpt lat="42.05964600152866" lon="13.562806916076655"><ele>693.3333333333334</ele><time>2026-04-23T17:45:19Z</time></trkpt><trkpt lat="42.05958047167751" lon="13.562999887693922"><ele>692.6666666666666</ele><time>2026-04-23T17:45:20Z</time></trkpt><trkpt lat="42.059516879548916" lon="13.56320719747251"><ele>692.0</ele><time>2026-04-23T17:45:21Z</time></trkpt><trkpt lat="42.05945889011426" lon="13.563410406677594"><ele>692.0</ele><time>2026-04-23T17:45:22Z</time></trkpt><trkpt lat="42.05940156376942" lon="13.563610364731671"><ele>692.0</ele><time>2026-04-23T17:45:23Z</time></trkpt><trkpt lat="42.05935402542904" lon="13.563792678383182"><ele>692.0</ele><time>2026-04-23T17:45:24Z</time></trkpt><trkpt lat="42.05930715934684" lon="13.563978637892856"><ele>692.0</ele><time>2026-04-23T17:45:25Z</time></trkpt><trkpt lat="42.059254860801545" lon="13.564164655751577"><ele>692.0</ele><time>2026-04-23T17:45:26Z</time></trkpt><trkpt lat="42.059216651026276" lon="13.564329545662623"><ele>692.0</ele><time>2026-04-23T17:45:27Z</time></trkpt><trkpt lat="42.059175645645226" lon="13.564485434619952"><ele>692.0</ele><time>2026-04-23T17:45:28Z</time></trkpt><trkpt lat="42.05914999683837" lon="13.564601946423402"><ele>692.0</ele><time>2026-04-23T17:45:29Z</time></trkpt><trkpt lat="42.05912931909182" lon="13.564691585051918"><ele>692.0</ele><time>2026-04-23T17:45:30Z</time></trkpt><trkpt lat="42.05909505532872" lon="13.564823250101979"><ele>692.0</ele><time>2026-04-23T17:45:32Z</time></trkpt><trkpt lat="42.059067967637155" lon="13.564938900369723"><ele>692.0</ele><time>2026-04-23T17:45:34Z</time></trkpt><trkpt lat="42.059055018908765" lon="13.565021902122846"><ele>692.0</ele><time>2026-04-23T17:45:35Z</time></trkpt><trkpt lat="42.059035835112674" lon="13.565143171116189"><ele>692.0</ele><time>2026-04-23T17:45:36Z</time></trkpt><trkpt lat="42.05901566097149" lon="13.565272383647219"><ele>692.0</ele><time>2026-04-23T17:45:37Z</time></trkpt><trkpt lat="42.05899222967117" lon="13.565420667560595"><ele>691.25</ele><time>2026-04-23T17:45:38Z</time></trkpt><trkpt lat="42.05896251349833" lon="13.565584845113584"><ele>690.5</ele><time>2026-04-23T17:45:39Z</time></trkpt><trkpt lat="42.05890986092443" lon="13.565745850769776"><ele>689.75</ele><time>2026-04-23T17:45:40Z</time></trkpt><trkpt lat="42.05886253577729" lon="13.56592530014851"><ele>689.0</ele><time>2026-04-23T17:45:41Z</time></trkpt><trkpt lat="42.05881864254523" lon="13.566116648885938"><ele>689.25</ele><time>2026-04-23T17:45:42Z</time></trkpt><trkpt lat="42.05877590725504" lon="13.56629740163353"><ele>689.5</ele><time>2026-04-23T17:45:43Z</time></trkpt><trkpt lat="42.058740745427954" lon="13.56645501142793"><ele>689.75</ele><time>2026-04-23T17:45:44Z</time></trkpt><trkpt lat="42.05870236230357" lon="13.566594899758579"><ele>690.0</ele><time>2026-04-23T17:45:45Z</time></trkpt><trkpt lat="42.05865150627046" lon="13.566720102523965"><ele>690.0</ele><time>2026-04-23T17:45:46Z</time></trkpt><trkpt lat="42.058585757155214" lon="13.566831720897227"><ele>690.0</ele><time>2026-04-23T17:45:47Z</time></trkpt><trkpt lat="42.05851396724335" lon="13.56693455646996"><ele>690.0</ele><time>2026-04-23T17:45:48Z</time></trkpt><trkpt lat="42.05842145196436" lon="13.567007248314528"><ele>690.0</ele><time>2026-04-23T17:45:49Z</time></trkpt><trkpt lat="42.05831892527874" lon="13.567056334507509"><ele>690.0</ele><time>2026-04-23T17:45:50Z</time></trkpt><trkpt lat="42.058211873901584" lon="13.567079707733203"><ele>689.8</ele><time>2026-04-23T17:45:51Z</time></trkpt><trkpt lat="42.058106108709566" lon="13.567085330633155"><ele>689.6</ele><time>2026-04-23T17:45:52Z</time></trkpt><trkpt lat="42.058006478979976" lon="13.567076318765059"><ele>689.4000000000001</ele><time>2026-04-23T17:45:53Z</time></trkpt><trkpt lat="42.05792257198465" lon="13.567055403736418"><ele>689.2</ele><time>2026-04-23T17:45:54Z</time></trkpt><trkpt lat="42.057850415338564" lon="13.56700982396652"><ele>689.0</ele><time>2026-04-23T17:45:55Z</time></trkpt><trkpt lat="42.05778612066178" lon="13.566942663172489"><ele>689.0</ele><time>2026-04-23T17:45:56Z</time></trkpt><trkpt lat="42.05773073107785" lon="13.566849259590287"><ele>689.0</ele><time>2026-04-23T17:45:57Z</time></trkpt><trkpt lat="42.057684201758725" lon="13.566728831294965"><ele>689.0</ele><time>2026-04-23T17:45:58Z</time></trkpt><trkpt lat="42.05770620562597" lon="13.566548285946302"><ele>689.0</ele><time>2026-04-23T17:45:59Z</time></trkpt><trkpt lat="42.05764909211261" lon="13.566403668214306"><ele>689.0</ele><time>2026-04-23T17:46:00Z</time></trkpt><trkpt lat="42.057659626231505" lon="13.566216947106152"><ele>689.0</ele><time>2026-04-23T17:46:01Z</time></trkpt><trkpt lat="42.057676391801174" lon="13.566016842754724"><ele>689.0</ele><time>2026-04-23T17:46:02Z</time></trkpt><trkpt lat="42.05769309182491" lon="13.56580244783597"><ele>689.0</ele><time>2026-04-23T17:46:03Z</time></trkpt><trkpt lat="42.05770918180473" lon="13.565571540232648"><ele>689.3333333333333</ele><time>2026-04-23T17:46:04Z</time></trkpt><trkpt lat="42.0577227947291" lon="13.565332731035525"><ele>689.6666666666666</ele><time>2026-04-23T17:46:05Z</time></trkpt><trkpt lat="42.05773612236043" lon="13.565080553249269"><ele>690.0</ele><time>2026-04-23T17:46:06Z</time></trkpt><trkpt lat="42.05775004552236" lon="13.564816829049407"><ele>690.0</ele><time>2026-04-23T17:46:07Z</time></trkpt><trkpt lat="42.05776578003738" lon="13.564544786201271"><ele>690.0</ele><time>2026-04-23T17:46:08Z</time></trkpt><trkpt lat="42.05778224932102" lon="13.564268245198235"><ele>690.0</ele><time>2026-04-23T17:46:09Z</time></trkpt><trkpt lat="42.05779741576287" lon="13.563984371051113"><ele>690.6666666666666</ele><time>2026-04-23T17:46:10Z</time></trkpt><trkpt lat="42.057813360540436" lon="13.563691843067067"><ele>691.3333333333333</ele><time>2026-04-23T17:46:11Z</time></trkpt><trkpt lat="42.05782964749292" lon="13.563396554025998"><ele>692.0</ele><time>2026-04-23T17:46:12Z</time></trkpt><trkpt lat="42.05784441654362" lon="13.563098148234042"><ele>692.5</ele><time>2026-04-23T17:46:13Z</time></trkpt><trkpt lat="42.057860275702936" lon="13.56279671093229"><ele>693.0</ele><time>2026-04-23T17:46:14Z</time></trkpt><trkpt lat="42.05787657245127" lon="13.56249260435263"><ele>693.0</ele><time>2026-04-23T17:46:15Z</time></trkpt><trkpt lat="42.05789354029471" lon="13.562185816921417"><ele>693.0</ele><time>2026-04-23T17:46:16Z</time></trkpt><trkpt lat="42.05791196288286" lon="13.561883205968067"><ele>693.0</ele><time>2026-04-23T17:46:17Z</time></trkpt><trkpt lat="42.057927689607325" lon="13.561592479549171"><ele>693.0</ele><time>2026-04-23T17:46:18Z</time></trkpt><trkpt lat="42.05794309020732" lon="13.561312143515162"><ele>693.0</ele><time>2026-04-23T17:46:19Z</time></trkpt><trkpt lat="42.057957982432896" lon="13.561037204020332"><ele>693.0</ele><time>2026-04-23T17:46:20Z</time></trkpt><trkpt lat="42.05797393647818" lon="13.560767416882229"><ele>693.0</ele><time>2026-04-23T17:46:21Z</time></trkpt><trkpt lat="42.05799288578838" lon="13.56051148264361"><ele>693.0</ele><time>2026-04-23T17:46:22Z</time></trkpt><trkpt lat="42.05801786352367" lon="13.560278612428943"><ele>693.0</ele><time>2026-04-23T17:46:23Z</time></trkpt><trkpt lat="42.05805441461105" lon="13.560061245458776"><ele>693.0</ele><time>2026-04-23T17:46:24Z</time></trkpt><trkpt lat="42.05809325158164" lon="13.559871991678897"><ele>693.0</ele><time>2026-04-23T17:46:25Z</time></trkpt><trkpt lat="42.058135473601304" lon="13.559712989839964"><ele>693.0</ele><time>2026-04-23T17:46:26Z</time></trkpt><trkpt lat="42.05819222956018" lon="13.559583819391051"><ele>693.0</ele><time>2026-04-23T17:46:27Z</time></trkpt><trkpt lat="42.058271724355706" lon="13.559486979112128"><ele>693.0</ele><time>2026-04-23T17:46:28Z</time></trkpt><trkpt lat="42.05835875680407" lon="13.55941360148626"><ele>693.0</ele><time>2026-04-23T17:46:29Z</time></trkpt><trkpt lat="42.05842554739681" lon="13.559332907157117"><ele>693.0</ele><time>2026-04-23T17:46:30Z</time></trkpt><trkpt lat="42.058460007315595" lon="13.559230720453176"><ele>693.0</ele><time>2026-04-23T17:46:31Z</time></trkpt><trkpt lat="42.05846304771361" lon="13.559119330573742"><ele>693.0</ele><time>2026-04-23T17:46:32Z</time></trkpt><trkpt lat="42.05842773602863" lon="13.559006431843535"><ele>693.0</ele><time>2026-04-23T17:46:33Z</time></trkpt><trkpt lat="42.05836067971018" lon="13.558907291024177"><ele>693.0</ele><time>2026-04-23T17:46:34Z</time></trkpt><trkpt lat="42.05827647154627" lon="13.558810625260167"><ele>693.0</ele><time>2026-04-23T17:46:35Z</time></trkpt><trkpt lat="42.05820099190723" lon="13.558688717098386"><ele>693.0</ele><time>2026-04-23T17:46:36Z</time></trkpt><trkpt lat="42.05815581411154" lon="13.558530957031767"><ele>693.25</ele><time>2026-04-23T17:46:37Z</time></trkpt><trkpt lat="42.05814364120292" lon="13.558356882998787"><ele>693.5</ele><time>2026-04-23T17:46:38Z</time></trkpt><trkpt lat="42.05814360668885" lon="13.558176011171778"><ele>693.75</ele><time>2026-04-23T17:46:39Z</time></trkpt><trkpt lat="42.058148049845755" lon="13.55797672926261"><ele>694.0</ele><time>2026-04-23T17:46:40Z</time></trkpt><trkpt lat="42.058153680403755" lon="13.557768596323655"><ele>694.3333333333334</ele><time>2026-04-23T17:46:41Z</time></trkpt><trkpt lat="42.058166939487286" lon="13.557548150279903"><ele>694.6666666666666</ele><time>2026-04-23T17:46:41.999Z</time></trkpt><trkpt lat="42.05817828400448" lon="13.55732104191675"><ele>695.0</ele><time>2026-04-23T17:46:42.999Z</time></trkpt><trkpt lat="42.058189415126776" lon="13.557087496243472"><ele>695.3333333333333</ele><time>2026-04-23T17:46:43.999Z</time></trkpt><trkpt lat="42.05820043100891" lon="13.556844766123456"><ele>695.6666666666666</ele><time>2026-04-23T17:46:44.999Z</time></trkpt><trkpt lat="42.05821687970157" lon="13.556589899202356"><ele>696.0</ele><time>2026-04-23T17:46:45.999Z</time></trkpt><trkpt lat="42.05823643747073" lon="13.556324641046274"><ele>696.0</ele><time>2026-04-23T17:46:46.999Z</time></trkpt><trkpt lat="42.0582611704802" lon="13.556051286941816"><ele>696.0</ele><time>2026-04-23T17:46:47.999Z</time></trkpt><trkpt lat="42.05828882246721" lon="13.555771378911091"><ele>696.0</ele><time>2026-04-23T17:46:48.999Z</time></trkpt><trkpt lat="42.058320070408946" lon="13.555487743247774"><ele>696.6666666666666</ele><time>2026-04-23T17:46:49.999Z</time></trkpt><trkpt lat="42.058353124269445" lon="13.555195679691838"><ele>697.3333333333333</ele><time>2026-04-23T17:46:50.999Z</time></trkpt><trkpt lat="42.058389661353296" lon="13.554899867035148"><ele>698.0</ele><time>2026-04-23T17:46:51.999Z</time></trkpt><trkpt lat="42.05843082608674" lon="13.554597335596151"><ele>698.5</ele><time>2026-04-23T17:46:52.999Z</time></trkpt><trkpt lat="42.05847548164457" lon="13.554290405558211"><ele>699.0</ele><time>2026-04-23T17:46:53.999Z</time></trkpt><trkpt lat="42.05852246008028" lon="13.553980682312881"><ele>697.0</ele><time>2026-04-23T17:46:54.999Z</time></trkpt><trkpt lat="42.0585752156452" lon="13.553671026335978"><ele>695.0</ele><time>2026-04-23T17:46:55.999Z</time></trkpt><trkpt lat="42.05862680035853" lon="13.553354765264418"><ele>695.0</ele><time>2026-04-23T17:46:56.999Z</time></trkpt><trkpt lat="42.058677132651376" lon="13.553034258383816"><ele>695.0</ele><time>2026-04-23T17:46:57.999Z</time></trkpt><trkpt lat="42.058731573456306" lon="13.552711966952144"><ele>694.0</ele><time>2026-04-23T17:46:58.999Z</time></trkpt><trkpt lat="42.05878764707993" lon="13.55238689973046"><ele>693.0</ele><time>2026-04-23T17:46:59.999Z</time></trkpt><trkpt lat="42.058843642550755" lon="13.552060783248413"><ele>692.5</ele><time>2026-04-23T17:47:00.999Z</time></trkpt><trkpt lat="42.05889909158484" lon="13.551732589980734"><ele>692.0</ele><time>2026-04-23T17:47:01.999Z</time></trkpt><trkpt lat="42.058952174772514" lon="13.551404965318008"><ele>693.5</ele><time>2026-04-23T17:47:02.999Z</time></trkpt><trkpt lat="42.05900423899036" lon="13.551083438445795"><ele>695.0</ele><time>2026-04-23T17:47:03.999Z</time></trkpt><trkpt lat="42.05905355054879" lon="13.550770006925127"><ele>695.0</ele><time>2026-04-23T17:47:04.999Z</time></trkpt><trkpt lat="42.0591018517126" lon="13.550465911872607"><ele>695.0</ele><time>2026-04-23T17:47:05.999Z</time></trkpt><trkpt lat="42.05915095147688" lon="13.550172718007369"><ele>695.6666666666666</ele><time>2026-04-23T17:47:06.999Z</time></trkpt><trkpt lat="42.05919851888994" lon="13.54988546036212"><ele>696.3333333333334</ele><time>2026-04-23T17:47:08Z</time></trkpt><trkpt lat="42.059245941967546" lon="13.549606852759483"><ele>697.0</ele><time>2026-04-23T17:47:09Z</time></trkpt><trkpt lat="42.0592921956902" lon="13.549324931035304"><ele>697.0</ele><time>2026-04-23T17:47:10Z</time></trkpt><trkpt lat="42.05933952537947" lon="13.549040640637635"><ele>697.0</ele><time>2026-04-23T17:47:11Z</time></trkpt><trkpt lat="42.059385681714396" lon="13.548756566684029"><ele>697.0</ele><time>2026-04-23T17:47:12Z</time></trkpt><trkpt lat="42.05943026284203" lon="13.54847262173073"><ele>696.6666666666667</ele><time>2026-04-23T17:47:13Z</time></trkpt><trkpt lat="42.05947433246348" lon="13.548188124763065"><ele>696.3333333333334</ele><time>2026-04-23T17:47:14Z</time></trkpt><trkpt lat="42.059519744855955" lon="13.547902397961236"><ele>696.0</ele><time>2026-04-23T17:47:15Z</time></trkpt><trkpt lat="42.05956558775584" lon="13.547616366609072"><ele>696.0</ele><time>2026-04-23T17:47:16Z</time></trkpt><trkpt lat="42.05961080607838" lon="13.547329669689418"><ele>696.0</ele><time>2026-04-23T17:47:17Z</time></trkpt><trkpt lat="42.0596562009488" lon="13.547054597833247"><ele>696.0</ele><time>2026-04-23T17:47:18Z</time></trkpt><trkpt lat="42.05969970621711" lon="13.546795920897523"><ele>696.0</ele><time>2026-04-23T17:47:19Z</time></trkpt><trkpt lat="42.059743733032036" lon="13.546531269088575"><ele>696.0</ele><time>2026-04-23T17:47:20Z</time></trkpt><trkpt lat="42.05978918961884" lon="13.546256382137784"><ele>696.0</ele><time>2026-04-23T17:47:21Z</time></trkpt><trkpt lat="42.059836134058756" lon="13.545978334476981"><ele>696.0</ele><time>2026-04-23T17:47:22Z</time></trkpt><trkpt lat="42.05988160799255" lon="13.545699005327773"><ele>696.0</ele><time>2026-04-23T17:47:23Z</time></trkpt><trkpt lat="42.05992144842154" lon="13.545442986421467"><ele>696.0</ele><time>2026-04-23T17:47:24Z</time></trkpt><trkpt lat="42.05996073693759" lon="13.54520127379418"><ele>696.0</ele><time>2026-04-23T17:47:25Z</time></trkpt><trkpt lat="42.05999926193507" lon="13.544964406893683"><ele>696.0</ele><time>2026-04-23T17:47:26Z</time></trkpt><trkpt lat="42.06003783474995" lon="13.544730591560036"><ele>696.0</ele><time>2026-04-23T17:47:27Z</time></trkpt><trkpt lat="42.060076448052946" lon="13.54449682191637"><ele>696.0</ele><time>2026-04-23T17:47:28Z</time></trkpt><trkpt lat="42.06011513371036" lon="13.544260299369968"><ele>696.0</ele><time>2026-04-23T17:47:29Z</time></trkpt><trkpt lat="42.06015438865546" lon="13.544014735863916"><ele>696.0</ele><time>2026-04-23T17:47:30Z</time></trkpt><trkpt lat="42.06019522231071" lon="13.54377419091186"><ele>696.3333333333334</ele><time>2026-04-23T17:47:31Z</time></trkpt><trkpt lat="42.06023217895708" lon="13.543547766171516"><ele>696.6666666666667</ele><time>2026-04-23T17:47:32Z</time></trkpt><trkpt lat="42.06026861591802" lon="13.54332119148976"><ele>697.0</ele><time>2026-04-23T17:47:33Z</time></trkpt><trkpt lat="42.060304812035376" lon="13.54308822157844"><ele>696.6666666666667</ele><time>2026-04-23T17:47:34Z</time></trkpt><trkpt lat="42.06034374890061" lon="13.542845622801552"><ele>696.3333333333334</ele><time>2026-04-23T17:47:35Z</time></trkpt><trkpt lat="42.06038427457056" lon="13.54259396416536"><ele>696.0</ele><time>2026-04-23T17:47:36Z</time></trkpt><trkpt lat="42.0604213036276" lon="13.542333438715609"><ele>696.0</ele><time>2026-04-23T17:47:37Z</time></trkpt><trkpt lat="42.06045643194671" lon="13.542051966255789"><ele>696.0</ele><time>2026-04-23T17:47:38Z</time></trkpt><trkpt lat="42.06050245601123" lon="13.541753694300418"><ele>696.0</ele><time>2026-04-23T17:47:39Z</time></trkpt><trkpt lat="42.060559128637564" lon="13.541444659457035"><ele>695.0</ele><time>2026-04-23T17:47:40Z</time></trkpt><trkpt lat="42.06061652991166" lon="13.541127139903024"><ele>694.0</ele><time>2026-04-23T17:47:41Z</time></trkpt><trkpt lat="42.06066928766794" lon="13.540801818641345"><ele>694.0</ele><time>2026-04-23T17:47:42Z</time></trkpt><trkpt lat="42.0607235216685" lon="13.540469157610977"><ele>694.0</ele><time>2026-04-23T17:47:43Z</time></trkpt><trkpt lat="42.06078630920288" lon="13.540135084617278"><ele>694.5</ele><time>2026-04-23T17:47:44Z</time></trkpt><trkpt lat="42.06088370655619" lon="13.539816631197969"><ele>695.0</ele><time>2026-04-23T17:47:45Z</time></trkpt><trkpt lat="42.06089022795311" lon="13.539452305080111"><ele>695.0</ele><time>2026-04-23T17:47:46Z</time></trkpt><trkpt lat="42.06094752996674" lon="13.539099843585463"><ele>695.0</ele><time>2026-04-23T17:47:47Z</time></trkpt><trkpt lat="42.061007328104246" lon="13.53874500877796"><ele>694.5</ele><time>2026-04-23T17:47:48Z</time></trkpt><trkpt lat="42.061066613024494" lon="13.538385785565378"><ele>694.0</ele><time>2026-04-23T17:47:49Z</time></trkpt><trkpt lat="42.06112599815129" lon="13.538021093065938"><ele>693.5</ele><time>2026-04-23T17:47:50Z</time></trkpt><trkpt lat="42.06120983215012" lon="13.537650862056967"><ele>693.0</ele><time>2026-04-23T17:47:51Z</time></trkpt><trkpt lat="42.061254951213535" lon="13.53729750850457"><ele>691.5</ele><time>2026-04-23T17:47:52Z</time></trkpt><trkpt lat="42.06130852139996" lon="13.536938895365413"><ele>690.0</ele><time>2026-04-23T17:47:53Z</time></trkpt><trkpt lat="42.061362381999075" lon="13.536583879021178"><ele>690.0</ele><time>2026-04-23T17:47:54Z</time></trkpt><trkpt lat="42.061412924917455" lon="13.536255473128897"><ele>690.0</ele><time>2026-04-23T17:47:55Z</time></trkpt><trkpt lat="42.06146398920156" lon="13.535948644580193"><ele>689.3333333333334</ele><time>2026-04-23T17:47:56Z</time></trkpt><trkpt lat="42.061512132217274" lon="13.535660467122163"><ele>688.6666666666667</ele><time>2026-04-23T17:47:57Z</time></trkpt><trkpt lat="42.06155803702406" lon="13.53538721603862"><ele>688.0</ele><time>2026-04-23T17:47:58Z</time></trkpt><trkpt lat="42.061604483444675" lon="13.535119018833669"><ele>688.0</ele><time>2026-04-23T17:47:59Z</time></trkpt><trkpt lat="42.06164599859302" lon="13.534859239746401"><ele>688.0</ele><time>2026-04-23T17:48:00Z</time></trkpt><trkpt lat="42.06168399080411" lon="13.534608283788812"><ele>688.0</ele><time>2026-04-23T17:48:01Z</time></trkpt><trkpt lat="42.06172305379601" lon="13.534367969065887"><ele>688.0</ele><time>2026-04-23T17:48:02Z</time></trkpt><trkpt lat="42.06176394313072" lon="13.53415444764501"><ele>688.0</ele><time>2026-04-23T17:48:03Z</time></trkpt><trkpt lat="42.061798116317384" lon="13.533983552628522"><ele>688.0</ele><time>2026-04-23T17:48:04Z</time></trkpt><trkpt lat="42.061826704567956" lon="13.533835367534554"><ele>688.0</ele><time>2026-04-23T17:48:05Z</time></trkpt><trkpt lat="42.06185257010893" lon="13.53372327285509"><ele>687.5999999999999</ele><time>2026-04-23T17:48:06Z</time></trkpt><trkpt lat="42.061884517642916" lon="13.53364586165199"><ele>687.1999999999999</ele><time>2026-04-23T17:48:07Z</time></trkpt><trkpt lat="42.06202080339006" lon="13.533666741299776"><ele>686.8</ele><time>2026-04-23T17:48:10Z</time></trkpt><trkpt lat="42.06211127790643" lon="13.533660632187008"><ele>686.4</ele><time>2026-04-23T17:48:11Z</time></trkpt><trkpt lat="42.06222153987725" lon="13.533621794218694"><ele>686.0</ele><time>2026-04-23T17:48:12Z</time></trkpt><trkpt lat="42.062355791716456" lon="13.53362794562578"><ele>686.3333333333333</ele><time>2026-04-23T17:48:13Z</time></trkpt><trkpt lat="42.0625057134376" lon="13.533667444905538"><ele>686.6666666666666</ele><time>2026-04-23T17:48:14Z</time></trkpt><trkpt lat="42.06267802746904" lon="13.533702856712413"><ele>687.0</ele><time>2026-04-23T17:48:15Z</time></trkpt><trkpt lat="42.062891838904584" lon="13.533735413544763"><ele>687.6666666666666</ele><time>2026-04-23T17:48:16Z</time></trkpt><trkpt lat="42.06309097247797" lon="13.533780734557824"><ele>688.3333333333333</ele><time>2026-04-23T17:48:17Z</time></trkpt><trkpt lat="42.06329838855854" lon="13.533852030176574"><ele>689.0</ele><time>2026-04-23T17:48:18Z</time></trkpt><trkpt lat="42.06349791693649" lon="13.533862771024049"><ele>689.6666666666666</ele><time>2026-04-23T17:48:19Z</time></trkpt><trkpt lat="42.06367192503859" lon="13.533899546015183"><ele>690.3333333333334</ele><time>2026-04-23T17:48:20Z</time></trkpt><trkpt lat="42.06383489349397" lon="13.533906495806065"><ele>691.0</ele><time>2026-04-23T17:48:21Z</time></trkpt><trkpt lat="42.06397218097615" lon="13.533911185433588"><ele>691.0</ele><time>2026-04-23T17:48:22Z</time></trkpt><trkpt lat="42.064093105469105" lon="13.533917930652041"><ele>691.0</ele><time>2026-04-23T17:48:23Z</time></trkpt><trkpt lat="42.06418826606729" lon="13.5339302672552"><ele>691.0</ele><time>2026-04-23T17:48:24Z</time></trkpt><trkpt lat="42.064264665232" lon="13.533972333629748"><ele>691.0</ele><time>2026-04-23T17:48:25Z</time></trkpt><trkpt lat="42.06433606063367" lon="13.53403076112494"><ele>691.0</ele><time>2026-04-23T17:48:26Z</time></trkpt><trkpt lat="42.06440117137707" lon="13.534040769707826"><ele>691.0</ele><time>2026-04-23T17:48:27Z</time></trkpt><trkpt lat="42.06451136366319" lon="13.534081438870519"><ele>691.1999999999999</ele><time>2026-04-23T17:48:29Z</time></trkpt><trkpt lat="42.06455542975347" lon="13.533918534618616"><ele>691.4</ele><time>2026-04-23T17:48:30Z</time></trkpt><trkpt lat="42.06456998710705" lon="13.533824481638169"><ele>691.6</ele><time>2026-04-23T17:48:31Z</time></trkpt><trkpt lat="42.06457659946254" lon="13.533734657876051"><ele>691.8</ele><time>2026-04-23T17:48:33Z</time></trkpt><trkpt lat="42.06474023969355" lon="13.533738726175548"><ele>692.0</ele><time>2026-04-23T17:48:37Z</time></trkpt><trkpt lat="42.064846965583996" lon="13.53374387977843"><ele>692.0</ele><time>2026-04-23T17:48:38Z</time></trkpt><trkpt lat="42.06499178307044" lon="13.533786510299379"><ele>692.0</ele><time>2026-04-23T17:48:39Z</time></trkpt><trkpt lat="42.06516438709358" lon="13.533836332966057"><ele>692.0</ele><time>2026-04-23T17:48:40Z</time></trkpt><trkpt lat="42.06536905534337" lon="13.533897439893511"><ele>692.0</ele><time>2026-04-23T17:48:41Z</time></trkpt><trkpt lat="42.06560480736339" lon="13.533985527731463"><ele>692.0</ele><time>2026-04-23T17:48:42Z</time></trkpt><trkpt lat="42.065870396205476" lon="13.534108742402003"><ele>692.5</ele><time>2026-04-23T17:48:43Z</time></trkpt><trkpt lat="42.06614620227152" lon="13.534183002727831"><ele>693.0</ele><time>2026-04-23T17:48:44Z</time></trkpt><trkpt lat="42.06640796552146" lon="13.534237073561956"><ele>693.5</ele><time>2026-04-23T17:48:45Z</time></trkpt><trkpt lat="42.066650026183375" lon="13.534259817947836"><ele>694.0</ele><time>2026-04-23T17:48:46Z</time></trkpt><trkpt lat="42.066897398650646" lon="13.534282493388282"><ele>694.0</ele><time>2026-04-23T17:48:47Z</time></trkpt><trkpt lat="42.0671327287496" lon="13.534330687157157"><ele>694.0</ele><time>2026-04-23T17:48:48Z</time></trkpt><trkpt lat="42.067346608336" lon="13.53433495048089"><ele>694.3333333333334</ele><time>2026-04-23T17:48:48.999Z</time></trkpt><trkpt lat="42.0675315807344" lon="13.53438342626328"><ele>694.6666666666666</ele><time>2026-04-23T17:48:49.999Z</time></trkpt><trkpt lat="42.067706850671705" lon="13.534410869609863"><ele>695.0</ele><time>2026-04-23T17:48:50.999Z</time></trkpt><trkpt lat="42.06786210380116" lon="13.534417146415679"><ele>695.0</ele><time>2026-04-23T17:48:51.999Z</time></trkpt><trkpt lat="42.06800867480917" lon="13.534446008154177"><ele>695.0</ele><time>2026-04-23T17:48:52.999Z</time></trkpt><trkpt lat="42.06814241252852" lon="13.53446450564042"><ele>695.0</ele><time>2026-04-23T17:48:53.999Z</time></trkpt><trkpt lat="42.06826278053286" lon="13.534488787455578"><ele>695.0</ele><time>2026-04-23T17:48:54.999Z</time></trkpt><trkpt lat="42.06836852127672" lon="13.534514875197317"><ele>695.2</ele><time>2026-04-23T17:48:55.999Z</time></trkpt><trkpt lat="42.0684692615741" lon="13.534545810092077"><ele>695.4</ele><time>2026-04-23T17:48:56.999Z</time></trkpt><trkpt lat="42.068548906147875" lon="13.534629135944119"><ele>695.5999999999999</ele><time>2026-04-23T17:48:57.999Z</time></trkpt><trkpt lat="42.068626906501514" lon="13.5347197393969"><ele>695.8</ele><time>2026-04-23T17:48:58.999Z</time></trkpt><trkpt lat="42.0686753816247" lon="13.534851098343134"><ele>696.0</ele><time>2026-04-23T17:48:59.999Z</time></trkpt><trkpt lat="42.06873446993667" lon="13.534998753870859"><ele>697.0</ele><time>2026-04-23T17:49:00.999Z</time></trkpt><trkpt lat="42.06880033116231" lon="13.535139342223069"><ele>698.0</ele><time>2026-04-23T17:49:01.999Z</time></trkpt><trkpt lat="42.068871680357276" lon="13.53528041393658"><ele>699.0</ele><time>2026-04-23T17:49:02.999Z</time></trkpt><trkpt lat="42.06894981847752" lon="13.535416754024006"><ele>700.0</ele><time>2026-04-23T17:49:03.999Z</time></trkpt><trkpt lat="42.06902834362422" lon="13.535542018240513"><ele>701.3333333333334</ele><time>2026-04-23T17:49:04.999Z</time></trkpt><trkpt lat="42.069113062689254" lon="13.535664501507403"><ele>702.6666666666666</ele><time>2026-04-23T17:49:05.999Z</time></trkpt><trkpt lat="42.06922193908542" lon="13.535799988563445"><ele>704.0</ele><time>2026-04-23T17:49:06.999Z</time></trkpt><trkpt lat="42.06937711843605" lon="13.535962944789981"><ele>704.0</ele><time>2026-04-23T17:49:07.999Z</time></trkpt><trkpt lat="42.06955251689389" lon="13.536138046132965"><ele>704.0</ele><time>2026-04-23T17:49:08.999Z</time></trkpt><trkpt lat="42.06973374709328" lon="13.536326619933947"><ele>704.0</ele><time>2026-04-23T17:49:09.999Z</time></trkpt><trkpt lat="42.069920009584884" lon="13.536529080121321"><ele>705.0</ele><time>2026-04-23T17:49:10.999Z</time></trkpt><trkpt lat="42.07012637935537" lon="13.536749226000023"><ele>706.0</ele><time>2026-04-23T17:49:11.999Z</time></trkpt><trkpt lat="42.07036582743288" lon="13.536976761975193"><ele>705.5</ele><time>2026-04-23T17:49:12.999Z</time></trkpt><trkpt lat="42.07060976631376" lon="13.537199211059084"><ele>705.0</ele><time>2026-04-23T17:49:14Z</time></trkpt><trkpt lat="42.07084041347082" lon="13.537406784023455"><ele>707.0</ele><time>2026-04-23T17:49:15.001Z</time></trkpt><trkpt lat="42.07106521868795" lon="13.53759654656669"><ele>709.0</ele><time>2026-04-23T17:49:16Z</time></trkpt><trkpt lat="42.07128555591618" lon="13.537762522800373"><ele>709.0</ele><time>2026-04-23T17:49:17Z</time></trkpt><trkpt lat="42.07148580454094" lon="13.537902282994727"><ele>709.0</ele><time>2026-04-23T17:49:18Z</time></trkpt><trkpt lat="42.07167292024255" lon="13.538031325833156"><ele>709.0</ele><time>2026-04-23T17:49:19Z</time></trkpt><trkpt lat="42.071846957435405" lon="13.538153728232523"><ele>710.0</ele><time>2026-04-23T17:49:20Z</time></trkpt><trkpt lat="42.07200798667623" lon="13.538266784965577"><ele>711.0</ele><time>2026-04-23T17:49:21Z</time></trkpt><trkpt lat="42.07215664688725" lon="13.538378665305217"><ele>712.0</ele><time>2026-04-23T17:49:22Z</time></trkpt><trkpt lat="42.07228605010956" lon="13.53849477215679"><ele>712.0</ele><time>2026-04-23T17:49:23Z</time></trkpt><trkpt lat="42.07240973642609" lon="13.538628310209605"><ele>712.0</ele><time>2026-04-23T17:49:24Z</time></trkpt><trkpt lat="42.072519976087314" lon="13.538760518270683"><ele>712.0</ele><time>2026-04-23T17:49:25Z</time></trkpt><trkpt lat="42.07261903158288" lon="13.53885432336293"><ele>712.0</ele><time>2026-04-23T17:49:26Z</time></trkpt><trkpt lat="42.07270639954355" lon="13.538930940667306"><ele>712.5</ele><time>2026-04-23T17:49:27Z</time></trkpt><trkpt lat="42.07279357825606" lon="13.538965628832974"><ele>713.0</ele><time>2026-04-23T17:49:28Z</time></trkpt><trkpt lat="42.07289200636478" lon="13.538958454919937"><ele>713.5</ele><time>2026-04-23T17:49:29Z</time></trkpt><trkpt lat="42.07301566509466" lon="13.538907321291061"><ele>714.0</ele><time>2026-04-23T17:49:30Z</time></trkpt><trkpt lat="42.07315724235049" lon="13.538837454327481"><ele>714.6</ele><time>2026-04-23T17:49:31Z</time></trkpt><trkpt lat="42.07329135702341" lon="13.538786982424428"><ele>715.2</ele><time>2026-04-23T17:49:32Z</time></trkpt><trkpt lat="42.07339955355769" lon="13.538752996935646"><ele>715.8000000000001</ele><time>2026-04-23T17:49:33Z</time></trkpt><trkpt lat="42.07348425693396" lon="13.538728891284215"><ele>716.4000000000001</ele><time>2026-04-23T17:49:34Z</time></trkpt><trkpt lat="42.07355847236987" lon="13.538740693341238"><ele>717.0</ele><time>2026-04-23T17:49:35Z</time></trkpt><trkpt lat="42.07363919687057" lon="13.538808380725841"><ele>717.0</ele><time>2026-04-23T17:49:36Z</time></trkpt><trkpt lat="42.073671253297455" lon="13.538961894023558"><ele>717.0</ele><time>2026-04-23T17:49:37Z</time></trkpt><trkpt lat="42.073728125758215" lon="13.539117763794245"><ele>717.0</ele><time>2026-04-23T17:49:38Z</time></trkpt><trkpt lat="42.07379117720177" lon="13.53927609541447"><ele>717.0</ele><time>2026-04-23T17:49:39Z</time></trkpt><trkpt lat="42.07386241901306" lon="13.539388612634431"><ele>717.0</ele><time>2026-04-23T17:49:40Z</time></trkpt><trkpt lat="42.073902668990705" lon="13.539491506919607"><ele>717.0</ele><time>2026-04-23T17:49:41Z</time></trkpt><trkpt lat="42.07402616325173" lon="13.53949058319996"><ele>717.0</ele><time>2026-04-23T17:49:42Z</time></trkpt><trkpt lat="42.074136939053346" lon="13.539490237488153"><ele>717.0</ele><time>2026-04-23T17:49:43Z</time></trkpt><trkpt lat="42.0742757452333" lon="13.539462481970675"><ele>717.6666666666666</ele><time>2026-04-23T17:49:44Z</time></trkpt><trkpt lat="42.074427395050265" lon="13.539430464790035"><ele>718.3333333333333</ele><time>2026-04-23T17:49:45Z</time></trkpt><trkpt lat="42.07459454125348" lon="13.539409750854498"><ele>719.0</ele><time>2026-04-23T17:49:46Z</time></trkpt><trkpt lat="42.074792777169776" lon="13.539385073402745"><ele>720.5</ele><time>2026-04-23T17:49:47Z</time></trkpt><trkpt lat="42.075026566236495" lon="13.539356204820907"><ele>722.0</ele><time>2026-04-23T17:49:48Z</time></trkpt><trkpt lat="42.07528989599772" lon="13.539320198980452"><ele>722.0</ele><time>2026-04-23T17:49:49Z</time></trkpt><trkpt lat="42.075562796646615" lon="13.539285575000351"><ele>722.0</ele><time>2026-04-23T17:49:50Z</time></trkpt><trkpt lat="42.07581632568941" lon="13.5392514989179"><ele>723.0</ele><time>2026-04-23T17:49:51Z</time></trkpt><trkpt lat="42.07602581604443" lon="13.539234612743893"><ele>724.0</ele><time>2026-04-23T17:49:52Z</time></trkpt><trkpt lat="42.07621487464352" lon="13.539205497273967"><ele>725.0</ele><time>2026-04-23T17:49:53Z</time></trkpt><trkpt lat="42.0763834678716" lon="13.539189148182208"><ele>725.0</ele><time>2026-04-23T17:49:54Z</time></trkpt><trkpt lat="42.07652231666558" lon="13.539204115964788"><ele>725.0</ele><time>2026-04-23T17:49:55Z</time></trkpt><trkpt lat="42.07664439452706" lon="13.539248843240301"><ele>725.0</ele><time>2026-04-23T17:49:56Z</time></trkpt><trkpt lat="42.076754144385156" lon="13.539308972050904"><ele>725.0</ele><time>2026-04-23T17:49:57Z</time></trkpt><trkpt lat="42.07684848943905" lon="13.539382351165814"><ele>725.5</ele><time>2026-04-23T17:49:58Z</time></trkpt><trkpt lat="42.07693756975275" lon="13.539441687400299"><ele>726.0</ele><time>2026-04-23T17:49:59Z</time></trkpt><trkpt lat="42.077024272215645" lon="13.539485477021037"><ele>726.5</ele><time>2026-04-23T17:50:00Z</time></trkpt><trkpt lat="42.07710221134986" lon="13.539495425695417"><ele>727.0</ele><time>2026-04-23T17:50:01Z</time></trkpt><trkpt lat="42.077169444136665" lon="13.53952016722402"><ele>727.5</ele><time>2026-04-23T17:50:02Z</time></trkpt><trkpt lat="42.077232653268695" lon="13.539522040905087"><ele>728.0</ele><time>2026-04-23T17:50:03Z</time></trkpt><trkpt lat="42.077243953134584" lon="13.53931375060243"><ele>728.0</ele><time>2026-04-23T17:50:04Z</time></trkpt><trkpt lat="42.077249383329224" lon="13.539195460478265"><ele>728.0</ele><time>2026-04-23T17:50:05Z</time></trkpt><trkpt lat="42.077241854291906" lon="13.539052742731583"><ele>728.0</ele><time>2026-04-23T17:50:06Z</time></trkpt><trkpt lat="42.0772090909987" lon="13.538880206344645"><ele>728.0</ele><time>2026-04-23T17:50:07Z</time></trkpt><trkpt lat="42.07717360294224" lon="13.538694323330004"><ele>727.0</ele><time>2026-04-23T17:50:08Z</time></trkpt><trkpt lat="42.077142347554854" lon="13.538471632492605"><ele>726.0</ele><time>2026-04-23T17:50:09Z</time></trkpt><trkpt lat="42.0771029135385" lon="13.538247561857807"><ele>725.0</ele><time>2026-04-23T17:50:10Z</time></trkpt><trkpt lat="42.07706006453298" lon="13.538011500598632"><ele>726.0</ele><time>2026-04-23T17:50:11Z</time></trkpt><trkpt lat="42.07701151848084" lon="13.53776459833299"><ele>727.0</ele><time>2026-04-23T17:50:12Z</time></trkpt><trkpt lat="42.07696347387755" lon="13.537509126619796"><ele>728.0</ele><time>2026-04-23T17:50:13Z</time></trkpt><trkpt lat="42.07691272702081" lon="13.53724790613995"><ele>727.6666666666666</ele><time>2026-04-23T17:50:14Z</time></trkpt><trkpt lat="42.07686081787311" lon="13.536987123455322"><ele>727.3333333333334</ele><time>2026-04-23T17:50:15Z</time></trkpt><trkpt lat="42.0768135920178" lon="13.536721167645076"><ele>727.0</ele><time>2026-04-23T17:50:16Z</time></trkpt><trkpt lat="42.07676313785565" lon="13.53645731313067"><ele>726.3333333333334</ele><time>2026-04-23T17:50:17Z</time></trkpt><trkpt lat="42.07671320020969" lon="13.536204176444167"><ele>725.6666666666666</ele><time>2026-04-23T17:50:18Z</time></trkpt><trkpt lat="42.076664664018026" lon="13.535956384312255"><ele>725.0</ele><time>2026-04-23T17:50:19Z</time></trkpt><trkpt lat="42.07662171690709" lon="13.535730053480728"><ele>724.0</ele><time>2026-04-23T17:50:20Z</time></trkpt><trkpt lat="42.07657789387098" lon="13.535501611786419"><ele>723.0</ele><time>2026-04-23T17:50:21Z</time></trkpt><trkpt lat="42.076528806844074" lon="13.535285640844322"><ele>722.0</ele><time>2026-04-23T17:50:22Z</time></trkpt><trkpt lat="42.076470691165945" lon="13.535086523713519"><ele>722.0</ele><time>2026-04-23T17:50:23Z</time></trkpt><trkpt lat="42.07639708816447" lon="13.534890862226291"><ele>722.0</ele><time>2026-04-23T17:50:24Z</time></trkpt><trkpt lat="42.07631636003113" lon="13.534690890592014"><ele>722.0</ele><time>2026-04-23T17:50:25Z</time></trkpt><trkpt lat="42.07623146402849" lon="13.534485806691888"><ele>722.3333333333333</ele><time>2026-04-23T17:50:26Z</time></trkpt><trkpt lat="42.076158461303784" lon="13.534289942971684"><ele>722.6666666666666</ele><time>2026-04-23T17:50:27Z</time></trkpt><trkpt lat="42.07608093396874" lon="13.534097400463237"><ele>723.0</ele><time>2026-04-23T17:50:28Z</time></trkpt><trkpt lat="42.07600808311695" lon="13.53390641502304"><ele>723.3333333333334</ele><time>2026-04-23T17:50:29Z</time></trkpt><trkpt lat="42.075938609713326" lon="13.53372069076884"><ele>723.6666666666667</ele><time>2026-04-23T17:50:30Z</time></trkpt><trkpt lat="42.07586942012761" lon="13.533542957471555"><ele>724.0</ele><time>2026-04-23T17:50:31Z</time></trkpt><trkpt lat="42.075801406844796" lon="13.53336641419295"><ele>723.25</ele><time>2026-04-23T17:50:32Z</time></trkpt><trkpt lat="42.07572873260524" lon="13.53319395044554"><ele>722.5</ele><time>2026-04-23T17:50:33Z</time></trkpt><trkpt lat="42.07565700629281" lon="13.533021521375876"><ele>721.75</ele><time>2026-04-23T17:50:34Z</time></trkpt><trkpt lat="42.07558161026506" lon="13.53284361411467"><ele>721.0</ele><time>2026-04-23T17:50:35Z</time></trkpt><trkpt lat="42.075506197726995" lon="13.53265729637987"><ele>721.0</ele><time>2026-04-23T17:50:36Z</time></trkpt><trkpt lat="42.07542717080385" lon="13.532467885869526"><ele>721.0</ele><time>2026-04-23T17:50:37Z</time></trkpt><trkpt lat="42.075347134635734" lon="13.532275551113475"><ele>721.0</ele><time>2026-04-23T17:50:38Z</time></trkpt><trkpt lat="42.07526746184426" lon="13.53208379523065"><ele>720.6666666666667</ele><time>2026-04-23T17:50:39Z</time></trkpt><trkpt lat="42.075192799259945" lon="13.531898685622721"><ele>720.3333333333334</ele><time>2026-04-23T17:50:40Z</time></trkpt><trkpt lat="42.07511986002062" lon="13.531720084824249"><ele>720.0</ele><time>2026-04-23T17:50:41Z</time></trkpt><trkpt lat="42.07505257391698" lon="13.531551275384015"><ele>720.0</ele><time>2026-04-23T17:50:42Z</time></trkpt><trkpt lat="42.07498568379928" lon="13.531392226225156"><ele>720.0</ele><time>2026-04-23T17:50:43Z</time></trkpt><trkpt lat="42.07492288439458" lon="13.531242127190398"><ele>720.0</ele><time>2026-04-23T17:50:44Z</time></trkpt><trkpt lat="42.074866754636815" lon="13.531099450004987"><ele>720.0</ele><time>2026-04-23T17:50:44.999Z</time></trkpt><trkpt lat="42.0748213824944" lon="13.530972209929901"><ele>719.6</ele><time>2026-04-23T17:50:45.999Z</time></trkpt><trkpt lat="42.07478303874382" lon="13.530858890060195"><ele>719.2</ele><time>2026-04-23T17:50:46.999Z</time></trkpt><trkpt lat="42.074759781114984" lon="13.530756219614737"><ele>718.8</ele><time>2026-04-23T17:50:47.999Z</time></trkpt><trkpt lat="42.074690860128" lon="13.5306515180812"><ele>718.4</ele><time>2026-04-23T17:50:48.999Z</time></trkpt><trkpt lat="42.07464989919403" lon="13.530533359673282"><ele>718.0</ele><time>2026-04-23T17:50:50.999Z</time></trkpt><trkpt lat="42.0745436320357" lon="13.53053809982572"><ele>718.0</ele><time>2026-04-23T17:55:25.999Z</time></trkpt><trkpt lat="42.074478344098125" lon="13.530538517711058"><ele>718.0</ele><time>2026-04-23T17:55:48Z</time></trkpt><trkpt lat="42.0744201501505" lon="13.53058366142455"><ele>718.0</ele><time>2026-04-23T18:01:48.999Z</time></trkpt><trkpt lat="42.07438966926939" lon="13.53066647716238"><ele>718.0</ele><time>2026-04-23T18:01:55Z</time></trkpt><trkpt lat="42.07436305905231" lon="13.53083797041771"><ele>718.0</ele><time>2026-04-23T18:02:04Z</time></trkpt><trkpt lat="42.07438042561329" lon="13.530739037876742"><ele>718.0</ele><time>2026-04-23T18:02:12Z</time></trkpt><trkpt lat="42.07433356552692" lon="13.530667410120564"><ele>718.0</ele><time>2026-04-23T18:02:17Z</time></trkpt><trkpt lat="42.074370948144505" lon="13.53056923588819"><ele>718.0</ele><time>2026-04-23T18:02:20Z</time></trkpt><trkpt lat="42.0745931294684" lon="13.530558913636074"><ele>718.0</ele><time>2026-04-23T18:02:54Z</time></trkpt><trkpt lat="42.07457352060298" lon="13.530464599965542"><ele>718.0</ele><time>2026-04-23T18:03:06.999Z</time></trkpt><trkpt lat="42.07454975819802" lon="13.530377150690727"><ele>718.0</ele><time>2026-04-23T18:03:10.999Z</time></trkpt><trkpt lat="42.074521866674374" lon="13.530283704280684"><ele>718.2</ele><time>2026-04-23T18:03:13.999Z</time></trkpt><trkpt lat="42.07448743166557" lon="13.530196803546943"><ele>718.4</ele><time>2026-04-23T18:03:16.999Z</time></trkpt><trkpt lat="42.074450492259864" lon="13.530098450797642"><ele>718.6</ele><time>2026-04-23T18:03:19.999Z</time></trkpt><trkpt lat="42.074409571172154" lon="13.529978180077338"><ele>718.8000000000001</ele><time>2026-04-23T18:03:22.999Z</time></trkpt><trkpt lat="42.07436203728244" lon="13.52985922672844"><ele>719.0</ele><time>2026-04-23T18:03:24.999Z</time></trkpt><trkpt lat="42.074312857420765" lon="13.529730093828553"><ele>719.0</ele><time>2026-04-23T18:03:26.999Z</time></trkpt><trkpt lat="42.07426538836481" lon="13.529613762859169"><ele>719.0</ele><time>2026-04-23T18:03:28.999Z</time></trkpt><trkpt lat="42.07421759162231" lon="13.529500098416662"><ele>719.0</ele><time>2026-04-23T18:03:30.999Z</time></trkpt><trkpt lat="42.07415882043438" lon="13.529392888988724"><ele>719.0</ele><time>2026-04-23T18:03:32.999Z</time></trkpt><trkpt lat="42.074115646395704" lon="13.529277184541595"><ele>719.0</ele><time>2026-04-23T18:03:34.999Z</time></trkpt><trkpt lat="42.07405897162711" lon="13.529140166951018"><ele>718.6</ele><time>2026-04-23T18:03:36.999Z</time></trkpt><trkpt lat="42.074000318422414" lon="13.529014778986486"><ele>718.2</ele><time>2026-04-23T18:03:38.999Z</time></trkpt><trkpt lat="42.07396224365476" lon="13.528863359233789"><ele>717.8000000000001</ele><time>2026-04-23T18:03:40.999Z</time></trkpt><trkpt lat="42.07393280592818" lon="13.528785994160783"><ele>717.4000000000001</ele><time>2026-04-23T18:03:41.999Z</time></trkpt><trkpt lat="42.07387483369361" lon="13.528643456505066"><ele>717.0</ele><time>2026-04-23T18:03:43.999Z</time></trkpt><trkpt lat="42.07381945846641" lon="13.528498315264809"><ele>716.7142857142857</ele><time>2026-04-23T18:03:45.999Z</time></trkpt><trkpt lat="42.07378672917872" lon="13.52842058546324"><ele>716.4285714285713</ele><time>2026-04-23T18:03:46.999Z</time></trkpt><trkpt lat="42.07375254966787" lon="13.528342501699354"><ele>716.1428571428571</ele><time>2026-04-23T18:03:47.999Z</time></trkpt><trkpt lat="42.07371986033555" lon="13.528256808574653"><ele>715.8571428571429</ele><time>2026-04-23T18:03:48.999Z</time></trkpt><trkpt lat="42.07368838391843" lon="13.528176775319038"><ele>715.5714285714286</ele><time>2026-04-23T18:03:49.999Z</time></trkpt><trkpt lat="42.0736584380969" lon="13.52809511737784"><ele>715.2857142857143</ele><time>2026-04-23T18:03:50.999Z</time></trkpt><trkpt lat="42.07362321196671" lon="13.528015530947807"><ele>715.0</ele><time>2026-04-23T18:03:51.999Z</time></trkpt><trkpt lat="42.073592148432816" lon="13.52793657039667"><ele>714.8571428571429</ele><time>2026-04-23T18:03:52.999Z</time></trkpt><trkpt lat="42.07356505723994" lon="13.527855221812588"><ele>714.7142857142857</ele><time>2026-04-23T18:03:53.999Z</time></trkpt><trkpt lat="42.07353739002182" lon="13.527777416733837"><ele>714.5714285714286</ele><time>2026-04-23T18:03:55Z</time></trkpt><trkpt lat="42.07350862910081" lon="13.527692199500203"><ele>714.4285714285714</ele><time>2026-04-23T18:03:56Z</time></trkpt><trkpt lat="42.07347630741175" lon="13.52760189918273"><ele>714.2857142857142</ele><time>2026-04-23T18:03:57Z</time></trkpt><trkpt lat="42.07344397464128" lon="13.527514472377685"><ele>714.1428571428571</ele><time>2026-04-23T18:03:58Z</time></trkpt><trkpt lat="42.073411258044736" lon="13.527436734033007"><ele>714.0</ele><time>2026-04-23T18:03:59Z</time></trkpt><trkpt lat="42.07337447481696" lon="13.527358239603736"><ele>714.0</ele><time>2026-04-23T18:04:00Z</time></trkpt><trkpt lat="42.07333631597048" lon="13.527270936519695"><ele>714.0</ele><time>2026-04-23T18:04:01Z</time></trkpt><trkpt lat="42.07330146268883" lon="13.527188069677434"><ele>714.0</ele><time>2026-04-23T18:04:02Z</time></trkpt><trkpt lat="42.073263787604574" lon="13.52710788148083"><ele>714.0</ele><time>2026-04-23T18:04:03Z</time></trkpt><trkpt lat="42.073240765226764" lon="13.527010347007272"><ele>714.0</ele><time>2026-04-23T18:04:04Z</time></trkpt><trkpt lat="42.073206866914546" lon="13.5269257513908"><ele>714.0</ele><time>2026-04-23T18:04:05Z</time></trkpt><trkpt lat="42.0731732263189" lon="13.526841798944469"><ele>714.0</ele><time>2026-04-23T18:04:06Z</time></trkpt><trkpt lat="42.07313880736129" lon="13.526755904026555"><ele>713.4285714285714</ele><time>2026-04-23T18:04:07Z</time></trkpt><trkpt lat="42.07310558053399" lon="13.526672984176882"><ele>712.8571428571429</ele><time>2026-04-23T18:04:08Z</time></trkpt><trkpt lat="42.07306852503459" lon="13.526585979235817"><ele>712.2857142857142</ele><time>2026-04-23T18:04:09Z</time></trkpt><trkpt lat="42.07303423800462" lon="13.526508959260166"><ele>711.7142857142858</ele><time>2026-04-23T18:04:10Z</time></trkpt><trkpt lat="42.072989412577215" lon="13.5264437583126"><ele>711.1428571428571</ele><time>2026-04-23T18:04:11Z</time></trkpt><trkpt lat="42.07296729909486" lon="13.526357208874066"><ele>710.5714285714286</ele><time>2026-04-23T18:04:12Z</time></trkpt><trkpt lat="42.072925088939314" lon="13.526283809971474"><ele>710.0</ele><time>2026-04-23T18:04:13Z</time></trkpt><trkpt lat="42.07288331136446" lon="13.526215876711623"><ele>709.6666666666666</ele><time>2026-04-23T18:04:14Z</time></trkpt><trkpt lat="42.07284473241142" lon="13.526135848587097"><ele>709.3333333333333</ele><time>2026-04-23T18:04:15Z</time></trkpt><trkpt lat="42.07281562297536" lon="13.526058118982673"><ele>709.0</ele><time>2026-04-23T18:04:16Z</time></trkpt><trkpt lat="42.072740347432635" lon="13.525931678803472"><ele>708.6666666666666</ele><time>2026-04-23T18:04:18Z</time></trkpt><trkpt lat="42.07268971251743" lon="13.525878196453629"><ele>708.3333333333334</ele><time>2026-04-23T18:04:19Z</time></trkpt><trkpt lat="42.07256970225686" lon="13.525822808031348"><ele>708.0</ele><time>2026-04-23T18:04:21Z</time></trkpt><trkpt lat="42.07250148644712" lon="13.525793162598163"><ele>707.6666666666666</ele><time>2026-04-23T18:04:22Z</time></trkpt><trkpt lat="42.07242905221994" lon="13.5257664564846"><ele>707.3333333333334</ele><time>2026-04-23T18:04:23Z</time></trkpt><trkpt lat="42.07235609419377" lon="13.525745461655157"><ele>707.0</ele><time>2026-04-23T18:04:24Z</time></trkpt><trkpt lat="42.072282415236565" lon="13.525737157282874"><ele>706.6666666666667</ele><time>2026-04-23T18:04:25Z</time></trkpt><trkpt lat="42.072206513773054" lon="13.525736606745827"><ele>706.3333333333334</ele><time>2026-04-23T18:04:26Z</time></trkpt><trkpt lat="42.07212713059224" lon="13.525743013123474"><ele>706.0</ele><time>2026-04-23T18:04:27Z</time></trkpt><trkpt lat="42.07204081093979" lon="13.525747269529926"><ele>706.0</ele><time>2026-04-23T18:04:28Z</time></trkpt><trkpt lat="42.07195197321697" lon="13.525753829497855"><ele>706.0</ele><time>2026-04-23T18:04:29Z</time></trkpt><trkpt lat="42.07186384273483" lon="13.52576239528005"><ele>706.0</ele><time>2026-04-23T18:04:30Z</time></trkpt><trkpt lat="42.07177457342022" lon="13.525768926253031"><ele>706.0</ele><time>2026-04-23T18:04:31Z</time></trkpt><trkpt lat="42.07168413381137" lon="13.525773666332567"><ele>706.0</ele><time>2026-04-23T18:04:32Z</time></trkpt><trkpt lat="42.07159433349198" lon="13.52577767707071"><ele>706.0</ele><time>2026-04-23T18:04:33Z</time></trkpt><trkpt lat="42.0715022171936" lon="13.525783533665694"><ele>705.4</ele><time>2026-04-23T18:04:34Z</time></trkpt><trkpt lat="42.071407558234455" lon="13.52578987324361"><ele>704.8</ele><time>2026-04-23T18:04:35Z</time></trkpt><trkpt lat="42.0713156257492" lon="13.525798963980941"><ele>704.1999999999999</ele><time>2026-04-23T18:04:36Z</time></trkpt><trkpt lat="42.07122127958475" lon="13.525810569318363"><ele>703.5999999999999</ele><time>2026-04-23T18:04:37Z</time></trkpt><trkpt lat="42.071128056634855" lon="13.525822307949975"><ele>703.0</ele><time>2026-04-23T18:04:38Z</time></trkpt><trkpt lat="42.07103263168251" lon="13.5258345021006"><ele>703.0</ele><time>2026-04-23T18:04:39Z</time></trkpt><trkpt lat="42.07093858783477" lon="13.525844750612569"><ele>703.0</ele><time>2026-04-23T18:04:40Z</time></trkpt><trkpt lat="42.070843492163874" lon="13.525854761985155"><ele>703.0</ele><time>2026-04-23T18:04:41Z</time></trkpt><trkpt lat="42.07074976309282" lon="13.525861348029249"><ele>703.0</ele><time>2026-04-23T18:04:42Z</time></trkpt><trkpt lat="42.07065629254389" lon="13.52585908607905"><ele>703.0</ele><time>2026-04-23T18:04:43Z</time></trkpt><trkpt lat="42.070565766118364" lon="13.525849806532886"><ele>703.1666666666667</ele><time>2026-04-23T18:04:44Z</time></trkpt><trkpt lat="42.07047509832862" lon="13.525837887958634"><ele>703.3333333333334</ele><time>2026-04-23T18:04:45Z</time></trkpt><trkpt lat="42.070387627938715" lon="13.525822142477402"><ele>703.5</ele><time>2026-04-23T18:04:46Z</time></trkpt><trkpt lat="42.070302365665775" lon="13.525808430582691"><ele>703.6666666666666</ele><time>2026-04-23T18:04:47Z</time></trkpt><trkpt lat="42.07022014415176" lon="13.525797275058897"><ele>703.8333333333333</ele><time>2026-04-23T18:04:48Z</time></trkpt><trkpt lat="42.0701372201773" lon="13.525782521950887"><ele>704.0</ele><time>2026-04-23T18:04:49Z</time></trkpt><trkpt lat="42.070056156391885" lon="13.525765493167928"><ele>704.0</ele><time>2026-04-23T18:04:50Z</time></trkpt><trkpt lat="42.06997550000918" lon="13.525736818169564"><ele>704.0</ele><time>2026-04-23T18:04:51Z</time></trkpt><trkpt lat="42.069894380944355" lon="13.525721576510108"><ele>704.0</ele><time>2026-04-23T18:04:52Z</time></trkpt><trkpt lat="42.069810783560136" lon="13.525704490372078"><ele>704.0</ele><time>2026-04-23T18:04:53Z</time></trkpt><trkpt lat="42.069725529780186" lon="13.525682032085856"><ele>704.0</ele><time>2026-04-23T18:04:54Z</time></trkpt><trkpt lat="42.06964805592825" lon="13.525664973226815"><ele>704.0</ele><time>2026-04-23T18:04:55Z</time></trkpt><trkpt lat="42.06956350632066" lon="13.525647692975289"><ele>703.5</ele><time>2026-04-23T18:04:56Z</time></trkpt><trkpt lat="42.069481153154356" lon="13.525626286200549"><ele>703.0</ele><time>2026-04-23T18:04:57Z</time></trkpt><trkpt lat="42.06939100415594" lon="13.525607428366179"><ele>702.5</ele><time>2026-04-23T18:04:58Z</time></trkpt><trkpt lat="42.06930677366381" lon="13.525587915116398"><ele>702.0</ele><time>2026-04-23T18:04:59Z</time></trkpt><trkpt lat="42.06921742779083" lon="13.525565585445847"><ele>701.5</ele><time>2026-04-23T18:05:00Z</time></trkpt><trkpt lat="42.069126753682504" lon="13.525545246412891"><ele>701.0</ele><time>2026-04-23T18:05:01Z</time></trkpt><trkpt lat="42.06903475801547" lon="13.525525559561096"><ele>700.6666666666666</ele><time>2026-04-23T18:05:02Z</time></trkpt><trkpt lat="42.06894472655148" lon="13.525507935443338"><ele>700.3333333333333</ele><time>2026-04-23T18:05:03Z</time></trkpt><trkpt lat="42.06885355387511" lon="13.525486514834212"><ele>700.0</ele><time>2026-04-23T18:05:04Z</time></trkpt><trkpt lat="42.06876478134616" lon="13.525463460230513"><ele>699.6666666666666</ele><time>2026-04-23T18:05:05Z</time></trkpt><trkpt lat="42.06867711290954" lon="13.525439582143843"><ele>699.3333333333334</ele><time>2026-04-23T18:05:05.999Z</time></trkpt><trkpt lat="42.06860106312761" lon="13.52541507673233"><ele>699.0</ele><time>2026-04-23T18:05:06.999Z</time></trkpt><trkpt lat="42.068541138618485" lon="13.525388826161013"><ele>698.8000000000001</ele><time>2026-04-23T18:05:07.999Z</time></trkpt><trkpt lat="42.06845243402857" lon="13.525283127096207"><ele>698.6</ele><time>2026-04-23T18:05:09.999Z</time></trkpt><trkpt lat="42.068389168511786" lon="13.525174197033797"><ele>698.4</ele><time>2026-04-23T18:05:11.999Z</time></trkpt><trkpt lat="42.06834240672546" lon="13.525084021734722"><ele>698.2</ele><time>2026-04-23T18:05:13.999Z</time></trkpt><trkpt lat="42.06829555083374" lon="13.524974520191918"><ele>698.0</ele><time>2026-04-23T18:05:16.999Z</time></trkpt><trkpt lat="42.068263021590916" lon="13.524899255848888"><ele>697.9999999999999</ele><time>2026-04-23T18:05:18.999Z</time></trkpt><trkpt lat="42.06822626523965" lon="13.524815046786202"><ele>698.0</ele><time>2026-04-23T18:05:20.999Z</time></trkpt><trkpt lat="42.0681779600212" lon="13.524747954907298"><ele>698.0</ele><time>2026-04-23T18:05:22.999Z</time></trkpt><trkpt lat="42.068140022257076" lon="13.52465170193114"><ele>698.0</ele><time>2026-04-23T18:05:24.999Z</time></trkpt><trkpt lat="42.06810365309465" lon="13.52456163471352"><ele>698.0</ele><time>2026-04-23T18:05:26.999Z</time></trkpt><trkpt lat="42.06806704348021" lon="13.524482940993279"><ele>697.9999999999999</ele><time>2026-04-23T18:05:28.999Z</time></trkpt><trkpt lat="42.06802826480731" lon="13.524391449981971"><ele>698.0</ele><time>2026-04-23T18:05:31.999Z</time></trkpt><trkpt lat="42.068000613570796" lon="13.5243016960473"><ele>698.0</ele><time>2026-04-23T18:05:34.999Z</time></trkpt><trkpt lat="42.06795686624147" lon="13.524194795187517"><ele>698.0</ele><time>2026-04-23T18:05:37.999Z</time></trkpt><trkpt lat="42.06791947719645" lon="13.524100540548577"><ele>698.0</ele><time>2026-04-23T18:05:39.999Z</time></trkpt><trkpt lat="42.067881509081936" lon="13.52400348066175"><ele>698.0</ele><time>2026-04-23T18:05:41.999Z</time></trkpt><trkpt lat="42.0678380175734" lon="13.523893395919304"><ele>698.0</ele><time>2026-04-23T18:05:43.999Z</time></trkpt><trkpt lat="42.06779497872312" lon="13.523790280681059"><ele>698.0</ele><time>2026-04-23T18:05:45.999Z</time></trkpt><trkpt lat="42.067755887579956" lon="13.523700143195866"><ele>698.0</ele><time>2026-04-23T18:05:47.999Z</time></trkpt><trkpt lat="42.067718389644746" lon="13.52361658379022"><ele>698.0</ele><time>2026-04-23T18:05:49.999Z</time></trkpt><trkpt lat="42.06767528577099" lon="13.523524999174441"><ele>698.0</ele><time>2026-04-23T18:05:51.999Z</time></trkpt><trkpt lat="42.06763186580243" lon="13.523432692800897"><ele>698.0</ele><time>2026-04-23T18:05:53.999Z</time></trkpt><trkpt lat="42.0675756464676" lon="13.523365344765025"><ele>698.0</ele><time>2026-04-23T18:05:55.999Z</time></trkpt><trkpt lat="42.067538804148995" lon="13.523269156033612"><ele>698.0</ele><time>2026-04-23T18:05:57.999Z</time></trkpt><trkpt lat="42.0674867782373" lon="13.52315918370554"><ele>697.3333333333333</ele><time>2026-04-23T18:05:59.999Z</time></trkpt><trkpt lat="42.06742602316029" lon="13.523021787310713"><ele>696.6666666666666</ele><time>2026-04-23T18:06:02Z</time></trkpt><trkpt lat="42.06739364097949" lon="13.522945924084382"><ele>696.0</ele><time>2026-04-23T18:06:03Z</time></trkpt><trkpt lat="42.067353758254725" lon="13.522874688254443"><ele>695.3333333333334</ele><time>2026-04-23T18:06:04Z</time></trkpt><trkpt lat="42.06731311679533" lon="13.52280693685413"><ele>694.6666666666667</ele><time>2026-04-23T18:06:05Z</time></trkpt><trkpt lat="42.06726538673498" lon="13.522734633140791"><ele>694.0</ele><time>2026-04-23T18:06:06Z</time></trkpt><trkpt lat="42.06722114181383" lon="13.522656708977026"><ele>693.8333333333334</ele><time>2026-04-23T18:06:07Z</time></trkpt><trkpt lat="42.06717162323931" lon="13.522569917722512"><ele>693.6666666666667</ele><time>2026-04-23T18:06:08Z</time></trkpt><trkpt lat="42.06712098048925" lon="13.522478430985434"><ele>693.5</ele><time>2026-04-23T18:06:09Z</time></trkpt><trkpt lat="42.067062456042535" lon="13.52237683616312"><ele>693.3333333333334</ele><time>2026-04-23T18:06:10Z</time></trkpt><trkpt lat="42.06700178221047" lon="13.522284192204847"><ele>693.1666666666666</ele><time>2026-04-23T18:06:11Z</time></trkpt><trkpt lat="42.0669427021842" lon="13.522195670001224"><ele>693.0</ele><time>2026-04-23T18:06:12Z</time></trkpt><trkpt lat="42.06688493282155" lon="13.522109461863984"><ele>693.2</ele><time>2026-04-23T18:06:13Z</time></trkpt><trkpt lat="42.0668270068322" lon="13.522015961732647"><ele>693.4</ele><time>2026-04-23T18:06:14Z</time></trkpt><trkpt lat="42.06676769876804" lon="13.521920844181382"><ele>693.6</ele><time>2026-04-23T18:06:15Z</time></trkpt><trkpt lat="42.06670879505401" lon="13.521823234511974"><ele>693.8000000000001</ele><time>2026-04-23T18:06:16Z</time></trkpt><trkpt lat="42.066648881243935" lon="13.5217275363948"><ele>694.0</ele><time>2026-04-23T18:06:17Z</time></trkpt><trkpt lat="42.066595895772664" lon="13.521619874116489"><ele>694.0</ele><time>2026-04-23T18:06:18Z</time></trkpt><trkpt lat="42.066584943866765" lon="13.521499208988425"><ele>694.0</ele><time>2026-04-23T18:06:19Z</time></trkpt><trkpt lat="42.06653847424421" lon="13.521383137645667"><ele>694.0</ele><time>2026-04-23T18:06:20Z</time></trkpt><trkpt lat="42.066529143846104" lon="13.521261993899577"><ele>694.0</ele><time>2026-04-23T18:06:21Z</time></trkpt><trkpt lat="42.06650095231874" lon="13.52113971498708"><ele>694.0</ele><time>2026-04-23T18:06:22Z</time></trkpt><trkpt lat="42.06646637140411" lon="13.521015455407742"><ele>694.0</ele><time>2026-04-23T18:06:23Z</time></trkpt><trkpt lat="42.06642750019379" lon="13.520881906779328"><ele>694.0</ele><time>2026-04-23T18:06:24Z</time></trkpt><trkpt lat="42.06638782203025" lon="13.520748257206575"><ele>694.0</ele><time>2026-04-23T18:06:25Z</time></trkpt><trkpt lat="42.066347957428626" lon="13.520620037043702"><ele>694.0</ele><time>2026-04-23T18:06:26Z</time></trkpt><trkpt lat="42.06630450285518" lon="13.520487109921946"><ele>694.0</ele><time>2026-04-23T18:06:27Z</time></trkpt><trkpt lat="42.06625438920787" lon="13.52034460079767"><ele>693.0</ele><time>2026-04-23T18:06:28Z</time></trkpt><trkpt lat="42.06618470824468" lon="13.520208523275945"><ele>692.0</ele><time>2026-04-23T18:06:29Z</time></trkpt><trkpt lat="42.06614437720748" lon="13.520063917767771"><ele>691.0</ele><time>2026-04-23T18:06:30Z</time></trkpt><trkpt lat="42.066073504711824" lon="13.519956463048535"><ele>690.0</ele><time>2026-04-23T18:06:31Z</time></trkpt><trkpt lat="42.066018903813664" lon="13.519830598237155"><ele>690.0</ele><time>2026-04-23T18:06:32Z</time></trkpt><trkpt lat="42.065963548496946" lon="13.519711956747654"><ele>690.0</ele><time>2026-04-23T18:06:33Z</time></trkpt><trkpt lat="42.065912666917974" lon="13.519608370576332"><ele>690.0</ele><time>2026-04-23T18:06:34Z</time></trkpt><trkpt lat="42.065864834301756" lon="13.519510538149296"><ele>690.0</ele><time>2026-04-23T18:06:35Z</time></trkpt><trkpt lat="42.065823715571696" lon="13.519414101200212"><ele>690.0</ele><time>2026-04-23T18:06:36Z</time></trkpt><trkpt lat="42.06579327750958" lon="13.519317445890696"><ele>690.0</ele><time>2026-04-23T18:06:37Z</time></trkpt><trkpt lat="42.06580020091153" lon="13.519214107431761"><ele>690.1428571428571</ele><time>2026-04-23T18:06:38Z</time></trkpt><trkpt lat="42.06580674176528" lon="13.519122518645453"><ele>690.2857142857142</ele><time>2026-04-23T18:06:39Z</time></trkpt><trkpt lat="42.06581438852134" lon="13.519028311039634"><ele>690.4285714285713</ele><time>2026-04-23T18:06:40Z</time></trkpt><trkpt lat="42.06582517460806" lon="13.518935807685729"><ele>690.5714285714286</ele><time>2026-04-23T18:06:41Z</time></trkpt><trkpt lat="42.065836562957074" lon="13.518842634264733"><ele>690.7142857142857</ele><time>2026-04-23T18:06:42Z</time></trkpt><trkpt lat="42.06584402797183" lon="13.518749736895922"><ele>690.8571428571428</ele><time>2026-04-23T18:06:43Z</time></trkpt><trkpt lat="42.06584428848801" lon="13.518656058273553"><ele>691.0</ele><time>2026-04-23T18:06:44Z</time></trkpt><trkpt lat="42.06583765129822" lon="13.518570552075719"><ele>691.25</ele><time>2026-04-23T18:06:45Z</time></trkpt><trkpt lat="42.065823215232044" lon="13.518456279650996"><ele>691.5</ele><time>2026-04-23T18:06:47Z</time></trkpt><trkpt lat="42.06580922066856" lon="13.518353019613372"><ele>691.75</ele><time>2026-04-23T18:06:51Z</time></trkpt><trkpt lat="42.065655592006785" lon="13.518365278577168"><ele>692.0</ele><time>2026-04-23T18:06:52Z</time></trkpt><trkpt lat="42.065517703646115" lon="13.518357002576806"><ele>691.6</ele><time>2026-04-23T18:06:54Z</time></trkpt><trkpt lat="42.06543604789403" lon="13.518354973467527"><ele>691.2</ele><time>2026-04-23T18:06:55Z</time></trkpt><trkpt lat="42.065340708003674" lon="13.518349604797216"><ele>690.8</ele><time>2026-04-23T18:06:56Z</time></trkpt><trkpt lat="42.065237205282614" lon="13.518344899043248"><ele>690.4</ele><time>2026-04-23T18:06:57Z</time></trkpt><trkpt lat="42.06513891823477" lon="13.518321008086687"><ele>690.0</ele><time>2026-04-23T18:06:58Z</time></trkpt><trkpt lat="42.06502939838741" lon="13.518297440405204"><ele>689.5</ele><time>2026-04-23T18:06:59Z</time></trkpt><trkpt lat="42.06489943785033" lon="13.51828631356928"><ele>689.0</ele><time>2026-04-23T18:07:00Z</time></trkpt><trkpt lat="42.064772885212555" lon="13.518276783238754"><ele>688.5</ele><time>2026-04-23T18:07:01Z</time></trkpt><trkpt lat="42.064626355568315" lon="13.518269556923503"><ele>688.0</ele><time>2026-04-23T18:07:02Z</time></trkpt><trkpt lat="42.064471085846186" lon="13.518253220823718"><ele>688.0</ele><time>2026-04-23T18:07:03Z</time></trkpt><trkpt lat="42.06431992069773" lon="13.518243706747926"><ele>688.0</ele><time>2026-04-23T18:07:04Z</time></trkpt><trkpt lat="42.064178173734604" lon="13.518235162360737"><ele>688.0</ele><time>2026-04-23T18:07:05Z</time></trkpt><trkpt lat="42.064038660566986" lon="13.518226443778147"><ele>688.0</ele><time>2026-04-23T18:07:06Z</time></trkpt><trkpt lat="42.06390256660108" lon="13.518218243265528"><ele>688.2</ele><time>2026-04-23T18:07:07Z</time></trkpt><trkpt lat="42.063776460061064" lon="13.51820653991352"><ele>688.4</ele><time>2026-04-23T18:07:08Z</time></trkpt><trkpt lat="42.06366238776712" lon="13.518193785378035"><ele>688.6</ele><time>2026-04-23T18:07:09Z</time></trkpt><trkpt lat="42.06356284512815" lon="13.518181805151357"><ele>688.8000000000001</ele><time>2026-04-23T18:07:09.999Z</time></trkpt><trkpt lat="42.06347763435878" lon="13.518172819242062"><ele>689.0</ele><time>2026-04-23T18:07:10.999Z</time></trkpt><trkpt lat="42.06340367758648" lon="13.518190533125516"><ele>689.0</ele><time>2026-04-23T18:07:11.999Z</time></trkpt><trkpt lat="42.06334009082895" lon="13.518114194621727"><ele>689.0</ele><time>2026-04-23T18:07:12.999Z</time></trkpt><trkpt lat="42.063280078085896" lon="13.518051635311378"><ele>689.0</ele><time>2026-04-23T18:07:13.999Z</time></trkpt><trkpt lat="42.06322312922477" lon="13.517976851709363"><ele>689.0</ele><time>2026-04-23T18:07:14.999Z</time></trkpt><trkpt lat="42.063178433835496" lon="13.517877006606227"><ele>689.0</ele><time>2026-04-23T18:07:15.999Z</time></trkpt><trkpt lat="42.06314705676405" lon="13.517760767107063"><ele>689.0</ele><time>2026-04-23T18:07:16.999Z</time></trkpt><trkpt lat="42.06314386933884" lon="13.517621727727201"><ele>687.75</ele><time>2026-04-23T18:07:17.999Z</time></trkpt><trkpt lat="42.06312474915775" lon="13.517472172742446"><ele>686.5</ele><time>2026-04-23T18:07:18.999Z</time></trkpt><trkpt lat="42.063104067708466" lon="13.517305708169577"><ele>685.25</ele><time>2026-04-23T18:07:19.999Z</time></trkpt><trkpt lat="42.06308253011579" lon="13.517126983003326"><ele>684.0</ele><time>2026-04-23T18:07:20.999Z</time></trkpt><trkpt lat="42.06304463965015" lon="13.516935201292627"><ele>683.6666666666666</ele><time>2026-04-23T18:07:21.999Z</time></trkpt><trkpt lat="42.06303295984685" lon="13.51673003464456"><ele>683.3333333333333</ele><time>2026-04-23T18:07:22.999Z</time></trkpt><trkpt lat="42.063019751278524" lon="13.516512693819129"><ele>683.0</ele><time>2026-04-23T18:07:23.999Z</time></trkpt><trkpt lat="42.06302921738161" lon="13.516281436023103"><ele>683.3333333333333</ele><time>2026-04-23T18:07:24.999Z</time></trkpt><trkpt lat="42.06302473686449" lon="13.516048675980048"><ele>683.6666666666666</ele><time>2026-04-23T18:07:25.999Z</time></trkpt><trkpt lat="42.063020573042564" lon="13.515806518124572"><ele>684.0</ele><time>2026-04-23T18:07:26.999Z</time></trkpt><trkpt lat="42.06301748207999" lon="13.515564158542531"><ele>684.3333333333334</ele><time>2026-04-23T18:07:27.999Z</time></trkpt><trkpt lat="42.063014390607336" lon="13.515321758938716"><ele>684.6666666666667</ele><time>2026-04-23T18:07:28.999Z</time></trkpt><trkpt lat="42.06301133072532" lon="13.515081836324894"><ele>685.0</ele><time>2026-04-23T18:07:29.999Z</time></trkpt><trkpt lat="42.06300804835261" lon="13.514843145839475"><ele>685.0</ele><time>2026-04-23T18:07:30.999Z</time></trkpt><trkpt lat="42.063004723344186" lon="13.5146072500351"><ele>685.0</ele><time>2026-04-23T18:07:31.999Z</time></trkpt><trkpt lat="42.06300135100323" lon="13.514367996071194"><ele>685.0</ele><time>2026-04-23T18:07:32.999Z</time></trkpt><trkpt lat="42.06299788301217" lon="13.514121956175368"><ele>685.0</ele><time>2026-04-23T18:07:33.999Z</time></trkpt><trkpt lat="42.062978778173935" lon="13.513875991864131"><ele>685.0</ele><time>2026-04-23T18:07:34.999Z</time></trkpt><trkpt lat="42.06297579464713" lon="13.513633149079467"><ele>685.0</ele><time>2026-04-23T18:07:35.999Z</time></trkpt><trkpt lat="42.062972823463554" lon="13.513392261919629"><ele>685.3333333333334</ele><time>2026-04-23T18:07:36.999Z</time></trkpt><trkpt lat="42.06297110579661" lon="13.513155001135388"><ele>685.6666666666666</ele><time>2026-04-23T18:07:37.999Z</time></trkpt><trkpt lat="42.062966357269175" lon="13.512921515577903"><ele>686.0</ele><time>2026-04-23T18:07:38.999Z</time></trkpt><trkpt lat="42.062964191976796" lon="13.512689245919315"><ele>685.3333333333333</ele><time>2026-04-23T18:07:39.999Z</time></trkpt><trkpt lat="42.06295966360998" lon="13.512456092654993"><ele>684.6666666666666</ele><time>2026-04-23T18:07:40.999Z</time></trkpt><trkpt lat="42.062959823852864" lon="13.512227851868042"><ele>684.0</ele><time>2026-04-23T18:07:41.999Z</time></trkpt><trkpt lat="42.062959532053114" lon="13.511993682544219"><ele>684.0</ele><time>2026-04-23T18:07:42.999Z</time></trkpt><trkpt lat="42.062958383600744" lon="13.51175601038109"><ele>684.0</ele><time>2026-04-23T18:07:43.999Z</time></trkpt><trkpt lat="42.06295850796713" lon="13.511519851439216"><ele>684.0</ele><time>2026-04-23T18:07:44.999Z</time></trkpt><trkpt lat="42.06295482594219" lon="13.511297879456917"><ele>684.3333333333334</ele><time>2026-04-23T18:07:45.999Z</time></trkpt><trkpt lat="42.062953666254444" lon="13.511069413177216"><ele>684.6666666666667</ele><time>2026-04-23T18:07:46.999Z</time></trkpt><trkpt lat="42.062951111988575" lon="13.510851796892176"><ele>685.0</ele><time>2026-04-23T18:07:47.999Z</time></trkpt><trkpt lat="42.062947680280594" lon="13.51063542723485"><ele>685.0</ele><time>2026-04-23T18:07:48.999Z</time></trkpt><trkpt lat="42.062941237693934" lon="13.5104242065411"><ele>685.0</ele><time>2026-04-23T18:07:49.999Z</time></trkpt><trkpt lat="42.06293725728418" lon="13.510211489062723"><ele>685.0</ele><time>2026-04-23T18:07:50.999Z</time></trkpt><trkpt lat="42.062934596013356" lon="13.51000038291947"><ele>685.0</ele><time>2026-04-23T18:07:51.999Z</time></trkpt><trkpt lat="42.062931647597125" lon="13.509784722662168"><ele>685.0</ele><time>2026-04-23T18:07:52.999Z</time></trkpt><trkpt lat="42.06293020886136" lon="13.509568883997398"><ele>685.0</ele><time>2026-04-23T18:07:53.999Z</time></trkpt><trkpt lat="42.06292706520797" lon="13.509358874311959"><ele>685.0</ele><time>2026-04-23T18:07:54.999Z</time></trkpt><trkpt lat="42.06292379040115" lon="13.509152732502915"><ele>685.0</ele><time>2026-04-23T18:07:55.999Z</time></trkpt><trkpt lat="42.0629203064603" lon="13.508946132331431"><ele>685.0</ele><time>2026-04-23T18:07:56.999Z</time></trkpt><trkpt lat="42.06291963134103" lon="13.50873610294276"><ele>685.0</ele><time>2026-04-23T18:07:57.999Z</time></trkpt><trkpt lat="42.062917236402114" lon="13.508522075134826"><ele>685.0</ele><time>2026-04-23T18:07:58.999Z</time></trkpt><trkpt lat="42.06291431290966" lon="13.508307907300729"><ele>685.0</ele><time>2026-04-23T18:07:59.999Z</time></trkpt><trkpt lat="42.062911504076574" lon="13.508101074792188"><ele>684.6666666666667</ele><time>2026-04-23T18:08:00.999Z</time></trkpt><trkpt lat="42.06290792511441" lon="13.507898638509248"><ele>684.3333333333334</ele><time>2026-04-23T18:08:01.999Z</time></trkpt><trkpt lat="42.062905385214734" lon="13.507692999067999"><ele>684.0</ele><time>2026-04-23T18:08:02.999Z</time></trkpt><trkpt lat="42.06290326687525" lon="13.507485371074624"><ele>684.0</ele><time>2026-04-23T18:08:03.999Z</time></trkpt><trkpt lat="42.062900041233874" lon="13.50728216309593"><ele>684.0</ele><time>2026-04-23T18:08:04.999Z</time></trkpt><trkpt lat="42.06289722722483" lon="13.50707950057953"><ele>684.0</ele><time>2026-04-23T18:08:06Z</time></trkpt><trkpt lat="42.06289377147232" lon="13.50687753688183"><ele>684.3333333333334</ele><time>2026-04-23T18:08:07Z</time></trkpt><trkpt lat="42.06289019421233" lon="13.506677991462814"><ele>684.6666666666667</ele><time>2026-04-23T18:08:08Z</time></trkpt><trkpt lat="42.0628877604403" lon="13.506468701856956"><ele>685.0</ele><time>2026-04-23T18:08:09Z</time></trkpt><trkpt lat="42.06288222421244" lon="13.506258855131033"><ele>684.6666666666667</ele><time>2026-04-23T18:08:10Z</time></trkpt><trkpt lat="42.06288028557786" lon="13.506043402775218"><ele>684.3333333333334</ele><time>2026-04-23T18:08:11Z</time></trkpt><trkpt lat="42.062879459607224" lon="13.505823423522116"><ele>684.0</ele><time>2026-04-23T18:08:12Z</time></trkpt><trkpt lat="42.062876946510485" lon="13.50560739559394"><ele>683.6666666666666</ele><time>2026-04-23T18:08:13Z</time></trkpt><trkpt lat="42.062873395825974" lon="13.505390589404046"><ele>683.3333333333333</ele><time>2026-04-23T18:08:14Z</time></trkpt><trkpt lat="42.062867009590754" lon="13.505179988515549"><ele>683.0</ele><time>2026-04-23T18:08:15Z</time></trkpt><trkpt lat="42.06286020353022" lon="13.504973081205794"><ele>683.0</ele><time>2026-04-23T18:08:16Z</time></trkpt><trkpt lat="42.06285497649592" lon="13.504759775031882"><ele>683.0</ele><time>2026-04-23T18:08:17Z</time></trkpt><trkpt lat="42.06285156041196" lon="13.504549115079543"><ele>683.0</ele><time>2026-04-23T18:08:18Z</time></trkpt><trkpt lat="42.062848854698785" lon="13.504340272465958"><ele>682.6666666666666</ele><time>2026-04-23T18:08:19Z</time></trkpt><trkpt lat="42.06286267816135" lon="13.504129395118333"><ele>682.3333333333334</ele><time>2026-04-23T18:08:20Z</time></trkpt><trkpt lat="42.062859982512705" lon="13.50392164030249"><ele>682.0</ele><time>2026-04-23T18:08:21Z</time></trkpt><trkpt lat="42.062857385626955" lon="13.503724602806908"><ele>682.0</ele><time>2026-04-23T18:08:22Z</time></trkpt><trkpt lat="42.06285464232506" lon="13.503516456316154"><ele>682.0</ele><time>2026-04-23T18:08:23Z</time></trkpt><trkpt lat="42.06285192637423" lon="13.503310384945372"><ele>682.0</ele><time>2026-04-23T18:08:24Z</time></trkpt><trkpt lat="42.062834093309945" lon="13.503109593766728"><ele>682.0</ele><time>2026-04-23T18:08:25Z</time></trkpt><trkpt lat="42.0628303177012" lon="13.502895595848658"><ele>682.0</ele><time>2026-04-23T18:08:26Z</time></trkpt><trkpt lat="42.06284350880641" lon="13.502671706233286"><ele>682.0</ele><time>2026-04-23T18:08:27Z</time></trkpt><trkpt lat="42.062825023937826" lon="13.502457088677398"><ele>682.0</ele><time>2026-04-23T18:08:28Z</time></trkpt><trkpt lat="42.06282197437275" lon="13.50223282384825"><ele>682.0</ele><time>2026-04-23T18:08:29Z</time></trkpt><trkpt lat="42.06283467004888" lon="13.502009236981689"><ele>682.0</ele><time>2026-04-23T18:08:30Z</time></trkpt><trkpt lat="42.06283175480187" lon="13.501797268779798"><ele>682.0</ele><time>2026-04-23T18:08:31Z</time></trkpt><trkpt lat="42.06282835428346" lon="13.501577380857583"><ele>682.0</ele><time>2026-04-23T18:08:32Z</time></trkpt><trkpt lat="42.0628250200876" lon="13.501352957364421"><ele>682.0</ele><time>2026-04-23T18:08:33Z</time></trkpt><trkpt lat="42.06280731916602" lon="13.501147473357552"><ele>682.0</ele><time>2026-04-23T18:08:34Z</time></trkpt><trkpt lat="42.06280225934937" lon="13.500949746530287"><ele>682.0</ele><time>2026-04-23T18:08:35Z</time></trkpt><trkpt lat="42.06280303481701" lon="13.500741030209525"><ele>682.0</ele><time>2026-04-23T18:08:36Z</time></trkpt><trkpt lat="42.062796532785555" lon="13.500520001740064"><ele>682.0</ele><time>2026-04-23T18:08:37Z</time></trkpt><trkpt lat="42.06279381612932" lon="13.500305013035824"><ele>682.0</ele><time>2026-04-23T18:08:38Z</time></trkpt><trkpt lat="42.06279044905322" lon="13.50007854109414"><ele>682.0</ele><time>2026-04-23T18:08:39Z</time></trkpt><trkpt lat="42.062790177774154" lon="13.499853378342824"><ele>682.0</ele><time>2026-04-23T18:08:40Z</time></trkpt><trkpt lat="42.06279089621452" lon="13.499629121521412"><ele>682.0</ele><time>2026-04-23T18:08:41Z</time></trkpt><trkpt lat="42.062784013628345" lon="13.499394895197375"><ele>682.0</ele><time>2026-04-23T18:08:42Z</time></trkpt><trkpt lat="42.062780355342156" lon="13.499178835114162"><ele>682.3333333333334</ele><time>2026-04-23T18:08:43Z</time></trkpt><trkpt lat="42.0627858988491" lon="13.498952005098278"><ele>682.6666666666666</ele><time>2026-04-23T18:08:44Z</time></trkpt><trkpt lat="42.062778684546416" lon="13.49870906360461"><ele>683.0</ele><time>2026-04-23T18:08:45Z</time></trkpt><trkpt lat="42.06277850636282" lon="13.498472332762747"><ele>682.3333333333333</ele><time>2026-04-23T18:08:46Z</time></trkpt><trkpt lat="42.06277707119355" lon="13.498236297143247"><ele>681.6666666666666</ele><time>2026-04-23T18:08:47Z</time></trkpt><trkpt lat="42.06277423051625" lon="13.497997868548495"><ele>681.0</ele><time>2026-04-23T18:08:48Z</time></trkpt><trkpt lat="42.06277149002164" lon="13.49775659576327"><ele>680.6666666666666</ele><time>2026-04-23T18:08:49Z</time></trkpt><trkpt lat="42.062768575044736" lon="13.497515789687874"><ele>680.3333333333333</ele><time>2026-04-23T18:08:50Z</time></trkpt><trkpt lat="42.06276299364889" lon="13.49727212821452"><ele>680.0</ele><time>2026-04-23T18:08:51Z</time></trkpt><trkpt lat="42.06275804924626" lon="13.497031125481774"><ele>680.6666666666666</ele><time>2026-04-23T18:08:52Z</time></trkpt><trkpt lat="42.062754714847955" lon="13.496788699772788"><ele>681.3333333333334</ele><time>2026-04-23T18:08:53Z</time></trkpt><trkpt lat="42.06275062457364" lon="13.496541505126489"><ele>682.0</ele><time>2026-04-23T18:08:54Z</time></trkpt><trkpt lat="42.062746993043675" lon="13.496307452401767"><ele>682.3333333333334</ele><time>2026-04-23T18:08:55Z</time></trkpt><trkpt lat="42.06274553218504" lon="13.496066613082156"><ele>682.6666666666666</ele><time>2026-04-23T18:08:56Z</time></trkpt><trkpt lat="42.06274123105811" lon="13.49583051854089"><ele>683.0</ele><time>2026-04-23T18:08:57Z</time></trkpt><trkpt lat="42.06273501008342" lon="13.495597779790698"><ele>683.0</ele><time>2026-04-23T18:08:58Z</time></trkpt><trkpt lat="42.06272739786195" lon="13.495365174349063"><ele>683.0</ele><time>2026-04-23T18:08:59Z</time></trkpt><trkpt lat="42.06272298179303" lon="13.495128779016957"><ele>683.0</ele><time>2026-04-23T18:09:00Z</time></trkpt><trkpt lat="42.06271638014018" lon="13.494890191494259"><ele>683.0</ele><time>2026-04-23T18:09:01Z</time></trkpt><trkpt lat="42.06271182905913" lon="13.4946528145104"><ele>683.0</ele><time>2026-04-23T18:09:02Z</time></trkpt><trkpt lat="42.062726598029464" lon="13.494418660770162"><ele>683.0</ele><time>2026-04-23T18:09:03Z</time></trkpt><trkpt lat="42.06272337870466" lon="13.494198273998895"><ele>682.3333333333333</ele><time>2026-04-23T18:09:04Z</time></trkpt><trkpt lat="42.0627200248712" lon="13.493968310813136"><ele>681.6666666666666</ele><time>2026-04-23T18:09:05Z</time></trkpt><trkpt lat="42.062716898179474" lon="13.493747528218728"><ele>681.0</ele><time>2026-04-23T18:09:06Z</time></trkpt><trkpt lat="42.06269816144914" lon="13.4935351977592"><ele>680.3333333333334</ele><time>2026-04-23T18:09:06.999Z</time></trkpt><trkpt lat="42.06271184238014" lon="13.493317584406626"><ele>679.6666666666667</ele><time>2026-04-23T18:09:07.999Z</time></trkpt><trkpt lat="42.062691842564035" lon="13.493107315190143"><ele>679.0</ele><time>2026-04-23T18:09:08.999Z</time></trkpt><trkpt lat="42.06269365228671" lon="13.492894520993792"><ele>679.0</ele><time>2026-04-23T18:09:09.999Z</time></trkpt><trkpt lat="42.06268650103345" lon="13.492674921270774"><ele>679.0</ele><time>2026-04-23T18:09:10.999Z</time></trkpt><trkpt lat="42.062688978593314" lon="13.492467960119859"><ele>679.0</ele><time>2026-04-23T18:09:11.999Z</time></trkpt><trkpt lat="42.062684932838735" lon="13.492235292249429"><ele>678.6666666666667</ele><time>2026-04-23T18:09:12.999Z</time></trkpt><trkpt lat="42.06267517508128" lon="13.492011427163419"><ele>678.3333333333334</ele><time>2026-04-23T18:09:13.999Z</time></trkpt><trkpt lat="42.06267278716481" lon="13.491784169531746"><ele>678.0</ele><time>2026-04-23T18:09:14.999Z</time></trkpt><trkpt lat="42.06266832179686" lon="13.491573328739431"><ele>678.0</ele><time>2026-04-23T18:09:15.999Z</time></trkpt><trkpt lat="42.06267424571809" lon="13.491371608366498"><ele>678.0</ele><time>2026-04-23T18:09:16.999Z</time></trkpt><trkpt lat="42.06266578815191" lon="13.49115291058413"><ele>678.0</ele><time>2026-04-23T18:09:17.999Z</time></trkpt><trkpt lat="42.06266542592619" lon="13.490940770443075"><ele>678.0</ele><time>2026-04-23T18:09:18.999Z</time></trkpt><trkpt lat="42.06266079783458" lon="13.490725679972739"><ele>678.0</ele><time>2026-04-23T18:09:19.999Z</time></trkpt><trkpt lat="42.06265607239725" lon="13.490511740305461"><ele>678.0</ele><time>2026-04-23T18:09:20.999Z</time></trkpt><trkpt lat="42.06266881136799" lon="13.49030067333663"><ele>678.5</ele><time>2026-04-23T18:09:21.999Z</time></trkpt><trkpt lat="42.062663416213525" lon="13.490098594024971"><ele>679.0</ele><time>2026-04-23T18:09:22.999Z</time></trkpt><trkpt lat="42.062643505035986" lon="13.489899822659318"><ele>679.5</ele><time>2026-04-23T18:09:23.999Z</time></trkpt><trkpt lat="42.06263918265186" lon="13.489721361976777"><ele>680.0</ele><time>2026-04-23T18:09:24.999Z</time></trkpt><trkpt lat="42.062630188938165" lon="13.489541307227285"><ele>680.5</ele><time>2026-04-23T18:09:25.999Z</time></trkpt><trkpt lat="42.06261066923615" lon="13.48936563080048"><ele>681.0</ele><time>2026-04-23T18:09:26.999Z</time></trkpt><trkpt lat="42.062585732517576" lon="13.489175930206216"><ele>681.5</ele><time>2026-04-23T18:09:27.999Z</time></trkpt><trkpt lat="42.062556161338755" lon="13.488984335409599"><ele>682.0</ele><time>2026-04-23T18:09:28.999Z</time></trkpt><trkpt lat="42.06251663382588" lon="13.48878929042236"><ele>682.6666666666667</ele><time>2026-04-23T18:09:29.999Z</time></trkpt><trkpt lat="42.062467795398874" lon="13.488595886514275"><ele>683.3333333333334</ele><time>2026-04-23T18:09:30.999Z</time></trkpt><trkpt lat="42.06241015672525" lon="13.48840156524712"><ele>684.0</ele><time>2026-04-23T18:09:31.999Z</time></trkpt><trkpt lat="42.06234035604224" lon="13.488207083979038"><ele>683.0</ele><time>2026-04-23T18:09:32.999Z</time></trkpt><trkpt lat="42.062275479416" lon="13.488021135575266"><ele>682.0</ele><time>2026-04-23T18:09:33.999Z</time></trkpt><trkpt lat="42.062197384342966" lon="13.487834332920684"><ele>681.0</ele><time>2026-04-23T18:09:34.999Z</time></trkpt><trkpt lat="42.06212072368869" lon="13.487648966171482"><ele>681.0</ele><time>2026-04-23T18:09:35.999Z</time></trkpt><trkpt lat="42.06204482386347" lon="13.487464840815132"><ele>681.0</ele><time>2026-04-23T18:09:36.999Z</time></trkpt><trkpt lat="42.06196298850684" lon="13.487278259738538"><ele>681.0</ele><time>2026-04-23T18:09:37.999Z</time></trkpt><trkpt lat="42.0618694802006" lon="13.487104073744907"><ele>682.0</ele><time>2026-04-23T18:09:38.999Z</time></trkpt><trkpt lat="42.06178311693363" lon="13.486923057484379"><ele>683.0</ele><time>2026-04-23T18:09:39.999Z</time></trkpt><trkpt lat="42.06170057607796" lon="13.48674579063586"><ele>684.0</ele><time>2026-04-23T18:09:40.999Z</time></trkpt><trkpt lat="42.061621353021" lon="13.486572251085713"><ele>682.3333333333334</ele><time>2026-04-23T18:09:41.999Z</time></trkpt><trkpt lat="42.061542696577234" lon="13.486399923096892"><ele>680.6666666666667</ele><time>2026-04-23T18:09:42.999Z</time></trkpt><trkpt lat="42.061463977465394" lon="13.48622473253743"><ele>679.0</ele><time>2026-04-23T18:09:43.999Z</time></trkpt><trkpt lat="42.0613810734006" lon="13.48604705570674"><ele>679.0</ele><time>2026-04-23T18:09:44.999Z</time></trkpt><trkpt lat="42.06129837395109" lon="13.485869796355267"><ele>679.0</ele><time>2026-04-23T18:09:45.999Z</time></trkpt><trkpt lat="42.061215915159664" lon="13.485690140352563"><ele>679.0</ele><time>2026-04-23T18:09:46.999Z</time></trkpt><trkpt lat="42.0611308835473" lon="13.485510386068837"><ele>680.6666666666667</ele><time>2026-04-23T18:09:47.999Z</time></trkpt><trkpt lat="42.06104942322173" lon="13.485335959960421"><ele>682.3333333333334</ele><time>2026-04-23T18:09:48.999Z</time></trkpt><trkpt lat="42.06096694305089" lon="13.485165121310665"><ele>684.0</ele><time>2026-04-23T18:09:49.999Z</time></trkpt><trkpt lat="42.060887958400215" lon="13.484991595483057"><ele>684.0</ele><time>2026-04-23T18:09:50.999Z</time></trkpt><trkpt lat="42.06081224854267" lon="13.484824302628153"><ele>684.0</ele><time>2026-04-23T18:09:51.999Z</time></trkpt><trkpt lat="42.060735913453826" lon="13.484657541093828"><ele>684.0</ele><time>2026-04-23T18:09:52.999Z</time></trkpt><trkpt lat="42.06066213974303" lon="13.484497277913468"><ele>684.0</ele><time>2026-04-23T18:09:53.999Z</time></trkpt><trkpt lat="42.06058815538775" lon="13.484341032879545"><ele>684.25</ele><time>2026-04-23T18:09:54.999Z</time></trkpt><trkpt lat="42.06051548330014" lon="13.484187505601644"><ele>684.5</ele><time>2026-04-23T18:09:55.999Z</time></trkpt><trkpt lat="42.06044276933339" lon="13.484034723006708"><ele>684.75</ele><time>2026-04-23T18:09:56.999Z</time></trkpt><trkpt lat="42.06036920084585" lon="13.483879822092193"><ele>685.0</ele><time>2026-04-23T18:09:57.999Z</time></trkpt><trkpt lat="42.0602959476486" lon="13.483725486746502"><ele>685.0</ele><time>2026-04-23T18:09:58.999Z</time></trkpt><trkpt lat="42.06022476378965" lon="13.483573207332247"><ele>685.0</ele><time>2026-04-23T18:09:59.999Z</time></trkpt><trkpt lat="42.06015700580587" lon="13.483422945352375"><ele>685.0</ele><time>2026-04-23T18:10:00.999Z</time></trkpt><trkpt lat="42.06009072250618" lon="13.483269153744008"><ele>685.0</ele><time>2026-04-23T18:10:01.999Z</time></trkpt><trkpt lat="42.060021234043504" lon="13.483117887618304"><ele>685.0</ele><time>2026-04-23T18:10:02.999Z</time></trkpt><trkpt lat="42.05995310936502" lon="13.482973711086343"><ele>685.0</ele><time>2026-04-23T18:10:03.999Z</time></trkpt><trkpt lat="42.059888000739775" lon="13.482832157813533"><ele>685.0</ele><time>2026-04-23T18:10:04.999Z</time></trkpt><trkpt lat="42.05982259042086" lon="13.482692949845571"><ele>685.0</ele><time>2026-04-23T18:10:05.999Z</time></trkpt><trkpt lat="42.05975819252468" lon="13.482558762133117"><ele>684.75</ele><time>2026-04-23T18:10:06.999Z</time></trkpt><trkpt lat="42.05969583734349" lon="13.482425616119148"><ele>684.5</ele><time>2026-04-23T18:10:07.999Z</time></trkpt><trkpt lat="42.059636330750415" lon="13.482293345203589"><ele>684.25</ele><time>2026-04-23T18:10:08.999Z</time></trkpt><trkpt lat="42.05957715656979" lon="13.482162476037235"><ele>684.0</ele><time>2026-04-23T18:10:09.999Z</time></trkpt><trkpt lat="42.05951860283432" lon="13.48203315385936"><ele>684.0</ele><time>2026-04-23T18:10:11Z</time></trkpt><trkpt lat="42.059462195489054" lon="13.481905032497563"><ele>684.0</ele><time>2026-04-23T18:10:12Z</time></trkpt><trkpt lat="42.059405463870604" lon="13.481777505187159"><ele>684.0</ele><time>2026-04-23T18:10:13Z</time></trkpt><trkpt lat="42.05935704709264" lon="13.48165875833417"><ele>684.0</ele><time>2026-04-23T18:10:14Z</time></trkpt><trkpt lat="42.05930636863775" lon="13.481529237108367"><ele>684.0</ele><time>2026-04-23T18:10:15Z</time></trkpt><trkpt lat="42.05925737060472" lon="13.481402145615927"><ele>684.0</ele><time>2026-04-23T18:10:16Z</time></trkpt><trkpt lat="42.05921092579919" lon="13.481277020079315"><ele>684.0</ele><time>2026-04-23T18:10:17Z</time></trkpt><trkpt lat="42.05916717071211" lon="13.48115433392748"><ele>684.0</ele><time>2026-04-23T18:10:18Z</time></trkpt><trkpt lat="42.059125674396974" lon="13.481034087162564"><ele>684.0</ele><time>2026-04-23T18:10:19Z</time></trkpt><trkpt lat="42.059086070570835" lon="13.480919212332273"><ele>684.0</ele><time>2026-04-23T18:10:20Z</time></trkpt><trkpt lat="42.05904750098171" lon="13.480807694571531"><ele>683.2</ele><time>2026-04-23T18:10:21Z</time></trkpt><trkpt lat="42.05900666826852" lon="13.480694464991666"><ele>682.4000000000001</ele><time>2026-04-23T18:10:22Z</time></trkpt><trkpt lat="42.058962895308014" lon="13.48057545492247"><ele>681.6</ele><time>2026-04-23T18:10:23Z</time></trkpt><trkpt lat="42.05891737886581" lon="13.480447131609475"><ele>680.8</ele><time>2026-04-23T18:10:24Z</time></trkpt><trkpt lat="42.058876079147296" lon="13.480322099260029"><ele>680.0</ele><time>2026-04-23T18:10:25Z</time></trkpt><trkpt lat="42.058835206509585" lon="13.480203591177427"><ele>680.0</ele><time>2026-04-23T18:10:26Z</time></trkpt><trkpt lat="42.05879357809954" lon="13.480081122708178"><ele>680.0</ele><time>2026-04-23T18:10:27Z</time></trkpt><trkpt lat="42.05875090807806" lon="13.479956592365065"><ele>680.0</ele><time>2026-04-23T18:10:28Z</time></trkpt><trkpt lat="42.058708743332296" lon="13.479833170574606"><ele>680.0</ele><time>2026-04-23T18:10:29Z</time></trkpt><trkpt lat="42.058666814727836" lon="13.479704292212594"><ele>680.0</ele><time>2026-04-23T18:10:30Z</time></trkpt><trkpt lat="42.05862357078349" lon="13.47956868521122"><ele>681.0</ele><time>2026-04-23T18:10:31Z</time></trkpt><trkpt lat="42.058575438685395" lon="13.479427724463747"><ele>682.0</ele><time>2026-04-23T18:10:32Z</time></trkpt><trkpt lat="42.05852453117743" lon="13.479285236792919"><ele>683.0</ele><time>2026-04-23T18:10:33Z</time></trkpt><trkpt lat="42.05847384362168" lon="13.47914324961183"><ele>684.0</ele><time>2026-04-23T18:10:34Z</time></trkpt><trkpt lat="42.05842746072927" lon="13.479005592659838"><ele>684.0</ele><time>2026-04-23T18:10:35Z</time></trkpt><trkpt lat="42.05838129415173" lon="13.478868965873188"><ele>684.0</ele><time>2026-04-23T18:10:36Z</time></trkpt><trkpt lat="42.05833922013172" lon="13.478740722747485"><ele>684.0</ele><time>2026-04-23T18:10:37Z</time></trkpt><trkpt lat="42.058295659686635" lon="13.478614186420662"><ele>684.0</ele><time>2026-04-23T18:10:38Z</time></trkpt><trkpt lat="42.058250459854214" lon="13.478485223434689"><ele>684.0</ele><time>2026-04-23T18:10:39Z</time></trkpt><trkpt lat="42.05820669655781" lon="13.47835905091885"><ele>683.4000000000001</ele><time>2026-04-23T18:10:40Z</time></trkpt><trkpt lat="42.058165021318956" lon="13.478235632199207"><ele>682.8</ele><time>2026-04-23T18:10:41Z</time></trkpt><trkpt lat="42.058122526313326" lon="13.478105859207858"><ele>682.2</ele><time>2026-04-23T18:10:42Z</time></trkpt><trkpt lat="42.05807666612803" lon="13.477970286276934"><ele>681.5999999999999</ele><time>2026-04-23T18:10:43Z</time></trkpt><trkpt lat="42.058029964519235" lon="13.477835351365123"><ele>681.0</ele><time>2026-04-23T18:10:44Z</time></trkpt><trkpt lat="42.05798481639764" lon="13.47770263142319"><ele>681.0</ele><time>2026-04-23T18:10:45Z</time></trkpt><trkpt lat="42.05794107239608" lon="13.477573578118347"><ele>681.0</ele><time>2026-04-23T18:10:46Z</time></trkpt><trkpt lat="42.05789585072627" lon="13.477442187787052"><ele>681.0</ele><time>2026-04-23T18:10:47Z</time></trkpt><trkpt lat="42.057850772653296" lon="13.477309820442422"><ele>681.0</ele><time>2026-04-23T18:10:48Z</time></trkpt><trkpt lat="42.05780569911672" lon="13.477182441378567"><ele>681.0</ele><time>2026-04-23T18:10:49Z</time></trkpt><trkpt lat="42.05776480832511" lon="13.477061313785708"><ele>681.8</ele><time>2026-04-23T18:10:50Z</time></trkpt><trkpt lat="42.057721542123666" lon="13.476938474923559"><ele>682.5999999999999</ele><time>2026-04-23T18:10:51Z</time></trkpt><trkpt lat="42.05767951828581" lon="13.47681071530376"><ele>683.4</ele><time>2026-04-23T18:10:52Z</time></trkpt><trkpt lat="42.0576398039085" lon="13.476679626217585"><ele>684.2</ele><time>2026-04-23T18:10:53Z</time></trkpt><trkpt lat="42.057600489846315" lon="13.476545752379545"><ele>685.0</ele><time>2026-04-23T18:10:54Z</time></trkpt><trkpt lat="42.05755991239922" lon="13.476408602016596"><ele>684.25</ele><time>2026-04-23T18:10:55Z</time></trkpt><trkpt lat="42.057519164952296" lon="13.476264869408926"><ele>683.5</ele><time>2026-04-23T18:10:56Z</time></trkpt><trkpt lat="42.05747839138616" lon="13.476115874908539"><ele>682.75</ele><time>2026-04-23T18:10:57Z</time></trkpt><trkpt lat="42.05743792988102" lon="13.475965142638142"><ele>682.0</ele><time>2026-04-23T18:10:58Z</time></trkpt><trkpt lat="42.05739709229116" lon="13.475817716435902"><ele>682.0</ele><time>2026-04-23T18:10:59Z</time></trkpt><trkpt lat="42.05735789916824" lon="13.475673368055064"><ele>682.0</ele><time>2026-04-23T18:11:00Z</time></trkpt><trkpt lat="42.057316928638514" lon="13.475528229965724"><ele>682.0</ele><time>2026-04-23T18:11:01Z</time></trkpt><trkpt lat="42.05727563819437" lon="13.47537886990413"><ele>682.0</ele><time>2026-04-23T18:11:02Z</time></trkpt><trkpt lat="42.05723245074831" lon="13.47522512339452"><ele>683.0</ele><time>2026-04-23T18:11:03Z</time></trkpt><trkpt lat="42.057189864016934" lon="13.475068031302866"><ele>684.0</ele><time>2026-04-23T18:11:04Z</time></trkpt><trkpt lat="42.05714703996971" lon="13.47491108631974"><ele>685.0</ele><time>2026-04-23T18:11:05Z</time></trkpt><trkpt lat="42.05710438684771" lon="13.474755061457854"><ele>686.0</ele><time>2026-04-23T18:11:06Z</time></trkpt><trkpt lat="42.05706083253216" lon="13.474597058192577"><ele>686.75</ele><time>2026-04-23T18:11:07Z</time></trkpt><trkpt lat="42.05701737624246" lon="13.474438893103743"><ele>687.5</ele><time>2026-04-23T18:11:08Z</time></trkpt><trkpt lat="42.05697332019641" lon="13.474281196889274"><ele>688.25</ele><time>2026-04-23T18:11:08.999Z</time></trkpt><trkpt lat="42.05692790359098" lon="13.47412637262469"><ele>689.0</ele><time>2026-04-23T18:11:09.999Z</time></trkpt><trkpt lat="42.056883364493295" lon="13.473970980455057"><ele>689.0</ele><time>2026-04-23T18:11:10.999Z</time></trkpt><trkpt lat="42.05683848759766" lon="13.473811267723933"><ele>689.0</ele><time>2026-04-23T18:11:11.999Z</time></trkpt><trkpt lat="42.05679333523941" lon="13.473649606508875"><ele>689.0</ele><time>2026-04-23T18:11:12.999Z</time></trkpt><trkpt lat="42.056746745285785" lon="13.473486317865545"><ele>689.0</ele><time>2026-04-23T18:11:13.999Z</time></trkpt><trkpt lat="42.0567029949407" lon="13.47332292864349"><ele>688.75</ele><time>2026-04-23T18:11:14.999Z</time></trkpt><trkpt lat="42.05665913921554" lon="13.473160143477134"><ele>688.5</ele><time>2026-04-23T18:11:15.999Z</time></trkpt><trkpt lat="42.05661483610982" lon="13.472998930806767"><ele>688.25</ele><time>2026-04-23T18:11:16.999Z</time></trkpt><trkpt lat="42.05657008345798" lon="13.472838462605147"><ele>688.0</ele><time>2026-04-23T18:11:17.999Z</time></trkpt><trkpt lat="42.05652456085892" lon="13.472674432022933"><ele>688.0</ele><time>2026-04-23T18:11:18.999Z</time></trkpt><trkpt lat="42.0564766551715" lon="13.472511710479809"><ele>688.0</ele><time>2026-04-23T18:11:19.999Z</time></trkpt><trkpt lat="42.05643069292606" lon="13.47235119258603"><ele>688.0</ele><time>2026-04-23T18:11:20.999Z</time></trkpt><trkpt lat="42.056385575415085" lon="13.472188679717126"><ele>688.0</ele><time>2026-04-23T18:11:21.999Z</time></trkpt><trkpt lat="42.05634320793677" lon="13.472027938505379"><ele>688.5</ele><time>2026-04-23T18:11:22.999Z</time></trkpt><trkpt lat="42.05630222917888" lon="13.47187238321135"><ele>689.0</ele><time>2026-04-23T18:11:23.999Z</time></trkpt><trkpt lat="42.05626020868542" lon="13.471718140541052"><ele>689.5</ele><time>2026-04-23T18:11:24.999Z</time></trkpt><trkpt lat="42.05621722690324" lon="13.471565604925303"><ele>690.0</ele><time>2026-04-23T18:11:25.999Z</time></trkpt><trkpt lat="42.05617454744155" lon="13.471413901101018"><ele>690.5</ele><time>2026-04-23T18:11:26.999Z</time></trkpt><trkpt lat="42.05613000531034" lon="13.471260576717935"><ele>691.0</ele><time>2026-04-23T18:11:27.999Z</time></trkpt><trkpt lat="42.05608742440304" lon="13.471105509844655"><ele>691.5</ele><time>2026-04-23T18:11:28.999Z</time></trkpt><trkpt lat="42.056044568907566" lon="13.470949037196721"><ele>692.0</ele><time>2026-04-23T18:11:29.999Z</time></trkpt><trkpt lat="42.05600128033567" lon="13.470792853517317"><ele>692.0</ele><time>2026-04-23T18:11:30.999Z</time></trkpt><trkpt lat="42.055958858483926" lon="13.470640101834382"><ele>692.0</ele><time>2026-04-23T18:11:31.999Z</time></trkpt><trkpt lat="42.05591708356031" lon="13.470489494209675"><ele>692.0</ele><time>2026-04-23T18:11:32.999Z</time></trkpt><trkpt lat="42.05587074840598" lon="13.470330573313747"><ele>692.0</ele><time>2026-04-23T18:11:33.999Z</time></trkpt><trkpt lat="42.05582188857425" lon="13.47017705664723"><ele>692.0</ele><time>2026-04-23T18:11:34.999Z</time></trkpt><trkpt lat="42.055767596630474" lon="13.470029122485506"><ele>692.0</ele><time>2026-04-23T18:11:35.999Z</time></trkpt><trkpt lat="42.055706633649905" lon="13.469886486714879"><ele>692.0</ele><time>2026-04-23T18:11:36.999Z</time></trkpt><trkpt lat="42.0556389110669" lon="13.469745274091895"><ele>692.0</ele><time>2026-04-23T18:11:37.999Z</time></trkpt><trkpt lat="42.055570142868476" lon="13.469607883969198"><ele>692.75</ele><time>2026-04-23T18:11:38.999Z</time></trkpt><trkpt lat="42.055497414057" lon="13.46946841151693"><ele>693.5</ele><time>2026-04-23T18:11:39.999Z</time></trkpt><trkpt lat="42.05542235028974" lon="13.469329874675378"><ele>694.25</ele><time>2026-04-23T18:11:40.999Z</time></trkpt><trkpt lat="42.05534868786558" lon="13.469191237848941"><ele>695.0</ele><time>2026-04-23T18:11:41.999Z</time></trkpt><trkpt lat="42.05527415377724" lon="13.46904947629751"><ele>695.0</ele><time>2026-04-23T18:11:42.999Z</time></trkpt><trkpt lat="42.05520040505099" lon="13.468908945337782"><ele>695.0</ele><time>2026-04-23T18:11:43.999Z</time></trkpt><trkpt lat="42.055127165887434" lon="13.468767595594471"><ele>695.0</ele><time>2026-04-23T18:11:44.999Z</time></trkpt><trkpt lat="42.05505558902901" lon="13.468631889772167"><ele>695.0</ele><time>2026-04-23T18:11:45.999Z</time></trkpt><trkpt lat="42.05498432077469" lon="13.468496054139306"><ele>694.75</ele><time>2026-04-23T18:11:46.999Z</time></trkpt><trkpt lat="42.05491043562829" lon="13.468358279491262"><ele>694.5</ele><time>2026-04-23T18:11:47.999Z</time></trkpt><trkpt lat="42.05483647605006" lon="13.468220516049318"><ele>694.25</ele><time>2026-04-23T18:11:48.999Z</time></trkpt><trkpt lat="42.05476478743554" lon="13.468085078967055"><ele>694.0</ele><time>2026-04-23T18:11:49.999Z</time></trkpt><trkpt lat="42.05469267996568" lon="13.467950475516677"><ele>694.5</ele><time>2026-04-23T18:11:50.999Z</time></trkpt><trkpt lat="42.05462088325596" lon="13.467816808979252"><ele>695.0</ele><time>2026-04-23T18:11:51.999Z</time></trkpt><trkpt lat="42.05455060922016" lon="13.467682329682658"><ele>695.5</ele><time>2026-04-23T18:11:52.999Z</time></trkpt><trkpt lat="42.05448125489131" lon="13.467551599767678"><ele>696.0</ele><time>2026-04-23T18:11:53.999Z</time></trkpt><trkpt lat="42.054411976751304" lon="13.46742414768211"><ele>696.0</ele><time>2026-04-23T18:11:54.999Z</time></trkpt><trkpt lat="42.0543469715448" lon="13.46730203467641"><ele>696.0</ele><time>2026-04-23T18:11:55.999Z</time></trkpt><trkpt lat="42.054282196326795" lon="13.467179177164018"><ele>696.0</ele><time>2026-04-23T18:11:56.999Z</time></trkpt><trkpt lat="42.05421780081854" lon="13.467058472279229"><ele>696.0</ele><time>2026-04-23T18:11:57.999Z</time></trkpt><trkpt lat="42.05415451002819" lon="13.46693802654626"><ele>696.0</ele><time>2026-04-23T18:11:58.999Z</time></trkpt><trkpt lat="42.05408941996996" lon="13.466812576829906"><ele>696.25</ele><time>2026-04-23T18:11:59.999Z</time></trkpt><trkpt lat="42.054022812385966" lon="13.466686306267677"><ele>696.5</ele><time>2026-04-23T18:12:00.999Z</time></trkpt><trkpt lat="42.053955181301134" lon="13.466562321089397"><ele>696.75</ele><time>2026-04-23T18:12:01.999Z</time></trkpt><trkpt lat="42.05388787155876" lon="13.46643661741304"><ele>697.0</ele><time>2026-04-23T18:12:02.999Z</time></trkpt><trkpt lat="42.0538211013561" lon="13.466310052870734"><ele>697.5</ele><time>2026-04-23T18:12:03.999Z</time></trkpt><trkpt lat="42.053753865065445" lon="13.466182253238088"><ele>698.0</ele><time>2026-04-23T18:12:04.999Z</time></trkpt><trkpt lat="42.05368642217737" lon="13.466054645874554"><ele>698.5</ele><time>2026-04-23T18:12:05.999Z</time></trkpt><trkpt lat="42.05361942035125" lon="13.465927985256055"><ele>699.0</ele><time>2026-04-23T18:12:06.999Z</time></trkpt><trkpt lat="42.05355820428183" lon="13.46580568411963"><ele>699.0</ele><time>2026-04-23T18:12:07.999Z</time></trkpt><trkpt lat="42.05349848633758" lon="13.46568976061266"><ele>699.0</ele><time>2026-04-23T18:12:08.999Z</time></trkpt><trkpt lat="42.05343910947491" lon="13.465573096932827"><ele>699.0</ele><time>2026-04-23T18:12:09.999Z</time></trkpt><trkpt lat="42.05338133717678" lon="13.465462834822707"><ele>699.0</ele><time>2026-04-23T18:12:10.999Z</time></trkpt><trkpt lat="42.05332554173361" lon="13.465356441526565"><ele>699.0</ele><time>2026-04-23T18:12:11.999Z</time></trkpt><trkpt lat="42.053268378203086" lon="13.465246875509978"><ele>698.8000000000001</ele><time>2026-04-23T18:12:12.999Z</time></trkpt><trkpt lat="42.0532138108317" lon="13.46513780447839"><ele>698.6</ele><time>2026-04-23T18:12:13.999Z</time></trkpt><trkpt lat="42.053145146837494" lon="13.465017676876448"><ele>698.4</ele><time>2026-04-23T18:12:14.999Z</time></trkpt><trkpt lat="42.05309632387404" lon="13.464926745113889"><ele>698.2</ele><time>2026-04-23T18:12:15.999Z</time></trkpt><trkpt lat="42.05303938654268" lon="13.464818115253822"><ele>698.0</ele><time>2026-04-23T18:12:17Z</time></trkpt><trkpt lat="42.052981126609005" lon="13.464709375135882"><ele>698.4</ele><time>2026-04-23T18:12:18Z</time></trkpt><trkpt lat="42.05292300105951" lon="13.46459523850308"><ele>698.8</ele><time>2026-04-23T18:12:19Z</time></trkpt><trkpt lat="42.05286349463336" lon="13.464480758098624"><ele>699.2</ele><time>2026-04-23T18:12:20Z</time></trkpt><trkpt lat="42.0528019979459" lon="13.46436107671895"><ele>699.6</ele><time>2026-04-23T18:12:21Z</time></trkpt><trkpt lat="42.05274195517998" lon="13.464242745118025"><ele>700.0</ele><time>2026-04-23T18:12:22Z</time></trkpt><trkpt lat="42.05268065820215" lon="13.464126313376436"><ele>700.0</ele><time>2026-04-23T18:12:23Z</time></trkpt><trkpt lat="42.0526212039331" lon="13.464005559371476"><ele>700.0</ele><time>2026-04-23T18:12:24Z</time></trkpt><trkpt lat="42.052562869214384" lon="13.463896883038533"><ele>700.0</ele><time>2026-04-23T18:12:25Z</time></trkpt><trkpt lat="42.05250416243685" lon="13.463789996287037"><ele>700.0</ele><time>2026-04-23T18:12:26Z</time></trkpt><trkpt lat="42.05245124762154" lon="13.463697542913831"><ele>700.0</ele><time>2026-04-23T18:12:27Z</time></trkpt><trkpt lat="42.05238708264719" lon="13.463577539709124"><ele>700.0</ele><time>2026-04-23T18:12:28Z</time></trkpt><trkpt lat="42.05231879208181" lon="13.463459059764892"><ele>700.0</ele><time>2026-04-23T18:12:29Z</time></trkpt><trkpt lat="42.052253445480275" lon="13.463338710340157"><ele>700.0</ele><time>2026-04-23T18:12:30Z</time></trkpt><trkpt lat="42.05218681652475" lon="13.46321945466344"><ele>700.0</ele><time>2026-04-23T18:12:31Z</time></trkpt><trkpt lat="42.05212328750124" lon="13.463105642879478"><ele>700.0</ele><time>2026-04-23T18:12:32Z</time></trkpt><trkpt lat="42.05206290386055" lon="13.462990723530131"><ele>700.6</ele><time>2026-04-23T18:12:33Z</time></trkpt><trkpt lat="42.05200744457893" lon="13.462881519105398"><ele>701.2</ele><time>2026-04-23T18:12:34Z</time></trkpt><trkpt lat="42.05195210193856" lon="13.462775685137144"><ele>701.8</ele><time>2026-04-23T18:12:35Z</time></trkpt><trkpt lat="42.05189924058524" lon="13.462676845159967"><ele>702.4</ele><time>2026-04-23T18:12:36Z</time></trkpt><trkpt lat="42.05184806599353" lon="13.462579978659791"><ele>703.0</ele><time>2026-04-23T18:12:37Z</time></trkpt><trkpt lat="42.051798850047106" lon="13.462500029076573"><ele>703.0</ele><time>2026-04-23T18:12:38Z</time></trkpt><trkpt lat="42.05175319955694" lon="13.462420695181798"><ele>703.0</ele><time>2026-04-23T18:12:39Z</time></trkpt><trkpt lat="42.051713751822504" lon="13.462341575971186"><ele>703.0</ele><time>2026-04-23T18:12:40Z</time></trkpt><trkpt lat="42.05167578220478" lon="13.462267494381676"><ele>703.0</ele><time>2026-04-23T18:12:41Z</time></trkpt><trkpt lat="42.051639829849755" lon="13.46219788638228"><ele>703.0</ele><time>2026-04-23T18:12:42Z</time></trkpt><trkpt lat="42.05157728760747" lon="13.462072532056723"><ele>703.0</ele><time>2026-04-23T18:12:44Z</time></trkpt><trkpt lat="42.051524506994745" lon="13.461974963080072"><ele>702.6666666666667</ele><time>2026-04-23T18:12:46Z</time></trkpt><trkpt lat="42.051484427475216" lon="13.46189451253114"><ele>702.3333333333334</ele><time>2026-04-23T18:12:48Z</time></trkpt><trkpt lat="42.0514193291401" lon="13.461780732542184"><ele>702.0</ele><time>2026-04-23T18:12:50Z</time></trkpt><trkpt lat="42.051379809048335" lon="13.461707693692617"><ele>701.6666666666666</ele><time>2026-04-23T18:12:51Z</time></trkpt><trkpt lat="42.051337620396055" lon="13.461619540662571"><ele>701.3333333333333</ele><time>2026-04-23T18:12:52Z</time></trkpt><trkpt lat="42.05129337790705" lon="13.461521464012852"><ele>701.0</ele><time>2026-04-23T18:12:53Z</time></trkpt><trkpt lat="42.05123966964783" lon="13.461419983183916"><ele>701.0</ele><time>2026-04-23T18:12:54Z</time></trkpt><trkpt lat="42.051185547990244" lon="13.461310914498679"><ele>701.0</ele><time>2026-04-23T18:12:55Z</time></trkpt><trkpt lat="42.05112565015812" lon="13.461200011899345"><ele>701.0</ele><time>2026-04-23T18:12:56Z</time></trkpt><trkpt lat="42.05107065603846" lon="13.461092962521002"><ele>701.0</ele><time>2026-04-23T18:12:57Z</time></trkpt><trkpt lat="42.05102125890997" lon="13.460999707879983"><ele>701.0</ele><time>2026-04-23T18:12:58Z</time></trkpt><trkpt lat="42.050982338494286" lon="13.460915636681657"><ele>701.4285714285714</ele><time>2026-04-23T18:12:59Z</time></trkpt><trkpt lat="42.05097232798254" lon="13.460827034141273"><ele>701.8571428571428</ele><time>2026-04-23T18:13:00Z</time></trkpt><trkpt lat="42.0510020228269" lon="13.46074986857796"><ele>702.2857142857142</ele><time>2026-04-23T18:13:01Z</time></trkpt><trkpt lat="42.051012904045585" lon="13.46066307130422"><ele>702.7142857142858</ele><time>2026-04-23T18:13:02Z</time></trkpt><trkpt lat="42.051025375844084" lon="13.460571324566551"><ele>703.1428571428571</ele><time>2026-04-23T18:13:03Z</time></trkpt><trkpt lat="42.051045906771115" lon="13.4604657148885"><ele>703.5714285714286</ele><time>2026-04-23T18:13:04Z</time></trkpt><trkpt lat="42.051071507446665" lon="13.460350870331213"><ele>704.0</ele><time>2026-04-23T18:13:05Z</time></trkpt><trkpt lat="42.051094905151615" lon="13.460245482959241"><ele>704.2857142857143</ele><time>2026-04-23T18:13:06Z</time></trkpt><trkpt lat="42.05110031813402" lon="13.46015497741275"><ele>704.5714285714286</ele><time>2026-04-23T18:13:07Z</time></trkpt><trkpt lat="42.0511334944896" lon="13.460080573027911"><ele>704.8571428571429</ele><time>2026-04-23T18:13:07.999Z</time></trkpt><trkpt lat="42.05114299726677" lon="13.459992926844954"><ele>705.1428571428571</ele><time>2026-04-23T18:13:08.999Z</time></trkpt><trkpt lat="42.05113275753621" lon="13.459891734049267"><ele>705.4285714285714</ele><time>2026-04-23T18:13:09.999Z</time></trkpt><trkpt lat="42.05111616320517" lon="13.459795397127136"><ele>705.7142857142857</ele><time>2026-04-23T18:13:10.999Z</time></trkpt><trkpt lat="42.05110465200947" lon="13.459702210102064"><ele>706.0</ele><time>2026-04-23T18:13:11.999Z</time></trkpt><trkpt lat="42.05110745249488" lon="13.459604644053348"><ele>706.0</ele><time>2026-04-23T18:13:12.999Z</time></trkpt><trkpt lat="42.05116173130716" lon="13.459469925726676"><ele>706.0</ele><time>2026-04-23T18:13:14.999Z</time></trkpt><trkpt lat="42.05123720537327" lon="13.459410997509815"><ele>706.0</ele><time>2026-04-23T18:13:16.999Z</time></trkpt><trkpt lat="42.05131786468178" lon="13.459286030825075"><ele>706.0</ele><time>2026-04-23T18:13:18.999Z</time></trkpt><trkpt lat="42.05134980269568" lon="13.459191327235025"><ele>706.0</ele><time>2026-04-23T18:13:19.999Z</time></trkpt><trkpt lat="42.05137401821933" lon="13.459082422251072"><ele>706.0</ele><time>2026-04-23T18:13:20.999Z</time></trkpt><trkpt lat="42.0513984548844" lon="13.458980499763667"><ele>706.0</ele><time>2026-04-23T18:13:21.999Z</time></trkpt><trkpt lat="42.0514238321473" lon="13.458878924291058"><ele>706.0</ele><time>2026-04-23T18:13:22.999Z</time></trkpt><trkpt lat="42.05144757640338" lon="13.458783885113023"><ele>706.0</ele><time>2026-04-23T18:13:23.999Z</time></trkpt><trkpt lat="42.05147087901293" lon="13.458690613655582"><ele>706.0</ele><time>2026-04-23T18:13:24.999Z</time></trkpt><trkpt lat="42.0514930078506" lon="13.458602040356219"><ele>706.0</ele><time>2026-04-23T18:13:25.999Z</time></trkpt><trkpt lat="42.05151939839544" lon="13.458496408655849"><ele>706.0</ele><time>2026-04-23T18:13:26.999Z</time></trkpt><trkpt lat="42.05154191015248" lon="13.458394099269517"><ele>706.0</ele><time>2026-04-23T18:13:27.999Z</time></trkpt><trkpt lat="42.051551999082506" lon="13.458277163602876"><ele>706.0</ele><time>2026-04-23T18:13:28.999Z</time></trkpt><trkpt lat="42.05158192962264" lon="13.458161655482897"><ele>706.0</ele><time>2026-04-23T18:13:29.999Z</time></trkpt><trkpt lat="42.0516160337167" lon="13.458035741507263"><ele>706.0</ele><time>2026-04-23T18:13:30.999Z</time></trkpt><trkpt lat="42.05166443134108" lon="13.45790330279548"><ele>707.0</ele><time>2026-04-23T18:13:31.999Z</time></trkpt><trkpt lat="42.051701604768155" lon="13.457750654459563"><ele>708.0</ele><time>2026-04-23T18:13:32.999Z</time></trkpt><trkpt lat="42.05174083618498" lon="13.457589151101418"><ele>709.0</ele><time>2026-04-23T18:13:33.999Z</time></trkpt><trkpt lat="42.051779680847645" lon="13.457427105825243"><ele>710.0</ele><time>2026-04-23T18:13:34.999Z</time></trkpt><trkpt lat="42.05182111464062" lon="13.457254259628609"><ele>711.0</ele><time>2026-04-23T18:13:35.999Z</time></trkpt><trkpt lat="42.0518627779589" lon="13.457080455967033"><ele>712.0</ele><time>2026-04-23T18:13:36.999Z</time></trkpt><trkpt lat="42.0519059428354" lon="13.456900666287693"><ele>713.0</ele><time>2026-04-23T18:13:37.999Z</time></trkpt><trkpt lat="42.05194599589399" lon="13.456734705157372"><ele>714.0</ele><time>2026-04-23T18:13:38.999Z</time></trkpt><trkpt lat="42.05197749242952" lon="13.45660419822081"><ele>714.0</ele><time>2026-04-23T18:13:39.999Z</time></trkpt><trkpt lat="42.05200689376036" lon="13.456482372843706"><ele>714.0</ele><time>2026-04-23T18:13:40.999Z</time></trkpt><trkpt lat="42.05201795719225" lon="13.456365657431446"><ele>714.0</ele><time>2026-04-23T18:13:41.999Z</time></trkpt><trkpt lat="42.05204993487053" lon="13.456261491524284"><ele>714.0</ele><time>2026-04-23T18:13:42.999Z</time></trkpt><trkpt lat="42.052077354026025" lon="13.456152713919078"><ele>714.0</ele><time>2026-04-23T18:13:43.999Z</time></trkpt><trkpt lat="42.05210710911359" lon="13.45603983199457"><ele>714.0</ele><time>2026-04-23T18:13:44.999Z</time></trkpt><trkpt lat="42.05213405872513" lon="13.4559240186439"><ele>715.2</ele><time>2026-04-23T18:13:45.999Z</time></trkpt><trkpt lat="42.05215988790358" lon="13.45580615991912"><ele>716.4000000000001</ele><time>2026-04-23T18:13:46.999Z</time></trkpt><trkpt lat="42.05218801975376" lon="13.45568480613186"><ele>717.6</ele><time>2026-04-23T18:13:47.999Z</time></trkpt><trkpt lat="42.052216713875815" lon="13.455551335398441"><ele>718.8</ele><time>2026-04-23T18:13:48.999Z</time></trkpt><trkpt lat="42.05225035390396" lon="13.455418539631419"><ele>720.0</ele><time>2026-04-23T18:13:49.999Z</time></trkpt><trkpt lat="42.052283933890365" lon="13.455274428082314"><ele>720.75</ele><time>2026-04-23T18:13:50.999Z</time></trkpt><trkpt lat="42.05232052122247" lon="13.455127115088791"><ele>721.5</ele><time>2026-04-23T18:13:51.999Z</time></trkpt><trkpt lat="42.05235599305245" lon="13.454975280094063"><ele>722.25</ele><time>2026-04-23T18:13:52.999Z</time></trkpt><trkpt lat="42.05239261806233" lon="13.45481948618339"><ele>723.0</ele><time>2026-04-23T18:13:53.999Z</time></trkpt><trkpt lat="42.05243414722902" lon="13.45465728047948"><ele>724.75</ele><time>2026-04-23T18:13:54.999Z</time></trkpt><trkpt lat="42.052476473276556" lon="13.45448742898214"><ele>726.5</ele><time>2026-04-23T18:13:55.999Z</time></trkpt><trkpt lat="42.05252105398037" lon="13.454309352838806"><ele>728.25</ele><time>2026-04-23T18:13:56.999Z</time></trkpt><trkpt lat="42.05256585552006" lon="13.454126212604463"><ele>730.0</ele><time>2026-04-23T18:13:57.999Z</time></trkpt><trkpt lat="42.05260981445043" lon="13.453936937550072"><ele>730.75</ele><time>2026-04-23T18:13:58.999Z</time></trkpt><trkpt lat="42.05265721337202" lon="13.453742117615018"><ele>731.5</ele><time>2026-04-23T18:13:59.999Z</time></trkpt><trkpt lat="42.052705115553174" lon="13.453554975028856"><ele>732.25</ele><time>2026-04-23T18:14:00.999Z</time></trkpt><trkpt lat="42.052753290455655" lon="13.453370045766688"><ele>733.0</ele><time>2026-04-23T18:14:01.999Z</time></trkpt><trkpt lat="42.05279317727452" lon="13.45318999331228"><ele>733.0</ele><time>2026-04-23T18:14:02.999Z</time></trkpt><trkpt lat="42.05283353131245" lon="13.453006596720288"><ele>733.0</ele><time>2026-04-23T18:14:03.999Z</time></trkpt><trkpt lat="42.05285692474564" lon="13.452813034859714"><ele>733.0</ele><time>2026-04-23T18:14:04.999Z</time></trkpt><trkpt lat="42.052860624446964" lon="13.452610179973165"><ele>733.0</ele><time>2026-04-23T18:14:05.999Z</time></trkpt><trkpt lat="42.05284524040201" lon="13.452387432521547"><ele>733.3333333333334</ele><time>2026-04-23T18:14:06.999Z</time></trkpt><trkpt lat="42.0528152667553" lon="13.452179564511816"><ele>733.6666666666666</ele><time>2026-04-23T18:14:07.999Z</time></trkpt><trkpt lat="42.052780367669094" lon="13.451967121418267"><ele>734.0</ele><time>2026-04-23T18:14:08.999Z</time></trkpt><trkpt lat="42.05272848681458" lon="13.451755847177395"><ele>734.6666666666666</ele><time>2026-04-23T18:14:09.999Z</time></trkpt><trkpt lat="42.05267393317487" lon="13.451554345437309"><ele>735.3333333333334</ele><time>2026-04-23T18:14:10.999Z</time></trkpt><trkpt lat="42.05261672828787" lon="13.451358881218955"><ele>736.0</ele><time>2026-04-23T18:14:11.999Z</time></trkpt><trkpt lat="42.05257225485062" lon="13.45115979092833"><ele>736.0</ele><time>2026-04-23T18:14:12.999Z</time></trkpt><trkpt lat="42.05254502430926" lon="13.450953628803704"><ele>736.0</ele><time>2026-04-23T18:14:13.999Z</time></trkpt><trkpt lat="42.052544472417104" lon="13.45074524521408"><ele>736.0</ele><time>2026-04-23T18:14:14.999Z</time></trkpt></trkseg></trk></gpx>